<?xml version='1.0' encoding='UTF-8'?><gpx version="1.1" creator="JPX - https://github.com/jenetics/jpx" xmlns="http://www.topografix.com/GPX/1/1"><trk><trkseg><trkpt lat="45.03657649389579" lon="7.640588932134289"><ele>256.0</ele><time>2026-04-19T10:59:09.113Z</time></trkpt><trkpt lat="45.03652458947763" lon="7.640524093555311"><ele>255.99999999999997</ele><time>2026-04-19T10:59:14Z</time></trkpt><trkpt lat="45.03648560388192" lon="7.640451273119557"><ele>256.0</ele><time>2026-04-19T10:59:23Z</time></trkpt><trkpt lat="45.036443989881946" lon="7.640381259964473"><ele>256.0</ele><time>2026-04-19T10:59:25Z</time></trkpt><trkpt lat="45.03648883148135" lon="7.640467948362785"><ele>255.99999999999997</ele><time>2026-04-19T11:00:10.999Z</time></trkpt><trkpt lat="45.03654717035678" lon="7.6405566357153365"><ele>256.0</ele><time>2026-04-19T11:00:12.999Z</time></trkpt><trkpt lat="45.03649016320032" lon="7.6404754616216035"><ele>256.0</ele><time>2026-04-19T11:00:33.999Z</time></trkpt><trkpt lat="45.036430091407674" lon="7.640389029130814"><ele>256.0</ele><time>2026-04-19T11:00:38.999Z</time></trkpt><trkpt lat="45.03638227680711" lon="7.6403187631480165"><ele>256.0</ele><time>2026-04-19T11:00:40.999Z</time></trkpt><trkpt lat="45.03648964414442" lon="7.6404755059955685"><ele>256.0</ele><time>2026-04-19T11:00:43.999Z</time></trkpt><trkpt lat="45.03655954234671" lon="7.640581819899614"><ele>256.0</ele><time>2026-04-19T11:01:23.999Z</time></trkpt><trkpt lat="45.03649519841372" lon="7.64051605930936"><ele>256.0</ele><time>2026-04-19T11:01:47.999Z</time></trkpt><trkpt lat="45.03644171698508" lon="7.640455701630453"><ele>255.99999999999997</ele><time>2026-04-19T11:01:49.999Z</time></trkpt><trkpt lat="45.03638888353509" lon="7.6403960752425295"><ele>256.0</ele><time>2026-04-19T11:01:51.999Z</time></trkpt><trkpt lat="45.036344287149134" lon="7.6403074816689935"><ele>256.0</ele><time>2026-04-19T11:02:41.999Z</time></trkpt><trkpt lat="45.036395858764145" lon="7.6403730632689095"><ele>256.0</ele><time>2026-04-19T11:02:46.999Z</time></trkpt><trkpt lat="45.03651059776406" lon="7.640523960781965"><ele>255.99999999999997</ele><time>2026-04-19T11:03:02.999Z</time></trkpt><trkpt lat="45.0365678107047" lon="7.640597800709518"><ele>256.0</ele><time>2026-04-19T11:03:04.999Z</time></trkpt><trkpt lat="45.03651730811544" lon="7.640498554017529"><ele>256.0</ele><time>2026-04-19T11:04:48.143Z</time></trkpt><trkpt lat="45.03646035343347" lon="7.640402901535835"><ele>256.0</ele><time>2026-04-19T11:04:53.139Z</time></trkpt><trkpt lat="45.03657303974136" lon="7.640525777259178"><ele>256.0</ele><time>2026-04-19T11:05:10.14Z</time></trkpt><trkpt lat="45.036633600656685" lon="7.6406623058082275"><ele>256.0</ele><time>2026-04-19T11:09:31.144Z</time></trkpt><trkpt lat="45.036655698694396" lon="7.640554446095058"><ele>256.0</ele><time>2026-04-19T11:12:08Z</time></trkpt><trkpt lat="45.03671101370764" lon="7.640456846861124"><ele>255.99999999999997</ele><time>2026-04-19T11:12:11Z</time></trkpt><trkpt lat="45.036733715593" lon="7.640351697280579"><ele>256.0</ele><time>2026-04-19T11:12:13Z</time></trkpt><trkpt lat="45.03680653519129" lon="7.6402234501313515"><ele>256.0</ele><time>2026-04-19T11:12:15Z</time></trkpt><trkpt lat="45.03685881937241" lon="7.640143244709646"><ele>256.0</ele><time>2026-04-19T11:12:16.999Z</time></trkpt><trkpt lat="45.036908847599776" lon="7.640072214684388"><ele>255.99999999999997</ele><time>2026-04-19T11:12:18.999Z</time></trkpt><trkpt lat="45.03696034468548" lon="7.639978725110536"><ele>256.0</ele><time>2026-04-19T11:12:20.999Z</time></trkpt><trkpt lat="45.03701471607171" lon="7.639893522025763"><ele>256.40000000000003</ele><time>2026-04-19T11:12:22.999Z</time></trkpt><trkpt lat="45.037067066167694" lon="7.639794016974846"><ele>256.8</ele><time>2026-04-19T11:12:24.999Z</time></trkpt><trkpt lat="45.03712840283426" lon="7.639601936320548"><ele>257.20000000000005</ele><time>2026-04-19T11:12:26.999Z</time></trkpt><trkpt lat="45.03719936208263" lon="7.6395183592883775"><ele>257.6</ele><time>2026-04-19T11:12:29Z</time></trkpt><trkpt lat="45.03724556317267" lon="7.639435324765347"><ele>258.0</ele><time>2026-04-19T11:12:32.999Z</time></trkpt><trkpt lat="45.03732127561931" lon="7.639412654489148"><ele>258.0</ele><time>2026-04-19T11:12:39.999Z</time></trkpt><trkpt lat="45.0373779160833" lon="7.63936053507107"><ele>258.0</ele><time>2026-04-19T11:12:43.999Z</time></trkpt><trkpt lat="45.037416334460445" lon="7.639262731596708"><ele>258.0</ele><time>2026-04-19T11:12:45.999Z</time></trkpt><trkpt lat="45.03746001246365" lon="7.639172916123364"><ele>258.0</ele><time>2026-04-19T11:12:47.999Z</time></trkpt><trkpt lat="45.03750536492827" lon="7.639026095880596"><ele>258.0</ele><time>2026-04-19T11:12:49.999Z</time></trkpt><trkpt lat="45.03756240175552" lon="7.638915758369264"><ele>258.0</ele><time>2026-04-19T11:12:51.999Z</time></trkpt><trkpt lat="45.03757794191445" lon="7.6388291870911"><ele>258.0</ele><time>2026-04-19T11:12:53.999Z</time></trkpt><trkpt lat="45.037633666866306" lon="7.638720443644516"><ele>258.0</ele><time>2026-04-19T11:12:55.999Z</time></trkpt><trkpt lat="45.037663294557156" lon="7.638622060206529"><ele>258.0</ele><time>2026-04-19T11:12:57.999Z</time></trkpt><trkpt lat="45.037689710714865" lon="7.638538983152419"><ele>258.0</ele><time>2026-04-19T11:12:58.999Z</time></trkpt><trkpt lat="45.0377400244431" lon="7.63841283867655"><ele>258.0</ele><time>2026-04-19T11:13:00.999Z</time></trkpt><trkpt lat="45.03781303637702" lon="7.638298356978847"><ele>258.0</ele><time>2026-04-19T11:13:02.999Z</time></trkpt><trkpt lat="45.03787666349991" lon="7.638187547289658"><ele>257.4</ele><time>2026-04-19T11:13:04.999Z</time></trkpt><trkpt lat="45.03793785298586" lon="7.6380433018281755"><ele>256.8</ele><time>2026-04-19T11:13:06.999Z</time></trkpt><trkpt lat="45.03800447095524" lon="7.637935511953881"><ele>256.2</ele><time>2026-04-19T11:13:08.999Z</time></trkpt><trkpt lat="45.03806839196048" lon="7.637826547738128"><ele>255.6</ele><time>2026-04-19T11:13:10.999Z</time></trkpt><trkpt lat="45.03814096344279" lon="7.637721578895701"><ele>255.0</ele><time>2026-04-19T11:13:12.999Z</time></trkpt><trkpt lat="45.03820297517425" lon="7.637607149375961"><ele>255.5</ele><time>2026-04-19T11:13:14.999Z</time></trkpt><trkpt lat="45.03826240880857" lon="7.637501854409108"><ele>256.0</ele><time>2026-04-19T11:13:16.999Z</time></trkpt><trkpt lat="45.03830641532631" lon="7.637415245667895"><ele>256.5</ele><time>2026-04-19T11:13:17.999Z</time></trkpt><trkpt lat="45.03835096560831" lon="7.6373347333579265"><ele>257.0</ele><time>2026-04-19T11:13:18.999Z</time></trkpt><trkpt lat="45.03840790005248" lon="7.637266793729574"><ele>257.5</ele><time>2026-04-19T11:13:19.999Z</time></trkpt><trkpt lat="45.03846215936233" lon="7.637189750947255"><ele>258.0</ele><time>2026-04-19T11:13:20.999Z</time></trkpt><trkpt lat="45.0385133511281" lon="7.637121291129783"><ele>258.0</ele><time>2026-04-19T11:13:21.999Z</time></trkpt><trkpt lat="45.038579052803186" lon="7.637012699080172"><ele>258.0</ele><time>2026-04-19T11:13:23.999Z</time></trkpt><trkpt lat="45.03861351243887" lon="7.636924678020337"><ele>258.0</ele><time>2026-04-19T11:13:25.999Z</time></trkpt><trkpt lat="45.038653104613296" lon="7.636824574982723"><ele>258.0</ele><time>2026-04-19T11:13:27.999Z</time></trkpt><trkpt lat="45.038722650590664" lon="7.63677521906667"><ele>258.0</ele><time>2026-04-19T11:13:29.999Z</time></trkpt><trkpt lat="45.03880109558083" lon="7.636823643431208"><ele>258.0</ele><time>2026-04-19T11:13:31.999Z</time></trkpt><trkpt lat="45.03886247949361" lon="7.636871544279233"><ele>258.0</ele><time>2026-04-19T11:13:33.999Z</time></trkpt><trkpt lat="45.038941166644825" lon="7.636871171670905"><ele>258.0</ele><time>2026-04-19T11:13:35.999Z</time></trkpt><trkpt lat="45.0389788800809" lon="7.636799792708977"><ele>258.0</ele><time>2026-04-19T11:13:37.999Z</time></trkpt><trkpt lat="45.0390421570328" lon="7.63683097876224"><ele>258.0</ele><time>2026-04-19T11:13:39.999Z</time></trkpt><trkpt lat="45.039114409943295" lon="7.63687357315097"><ele>258.0</ele><time>2026-04-19T11:13:41.999Z</time></trkpt><trkpt lat="45.039183741742114" lon="7.636939402140224"><ele>258.0</ele><time>2026-04-19T11:13:43.999Z</time></trkpt><trkpt lat="45.03925675373313" lon="7.6370134988999485"><ele>258.6</ele><time>2026-04-19T11:13:46Z</time></trkpt><trkpt lat="45.03931290124361" lon="7.637118068559893"><ele>259.20000000000005</ele><time>2026-04-19T11:13:48Z</time></trkpt><trkpt lat="45.0393948888719" lon="7.6371880678223"><ele>259.8</ele><time>2026-04-19T11:13:49.999Z</time></trkpt><trkpt lat="45.039474503904096" lon="7.637263375678341"><ele>260.40000000000003</ele><time>2026-04-19T11:13:52Z</time></trkpt><trkpt lat="45.03953798469782" lon="7.637380513989197"><ele>261.0</ele><time>2026-04-19T11:13:53.999Z</time></trkpt><trkpt lat="45.03961737336741" lon="7.637487553170103"><ele>261.0</ele><time>2026-04-19T11:13:55.999Z</time></trkpt><trkpt lat="45.03969479158168" lon="7.637526127019859"><ele>261.0</ele><time>2026-04-19T11:13:57.999Z</time></trkpt><trkpt lat="45.039771402998305" lon="7.63750816604934"><ele>261.0</ele><time>2026-04-19T11:13:59.999Z</time></trkpt><trkpt lat="45.03979628126751" lon="7.637413927507967"><ele>261.0</ele><time>2026-04-19T11:14:01.999Z</time></trkpt><trkpt lat="45.039838337256676" lon="7.637289079527023"><ele>261.0</ele><time>2026-04-19T11:14:03.999Z</time></trkpt><trkpt lat="45.03990583461109" lon="7.637184365816235"><ele>261.0</ele><time>2026-04-19T11:14:05.999Z</time></trkpt><trkpt lat="45.03998939474773" lon="7.637094229865471"><ele>260.8333333333333</ele><time>2026-04-19T11:14:07.999Z</time></trkpt><trkpt lat="45.04000076226557" lon="7.636998308782268"><ele>260.6666666666667</ele><time>2026-04-19T11:14:08.999Z</time></trkpt><trkpt lat="45.04001122921349" lon="7.6369069121733"><ele>260.5</ele><time>2026-04-19T11:14:09.999Z</time></trkpt><trkpt lat="45.040049851070776" lon="7.636783920299643"><ele>260.33333333333337</ele><time>2026-04-19T11:14:11.999Z</time></trkpt><trkpt lat="45.04009475899077" lon="7.636638857649973"><ele>260.1666666666667</ele><time>2026-04-19T11:14:13.999Z</time></trkpt><trkpt lat="45.04017298533259" lon="7.636547502519648"><ele>260.0</ele><time>2026-04-19T11:14:15.999Z</time></trkpt><trkpt lat="45.04026219458932" lon="7.636492052440714"><ele>260.33333333333337</ele><time>2026-04-19T11:14:17.999Z</time></trkpt><trkpt lat="45.040334973543914" lon="7.636498631641901"><ele>260.6666666666667</ele><time>2026-04-19T11:14:21.999Z</time></trkpt><trkpt lat="45.04040241551707" lon="7.636543168514755"><ele>261.0</ele><time>2026-04-19T11:14:24.999Z</time></trkpt><trkpt lat="45.040467371962265" lon="7.636592631188657"><ele>261.3333333333333</ele><time>2026-04-19T11:14:28.999Z</time></trkpt><trkpt lat="45.04054488249499" lon="7.636620994110769"><ele>261.66666666666663</ele><time>2026-04-19T11:14:30.999Z</time></trkpt><trkpt lat="45.040609217508354" lon="7.636645861394294"><ele>262.0</ele><time>2026-04-19T11:14:32.999Z</time></trkpt><trkpt lat="45.04072644127725" lon="7.636669603240381"><ele>262.0</ele><time>2026-04-19T11:14:37.999Z</time></trkpt><trkpt lat="45.04078696410033" lon="7.636703653781764"><ele>262.0</ele><time>2026-04-19T11:14:39.999Z</time></trkpt><trkpt lat="45.04083964992151" lon="7.636792445509079"><ele>262.0</ele><time>2026-04-19T11:14:43.999Z</time></trkpt><trkpt lat="45.041056865435706" lon="7.636854925253296"><ele>262.0</ele><time>2026-04-19T11:15:58.582Z</time></trkpt><trkpt lat="45.04121234566661" lon="7.637072525730675"><ele>261.5</ele><time>2026-04-19T11:18:19.673Z</time></trkpt><trkpt lat="45.04104492758548" lon="7.637074547309442"><ele>261.0</ele><time>2026-04-19T11:18:58.557Z</time></trkpt><trkpt lat="45.04110084042465" lon="7.637017557309861"><ele>260.5</ele><time>2026-04-19T11:21:49.647Z</time></trkpt><trkpt lat="45.0411845009822" lon="7.637196951464433"><ele>260.0</ele><time>2026-04-19T11:24:02.372Z</time></trkpt><trkpt lat="45.041227253715114" lon="7.637484945073778"><ele>259.5</ele><time>2026-04-19T11:24:03.796Z</time></trkpt><trkpt lat="45.04151949830545" lon="7.637843541081104"><ele>259.0</ele><time>2026-04-19T11:24:25.279Z</time></trkpt><trkpt lat="45.04156231818258" lon="7.638080537203193"><ele>259.4</ele><time>2026-04-19T11:24:31.326Z</time></trkpt><trkpt lat="45.04167449607837" lon="7.638181359630393"><ele>259.79999999999995</ele><time>2026-04-19T11:24:35Z</time></trkpt><trkpt lat="45.041724585971814" lon="7.638077109555074"><ele>260.20000000000005</ele><time>2026-04-19T11:24:37.999Z</time></trkpt><trkpt lat="45.04177221775523" lon="7.638016923493199"><ele>260.6</ele><time>2026-04-19T11:24:39.998Z</time></trkpt><trkpt lat="45.04178781443206" lon="7.637918527097028"><ele>261.0</ele><time>2026-04-19T11:24:48.996Z</time></trkpt><trkpt lat="45.041899672746155" lon="7.6379445851382926"><ele>261.0</ele><time>2026-04-19T11:25:26Z</time></trkpt><trkpt lat="45.04195028318521" lon="7.638056734368333"><ele>261.0</ele><time>2026-04-19T11:25:27Z</time></trkpt><trkpt lat="45.04213373029998" lon="7.638287759439315"><ele>261.0</ele><time>2026-04-19T11:25:30Z</time></trkpt><trkpt lat="45.042180026659004" lon="7.638381589933609"><ele>261.0</ele><time>2026-04-19T11:25:31Z</time></trkpt><trkpt lat="45.042230742150586" lon="7.638484376880471"><ele>261.0</ele><time>2026-04-19T11:25:32Z</time></trkpt><trkpt lat="45.04228450242586" lon="7.6385933348577915"><ele>261.0</ele><time>2026-04-19T11:25:33Z</time></trkpt><trkpt lat="45.04234351804368" lon="7.6387129438823225"><ele>261.0</ele><time>2026-04-19T11:25:34Z</time></trkpt><trkpt lat="45.04239956549648" lon="7.638856746857796"><ele>261.0</ele><time>2026-04-19T11:25:35Z</time></trkpt><trkpt lat="45.04246479284955" lon="7.638983723976001"><ele>261.0</ele><time>2026-04-19T11:25:36Z</time></trkpt><trkpt lat="45.04252026857772" lon="7.639103404343016"><ele>260.6666666666667</ele><time>2026-04-19T11:25:37Z</time></trkpt><trkpt lat="45.04256755444206" lon="7.639205652832034"><ele>260.3333333333333</ele><time>2026-04-19T11:25:38Z</time></trkpt><trkpt lat="45.04261801948434" lon="7.639296816468946"><ele>260.0</ele><time>2026-04-19T11:25:39Z</time></trkpt><trkpt lat="45.0426638555905" lon="7.639402856538819"><ele>259.66666666666663</ele><time>2026-04-19T11:25:40Z</time></trkpt><trkpt lat="45.04272143306101" lon="7.639512739011569"><ele>259.3333333333333</ele><time>2026-04-19T11:25:41Z</time></trkpt><trkpt lat="45.04276743533856" lon="7.639629551521896"><ele>259.0</ele><time>2026-04-19T11:25:42Z</time></trkpt><trkpt lat="45.0428283871124" lon="7.6397264382207934"><ele>259.0</ele><time>2026-04-19T11:25:43Z</time></trkpt><trkpt lat="45.042872192978905" lon="7.639828598907404"><ele>259.0</ele><time>2026-04-19T11:25:44Z</time></trkpt><trkpt lat="45.04293226073032" lon="7.639910037898508"><ele>259.0</ele><time>2026-04-19T11:25:45Z</time></trkpt><trkpt lat="45.04298025303209" lon="7.640006844195771"><ele>259.0</ele><time>2026-04-19T11:25:46Z</time></trkpt><trkpt lat="45.043030282758984" lon="7.640091830570468"><ele>259.0</ele><time>2026-04-19T11:25:47Z</time></trkpt><trkpt lat="45.043071865428516" lon="7.640186028293874"><ele>259.0</ele><time>2026-04-19T11:25:48Z</time></trkpt><trkpt lat="45.04310995135603" lon="7.6402664004574685"><ele>259.16666666666663</ele><time>2026-04-19T11:25:49Z</time></trkpt><trkpt lat="45.04317396144358" lon="7.640353003842826"><ele>259.3333333333333</ele><time>2026-04-19T11:25:51Z</time></trkpt><trkpt lat="45.04323112821524" lon="7.640469077888008"><ele>259.5</ele><time>2026-04-19T11:25:53Z</time></trkpt><trkpt lat="45.04327345138945" lon="7.640553523057021"><ele>259.6666666666667</ele><time>2026-04-19T11:25:55Z</time></trkpt><trkpt lat="45.04331257127687" lon="7.6406315239333935"><ele>259.83333333333337</ele><time>2026-04-19T11:25:57Z</time></trkpt><trkpt lat="45.043374771359844" lon="7.640749319682806"><ele>260.0</ele><time>2026-04-19T11:26:00Z</time></trkpt><trkpt lat="45.04344904344521" lon="7.640894228861755"><ele>260.0</ele><time>2026-04-19T11:26:02Z</time></trkpt><trkpt lat="45.043487506803956" lon="7.640972402786652"><ele>260.0</ele><time>2026-04-19T11:26:03Z</time></trkpt><trkpt lat="45.04352848840442" lon="7.641049071030759"><ele>260.0</ele><time>2026-04-19T11:26:04Z</time></trkpt><trkpt lat="45.04357072401078" lon="7.641119852910579"><ele>260.0</ele><time>2026-04-19T11:26:05Z</time></trkpt><trkpt lat="45.043628157059025" lon="7.6412229412473005"><ele>260.0</ele><time>2026-04-19T11:26:07Z</time></trkpt><trkpt lat="45.04366967290197" lon="7.641308881833441"><ele>260.0</ele><time>2026-04-19T11:26:09Z</time></trkpt><trkpt lat="45.043765035148056" lon="7.6412484218296015"><ele>260.0</ele><time>2026-04-19T11:26:11Z</time></trkpt><trkpt lat="45.043819965805625" lon="7.641165384230777"><ele>260.0</ele><time>2026-04-19T11:26:13Z</time></trkpt><trkpt lat="45.04388444847311" lon="7.641097116130005"><ele>260.0</ele><time>2026-04-19T11:26:17Z</time></trkpt><trkpt lat="45.04382443500937" lon="7.6410135949195945"><ele>260.0</ele><time>2026-04-19T11:26:22Z</time></trkpt><trkpt lat="45.0438461508096" lon="7.641149055043536"><ele>260.0</ele><time>2026-04-19T11:26:36Z</time></trkpt><trkpt lat="45.04381206372196" lon="7.641058255215913"><ele>260.0</ele><time>2026-04-19T11:29:34.001Z</time></trkpt><trkpt lat="45.04381518255313" lon="7.640961948115646"><ele>260.0</ele><time>2026-04-19T11:29:37.001Z</time></trkpt><trkpt lat="45.04373573252162" lon="7.640799281623219"><ele>260.0</ele><time>2026-04-19T11:29:43.001Z</time></trkpt><trkpt lat="45.04368825077083" lon="7.640716920660494"><ele>260.0</ele><time>2026-04-19T11:29:52.001Z</time></trkpt><trkpt lat="45.04376500318066" lon="7.640753972327789"><ele>260.0</ele><time>2026-04-19T11:29:55.001Z</time></trkpt><trkpt lat="45.04355310458414" lon="7.640727198962481"><ele>260.0</ele><time>2026-04-19T11:29:59.001Z</time></trkpt><trkpt lat="45.043527995418934" lon="7.6408447325876185"><ele>260.0</ele><time>2026-04-19T11:30:01.001Z</time></trkpt><trkpt lat="45.04350408778455" lon="7.640933975544299"><ele>260.0</ele><time>2026-04-19T11:30:03.001Z</time></trkpt><trkpt lat="45.0434470536323" lon="7.641017918030005"><ele>260.0</ele><time>2026-04-19T11:30:06.001Z</time></trkpt><trkpt lat="45.043542186478255" lon="7.641146935627316"><ele>260.0</ele><time>2026-04-19T11:30:08.001Z</time></trkpt><trkpt lat="45.04360419036477" lon="7.64122763112908"><ele>260.0</ele><time>2026-04-19T11:30:09.001Z</time></trkpt><trkpt lat="45.04366830084803" lon="7.641330027789561"><ele>260.0</ele><time>2026-04-19T11:30:10.001Z</time></trkpt><trkpt lat="45.0437217649347" lon="7.641429484532183"><ele>260.0</ele><time>2026-04-19T11:30:11.001Z</time></trkpt><trkpt lat="45.04377438883924" lon="7.641534904626138"><ele>260.0</ele><time>2026-04-19T11:30:12.001Z</time></trkpt><trkpt lat="45.04383272928991" lon="7.641642172002748"><ele>260.0</ele><time>2026-04-19T11:30:13.001Z</time></trkpt><trkpt lat="45.043896718163474" lon="7.64176043581635"><ele>260.0</ele><time>2026-04-19T11:30:14.001Z</time></trkpt><trkpt lat="45.04396572036393" lon="7.641891571967615"><ele>260.0</ele><time>2026-04-19T11:30:15.001Z</time></trkpt><trkpt lat="45.04403699152734" lon="7.642034568301996"><ele>260.0</ele><time>2026-04-19T11:30:16.001Z</time></trkpt><trkpt lat="45.04411405028135" lon="7.64218124240372"><ele>260.0</ele><time>2026-04-19T11:30:17.001Z</time></trkpt><trkpt lat="45.04419212679645" lon="7.6423156735401525"><ele>260.25</ele><time>2026-04-19T11:30:18.001Z</time></trkpt><trkpt lat="45.04427604502255" lon="7.642453711713936"><ele>260.5</ele><time>2026-04-19T11:30:19.001Z</time></trkpt><trkpt lat="45.04434821053555" lon="7.642594706662406"><ele>260.75</ele><time>2026-04-19T11:30:20.001Z</time></trkpt><trkpt lat="45.04442514021891" lon="7.642735864260668"><ele>261.0</ele><time>2026-04-19T11:30:21.001Z</time></trkpt><trkpt lat="45.044510216618214" lon="7.64285697959469"><ele>261.6</ele><time>2026-04-19T11:30:22.001Z</time></trkpt><trkpt lat="45.04457706272233" lon="7.64298051110207"><ele>262.20000000000005</ele><time>2026-04-19T11:30:23.001Z</time></trkpt><trkpt lat="45.044639162839886" lon="7.643096672945283"><ele>262.79999999999995</ele><time>2026-04-19T11:30:24.001Z</time></trkpt><trkpt lat="45.044697060905776" lon="7.643211089117131"><ele>263.4</ele><time>2026-04-19T11:30:25.001Z</time></trkpt><trkpt lat="45.0447454585344" lon="7.643320510955118"><ele>264.0</ele><time>2026-04-19T11:30:26.001Z</time></trkpt><trkpt lat="45.044792442933705" lon="7.643426806059834"><ele>264.0</ele><time>2026-04-19T11:30:27.001Z</time></trkpt><trkpt lat="45.04485746525718" lon="7.643510429140904"><ele>264.0</ele><time>2026-04-19T11:30:28.001Z</time></trkpt><trkpt lat="45.04490524711875" lon="7.643597779255403"><ele>264.0</ele><time>2026-04-19T11:30:29.001Z</time></trkpt><trkpt lat="45.0449490580542" lon="7.643677870082611"><ele>264.0</ele><time>2026-04-19T11:30:30.001Z</time></trkpt><trkpt lat="45.044981353243585" lon="7.643766285582502"><ele>264.0</ele><time>2026-04-19T11:30:31.001Z</time></trkpt><trkpt lat="45.04506576403824" lon="7.643891220567793"><ele>264.0</ele><time>2026-04-19T11:30:33.001Z</time></trkpt><trkpt lat="45.04510699864013" lon="7.6439666016540615"><ele>263.1666666666667</ele><time>2026-04-19T11:30:34.001Z</time></trkpt><trkpt lat="45.04514764808549" lon="7.644041050728202"><ele>262.3333333333333</ele><time>2026-04-19T11:30:35.001Z</time></trkpt><trkpt lat="45.045192000038845" lon="7.644122442050397"><ele>261.5</ele><time>2026-04-19T11:30:36.001Z</time></trkpt><trkpt lat="45.04521686610152" lon="7.644221703750662"><ele>260.66666666666663</ele><time>2026-04-19T11:30:37.001Z</time></trkpt><trkpt lat="45.04525918988239" lon="7.6443102087773145"><ele>259.8333333333333</ele><time>2026-04-19T11:30:38.001Z</time></trkpt><trkpt lat="45.04531635191106" lon="7.644406224516378"><ele>259.0</ele><time>2026-04-19T11:30:39.001Z</time></trkpt><trkpt lat="45.04538222595573" lon="7.644509012765056"><ele>258.8</ele><time>2026-04-19T11:30:40.001Z</time></trkpt><trkpt lat="45.04544932974447" lon="7.644618301495774"><ele>258.59999999999997</ele><time>2026-04-19T11:30:41.001Z</time></trkpt><trkpt lat="45.045514138638225" lon="7.644721528211659"><ele>258.4</ele><time>2026-04-19T11:30:42.001Z</time></trkpt><trkpt lat="45.04557813633928" lon="7.644823748749641"><ele>258.2</ele><time>2026-04-19T11:30:43.001Z</time></trkpt><trkpt lat="45.04564223288774" lon="7.6449228356618715"><ele>258.0</ele><time>2026-04-19T11:30:44.001Z</time></trkpt><trkpt lat="45.04570408452826" lon="7.645018549543085"><ele>258.0</ele><time>2026-04-19T11:30:45.001Z</time></trkpt><trkpt lat="45.04576638640674" lon="7.645115902707949"><ele>258.0</ele><time>2026-04-19T11:30:46.001Z</time></trkpt><trkpt lat="45.045827615915336" lon="7.645210399904434"><ele>258.0</ele><time>2026-04-19T11:30:47.001Z</time></trkpt><trkpt lat="45.045887116906925" lon="7.64530006477833"><ele>258.0</ele><time>2026-04-19T11:30:48.001Z</time></trkpt><trkpt lat="45.04593900806408" lon="7.645382333293006"><ele>258.0</ele><time>2026-04-19T11:30:49.001Z</time></trkpt><trkpt lat="45.04598577085099" lon="7.645457702142558"><ele>258.0</ele><time>2026-04-19T11:30:50.001Z</time></trkpt><trkpt lat="45.04602803629477" lon="7.6455268355414265"><ele>257.4</ele><time>2026-04-19T11:30:51.001Z</time></trkpt><trkpt lat="45.046089853262096" lon="7.645626031276009"><ele>256.8</ele><time>2026-04-19T11:30:53.001Z</time></trkpt><trkpt lat="45.046140715906915" lon="7.645710100551077"><ele>256.2</ele><time>2026-04-19T11:30:56.001Z</time></trkpt><trkpt lat="45.04620877210549" lon="7.645788067748768"><ele>255.6</ele><time>2026-04-19T11:31:09.001Z</time></trkpt><trkpt lat="45.0462702530086" lon="7.645884633126602"><ele>255.0</ele><time>2026-04-19T11:31:11.001Z</time></trkpt><trkpt lat="45.04634322106342" lon="7.646037045822384"><ele>255.33333333333334</ele><time>2026-04-19T11:31:13.001Z</time></trkpt><trkpt lat="45.046377769034564" lon="7.646131059512663"><ele>255.66666666666669</ele><time>2026-04-19T11:31:14.001Z</time></trkpt><trkpt lat="45.046409591084114" lon="7.646211831368341"><ele>256.0</ele><time>2026-04-19T11:31:15.001Z</time></trkpt><trkpt lat="45.046458947487665" lon="7.646277306205203"><ele>256.33333333333337</ele><time>2026-04-19T11:31:16.001Z</time></trkpt><trkpt lat="45.04646109041048" lon="7.64641058226031"><ele>256.6666666666667</ele><time>2026-04-19T11:31:17.001Z</time></trkpt><trkpt lat="45.04649272041681" lon="7.646517242525652"><ele>257.0</ele><time>2026-04-19T11:31:18.001Z</time></trkpt><trkpt lat="45.04653797464429" lon="7.646613251484273"><ele>257.0</ele><time>2026-04-19T11:31:19.001Z</time></trkpt><trkpt lat="45.04659434540978" lon="7.646699690010526"><ele>257.0</ele><time>2026-04-19T11:31:20.001Z</time></trkpt><trkpt lat="45.046655342776894" lon="7.646779925751221"><ele>257.0</ele><time>2026-04-19T11:31:21.001Z</time></trkpt><trkpt lat="45.046724521533584" lon="7.646847657662089"><ele>257.0</ele><time>2026-04-19T11:31:22.001Z</time></trkpt><trkpt lat="45.04679915183096" lon="7.646908573573579"><ele>257.0</ele><time>2026-04-19T11:31:23.001Z</time></trkpt><trkpt lat="45.0468676683537" lon="7.646968089254184"><ele>257.0</ele><time>2026-04-19T11:31:24.001Z</time></trkpt><trkpt lat="45.04693701624184" lon="7.647035319806872"><ele>255.8</ele><time>2026-04-19T11:31:25.001Z</time></trkpt><trkpt lat="45.04700307027255" lon="7.647116760112752"><ele>254.6</ele><time>2026-04-19T11:31:26.001Z</time></trkpt><trkpt lat="45.04706689393908" lon="7.647206084794385"><ele>253.40000000000003</ele><time>2026-04-19T11:31:27.001Z</time></trkpt><trkpt lat="45.04713585867701" lon="7.647310710200826"><ele>252.20000000000002</ele><time>2026-04-19T11:31:28.001Z</time></trkpt><trkpt lat="45.04721636935433" lon="7.64742464032815"><ele>251.0</ele><time>2026-04-19T11:31:29.001Z</time></trkpt><trkpt lat="45.047303795967714" lon="7.6475666359592"><ele>251.0</ele><time>2026-04-19T11:31:30.001Z</time></trkpt><trkpt lat="45.04740209282603" lon="7.647708932226463"><ele>251.0</ele><time>2026-04-19T11:31:31.001Z</time></trkpt><trkpt lat="45.04750580960246" lon="7.647869250780736"><ele>251.0</ele><time>2026-04-19T11:31:32.001Z</time></trkpt><trkpt lat="45.04760611302349" lon="7.648025441036943"><ele>251.0</ele><time>2026-04-19T11:31:33.001Z</time></trkpt><trkpt lat="45.047712299201315" lon="7.648191891385132"><ele>251.33333333333334</ele><time>2026-04-19T11:31:34.001Z</time></trkpt><trkpt lat="45.047820230450704" lon="7.648352249651205"><ele>251.66666666666669</ele><time>2026-04-19T11:31:35.001Z</time></trkpt><trkpt lat="45.04792124469827" lon="7.648504415068343"><ele>252.0</ele><time>2026-04-19T11:31:36.001Z</time></trkpt><trkpt lat="45.048022878651096" lon="7.648653722456197"><ele>252.0</ele><time>2026-04-19T11:31:37.001Z</time></trkpt><trkpt lat="45.048125608116436" lon="7.64881565775887"><ele>252.0</ele><time>2026-04-19T11:31:38.001Z</time></trkpt><trkpt lat="45.04822930316653" lon="7.648971118240767"><ele>252.0</ele><time>2026-04-19T11:31:39.001Z</time></trkpt><trkpt lat="45.048336771813666" lon="7.649131257943619"><ele>252.25</ele><time>2026-04-19T11:31:40.001Z</time></trkpt><trkpt lat="45.048440351769464" lon="7.649285462732012"><ele>252.5</ele><time>2026-04-19T11:31:41.001Z</time></trkpt><trkpt lat="45.04854089968227" lon="7.649431393989279"><ele>252.75</ele><time>2026-04-19T11:31:42.001Z</time></trkpt><trkpt lat="45.04863820842504" lon="7.649558825812391"><ele>253.0</ele><time>2026-04-19T11:31:43.001Z</time></trkpt><trkpt lat="45.048723176021056" lon="7.64968074271269"><ele>253.0</ele><time>2026-04-19T11:31:44.001Z</time></trkpt><trkpt lat="45.0487985390275" lon="7.649783196700148"><ele>253.0</ele><time>2026-04-19T11:31:45.001Z</time></trkpt><trkpt lat="45.048863023266605" lon="7.649882556916864"><ele>253.0</ele><time>2026-04-19T11:31:46.001Z</time></trkpt><trkpt lat="45.048925080592696" lon="7.649966875460422"><ele>253.0</ele><time>2026-04-19T11:31:47.001Z</time></trkpt><trkpt lat="45.04898201557261" lon="7.650045446735151"><ele>253.0</ele><time>2026-04-19T11:31:48.001Z</time></trkpt><trkpt lat="45.049050452561204" lon="7.650153321878805"><ele>252.99999999999997</ele><time>2026-04-19T11:31:50.001Z</time></trkpt><trkpt lat="45.04908719605599" lon="7.65023390660799"><ele>253.0</ele><time>2026-04-19T11:31:53.001Z</time></trkpt><trkpt lat="45.04916061838563" lon="7.650342376428347"><ele>253.0</ele><time>2026-04-19T11:32:10.001Z</time></trkpt><trkpt lat="45.04920908668552" lon="7.650416961733718"><ele>253.0</ele><time>2026-04-19T11:32:11.001Z</time></trkpt><trkpt lat="45.049266131456406" lon="7.6505096761724705"><ele>252.99999999999997</ele><time>2026-04-19T11:32:12.001Z</time></trkpt><trkpt lat="45.049320016017326" lon="7.650599436917741"><ele>253.0</ele><time>2026-04-19T11:32:13.001Z</time></trkpt><trkpt lat="45.049383962214584" lon="7.650699585801789"><ele>252.75</ele><time>2026-04-19T11:32:14.001Z</time></trkpt><trkpt lat="45.0494574922737" lon="7.650808449898139"><ele>252.5</ele><time>2026-04-19T11:32:15.001Z</time></trkpt><trkpt lat="45.04953885133913" lon="7.65093203697357"><ele>252.25</ele><time>2026-04-19T11:32:16.001Z</time></trkpt><trkpt lat="45.04962959902542" lon="7.651070419406482"><ele>252.0</ele><time>2026-04-19T11:32:17.001Z</time></trkpt><trkpt lat="45.04972139898507" lon="7.651193569511069"><ele>252.0</ele><time>2026-04-19T11:32:18.001Z</time></trkpt><trkpt lat="45.049812579075784" lon="7.651328545984669"><ele>252.0</ele><time>2026-04-19T11:32:19.001Z</time></trkpt><trkpt lat="45.049905294545724" lon="7.651462488719836"><ele>252.0</ele><time>2026-04-19T11:32:20.001Z</time></trkpt><trkpt lat="45.04998993683724" lon="7.6515841178867285"><ele>252.0</ele><time>2026-04-19T11:32:21.001Z</time></trkpt><trkpt lat="45.05007174323578" lon="7.651713103562829"><ele>252.0</ele><time>2026-04-19T11:32:22.001Z</time></trkpt><trkpt lat="45.05015703384108" lon="7.65182558932357"><ele>252.0</ele><time>2026-04-19T11:32:23.001Z</time></trkpt><trkpt lat="45.050222975055405" lon="7.651937861538725"><ele>252.0</ele><time>2026-04-19T11:32:24.001Z</time></trkpt><trkpt lat="45.05028994539275" lon="7.65203258990629"><ele>252.0</ele><time>2026-04-19T11:32:25.001Z</time></trkpt><trkpt lat="45.05035196139816" lon="7.6521222692868225"><ele>252.0</ele><time>2026-04-19T11:32:26.001Z</time></trkpt><trkpt lat="45.05040779617206" lon="7.652202339437723"><ele>252.33333333333334</ele><time>2026-04-19T11:32:27.001Z</time></trkpt><trkpt lat="45.05045586440637" lon="7.652274010935209"><ele>252.66666666666669</ele><time>2026-04-19T11:32:28.001Z</time></trkpt><trkpt lat="45.050517589746775" lon="7.652394614113282"><ele>253.0</ele><time>2026-04-19T11:32:30.002Z</time></trkpt><trkpt lat="45.05057374301666" lon="7.6524868111083135"><ele>253.33333333333334</ele><time>2026-04-19T11:32:32.002Z</time></trkpt><trkpt lat="45.05063583739328" lon="7.652565881231976"><ele>253.66666666666669</ele><time>2026-04-19T11:33:07.002Z</time></trkpt><trkpt lat="45.050703222227696" lon="7.65265410598857"><ele>254.0</ele><time>2026-04-19T11:33:09.002Z</time></trkpt><trkpt lat="45.050749924618465" lon="7.6527206866566875"><ele>254.2</ele><time>2026-04-19T11:33:10.002Z</time></trkpt><trkpt lat="45.050811393319435" lon="7.652810503978832"><ele>254.39999999999998</ele><time>2026-04-19T11:33:11.002Z</time></trkpt><trkpt lat="45.05088143849239" lon="7.652916105158075"><ele>254.6</ele><time>2026-04-19T11:33:12.002Z</time></trkpt><trkpt lat="45.050950713119086" lon="7.653020903495231"><ele>254.8</ele><time>2026-04-19T11:33:13.002Z</time></trkpt><trkpt lat="45.051018017127305" lon="7.653148837002473"><ele>255.0</ele><time>2026-04-19T11:33:14.002Z</time></trkpt><trkpt lat="45.05109963490824" lon="7.653283381670576"><ele>255.0</ele><time>2026-04-19T11:33:15.002Z</time></trkpt><trkpt lat="45.05118218090096" lon="7.653421912126444"><ele>255.0</ele><time>2026-04-19T11:33:16.002Z</time></trkpt><trkpt lat="45.05126791736411" lon="7.653553913012027"><ele>255.0</ele><time>2026-04-19T11:33:17.002Z</time></trkpt><trkpt lat="45.05134156308024" lon="7.65367010990021"><ele>255.0</ele><time>2026-04-19T11:33:18.002Z</time></trkpt><trkpt lat="45.05140993704294" lon="7.653770106351599"><ele>254.83333333333334</ele><time>2026-04-19T11:33:19.002Z</time></trkpt><trkpt lat="45.05147561598059" lon="7.653864893143368"><ele>254.66666666666669</ele><time>2026-04-19T11:33:20.002Z</time></trkpt><trkpt lat="45.05154280272319" lon="7.65393729728929"><ele>254.5</ele><time>2026-04-19T11:33:21.002Z</time></trkpt><trkpt lat="45.05154523731403" lon="7.654066377623085"><ele>254.33333333333334</ele><time>2026-04-19T11:33:22.002Z</time></trkpt><trkpt lat="45.05151550155593" lon="7.654150797283059"><ele>254.16666666666669</ele><time>2026-04-19T11:33:23.002Z</time></trkpt><trkpt lat="45.051500282905586" lon="7.65423980443872"><ele>254.0</ele><time>2026-04-19T11:33:24.002Z</time></trkpt><trkpt lat="45.05145573641048" lon="7.654376141430278"><ele>253.6</ele><time>2026-04-19T11:33:26.002Z</time></trkpt><trkpt lat="45.051415076673635" lon="7.654627261960148"><ele>253.2</ele><time>2026-04-19T11:33:51.002Z</time></trkpt><trkpt lat="45.051393522344476" lon="7.654724647904692"><ele>252.79999999999998</ele><time>2026-04-19T11:33:52.002Z</time></trkpt><trkpt lat="45.051390457159215" lon="7.6548227178241754"><ele>252.39999999999998</ele><time>2026-04-19T11:33:53.002Z</time></trkpt><trkpt lat="45.051377073597095" lon="7.654931519485905"><ele>252.0</ele><time>2026-04-19T11:33:54.002Z</time></trkpt><trkpt lat="45.051327641592195" lon="7.655050791929425"><ele>252.0</ele><time>2026-04-19T11:33:55.002Z</time></trkpt><trkpt lat="45.05129357193149" lon="7.655191940612842"><ele>252.0</ele><time>2026-04-19T11:33:56.002Z</time></trkpt><trkpt lat="45.051258368000255" lon="7.655352283497199"><ele>252.0</ele><time>2026-04-19T11:33:57.002Z</time></trkpt><trkpt lat="45.05121389397338" lon="7.655509721753453"><ele>252.0</ele><time>2026-04-19T11:33:58.002Z</time></trkpt><trkpt lat="45.05117350291764" lon="7.655700511120752"><ele>251.25</ele><time>2026-04-19T11:33:59.002Z</time></trkpt><trkpt lat="45.05113711953101" lon="7.655891808487039"><ele>250.5</ele><time>2026-04-19T11:34:00.002Z</time></trkpt><trkpt lat="45.05108621664014" lon="7.656090592363181"><ele>249.75</ele><time>2026-04-19T11:34:01.002Z</time></trkpt><trkpt lat="45.0510555985456" lon="7.656297915200664"><ele>249.0</ele><time>2026-04-19T11:34:02.002Z</time></trkpt><trkpt lat="45.05101489121165" lon="7.656506540371255"><ele>249.0</ele><time>2026-04-19T11:34:03.002Z</time></trkpt><trkpt lat="45.050965494841186" lon="7.656726539338331"><ele>249.0</ele><time>2026-04-19T11:34:04.002Z</time></trkpt><trkpt lat="45.05092017892736" lon="7.6569314326287445"><ele>249.0</ele><time>2026-04-19T11:34:05.002Z</time></trkpt><trkpt lat="45.050877535890095" lon="7.657140703850093"><ele>249.0</ele><time>2026-04-19T11:34:06.002Z</time></trkpt><trkpt lat="45.050837114254875" lon="7.657337051236384"><ele>249.0</ele><time>2026-04-19T11:34:07.002Z</time></trkpt><trkpt lat="45.050817699898765" lon="7.657520100463575"><ele>249.0</ele><time>2026-04-19T11:34:08.002Z</time></trkpt><trkpt lat="45.05078150518062" lon="7.657699843938447"><ele>249.0</ele><time>2026-04-19T11:34:09.002Z</time></trkpt><trkpt lat="45.05073525070058" lon="7.6578657972956305"><ele>249.0</ele><time>2026-04-19T11:34:10.002Z</time></trkpt><trkpt lat="45.05070843873115" lon="7.658037775547148"><ele>249.0</ele><time>2026-04-19T11:34:11.002Z</time></trkpt><trkpt lat="45.050671471560115" lon="7.658201088381287"><ele>249.0</ele><time>2026-04-19T11:34:12.002Z</time></trkpt><trkpt lat="45.05062991039985" lon="7.658363964114122"><ele>249.0</ele><time>2026-04-19T11:34:13.002Z</time></trkpt><trkpt lat="45.05061309224613" lon="7.658530357706826"><ele>250.2</ele><time>2026-04-19T11:34:14.002Z</time></trkpt><trkpt lat="45.05057764034845" lon="7.658696569294505"><ele>251.39999999999998</ele><time>2026-04-19T11:34:15.002Z</time></trkpt><trkpt lat="45.05054472585927" lon="7.658847635162241"><ele>252.6</ele><time>2026-04-19T11:34:16.002Z</time></trkpt><trkpt lat="45.05051197016971" lon="7.658993981505886"><ele>253.8</ele><time>2026-04-19T11:34:17.002Z</time></trkpt><trkpt lat="45.05047978158711" lon="7.659132082525378"><ele>255.0</ele><time>2026-04-19T11:34:18.002Z</time></trkpt><trkpt lat="45.050447454424535" lon="7.659268027745579"><ele>255.0</ele><time>2026-04-19T11:34:19.002Z</time></trkpt><trkpt lat="45.050417238386125" lon="7.659393500543001"><ele>255.0</ele><time>2026-04-19T11:34:20.002Z</time></trkpt><trkpt lat="45.050384360311085" lon="7.659501096692254"><ele>255.0</ele><time>2026-04-19T11:34:21.002Z</time></trkpt><trkpt lat="45.050359676411105" lon="7.659626164616842"><ele>255.0</ele><time>2026-04-19T11:34:22.002Z</time></trkpt><trkpt lat="45.050337932207476" lon="7.659752050518694"><ele>255.0</ele><time>2026-04-19T11:34:23.002Z</time></trkpt><trkpt lat="45.05031572000965" lon="7.659877082503852"><ele>254.6</ele><time>2026-04-19T11:34:24.002Z</time></trkpt><trkpt lat="45.050298337827165" lon="7.660012163491746"><ele>254.2</ele><time>2026-04-19T11:34:25.002Z</time></trkpt><trkpt lat="45.05025889674312" lon="7.660151885045465"><ele>253.8</ele><time>2026-04-19T11:34:26.002Z</time></trkpt><trkpt lat="45.050238377718905" lon="7.660297398479578"><ele>253.4</ele><time>2026-04-19T11:34:27.002Z</time></trkpt><trkpt lat="45.05021109091447" lon="7.6604428612648165"><ele>253.0</ele><time>2026-04-19T11:34:28.002Z</time></trkpt><trkpt lat="45.050182737161855" lon="7.660592433341168"><ele>252.8</ele><time>2026-04-19T11:34:29.002Z</time></trkpt><trkpt lat="45.05012645035927" lon="7.660729366276301"><ele>252.60000000000002</ele><time>2026-04-19T11:34:30.002Z</time></trkpt><trkpt lat="45.050081146243905" lon="7.6608754391004075"><ele>252.39999999999998</ele><time>2026-04-19T11:34:31.002Z</time></trkpt><trkpt lat="45.05004465801617" lon="7.66099729693591"><ele>252.2</ele><time>2026-04-19T11:34:32.002Z</time></trkpt><trkpt lat="45.050003871318864" lon="7.6611263712577635"><ele>252.0</ele><time>2026-04-19T11:34:33.002Z</time></trkpt><trkpt lat="45.049964801042236" lon="7.661239652891791"><ele>252.2</ele><time>2026-04-19T11:34:34.002Z</time></trkpt><trkpt lat="45.0499273111445" lon="7.661345741032504"><ele>252.39999999999998</ele><time>2026-04-19T11:34:35.002Z</time></trkpt><trkpt lat="45.0498945247457" lon="7.661436886367356"><ele>252.60000000000002</ele><time>2026-04-19T11:34:36.002Z</time></trkpt><trkpt lat="45.049940882784966" lon="7.661558731188004"><ele>252.8</ele><time>2026-04-19T11:34:37.002Z</time></trkpt><trkpt lat="45.05001598297646" lon="7.661696745828103"><ele>253.0</ele><time>2026-04-19T11:34:39.002Z</time></trkpt><trkpt lat="45.050082948153104" lon="7.6617508983345965"><ele>252.49999999999997</ele><time>2026-04-19T11:34:40.002Z</time></trkpt><trkpt lat="45.050144269390394" lon="7.661826513780945"><ele>252.0</ele><time>2026-04-19T11:34:41.002Z</time></trkpt><trkpt lat="45.05019932635081" lon="7.661887203165642"><ele>251.5</ele><time>2026-04-19T11:34:42.002Z</time></trkpt><trkpt lat="45.050272221055096" lon="7.661963512893214"><ele>251.0</ele><time>2026-04-19T11:34:44.002Z</time></trkpt><trkpt lat="45.05031528375388" lon="7.662034634560194"><ele>250.49999999999997</ele><time>2026-04-19T11:34:52.002Z</time></trkpt><trkpt lat="45.0504170192696" lon="7.66216078266459"><ele>250.0</ele><time>2026-04-19T11:34:54.002Z</time></trkpt><trkpt lat="45.05049257636144" lon="7.662245597174314"><ele>250.6</ele><time>2026-04-19T11:34:55.002Z</time></trkpt><trkpt lat="45.050566110471586" lon="7.662329283075603"><ele>251.2</ele><time>2026-04-19T11:34:56.002Z</time></trkpt><trkpt lat="45.05064440160439" lon="7.662415595421149"><ele>251.8</ele><time>2026-04-19T11:34:57.002Z</time></trkpt><trkpt lat="45.05073084682382" lon="7.662509655547697"><ele>252.4</ele><time>2026-04-19T11:34:58.002Z</time></trkpt><trkpt lat="45.050824955262776" lon="7.662612862920983"><ele>253.0</ele><time>2026-04-19T11:34:59.002Z</time></trkpt><trkpt lat="45.05090634783566" lon="7.66270093567322"><ele>252.99999999999997</ele><time>2026-04-19T11:35:00.002Z</time></trkpt><trkpt lat="45.05097697280214" lon="7.662767592908373"><ele>253.0</ele><time>2026-04-19T11:35:01.002Z</time></trkpt><trkpt lat="45.0510409595564" lon="7.662823395338115"><ele>253.0</ele><time>2026-04-19T11:35:02.002Z</time></trkpt><trkpt lat="45.051093234748215" lon="7.662880436906557"><ele>253.0</ele><time>2026-04-19T11:35:03.002Z</time></trkpt><trkpt lat="45.051146256720244" lon="7.662931979143976"><ele>252.99999999999997</ele><time>2026-04-19T11:35:04.002Z</time></trkpt><trkpt lat="45.05120564438674" lon="7.663017456894904"><ele>253.0</ele><time>2026-04-19T11:35:06.002Z</time></trkpt><trkpt lat="45.05123824424017" lon="7.6631397256740605"><ele>252.8</ele><time>2026-04-19T11:35:19.002Z</time></trkpt><trkpt lat="45.0513095117633" lon="7.663227745042172"><ele>252.60000000000002</ele><time>2026-04-19T11:35:21.002Z</time></trkpt><trkpt lat="45.05136411559662" lon="7.663306550005218"><ele>252.39999999999998</ele><time>2026-04-19T11:35:22.002Z</time></trkpt><trkpt lat="45.05143951033345" lon="7.6633938740319945"><ele>252.2</ele><time>2026-04-19T11:35:23.002Z</time></trkpt><trkpt lat="45.051521745943965" lon="7.663482436248335"><ele>252.0</ele><time>2026-04-19T11:35:24.002Z</time></trkpt><trkpt lat="45.051619561639306" lon="7.6635851350691295"><ele>251.0</ele><time>2026-04-19T11:35:25.002Z</time></trkpt><trkpt lat="45.0517259529279" lon="7.663700615051959"><ele>250.0</ele><time>2026-04-19T11:35:26.002Z</time></trkpt><trkpt lat="45.05184141290694" lon="7.6638232528606345"><ele>249.0</ele><time>2026-04-19T11:35:27.002Z</time></trkpt><trkpt lat="45.05196158065504" lon="7.663951961060704"><ele>248.0</ele><time>2026-04-19T11:35:28.002Z</time></trkpt><trkpt lat="45.05207937248073" lon="7.6640786053517935"><ele>248.0</ele><time>2026-04-19T11:35:29.002Z</time></trkpt><trkpt lat="45.0522002505407" lon="7.664209907597266"><ele>248.0</ele><time>2026-04-19T11:35:30.002Z</time></trkpt><trkpt lat="45.05232627638349" lon="7.664338292074076"><ele>248.0</ele><time>2026-04-19T11:35:31.002Z</time></trkpt><trkpt lat="45.05244802166234" lon="7.664469872131485"><ele>247.0</ele><time>2026-04-19T11:35:32.002Z</time></trkpt><trkpt lat="45.05256015426024" lon="7.664584419791156"><ele>246.0</ele><time>2026-04-19T11:35:33.002Z</time></trkpt><trkpt lat="45.05265733493364" lon="7.664695174615895"><ele>245.0</ele><time>2026-04-19T11:35:34.002Z</time></trkpt><trkpt lat="45.05274556036666" lon="7.66479489409017"><ele>244.0</ele><time>2026-04-19T11:35:35.002Z</time></trkpt><trkpt lat="45.05282956611261" lon="7.664882957983652"><ele>244.0</ele><time>2026-04-19T11:35:36.002Z</time></trkpt><trkpt lat="45.052918069612595" lon="7.664930811616745"><ele>243.99999999999997</ele><time>2026-04-19T11:35:37.002Z</time></trkpt><trkpt lat="45.052966423932745" lon="7.665030951977036"><ele>243.99999999999997</ele><time>2026-04-19T11:35:38.002Z</time></trkpt><trkpt lat="45.053025307381134" lon="7.665088298368771"><ele>244.0</ele><time>2026-04-19T11:35:39.002Z</time></trkpt><trkpt lat="45.05312076545576" lon="7.6651794691992325"><ele>244.0</ele><time>2026-04-19T11:35:41.002Z</time></trkpt><trkpt lat="45.05319053474797" lon="7.665252539861995"><ele>243.99999999999997</ele><time>2026-04-19T11:35:43.002Z</time></trkpt><trkpt lat="45.05324319566159" lon="7.665306380292413"><ele>244.0</ele><time>2026-04-19T11:35:49.002Z</time></trkpt><trkpt lat="45.05328514195671" lon="7.665382703432109"><ele>244.0</ele><time>2026-04-19T11:36:06.002Z</time></trkpt><trkpt lat="45.053383913351226" lon="7.665484389161445"><ele>244.0</ele><time>2026-04-19T11:36:08.002Z</time></trkpt><trkpt lat="45.053461822262534" lon="7.6655350993012235"><ele>243.99999999999997</ele><time>2026-04-19T11:36:09.002Z</time></trkpt><trkpt lat="45.05352769672485" lon="7.665626607709904"><ele>244.0</ele><time>2026-04-19T11:36:10.002Z</time></trkpt><trkpt lat="45.053602935661715" lon="7.665698097297014"><ele>245.5</ele><time>2026-04-19T11:36:11.002Z</time></trkpt><trkpt lat="45.05368677826278" lon="7.665772971485205"><ele>247.0</ele><time>2026-04-19T11:36:12.002Z</time></trkpt><trkpt lat="45.05377984739118" lon="7.665860988332674"><ele>248.5</ele><time>2026-04-19T11:36:13.002Z</time></trkpt><trkpt lat="45.05388066276993" lon="7.6659671427973946"><ele>250.0</ele><time>2026-04-19T11:36:14.002Z</time></trkpt><trkpt lat="45.05397991922522" lon="7.666081436187047"><ele>250.0</ele><time>2026-04-19T11:36:15.002Z</time></trkpt><trkpt lat="45.054083177927474" lon="7.666187881342361"><ele>250.0</ele><time>2026-04-19T11:36:16.002Z</time></trkpt><trkpt lat="45.05419878726038" lon="7.666303599894127"><ele>250.0</ele><time>2026-04-19T11:36:17.002Z</time></trkpt><trkpt lat="45.05431061599393" lon="7.666440839952435"><ele>250.0</ele><time>2026-04-19T11:36:18.002Z</time></trkpt><trkpt lat="45.054428479697506" lon="7.666577384699801"><ele>250.0</ele><time>2026-04-19T11:36:19.002Z</time></trkpt><trkpt lat="45.05454636590979" lon="7.666721037436212"><ele>250.0</ele><time>2026-04-19T11:36:20.002Z</time></trkpt><trkpt lat="45.054668077381194" lon="7.666869017605171"><ele>250.0</ele><time>2026-04-19T11:36:21.002Z</time></trkpt><trkpt lat="45.05479066180062" lon="7.667003285789139"><ele>249.5</ele><time>2026-04-19T11:36:22.002Z</time></trkpt><trkpt lat="45.05490848846352" lon="7.667128547089889"><ele>249.0</ele><time>2026-04-19T11:36:23.002Z</time></trkpt><trkpt lat="45.05502724691412" lon="7.667250907046426"><ele>248.5</ele><time>2026-04-19T11:36:24.003Z</time></trkpt><trkpt lat="45.05514533472313" lon="7.667371576201228"><ele>248.0</ele><time>2026-04-19T11:36:25.003Z</time></trkpt><trkpt lat="45.055267671742776" lon="7.667473358798689"><ele>248.0</ele><time>2026-04-19T11:36:26.003Z</time></trkpt><trkpt lat="45.05538644711217" lon="7.667569623928225"><ele>248.0</ele><time>2026-04-19T11:36:27.003Z</time></trkpt><trkpt lat="45.055493765886716" lon="7.667658940047573"><ele>248.0</ele><time>2026-04-19T11:36:28.003Z</time></trkpt><trkpt lat="45.05559638460846" lon="7.667741928660323"><ele>248.0</ele><time>2026-04-19T11:36:29.003Z</time></trkpt><trkpt lat="45.055704839196416" lon="7.667776187900615"><ele>249.0</ele><time>2026-04-19T11:36:30.003Z</time></trkpt><trkpt lat="45.055795248986165" lon="7.667838023815568"><ele>250.0</ele><time>2026-04-19T11:36:31.003Z</time></trkpt><trkpt lat="45.05588316904223" lon="7.667913220216751"><ele>251.0</ele><time>2026-04-19T11:36:32.003Z</time></trkpt><trkpt lat="45.055966338928386" lon="7.667955658566678"><ele>252.0</ele><time>2026-04-19T11:36:33.003Z</time></trkpt><trkpt lat="45.05603263368408" lon="7.668028229483345"><ele>253.0</ele><time>2026-04-19T11:36:34.003Z</time></trkpt><trkpt lat="45.05610239665603" lon="7.668071291993302"><ele>252.99999999999997</ele><time>2026-04-19T11:36:35.003Z</time></trkpt><trkpt lat="45.05616641270168" lon="7.668104909998934"><ele>253.0</ele><time>2026-04-19T11:36:36.003Z</time></trkpt><trkpt lat="45.056223741129315" lon="7.66815445135792"><ele>253.0</ele><time>2026-04-19T11:36:37.003Z</time></trkpt><trkpt lat="45.05633064179146" lon="7.668228104576398"><ele>253.0</ele><time>2026-04-19T11:36:39.003Z</time></trkpt><trkpt lat="45.056416136039296" lon="7.668288493881428"><ele>252.99999999999997</ele><time>2026-04-19T11:36:41.003Z</time></trkpt><trkpt lat="45.056477137231056" lon="7.668323640625321"><ele>253.0</ele><time>2026-04-19T11:36:44.003Z</time></trkpt><trkpt lat="45.056556967127854" lon="7.668349957287208"><ele>252.99999999999997</ele><time>2026-04-19T11:36:55.003Z</time></trkpt><trkpt lat="45.056615507432994" lon="7.668385634722588"><ele>253.0</ele><time>2026-04-19T11:37:00.003Z</time></trkpt><trkpt lat="45.05669641494789" lon="7.668431225536481"><ele>253.0</ele><time>2026-04-19T11:37:08.003Z</time></trkpt><trkpt lat="45.05675871891162" lon="7.668511488594462"><ele>253.0</ele><time>2026-04-19T11:37:10.003Z</time></trkpt><trkpt lat="45.05685790968628" lon="7.668607820422289"><ele>252.99999999999997</ele><time>2026-04-19T11:37:12.003Z</time></trkpt><trkpt lat="45.05692665622958" lon="7.668655779333861"><ele>253.0</ele><time>2026-04-19T11:37:13.003Z</time></trkpt><trkpt lat="45.056990484398646" lon="7.668705106835071"><ele>253.0</ele><time>2026-04-19T11:37:14.003Z</time></trkpt><trkpt lat="45.05706577818392" lon="7.6687635275411665"><ele>253.0</ele><time>2026-04-19T11:37:15.003Z</time></trkpt><trkpt lat="45.057143619233926" lon="7.668832325694699"><ele>253.0</ele><time>2026-04-19T11:37:16.003Z</time></trkpt><trkpt lat="45.057236451325345" lon="7.668895357798726"><ele>253.0</ele><time>2026-04-19T11:37:17.003Z</time></trkpt><trkpt lat="45.05733639629817" lon="7.668961647606038"><ele>253.0</ele><time>2026-04-19T11:37:18.003Z</time></trkpt><trkpt lat="45.05744152641855" lon="7.669024676729342"><ele>252.8</ele><time>2026-04-19T11:37:19.003Z</time></trkpt><trkpt lat="45.05754675091266" lon="7.669080859224991"><ele>252.60000000000002</ele><time>2026-04-19T11:37:20.003Z</time></trkpt><trkpt lat="45.057651055834064" lon="7.669138366606243"><ele>252.39999999999998</ele><time>2026-04-19T11:37:21.003Z</time></trkpt><trkpt lat="45.05775068685262" lon="7.669197257769847"><ele>252.2</ele><time>2026-04-19T11:37:22.003Z</time></trkpt><trkpt lat="45.05784128962702" lon="7.669273416763285"><ele>252.0</ele><time>2026-04-19T11:37:23.003Z</time></trkpt><trkpt lat="45.057933364606505" lon="7.669336852774112"><ele>252.0</ele><time>2026-04-19T11:37:24.003Z</time></trkpt><trkpt lat="45.058021023208674" lon="7.669397929955382"><ele>252.0</ele><time>2026-04-19T11:37:25.003Z</time></trkpt><trkpt lat="45.05810570153372" lon="7.669452695919412"><ele>252.0</ele><time>2026-04-19T11:37:26.003Z</time></trkpt><trkpt lat="45.058181195874596" lon="7.6695103014508925"><ele>252.0</ele><time>2026-04-19T11:37:27.003Z</time></trkpt><trkpt lat="45.05825509895149" lon="7.669566081746958"><ele>252.0</ele><time>2026-04-19T11:37:28.003Z</time></trkpt><trkpt lat="45.05833065873084" lon="7.669613204388953"><ele>252.0</ele><time>2026-04-19T11:37:29.003Z</time></trkpt><trkpt lat="45.05840060888896" lon="7.669667716770316"><ele>252.33333333333334</ele><time>2026-04-19T11:37:30.003Z</time></trkpt><trkpt lat="45.05846319653759" lon="7.66972618983527"><ele>252.66666666666669</ele><time>2026-04-19T11:37:31.003Z</time></trkpt><trkpt lat="45.05853188824577" lon="7.669766932908315"><ele>253.0</ele><time>2026-04-19T11:37:32.003Z</time></trkpt><trkpt lat="45.058601250886944" lon="7.669807273238365"><ele>253.33333333333334</ele><time>2026-04-19T11:37:33.003Z</time></trkpt><trkpt lat="45.05868841601882" lon="7.669871839121676"><ele>253.66666666666669</ele><time>2026-04-19T11:37:34.003Z</time></trkpt><trkpt lat="45.05878100832871" lon="7.669953339857269"><ele>254.0</ele><time>2026-04-19T11:37:35.003Z</time></trkpt><trkpt lat="45.05886757193925" lon="7.670021706232018"><ele>254.00000000000003</ele><time>2026-04-19T11:37:36.003Z</time></trkpt><trkpt lat="45.05894459836881" lon="7.6700867052982655"><ele>254.0</ele><time>2026-04-19T11:37:37.003Z</time></trkpt><trkpt lat="45.059014484016515" lon="7.670133296143812"><ele>254.0</ele><time>2026-04-19T11:37:38.003Z</time></trkpt><trkpt lat="45.05908098348497" lon="7.67018634675004"><ele>254.0</ele><time>2026-04-19T11:37:39.003Z</time></trkpt><trkpt lat="45.059134773292634" lon="7.6702368160779075"><ele>254.00000000000003</ele><time>2026-04-19T11:37:40.003Z</time></trkpt><trkpt lat="45.05923558116277" lon="7.67030197749259"><ele>254.0</ele><time>2026-04-19T11:37:42.003Z</time></trkpt><trkpt lat="45.05934793947616" lon="7.670375744238882"><ele>253.39999999999998</ele><time>2026-04-19T11:37:44.003Z</time></trkpt><trkpt lat="45.05942797935539" lon="7.670440481618025"><ele>252.79999999999998</ele><time>2026-04-19T11:37:46.003Z</time></trkpt><trkpt lat="45.05950308894452" lon="7.670481977903603"><ele>252.20000000000002</ele><time>2026-04-19T11:37:49.003Z</time></trkpt><trkpt lat="45.05963185072692" lon="7.6705538287402"><ele>251.60000000000002</ele><time>2026-04-19T11:38:13.003Z</time></trkpt><trkpt lat="45.05969939709823" lon="7.670600808126374"><ele>251.0</ele><time>2026-04-19T11:38:14.003Z</time></trkpt><trkpt lat="45.05978446897769" lon="7.670662348661931"><ele>251.0</ele><time>2026-04-19T11:38:15.003Z</time></trkpt><trkpt lat="45.059877664600776" lon="7.670727107782045"><ele>251.0</ele><time>2026-04-19T11:38:16.003Z</time></trkpt><trkpt lat="45.059983454036946" lon="7.670801320419557"><ele>251.0</ele><time>2026-04-19T11:38:17.003Z</time></trkpt><trkpt lat="45.0600945906555" lon="7.670892072114587"><ele>251.0</ele><time>2026-04-19T11:38:18.003Z</time></trkpt><trkpt lat="45.060219522636544" lon="7.670989857621454"><ele>252.0</ele><time>2026-04-19T11:38:19.003Z</time></trkpt><trkpt lat="45.06035372215799" lon="7.671085234853414"><ele>253.0</ele><time>2026-04-19T11:38:20.003Z</time></trkpt><trkpt lat="45.06048478588523" lon="7.67118921406183"><ele>254.0</ele><time>2026-04-19T11:38:21.003Z</time></trkpt><trkpt lat="45.060629052152144" lon="7.671296744625698"><ele>254.0</ele><time>2026-04-19T11:38:22.003Z</time></trkpt><trkpt lat="45.06078006362428" lon="7.6714048317553"><ele>254.0</ele><time>2026-04-19T11:38:23.003Z</time></trkpt><trkpt lat="45.060933525134885" lon="7.671517916117025"><ele>254.0</ele><time>2026-04-19T11:38:24.003Z</time></trkpt><trkpt lat="45.06107024077552" lon="7.671621692670696"><ele>253.0</ele><time>2026-04-19T11:38:25.003Z</time></trkpt><trkpt lat="45.0611927475725" lon="7.671712144658226"><ele>252.0</ele><time>2026-04-19T11:38:26.003Z</time></trkpt><trkpt lat="45.061310982465486" lon="7.671795513427407"><ele>251.0</ele><time>2026-04-19T11:38:27.003Z</time></trkpt><trkpt lat="45.06142086990406" lon="7.671868359303326"><ele>250.0</ele><time>2026-04-19T11:38:28.003Z</time></trkpt><trkpt lat="45.061517004908396" lon="7.671935649368435"><ele>250.16666666666666</ele><time>2026-04-19T11:38:29.003Z</time></trkpt><trkpt lat="45.0616008357876" lon="7.671992931928265"><ele>250.33333333333331</ele><time>2026-04-19T11:38:30.003Z</time></trkpt><trkpt lat="45.06167639079098" lon="7.672044237865881"><ele>250.5</ele><time>2026-04-19T11:38:31.003Z</time></trkpt><trkpt lat="45.06174455292456" lon="7.672090606554949"><ele>250.66666666666669</ele><time>2026-04-19T11:38:32.003Z</time></trkpt><trkpt lat="45.061801462652305" lon="7.672135810888886"><ele>250.83333333333334</ele><time>2026-04-19T11:38:33.003Z</time></trkpt><trkpt lat="45.06188642649705" lon="7.672206304863787"><ele>251.0</ele><time>2026-04-19T11:38:35.003Z</time></trkpt><trkpt lat="45.06195322667579" lon="7.672253161107581"><ele>250.60000000000002</ele><time>2026-04-19T11:38:38.003Z</time></trkpt><trkpt lat="45.061970254280354" lon="7.672346309894788"><ele>250.20000000000002</ele><time>2026-04-19T11:39:04.003Z</time></trkpt><trkpt lat="45.062085255258175" lon="7.672437825054726"><ele>249.79999999999998</ele><time>2026-04-19T11:39:06.003Z</time></trkpt><trkpt lat="45.062166448105735" lon="7.672510846170649"><ele>249.39999999999998</ele><time>2026-04-19T11:39:07.003Z</time></trkpt><trkpt lat="45.06225118537569" lon="7.672578574358076"><ele>249.0</ele><time>2026-04-19T11:39:08.003Z</time></trkpt><trkpt lat="45.062349859492066" lon="7.672644409581328"><ele>249.5</ele><time>2026-04-19T11:39:09.003Z</time></trkpt><trkpt lat="45.062459179553656" lon="7.672723920766053"><ele>250.0</ele><time>2026-04-19T11:39:10.003Z</time></trkpt><trkpt lat="45.06257324095566" lon="7.672811104521731"><ele>250.5</ele><time>2026-04-19T11:39:11.003Z</time></trkpt><trkpt lat="45.06268868078823" lon="7.672914403256353"><ele>251.0</ele><time>2026-04-19T11:39:12.003Z</time></trkpt><trkpt lat="45.062809623928594" lon="7.673011809421892"><ele>251.0</ele><time>2026-04-19T11:39:13.003Z</time></trkpt><trkpt lat="45.06293448027646" lon="7.673106744067498"><ele>251.0</ele><time>2026-04-19T11:39:14.003Z</time></trkpt><trkpt lat="45.06310055471625" lon="7.673049975349282"><ele>251.0</ele><time>2026-04-19T11:39:15.003Z</time></trkpt><trkpt lat="45.06317830081155" lon="7.673271729201196"><ele>250.0</ele><time>2026-04-19T11:39:16.003Z</time></trkpt><trkpt lat="45.06329178101577" lon="7.673353393674095"><ele>249.0</ele><time>2026-04-19T11:39:17.003Z</time></trkpt><trkpt lat="45.06339921434887" lon="7.673434856335877"><ele>248.0</ele><time>2026-04-19T11:39:18.003Z</time></trkpt><trkpt lat="45.06350518165635" lon="7.673507195610592"><ele>247.0</ele><time>2026-04-19T11:39:19.003Z</time></trkpt><trkpt lat="45.06360066201631" lon="7.673578373659035"><ele>247.8</ele><time>2026-04-19T11:39:20.003Z</time></trkpt><trkpt lat="45.06368745434264" lon="7.673645602635246"><ele>248.6</ele><time>2026-04-19T11:39:21.003Z</time></trkpt><trkpt lat="45.0637813773708" lon="7.673718649847986"><ele>249.40000000000003</ele><time>2026-04-19T11:39:22.003Z</time></trkpt><trkpt lat="45.06387534698503" lon="7.673799086027657"><ele>250.20000000000002</ele><time>2026-04-19T11:39:23.003Z</time></trkpt><trkpt lat="45.06397025603546" lon="7.6738804919873"><ele>251.0</ele><time>2026-04-19T11:39:24.003Z</time></trkpt><trkpt lat="45.06406637271092" lon="7.673966622628104"><ele>250.60000000000002</ele><time>2026-04-19T11:39:25.003Z</time></trkpt><trkpt lat="45.06416216960813" lon="7.674051624801554"><ele>250.20000000000002</ele><time>2026-04-19T11:39:26.003Z</time></trkpt><trkpt lat="45.06425122728808" lon="7.674103364906157"><ele>249.79999999999998</ele><time>2026-04-19T11:39:27.003Z</time></trkpt><trkpt lat="45.064356806624325" lon="7.674146980598316"><ele>249.39999999999998</ele><time>2026-04-19T11:39:28.003Z</time></trkpt><trkpt lat="45.0644758269961" lon="7.67420084677235"><ele>249.0</ele><time>2026-04-19T11:39:29.003Z</time></trkpt><trkpt lat="45.0645906960162" lon="7.674274686646769"><ele>249.0</ele><time>2026-04-19T11:39:30.003Z</time></trkpt><trkpt lat="45.064702849915214" lon="7.674349434490406"><ele>249.0</ele><time>2026-04-19T11:39:31.003Z</time></trkpt><trkpt lat="45.064832978133246" lon="7.674421249107092"><ele>249.0</ele><time>2026-04-19T11:39:32.003Z</time></trkpt><trkpt lat="45.06495477806068" lon="7.674507920862999"><ele>249.0</ele><time>2026-04-19T11:39:33.003Z</time></trkpt><trkpt lat="45.06507977189544" lon="7.674596789541009"><ele>250.25</ele><time>2026-04-19T11:39:34.003Z</time></trkpt><trkpt lat="45.06519678300146" lon="7.674680168047178"><ele>251.5</ele><time>2026-04-19T11:39:35.003Z</time></trkpt><trkpt lat="45.06530463246967" lon="7.674748043118362"><ele>252.75</ele><time>2026-04-19T11:39:36.003Z</time></trkpt><trkpt lat="45.06540193820823" lon="7.674812443689744"><ele>254.0</ele><time>2026-04-19T11:39:37.003Z</time></trkpt><trkpt lat="45.06548958542666" lon="7.67488004660502"><ele>254.00000000000003</ele><time>2026-04-19T11:39:38.003Z</time></trkpt><trkpt lat="45.06556845299756" lon="7.674935188413099"><ele>254.0</ele><time>2026-04-19T11:39:39.003Z</time></trkpt><trkpt lat="45.065652086623345" lon="7.6749738986469005"><ele>254.0</ele><time>2026-04-19T11:39:40.003Z</time></trkpt><trkpt lat="45.065723079479554" lon="7.6750119334043285"><ele>254.0</ele><time>2026-04-19T11:39:41.003Z</time></trkpt><trkpt lat="45.06580583214989" lon="7.675066635822062"><ele>254.00000000000003</ele><time>2026-04-19T11:39:43.003Z</time></trkpt><trkpt lat="45.065893963470806" lon="7.675034192162596"><ele>254.0</ele><time>2026-04-19T11:40:33.004Z</time></trkpt><trkpt lat="45.06597977907423" lon="7.675099157045913"><ele>254.00000000000003</ele><time>2026-04-19T11:40:35.004Z</time></trkpt><trkpt lat="45.06607897474387" lon="7.675220445941719"><ele>254.0</ele><time>2026-04-19T11:40:37.004Z</time></trkpt><trkpt lat="45.06611674452417" lon="7.675299142586957"><ele>254.0</ele><time>2026-04-19T11:40:38.004Z</time></trkpt><trkpt lat="45.06615604898274" lon="7.67538865763292"><ele>254.0</ele><time>2026-04-19T11:40:39.004Z</time></trkpt><trkpt lat="45.066205758261916" lon="7.675457146818647"><ele>254.00000000000003</ele><time>2026-04-19T11:40:40.004Z</time></trkpt><trkpt lat="45.066272557633795" lon="7.675532288886036"><ele>254.0</ele><time>2026-04-19T11:40:41.004Z</time></trkpt><trkpt lat="45.06635239492503" lon="7.675583260868611"><ele>254.0</ele><time>2026-04-19T11:40:42.004Z</time></trkpt><trkpt lat="45.0664253079131" lon="7.675635134143978"><ele>253.99999999999997</ele><time>2026-04-19T11:40:43.004Z</time></trkpt><trkpt lat="45.066516585505326" lon="7.675701424383645"><ele>253.99999999999997</ele><time>2026-04-19T11:40:44.004Z</time></trkpt><trkpt lat="45.066609918218255" lon="7.675785488975206"><ele>254.0</ele><time>2026-04-19T11:40:45.004Z</time></trkpt><trkpt lat="45.066714880641825" lon="7.675858489077516"><ele>254.0</ele><time>2026-04-19T11:40:46.004Z</time></trkpt><trkpt lat="45.06681327875136" lon="7.675926461498116"><ele>253.79999999999998</ele><time>2026-04-19T11:40:47.004Z</time></trkpt><trkpt lat="45.066908173266285" lon="7.676005000380753"><ele>253.59999999999997</ele><time>2026-04-19T11:40:48.004Z</time></trkpt><trkpt lat="45.06700673490117" lon="7.676073317604155"><ele>253.4</ele><time>2026-04-19T11:40:49.004Z</time></trkpt><trkpt lat="45.067106045654796" lon="7.676148939096695"><ele>253.2</ele><time>2026-04-19T11:40:50.004Z</time></trkpt><trkpt lat="45.06719070663176" lon="7.676220525624782"><ele>253.0</ele><time>2026-04-19T11:40:51.004Z</time></trkpt><trkpt lat="45.06730524788076" lon="7.676274296304594"><ele>253.0</ele><time>2026-04-19T11:40:52.004Z</time></trkpt><trkpt lat="45.0673988220353" lon="7.676375101601431"><ele>253.0</ele><time>2026-04-19T11:40:53.004Z</time></trkpt><trkpt lat="45.06750373679936" lon="7.676448120086244"><ele>253.0</ele><time>2026-04-19T11:40:54.004Z</time></trkpt><trkpt lat="45.06759513366253" lon="7.676508712058739"><ele>253.0</ele><time>2026-04-19T11:40:55.004Z</time></trkpt><trkpt lat="45.06769835918971" lon="7.6765479237632235"><ele>253.0</ele><time>2026-04-19T11:40:56.004Z</time></trkpt><trkpt lat="45.06778213685466" lon="7.6766076040905755"><ele>252.83333333333331</ele><time>2026-04-19T11:40:57.004Z</time></trkpt><trkpt lat="45.067849378911866" lon="7.676678418627077"><ele>252.66666666666666</ele><time>2026-04-19T11:40:58.004Z</time></trkpt><trkpt lat="45.06791260670956" lon="7.676722190420118"><ele>252.5</ele><time>2026-04-19T11:40:59.004Z</time></trkpt><trkpt lat="45.06797354046012" lon="7.676763211051705"><ele>252.33333333333331</ele><time>2026-04-19T11:41:00.004Z</time></trkpt><trkpt lat="45.06802389037824" lon="7.676849249615901"><ele>252.16666666666666</ele><time>2026-04-19T11:41:01.004Z</time></trkpt><trkpt lat="45.06808888834801" lon="7.676927782769695"><ele>252.0</ele><time>2026-04-19T11:41:02.004Z</time></trkpt><trkpt lat="45.06815549875669" lon="7.677002690675581"><ele>252.0</ele><time>2026-04-19T11:41:03.004Z</time></trkpt><trkpt lat="45.068233601770395" lon="7.677058652065198"><ele>252.0</ele><time>2026-04-19T11:41:04.004Z</time></trkpt><trkpt lat="45.06830529947021" lon="7.677136229727197"><ele>252.0</ele><time>2026-04-19T11:41:05.004Z</time></trkpt><trkpt lat="45.068394269491" lon="7.677211334532681"><ele>252.0</ele><time>2026-04-19T11:41:06.004Z</time></trkpt><trkpt lat="45.068492312481574" lon="7.67727741440237"><ele>252.0</ele><time>2026-04-19T11:41:07.004Z</time></trkpt><trkpt lat="45.06856956976223" lon="7.6773431076147025"><ele>251.6</ele><time>2026-04-19T11:41:08.004Z</time></trkpt><trkpt lat="45.06864875340302" lon="7.67741217942958"><ele>251.2</ele><time>2026-04-19T11:41:09.004Z</time></trkpt><trkpt lat="45.06874187674232" lon="7.677452360455252"><ele>250.8</ele><time>2026-04-19T11:41:10.004Z</time></trkpt><trkpt lat="45.0688205603922" lon="7.677514031031462"><ele>250.4</ele><time>2026-04-19T11:41:11.004Z</time></trkpt><trkpt lat="45.06891178865287" lon="7.6775658893160434"><ele>250.0</ele><time>2026-04-19T11:41:12.004Z</time></trkpt><trkpt lat="45.068996979775335" lon="7.677620427796419"><ele>249.99999999999997</ele><time>2026-04-19T11:41:13.004Z</time></trkpt><trkpt lat="45.06908735505372" lon="7.677668661378687"><ele>250.0</ele><time>2026-04-19T11:41:14.004Z</time></trkpt><trkpt lat="45.069178943803635" lon="7.677736947649776"><ele>250.0</ele><time>2026-04-19T11:41:15.004Z</time></trkpt><trkpt lat="45.06924986984783" lon="7.677800501760227"><ele>250.0</ele><time>2026-04-19T11:41:16.004Z</time></trkpt><trkpt lat="45.069313260481536" lon="7.677851383164881"><ele>249.99999999999997</ele><time>2026-04-19T11:41:17.004Z</time></trkpt><trkpt lat="45.069376873575514" lon="7.677902398678082"><ele>250.0</ele><time>2026-04-19T11:41:18.004Z</time></trkpt><trkpt lat="45.06944523545397" lon="7.6779300452684165"><ele>250.6</ele><time>2026-04-19T11:41:19.004Z</time></trkpt><trkpt lat="45.06955130057121" lon="7.67799672000007"><ele>251.2</ele><time>2026-04-19T11:41:21.004Z</time></trkpt><trkpt lat="45.06964688785404" lon="7.678010849932241"><ele>251.8</ele><time>2026-04-19T11:41:23.004Z</time></trkpt><trkpt lat="45.069716041554166" lon="7.678040509860747"><ele>252.4</ele><time>2026-04-19T11:41:25.004Z</time></trkpt><trkpt lat="45.069817621373495" lon="7.6780981521778315"><ele>253.0</ele><time>2026-04-19T11:41:39.004Z</time></trkpt><trkpt lat="45.069875993211895" lon="7.678131802691814"><ele>253.0</ele><time>2026-04-19T11:41:41.004Z</time></trkpt><trkpt lat="45.069934746876406" lon="7.678165673325284"><ele>253.0</ele><time>2026-04-19T11:41:43.004Z</time></trkpt><trkpt lat="45.07000565310999" lon="7.678199075093069"><ele>253.0</ele><time>2026-04-19T11:41:50.004Z</time></trkpt><trkpt lat="45.070007256622446" lon="7.678429479885166"><ele>253.0</ele><time>2026-04-19T11:41:53.004Z</time></trkpt><trkpt lat="45.069981373876374" lon="7.6785107555533685"><ele>253.0</ele><time>2026-04-19T11:41:54.004Z</time></trkpt><trkpt lat="45.069934736310195" lon="7.678651827268712"><ele>253.0</ele><time>2026-04-19T11:41:56.004Z</time></trkpt><trkpt lat="45.06988986707823" lon="7.678779776574141"><ele>253.0</ele><time>2026-04-19T11:41:58.004Z</time></trkpt><trkpt lat="45.06983019620356" lon="7.678944831488455"><ele>253.0</ele><time>2026-04-19T11:42:00.004Z</time></trkpt><trkpt lat="45.06979663570658" lon="7.679036999728809"><ele>253.0</ele><time>2026-04-19T11:42:01.004Z</time></trkpt><trkpt lat="45.069761922810024" lon="7.679132332838117"><ele>253.0</ele><time>2026-04-19T11:42:02.004Z</time></trkpt><trkpt lat="45.069703126877585" lon="7.679294946934076"><ele>253.16666666666666</ele><time>2026-04-19T11:42:04.004Z</time></trkpt><trkpt lat="45.06964581451116" lon="7.679474627923738"><ele>253.33333333333331</ele><time>2026-04-19T11:42:06.004Z</time></trkpt><trkpt lat="45.06960167222123" lon="7.679574042384581"><ele>253.5</ele><time>2026-04-19T11:42:07.004Z</time></trkpt><trkpt lat="45.06957308810309" lon="7.679662161128615"><ele>253.66666666666669</ele><time>2026-04-19T11:42:08.004Z</time></trkpt><trkpt lat="45.06954422955155" lon="7.679749936639709"><ele>253.83333333333334</ele><time>2026-04-19T11:42:09.004Z</time></trkpt><trkpt lat="45.069509107280965" lon="7.679843512033755"><ele>254.0</ele><time>2026-04-19T11:42:10.004Z</time></trkpt><trkpt lat="45.069479661413794" lon="7.679928474584463"><ele>254.0</ele><time>2026-04-19T11:42:11.004Z</time></trkpt><trkpt lat="45.06942777608957" lon="7.680084952987752"><ele>253.99999999999997</ele><time>2026-04-19T11:42:13.004Z</time></trkpt><trkpt lat="45.06938491353358" lon="7.6802151309077065"><ele>253.99999999999997</ele><time>2026-04-19T11:42:15.004Z</time></trkpt><trkpt lat="45.069346286174536" lon="7.680314970502942"><ele>254.0</ele><time>2026-04-19T11:42:17.004Z</time></trkpt><trkpt lat="45.069318304119484" lon="7.680396704632557"><ele>254.0</ele><time>2026-04-19T11:42:26.004Z</time></trkpt><trkpt lat="45.06929782670835" lon="7.6805288395536815"><ele>254.00000000000003</ele><time>2026-04-19T11:43:10.004Z</time></trkpt><trkpt lat="45.06922775243556" lon="7.680675531994119"><ele>254.0</ele><time>2026-04-19T11:43:12.004Z</time></trkpt><trkpt lat="45.069192901631055" lon="7.68076714534635"><ele>254.0</ele><time>2026-04-19T11:43:13.004Z</time></trkpt><trkpt lat="45.06914815418947" lon="7.680871464241179"><ele>254.0</ele><time>2026-04-19T11:43:14.004Z</time></trkpt><trkpt lat="45.0691100761119" lon="7.68097565560124"><ele>254.00000000000003</ele><time>2026-04-19T11:43:15.004Z</time></trkpt><trkpt lat="45.069069062535576" lon="7.681060737437068"><ele>254.0</ele><time>2026-04-19T11:43:16.004Z</time></trkpt><trkpt lat="45.069033458296126" lon="7.681145186565421"><ele>253.16666666666669</ele><time>2026-04-19T11:43:17.004Z</time></trkpt><trkpt lat="45.06899481139217" lon="7.681243298172455"><ele>252.33333333333334</ele><time>2026-04-19T11:43:18.004Z</time></trkpt><trkpt lat="45.06894441412676" lon="7.681363441592284"><ele>251.5</ele><time>2026-04-19T11:43:19.004Z</time></trkpt><trkpt lat="45.06890044371832" lon="7.68146842693502"><ele>250.66666666666669</ele><time>2026-04-19T11:43:20.004Z</time></trkpt><trkpt lat="45.06886394032387" lon="7.681590061395812"><ele>249.83333333333334</ele><time>2026-04-19T11:43:21.004Z</time></trkpt><trkpt lat="45.068831065392786" lon="7.681702101395942"><ele>249.0</ele><time>2026-04-19T11:43:22.004Z</time></trkpt><trkpt lat="45.0687971599166" lon="7.681821819319468"><ele>249.0</ele><time>2026-04-19T11:43:23.004Z</time></trkpt><trkpt lat="45.06877642924469" lon="7.681937017064943"><ele>249.0</ele><time>2026-04-19T11:43:24.004Z</time></trkpt><trkpt lat="45.06874179134047" lon="7.682038336716992"><ele>249.0</ele><time>2026-04-19T11:43:25.004Z</time></trkpt><trkpt lat="45.06870439573695" lon="7.682142421885044"><ele>249.0</ele><time>2026-04-19T11:43:26.004Z</time></trkpt><trkpt lat="45.06866562216747" lon="7.682248512758535"><ele>249.0</ele><time>2026-04-19T11:43:27.004Z</time></trkpt><trkpt lat="45.068630138756866" lon="7.682353542977494"><ele>249.0</ele><time>2026-04-19T11:43:28.004Z</time></trkpt><trkpt lat="45.068606545874694" lon="7.682474165469521"><ele>249.0</ele><time>2026-04-19T11:43:30.004Z</time></trkpt><trkpt lat="45.068544194339985" lon="7.682592937402129"><ele>249.0</ele><time>2026-04-19T11:43:39.004Z</time></trkpt><trkpt lat="45.06850209015173" lon="7.682716157268193"><ele>249.0</ele><time>2026-04-19T11:43:41.004Z</time></trkpt><trkpt lat="45.06846883604338" lon="7.682802145652903"><ele>249.0</ele><time>2026-04-19T11:43:43.004Z</time></trkpt><trkpt lat="45.068429542455625" lon="7.682898731834233"><ele>249.0</ele><time>2026-04-19T11:43:45.004Z</time></trkpt><trkpt lat="45.068407531790946" lon="7.682990059000965"><ele>249.0</ele><time>2026-04-19T11:43:47.004Z</time></trkpt><trkpt lat="45.06837149153768" lon="7.683073037962196"><ele>249.16666666666666</ele><time>2026-04-19T11:43:54.004Z</time></trkpt><trkpt lat="45.068333103871915" lon="7.68314970194895"><ele>249.33333333333331</ele><time>2026-04-19T11:43:56.004Z</time></trkpt><trkpt lat="45.06829688422992" lon="7.683250090555934"><ele>249.5</ele><time>2026-04-19T11:43:58.004Z</time></trkpt><trkpt lat="45.06825706701051" lon="7.683383995231476"><ele>249.66666666666666</ele><time>2026-04-19T11:44:00.004Z</time></trkpt><trkpt lat="45.06821548861586" lon="7.683503833065787"><ele>249.83333333333331</ele><time>2026-04-19T11:44:02.004Z</time></trkpt><trkpt lat="45.06818552901823" lon="7.683607498615593"><ele>250.0</ele><time>2026-04-19T11:44:04.004Z</time></trkpt><trkpt lat="45.06814681256437" lon="7.6837078470018865"><ele>249.99999999999997</ele><time>2026-04-19T11:44:06.004Z</time></trkpt><trkpt lat="45.068115501201326" lon="7.683835664175188"><ele>250.0</ele><time>2026-04-19T11:44:08.004Z</time></trkpt><trkpt lat="45.06808262356467" lon="7.683936568164053"><ele>250.0</ele><time>2026-04-19T11:44:10.004Z</time></trkpt><trkpt lat="45.06803743844096" lon="7.6840136681779425"><ele>250.0</ele><time>2026-04-19T11:44:13.004Z</time></trkpt><trkpt lat="45.067997948301894" lon="7.6841216604941005"><ele>249.99999999999997</ele><time>2026-04-19T11:44:18.005Z</time></trkpt><trkpt lat="45.06796256188212" lon="7.68421908594161"><ele>250.0</ele><time>2026-04-19T11:44:20.005Z</time></trkpt><trkpt lat="45.06792428302199" lon="7.68432570828142"><ele>250.4</ele><time>2026-04-19T11:44:22.005Z</time></trkpt><trkpt lat="45.06787946755037" lon="7.684437958169141"><ele>250.8</ele><time>2026-04-19T11:44:24.005Z</time></trkpt><trkpt lat="45.06782546556777" lon="7.684591930654966"><ele>251.2</ele><time>2026-04-19T11:44:26.005Z</time></trkpt><trkpt lat="45.06777557948343" lon="7.684743997828862"><ele>251.6</ele><time>2026-04-19T11:44:28.005Z</time></trkpt><trkpt lat="45.06772998564366" lon="7.684885688057172"><ele>252.0</ele><time>2026-04-19T11:44:30.005Z</time></trkpt><trkpt lat="45.067684002168654" lon="7.685019352253748"><ele>252.0</ele><time>2026-04-19T11:44:32.005Z</time></trkpt><trkpt lat="45.06763542654204" lon="7.685144373700049"><ele>252.0</ele><time>2026-04-19T11:44:34.005Z</time></trkpt><trkpt lat="45.067594530719" lon="7.685260935173209"><ele>252.0</ele><time>2026-04-19T11:44:36.005Z</time></trkpt><trkpt lat="45.067558493474635" lon="7.68536060974945"><ele>252.0</ele><time>2026-04-19T11:44:38.005Z</time></trkpt><trkpt lat="45.067521918532094" lon="7.685457438905201"><ele>252.0</ele><time>2026-04-19T11:44:40.005Z</time></trkpt><trkpt lat="45.067485588633474" lon="7.685554397464558"><ele>252.0</ele><time>2026-04-19T11:44:42.005Z</time></trkpt><trkpt lat="45.06744531925326" lon="7.685666510013609"><ele>251.6</ele><time>2026-04-19T11:44:44.005Z</time></trkpt><trkpt lat="45.06739161892764" lon="7.68582455610822"><ele>251.2</ele><time>2026-04-19T11:44:46.005Z</time></trkpt><trkpt lat="45.06735795727517" lon="7.685916002971516"><ele>250.8</ele><time>2026-04-19T11:44:47.005Z</time></trkpt><trkpt lat="45.067320431032144" lon="7.686011005003516"><ele>250.4</ele><time>2026-04-19T11:44:48.005Z</time></trkpt><trkpt lat="45.067284973072944" lon="7.686099606474442"><ele>250.0</ele><time>2026-04-19T11:44:49.005Z</time></trkpt><trkpt lat="45.06722619325166" lon="7.6862443485459915"><ele>249.5</ele><time>2026-04-19T11:44:50.988Z</time></trkpt><trkpt lat="45.06716977894893" lon="7.686382419940286"><ele>249.0</ele><time>2026-04-19T11:44:52.988Z</time></trkpt><trkpt lat="45.0671317254924" lon="7.686489488658748"><ele>248.5</ele><time>2026-04-19T11:44:54.988Z</time></trkpt><trkpt lat="45.067203539337015" lon="7.686674740151984"><ele>248.0</ele><time>2026-04-19T11:44:59.988Z</time></trkpt><trkpt lat="45.06731345042206" lon="7.686749834678447"><ele>248.0</ele><time>2026-04-19T11:45:01.988Z</time></trkpt><trkpt lat="45.067395694165306" lon="7.686806026068304"><ele>248.0</ele><time>2026-04-19T11:45:02.988Z</time></trkpt><trkpt lat="45.067480394193694" lon="7.686864246933365"><ele>248.0</ele><time>2026-04-19T11:45:03.988Z</time></trkpt><trkpt lat="45.06754804716019" lon="7.686917100015401"><ele>248.0</ele><time>2026-04-19T11:45:04.988Z</time></trkpt><trkpt lat="45.06760601305022" lon="7.6869868307280775"><ele>248.0</ele><time>2026-04-19T11:45:05.988Z</time></trkpt><trkpt lat="45.06770944442682" lon="7.687048387164787"><ele>248.0</ele><time>2026-04-19T11:45:07.988Z</time></trkpt><trkpt lat="45.06777413632767" lon="7.687088079668063"><ele>248.0</ele><time>2026-04-19T11:45:11.988Z</time></trkpt><trkpt lat="45.067946728074645" lon="7.687029057146378"><ele>248.0</ele><time>2026-04-19T11:45:14.988Z</time></trkpt><trkpt lat="45.06798511737526" lon="7.6869271474990395"><ele>248.0</ele><time>2026-04-19T11:45:16.988Z</time></trkpt><trkpt lat="45.06802621356227" lon="7.686818052042815"><ele>248.0</ele><time>2026-04-19T11:45:18.988Z</time></trkpt><trkpt lat="45.06806239338113" lon="7.686722007761843"><ele>248.0</ele><time>2026-04-19T11:45:20.988Z</time></trkpt><trkpt lat="45.068123277655246" lon="7.6866324993009245"><ele>248.0</ele><time>2026-04-19T11:45:22.988Z</time></trkpt><trkpt lat="45.06817197809442" lon="7.686481135326967"><ele>248.0</ele><time>2026-04-19T11:45:24.988Z</time></trkpt><trkpt lat="45.0682051629502" lon="7.686402284129726"><ele>248.0</ele><time>2026-04-19T11:45:25.988Z</time></trkpt><trkpt lat="45.06825322300827" lon="7.686247601677891"><ele>248.0</ele><time>2026-04-19T11:45:27.988Z</time></trkpt><trkpt lat="45.068311206029335" lon="7.6860878992631765"><ele>248.66666666666669</ele><time>2026-04-19T11:45:29.988Z</time></trkpt><trkpt lat="45.06834304408099" lon="7.686001009776788"><ele>249.33333333333334</ele><time>2026-04-19T11:45:30.988Z</time></trkpt><trkpt lat="45.068392753584284" lon="7.685849243051338"><ele>250.0</ele><time>2026-04-19T11:45:32.988Z</time></trkpt><trkpt lat="45.068431104507006" lon="7.685765396915771"><ele>250.66666666666669</ele><time>2026-04-19T11:45:33.988Z</time></trkpt><trkpt lat="45.06848056543749" lon="7.685681542049952"><ele>251.33333333333334</ele><time>2026-04-19T11:45:34.988Z</time></trkpt><trkpt lat="45.06852590511992" lon="7.685590921518786"><ele>252.0</ele><time>2026-04-19T11:45:35.987Z</time></trkpt><trkpt lat="45.068548943637694" lon="7.6855056737875405"><ele>252.0</ele><time>2026-04-19T11:45:36.987Z</time></trkpt><trkpt lat="45.068579587824814" lon="7.685421439589774"><ele>252.0</ele><time>2026-04-19T11:45:37.987Z</time></trkpt><trkpt lat="45.06860341050571" lon="7.685337643039003"><ele>252.0</ele><time>2026-04-19T11:45:38.986Z</time></trkpt><trkpt lat="45.068669551777745" lon="7.68520448583636"><ele>252.0</ele><time>2026-04-19T11:45:40.986Z</time></trkpt><trkpt lat="45.06868790264643" lon="7.685116950254373"><ele>252.0</ele><time>2026-04-19T11:45:41.986Z</time></trkpt><trkpt lat="45.06872762685351" lon="7.685046433334982"><ele>252.0</ele><time>2026-04-19T11:45:42.986Z</time></trkpt><trkpt lat="45.068763778092844" lon="7.684898813843073"><ele>252.2</ele><time>2026-04-19T11:45:44.987Z</time></trkpt><trkpt lat="45.06880360027134" lon="7.684756593959989"><ele>252.39999999999998</ele><time>2026-04-19T11:45:46.986Z</time></trkpt><trkpt lat="45.06886074414545" lon="7.684613921579939"><ele>252.60000000000002</ele><time>2026-04-19T11:45:48.986Z</time></trkpt><trkpt lat="45.06891735653538" lon="7.684464044092504"><ele>252.8</ele><time>2026-04-19T11:45:50.986Z</time></trkpt><trkpt lat="45.06894694886999" lon="7.684385224479447"><ele>253.0</ele><time>2026-04-19T11:45:51.986Z</time></trkpt><trkpt lat="45.0689800765994" lon="7.684296988287898"><ele>252.99999999999997</ele><time>2026-04-19T11:45:52.986Z</time></trkpt><trkpt lat="45.06901492434473" lon="7.6842041708126345"><ele>253.0</ele><time>2026-04-19T11:45:53.986Z</time></trkpt><trkpt lat="45.06904783928687" lon="7.684116501502504"><ele>253.0</ele><time>2026-04-19T11:45:54.986Z</time></trkpt><trkpt lat="45.06909834900504" lon="7.683979313017186"><ele>253.0</ele><time>2026-04-19T11:45:56.986Z</time></trkpt><trkpt lat="45.06914423266082" lon="7.683855269759596"><ele>252.99999999999997</ele><time>2026-04-19T11:45:58.986Z</time></trkpt><trkpt lat="45.069179076118196" lon="7.683761072906806"><ele>253.0</ele><time>2026-04-19T11:46:00.986Z</time></trkpt><trkpt lat="45.069219351457846" lon="7.683652191347794"><ele>253.2</ele><time>2026-04-19T11:46:02.986Z</time></trkpt><trkpt lat="45.06926925222628" lon="7.683544372279079"><ele>253.4</ele><time>2026-04-19T11:46:04.986Z</time></trkpt><trkpt lat="45.06931990745075" lon="7.6834131642134"><ele>253.59999999999997</ele><time>2026-04-19T11:46:06.986Z</time></trkpt><trkpt lat="45.06936610572167" lon="7.683287620815668"><ele>253.79999999999998</ele><time>2026-04-19T11:46:08.986Z</time></trkpt><trkpt lat="45.0694101887123" lon="7.683196443800304"><ele>254.0</ele><time>2026-04-19T11:46:10.986Z</time></trkpt><trkpt lat="45.06953037022025" lon="7.683163579698925"><ele>254.00000000000003</ele><time>2026-04-19T11:46:14.986Z</time></trkpt><trkpt lat="45.069588593160574" lon="7.683200108185417"><ele>254.0</ele><time>2026-04-19T11:46:15.986Z</time></trkpt><trkpt lat="45.06965263589091" lon="7.683243298967948"><ele>254.0</ele><time>2026-04-19T11:46:16.986Z</time></trkpt><trkpt lat="45.069755594896364" lon="7.683312735109843"><ele>254.0</ele><time>2026-04-19T11:46:18.986Z</time></trkpt><trkpt lat="45.06986890463141" lon="7.68336439115676"><ele>254.00000000000003</ele><time>2026-04-19T11:46:20.986Z</time></trkpt><trkpt lat="45.06994243437645" lon="7.683383840076217"><ele>254.0</ele><time>2026-04-19T11:46:21.986Z</time></trkpt><trkpt lat="45.070007334858516" lon="7.68341351689743"><ele>253.79999999999998</ele><time>2026-04-19T11:46:22.986Z</time></trkpt><trkpt lat="45.07009991588021" lon="7.683493809223704"><ele>253.59999999999997</ele><time>2026-04-19T11:46:24.986Z</time></trkpt><trkpt lat="45.07020443833548" lon="7.683561027519349"><ele>253.4</ele><time>2026-04-19T11:46:26.986Z</time></trkpt><trkpt lat="45.07029033966876" lon="7.68361627060547"><ele>253.2</ele><time>2026-04-19T11:46:28.986Z</time></trkpt><trkpt lat="45.07040630655138" lon="7.683695105503581"><ele>253.0</ele><time>2026-04-19T11:46:30.986Z</time></trkpt><trkpt lat="45.070462806030044" lon="7.683737864514801"><ele>252.66666666666666</ele><time>2026-04-19T11:46:31.986Z</time></trkpt><trkpt lat="45.07053467503583" lon="7.683789954557328"><ele>252.33333333333331</ele><time>2026-04-19T11:46:33.986Z</time></trkpt><trkpt lat="45.07060352258385" lon="7.683833905517214"><ele>252.0</ele><time>2026-04-19T11:46:36.986Z</time></trkpt><trkpt lat="45.07069895177383" lon="7.683885986566571"><ele>251.66666666666669</ele><time>2026-04-19T11:47:32.987Z</time></trkpt><trkpt lat="45.07076256149319" lon="7.683923179342732"><ele>251.33333333333334</ele><time>2026-04-19T11:47:34.987Z</time></trkpt><trkpt lat="45.07074868603646" lon="7.684027726800329"><ele>251.0</ele><time>2026-04-19T11:47:35.987Z</time></trkpt><trkpt lat="45.07075680198905" lon="7.684159346531723"><ele>251.00000000000003</ele><time>2026-04-19T11:47:39.987Z</time></trkpt><trkpt lat="45.07075840784241" lon="7.684277434263963"><ele>251.0</ele><time>2026-04-19T11:47:41.985Z</time></trkpt><trkpt lat="45.07074124119921" lon="7.684392787561998"><ele>251.0</ele><time>2026-04-19T11:47:43.985Z</time></trkpt><trkpt lat="45.07067518879675" lon="7.684414243212668"><ele>251.0</ele><time>2026-04-19T11:47:44.985Z</time></trkpt><trkpt lat="45.07066560844617" lon="7.684503634914387"><ele>251.00000000000003</ele><time>2026-04-19T11:47:49.985Z</time></trkpt><trkpt lat="45.070626550630394" lon="7.6846154671889355"><ele>251.0</ele><time>2026-04-19T11:48:04.984Z</time></trkpt><trkpt lat="45.07057111521537" lon="7.684770695193754"><ele>251.16666666666669</ele><time>2026-04-19T11:48:06.984Z</time></trkpt><trkpt lat="45.07053787498791" lon="7.684864924381202"><ele>251.33333333333334</ele><time>2026-04-19T11:48:07.984Z</time></trkpt><trkpt lat="45.07049571279677" lon="7.684971969366713"><ele>251.5</ele><time>2026-04-19T11:48:08.984Z</time></trkpt><trkpt lat="45.07045549768878" lon="7.685075521065637"><ele>251.66666666666669</ele><time>2026-04-19T11:48:09.984Z</time></trkpt><trkpt lat="45.07041864626143" lon="7.685169803108534"><ele>251.83333333333334</ele><time>2026-04-19T11:48:10.984Z</time></trkpt><trkpt lat="45.07038387592234" lon="7.68526338492845"><ele>252.0</ele><time>2026-04-19T11:48:11.984Z</time></trkpt><trkpt lat="45.07034851884608" lon="7.685359204745464"><ele>251.16666666666666</ele><time>2026-04-19T11:48:12.984Z</time></trkpt><trkpt lat="45.07031241612639" lon="7.6854613440481625"><ele>250.33333333333331</ele><time>2026-04-19T11:48:13.984Z</time></trkpt><trkpt lat="45.070272427284934" lon="7.685563557413095"><ele>249.5</ele><time>2026-04-19T11:48:14.984Z</time></trkpt><trkpt lat="45.07023754470582" lon="7.685682738253259"><ele>248.66666666666666</ele><time>2026-04-19T11:48:15.984Z</time></trkpt><trkpt lat="45.07019807563933" lon="7.685797370835393"><ele>247.83333333333331</ele><time>2026-04-19T11:48:16.984Z</time></trkpt><trkpt lat="45.070173495155274" lon="7.68590400276391"><ele>247.0</ele><time>2026-04-19T11:48:17.984Z</time></trkpt><trkpt lat="45.07015192425813" lon="7.686003582557527"><ele>247.16666666666666</ele><time>2026-04-19T11:48:18.984Z</time></trkpt><trkpt lat="45.07014043834765" lon="7.686098931805067"><ele>247.33333333333331</ele><time>2026-04-19T11:48:19.984Z</time></trkpt><trkpt lat="45.07013685709926" lon="7.686198292973084"><ele>247.5</ele><time>2026-04-19T11:48:20.984Z</time></trkpt><trkpt lat="45.07014043313363" lon="7.686296255121783"><ele>247.66666666666669</ele><time>2026-04-19T11:48:21.984Z</time></trkpt><trkpt lat="45.07015273167752" lon="7.686435198026459"><ele>247.83333333333334</ele><time>2026-04-19T11:48:23.984Z</time></trkpt><trkpt lat="45.07017676009505" lon="7.686523960485744"><ele>248.0</ele><time>2026-04-19T11:48:26.984Z</time></trkpt><trkpt lat="45.07019787903271" lon="7.686632906274835"><ele>248.00000000000003</ele><time>2026-04-19T11:48:29.984Z</time></trkpt><trkpt lat="45.07025100099701" lon="7.68673764367959"><ele>248.0</ele><time>2026-04-19T11:48:31.984Z</time></trkpt><trkpt lat="45.07031067449147" lon="7.686813103729251"><ele>248.0</ele><time>2026-04-19T11:48:33.984Z</time></trkpt><trkpt lat="45.07036500260513" lon="7.686860071299293"><ele>248.0</ele><time>2026-04-19T11:48:35.984Z</time></trkpt><trkpt lat="45.070445363924954" lon="7.6868941740033705"><ele>248.00000000000003</ele><time>2026-04-19T11:48:39.985Z</time></trkpt><trkpt lat="45.070541394081886" lon="7.6869366908302235"><ele>248.0</ele><time>2026-04-19T11:48:41.985Z</time></trkpt><trkpt lat="45.0706030679928" lon="7.686972017861717"><ele>248.4</ele><time>2026-04-19T11:48:42.985Z</time></trkpt><trkpt lat="45.070665792536964" lon="7.687007882714359"><ele>248.8</ele><time>2026-04-19T11:48:43.985Z</time></trkpt><trkpt lat="45.07077435438236" lon="7.68709594736231"><ele>249.2</ele><time>2026-04-19T11:48:45.985Z</time></trkpt><trkpt lat="45.07085765513863" lon="7.687196040146525"><ele>249.6</ele><time>2026-04-19T11:48:47.985Z</time></trkpt><trkpt lat="45.07093486609017" lon="7.687325324240534"><ele>250.0</ele><time>2026-04-19T11:48:49.985Z</time></trkpt><trkpt lat="45.07102480562908" lon="7.687385006454125"><ele>249.49999999999997</ele><time>2026-04-19T11:48:51.985Z</time></trkpt><trkpt lat="45.071089211349275" lon="7.687433862835289"><ele>249.0</ele><time>2026-04-19T11:48:53.985Z</time></trkpt><trkpt lat="45.071146758601216" lon="7.687508348305306"><ele>248.5</ele><time>2026-04-19T11:48:55.985Z</time></trkpt><trkpt lat="45.071230224137516" lon="7.687565665317456"><ele>248.0</ele><time>2026-04-19T11:48:57.985Z</time></trkpt><trkpt lat="45.07132134861754" lon="7.68764641348063"><ele>247.49999999999997</ele><time>2026-04-19T11:48:59.985Z</time></trkpt><trkpt lat="45.071361546982004" lon="7.687716374464404"><ele>247.0</ele><time>2026-04-19T11:49:00.985Z</time></trkpt><trkpt lat="45.071454444758245" lon="7.687854354845438"><ele>247.0</ele><time>2026-04-19T11:49:03.985Z</time></trkpt><trkpt lat="45.07147868927112" lon="7.6879749299307525"><ele>247.0</ele><time>2026-04-19T11:49:04.985Z</time></trkpt><trkpt lat="45.071484433800514" lon="7.688112711699937"><ele>247.0</ele><time>2026-04-19T11:49:05.985Z</time></trkpt><trkpt lat="45.071491447303494" lon="7.688280929581276"><ele>247.0</ele><time>2026-04-19T11:49:06.985Z</time></trkpt><trkpt lat="45.071507133637205" lon="7.688453476869804"><ele>247.0</ele><time>2026-04-19T11:49:07.985Z</time></trkpt><trkpt lat="45.07151698624764" lon="7.688596533840949"><ele>246.2</ele><time>2026-04-19T11:49:08.985Z</time></trkpt><trkpt lat="45.071529462638615" lon="7.688729792284126"><ele>245.39999999999998</ele><time>2026-04-19T11:49:09.985Z</time></trkpt><trkpt lat="45.07156219627799" lon="7.688878282500002"><ele>244.60000000000002</ele><time>2026-04-19T11:49:10.985Z</time></trkpt><trkpt lat="45.07158531972448" lon="7.6890222195126325"><ele>243.8</ele><time>2026-04-19T11:49:11.985Z</time></trkpt><trkpt lat="45.071618966943134" lon="7.6891501554869555"><ele>243.0</ele><time>2026-04-19T11:49:12.985Z</time></trkpt><trkpt lat="45.07165327605093" lon="7.689259891620133"><ele>242.2</ele><time>2026-04-19T11:49:13.985Z</time></trkpt><trkpt lat="45.0717014063904" lon="7.689378012675116"><ele>241.4</ele><time>2026-04-19T11:49:14.985Z</time></trkpt><trkpt lat="45.07175674266345" lon="7.689498240868317"><ele>240.59999999999997</ele><time>2026-04-19T11:49:15.985Z</time></trkpt><trkpt lat="45.07182031765546" lon="7.689598141208046"><ele>239.79999999999998</ele><time>2026-04-19T11:49:16.985Z</time></trkpt><trkpt lat="45.07189094824177" lon="7.68971134195125"><ele>239.0</ele><time>2026-04-19T11:49:17.985Z</time></trkpt><trkpt lat="45.07197640705602" lon="7.689787386806206"><ele>238.5</ele><time>2026-04-19T11:49:18.985Z</time></trkpt><trkpt lat="45.07200056978894" lon="7.689963977591438"><ele>238.0</ele><time>2026-04-19T11:49:19.985Z</time></trkpt><trkpt lat="45.07203556484768" lon="7.6901017011574195"><ele>237.5</ele><time>2026-04-19T11:49:20.985Z</time></trkpt><trkpt lat="45.072072488185775" lon="7.6902492093692745"><ele>237.0</ele><time>2026-04-19T11:49:21.985Z</time></trkpt><trkpt lat="45.072110999188006" lon="7.690408384484965"><ele>236.25</ele><time>2026-04-19T11:49:22.985Z</time></trkpt><trkpt lat="45.07214834596564" lon="7.690569794934172"><ele>235.5</ele><time>2026-04-19T11:49:23.985Z</time></trkpt><trkpt lat="45.07219654468272" lon="7.690732132455198"><ele>234.75</ele><time>2026-04-19T11:49:24.985Z</time></trkpt><trkpt lat="45.07223709464002" lon="7.69089619502467"><ele>234.0</ele><time>2026-04-19T11:49:25.985Z</time></trkpt><trkpt lat="45.07231264461494" lon="7.691035514420733"><ele>233.79999999999998</ele><time>2026-04-19T11:49:26.985Z</time></trkpt><trkpt lat="45.07235542057712" lon="7.691163492526759"><ele>233.59999999999997</ele><time>2026-04-19T11:49:27.985Z</time></trkpt><trkpt lat="45.07240789187145" lon="7.691287777312982"><ele>233.4</ele><time>2026-04-19T11:49:28.985Z</time></trkpt><trkpt lat="45.0724628749608" lon="7.691399028879436"><ele>233.2</ele><time>2026-04-19T11:49:29.985Z</time></trkpt><trkpt lat="45.07252027053741" lon="7.691506362265653"><ele>233.0</ele><time>2026-04-19T11:49:30.985Z</time></trkpt><trkpt lat="45.07258317151684" lon="7.691585318494235"><ele>233.0</ele><time>2026-04-19T11:49:31.985Z</time></trkpt><trkpt lat="45.07261979541942" lon="7.691667182374834"><ele>233.0</ele><time>2026-04-19T11:49:32.985Z</time></trkpt><trkpt lat="45.072780455820386" lon="7.691618286800878"><ele>233.0</ele><time>2026-04-19T11:49:34.985Z</time></trkpt><trkpt lat="45.07284594355932" lon="7.691569707949591"><ele>233.0</ele><time>2026-04-19T11:49:35.985Z</time></trkpt><trkpt lat="45.072922757688644" lon="7.691496925344717"><ele>233.0</ele><time>2026-04-19T11:49:36.985Z</time></trkpt><trkpt lat="45.0730029127196" lon="7.691421462969902"><ele>233.0</ele><time>2026-04-19T11:49:37.985Z</time></trkpt><trkpt lat="45.0730892979467" lon="7.691347814418867"><ele>233.0</ele><time>2026-04-19T11:49:38.985Z</time></trkpt><trkpt lat="45.07317694039065" lon="7.691269959073522"><ele>233.0</ele><time>2026-04-19T11:49:39.985Z</time></trkpt><trkpt lat="45.07326266952496" lon="7.691184254433407"><ele>233.0</ele><time>2026-04-19T11:49:40.985Z</time></trkpt><trkpt lat="45.07334891294139" lon="7.691101880626298"><ele>233.0</ele><time>2026-04-19T11:49:41.985Z</time></trkpt><trkpt lat="45.07343569185464" lon="7.691024008756939"><ele>233.60000000000002</ele><time>2026-04-19T11:49:42.985Z</time></trkpt><trkpt lat="45.07352199843572" lon="7.690950492518021"><ele>234.20000000000002</ele><time>2026-04-19T11:49:43.985Z</time></trkpt><trkpt lat="45.07360699220324" lon="7.69087825899385"><ele>234.8</ele><time>2026-04-19T11:49:44.985Z</time></trkpt><trkpt lat="45.07368522643188" lon="7.690811411273343"><ele>235.4</ele><time>2026-04-19T11:49:45.985Z</time></trkpt><trkpt lat="45.07375837794493" lon="7.690750239325654"><ele>236.0</ele><time>2026-04-19T11:49:46.985Z</time></trkpt><trkpt lat="45.07382398125461" lon="7.6906842974573415"><ele>236.00000000000003</ele><time>2026-04-19T11:49:47.982Z</time></trkpt><trkpt lat="45.07388057164379" lon="7.690619840523551"><ele>236.0</ele><time>2026-04-19T11:49:48.983Z</time></trkpt><trkpt lat="45.07392986744712" lon="7.690559007928784"><ele>236.0</ele><time>2026-04-19T11:49:49.983Z</time></trkpt><trkpt lat="45.07403081124353" lon="7.690483056839181"><ele>236.0</ele><time>2026-04-19T11:49:51.983Z</time></trkpt><trkpt lat="45.07411517288954" lon="7.690403228176777"><ele>236.00000000000003</ele><time>2026-04-19T11:49:53.982Z</time></trkpt><trkpt lat="45.07418002036474" lon="7.690328124076562"><ele>236.0</ele><time>2026-04-19T11:49:55.983Z</time></trkpt><trkpt lat="45.074205966060745" lon="7.690226957909338"><ele>235.8</ele><time>2026-04-19T11:49:57.982Z</time></trkpt><trkpt lat="45.07426931295948" lon="7.690166843976943"><ele>235.60000000000002</ele><time>2026-04-19T11:50:00.982Z</time></trkpt><trkpt lat="45.074360060888196" lon="7.690082098113811"><ele>235.4</ele><time>2026-04-19T11:50:02.982Z</time></trkpt><trkpt lat="45.07446866808105" lon="7.690178624596517"><ele>235.2</ele><time>2026-04-19T11:50:03.982Z</time></trkpt><trkpt lat="45.07454164918607" lon="7.690168657134552"><ele>235.0</ele><time>2026-04-19T11:50:04.982Z</time></trkpt><trkpt lat="45.07461720097012" lon="7.69017072344766"><ele>234.99999999999997</ele><time>2026-04-19T11:50:05.982Z</time></trkpt><trkpt lat="45.074683820150824" lon="7.690192390399125"><ele>235.0</ele><time>2026-04-19T11:50:06.982Z</time></trkpt><trkpt lat="45.07474417011481" lon="7.690232852412393"><ele>235.0</ele><time>2026-04-19T11:50:07.982Z</time></trkpt><trkpt lat="45.074793093506" lon="7.690292798778923"><ele>235.0</ele><time>2026-04-19T11:50:08.982Z</time></trkpt><trkpt lat="45.07492586284035" lon="7.690301678515558"><ele>234.99999999999997</ele><time>2026-04-19T11:50:09.982Z</time></trkpt><trkpt lat="45.07497650637697" lon="7.690423030223298"><ele>235.0</ele><time>2026-04-19T11:50:10.982Z</time></trkpt><trkpt lat="45.07502637536988" lon="7.690532604559979"><ele>234.25</ele><time>2026-04-19T11:50:11.982Z</time></trkpt><trkpt lat="45.07508821822374" lon="7.69066655546299"><ele>233.5</ele><time>2026-04-19T11:50:12.982Z</time></trkpt><trkpt lat="45.07516113769502" lon="7.690824498203838"><ele>232.75</ele><time>2026-04-19T11:50:13.982Z</time></trkpt><trkpt lat="45.075231218602305" lon="7.690976292639741"><ele>232.0</ele><time>2026-04-19T11:50:14.982Z</time></trkpt><trkpt lat="45.07530664713144" lon="7.691139669960113"><ele>231.5</ele><time>2026-04-19T11:50:15.982Z</time></trkpt><trkpt lat="45.07537940586142" lon="7.691297264532531"><ele>231.0</ele><time>2026-04-19T11:50:16.982Z</time></trkpt><trkpt lat="45.075453189504486" lon="7.691457470100562"><ele>230.5</ele><time>2026-04-19T11:50:17.982Z</time></trkpt><trkpt lat="45.07552621888686" lon="7.691621992673531"><ele>230.0</ele><time>2026-04-19T11:50:18.982Z</time></trkpt><trkpt lat="45.075579247487866" lon="7.691801623469634"><ele>229.66666666666669</ele><time>2026-04-19T11:50:19.982Z</time></trkpt><trkpt lat="45.07565507943726" lon="7.691931328795523"><ele>229.33333333333334</ele><time>2026-04-19T11:50:20.982Z</time></trkpt><trkpt lat="45.075711472393316" lon="7.6920384873784995"><ele>229.0</ele><time>2026-04-19T11:50:21.982Z</time></trkpt><trkpt lat="45.07575635978469" lon="7.692124871290682"><ele>228.66666666666669</ele><time>2026-04-19T11:50:22.982Z</time></trkpt><trkpt lat="45.075795774166906" lon="7.6922056234565614"><ele>228.33333333333334</ele><time>2026-04-19T11:50:24.982Z</time></trkpt><trkpt lat="45.07585735060535" lon="7.692297753532148"><ele>228.0</ele><time>2026-04-19T11:51:00.982Z</time></trkpt><trkpt lat="45.07587873729106" lon="7.692388902422193"><ele>227.83333333333334</ele><time>2026-04-19T11:51:01.982Z</time></trkpt><trkpt lat="45.07597088463273" lon="7.69244188118261"><ele>227.66666666666669</ele><time>2026-04-19T11:51:02.982Z</time></trkpt><trkpt lat="45.076042302296386" lon="7.69249788751672"><ele>227.5</ele><time>2026-04-19T11:51:03.982Z</time></trkpt><trkpt lat="45.07612430824694" lon="7.692534001287602"><ele>227.33333333333334</ele><time>2026-04-19T11:51:04.982Z</time></trkpt><trkpt lat="45.07620977906918" lon="7.692550493685718"><ele>227.16666666666669</ele><time>2026-04-19T11:51:05.982Z</time></trkpt><trkpt lat="45.07630162412131" lon="7.6925597391092175"><ele>227.0</ele><time>2026-04-19T11:51:06.982Z</time></trkpt><trkpt lat="45.0764110204612" lon="7.692577307970098"><ele>227.0</ele><time>2026-04-19T11:51:07.982Z</time></trkpt><trkpt lat="45.076527265275324" lon="7.692607387476806"><ele>227.0</ele><time>2026-04-19T11:51:08.982Z</time></trkpt><trkpt lat="45.07665778990226" lon="7.692562469217602"><ele>227.0</ele><time>2026-04-19T11:51:09.982Z</time></trkpt><trkpt lat="45.076785189657926" lon="7.692663524359464"><ele>227.0</ele><time>2026-04-19T11:51:10.982Z</time></trkpt><trkpt lat="45.07692622542762" lon="7.692669352219998"><ele>227.25</ele><time>2026-04-19T11:51:11.982Z</time></trkpt><trkpt lat="45.07707653897378" lon="7.692655483959476"><ele>227.5</ele><time>2026-04-19T11:51:12.982Z</time></trkpt><trkpt lat="45.077217876674304" lon="7.692658192770428"><ele>227.75</ele><time>2026-04-19T11:51:13.982Z</time></trkpt><trkpt lat="45.077359595741086" lon="7.692663630808763"><ele>228.0</ele><time>2026-04-19T11:51:14.982Z</time></trkpt><trkpt lat="45.07752367336562" lon="7.6926433865854085"><ele>228.75</ele><time>2026-04-19T11:51:15.982Z</time></trkpt><trkpt lat="45.077671486509324" lon="7.692651513041379"><ele>229.5</ele><time>2026-04-19T11:51:16.982Z</time></trkpt><trkpt lat="45.07782239244728" lon="7.6926605296026676"><ele>230.25</ele><time>2026-04-19T11:51:17.982Z</time></trkpt><trkpt lat="45.077964861626214" lon="7.69266781279083"><ele>231.0</ele><time>2026-04-19T11:51:18.982Z</time></trkpt><trkpt lat="45.07809692371044" lon="7.69267862680339"><ele>231.0</ele><time>2026-04-19T11:51:19.982Z</time></trkpt><trkpt lat="45.07820118687414" lon="7.692666385932414"><ele>231.0</ele><time>2026-04-19T11:51:20.982Z</time></trkpt><trkpt lat="45.078287911547775" lon="7.692668259903949"><ele>231.0</ele><time>2026-04-19T11:51:21.982Z</time></trkpt><trkpt lat="45.078355781834816" lon="7.692672290300012"><ele>231.0</ele><time>2026-04-19T11:51:22.982Z</time></trkpt><trkpt lat="45.07842084725378" lon="7.692674614732306"><ele>231.0</ele><time>2026-04-19T11:51:23.982Z</time></trkpt><trkpt lat="45.07850052127582" lon="7.692675871135111"><ele>231.0</ele><time>2026-04-19T11:51:24.982Z</time></trkpt><trkpt lat="45.07859157511672" lon="7.69267839210122"><ele>230.75</ele><time>2026-04-19T11:51:25.982Z</time></trkpt><trkpt lat="45.07870172812326" lon="7.692679957574164"><ele>230.5</ele><time>2026-04-19T11:51:26.982Z</time></trkpt><trkpt lat="45.07882922179724" lon="7.692692679479748"><ele>230.25</ele><time>2026-04-19T11:51:27.982Z</time></trkpt><trkpt lat="45.078964454960754" lon="7.692703788062818"><ele>230.0</ele><time>2026-04-19T11:51:28.982Z</time></trkpt><trkpt lat="45.07911536259153" lon="7.692727126581287"><ele>229.66666666666669</ele><time>2026-04-19T11:51:29.982Z</time></trkpt><trkpt lat="45.07926846446319" lon="7.692750078220655"><ele>229.33333333333331</ele><time>2026-04-19T11:51:30.982Z</time></trkpt><trkpt lat="45.079418990178176" lon="7.692763601494174"><ele>229.0</ele><time>2026-04-19T11:51:31.982Z</time></trkpt><trkpt lat="45.07958416251999" lon="7.692753295735969"><ele>229.0</ele><time>2026-04-19T11:51:32.982Z</time></trkpt><trkpt lat="45.07974689924422" lon="7.692746151560171"><ele>229.0</ele><time>2026-04-19T11:51:33.982Z</time></trkpt><trkpt lat="45.07990924873338" lon="7.692740501420946"><ele>229.0</ele><time>2026-04-19T11:51:34.982Z</time></trkpt><trkpt lat="45.08007025593131" lon="7.6927498213346555"><ele>229.0</ele><time>2026-04-19T11:51:35.982Z</time></trkpt><trkpt lat="45.08021174129456" lon="7.69275909233697"><ele>229.0</ele><time>2026-04-19T11:51:36.982Z</time></trkpt><trkpt lat="45.08033764953166" lon="7.692786312777653"><ele>229.0</ele><time>2026-04-19T11:51:37.982Z</time></trkpt><trkpt lat="45.08044788309333" lon="7.692788246964839"><ele>229.0</ele><time>2026-04-19T11:51:38.982Z</time></trkpt><trkpt lat="45.08054576851784" lon="7.692807689948533"><ele>229.0</ele><time>2026-04-19T11:51:39.982Z</time></trkpt><trkpt lat="45.08064092140069" lon="7.692815209083871"><ele>228.99999999999997</ele><time>2026-04-19T11:51:40.982Z</time></trkpt><trkpt lat="45.08074323821442" lon="7.692821599207883"><ele>228.99999999999997</ele><time>2026-04-19T11:51:41.982Z</time></trkpt><trkpt lat="45.08085168359257" lon="7.692828236691938"><ele>229.0</ele><time>2026-04-19T11:51:42.982Z</time></trkpt><trkpt lat="45.080965748623335" lon="7.692826586132724"><ele>229.0</ele><time>2026-04-19T11:51:43.982Z</time></trkpt><trkpt lat="45.08106677028366" lon="7.6928227378265905"><ele>229.79999999999998</ele><time>2026-04-19T11:51:44.982Z</time></trkpt><trkpt lat="45.08116361242421" lon="7.692836592798162"><ele>230.59999999999997</ele><time>2026-04-19T11:51:45.982Z</time></trkpt><trkpt lat="45.0812574345617" lon="7.692841796535002"><ele>231.4</ele><time>2026-04-19T11:51:46.982Z</time></trkpt><trkpt lat="45.081348739408405" lon="7.692854081296904"><ele>232.2</ele><time>2026-04-19T11:51:47.982Z</time></trkpt><trkpt lat="45.08144419396031" lon="7.692856641834942"><ele>233.0</ele><time>2026-04-19T11:51:48.982Z</time></trkpt><trkpt lat="45.08154650211525" lon="7.692872135270082"><ele>233.2</ele><time>2026-04-19T11:51:49.982Z</time></trkpt><trkpt lat="45.08165263394752" lon="7.6928740852120026"><ele>233.4</ele><time>2026-04-19T11:51:50.982Z</time></trkpt><trkpt lat="45.081758684975725" lon="7.692888207828189"><ele>233.59999999999997</ele><time>2026-04-19T11:51:51.982Z</time></trkpt><trkpt lat="45.081868733805614" lon="7.692894751799629"><ele>233.79999999999998</ele><time>2026-04-19T11:51:52.982Z</time></trkpt><trkpt lat="45.08197869770987" lon="7.6929116218438445"><ele>234.0</ele><time>2026-04-19T11:51:53.981Z</time></trkpt><trkpt lat="45.08209492718585" lon="7.692920821538671"><ele>234.0</ele><time>2026-04-19T11:51:54.98Z</time></trkpt><trkpt lat="45.08221261999723" lon="7.692926180529402"><ele>234.0</ele><time>2026-04-19T11:51:55.98Z</time></trkpt><trkpt lat="45.08233332414758" lon="7.692935220538877"><ele>234.0</ele><time>2026-04-19T11:51:56.98Z</time></trkpt><trkpt lat="45.0824498966215" lon="7.692937357735366"><ele>234.0</ele><time>2026-04-19T11:51:57.98Z</time></trkpt><trkpt lat="45.08257118543544" lon="7.692943367546047"><ele>233.79999999999998</ele><time>2026-04-19T11:51:58.981Z</time></trkpt><trkpt lat="45.08268962044262" lon="7.692947648041884"><ele>233.59999999999997</ele><time>2026-04-19T11:51:59.98Z</time></trkpt><trkpt lat="45.08279493836901" lon="7.692960734722617"><ele>233.4</ele><time>2026-04-19T11:52:00.98Z</time></trkpt><trkpt lat="45.08289825843836" lon="7.6929646984223385"><ele>233.2</ele><time>2026-04-19T11:52:01.98Z</time></trkpt><trkpt lat="45.08299406456455" lon="7.692974413188369"><ele>233.0</ele><time>2026-04-19T11:52:02.98Z</time></trkpt><trkpt lat="45.08308230464101" lon="7.692984725251742"><ele>233.00000000000003</ele><time>2026-04-19T11:52:03.981Z</time></trkpt><trkpt lat="45.08316587753131" lon="7.692995145274182"><ele>233.0</ele><time>2026-04-19T11:52:04.981Z</time></trkpt><trkpt lat="45.083238443609915" lon="7.693001437293724"><ele>233.0</ele><time>2026-04-19T11:52:05.98Z</time></trkpt><trkpt lat="45.08330533223193" lon="7.692999291472788"><ele>233.0</ele><time>2026-04-19T11:52:06.98Z</time></trkpt><trkpt lat="45.083407439804326" lon="7.693015392979778"><ele>233.00000000000003</ele><time>2026-04-19T11:52:08.98Z</time></trkpt><trkpt lat="45.083480310842" lon="7.693001491903497"><ele>233.0</ele><time>2026-04-19T11:52:10.98Z</time></trkpt><trkpt lat="45.08359225453887" lon="7.693001300532312"><ele>233.16666666666669</ele><time>2026-04-19T11:52:12.98Z</time></trkpt><trkpt lat="45.08365853711324" lon="7.693005083594213"><ele>233.33333333333334</ele><time>2026-04-19T11:52:13.98Z</time></trkpt><trkpt lat="45.083734148890706" lon="7.693019518579917"><ele>233.5</ele><time>2026-04-19T11:52:14.98Z</time></trkpt><trkpt lat="45.083814072753874" lon="7.693037280907175"><ele>233.66666666666669</ele><time>2026-04-19T11:52:15.98Z</time></trkpt><trkpt lat="45.08388961867823" lon="7.693049174566628"><ele>233.83333333333334</ele><time>2026-04-19T11:52:16.98Z</time></trkpt><trkpt lat="45.08401066885545" lon="7.693071881581234"><ele>234.0</ele><time>2026-04-19T11:52:18.98Z</time></trkpt><trkpt lat="45.08411310980684" lon="7.693076308574539"><ele>234.25</ele><time>2026-04-19T11:52:20.98Z</time></trkpt><trkpt lat="45.08422093560898" lon="7.6930892893196186"><ele>234.5</ele><time>2026-04-19T11:52:22.98Z</time></trkpt><trkpt lat="45.0843117023021" lon="7.693071363655243"><ele>234.75</ele><time>2026-04-19T11:52:24.98Z</time></trkpt><trkpt lat="45.08441820983806" lon="7.693060436951546"><ele>235.0</ele><time>2026-04-19T11:52:27.98Z</time></trkpt><trkpt lat="45.08456295024813" lon="7.693068993302421"><ele>235.0</ele><time>2026-04-19T11:52:29.98Z</time></trkpt><trkpt lat="45.08466604415919" lon="7.693070584479907"><ele>235.0</ele><time>2026-04-19T11:52:30.98Z</time></trkpt><trkpt lat="45.08479321320816" lon="7.6930622630392005"><ele>235.0</ele><time>2026-04-19T11:52:31.98Z</time></trkpt><trkpt lat="45.08489947119573" lon="7.69308904468386"><ele>235.0</ele><time>2026-04-19T11:52:32.98Z</time></trkpt><trkpt lat="45.08500013998275" lon="7.693076058466054"><ele>235.0</ele><time>2026-04-19T11:52:33.98Z</time></trkpt><trkpt lat="45.08511021485415" lon="7.69308141995513"><ele>233.75</ele><time>2026-04-19T11:52:34.98Z</time></trkpt><trkpt lat="45.08521334974103" lon="7.693102852846362"><ele>232.5</ele><time>2026-04-19T11:52:35.98Z</time></trkpt><trkpt lat="45.08533771671057" lon="7.693117351390671"><ele>231.25</ele><time>2026-04-19T11:52:36.98Z</time></trkpt><trkpt lat="45.08547007633754" lon="7.693141382116385"><ele>230.0</ele><time>2026-04-19T11:52:37.98Z</time></trkpt><trkpt lat="45.0856040128751" lon="7.693157426628202"><ele>230.0</ele><time>2026-04-19T11:52:38.98Z</time></trkpt><trkpt lat="45.08573543005328" lon="7.693166533007702"><ele>230.0</ele><time>2026-04-19T11:52:39.98Z</time></trkpt><trkpt lat="45.08586757483615" lon="7.6931776065565405"><ele>230.0</ele><time>2026-04-19T11:52:40.98Z</time></trkpt><trkpt lat="45.08599103474399" lon="7.693185181136577"><ele>230.0</ele><time>2026-04-19T11:52:41.98Z</time></trkpt><trkpt lat="45.08610691329848" lon="7.693188071490509"><ele>231.0</ele><time>2026-04-19T11:52:42.98Z</time></trkpt><trkpt lat="45.08621715038003" lon="7.693190387472413"><ele>232.0</ele><time>2026-04-19T11:52:43.98Z</time></trkpt><trkpt lat="45.0863369109017" lon="7.693198078099109"><ele>233.0</ele><time>2026-04-19T11:52:44.981Z</time></trkpt><trkpt lat="45.08648073111472" lon="7.693205088572116"><ele>234.0</ele><time>2026-04-19T11:52:45.981Z</time></trkpt><trkpt lat="45.086624257881084" lon="7.693211306054887"><ele>234.75</ele><time>2026-04-19T11:52:46.981Z</time></trkpt><trkpt lat="45.08676017210807" lon="7.693210426927311"><ele>235.5</ele><time>2026-04-19T11:52:47.981Z</time></trkpt><trkpt lat="45.08690056271855" lon="7.693212736817145"><ele>236.25</ele><time>2026-04-19T11:52:48.981Z</time></trkpt><trkpt lat="45.08703717608057" lon="7.693232590314084"><ele>237.0</ele><time>2026-04-19T11:52:49.981Z</time></trkpt><trkpt lat="45.087183180837556" lon="7.69324978312394"><ele>237.0</ele><time>2026-04-19T11:52:50.981Z</time></trkpt><trkpt lat="45.08733062738949" lon="7.693259569370382"><ele>237.0</ele><time>2026-04-19T11:52:51.981Z</time></trkpt><trkpt lat="45.087471949282246" lon="7.693263906847348"><ele>237.0</ele><time>2026-04-19T11:52:52.981Z</time></trkpt><trkpt lat="45.087613030474685" lon="7.693267442513868"><ele>237.0</ele><time>2026-04-19T11:52:53.981Z</time></trkpt><trkpt lat="45.08775693693556" lon="7.693270838480681"><ele>236.75</ele><time>2026-04-19T11:52:54.981Z</time></trkpt><trkpt lat="45.08790452492957" lon="7.6932753512511525"><ele>236.5</ele><time>2026-04-19T11:52:55.981Z</time></trkpt><trkpt lat="45.08804377471696" lon="7.693287623775917"><ele>236.25</ele><time>2026-04-19T11:52:56.981Z</time></trkpt><trkpt lat="45.0881801480692" lon="7.693301495478352"><ele>236.0</ele><time>2026-04-19T11:52:57.981Z</time></trkpt><trkpt lat="45.08831664877259" lon="7.693300159111086"><ele>236.0</ele><time>2026-04-19T11:52:58.981Z</time></trkpt><trkpt lat="45.08846391663653" lon="7.693319780084162"><ele>236.0</ele><time>2026-04-19T11:52:59.981Z</time></trkpt><trkpt lat="45.08858784916773" lon="7.693334611364524"><ele>236.0</ele><time>2026-04-19T11:53:00.981Z</time></trkpt><trkpt lat="45.08871227676681" lon="7.693352233334614"><ele>236.0</ele><time>2026-04-19T11:53:01.981Z</time></trkpt><trkpt lat="45.088837214053044" lon="7.6933595576469544"><ele>236.0</ele><time>2026-04-19T11:53:02.981Z</time></trkpt><trkpt lat="45.08895897195481" lon="7.693363122601886"><ele>236.0</ele><time>2026-04-19T11:53:03.981Z</time></trkpt><trkpt lat="45.08907737173669" lon="7.693368514228802"><ele>236.0</ele><time>2026-04-19T11:53:04.981Z</time></trkpt><trkpt lat="45.08920656854361" lon="7.693379435730283"><ele>236.0</ele><time>2026-04-19T11:53:05.981Z</time></trkpt><trkpt lat="45.08933677103561" lon="7.69337659039209"><ele>236.4</ele><time>2026-04-19T11:53:06.981Z</time></trkpt><trkpt lat="45.08943862626158" lon="7.6933799135206025"><ele>236.8</ele><time>2026-04-19T11:53:07.981Z</time></trkpt><trkpt lat="45.08951107407762" lon="7.693390094212678"><ele>237.20000000000002</ele><time>2026-04-19T11:53:08.981Z</time></trkpt><trkpt lat="45.08959899052931" lon="7.693414326810133"><ele>237.60000000000002</ele><time>2026-04-19T11:53:10.981Z</time></trkpt><trkpt lat="45.08968454385462" lon="7.693410393510427"><ele>238.0</ele><time>2026-04-19T11:53:13.981Z</time></trkpt><trkpt lat="45.08978615704287" lon="7.693417164027199"><ele>237.99999999999997</ele><time>2026-04-19T11:53:15.981Z</time></trkpt><trkpt lat="45.08991592533102" lon="7.693429688045337"><ele>238.0</ele><time>2026-04-19T11:53:17.981Z</time></trkpt><trkpt lat="45.08998801344202" lon="7.693436548617395"><ele>238.0</ele><time>2026-04-19T11:53:18.981Z</time></trkpt><trkpt lat="45.090069875140394" lon="7.693449631672028"><ele>238.0</ele><time>2026-04-19T11:53:19.981Z</time></trkpt><trkpt lat="45.09015023757392" lon="7.693461302760296"><ele>237.99999999999997</ele><time>2026-04-19T11:53:20.981Z</time></trkpt><trkpt lat="45.09022226276718" lon="7.693471535354869"><ele>238.0</ele><time>2026-04-19T11:53:21.981Z</time></trkpt><trkpt lat="45.09030210664248" lon="7.693491398403905"><ele>238.0</ele><time>2026-04-19T11:53:22.981Z</time></trkpt><trkpt lat="45.09038612686482" lon="7.693478822790046"><ele>238.0</ele><time>2026-04-19T11:53:23.981Z</time></trkpt><trkpt lat="45.090491158308375" lon="7.693477150306283"><ele>238.0</ele><time>2026-04-19T11:53:24.981Z</time></trkpt><trkpt lat="45.09059104812248" lon="7.693479521241011"><ele>238.0</ele><time>2026-04-19T11:53:25.981Z</time></trkpt><trkpt lat="45.09067814539398" lon="7.693482572178473"><ele>238.0</ele><time>2026-04-19T11:53:26.981Z</time></trkpt><trkpt lat="45.090755271154514" lon="7.6934952435623805"><ele>237.99999999999997</ele><time>2026-04-19T11:53:27.981Z</time></trkpt><trkpt lat="45.090837354568784" lon="7.693501921948498"><ele>238.0</ele><time>2026-04-19T11:53:28.981Z</time></trkpt><trkpt lat="45.09092350906736" lon="7.693523537078591"><ele>238.0</ele><time>2026-04-19T11:53:29.981Z</time></trkpt><trkpt lat="45.09101068503743" lon="7.693511441045823"><ele>238.0</ele><time>2026-04-19T11:53:30.981Z</time></trkpt><trkpt lat="45.09109553973653" lon="7.693537085427099"><ele>237.99999999999997</ele><time>2026-04-19T11:53:31.981Z</time></trkpt><trkpt lat="45.09117483471618" lon="7.693542209658757"><ele>238.0</ele><time>2026-04-19T11:53:32.981Z</time></trkpt><trkpt lat="45.09125334028981" lon="7.693546352769289"><ele>238.0</ele><time>2026-04-19T11:53:33.981Z</time></trkpt><trkpt lat="45.09132225903044" lon="7.693549940115235"><ele>238.0</ele><time>2026-04-19T11:53:34.981Z</time></trkpt><trkpt lat="45.091409316573476" lon="7.693578864912019"><ele>238.0</ele><time>2026-04-19T11:53:36.981Z</time></trkpt><trkpt lat="45.09142979284482" lon="7.693854585168836"><ele>238.0</ele><time>2026-04-19T11:53:37.981Z</time></trkpt><trkpt lat="45.091513989922454" lon="7.693965890706662"><ele>237.83333333333331</ele><time>2026-04-19T11:53:39.981Z</time></trkpt><trkpt lat="45.091566059690564" lon="7.694042865844898"><ele>237.66666666666666</ele><time>2026-04-19T11:53:40.981Z</time></trkpt><trkpt lat="45.09162376659748" lon="7.694122502844214"><ele>237.5</ele><time>2026-04-19T11:53:41.981Z</time></trkpt><trkpt lat="45.09169588263969" lon="7.6941993199603065"><ele>237.33333333333331</ele><time>2026-04-19T11:53:42.981Z</time></trkpt><trkpt lat="45.09176386556577" lon="7.694288178249123"><ele>237.16666666666666</ele><time>2026-04-19T11:53:43.981Z</time></trkpt><trkpt lat="45.09185654025808" lon="7.6943514590495115"><ele>237.0</ele><time>2026-04-19T11:53:44.981Z</time></trkpt><trkpt lat="45.09193949941167" lon="7.694366687784118"><ele>237.5</ele><time>2026-04-19T11:53:45.981Z</time></trkpt><trkpt lat="45.092030979404846" lon="7.694364098738285"><ele>238.0</ele><time>2026-04-19T11:53:46.981Z</time></trkpt><trkpt lat="45.092181196245605" lon="7.694265314859468"><ele>238.5</ele><time>2026-04-19T11:53:47.981Z</time></trkpt><trkpt lat="45.092292441358694" lon="7.694241882841611"><ele>239.0</ele><time>2026-04-19T11:53:48.981Z</time></trkpt><trkpt lat="45.0925157027615" lon="7.694285232779362"><ele>239.0</ele><time>2026-04-19T11:53:50.981Z</time></trkpt><trkpt lat="45.09262955153978" lon="7.694307546059604"><ele>239.0</ele><time>2026-04-19T11:53:51.981Z</time></trkpt><trkpt lat="45.09276980252879" lon="7.6941912783070245"><ele>239.0</ele><time>2026-04-19T11:53:52.981Z</time></trkpt><trkpt lat="45.09285924557494" lon="7.694242305323683"><ele>239.0</ele><time>2026-04-19T11:53:53.981Z</time></trkpt><trkpt lat="45.09295424180426" lon="7.69429650039321"><ele>239.0</ele><time>2026-04-19T11:53:54.981Z</time></trkpt><trkpt lat="45.093057403535155" lon="7.694359462409563"><ele>239.0</ele><time>2026-04-19T11:53:55.981Z</time></trkpt><trkpt lat="45.093174173737296" lon="7.694433485382337"><ele>239.0</ele><time>2026-04-19T11:53:56.981Z</time></trkpt><trkpt lat="45.09331358547189" lon="7.694482535864813"><ele>239.0</ele><time>2026-04-19T11:53:57.981Z</time></trkpt><trkpt lat="45.0934258656659" lon="7.694572283917408"><ele>239.0</ele><time>2026-04-19T11:53:58.981Z</time></trkpt><trkpt lat="45.093556369437714" lon="7.694658548724581"><ele>239.0</ele><time>2026-04-19T11:53:59.977Z</time></trkpt><trkpt lat="45.09369171757105" lon="7.694748015890781"><ele>239.0</ele><time>2026-04-19T11:54:00.977Z</time></trkpt><trkpt lat="45.093824305493364" lon="7.694835659961664"><ele>239.0</ele><time>2026-04-19T11:54:01.977Z</time></trkpt><trkpt lat="45.09395817757579" lon="7.69492414985877"><ele>239.0</ele><time>2026-04-19T11:54:02.978Z</time></trkpt><trkpt lat="45.09409565295982" lon="7.695024970886598"><ele>239.0</ele><time>2026-04-19T11:54:03.977Z</time></trkpt><trkpt lat="45.093900506416354" lon="7.694897576158632"><ele>239.0</ele><time>2026-04-19T11:54:04.977Z</time></trkpt><trkpt lat="45.093966446986286" lon="7.694940514052575"><ele>239.0</ele><time>2026-04-19T11:54:05.978Z</time></trkpt><trkpt lat="45.09406598802228" lon="7.695016507551657"><ele>239.16666666666669</ele><time>2026-04-19T11:54:07.978Z</time></trkpt><trkpt lat="45.09414454089635" lon="7.695072318024237"><ele>239.33333333333334</ele><time>2026-04-19T11:54:09.977Z</time></trkpt><trkpt lat="45.094217966628904" lon="7.695129225857059"><ele>239.5</ele><time>2026-04-19T11:54:12.977Z</time></trkpt><trkpt lat="45.09428129647758" lon="7.6951566185444955"><ele>239.66666666666669</ele><time>2026-04-19T11:54:22.977Z</time></trkpt><trkpt lat="45.09439231104818" lon="7.695240673593325"><ele>239.83333333333334</ele><time>2026-04-19T11:54:24.977Z</time></trkpt><trkpt lat="45.09446656396173" lon="7.695288001919737"><ele>240.0</ele><time>2026-04-19T11:54:25.977Z</time></trkpt><trkpt lat="45.09454896049776" lon="7.695316460318571"><ele>239.75</ele><time>2026-04-19T11:54:26.977Z</time></trkpt><trkpt lat="45.09471301801765" lon="7.695440914895164"><ele>239.5</ele><time>2026-04-19T11:54:27.977Z</time></trkpt><trkpt lat="45.094788155137984" lon="7.695479573618883"><ele>239.25</ele><time>2026-04-19T11:54:28.977Z</time></trkpt><trkpt lat="45.094850421764136" lon="7.695532969063461"><ele>239.0</ele><time>2026-04-19T11:54:35.977Z</time></trkpt><trkpt lat="45.09499776592577" lon="7.69562026908339"><ele>239.0</ele><time>2026-04-19T11:54:37.977Z</time></trkpt><trkpt lat="45.09509325022503" lon="7.695667030469287"><ele>238.99999999999997</ele><time>2026-04-19T11:54:38.977Z</time></trkpt><trkpt lat="45.09518089898731" lon="7.695724699185917"><ele>238.99999999999997</ele><time>2026-04-19T11:54:39.977Z</time></trkpt><trkpt lat="45.095265407376154" lon="7.6957858639186805"><ele>239.0</ele><time>2026-04-19T11:54:40.977Z</time></trkpt><trkpt lat="45.09535702971186" lon="7.695835658839434"><ele>239.0</ele><time>2026-04-19T11:54:41.977Z</time></trkpt><trkpt lat="45.09546052928727" lon="7.695895745067083"><ele>239.0</ele><time>2026-04-19T11:54:42.978Z</time></trkpt><trkpt lat="45.09557640471116" lon="7.695964079816102"><ele>239.0</ele><time>2026-04-19T11:54:43.978Z</time></trkpt><trkpt lat="45.09568732751942" lon="7.696037555205531"><ele>239.0</ele><time>2026-04-19T11:54:44.978Z</time></trkpt><trkpt lat="45.09579030202" lon="7.696105830630977"><ele>239.0</ele><time>2026-04-19T11:54:45.978Z</time></trkpt><trkpt lat="45.09588070463943" lon="7.696160219941964"><ele>239.0</ele><time>2026-04-19T11:54:46.978Z</time></trkpt><trkpt lat="45.09596222942332" lon="7.696218871722855"><ele>238.99999999999997</ele><time>2026-04-19T11:54:47.978Z</time></trkpt><trkpt lat="45.09605388466791" lon="7.69626847234261"><ele>238.99999999999997</ele><time>2026-04-19T11:54:48.978Z</time></trkpt><trkpt lat="45.09614125193441" lon="7.696333645665671"><ele>239.0</ele><time>2026-04-19T11:54:49.978Z</time></trkpt><trkpt lat="45.096221399609654" lon="7.696413263867098"><ele>239.0</ele><time>2026-04-19T11:54:50.978Z</time></trkpt><trkpt lat="45.09628730280693" lon="7.696463023157358"><ele>239.0</ele><time>2026-04-19T11:54:51.978Z</time></trkpt><trkpt lat="45.09636143438756" lon="7.696485292194788"><ele>238.99999999999997</ele><time>2026-04-19T11:54:52.978Z</time></trkpt><trkpt lat="45.096430747038596" lon="7.696508544338269"><ele>238.99999999999997</ele><time>2026-04-19T11:54:53.978Z</time></trkpt><trkpt lat="45.09653236034658" lon="7.696565922681308"><ele>239.0</ele><time>2026-04-19T11:54:55.978Z</time></trkpt><trkpt lat="45.096601939360866" lon="7.696623591180023"><ele>239.0</ele><time>2026-04-19T11:54:57.978Z</time></trkpt><trkpt lat="45.096826615059655" lon="7.696790570856298"><ele>238.83333333333334</ele><time>2026-04-19T11:55:04.978Z</time></trkpt><trkpt lat="45.09691378233428" lon="7.6968257875594395"><ele>238.66666666666669</ele><time>2026-04-19T11:55:05.978Z</time></trkpt><trkpt lat="45.096970793541416" lon="7.696883963176226"><ele>238.5</ele><time>2026-04-19T11:55:06.978Z</time></trkpt><trkpt lat="45.09704925968208" lon="7.696924353110045"><ele>238.33333333333331</ele><time>2026-04-19T11:55:07.978Z</time></trkpt><trkpt lat="45.09712096458053" lon="7.696977780384593"><ele>238.16666666666666</ele><time>2026-04-19T11:55:08.978Z</time></trkpt><trkpt lat="45.09720009717569" lon="7.697007304032687"><ele>238.0</ele><time>2026-04-19T11:55:09.978Z</time></trkpt><trkpt lat="45.09727380214035" lon="7.697075135801891"><ele>237.60000000000002</ele><time>2026-04-19T11:55:10.978Z</time></trkpt><trkpt lat="45.09735496318811" lon="7.697150967944077"><ele>237.20000000000002</ele><time>2026-04-19T11:55:11.978Z</time></trkpt><trkpt lat="45.097419901203544" lon="7.69720111374523"><ele>236.8</ele><time>2026-04-19T11:55:12.978Z</time></trkpt><trkpt lat="45.09748036289024" lon="7.697256809243737"><ele>236.4</ele><time>2026-04-19T11:55:13.978Z</time></trkpt><trkpt lat="45.09758066629092" lon="7.697321954787921"><ele>236.0</ele><time>2026-04-19T11:55:15.978Z</time></trkpt><trkpt lat="45.09770147566044" lon="7.697415251404697"><ele>236.0</ele><time>2026-04-19T11:55:17.978Z</time></trkpt><trkpt lat="45.09775987351882" lon="7.697458010405523"><ele>236.00000000000003</ele><time>2026-04-19T11:55:18.978Z</time></trkpt><trkpt lat="45.09783553915606" lon="7.697523518860235"><ele>236.00000000000003</ele><time>2026-04-19T11:55:19.978Z</time></trkpt><trkpt lat="45.097957859729426" lon="7.697589005651234"><ele>236.0</ele><time>2026-04-19T11:55:21.978Z</time></trkpt><trkpt lat="45.098079415289156" lon="7.697653767157274"><ele>236.0</ele><time>2026-04-19T11:55:23.978Z</time></trkpt><trkpt lat="45.09818057389288" lon="7.697716297029457"><ele>236.16666666666669</ele><time>2026-04-19T11:55:25.978Z</time></trkpt><trkpt lat="45.0982563014381" lon="7.69775595950819"><ele>236.33333333333334</ele><time>2026-04-19T11:55:27.978Z</time></trkpt><trkpt lat="45.09834193706259" lon="7.697798627095504"><ele>236.5</ele><time>2026-04-19T11:56:21.974Z</time></trkpt><trkpt lat="45.09841028690021" lon="7.697831029691009"><ele>236.66666666666669</ele><time>2026-04-19T11:56:23.974Z</time></trkpt><trkpt lat="45.09852445468684" lon="7.697938394717613"><ele>236.83333333333334</ele><time>2026-04-19T11:56:25.974Z</time></trkpt><trkpt lat="45.09858632788257" lon="7.69798118555096"><ele>237.0</ele><time>2026-04-19T11:56:26.974Z</time></trkpt><trkpt lat="45.09864956529839" lon="7.698023758026892"><ele>237.0</ele><time>2026-04-19T11:56:27.974Z</time></trkpt><trkpt lat="45.09875299993724" lon="7.698083906431437"><ele>237.0</ele><time>2026-04-19T11:56:29.974Z</time></trkpt><trkpt lat="45.098817652892166" lon="7.698127638862544"><ele>237.0</ele><time>2026-04-19T11:56:30.974Z</time></trkpt><trkpt lat="45.09888128999217" lon="7.698175646753931"><ele>237.0</ele><time>2026-04-19T11:56:31.974Z</time></trkpt><trkpt lat="45.09895491781341" lon="7.698231545038271"><ele>237.0</ele><time>2026-04-19T11:56:32.974Z</time></trkpt><trkpt lat="45.09902062826277" lon="7.698286027487688"><ele>237.0</ele><time>2026-04-19T11:56:33.974Z</time></trkpt><trkpt lat="45.09908065915646" lon="7.698326635172248"><ele>236.83333333333334</ele><time>2026-04-19T11:56:34.974Z</time></trkpt><trkpt lat="45.09914593019588" lon="7.698359136532466"><ele>236.66666666666669</ele><time>2026-04-19T11:56:35.974Z</time></trkpt><trkpt lat="45.099216838949935" lon="7.698406426210927"><ele>236.5</ele><time>2026-04-19T11:56:36.974Z</time></trkpt><trkpt lat="45.099288860109326" lon="7.698475967184804"><ele>236.33333333333334</ele><time>2026-04-19T11:56:37.974Z</time></trkpt><trkpt lat="45.09937494347679" lon="7.6985301686658705"><ele>236.16666666666669</ele><time>2026-04-19T11:56:38.974Z</time></trkpt><trkpt lat="45.09946289224172" lon="7.698588517981987"><ele>236.0</ele><time>2026-04-19T11:56:39.974Z</time></trkpt><trkpt lat="45.099555558637" lon="7.69863452223017"><ele>235.83333333333334</ele><time>2026-04-19T11:56:40.974Z</time></trkpt><trkpt lat="45.09962871215336" lon="7.698699123550581"><ele>235.66666666666669</ele><time>2026-04-19T11:56:41.974Z</time></trkpt><trkpt lat="45.09972140176145" lon="7.698725874696061"><ele>235.5</ele><time>2026-04-19T11:56:42.974Z</time></trkpt><trkpt lat="45.099794502820245" lon="7.698764250398268"><ele>235.33333333333331</ele><time>2026-04-19T11:56:43.974Z</time></trkpt><trkpt lat="45.0998697849878" lon="7.698815976035484"><ele>235.16666666666666</ele><time>2026-04-19T11:56:44.974Z</time></trkpt><trkpt lat="45.09994236222007" lon="7.698869205093774"><ele>235.0</ele><time>2026-04-19T11:56:45.974Z</time></trkpt><trkpt lat="45.100016364426644" lon="7.698915003952968"><ele>235.0</ele><time>2026-04-19T11:56:46.974Z</time></trkpt><trkpt lat="45.10008524907102" lon="7.698958059193492"><ele>234.99999999999997</ele><time>2026-04-19T11:56:47.974Z</time></trkpt><trkpt lat="45.10014879226728" lon="7.698982901443058"><ele>235.0</ele><time>2026-04-19T11:56:48.974Z</time></trkpt><trkpt lat="45.10021125339511" lon="7.699025604183249"><ele>235.0</ele><time>2026-04-19T11:56:49.974Z</time></trkpt><trkpt lat="45.10028104114172" lon="7.699084596434131"><ele>234.99999999999997</ele><time>2026-04-19T11:56:50.974Z</time></trkpt><trkpt lat="45.1003473985607" lon="7.699142504898473"><ele>235.0</ele><time>2026-04-19T11:56:51.974Z</time></trkpt><trkpt lat="45.10041639999919" lon="7.69919029556144"><ele>235.0</ele><time>2026-04-19T11:56:52.974Z</time></trkpt><trkpt lat="45.10048412600379" lon="7.699236980649245"><ele>235.0</ele><time>2026-04-19T11:56:53.974Z</time></trkpt><trkpt lat="45.100550801805184" lon="7.699274541936192"><ele>234.99999999999997</ele><time>2026-04-19T11:56:54.974Z</time></trkpt><trkpt lat="45.10061685404132" lon="7.6993056057926355"><ele>235.0</ele><time>2026-04-19T11:56:55.974Z</time></trkpt><trkpt lat="45.10067379931426" lon="7.699354611080085"><ele>235.0</ele><time>2026-04-19T11:56:56.974Z</time></trkpt><trkpt lat="45.100739781530976" lon="7.69940248937531"><ele>234.99999999999997</ele><time>2026-04-19T11:56:57.974Z</time></trkpt><trkpt lat="45.10080797216474" lon="7.699449513861058"><ele>235.0</ele><time>2026-04-19T11:56:58.974Z</time></trkpt><trkpt lat="45.10088350085135" lon="7.699506987600974"><ele>235.0</ele><time>2026-04-19T11:56:59.974Z</time></trkpt><trkpt lat="45.10096308121025" lon="7.699561208698637"><ele>234.99999999999997</ele><time>2026-04-19T11:57:00.974Z</time></trkpt><trkpt lat="45.10102967377432" lon="7.699613623024149"><ele>235.0</ele><time>2026-04-19T11:57:01.974Z</time></trkpt><trkpt lat="45.10110571808058" lon="7.699682862005042"><ele>235.0</ele><time>2026-04-19T11:57:02.974Z</time></trkpt><trkpt lat="45.10118260176427" lon="7.69974089787321"><ele>235.0</ele><time>2026-04-19T11:57:03.974Z</time></trkpt><trkpt lat="45.10124903181422" lon="7.699798462541227"><ele>234.99999999999997</ele><time>2026-04-19T11:57:04.974Z</time></trkpt><trkpt lat="45.10130624022643" lon="7.699845691236705"><ele>235.0</ele><time>2026-04-19T11:57:05.974Z</time></trkpt><trkpt lat="45.101414985355746" lon="7.699904977521467"><ele>234.99999999999997</ele><time>2026-04-19T11:57:07.974Z</time></trkpt><trkpt lat="45.101471819094094" lon="7.699945303722679"><ele>235.0</ele><time>2026-04-19T11:57:08.974Z</time></trkpt><trkpt lat="45.10153053922384" lon="7.699991432107884"><ele>235.0</ele><time>2026-04-19T11:57:09.974Z</time></trkpt><trkpt lat="45.10159141124982" lon="7.700040281831164"><ele>235.0</ele><time>2026-04-19T11:57:10.974Z</time></trkpt><trkpt lat="45.10166525325181" lon="7.700081142829279"><ele>234.99999999999997</ele><time>2026-04-19T11:57:11.974Z</time></trkpt><trkpt lat="45.10173393205591" lon="7.70011748550827"><ele>235.0</ele><time>2026-04-19T11:57:12.974Z</time></trkpt><trkpt lat="45.10183661134534" lon="7.700222176384211"><ele>235.2</ele><time>2026-04-19T11:57:14.974Z</time></trkpt><trkpt lat="45.10188331342542" lon="7.70030400883214"><ele>235.4</ele><time>2026-04-19T11:57:15.974Z</time></trkpt><trkpt lat="45.10201185371583" lon="7.700325576963975"><ele>235.60000000000002</ele><time>2026-04-19T11:57:16.975Z</time></trkpt><trkpt lat="45.10197301336982" lon="7.700490632940653"><ele>235.8</ele><time>2026-04-19T11:57:17.975Z</time></trkpt><trkpt lat="45.102019350743966" lon="7.700574602916608"><ele>236.0</ele><time>2026-04-19T11:57:18.975Z</time></trkpt><trkpt lat="45.102081415233705" lon="7.700627245884356"><ele>236.00000000000003</ele><time>2026-04-19T11:57:19.975Z</time></trkpt><trkpt lat="45.10216544723696" lon="7.70067194026153"><ele>236.0</ele><time>2026-04-19T11:57:20.975Z</time></trkpt><trkpt lat="45.102253892304844" lon="7.70068146308104"><ele>236.0</ele><time>2026-04-19T11:57:21.975Z</time></trkpt><trkpt lat="45.10234514725656" lon="7.700666794994233"><ele>236.0</ele><time>2026-04-19T11:57:22.975Z</time></trkpt><trkpt lat="45.10241884875573" lon="7.700616813838702"><ele>236.00000000000003</ele><time>2026-04-19T11:57:23.975Z</time></trkpt><trkpt lat="45.10247107710816" lon="7.700534780956598"><ele>236.0</ele><time>2026-04-19T11:57:24.975Z</time></trkpt><trkpt lat="45.10250601079219" lon="7.700430634196035"><ele>235.50000000000003</ele><time>2026-04-19T11:57:25.975Z</time></trkpt><trkpt lat="45.102523091996154" lon="7.700326869641659"><ele>235.0</ele><time>2026-04-19T11:57:26.975Z</time></trkpt><trkpt lat="45.10251782908248" lon="7.70022414248384"><ele>234.5</ele><time>2026-04-19T11:57:27.975Z</time></trkpt><trkpt lat="45.102498332180296" lon="7.700124033724093"><ele>234.0</ele><time>2026-04-19T11:57:28.975Z</time></trkpt><trkpt lat="45.10247523172696" lon="7.700013518343808"><ele>233.50000000000003</ele><time>2026-04-19T11:57:29.975Z</time></trkpt><trkpt lat="45.102461349950076" lon="7.6998998461795845"><ele>233.0</ele><time>2026-04-19T11:57:30.975Z</time></trkpt><trkpt lat="45.10246095303831" lon="7.6998012088130166"><ele>233.0</ele><time>2026-04-19T11:57:31.975Z</time></trkpt><trkpt lat="45.1024829378813" lon="7.699702325155676"><ele>233.0</ele><time>2026-04-19T11:57:32.975Z</time></trkpt><trkpt lat="45.10251897861529" lon="7.69959129762981"><ele>233.0</ele><time>2026-04-19T11:57:33.975Z</time></trkpt><trkpt lat="45.10254947942286" lon="7.6994512192369875"><ele>233.0</ele><time>2026-04-19T11:57:34.975Z</time></trkpt><trkpt lat="45.102593940835575" lon="7.699297919295008"><ele>233.0</ele><time>2026-04-19T11:57:35.975Z</time></trkpt><trkpt lat="45.10263260766227" lon="7.699129862997349"><ele>233.25</ele><time>2026-04-19T11:57:36.975Z</time></trkpt><trkpt lat="45.10266753754687" lon="7.698972652735455"><ele>233.5</ele><time>2026-04-19T11:57:37.975Z</time></trkpt><trkpt lat="45.102714428901265" lon="7.698809426688424"><ele>233.75</ele><time>2026-04-19T11:57:38.975Z</time></trkpt><trkpt lat="45.10275610329254" lon="7.69863481977216"><ele>234.0</ele><time>2026-04-19T11:57:39.975Z</time></trkpt><trkpt lat="45.10279444681232" lon="7.69845977787823"><ele>234.5</ele><time>2026-04-19T11:57:40.975Z</time></trkpt><trkpt lat="45.102838559616316" lon="7.698288614602908"><ele>235.0</ele><time>2026-04-19T11:57:41.975Z</time></trkpt><trkpt lat="45.10287853476845" lon="7.698117729770886"><ele>235.5</ele><time>2026-04-19T11:57:42.975Z</time></trkpt><trkpt lat="45.10293141110788" lon="7.697950418855192"><ele>236.0</ele><time>2026-04-19T11:57:43.975Z</time></trkpt><trkpt lat="45.10298801389414" lon="7.697782955239641"><ele>236.0</ele><time>2026-04-19T11:57:44.975Z</time></trkpt><trkpt lat="45.103020444731385" lon="7.697637255468607"><ele>236.00000000000003</ele><time>2026-04-19T11:57:45.975Z</time></trkpt><trkpt lat="45.10304208307811" lon="7.697498248227419"><ele>236.00000000000003</ele><time>2026-04-19T11:57:46.975Z</time></trkpt><trkpt lat="45.103088058884914" lon="7.69739068097764"><ele>236.0</ele><time>2026-04-19T11:57:47.975Z</time></trkpt><trkpt lat="45.10312678963675" lon="7.6972835108601085"><ele>236.0</ele><time>2026-04-19T11:57:48.975Z</time></trkpt><trkpt lat="45.10317287753864" lon="7.697200050525776"><ele>236.00000000000003</ele><time>2026-04-19T11:57:49.975Z</time></trkpt><trkpt lat="45.10320771719818" lon="7.69711899166877"><ele>236.0</ele><time>2026-04-19T11:57:50.975Z</time></trkpt><trkpt lat="45.10325007611324" lon="7.696973837958862"><ele>236.0</ele><time>2026-04-19T11:57:52.975Z</time></trkpt><trkpt lat="45.10328081982966" lon="7.6968253938476705"><ele>236.0</ele><time>2026-04-19T11:57:54.975Z</time></trkpt><trkpt lat="45.10329527948119" lon="7.696735860261837"><ele>236.00000000000003</ele><time>2026-04-19T11:57:55.975Z</time></trkpt><trkpt lat="45.10331941398631" lon="7.696645277014723"><ele>236.0</ele><time>2026-04-19T11:57:56.975Z</time></trkpt><trkpt lat="45.10334183120613" lon="7.696548578365841"><ele>235.66666666666669</ele><time>2026-04-19T11:57:57.975Z</time></trkpt><trkpt lat="45.103362055025165" lon="7.696446818015398"><ele>235.33333333333334</ele><time>2026-04-19T11:57:58.975Z</time></trkpt><trkpt lat="45.103386772686584" lon="7.696340275948312"><ele>235.0</ele><time>2026-04-19T11:57:59.975Z</time></trkpt><trkpt lat="45.10339606734908" lon="7.696236283816508"><ele>234.66666666666669</ele><time>2026-04-19T11:58:00.975Z</time></trkpt><trkpt lat="45.10343175390865" lon="7.69612382911855"><ele>234.33333333333334</ele><time>2026-04-19T11:58:01.975Z</time></trkpt><trkpt lat="45.10347256930312" lon="7.696005545198663"><ele>234.0</ele><time>2026-04-19T11:58:02.975Z</time></trkpt><trkpt lat="45.103507616699446" lon="7.695876583845535"><ele>234.0</ele><time>2026-04-19T11:58:03.975Z</time></trkpt><trkpt lat="45.10353688115729" lon="7.695738797088684"><ele>233.99999999999997</ele><time>2026-04-19T11:58:04.975Z</time></trkpt><trkpt lat="45.10355837736889" lon="7.695602261384734"><ele>233.99999999999997</ele><time>2026-04-19T11:58:05.975Z</time></trkpt><trkpt lat="45.103576892706876" lon="7.6954648777531816"><ele>234.0</ele><time>2026-04-19T11:58:06.975Z</time></trkpt><trkpt lat="45.103588868983486" lon="7.695328901107246"><ele>234.0</ele><time>2026-04-19T11:58:07.975Z</time></trkpt><trkpt lat="45.10359619117172" lon="7.695191557416163"><ele>234.0</ele><time>2026-04-19T11:58:08.975Z</time></trkpt><trkpt lat="45.10360354663648" lon="7.695056320358743"><ele>233.99999999999997</ele><time>2026-04-19T11:58:09.975Z</time></trkpt><trkpt lat="45.10360914758293" lon="7.6949224715349125"><ele>233.99999999999997</ele><time>2026-04-19T11:58:10.975Z</time></trkpt><trkpt lat="45.103612375016446" lon="7.694790471748393"><ele>234.0</ele><time>2026-04-19T11:58:11.972Z</time></trkpt><trkpt lat="45.10361860192389" lon="7.694659122887578"><ele>234.0</ele><time>2026-04-19T11:58:12.972Z</time></trkpt><trkpt lat="45.10363384089129" lon="7.69452944961175"><ele>234.2</ele><time>2026-04-19T11:58:13.972Z</time></trkpt><trkpt lat="45.10365291613213" lon="7.694393399867144"><ele>234.39999999999998</ele><time>2026-04-19T11:58:14.972Z</time></trkpt><trkpt lat="45.10367023070557" lon="7.694250897402915"><ele>234.6</ele><time>2026-04-19T11:58:15.972Z</time></trkpt><trkpt lat="45.10368872186122" lon="7.6941056167447455"><ele>234.8</ele><time>2026-04-19T11:58:16.972Z</time></trkpt><trkpt lat="45.103708140127296" lon="7.693960556540531"><ele>235.0</ele><time>2026-04-19T11:58:17.971Z</time></trkpt><trkpt lat="45.10370792878356" lon="7.6938196118503175"><ele>234.99999999999997</ele><time>2026-04-19T11:58:18.972Z</time></trkpt><trkpt lat="45.103714438902536" lon="7.693686375432904"><ele>235.0</ele><time>2026-04-19T11:58:19.972Z</time></trkpt><trkpt lat="45.10373537504352" lon="7.693564692062191"><ele>235.0</ele><time>2026-04-19T11:58:20.972Z</time></trkpt><trkpt lat="45.10373181722386" lon="7.6934490374000735"><ele>235.0</ele><time>2026-04-19T11:58:21.972Z</time></trkpt><trkpt lat="45.103753213081596" lon="7.693348514603817"><ele>234.99999999999997</ele><time>2026-04-19T11:58:22.972Z</time></trkpt><trkpt lat="45.10378763009021" lon="7.693263291861428"><ele>235.0</ele><time>2026-04-19T11:58:23.972Z</time></trkpt><trkpt lat="45.10383215124847" lon="7.693187557731823"><ele>234.99999999999997</ele><time>2026-04-19T11:58:24.971Z</time></trkpt><trkpt lat="45.103885663220076" lon="7.693116383497866"><ele>235.0</ele><time>2026-04-19T11:58:25.971Z</time></trkpt><trkpt lat="45.10394253547116" lon="7.693053481663403"><ele>235.0</ele><time>2026-04-19T11:58:26.971Z</time></trkpt><trkpt lat="45.104009269019464" lon="7.693006972357961"><ele>235.0</ele><time>2026-04-19T11:58:27.971Z</time></trkpt><trkpt lat="45.10408232193369" lon="7.6929847008813015"><ele>234.99999999999997</ele><time>2026-04-19T11:58:28.971Z</time></trkpt><trkpt lat="45.1041599112546" lon="7.6929603521769385"><ele>235.0</ele><time>2026-04-19T11:58:29.971Z</time></trkpt><trkpt lat="45.10424373336694" lon="7.692976357552487"><ele>235.0</ele><time>2026-04-19T11:58:30.971Z</time></trkpt><trkpt lat="45.104320756440764" lon="7.6930168695607986"><ele>235.0</ele><time>2026-04-19T11:58:31.971Z</time></trkpt><trkpt lat="45.104401824158565" lon="7.693064581317431"><ele>235.0</ele><time>2026-04-19T11:58:32.971Z</time></trkpt><trkpt lat="45.104495606564605" lon="7.693120890557519"><ele>235.0</ele><time>2026-04-19T11:58:33.971Z</time></trkpt><trkpt lat="45.104591500500455" lon="7.693177159639444"><ele>235.0</ele><time>2026-04-19T11:58:34.971Z</time></trkpt><trkpt lat="45.10469268501371" lon="7.693241168719023"><ele>235.0</ele><time>2026-04-19T11:58:35.971Z</time></trkpt><trkpt lat="45.1047997196748" lon="7.693290610730056"><ele>235.0</ele><time>2026-04-19T11:58:36.971Z</time></trkpt><trkpt lat="45.104891733275664" lon="7.693309722587475"><ele>235.0</ele><time>2026-04-19T11:58:37.971Z</time></trkpt><trkpt lat="45.10498711670869" lon="7.693281709288992"><ele>235.0</ele><time>2026-04-19T11:58:38.971Z</time></trkpt><trkpt lat="45.10508297699186" lon="7.693230684239927"><ele>235.0</ele><time>2026-04-19T11:58:39.971Z</time></trkpt><trkpt lat="45.10517986487397" lon="7.6931659437677835"><ele>234.4</ele><time>2026-04-19T11:58:40.971Z</time></trkpt><trkpt lat="45.10528264747629" lon="7.693109086588542"><ele>233.8</ele><time>2026-04-19T11:58:41.971Z</time></trkpt><trkpt lat="45.10538302307496" lon="7.693062639555207"><ele>233.2</ele><time>2026-04-19T11:58:42.971Z</time></trkpt><trkpt lat="45.10548556169528" lon="7.693046616737242"><ele>232.6</ele><time>2026-04-19T11:58:43.971Z</time></trkpt><trkpt lat="45.10558731804196" lon="7.693060821367158"><ele>232.0</ele><time>2026-04-19T11:58:44.971Z</time></trkpt><trkpt lat="45.10569018703032" lon="7.693113173623523"><ele>231.75</ele><time>2026-04-19T11:58:45.971Z</time></trkpt><trkpt lat="45.10578924524649" lon="7.693194304522848"><ele>231.5</ele><time>2026-04-19T11:58:46.971Z</time></trkpt><trkpt lat="45.105887583967515" lon="7.693298937753342"><ele>231.25</ele><time>2026-04-19T11:58:47.971Z</time></trkpt><trkpt lat="45.10599985701139" lon="7.69340907973573"><ele>231.0</ele><time>2026-04-19T11:58:48.971Z</time></trkpt><trkpt lat="45.10611461217034" lon="7.693524466132764"><ele>230.5</ele><time>2026-04-19T11:58:49.971Z</time></trkpt><trkpt lat="45.106218241701875" lon="7.693633980360726"><ele>230.0</ele><time>2026-04-19T11:58:50.971Z</time></trkpt><trkpt lat="45.10632003910353" lon="7.693727505479418"><ele>229.5</ele><time>2026-04-19T11:58:51.971Z</time></trkpt><trkpt lat="45.106419256678045" lon="7.693825032914243"><ele>229.0</ele><time>2026-04-19T11:58:52.971Z</time></trkpt><trkpt lat="45.10651350905545" lon="7.693927720292958"><ele>229.0</ele><time>2026-04-19T11:58:53.971Z</time></trkpt><trkpt lat="45.106611746310136" lon="7.694022912609066"><ele>229.0</ele><time>2026-04-19T11:58:54.971Z</time></trkpt><trkpt lat="45.106714657005696" lon="7.694111723974726"><ele>229.0</ele><time>2026-04-19T11:58:55.971Z</time></trkpt><trkpt lat="45.106825276803455" lon="7.694199744384001"><ele>229.0</ele><time>2026-04-19T11:58:56.971Z</time></trkpt><trkpt lat="45.10694194082093" lon="7.694294384433035"><ele>229.0</ele><time>2026-04-19T11:58:57.971Z</time></trkpt><trkpt lat="45.10705093847772" lon="7.694389782319548"><ele>229.0</ele><time>2026-04-19T11:58:58.971Z</time></trkpt><trkpt lat="45.10715918473155" lon="7.694507535491145"><ele>229.0</ele><time>2026-04-19T11:58:59.971Z</time></trkpt><trkpt lat="45.107300683180796" lon="7.694628427139808"><ele>229.0</ele><time>2026-04-19T11:59:00.971Z</time></trkpt><trkpt lat="45.10747079532645" lon="7.69473206088038"><ele>228.66666666666666</ele><time>2026-04-19T11:59:01.971Z</time></trkpt><trkpt lat="45.10763172260039" lon="7.694832047060618"><ele>228.33333333333331</ele><time>2026-04-19T11:59:02.971Z</time></trkpt><trkpt lat="45.10778321339508" lon="7.6949339454939185"><ele>228.0</ele><time>2026-04-19T11:59:03.971Z</time></trkpt><trkpt lat="45.107938579300686" lon="7.6950350443944"><ele>228.0</ele><time>2026-04-19T11:59:04.971Z</time></trkpt><trkpt lat="45.10809499043003" lon="7.695138887509483"><ele>228.0</ele><time>2026-04-19T11:59:05.971Z</time></trkpt><trkpt lat="45.10825295752075" lon="7.695241161860935"><ele>228.0</ele><time>2026-04-19T11:59:06.971Z</time></trkpt><trkpt lat="45.10840920838105" lon="7.6953399293658205"><ele>227.66666666666669</ele><time>2026-04-19T11:59:07.971Z</time></trkpt><trkpt lat="45.10857046628922" lon="7.6954265692565045"><ele>227.33333333333334</ele><time>2026-04-19T11:59:08.971Z</time></trkpt><trkpt lat="45.108735780530296" lon="7.695508452868237"><ele>227.0</ele><time>2026-04-19T11:59:09.971Z</time></trkpt><trkpt lat="45.108900932995816" lon="7.695594327516218"><ele>227.0</ele><time>2026-04-19T11:59:10.971Z</time></trkpt><trkpt lat="45.10907344260897" lon="7.695674906596112"><ele>227.0</ele><time>2026-04-19T11:59:11.971Z</time></trkpt><trkpt lat="45.10924931790323" lon="7.695751839200159"><ele>227.0</ele><time>2026-04-19T11:59:12.971Z</time></trkpt><trkpt lat="45.10943070320943" lon="7.695813539061732"><ele>227.0</ele><time>2026-04-19T11:59:13.971Z</time></trkpt><trkpt lat="45.10960606685838" lon="7.69586449850202"><ele>227.0</ele><time>2026-04-19T11:59:14.971Z</time></trkpt><trkpt lat="45.109771741856015" lon="7.695906646703632"><ele>227.0</ele><time>2026-04-19T11:59:15.971Z</time></trkpt><trkpt lat="45.1099357137515" lon="7.695943056379943"><ele>227.0</ele><time>2026-04-19T11:59:16.971Z</time></trkpt><trkpt lat="45.1101026504864" lon="7.69597876054819"><ele>227.0</ele><time>2026-04-19T11:59:17.971Z</time></trkpt><trkpt lat="45.11026610689708" lon="7.6960155941519375"><ele>227.0</ele><time>2026-04-19T11:59:18.971Z</time></trkpt><trkpt lat="45.110430342617164" lon="7.696045695105683"><ele>227.0</ele><time>2026-04-19T11:59:19.971Z</time></trkpt><trkpt lat="45.11059718807768" lon="7.696061657047426"><ele>227.0</ele><time>2026-04-19T11:59:20.972Z</time></trkpt><trkpt lat="45.110764500466374" lon="7.696072499084835"><ele>227.0</ele><time>2026-04-19T11:59:21.972Z</time></trkpt><trkpt lat="45.110935715630895" lon="7.696075730178849"><ele>228.66666666666669</ele><time>2026-04-19T11:59:22.972Z</time></trkpt><trkpt lat="45.111107477086385" lon="7.696074950136892"><ele>230.33333333333331</ele><time>2026-04-19T11:59:23.972Z</time></trkpt><trkpt lat="45.11128075393416" lon="7.696072014419374"><ele>232.0</ele><time>2026-04-19T11:59:24.972Z</time></trkpt><trkpt lat="45.11145529157856" lon="7.69606328448378"><ele>230.33333333333331</ele><time>2026-04-19T11:59:25.972Z</time></trkpt><trkpt lat="45.1116305607355" lon="7.696048434518254"><ele>228.66666666666669</ele><time>2026-04-19T11:59:26.972Z</time></trkpt><trkpt lat="45.11180501489779" lon="7.696025688304843"><ele>227.0</ele><time>2026-04-19T11:59:27.972Z</time></trkpt><trkpt lat="45.11197925052974" lon="7.695998350137683"><ele>227.0</ele><time>2026-04-19T11:59:28.972Z</time></trkpt><trkpt lat="45.112157152540775" lon="7.695967258919549"><ele>227.0</ele><time>2026-04-19T11:59:29.972Z</time></trkpt><trkpt lat="45.112333821409116" lon="7.695934171861744"><ele>227.0</ele><time>2026-04-19T11:59:30.972Z</time></trkpt><trkpt lat="45.11250589684751" lon="7.695895084146667"><ele>226.0</ele><time>2026-04-19T11:59:31.972Z</time></trkpt><trkpt lat="45.1126754935503" lon="7.695861164112709"><ele>225.0</ele><time>2026-04-19T11:59:32.972Z</time></trkpt><trkpt lat="45.11284798386413" lon="7.695831533457033"><ele>224.0</ele><time>2026-04-19T11:59:33.972Z</time></trkpt><trkpt lat="45.1130207693418" lon="7.695802127119668"><ele>224.0</ele><time>2026-04-19T11:59:34.972Z</time></trkpt><trkpt lat="45.11319610296252" lon="7.695772413142725"><ele>224.0</ele><time>2026-04-19T11:59:35.972Z</time></trkpt><trkpt lat="45.11337169159084" lon="7.6957358150948085"><ele>224.0</ele><time>2026-04-19T11:59:36.972Z</time></trkpt><trkpt lat="45.11354738828" lon="7.695700674771721"><ele>222.66666666666669</ele><time>2026-04-19T11:59:37.972Z</time></trkpt><trkpt lat="45.11372515377204" lon="7.695665308333765"><ele>221.33333333333331</ele><time>2026-04-19T11:59:38.972Z</time></trkpt><trkpt lat="45.11390280324023" lon="7.6956297502720155"><ele>220.0</ele><time>2026-04-19T11:59:39.972Z</time></trkpt><trkpt lat="45.11407780902947" lon="7.695594194409406"><ele>218.33333333333331</ele><time>2026-04-19T11:59:40.972Z</time></trkpt><trkpt lat="45.114252280662036" lon="7.695561030872437"><ele>216.66666666666669</ele><time>2026-04-19T11:59:41.972Z</time></trkpt><trkpt lat="45.114428996149215" lon="7.695527161740718"><ele>215.0</ele><time>2026-04-19T11:59:42.972Z</time></trkpt><trkpt lat="45.11460523824097" lon="7.695489733322467"><ele>215.0</ele><time>2026-04-19T11:59:43.972Z</time></trkpt><trkpt lat="45.114781021104015" lon="7.695451416027556"><ele>215.0</ele><time>2026-04-19T11:59:44.972Z</time></trkpt><trkpt lat="45.11495948307739" lon="7.6954227465310945"><ele>215.0</ele><time>2026-04-19T11:59:45.972Z</time></trkpt><trkpt lat="45.115142321111485" lon="7.695388481853986"><ele>217.66666666666669</ele><time>2026-04-19T11:59:46.972Z</time></trkpt><trkpt lat="45.115323332107586" lon="7.695351820001047"><ele>220.33333333333331</ele><time>2026-04-19T11:59:47.972Z</time></trkpt><trkpt lat="45.11550558203046" lon="7.695318431227755"><ele>223.0</ele><time>2026-04-19T11:59:48.972Z</time></trkpt><trkpt lat="45.115687223924226" lon="7.695282349181743"><ele>224.33333333333331</ele><time>2026-04-19T11:59:49.972Z</time></trkpt><trkpt lat="45.11587059137644" lon="7.695253054307602"><ele>225.66666666666669</ele><time>2026-04-19T11:59:50.972Z</time></trkpt><trkpt lat="45.11605482227435" lon="7.695229619673466"><ele>227.0</ele><time>2026-04-19T11:59:51.972Z</time></trkpt><trkpt lat="45.11623802897975" lon="7.695207164835789"><ele>227.0</ele><time>2026-04-19T11:59:52.972Z</time></trkpt><trkpt lat="45.116414299759604" lon="7.695187539406312"><ele>227.0</ele><time>2026-04-19T11:59:53.972Z</time></trkpt><trkpt lat="45.1165911749854" lon="7.695167352489052"><ele>227.0</ele><time>2026-04-19T11:59:54.972Z</time></trkpt><trkpt lat="45.11676899909583" lon="7.695150617944874"><ele>227.0</ele><time>2026-04-19T11:59:55.972Z</time></trkpt><trkpt lat="45.116946145091745" lon="7.695138754397786"><ele>227.0</ele><time>2026-04-19T11:59:56.972Z</time></trkpt><trkpt lat="45.11712666473991" lon="7.695127107770151"><ele>227.0</ele><time>2026-04-19T11:59:57.972Z</time></trkpt><trkpt lat="45.11731068382036" lon="7.695119094817112"><ele>225.66666666666669</ele><time>2026-04-19T11:59:58.972Z</time></trkpt><trkpt lat="45.11749553201804" lon="7.695116368307091"><ele>224.33333333333331</ele><time>2026-04-19T11:59:59.972Z</time></trkpt><trkpt lat="45.11768446983052" lon="7.695118356764821"><ele>223.0</ele><time>2026-04-19T12:00:00.972Z</time></trkpt><trkpt lat="45.11787453577696" lon="7.695116859122413"><ele>223.0</ele><time>2026-04-19T12:00:01.972Z</time></trkpt><trkpt lat="45.11806437896624" lon="7.695116333580475"><ele>223.0</ele><time>2026-04-19T12:00:02.972Z</time></trkpt><trkpt lat="45.11824883621118" lon="7.695117152114342"><ele>223.0</ele><time>2026-04-19T12:00:03.972Z</time></trkpt><trkpt lat="45.11843311579375" lon="7.6951290960237175"><ele>222.33333333333331</ele><time>2026-04-19T12:00:04.972Z</time></trkpt><trkpt lat="45.11862041799811" lon="7.69513665059111"><ele>221.66666666666669</ele><time>2026-04-19T12:00:05.972Z</time></trkpt><trkpt lat="45.11880574231347" lon="7.695148847744676"><ele>221.0</ele><time>2026-04-19T12:00:06.972Z</time></trkpt><trkpt lat="45.118990797045036" lon="7.6951635365822"><ele>222.0</ele><time>2026-04-19T12:00:07.972Z</time></trkpt><trkpt lat="45.119175340123" lon="7.695181559007454"><ele>223.0</ele><time>2026-04-19T12:00:08.972Z</time></trkpt><trkpt lat="45.11936209172847" lon="7.695199370560712"><ele>224.0</ele><time>2026-04-19T12:00:09.972Z</time></trkpt><trkpt lat="45.119546991295465" lon="7.69522206318434"><ele>224.0</ele><time>2026-04-19T12:00:10.972Z</time></trkpt><trkpt lat="45.119730792324724" lon="7.695249000596556"><ele>224.0</ele><time>2026-04-19T12:00:11.972Z</time></trkpt><trkpt lat="45.11991576691465" lon="7.695283117727868"><ele>224.0</ele><time>2026-04-19T12:00:12.972Z</time></trkpt><trkpt lat="45.120101535016694" lon="7.695324533973621"><ele>224.33333333333334</ele><time>2026-04-19T12:00:13.972Z</time></trkpt><trkpt lat="45.12028876072733" lon="7.695366259861074"><ele>224.66666666666669</ele><time>2026-04-19T12:00:14.972Z</time></trkpt><trkpt lat="45.12047774293764" lon="7.69540876379181"><ele>225.0</ele><time>2026-04-19T12:00:15.972Z</time></trkpt><trkpt lat="45.120666350851785" lon="7.695452351466621"><ele>225.33333333333331</ele><time>2026-04-19T12:00:16.972Z</time></trkpt><trkpt lat="45.12085430269312" lon="7.69549491024059"><ele>225.66666666666666</ele><time>2026-04-19T12:00:17.969Z</time></trkpt><trkpt lat="45.121042517298434" lon="7.695539722297479"><ele>226.0</ele><time>2026-04-19T12:00:18.968Z</time></trkpt><trkpt lat="45.12122970218087" lon="7.695583635060411"><ele>226.0</ele><time>2026-04-19T12:00:19.968Z</time></trkpt><trkpt lat="45.12141660720451" lon="7.69562537099339"><ele>226.0</ele><time>2026-04-19T12:00:20.968Z</time></trkpt><trkpt lat="45.12159946560864" lon="7.695665784867513"><ele>226.0</ele><time>2026-04-19T12:00:21.968Z</time></trkpt><trkpt lat="45.12178105599855" lon="7.695707306802244"><ele>226.33333333333331</ele><time>2026-04-19T12:00:22.968Z</time></trkpt><trkpt lat="45.1219651367142" lon="7.695749650827616"><ele>226.66666666666669</ele><time>2026-04-19T12:00:23.969Z</time></trkpt><trkpt lat="45.12214795978038" lon="7.695788889502384"><ele>227.0</ele><time>2026-04-19T12:00:24.968Z</time></trkpt><trkpt lat="45.12233245654094" lon="7.6958280967262"><ele>227.66666666666669</ele><time>2026-04-19T12:00:25.968Z</time></trkpt><trkpt lat="45.12251887407443" lon="7.69586032660174"><ele>228.33333333333331</ele><time>2026-04-19T12:00:26.968Z</time></trkpt><trkpt lat="45.12270719496386" lon="7.695884848076454"><ele>229.0</ele><time>2026-04-19T12:00:27.968Z</time></trkpt><trkpt lat="45.12289678246895" lon="7.69590592920798"><ele>229.0</ele><time>2026-04-19T12:00:28.968Z</time></trkpt><trkpt lat="45.12308707219372" lon="7.695926124796473"><ele>229.0</ele><time>2026-04-19T12:00:29.969Z</time></trkpt><trkpt lat="45.12328171248991" lon="7.695946842083584"><ele>229.0</ele><time>2026-04-19T12:00:30.968Z</time></trkpt><trkpt lat="45.123473929335404" lon="7.695962831588485"><ele>228.33333333333331</ele><time>2026-04-19T12:00:31.968Z</time></trkpt><trkpt lat="45.12366460768183" lon="7.695974488230391"><ele>227.66666666666669</ele><time>2026-04-19T12:00:32.968Z</time></trkpt><trkpt lat="45.12385027570764" lon="7.695979466636181"><ele>227.0</ele><time>2026-04-19T12:00:33.968Z</time></trkpt><trkpt lat="45.124033674839076" lon="7.695985512231065"><ele>227.0</ele><time>2026-04-19T12:00:34.968Z</time></trkpt><trkpt lat="45.12421845566378" lon="7.695991835397809"><ele>227.0</ele><time>2026-04-19T12:00:35.968Z</time></trkpt><trkpt lat="45.12440210732448" lon="7.6959944133154385"><ele>227.0</ele><time>2026-04-19T12:00:36.968Z</time></trkpt><trkpt lat="45.12458760699059" lon="7.695989920209279"><ele>227.0</ele><time>2026-04-19T12:00:37.968Z</time></trkpt><trkpt lat="45.12477451443991" lon="7.695981415669812"><ele>227.0</ele><time>2026-04-19T12:00:38.968Z</time></trkpt><trkpt lat="45.12496251934213" lon="7.695967960759028"><ele>227.0</ele><time>2026-04-19T12:00:39.968Z</time></trkpt><trkpt lat="45.12515115531575" lon="7.695948879281353"><ele>227.66666666666669</ele><time>2026-04-19T12:00:40.968Z</time></trkpt><trkpt lat="45.12534237974876" lon="7.6959321387853965"><ele>228.33333333333331</ele><time>2026-04-19T12:00:41.968Z</time></trkpt><trkpt lat="45.125535255591586" lon="7.695915197082592"><ele>229.0</ele><time>2026-04-19T12:00:42.968Z</time></trkpt><trkpt lat="45.1257297748308" lon="7.6958926753145835"><ele>229.66666666666666</ele><time>2026-04-19T12:00:43.968Z</time></trkpt><trkpt lat="45.12592329456091" lon="7.695863908895716"><ele>230.33333333333331</ele><time>2026-04-19T12:00:44.968Z</time></trkpt><trkpt lat="45.126119938489516" lon="7.6958296246079945"><ele>231.0</ele><time>2026-04-19T12:00:45.968Z</time></trkpt><trkpt lat="45.12632036279686" lon="7.695794575782768"><ele>231.0</ele><time>2026-04-19T12:00:46.968Z</time></trkpt><trkpt lat="45.12652198233643" lon="7.695754651400748"><ele>231.0</ele><time>2026-04-19T12:00:47.968Z</time></trkpt><trkpt lat="45.12672123711408" lon="7.695711686205418"><ele>231.0</ele><time>2026-04-19T12:00:48.968Z</time></trkpt><trkpt lat="45.12691744214528" lon="7.695666749596121"><ele>231.0</ele><time>2026-04-19T12:00:49.968Z</time></trkpt><trkpt lat="45.127109953044055" lon="7.695618605882066"><ele>231.0</ele><time>2026-04-19T12:00:50.968Z</time></trkpt><trkpt lat="45.127302686151836" lon="7.695567553492698"><ele>231.0</ele><time>2026-04-19T12:00:51.968Z</time></trkpt><trkpt lat="45.12749613674874" lon="7.6955126013424735"><ele>231.33333333333331</ele><time>2026-04-19T12:00:52.968Z</time></trkpt><trkpt lat="45.127679962505724" lon="7.695460911430245"><ele>231.66666666666666</ele><time>2026-04-19T12:00:53.968Z</time></trkpt><trkpt lat="45.127868090985594" lon="7.6954125762651175"><ele>232.0</ele><time>2026-04-19T12:00:54.968Z</time></trkpt><trkpt lat="45.12805710874853" lon="7.6953628960268174"><ele>232.33333333333331</ele><time>2026-04-19T12:00:55.968Z</time></trkpt><trkpt lat="45.128246359149955" lon="7.695311544749295"><ele>232.66666666666669</ele><time>2026-04-19T12:00:56.968Z</time></trkpt><trkpt lat="45.12843790940677" lon="7.695256692079649"><ele>233.0</ele><time>2026-04-19T12:00:57.968Z</time></trkpt><trkpt lat="45.128632086993896" lon="7.695202761653826"><ele>233.0</ele><time>2026-04-19T12:00:58.968Z</time></trkpt><trkpt lat="45.128825891867244" lon="7.695149663445926"><ele>233.0</ele><time>2026-04-19T12:00:59.968Z</time></trkpt><trkpt lat="45.12902028801291" lon="7.695095256365049"><ele>233.0</ele><time>2026-04-19T12:01:00.968Z</time></trkpt><trkpt lat="45.12920959579209" lon="7.695044429263671"><ele>232.33333333333334</ele><time>2026-04-19T12:01:01.968Z</time></trkpt><trkpt lat="45.12940158863133" lon="7.6949921052473105"><ele>231.66666666666669</ele><time>2026-04-19T12:01:02.968Z</time></trkpt><trkpt lat="45.129590074633235" lon="7.694941708047842"><ele>231.0</ele><time>2026-04-19T12:01:03.968Z</time></trkpt><trkpt lat="45.12978249466859" lon="7.694888489151428"><ele>230.66666666666669</ele><time>2026-04-19T12:01:04.968Z</time></trkpt><trkpt lat="45.1299723823105" lon="7.694837846802343"><ele>230.33333333333334</ele><time>2026-04-19T12:01:05.968Z</time></trkpt><trkpt lat="45.13016926814617" lon="7.694786290469486"><ele>230.0</ele><time>2026-04-19T12:01:06.968Z</time></trkpt><trkpt lat="45.13037449402106" lon="7.6947365597558814"><ele>230.0</ele><time>2026-04-19T12:01:07.968Z</time></trkpt><trkpt lat="45.130581967490514" lon="7.694683379817618"><ele>230.0</ele><time>2026-04-19T12:01:08.968Z</time></trkpt><trkpt lat="45.1307914165419" lon="7.694627119480675"><ele>230.0</ele><time>2026-04-19T12:01:09.968Z</time></trkpt><trkpt lat="45.131003982013034" lon="7.694573452829457"><ele>230.66666666666669</ele><time>2026-04-19T12:01:10.968Z</time></trkpt><trkpt lat="45.131216155016304" lon="7.69451762153808"><ele>231.33333333333331</ele><time>2026-04-19T12:01:11.968Z</time></trkpt><trkpt lat="45.131422899822894" lon="7.694460061144204"><ele>232.0</ele><time>2026-04-19T12:01:12.968Z</time></trkpt><trkpt lat="45.131628406430686" lon="7.694405017556537"><ele>232.33333333333331</ele><time>2026-04-19T12:01:13.968Z</time></trkpt><trkpt lat="45.131833373449844" lon="7.694351885751717"><ele>232.66666666666669</ele><time>2026-04-19T12:01:14.968Z</time></trkpt><trkpt lat="45.132034690698745" lon="7.69430186414682"><ele>233.0</ele><time>2026-04-19T12:01:15.968Z</time></trkpt><trkpt lat="45.132234985105285" lon="7.694250293549198"><ele>232.66666666666669</ele><time>2026-04-19T12:01:16.968Z</time></trkpt><trkpt lat="45.13243477072217" lon="7.694200690999675"><ele>232.33333333333331</ele><time>2026-04-19T12:01:17.968Z</time></trkpt><trkpt lat="45.1326347439851" lon="7.694152881977966"><ele>232.0</ele><time>2026-04-19T12:01:18.968Z</time></trkpt><trkpt lat="45.13283588984619" lon="7.694106670821551"><ele>232.0</ele><time>2026-04-19T12:01:19.968Z</time></trkpt><trkpt lat="45.133036641705935" lon="7.694064831976136"><ele>232.0</ele><time>2026-04-19T12:01:20.968Z</time></trkpt><trkpt lat="45.13323612444753" lon="7.694024027531766"><ele>232.0</ele><time>2026-04-19T12:01:21.968Z</time></trkpt><trkpt lat="45.13343325572141" lon="7.6939841663095185"><ele>232.0</ele><time>2026-04-19T12:01:22.968Z</time></trkpt><trkpt lat="45.13362837088129" lon="7.693948925945377"><ele>232.0</ele><time>2026-04-19T12:01:23.968Z</time></trkpt><trkpt lat="45.133820816436135" lon="7.693918093740897"><ele>232.0</ele><time>2026-04-19T12:01:24.968Z</time></trkpt><trkpt lat="45.134015144961914" lon="7.693887827624074"><ele>232.33333333333331</ele><time>2026-04-19T12:01:25.968Z</time></trkpt><trkpt lat="45.13420924204383" lon="7.693856653133358"><ele>232.66666666666669</ele><time>2026-04-19T12:01:26.968Z</time></trkpt><trkpt lat="45.134403579811924" lon="7.6938271295732825"><ele>233.0</ele><time>2026-04-19T12:01:27.968Z</time></trkpt><trkpt lat="45.13459849536118" lon="7.693795121843731"><ele>233.0</ele><time>2026-04-19T12:01:28.968Z</time></trkpt><trkpt lat="45.13479088253523" lon="7.693765561624351"><ele>233.0</ele><time>2026-04-19T12:01:29.968Z</time></trkpt><trkpt lat="45.134988383726935" lon="7.69373997645277"><ele>233.0</ele><time>2026-04-19T12:01:30.968Z</time></trkpt><trkpt lat="45.13518282469742" lon="7.693706290024447"><ele>233.0</ele><time>2026-04-19T12:01:31.968Z</time></trkpt><trkpt lat="45.13537916260154" lon="7.693677973216037"><ele>233.0</ele><time>2026-04-19T12:01:32.968Z</time></trkpt><trkpt lat="45.135573577959654" lon="7.693648341226239"><ele>233.0</ele><time>2026-04-19T12:01:33.968Z</time></trkpt><trkpt lat="45.135769763319615" lon="7.693617652891402"><ele>233.0</ele><time>2026-04-19T12:01:34.968Z</time></trkpt><trkpt lat="45.13596322556324" lon="7.693581580359616"><ele>233.0</ele><time>2026-04-19T12:01:35.968Z</time></trkpt><trkpt lat="45.13615827516271" lon="7.693541885526208"><ele>233.0</ele><time>2026-04-19T12:01:36.968Z</time></trkpt><trkpt lat="45.136356175081836" lon="7.693493439109344"><ele>233.0</ele><time>2026-04-19T12:01:37.968Z</time></trkpt><trkpt lat="45.13655111961157" lon="7.693443943072414"><ele>233.0</ele><time>2026-04-19T12:01:38.968Z</time></trkpt><trkpt lat="45.13674881370254" lon="7.69338304846066"><ele>233.0</ele><time>2026-04-19T12:01:39.968Z</time></trkpt><trkpt lat="45.136937082434436" lon="7.6933220409193845"><ele>233.33333333333334</ele><time>2026-04-19T12:01:40.968Z</time></trkpt><trkpt lat="45.13711920169176" lon="7.6932468547427115"><ele>233.66666666666669</ele><time>2026-04-19T12:01:41.968Z</time></trkpt><trkpt lat="45.13729129978569" lon="7.693179366868332"><ele>234.0</ele><time>2026-04-19T12:01:42.968Z</time></trkpt><trkpt lat="45.137462051353374" lon="7.6931117083309"><ele>234.0</ele><time>2026-04-19T12:01:43.968Z</time></trkpt><trkpt lat="45.13763321562218" lon="7.6930423765629286"><ele>234.0</ele><time>2026-04-19T12:01:44.968Z</time></trkpt><trkpt lat="45.13780628217609" lon="7.692963546113264"><ele>234.0</ele><time>2026-04-19T12:01:45.968Z</time></trkpt><trkpt lat="45.137987746707104" lon="7.692888639209874"><ele>234.0</ele><time>2026-04-19T12:01:46.968Z</time></trkpt><trkpt lat="45.13817153179157" lon="7.692810235051995"><ele>234.0</ele><time>2026-04-19T12:01:47.968Z</time></trkpt><trkpt lat="45.138353054438305" lon="7.692733058369901"><ele>234.0</ele><time>2026-04-19T12:01:48.968Z</time></trkpt><trkpt lat="45.138539152332214" lon="7.692646444272901"><ele>234.33333333333331</ele><time>2026-04-19T12:01:49.968Z</time></trkpt><trkpt lat="45.13872969906143" lon="7.692555394625239"><ele>234.66666666666666</ele><time>2026-04-19T12:01:50.968Z</time></trkpt><trkpt lat="45.138919132155955" lon="7.69246428531493"><ele>235.0</ele><time>2026-04-19T12:01:51.969Z</time></trkpt><trkpt lat="45.13910648949417" lon="7.6923736315142515"><ele>235.33333333333331</ele><time>2026-04-19T12:01:52.969Z</time></trkpt><trkpt lat="45.13929355282763" lon="7.692279898116619"><ele>235.66666666666669</ele><time>2026-04-19T12:01:53.969Z</time></trkpt><trkpt lat="45.139480415821936" lon="7.692189184395072"><ele>236.0</ele><time>2026-04-19T12:01:54.969Z</time></trkpt><trkpt lat="45.139664633516674" lon="7.692091683050946"><ele>236.0</ele><time>2026-04-19T12:01:55.969Z</time></trkpt><trkpt lat="45.139846731258245" lon="7.691990432425032"><ele>236.0</ele><time>2026-04-19T12:01:56.969Z</time></trkpt><trkpt lat="45.14002669566994" lon="7.691886539601301"><ele>236.0</ele><time>2026-04-19T12:01:57.969Z</time></trkpt><trkpt lat="45.140202802964204" lon="7.691783614010226"><ele>236.0</ele><time>2026-04-19T12:01:58.969Z</time></trkpt><trkpt lat="45.14038325382294" lon="7.691673801638228"><ele>236.0</ele><time>2026-04-19T12:01:59.969Z</time></trkpt><trkpt lat="45.14056433847961" lon="7.691570470113721"><ele>236.0</ele><time>2026-04-19T12:02:00.969Z</time></trkpt><trkpt lat="45.140751537864155" lon="7.691469467666155"><ele>236.0</ele><time>2026-04-19T12:02:01.969Z</time></trkpt><trkpt lat="45.14093363269677" lon="7.691373713106947"><ele>236.0</ele><time>2026-04-19T12:02:02.969Z</time></trkpt><trkpt lat="45.14111408173679" lon="7.691269224584635"><ele>236.0</ele><time>2026-04-19T12:02:03.969Z</time></trkpt><trkpt lat="45.14129117253956" lon="7.691170148672928"><ele>236.33333333333334</ele><time>2026-04-19T12:02:04.969Z</time></trkpt><trkpt lat="45.14146939792251" lon="7.691065719880206"><ele>236.66666666666669</ele><time>2026-04-19T12:02:05.969Z</time></trkpt><trkpt lat="45.14164696068752" lon="7.6909594000456"><ele>237.0</ele><time>2026-04-19T12:02:06.969Z</time></trkpt><trkpt lat="45.14182596309825" lon="7.690852735024189"><ele>237.33333333333331</ele><time>2026-04-19T12:02:07.969Z</time></trkpt><trkpt lat="45.142002297274374" lon="7.690749237508526"><ele>237.66666666666666</ele><time>2026-04-19T12:02:08.969Z</time></trkpt><trkpt lat="45.142176347591416" lon="7.690644851324913"><ele>238.0</ele><time>2026-04-19T12:02:09.969Z</time></trkpt><trkpt lat="45.14235313708454" lon="7.690544251671455"><ele>238.0</ele><time>2026-04-19T12:02:10.969Z</time></trkpt><trkpt lat="45.14252605161316" lon="7.69044410981168"><ele>238.0</ele><time>2026-04-19T12:02:11.969Z</time></trkpt><trkpt lat="45.14270466277711" lon="7.690336164783386"><ele>238.0</ele><time>2026-04-19T12:02:12.969Z</time></trkpt><trkpt lat="45.14288276370614" lon="7.690231587290689"><ele>238.0</ele><time>2026-04-19T12:02:13.969Z</time></trkpt><trkpt lat="45.143060677619765" lon="7.690128909597609"><ele>238.0</ele><time>2026-04-19T12:02:14.969Z</time></trkpt><trkpt lat="45.14324149379349" lon="7.690023717321855"><ele>238.0</ele><time>2026-04-19T12:02:15.969Z</time></trkpt><trkpt lat="45.143422349309304" lon="7.6899125375302235"><ele>237.66666666666666</ele><time>2026-04-19T12:02:16.969Z</time></trkpt><trkpt lat="45.14360478580143" lon="7.6898011670705975"><ele>237.33333333333331</ele><time>2026-04-19T12:02:17.969Z</time></trkpt><trkpt lat="45.14378897008595" lon="7.689692504743457"><ele>237.0</ele><time>2026-04-19T12:02:18.969Z</time></trkpt><trkpt lat="45.14397403386709" lon="7.689588428685716"><ele>237.33333333333331</ele><time>2026-04-19T12:02:19.969Z</time></trkpt><trkpt lat="45.14415941958307" lon="7.689482868391877"><ele>237.66666666666666</ele><time>2026-04-19T12:02:20.969Z</time></trkpt><trkpt lat="45.144344087217156" lon="7.689376977638506"><ele>238.0</ele><time>2026-04-19T12:02:21.969Z</time></trkpt><trkpt lat="45.14453003264155" lon="7.689278603068076"><ele>238.33333333333331</ele><time>2026-04-19T12:02:22.969Z</time></trkpt><trkpt lat="45.144715992944455" lon="7.689191543460073"><ele>238.66666666666669</ele><time>2026-04-19T12:02:23.966Z</time></trkpt><trkpt lat="45.14490262618798" lon="7.6891021258362695"><ele>239.0</ele><time>2026-04-19T12:02:24.965Z</time></trkpt><trkpt lat="45.14508726179952" lon="7.689022984493449"><ele>239.0</ele><time>2026-04-19T12:02:25.965Z</time></trkpt><trkpt lat="45.145267247978246" lon="7.688936955695509"><ele>239.0</ele><time>2026-04-19T12:02:26.966Z</time></trkpt><trkpt lat="45.1454477978395" lon="7.688856924836822"><ele>239.0</ele><time>2026-04-19T12:02:27.966Z</time></trkpt><trkpt lat="45.14562444895683" lon="7.688783361766719"><ele>239.0</ele><time>2026-04-19T12:02:28.966Z</time></trkpt><trkpt lat="45.14580097087361" lon="7.688713035846195"><ele>239.0</ele><time>2026-04-19T12:02:29.966Z</time></trkpt><trkpt lat="45.145980347350175" lon="7.688644967329602"><ele>239.0</ele><time>2026-04-19T12:02:30.966Z</time></trkpt><trkpt lat="45.14616134875184" lon="7.688567880384354"><ele>239.66666666666669</ele><time>2026-04-19T12:02:31.966Z</time></trkpt><trkpt lat="45.146340762027016" lon="7.6884961569435335"><ele>240.33333333333331</ele><time>2026-04-19T12:02:32.965Z</time></trkpt><trkpt lat="45.146528995229176" lon="7.688430704401691"><ele>241.0</ele><time>2026-04-19T12:02:33.966Z</time></trkpt><trkpt lat="45.14671817663711" lon="7.688368179337097"><ele>241.0</ele><time>2026-04-19T12:02:34.966Z</time></trkpt><trkpt lat="45.146908957284445" lon="7.688306662662033"><ele>241.0</ele><time>2026-04-19T12:02:35.966Z</time></trkpt><trkpt lat="45.14710331249379" lon="7.6882507381016865"><ele>241.0</ele><time>2026-04-19T12:02:36.966Z</time></trkpt><trkpt lat="45.147297816424995" lon="7.688193171620723"><ele>240.66666666666666</ele><time>2026-04-19T12:02:37.966Z</time></trkpt><trkpt lat="45.14749481692425" lon="7.688142312347863"><ele>240.33333333333331</ele><time>2026-04-19T12:02:38.966Z</time></trkpt><trkpt lat="45.14769444828245" lon="7.688094079284325"><ele>240.0</ele><time>2026-04-19T12:02:39.966Z</time></trkpt><trkpt lat="45.14789402525543" lon="7.6880479900775835"><ele>240.0</ele><time>2026-04-19T12:02:40.966Z</time></trkpt><trkpt lat="45.148095067371194" lon="7.688000773124731"><ele>240.0</ele><time>2026-04-19T12:02:41.966Z</time></trkpt><trkpt lat="45.148298196110275" lon="7.687961088608839"><ele>240.0</ele><time>2026-04-19T12:02:42.966Z</time></trkpt><trkpt lat="45.14849905179865" lon="7.687920489371125"><ele>240.33333333333331</ele><time>2026-04-19T12:02:43.966Z</time></trkpt><trkpt lat="45.14870232589914" lon="7.687886288795133"><ele>240.66666666666666</ele><time>2026-04-19T12:02:44.966Z</time></trkpt><trkpt lat="45.148908525617436" lon="7.687851725781421"><ele>241.0</ele><time>2026-04-19T12:02:45.966Z</time></trkpt><trkpt lat="45.149114025764135" lon="7.687819282375316"><ele>241.0</ele><time>2026-04-19T12:02:46.966Z</time></trkpt><trkpt lat="45.1493210742414" lon="7.68779002174279"><ele>241.0</ele><time>2026-04-19T12:02:47.966Z</time></trkpt><trkpt lat="45.149528474035584" lon="7.687760038960174"><ele>241.0</ele><time>2026-04-19T12:02:48.966Z</time></trkpt><trkpt lat="45.14973719196119" lon="7.687729401695651"><ele>241.66666666666666</ele><time>2026-04-19T12:02:49.966Z</time></trkpt><trkpt lat="45.14994679298579" lon="7.687702119228604"><ele>242.33333333333331</ele><time>2026-04-19T12:02:50.966Z</time></trkpt><trkpt lat="45.15015328965868" lon="7.687677256913745"><ele>243.0</ele><time>2026-04-19T12:02:51.966Z</time></trkpt><trkpt lat="45.15035897722967" lon="7.687647362419528"><ele>243.0</ele><time>2026-04-19T12:02:52.966Z</time></trkpt><trkpt lat="45.150568229230025" lon="7.687620542074637"><ele>243.0</ele><time>2026-04-19T12:02:53.966Z</time></trkpt><trkpt lat="45.150784867865994" lon="7.6875960556614675"><ele>243.0</ele><time>2026-04-19T12:02:54.966Z</time></trkpt><trkpt lat="45.15100556598961" lon="7.6875705524171085"><ele>243.33333333333331</ele><time>2026-04-19T12:02:55.966Z</time></trkpt><trkpt lat="45.15122747449278" lon="7.687536195917722"><ele>243.66666666666666</ele><time>2026-04-19T12:02:56.966Z</time></trkpt><trkpt lat="45.15144900383596" lon="7.687485661115479"><ele>244.0</ele><time>2026-04-19T12:02:57.966Z</time></trkpt><trkpt lat="45.1516706326031" lon="7.687439059285399"><ele>244.0</ele><time>2026-04-19T12:02:58.966Z</time></trkpt><trkpt lat="45.15189856173716" lon="7.687404458419573"><ele>244.0</ele><time>2026-04-19T12:02:59.966Z</time></trkpt><trkpt lat="45.15212798255539" lon="7.687376831813006"><ele>244.0</ele><time>2026-04-19T12:03:00.966Z</time></trkpt><trkpt lat="45.15236344912823" lon="7.687346218030916"><ele>244.0</ele><time>2026-04-19T12:03:01.966Z</time></trkpt><trkpt lat="45.15260208201699" lon="7.687319426896451"><ele>244.0</ele><time>2026-04-19T12:03:02.966Z</time></trkpt><trkpt lat="45.152843275762834" lon="7.687293676118804"><ele>244.0</ele><time>2026-04-19T12:03:03.966Z</time></trkpt><trkpt lat="45.15308859083004" lon="7.687268093778458"><ele>243.0</ele><time>2026-04-19T12:03:04.966Z</time></trkpt><trkpt lat="45.15333696383819" lon="7.687246104597046"><ele>242.0</ele><time>2026-04-19T12:03:05.966Z</time></trkpt><trkpt lat="45.15358399860452" lon="7.687225565607814"><ele>242.0</ele><time>2026-04-19T12:03:06.966Z</time></trkpt><trkpt lat="45.15383429584791" lon="7.687198904887972"><ele>242.0</ele><time>2026-04-19T12:03:07.966Z</time></trkpt><trkpt lat="45.154077667913114" lon="7.687164398952097"><ele>242.0</ele><time>2026-04-19T12:03:08.966Z</time></trkpt><trkpt lat="45.15431882895515" lon="7.687133564626448"><ele>242.0</ele><time>2026-04-19T12:03:09.966Z</time></trkpt><trkpt lat="45.15456214111506" lon="7.687101749733551"><ele>242.0</ele><time>2026-04-19T12:03:10.966Z</time></trkpt><trkpt lat="45.154807264252675" lon="7.687075304019732"><ele>242.0</ele><time>2026-04-19T12:03:11.966Z</time></trkpt><trkpt lat="45.15505129395509" lon="7.687043657625178"><ele>243.0</ele><time>2026-04-19T12:03:12.966Z</time></trkpt><trkpt lat="45.155297626506965" lon="7.687009184898575"><ele>244.0</ele><time>2026-04-19T12:03:13.966Z</time></trkpt><trkpt lat="45.155542272298504" lon="7.686970808740543"><ele>244.5</ele><time>2026-04-19T12:03:14.966Z</time></trkpt><trkpt lat="45.15578617835573" lon="7.686940282927806"><ele>245.0</ele><time>2026-04-19T12:03:15.966Z</time></trkpt><trkpt lat="45.15603117011145" lon="7.686908894788485"><ele>245.0</ele><time>2026-04-19T12:03:16.966Z</time></trkpt><trkpt lat="45.15628097642614" lon="7.68687435800996"><ele>245.0</ele><time>2026-04-19T12:03:17.966Z</time></trkpt><trkpt lat="45.1565323460039" lon="7.686838603533463"><ele>245.5</ele><time>2026-04-19T12:03:18.966Z</time></trkpt><trkpt lat="45.156775956860706" lon="7.686807035621486"><ele>246.0</ele><time>2026-04-19T12:03:19.966Z</time></trkpt><trkpt lat="45.15702403909675" lon="7.686779058293953"><ele>246.0</ele><time>2026-04-19T12:03:20.966Z</time></trkpt><trkpt lat="45.15727097464572" lon="7.686747599289113"><ele>246.0</ele><time>2026-04-19T12:03:21.966Z</time></trkpt><trkpt lat="45.15751871688912" lon="7.6867162838689564"><ele>247.0</ele><time>2026-04-19T12:03:22.966Z</time></trkpt><trkpt lat="45.15776497342217" lon="7.686681611937718"><ele>248.0</ele><time>2026-04-19T12:03:23.966Z</time></trkpt><trkpt lat="45.15801110019708" lon="7.686649626573622"><ele>247.5</ele><time>2026-04-19T12:03:24.966Z</time></trkpt><trkpt lat="45.15825481893428" lon="7.68662102427676"><ele>247.0</ele><time>2026-04-19T12:03:25.966Z</time></trkpt><trkpt lat="45.15849829316818" lon="7.686586347447497"><ele>247.0</ele><time>2026-04-19T12:03:26.966Z</time></trkpt><trkpt lat="45.158743138366866" lon="7.6865518715306544"><ele>247.0</ele><time>2026-04-19T12:03:27.966Z</time></trkpt><trkpt lat="45.15898574971142" lon="7.686513714907303"><ele>246.0</ele><time>2026-04-19T12:03:28.966Z</time></trkpt><trkpt lat="45.159229715799206" lon="7.686476666886929"><ele>245.0</ele><time>2026-04-19T12:03:29.966Z</time></trkpt><trkpt lat="45.15947325919521" lon="7.686436817031015"><ele>245.0</ele><time>2026-04-19T12:03:30.966Z</time></trkpt><trkpt lat="45.159719121934934" lon="7.68639579046949"><ele>245.0</ele><time>2026-04-19T12:03:31.966Z</time></trkpt><trkpt lat="45.15996530571401" lon="7.686350273807264"><ele>246.0</ele><time>2026-04-19T12:03:32.966Z</time></trkpt><trkpt lat="45.16021163158886" lon="7.68629744732118"><ele>247.0</ele><time>2026-04-19T12:03:33.966Z</time></trkpt><trkpt lat="45.16045924228573" lon="7.686240461287964"><ele>247.5</ele><time>2026-04-19T12:03:34.966Z</time></trkpt><trkpt lat="45.16070540886857" lon="7.686175826231857"><ele>248.0</ele><time>2026-04-19T12:03:35.966Z</time></trkpt><trkpt lat="45.16095171161572" lon="7.686109911444427"><ele>248.0</ele><time>2026-04-19T12:03:36.966Z</time></trkpt><trkpt lat="45.16118595534684" lon="7.686038087704559"><ele>248.0</ele><time>2026-04-19T12:03:37.966Z</time></trkpt><trkpt lat="45.161423077424786" lon="7.685971519317351"><ele>249.0</ele><time>2026-04-19T12:03:38.966Z</time></trkpt><trkpt lat="45.16165818107515" lon="7.685889090953563"><ele>250.0</ele><time>2026-04-19T12:03:39.966Z</time></trkpt><trkpt lat="45.161891983222084" lon="7.685801977824811"><ele>250.0</ele><time>2026-04-19T12:03:40.966Z</time></trkpt><trkpt lat="45.16212244924643" lon="7.68571200068638"><ele>250.0</ele><time>2026-04-19T12:03:41.966Z</time></trkpt><trkpt lat="45.16235668934531" lon="7.685621653499096"><ele>250.0</ele><time>2026-04-19T12:03:42.966Z</time></trkpt><trkpt lat="45.16258836471002" lon="7.685525611372922"><ele>250.0</ele><time>2026-04-19T12:03:43.966Z</time></trkpt><trkpt lat="45.16281659316455" lon="7.6854272696724"><ele>250.0</ele><time>2026-04-19T12:03:44.966Z</time></trkpt><trkpt lat="45.16304655797589" lon="7.685324258079071"><ele>250.0</ele><time>2026-04-19T12:03:45.966Z</time></trkpt><trkpt lat="45.163276207029085" lon="7.685217710157708"><ele>251.0</ele><time>2026-04-19T12:03:46.966Z</time></trkpt><trkpt lat="45.1635046657392" lon="7.685107459721692"><ele>252.0</ele><time>2026-04-19T12:03:47.966Z</time></trkpt><trkpt lat="45.16373186970193" lon="7.684992271373848"><ele>252.0</ele><time>2026-04-19T12:03:48.966Z</time></trkpt><trkpt lat="45.16395526047037" lon="7.684871200015521"><ele>252.0</ele><time>2026-04-19T12:03:49.966Z</time></trkpt><trkpt lat="45.1641804448057" lon="7.684746166344962"><ele>251.5</ele><time>2026-04-19T12:03:50.966Z</time></trkpt><trkpt lat="45.16440452145046" lon="7.6846171633828675"><ele>251.0</ele><time>2026-04-19T12:03:51.966Z</time></trkpt><trkpt lat="45.16462404387944" lon="7.684480558485886"><ele>251.5</ele><time>2026-04-19T12:03:52.966Z</time></trkpt><trkpt lat="45.16484337595223" lon="7.684346528057472"><ele>252.0</ele><time>2026-04-19T12:03:53.966Z</time></trkpt><trkpt lat="45.16505989551928" lon="7.684209198756847"><ele>253.0</ele><time>2026-04-19T12:03:54.966Z</time></trkpt><trkpt lat="45.1652733870593" lon="7.684065474017563"><ele>254.0</ele><time>2026-04-19T12:03:55.966Z</time></trkpt><trkpt lat="45.1654912834706" lon="7.6839167121016585"><ele>255.0</ele><time>2026-04-19T12:03:56.966Z</time></trkpt><trkpt lat="45.16570319022546" lon="7.683767907762942"><ele>256.0</ele><time>2026-04-19T12:03:57.966Z</time></trkpt><trkpt lat="45.165907832956265" lon="7.683606725446217"><ele>255.5</ele><time>2026-04-19T12:03:58.966Z</time></trkpt><trkpt lat="45.16611470806201" lon="7.683440901718445"><ele>255.0</ele><time>2026-04-19T12:03:59.966Z</time></trkpt><trkpt lat="45.166320150388955" lon="7.683277040237306"><ele>254.5</ele><time>2026-04-19T12:04:00.966Z</time></trkpt><trkpt lat="45.16652935928711" lon="7.6831093183644255"><ele>254.0</ele><time>2026-04-19T12:04:01.966Z</time></trkpt><trkpt lat="45.16673363021656" lon="7.68294446096473"><ele>254.0</ele><time>2026-04-19T12:04:02.966Z</time></trkpt><trkpt lat="45.16692840121841" lon="7.682776557925365"><ele>254.0</ele><time>2026-04-19T12:04:03.966Z</time></trkpt><trkpt lat="45.167124126369146" lon="7.6826030313670985"><ele>253.66666666666669</ele><time>2026-04-19T12:04:04.966Z</time></trkpt><trkpt lat="45.167312122575815" lon="7.682430150508551"><ele>253.33333333333331</ele><time>2026-04-19T12:04:05.966Z</time></trkpt><trkpt lat="45.16749877375556" lon="7.682253160982219"><ele>253.0</ele><time>2026-04-19T12:04:06.966Z</time></trkpt><trkpt lat="45.16768505421795" lon="7.68207290365483"><ele>253.5</ele><time>2026-04-19T12:04:07.966Z</time></trkpt><trkpt lat="45.16787149922099" lon="7.681886235166484"><ele>254.0</ele><time>2026-04-19T12:04:08.966Z</time></trkpt><trkpt lat="45.16805561656829" lon="7.6817030664371435"><ele>254.5</ele><time>2026-04-19T12:04:09.966Z</time></trkpt><trkpt lat="45.168240500000735" lon="7.681514721557075"><ele>255.0</ele><time>2026-04-19T12:04:10.966Z</time></trkpt><trkpt lat="45.168421656332626" lon="7.681322257520466"><ele>255.0</ele><time>2026-04-19T12:04:11.966Z</time></trkpt><trkpt lat="45.16859913641853" lon="7.681123613059537"><ele>255.0</ele><time>2026-04-19T12:04:12.966Z</time></trkpt><trkpt lat="45.16877561850897" lon="7.680922309682141"><ele>255.5</ele><time>2026-04-19T12:04:13.966Z</time></trkpt><trkpt lat="45.168949118977366" lon="7.680716250369823"><ele>256.0</ele><time>2026-04-19T12:04:14.966Z</time></trkpt><trkpt lat="45.1691214522848" lon="7.680508826922379"><ele>256.0</ele><time>2026-04-19T12:04:15.966Z</time></trkpt><trkpt lat="45.169288551910135" lon="7.680294269503701"><ele>256.0</ele><time>2026-04-19T12:04:16.966Z</time></trkpt><trkpt lat="45.16945477136106" lon="7.680075112291861"><ele>256.3333333333333</ele><time>2026-04-19T12:04:17.966Z</time></trkpt><trkpt lat="45.169620328053334" lon="7.6798599864294435"><ele>256.6666666666667</ele><time>2026-04-19T12:04:18.966Z</time></trkpt><trkpt lat="45.16978419963599" lon="7.679641596947817"><ele>257.0</ele><time>2026-04-19T12:04:19.966Z</time></trkpt><trkpt lat="45.16994796827674" lon="7.679418465338973"><ele>258.5</ele><time>2026-04-19T12:04:20.966Z</time></trkpt><trkpt lat="45.17011411353302" lon="7.6791947624325285"><ele>260.0</ele><time>2026-04-19T12:04:21.966Z</time></trkpt><trkpt lat="45.17027541681442" lon="7.678963351540274"><ele>260.0</ele><time>2026-04-19T12:04:22.966Z</time></trkpt><trkpt lat="45.17043639409323" lon="7.678723064532808"><ele>260.0</ele><time>2026-04-19T12:04:23.966Z</time></trkpt><trkpt lat="45.17059586433901" lon="7.678484902050862"><ele>259.0</ele><time>2026-04-19T12:04:24.966Z</time></trkpt><trkpt lat="45.170749928696736" lon="7.678243532621776"><ele>258.0</ele><time>2026-04-19T12:04:25.966Z</time></trkpt><trkpt lat="45.170905795687034" lon="7.6780036784708745"><ele>258.0</ele><time>2026-04-19T12:04:26.966Z</time></trkpt><trkpt lat="45.17105666769596" lon="7.677755367472659"><ele>258.0</ele><time>2026-04-19T12:04:27.966Z</time></trkpt><trkpt lat="45.171206010732206" lon="7.6775090448672465"><ele>258.0</ele><time>2026-04-19T12:04:28.966Z</time></trkpt><trkpt lat="45.17135119067736" lon="7.677262156293173"><ele>258.0</ele><time>2026-04-19T12:04:29.963Z</time></trkpt><trkpt lat="45.171495747405565" lon="7.677014132953387"><ele>259.0</ele><time>2026-04-19T12:04:30.964Z</time></trkpt><trkpt lat="45.17163847671129" lon="7.6767590120208515"><ele>260.0</ele><time>2026-04-19T12:04:31.964Z</time></trkpt><trkpt lat="45.17177700253489" lon="7.6765017477396205"><ele>260.0</ele><time>2026-04-19T12:04:32.964Z</time></trkpt><trkpt lat="45.171914819658646" lon="7.676244931916567"><ele>260.0</ele><time>2026-04-19T12:04:33.964Z</time></trkpt><trkpt lat="45.17204747832972" lon="7.6759840340391365"><ele>260.0</ele><time>2026-04-19T12:04:34.964Z</time></trkpt><trkpt lat="45.172177161021736" lon="7.675723423137902"><ele>260.0</ele><time>2026-04-19T12:04:35.964Z</time></trkpt><trkpt lat="45.17230472658004" lon="7.675462772960498"><ele>260.0</ele><time>2026-04-19T12:04:36.964Z</time></trkpt><trkpt lat="45.17243037664893" lon="7.675203513263331"><ele>260.0</ele><time>2026-04-19T12:04:37.964Z</time></trkpt><trkpt lat="45.17255552699844" lon="7.674941074284975"><ele>260.0</ele><time>2026-04-19T12:04:38.963Z</time></trkpt><trkpt lat="45.17267866321194" lon="7.6746776327825295"><ele>260.0</ele><time>2026-04-19T12:04:39.963Z</time></trkpt><trkpt lat="45.17279882805717" lon="7.67440891251701"><ele>260.0</ele><time>2026-04-19T12:04:40.963Z</time></trkpt><trkpt lat="45.172912758460065" lon="7.6741368784513915"><ele>260.0</ele><time>2026-04-19T12:04:41.963Z</time></trkpt><trkpt lat="45.17302332844709" lon="7.673863389282923"><ele>260.0</ele><time>2026-04-19T12:04:42.964Z</time></trkpt><trkpt lat="45.17313439935084" lon="7.673588974315967"><ele>260.6666666666667</ele><time>2026-04-19T12:04:43.963Z</time></trkpt><trkpt lat="45.17324639979094" lon="7.673317866362808"><ele>261.3333333333333</ele><time>2026-04-19T12:04:44.963Z</time></trkpt><trkpt lat="45.17335573879527" lon="7.673041883845443"><ele>262.0</ele><time>2026-04-19T12:04:45.963Z</time></trkpt><trkpt lat="45.17346335076819" lon="7.672760735647615"><ele>262.0</ele><time>2026-04-19T12:04:46.963Z</time></trkpt><trkpt lat="45.173565328812316" lon="7.672475533414874"><ele>262.0</ele><time>2026-04-19T12:04:47.963Z</time></trkpt><trkpt lat="45.173662068484724" lon="7.672186796637933"><ele>262.0</ele><time>2026-04-19T12:04:48.963Z</time></trkpt><trkpt lat="45.17375826900698" lon="7.671891487480063"><ele>262.0</ele><time>2026-04-19T12:04:49.963Z</time></trkpt><trkpt lat="45.173853004437824" lon="7.671593382030511"><ele>262.0</ele><time>2026-04-19T12:04:50.962Z</time></trkpt><trkpt lat="45.17394446022746" lon="7.671292768864708"><ele>262.0</ele><time>2026-04-19T12:04:51.962Z</time></trkpt><trkpt lat="45.174033497684846" lon="7.670988038629786"><ele>262.5</ele><time>2026-04-19T12:04:52.962Z</time></trkpt><trkpt lat="45.174121117998524" lon="7.670682090952213"><ele>263.0</ele><time>2026-04-19T12:04:53.962Z</time></trkpt><trkpt lat="45.17420389220284" lon="7.670375156136447"><ele>263.0</ele><time>2026-04-19T12:04:54.962Z</time></trkpt><trkpt lat="45.174284408725164" lon="7.670065450934122"><ele>263.0</ele><time>2026-04-19T12:04:55.962Z</time></trkpt><trkpt lat="45.17436702120391" lon="7.669756600325615"><ele>263.0</ele><time>2026-04-19T12:04:56.962Z</time></trkpt><trkpt lat="45.17444909993047" lon="7.66944822516101"><ele>263.0</ele><time>2026-04-19T12:04:57.962Z</time></trkpt><trkpt lat="45.17453171488162" lon="7.669141541178067"><ele>263.5</ele><time>2026-04-19T12:04:58.962Z</time></trkpt><trkpt lat="45.17461587856458" lon="7.668831283122745"><ele>264.0</ele><time>2026-04-19T12:04:59.962Z</time></trkpt><trkpt lat="45.17469998184602" lon="7.668522406788386"><ele>264.0</ele><time>2026-04-19T12:05:00.962Z</time></trkpt><trkpt lat="45.17478211921695" lon="7.668214856407387"><ele>264.0</ele><time>2026-04-19T12:05:01.962Z</time></trkpt><trkpt lat="45.17486554775362" lon="7.667909900377544"><ele>264.0</ele><time>2026-04-19T12:05:02.962Z</time></trkpt><trkpt lat="45.17494764194388" lon="7.6676099759785865"><ele>264.0</ele><time>2026-04-19T12:05:03.962Z</time></trkpt><trkpt lat="45.17502991355644" lon="7.667301836050766"><ele>264.0</ele><time>2026-04-19T12:05:04.961Z</time></trkpt><trkpt lat="45.1751129442037" lon="7.666995092668849"><ele>264.0</ele><time>2026-04-19T12:05:05.961Z</time></trkpt><trkpt lat="45.175193035773646" lon="7.666692744609009"><ele>265.0</ele><time>2026-04-19T12:05:06.961Z</time></trkpt><trkpt lat="45.17527727874429" lon="7.666392145597559"><ele>266.0</ele><time>2026-04-19T12:05:07.961Z</time></trkpt><trkpt lat="45.175356836217865" lon="7.6660939443163745"><ele>266.0</ele><time>2026-04-19T12:05:08.961Z</time></trkpt><trkpt lat="45.17543892163933" lon="7.665794979898283"><ele>266.0</ele><time>2026-04-19T12:05:09.961Z</time></trkpt><trkpt lat="45.17552148348841" lon="7.6654933479498"><ele>266.0</ele><time>2026-04-19T12:05:10.961Z</time></trkpt><trkpt lat="45.17560284942374" lon="7.665198774172514"><ele>266.0</ele><time>2026-04-19T12:05:11.961Z</time></trkpt><trkpt lat="45.17568633745556" lon="7.664903347954196"><ele>266.0</ele><time>2026-04-19T12:05:12.961Z</time></trkpt><trkpt lat="45.1757693702405" lon="7.664609411587912"><ele>266.6666666666667</ele><time>2026-04-19T12:05:13.961Z</time></trkpt><trkpt lat="45.17585177028167" lon="7.664314364039505"><ele>267.3333333333333</ele><time>2026-04-19T12:05:14.961Z</time></trkpt><trkpt lat="45.17593212038163" lon="7.66401872833768"><ele>268.0</ele><time>2026-04-19T12:05:15.961Z</time></trkpt><trkpt lat="45.17601076380195" lon="7.663721007775783"><ele>268.3333333333333</ele><time>2026-04-19T12:05:16.961Z</time></trkpt><trkpt lat="45.176091023508256" lon="7.663425572858696"><ele>268.6666666666667</ele><time>2026-04-19T12:05:17.961Z</time></trkpt><trkpt lat="45.17617209979002" lon="7.663130563620336"><ele>269.0</ele><time>2026-04-19T12:05:18.961Z</time></trkpt><trkpt lat="45.176252194510866" lon="7.662833086109776"><ele>269.0</ele><time>2026-04-19T12:05:19.961Z</time></trkpt><trkpt lat="45.17633368164677" lon="7.662535496832019"><ele>269.0</ele><time>2026-04-19T12:05:20.961Z</time></trkpt><trkpt lat="45.17641730281537" lon="7.662236544003663"><ele>269.5</ele><time>2026-04-19T12:05:21.961Z</time></trkpt><trkpt lat="45.17649853315872" lon="7.661935498442848"><ele>270.0</ele><time>2026-04-19T12:05:22.961Z</time></trkpt><trkpt lat="45.17658043654261" lon="7.661635609808725"><ele>270.0</ele><time>2026-04-19T12:05:23.961Z</time></trkpt><trkpt lat="45.176663271275515" lon="7.661338665558866"><ele>270.0</ele><time>2026-04-19T12:05:24.961Z</time></trkpt><trkpt lat="45.1767461939878" lon="7.661035044710464"><ele>270.0</ele><time>2026-04-19T12:05:25.961Z</time></trkpt><trkpt lat="45.176828813922235" lon="7.660730814586055"><ele>270.0</ele><time>2026-04-19T12:05:26.961Z</time></trkpt><trkpt lat="45.17690961191374" lon="7.660429593614381"><ele>270.0</ele><time>2026-04-19T12:05:27.961Z</time></trkpt><trkpt lat="45.176991700125804" lon="7.660127337284286"><ele>270.0</ele><time>2026-04-19T12:05:28.961Z</time></trkpt><trkpt lat="45.177069972406684" lon="7.659829282200395"><ele>270.0</ele><time>2026-04-19T12:05:29.961Z</time></trkpt><trkpt lat="45.17715359956169" lon="7.659529756997345"><ele>270.0</ele><time>2026-04-19T12:05:30.961Z</time></trkpt><trkpt lat="45.17723727365343" lon="7.65922770343497"><ele>270.5</ele><time>2026-04-19T12:05:31.961Z</time></trkpt><trkpt lat="45.177318307091625" lon="7.65892710702056"><ele>271.0</ele><time>2026-04-19T12:05:32.961Z</time></trkpt><trkpt lat="45.177404240272544" lon="7.658626313245836"><ele>272.0</ele><time>2026-04-19T12:05:33.961Z</time></trkpt><trkpt lat="45.17748864596214" lon="7.6583276759340535"><ele>273.0</ele><time>2026-04-19T12:05:34.961Z</time></trkpt><trkpt lat="45.17756913987497" lon="7.658029649033378"><ele>274.0</ele><time>2026-04-19T12:05:35.961Z</time></trkpt><trkpt lat="45.17765126403933" lon="7.657723952305293"><ele>275.0</ele><time>2026-04-19T12:05:36.961Z</time></trkpt><trkpt lat="45.177730424488864" lon="7.657424791052387"><ele>275.0</ele><time>2026-04-19T12:05:37.961Z</time></trkpt><trkpt lat="45.177814890179356" lon="7.657120028475264"><ele>275.0</ele><time>2026-04-19T12:05:38.961Z</time></trkpt><trkpt lat="45.177896374265664" lon="7.656816556476322"><ele>275.0</ele><time>2026-04-19T12:05:39.961Z</time></trkpt><trkpt lat="45.17797649372551" lon="7.656510120850172"><ele>275.0</ele><time>2026-04-19T12:05:40.961Z</time></trkpt><trkpt lat="45.17805651663293" lon="7.656209257487736"><ele>274.5</ele><time>2026-04-19T12:05:41.961Z</time></trkpt><trkpt lat="45.178135651857446" lon="7.655907443531866"><ele>274.0</ele><time>2026-04-19T12:05:42.961Z</time></trkpt><trkpt lat="45.17821655869732" lon="7.655603372246648"><ele>274.0</ele><time>2026-04-19T12:05:43.961Z</time></trkpt><trkpt lat="45.17829530911461" lon="7.655298883165617"><ele>274.0</ele><time>2026-04-19T12:05:44.961Z</time></trkpt><trkpt lat="45.17837634468203" lon="7.654994626358487"><ele>274.0</ele><time>2026-04-19T12:05:45.961Z</time></trkpt><trkpt lat="45.178456777684126" lon="7.654692982867435"><ele>274.0</ele><time>2026-04-19T12:05:46.961Z</time></trkpt><trkpt lat="45.178541318459" lon="7.654392395920796"><ele>274.0</ele><time>2026-04-19T12:05:47.961Z</time></trkpt><trkpt lat="45.178630674309744" lon="7.654096820096632"><ele>274.0</ele><time>2026-04-19T12:05:48.961Z</time></trkpt><trkpt lat="45.178722479895484" lon="7.653800744830011"><ele>274.5</ele><time>2026-04-19T12:05:49.961Z</time></trkpt><trkpt lat="45.17881625884583" lon="7.653506284792176"><ele>275.0</ele><time>2026-04-19T12:05:50.961Z</time></trkpt><trkpt lat="45.178914103537636" lon="7.653217543088472"><ele>275.0</ele><time>2026-04-19T12:05:51.961Z</time></trkpt><trkpt lat="45.179012297125425" lon="7.6529285971350465"><ele>275.0</ele><time>2026-04-19T12:05:52.961Z</time></trkpt><trkpt lat="45.179115185634416" lon="7.65263914074482"><ele>275.5</ele><time>2026-04-19T12:05:53.961Z</time></trkpt><trkpt lat="45.179215568132975" lon="7.652349850896189"><ele>276.0</ele><time>2026-04-19T12:05:54.961Z</time></trkpt><trkpt lat="45.17931917172516" lon="7.652060819730911"><ele>276.5</ele><time>2026-04-19T12:05:55.961Z</time></trkpt><trkpt lat="45.1794283069429" lon="7.651771956655895"><ele>277.0</ele><time>2026-04-19T12:05:56.961Z</time></trkpt><trkpt lat="45.17953779771101" lon="7.651495187742039"><ele>277.0</ele><time>2026-04-19T12:05:57.961Z</time></trkpt><trkpt lat="45.179644380775976" lon="7.6512229369943245"><ele>277.0</ele><time>2026-04-19T12:05:58.961Z</time></trkpt><trkpt lat="45.179755039555744" lon="7.650957763725916"><ele>277.0</ele><time>2026-04-19T12:05:59.961Z</time></trkpt><trkpt lat="45.179871645192804" lon="7.650694077130083"><ele>277.0</ele><time>2026-04-19T12:06:00.961Z</time></trkpt><trkpt lat="45.17998575271679" lon="7.650438930122396"><ele>277.0</ele><time>2026-04-19T12:06:01.961Z</time></trkpt><trkpt lat="45.18010345760682" lon="7.65018238443761"><ele>277.0</ele><time>2026-04-19T12:06:02.961Z</time></trkpt><trkpt lat="45.18022372498906" lon="7.649922704668435"><ele>277.3333333333333</ele><time>2026-04-19T12:06:03.961Z</time></trkpt><trkpt lat="45.18034801711001" lon="7.6496619969331"><ele>277.6666666666667</ele><time>2026-04-19T12:06:04.961Z</time></trkpt><trkpt lat="45.18047426894363" lon="7.649394998501007"><ele>278.0</ele><time>2026-04-19T12:06:05.961Z</time></trkpt><trkpt lat="45.18059877868089" lon="7.6491279506731935"><ele>278.0</ele><time>2026-04-19T12:06:06.961Z</time></trkpt><trkpt lat="45.18071660197496" lon="7.648857694049283"><ele>278.0</ele><time>2026-04-19T12:06:07.961Z</time></trkpt><trkpt lat="45.180834307222355" lon="7.648583568916866"><ele>278.0</ele><time>2026-04-19T12:06:08.961Z</time></trkpt><trkpt lat="45.18095463044828" lon="7.64833065276922"><ele>278.0</ele><time>2026-04-19T12:06:09.961Z</time></trkpt><trkpt lat="45.18107338324121" lon="7.648083036288312"><ele>278.0</ele><time>2026-04-19T12:06:10.961Z</time></trkpt><trkpt lat="45.18118725562789" lon="7.647840355946459"><ele>278.0</ele><time>2026-04-19T12:06:11.961Z</time></trkpt><trkpt lat="45.181302745895955" lon="7.647606610990942"><ele>278.0</ele><time>2026-04-19T12:06:12.961Z</time></trkpt><trkpt lat="45.18141716966752" lon="7.64737927733829"><ele>278.0</ele><time>2026-04-19T12:06:13.961Z</time></trkpt><trkpt lat="45.181528993418134" lon="7.64716101727091"><ele>279.0</ele><time>2026-04-19T12:06:14.961Z</time></trkpt><trkpt lat="45.18164450288941" lon="7.646946911477582"><ele>280.0</ele><time>2026-04-19T12:06:15.961Z</time></trkpt><trkpt lat="45.18176173889091" lon="7.646742725739104"><ele>281.0</ele><time>2026-04-19T12:06:16.961Z</time></trkpt><trkpt lat="45.18189031025209" lon="7.646543225584076"><ele>281.0</ele><time>2026-04-19T12:06:17.961Z</time></trkpt><trkpt lat="45.18202231662391" lon="7.646358891681708"><ele>281.0</ele><time>2026-04-19T12:06:18.961Z</time></trkpt><trkpt lat="45.18216709532436" lon="7.646180300094585"><ele>281.0</ele><time>2026-04-19T12:06:19.961Z</time></trkpt><trkpt lat="45.18232049814777" lon="7.646022362618918"><ele>281.33333333333337</ele><time>2026-04-19T12:06:20.961Z</time></trkpt><trkpt lat="45.182486160376996" lon="7.645880947346602"><ele>281.6666666666667</ele><time>2026-04-19T12:06:21.961Z</time></trkpt><trkpt lat="45.182653590776894" lon="7.645756013138957"><ele>282.0</ele><time>2026-04-19T12:06:22.961Z</time></trkpt><trkpt lat="45.182830527511236" lon="7.645649465166041"><ele>282.0</ele><time>2026-04-19T12:06:23.961Z</time></trkpt><trkpt lat="45.18301876544123" lon="7.645562197218364"><ele>282.0</ele><time>2026-04-19T12:06:24.961Z</time></trkpt><trkpt lat="45.183208937971905" lon="7.645500955423632"><ele>282.0</ele><time>2026-04-19T12:06:25.961Z</time></trkpt><trkpt lat="45.18340147281424" lon="7.645455887378362"><ele>282.0</ele><time>2026-04-19T12:06:26.961Z</time></trkpt><trkpt lat="45.18359529412095" lon="7.645422036100545"><ele>282.0</ele><time>2026-04-19T12:06:27.961Z</time></trkpt><trkpt lat="45.1837901118627" lon="7.645394428536325"><ele>282.0</ele><time>2026-04-19T12:06:28.961Z</time></trkpt><trkpt lat="45.18398855201632" lon="7.645361267361919"><ele>282.0</ele><time>2026-04-19T12:06:29.961Z</time></trkpt><trkpt lat="45.184188338238634" lon="7.645322360178678"><ele>282.0</ele><time>2026-04-19T12:06:30.961Z</time></trkpt><trkpt lat="45.18438612654412" lon="7.645282757433821"><ele>282.0</ele><time>2026-04-19T12:06:31.961Z</time></trkpt><trkpt lat="45.18458463613346" lon="7.64524371737471"><ele>282.0</ele><time>2026-04-19T12:06:32.961Z</time></trkpt><trkpt lat="45.18478521843128" lon="7.645207238237056"><ele>282.0</ele><time>2026-04-19T12:06:33.961Z</time></trkpt><trkpt lat="45.18498599423448" lon="7.645160922701941"><ele>282.0</ele><time>2026-04-19T12:06:34.961Z</time></trkpt><trkpt lat="45.18518485916714" lon="7.645095907658"><ele>282.6666666666667</ele><time>2026-04-19T12:06:35.959Z</time></trkpt><trkpt lat="45.185380686923466" lon="7.645023440412458"><ele>283.33333333333337</ele><time>2026-04-19T12:06:36.958Z</time></trkpt><trkpt lat="45.185573883977234" lon="7.64493234130608"><ele>284.0</ele><time>2026-04-19T12:06:37.958Z</time></trkpt><trkpt lat="45.18575780200311" lon="7.644821105954454"><ele>284.0</ele><time>2026-04-19T12:06:38.958Z</time></trkpt><trkpt lat="45.18593440135105" lon="7.644692207310827"><ele>284.0</ele><time>2026-04-19T12:06:39.958Z</time></trkpt><trkpt lat="45.18610370962875" lon="7.644550273970095"><ele>284.0</ele><time>2026-04-19T12:06:40.958Z</time></trkpt><trkpt lat="45.186271411430546" lon="7.644400978023572"><ele>284.0</ele><time>2026-04-19T12:06:41.958Z</time></trkpt><trkpt lat="45.186432458134846" lon="7.644248773588299"><ele>284.0</ele><time>2026-04-19T12:06:42.958Z</time></trkpt><trkpt lat="45.186588824743254" lon="7.644085531568853"><ele>284.0</ele><time>2026-04-19T12:06:43.958Z</time></trkpt><trkpt lat="45.18673312645567" lon="7.643902687076822"><ele>284.33333333333337</ele><time>2026-04-19T12:06:44.959Z</time></trkpt><trkpt lat="45.18686263722557" lon="7.6437081246503515"><ele>284.6666666666667</ele><time>2026-04-19T12:06:45.958Z</time></trkpt><trkpt lat="45.1869813625606" lon="7.6434976767952145"><ele>285.0</ele><time>2026-04-19T12:06:46.958Z</time></trkpt><trkpt lat="45.187095436467196" lon="7.643277195191236"><ele>285.3333333333333</ele><time>2026-04-19T12:06:47.959Z</time></trkpt><trkpt lat="45.18720892320841" lon="7.643055153014891"><ele>285.66666666666663</ele><time>2026-04-19T12:06:48.958Z</time></trkpt><trkpt lat="45.18732110198679" lon="7.642834163326379"><ele>286.0</ele><time>2026-04-19T12:06:49.958Z</time></trkpt><trkpt lat="45.1874326605643" lon="7.6426092805157"><ele>286.3333333333333</ele><time>2026-04-19T12:06:50.958Z</time></trkpt><trkpt lat="45.18754801996336" lon="7.6423795412828355"><ele>286.6666666666667</ele><time>2026-04-19T12:06:51.958Z</time></trkpt><trkpt lat="45.187662267306024" lon="7.642152612706323"><ele>287.0</ele><time>2026-04-19T12:06:52.958Z</time></trkpt><trkpt lat="45.187774536453865" lon="7.641936652430818"><ele>287.0</ele><time>2026-04-19T12:06:53.958Z</time></trkpt><trkpt lat="45.18786966764203" lon="7.641733825875566"><ele>287.0</ele><time>2026-04-19T12:06:54.958Z</time></trkpt><trkpt lat="45.187957872794634" lon="7.641541051948425"><ele>287.0</ele><time>2026-04-19T12:06:55.958Z</time></trkpt><trkpt lat="45.18803758536328" lon="7.641363522844085"><ele>287.0</ele><time>2026-04-19T12:06:56.958Z</time></trkpt><trkpt lat="45.18810389661499" lon="7.641214278139543"><ele>287.0</ele><time>2026-04-19T12:06:57.958Z</time></trkpt><trkpt lat="45.18816061997541" lon="7.641079236987115"><ele>287.0</ele><time>2026-04-19T12:06:58.958Z</time></trkpt><trkpt lat="45.188211980362226" lon="7.640955761226501"><ele>287.0</ele><time>2026-04-19T12:06:59.958Z</time></trkpt><trkpt lat="45.188254425314355" lon="7.6408571877634"><ele>287.0</ele><time>2026-04-19T12:07:00.958Z</time></trkpt><trkpt lat="45.188297898711966" lon="7.640753079296582"><ele>287.2</ele><time>2026-04-19T12:07:01.958Z</time></trkpt><trkpt lat="45.188354422803634" lon="7.640606093852998"><ele>287.4</ele><time>2026-04-19T12:07:03.958Z</time></trkpt><trkpt lat="45.18839568449719" lon="7.6404799704582445"><ele>287.6</ele><time>2026-04-19T12:07:05.958Z</time></trkpt><trkpt lat="45.18844525425169" lon="7.6403444359766555"><ele>287.8</ele><time>2026-04-19T12:07:07.958Z</time></trkpt><trkpt lat="45.188498670739975" lon="7.640197497746065"><ele>288.0</ele><time>2026-04-19T12:07:09.958Z</time></trkpt><trkpt lat="45.18852730275074" lon="7.640115742183866"><ele>288.0</ele><time>2026-04-19T12:07:10.958Z</time></trkpt><trkpt lat="45.18856157111759" lon="7.6400249817861665"><ele>288.0</ele><time>2026-04-19T12:07:11.958Z</time></trkpt><trkpt lat="45.188598488571444" lon="7.639918221594742"><ele>288.0</ele><time>2026-04-19T12:07:12.958Z</time></trkpt><trkpt lat="45.18864109644378" lon="7.639800690588684"><ele>288.0</ele><time>2026-04-19T12:07:13.958Z</time></trkpt><trkpt lat="45.1886878797487" lon="7.639658450381028"><ele>288.0</ele><time>2026-04-19T12:07:14.958Z</time></trkpt><trkpt lat="45.18874002287076" lon="7.639501366656666"><ele>287.75</ele><time>2026-04-19T12:07:15.958Z</time></trkpt><trkpt lat="45.18879363588178" lon="7.639347518233252"><ele>287.5</ele><time>2026-04-19T12:07:16.958Z</time></trkpt><trkpt lat="45.18884625826804" lon="7.639191240598748"><ele>287.25</ele><time>2026-04-19T12:07:17.958Z</time></trkpt><trkpt lat="45.18890241695738" lon="7.639036016863067"><ele>287.0</ele><time>2026-04-19T12:07:18.958Z</time></trkpt><trkpt lat="45.188960652899524" lon="7.638871442030142"><ele>287.0</ele><time>2026-04-19T12:07:19.958Z</time></trkpt><trkpt lat="45.189023149713464" lon="7.638695583156543"><ele>287.0</ele><time>2026-04-19T12:07:20.958Z</time></trkpt><trkpt lat="45.189089523861846" lon="7.638514034870998"><ele>287.0</ele><time>2026-04-19T12:07:21.958Z</time></trkpt><trkpt lat="45.18915472499084" lon="7.638316234064788"><ele>287.0</ele><time>2026-04-19T12:07:22.958Z</time></trkpt><trkpt lat="45.189226094515305" lon="7.6381055720969755"><ele>288.0</ele><time>2026-04-19T12:07:23.958Z</time></trkpt><trkpt lat="45.189304269926" lon="7.637895285279104"><ele>289.0</ele><time>2026-04-19T12:07:24.958Z</time></trkpt><trkpt lat="45.18938609842144" lon="7.637691249486418"><ele>290.0</ele><time>2026-04-19T12:07:25.958Z</time></trkpt><trkpt lat="45.189458513271354" lon="7.63748626527681"><ele>290.33333333333337</ele><time>2026-04-19T12:07:26.958Z</time></trkpt><trkpt lat="45.18952839043347" lon="7.6372701646108245"><ele>290.6666666666667</ele><time>2026-04-19T12:07:27.958Z</time></trkpt><trkpt lat="45.18960412172453" lon="7.637072313754465"><ele>291.0</ele><time>2026-04-19T12:07:28.958Z</time></trkpt><trkpt lat="45.18967242261918" lon="7.636877550727658"><ele>291.3333333333333</ele><time>2026-04-19T12:07:29.958Z</time></trkpt><trkpt lat="45.18974040384728" lon="7.636687914141676"><ele>291.66666666666663</ele><time>2026-04-19T12:07:30.958Z</time></trkpt><trkpt lat="45.189808530462685" lon="7.636502124281644"><ele>292.0</ele><time>2026-04-19T12:07:31.958Z</time></trkpt><trkpt lat="45.18988105021502" lon="7.636311669464081"><ele>292.3333333333333</ele><time>2026-04-19T12:07:32.958Z</time></trkpt><trkpt lat="45.189953290868765" lon="7.636115311655834"><ele>292.6666666666667</ele><time>2026-04-19T12:07:33.959Z</time></trkpt><trkpt lat="45.190029282088375" lon="7.635910204482586"><ele>293.0</ele><time>2026-04-19T12:07:34.959Z</time></trkpt><trkpt lat="45.19011101502221" lon="7.63569834817373"><ele>293.0</ele><time>2026-04-19T12:07:35.959Z</time></trkpt><trkpt lat="45.190191763624526" lon="7.63547655136596"><ele>293.0</ele><time>2026-04-19T12:07:36.959Z</time></trkpt><trkpt lat="45.19027750632695" lon="7.635247553825032"><ele>293.0</ele><time>2026-04-19T12:07:37.959Z</time></trkpt><trkpt lat="45.19036954202993" lon="7.635012345122785"><ele>293.0</ele><time>2026-04-19T12:07:38.959Z</time></trkpt><trkpt lat="45.190470208632256" lon="7.634776647536281"><ele>293.0</ele><time>2026-04-19T12:07:39.959Z</time></trkpt><trkpt lat="45.19057610903222" lon="7.634534496427496"><ele>293.0</ele><time>2026-04-19T12:07:40.959Z</time></trkpt><trkpt lat="45.19068306446108" lon="7.634282235388059"><ele>293.0</ele><time>2026-04-19T12:07:41.959Z</time></trkpt><trkpt lat="45.190789577890634" lon="7.634023251544695"><ele>293.0</ele><time>2026-04-19T12:07:42.959Z</time></trkpt><trkpt lat="45.190903832952756" lon="7.633757357802556"><ele>293.0</ele><time>2026-04-19T12:07:43.959Z</time></trkpt><trkpt lat="45.19101741511418" lon="7.6334994349470175"><ele>294.0</ele><time>2026-04-19T12:07:44.959Z</time></trkpt><trkpt lat="45.19114175508751" lon="7.633235004774229"><ele>295.0</ele><time>2026-04-19T12:07:45.959Z</time></trkpt><trkpt lat="45.19126386151663" lon="7.632981416409264"><ele>296.0</ele><time>2026-04-19T12:07:46.959Z</time></trkpt><trkpt lat="45.19137799954245" lon="7.632739994401861"><ele>296.0</ele><time>2026-04-19T12:07:47.959Z</time></trkpt><trkpt lat="45.191491190460056" lon="7.632505451559317"><ele>296.0</ele><time>2026-04-19T12:07:48.959Z</time></trkpt><trkpt lat="45.19161228947464" lon="7.632264608913341"><ele>296.0</ele><time>2026-04-19T12:07:49.959Z</time></trkpt><trkpt lat="45.191734064956535" lon="7.632025613571873"><ele>296.33333333333337</ele><time>2026-04-19T12:07:50.959Z</time></trkpt><trkpt lat="45.191857450893046" lon="7.631790328651302"><ele>296.6666666666667</ele><time>2026-04-19T12:07:51.959Z</time></trkpt><trkpt lat="45.191980598388035" lon="7.631557467201191"><ele>297.0</ele><time>2026-04-19T12:07:52.959Z</time></trkpt><trkpt lat="45.19209646783491" lon="7.63133534200567"><ele>297.0</ele><time>2026-04-19T12:07:53.959Z</time></trkpt><trkpt lat="45.19221515522145" lon="7.631112031240971"><ele>297.0</ele><time>2026-04-19T12:07:54.959Z</time></trkpt><trkpt lat="45.19233015088397" lon="7.630892065097593"><ele>297.0</ele><time>2026-04-19T12:07:55.959Z</time></trkpt><trkpt lat="45.19244093573619" lon="7.630675358669219"><ele>297.0</ele><time>2026-04-19T12:07:56.959Z</time></trkpt><trkpt lat="45.192547517254916" lon="7.630468088350504"><ele>297.0</ele><time>2026-04-19T12:07:57.959Z</time></trkpt><trkpt lat="45.19264963332083" lon="7.630271134431228"><ele>297.0</ele><time>2026-04-19T12:07:58.959Z</time></trkpt><trkpt lat="45.192752337819165" lon="7.63007784243722"><ele>297.0</ele><time>2026-04-19T12:07:59.959Z</time></trkpt><trkpt lat="45.19285538357897" lon="7.629877897195951"><ele>297.0</ele><time>2026-04-19T12:08:00.959Z</time></trkpt><trkpt lat="45.19295653655068" lon="7.629680238482096"><ele>297.0</ele><time>2026-04-19T12:08:01.959Z</time></trkpt><trkpt lat="45.193060241618284" lon="7.629480965149033"><ele>297.3333333333333</ele><time>2026-04-19T12:08:02.959Z</time></trkpt><trkpt lat="45.19316724553511" lon="7.629282568210756"><ele>297.66666666666663</ele><time>2026-04-19T12:08:03.959Z</time></trkpt><trkpt lat="45.19327034993545" lon="7.629094488725322"><ele>298.0</ele><time>2026-04-19T12:08:04.959Z</time></trkpt><trkpt lat="45.19336496231335" lon="7.628915601375292"><ele>298.25</ele><time>2026-04-19T12:08:05.959Z</time></trkpt><trkpt lat="45.193449949085675" lon="7.628756269325609"><ele>298.5</ele><time>2026-04-19T12:08:06.959Z</time></trkpt><trkpt lat="45.19353001520303" lon="7.62861195641162"><ele>298.75</ele><time>2026-04-19T12:08:07.959Z</time></trkpt><trkpt lat="45.19360773250279" lon="7.628473270771133"><ele>299.0</ele><time>2026-04-19T12:08:08.959Z</time></trkpt><trkpt lat="45.19367950318762" lon="7.628337466753895"><ele>299.0</ele><time>2026-04-19T12:08:09.959Z</time></trkpt><trkpt lat="45.193751650741206" lon="7.628209813834026"><ele>299.0</ele><time>2026-04-19T12:08:10.959Z</time></trkpt><trkpt lat="45.19381763532186" lon="7.6280945785657135"><ele>299.0</ele><time>2026-04-19T12:08:11.959Z</time></trkpt><trkpt lat="45.19388240567447" lon="7.62799807899019"><ele>299.0</ele><time>2026-04-19T12:08:12.959Z</time></trkpt><trkpt lat="45.19395936878883" lon="7.6279227917900245"><ele>299.0</ele><time>2026-04-19T12:08:13.959Z</time></trkpt><trkpt lat="45.19403118130951" lon="7.627859404524099"><ele>299.2</ele><time>2026-04-19T12:08:14.959Z</time></trkpt><trkpt lat="45.19409149511653" lon="7.627773548699928"><ele>299.4</ele><time>2026-04-19T12:08:15.959Z</time></trkpt><trkpt lat="45.19413047671074" lon="7.627664319807959"><ele>299.6</ele><time>2026-04-19T12:08:16.959Z</time></trkpt><trkpt lat="45.19415316348482" lon="7.627539098079386"><ele>299.8</ele><time>2026-04-19T12:08:17.959Z</time></trkpt><trkpt lat="45.19418623616072" lon="7.6273982862941745"><ele>300.0</ele><time>2026-04-19T12:08:18.959Z</time></trkpt><trkpt lat="45.19424401768309" lon="7.627260958566228"><ele>300.0</ele><time>2026-04-19T12:08:19.959Z</time></trkpt><trkpt lat="45.19431945517206" lon="7.627124181748198"><ele>300.0</ele><time>2026-04-19T12:08:20.959Z</time></trkpt><trkpt lat="45.194397506318" lon="7.626961302471182"><ele>300.0</ele><time>2026-04-19T12:08:21.959Z</time></trkpt><trkpt lat="45.19448130806348" lon="7.626782744031149"><ele>300.0</ele><time>2026-04-19T12:08:22.959Z</time></trkpt><trkpt lat="45.194573920563265" lon="7.6266062782737265"><ele>300.0</ele><time>2026-04-19T12:08:23.959Z</time></trkpt><trkpt lat="45.194670490062784" lon="7.626421865714288"><ele>300.0</ele><time>2026-04-19T12:08:24.959Z</time></trkpt><trkpt lat="45.19476970718518" lon="7.626242053192789"><ele>300.0</ele><time>2026-04-19T12:08:25.959Z</time></trkpt><trkpt lat="45.19486502753058" lon="7.6260737432157715"><ele>300.25</ele><time>2026-04-19T12:08:26.959Z</time></trkpt><trkpt lat="45.19496635156853" lon="7.625941216137506"><ele>300.5</ele><time>2026-04-19T12:08:27.959Z</time></trkpt><trkpt lat="45.19504163630375" lon="7.625796078633803"><ele>300.75</ele><time>2026-04-19T12:08:28.959Z</time></trkpt><trkpt lat="45.195129461157855" lon="7.625671253465233"><ele>301.0</ele><time>2026-04-19T12:08:29.959Z</time></trkpt><trkpt lat="45.195215869651896" lon="7.625555644269456"><ele>301.0</ele><time>2026-04-19T12:08:30.959Z</time></trkpt><trkpt lat="45.19530000463289" lon="7.625441374005918"><ele>301.0</ele><time>2026-04-19T12:08:31.959Z</time></trkpt><trkpt lat="45.195391204081204" lon="7.625332843469409"><ele>301.0</ele><time>2026-04-19T12:08:32.959Z</time></trkpt><trkpt lat="45.19547929435429" lon="7.625238976808577"><ele>301.0</ele><time>2026-04-19T12:08:33.959Z</time></trkpt><trkpt lat="45.19556267969327" lon="7.625155527711965"><ele>301.0</ele><time>2026-04-19T12:08:34.959Z</time></trkpt><trkpt lat="45.19564457738515" lon="7.625081429722171"><ele>301.0</ele><time>2026-04-19T12:08:35.959Z</time></trkpt><trkpt lat="45.195726642005866" lon="7.625028120104275"><ele>301.0</ele><time>2026-04-19T12:08:36.959Z</time></trkpt><trkpt lat="45.19581313440651" lon="7.625010557432481"><ele>301.0</ele><time>2026-04-19T12:08:37.959Z</time></trkpt><trkpt lat="45.19589771460468" lon="7.625005197125234"><ele>301.0</ele><time>2026-04-19T12:08:38.959Z</time></trkpt><trkpt lat="45.19596908362848" lon="7.624960536440508"><ele>301.0</ele><time>2026-04-19T12:08:39.959Z</time></trkpt><trkpt lat="45.19603369672187" lon="7.624874485492708"><ele>301.0</ele><time>2026-04-19T12:08:40.959Z</time></trkpt><trkpt lat="45.19608848404404" lon="7.624762839101164"><ele>301.0</ele><time>2026-04-19T12:08:41.957Z</time></trkpt><trkpt lat="45.19615210620869" lon="7.624640257956265"><ele>301.0</ele><time>2026-04-19T12:08:42.957Z</time></trkpt><trkpt lat="45.196238992855044" lon="7.624541676480404"><ele>301.0</ele><time>2026-04-19T12:08:43.957Z</time></trkpt><trkpt lat="45.1963380198006" lon="7.6244536489192605"><ele>301.0</ele><time>2026-04-19T12:08:44.957Z</time></trkpt><trkpt lat="45.196425569649456" lon="7.624332107824764"><ele>301.5</ele><time>2026-04-19T12:08:45.956Z</time></trkpt><trkpt lat="45.19655682806965" lon="7.624254065353482"><ele>302.0</ele><time>2026-04-19T12:08:46.956Z</time></trkpt><trkpt lat="45.19667776702689" lon="7.6241579149956324"><ele>302.5</ele><time>2026-04-19T12:08:47.957Z</time></trkpt><trkpt lat="45.19680871280999" lon="7.624055976609451"><ele>303.0</ele><time>2026-04-19T12:08:48.957Z</time></trkpt><trkpt lat="45.196946530877014" lon="7.6239363636273945"><ele>303.0</ele><time>2026-04-19T12:08:49.957Z</time></trkpt><trkpt lat="45.19709187363325" lon="7.623812830100978"><ele>303.0</ele><time>2026-04-19T12:08:50.957Z</time></trkpt><trkpt lat="45.19724580676716" lon="7.623690162362572"><ele>303.0</ele><time>2026-04-19T12:08:51.957Z</time></trkpt><trkpt lat="45.19740667467598" lon="7.623561023989921"><ele>304.3333333333333</ele><time>2026-04-19T12:08:52.957Z</time></trkpt><trkpt lat="45.19757240721789" lon="7.623427386782724"><ele>305.66666666666663</ele><time>2026-04-19T12:08:53.957Z</time></trkpt><trkpt lat="45.197745013465756" lon="7.62329007209072"><ele>307.0</ele><time>2026-04-19T12:08:54.956Z</time></trkpt><trkpt lat="45.197920834900636" lon="7.623147630424125"><ele>307.0</ele><time>2026-04-19T12:08:55.956Z</time></trkpt><trkpt lat="45.19809173475031" lon="7.623016328960849"><ele>307.0</ele><time>2026-04-19T12:08:56.956Z</time></trkpt><trkpt lat="45.19825689931939" lon="7.622893921967636"><ele>307.0</ele><time>2026-04-19T12:08:57.956Z</time></trkpt><trkpt lat="45.19842017280389" lon="7.622771123801166"><ele>307.0</ele><time>2026-04-19T12:08:58.956Z</time></trkpt><trkpt lat="45.19858238219475" lon="7.622664635627598"><ele>307.0</ele><time>2026-04-19T12:08:59.956Z</time></trkpt><trkpt lat="45.19874615102768" lon="7.622574960389208"><ele>307.0</ele><time>2026-04-19T12:09:00.956Z</time></trkpt><trkpt lat="45.19891483012994" lon="7.6224957685745975"><ele>307.3333333333333</ele><time>2026-04-19T12:09:01.956Z</time></trkpt><trkpt lat="45.19908216123241" lon="7.622431642704474"><ele>307.6666666666667</ele><time>2026-04-19T12:09:02.956Z</time></trkpt><trkpt lat="45.19924340987773" lon="7.62238400786687"><ele>308.0</ele><time>2026-04-19T12:09:03.956Z</time></trkpt><trkpt lat="45.19939434332899" lon="7.622347053389381"><ele>308.0</ele><time>2026-04-19T12:09:04.956Z</time></trkpt><trkpt lat="45.19953242389251" lon="7.622332616948668"><ele>308.0</ele><time>2026-04-19T12:09:05.956Z</time></trkpt><trkpt lat="45.199660979829716" lon="7.622318222173906"><ele>308.0</ele><time>2026-04-19T12:09:06.956Z</time></trkpt><trkpt lat="45.19978104967114" lon="7.622308162634822"><ele>308.0</ele><time>2026-04-19T12:09:07.956Z</time></trkpt><trkpt lat="45.19987033638779" lon="7.622321824445884"><ele>308.0</ele><time>2026-04-19T12:09:08.956Z</time></trkpt><trkpt lat="45.19994655556235" lon="7.62231559709942"><ele>308.0</ele><time>2026-04-19T12:09:09.956Z</time></trkpt><trkpt lat="45.20003430176028" lon="7.622303117065913"><ele>308.0</ele><time>2026-04-19T12:09:11.956Z</time></trkpt><trkpt lat="45.20010538676346" lon="7.622278728453728"><ele>308.0</ele><time>2026-04-19T12:09:31.956Z</time></trkpt><trkpt lat="45.20021748303183" lon="7.622285372865689"><ele>308.0</ele><time>2026-04-19T12:09:33.956Z</time></trkpt><trkpt lat="45.200307007406224" lon="7.622278169317201"><ele>308.0</ele><time>2026-04-19T12:09:34.956Z</time></trkpt><trkpt lat="45.20039513534342" lon="7.6222637872116765"><ele>308.0</ele><time>2026-04-19T12:09:35.956Z</time></trkpt><trkpt lat="45.200489705272496" lon="7.622237600176562"><ele>308.0</ele><time>2026-04-19T12:09:36.956Z</time></trkpt><trkpt lat="45.20059403142938" lon="7.622200740772654"><ele>308.0</ele><time>2026-04-19T12:09:37.956Z</time></trkpt><trkpt lat="45.200706569776735" lon="7.622149378758347"><ele>308.0</ele><time>2026-04-19T12:09:38.956Z</time></trkpt><trkpt lat="45.20081773719481" lon="7.622090324880405"><ele>308.0</ele><time>2026-04-19T12:09:39.956Z</time></trkpt><trkpt lat="45.200941185185386" lon="7.622025556108235"><ele>308.25</ele><time>2026-04-19T12:09:40.956Z</time></trkpt><trkpt lat="45.20106986882791" lon="7.621959830086051"><ele>308.5</ele><time>2026-04-19T12:09:41.956Z</time></trkpt><trkpt lat="45.201208965038674" lon="7.621892098564913"><ele>308.75</ele><time>2026-04-19T12:09:42.956Z</time></trkpt><trkpt lat="45.20135976064602" lon="7.621836094484697"><ele>309.0</ele><time>2026-04-19T12:09:43.956Z</time></trkpt><trkpt lat="45.20150646997757" lon="7.621748613233892"><ele>309.3333333333333</ele><time>2026-04-19T12:09:44.956Z</time></trkpt><trkpt lat="45.201663287038635" lon="7.621665548333158"><ele>309.66666666666663</ele><time>2026-04-19T12:09:45.957Z</time></trkpt><trkpt lat="45.2018299882197" lon="7.6215804316445555"><ele>310.0</ele><time>2026-04-19T12:09:46.957Z</time></trkpt><trkpt lat="45.20198673335038" lon="7.621495833188971"><ele>310.0</ele><time>2026-04-19T12:09:47.957Z</time></trkpt><trkpt lat="45.202134776488215" lon="7.621406156281118"><ele>310.0</ele><time>2026-04-19T12:09:48.957Z</time></trkpt><trkpt lat="45.202281476991075" lon="7.6213148061301155"><ele>310.0</ele><time>2026-04-19T12:09:49.957Z</time></trkpt><trkpt lat="45.20243274551551" lon="7.621223556622692"><ele>310.66666666666663</ele><time>2026-04-19T12:09:50.957Z</time></trkpt><trkpt lat="45.202584476825514" lon="7.621128778748313"><ele>311.3333333333333</ele><time>2026-04-19T12:09:51.957Z</time></trkpt><trkpt lat="45.20273460410274" lon="7.621039167826747"><ele>312.0</ele><time>2026-04-19T12:09:52.957Z</time></trkpt><trkpt lat="45.202892862324994" lon="7.620943049852767"><ele>312.0</ele><time>2026-04-19T12:09:53.957Z</time></trkpt><trkpt lat="45.20305372772941" lon="7.620845684759759"><ele>312.0</ele><time>2026-04-19T12:09:54.957Z</time></trkpt><trkpt lat="45.20321661587369" lon="7.620741406878374"><ele>312.0</ele><time>2026-04-19T12:09:55.957Z</time></trkpt><trkpt lat="45.20338034712543" lon="7.620621359795555"><ele>312.6666666666667</ele><time>2026-04-19T12:09:56.957Z</time></trkpt><trkpt lat="45.203547396358196" lon="7.620496088550229"><ele>313.33333333333337</ele><time>2026-04-19T12:09:57.957Z</time></trkpt><trkpt lat="45.2037187856945" lon="7.620380420785639"><ele>314.0</ele><time>2026-04-19T12:09:58.957Z</time></trkpt><trkpt lat="45.20389418954703" lon="7.620263578120741"><ele>314.6666666666667</ele><time>2026-04-19T12:09:59.957Z</time></trkpt><trkpt lat="45.204072197569324" lon="7.62014467982374"><ele>315.3333333333333</ele><time>2026-04-19T12:10:00.957Z</time></trkpt><trkpt lat="45.20425134513164" lon="7.620018191220598"><ele>316.0</ele><time>2026-04-19T12:10:01.957Z</time></trkpt><trkpt lat="45.20441265486845" lon="7.619900395758064"><ele>316.0</ele><time>2026-04-19T12:10:02.957Z</time></trkpt><trkpt lat="45.204563045167106" lon="7.619793860358524"><ele>316.0</ele><time>2026-04-19T12:10:03.957Z</time></trkpt><trkpt lat="45.20470159746844" lon="7.6196937189799"><ele>316.0</ele><time>2026-04-19T12:10:04.957Z</time></trkpt><trkpt lat="45.204831253165366" lon="7.619601413363747"><ele>316.25</ele><time>2026-04-19T12:10:05.957Z</time></trkpt><trkpt lat="45.20495474322864" lon="7.6195163860800115"><ele>316.5</ele><time>2026-04-19T12:10:06.957Z</time></trkpt><trkpt lat="45.20506962077316" lon="7.619434879955628"><ele>316.75</ele><time>2026-04-19T12:10:07.957Z</time></trkpt><trkpt lat="45.20517707310575" lon="7.6193649435381685"><ele>317.0</ele><time>2026-04-19T12:10:08.957Z</time></trkpt><trkpt lat="45.20527814571577" lon="7.619310949110323"><ele>317.0</ele><time>2026-04-19T12:10:09.957Z</time></trkpt><trkpt lat="45.205375871560996" lon="7.619276760491577"><ele>317.0</ele><time>2026-04-19T12:10:10.957Z</time></trkpt><trkpt lat="45.205473685048986" lon="7.61927944737416"><ele>317.0</ele><time>2026-04-19T12:10:11.957Z</time></trkpt><trkpt lat="45.20557441175147" lon="7.619265890953676"><ele>317.0</ele><time>2026-04-19T12:10:12.957Z</time></trkpt><trkpt lat="45.20565531315853" lon="7.619219434723538"><ele>317.0</ele><time>2026-04-19T12:10:13.957Z</time></trkpt><trkpt lat="45.205719330689924" lon="7.619147072239566"><ele>317.25</ele><time>2026-04-19T12:10:14.957Z</time></trkpt><trkpt lat="45.205785515863916" lon="7.619031811626142"><ele>317.5</ele><time>2026-04-19T12:10:15.957Z</time></trkpt><trkpt lat="45.20587309718311" lon="7.618923106582724"><ele>317.75</ele><time>2026-04-19T12:10:16.957Z</time></trkpt><trkpt lat="45.20598249442516" lon="7.618829801147833"><ele>318.0</ele><time>2026-04-19T12:10:17.957Z</time></trkpt><trkpt lat="45.20610157708942" lon="7.618750041973175"><ele>318.0</ele><time>2026-04-19T12:10:18.957Z</time></trkpt><trkpt lat="45.20623554183616" lon="7.618668325411738"><ele>318.0</ele><time>2026-04-19T12:10:19.957Z</time></trkpt><trkpt lat="45.20638283426857" lon="7.6185631524432225"><ele>318.0</ele><time>2026-04-19T12:10:20.957Z</time></trkpt><trkpt lat="45.206541699979525" lon="7.618457996883545"><ele>317.0</ele><time>2026-04-19T12:10:21.957Z</time></trkpt><trkpt lat="45.2067110720165" lon="7.618349752299999"><ele>316.0</ele><time>2026-04-19T12:10:22.957Z</time></trkpt><trkpt lat="45.20688662073562" lon="7.61823063082311"><ele>315.0</ele><time>2026-04-19T12:10:23.957Z</time></trkpt><trkpt lat="45.20707096299604" lon="7.6181082775405615"><ele>315.0</ele><time>2026-04-19T12:10:24.957Z</time></trkpt><trkpt lat="45.2072641793968" lon="7.61797705943779"><ele>315.0</ele><time>2026-04-19T12:10:25.957Z</time></trkpt><trkpt lat="45.207464709837254" lon="7.617842615473377"><ele>315.0</ele><time>2026-04-19T12:10:26.957Z</time></trkpt><trkpt lat="45.207656660539875" lon="7.617715040043015"><ele>315.3333333333333</ele><time>2026-04-19T12:10:27.957Z</time></trkpt><trkpt lat="45.207835615801216" lon="7.61759292661679"><ele>315.66666666666663</ele><time>2026-04-19T12:10:28.957Z</time></trkpt><trkpt lat="45.208023229477355" lon="7.617466691181103"><ele>316.0</ele><time>2026-04-19T12:10:29.957Z</time></trkpt><trkpt lat="45.208214501959894" lon="7.617335189061432"><ele>316.0</ele><time>2026-04-19T12:10:30.957Z</time></trkpt><trkpt lat="45.208404305210166" lon="7.617197955063484"><ele>316.0</ele><time>2026-04-19T12:10:31.957Z</time></trkpt><trkpt lat="45.2085988541774" lon="7.61706930683951"><ele>316.0</ele><time>2026-04-19T12:10:32.957Z</time></trkpt><trkpt lat="45.20879230947107" lon="7.6169395070695085"><ele>316.3333333333333</ele><time>2026-04-19T12:10:33.957Z</time></trkpt><trkpt lat="45.20898353829448" lon="7.6168108562702965"><ele>316.6666666666667</ele><time>2026-04-19T12:10:34.957Z</time></trkpt><trkpt lat="45.20917949326892" lon="7.616677825159829"><ele>317.0</ele><time>2026-04-19T12:10:35.957Z</time></trkpt><trkpt lat="45.209378770798224" lon="7.6165396692121945"><ele>318.0</ele><time>2026-04-19T12:10:36.957Z</time></trkpt><trkpt lat="45.20958123259805" lon="7.616402561723449"><ele>319.0</ele><time>2026-04-19T12:10:37.957Z</time></trkpt><trkpt lat="45.209785927764024" lon="7.616265648413238"><ele>319.0</ele><time>2026-04-19T12:10:38.957Z</time></trkpt><trkpt lat="45.209992979834816" lon="7.616127218061736"><ele>319.0</ele><time>2026-04-19T12:10:39.957Z</time></trkpt><trkpt lat="45.21020165498873" lon="7.615990899999465"><ele>319.0</ele><time>2026-04-19T12:10:40.957Z</time></trkpt><trkpt lat="45.21040937332085" lon="7.615854161517342"><ele>319.0</ele><time>2026-04-19T12:10:41.957Z</time></trkpt><trkpt lat="45.21061601835369" lon="7.615718922770016"><ele>320.0</ele><time>2026-04-19T12:10:42.957Z</time></trkpt><trkpt lat="45.210824623830355" lon="7.615583037082968"><ele>321.0</ele><time>2026-04-19T12:10:43.957Z</time></trkpt><trkpt lat="45.21103383551425" lon="7.615444854586612"><ele>320.5</ele><time>2026-04-19T12:10:44.957Z</time></trkpt><trkpt lat="45.21124340428991" lon="7.6153052965094465"><ele>320.0</ele><time>2026-04-19T12:10:45.957Z</time></trkpt><trkpt lat="45.21145428322283" lon="7.61516461044632"><ele>319.5</ele><time>2026-04-19T12:10:46.957Z</time></trkpt><trkpt lat="45.21166406618567" lon="7.615027695571374"><ele>319.0</ele><time>2026-04-19T12:10:47.955Z</time></trkpt><trkpt lat="45.21187612626839" lon="7.6148885996427165"><ele>319.0</ele><time>2026-04-19T12:10:48.955Z</time></trkpt><trkpt lat="45.212088270716535" lon="7.614749206870336"><ele>319.0</ele><time>2026-04-19T12:10:49.955Z</time></trkpt><trkpt lat="45.21229897118147" lon="7.614609388311658"><ele>319.5</ele><time>2026-04-19T12:10:50.955Z</time></trkpt><trkpt lat="45.212512486568365" lon="7.614467655600315"><ele>320.0</ele><time>2026-04-19T12:10:51.955Z</time></trkpt><trkpt lat="45.21272397548575" lon="7.614325199201003"><ele>320.0</ele><time>2026-04-19T12:10:52.955Z</time></trkpt><trkpt lat="45.21294065517906" lon="7.614185305631682"><ele>320.0</ele><time>2026-04-19T12:10:53.955Z</time></trkpt><trkpt lat="45.21315243030732" lon="7.6140438280473495"><ele>320.5</ele><time>2026-04-19T12:10:54.955Z</time></trkpt><trkpt lat="45.21336179895236" lon="7.6139068335751"><ele>321.0</ele><time>2026-04-19T12:10:55.955Z</time></trkpt><trkpt lat="45.21357342415768" lon="7.613764877575137"><ele>321.0</ele><time>2026-04-19T12:10:56.955Z</time></trkpt><trkpt lat="45.21378629821485" lon="7.613622438570036"><ele>321.0</ele><time>2026-04-19T12:10:57.955Z</time></trkpt><trkpt lat="45.21399083179075" lon="7.6134891401757745"><ele>321.3333333333333</ele><time>2026-04-19T12:10:58.955Z</time></trkpt><trkpt lat="45.21418588496836" lon="7.6133569533897285"><ele>321.66666666666663</ele><time>2026-04-19T12:10:59.955Z</time></trkpt><trkpt lat="45.2143689985003" lon="7.613233959786712"><ele>322.0</ele><time>2026-04-19T12:11:00.955Z</time></trkpt><trkpt lat="45.214538798134456" lon="7.613113321554563"><ele>322.0</ele><time>2026-04-19T12:11:01.955Z</time></trkpt><trkpt lat="45.21469191698239" lon="7.6130061771873265"><ele>322.0</ele><time>2026-04-19T12:11:02.955Z</time></trkpt><trkpt lat="45.21482715448042" lon="7.612913837958087"><ele>322.0</ele><time>2026-04-19T12:11:03.955Z</time></trkpt><trkpt lat="45.214951905886835" lon="7.612833602561789"><ele>322.40000000000003</ele><time>2026-04-19T12:11:04.955Z</time></trkpt><trkpt lat="45.21506264762719" lon="7.6127815383408475"><ele>322.8</ele><time>2026-04-19T12:11:05.955Z</time></trkpt><trkpt lat="45.21516351862202" lon="7.612756334507941"><ele>323.2</ele><time>2026-04-19T12:11:06.955Z</time></trkpt><trkpt lat="45.21526526596845" lon="7.612752309573134"><ele>323.6</ele><time>2026-04-19T12:11:07.955Z</time></trkpt><trkpt lat="45.21536603391571" lon="7.612743948014812"><ele>324.0</ele><time>2026-04-19T12:11:08.955Z</time></trkpt><trkpt lat="45.21546986944057" lon="7.612709456955507"><ele>324.0</ele><time>2026-04-19T12:11:09.955Z</time></trkpt><trkpt lat="45.215552730849694" lon="7.6126296854428315"><ele>324.0</ele><time>2026-04-19T12:11:10.955Z</time></trkpt><trkpt lat="45.21563579945407" lon="7.612516899436531"><ele>324.0</ele><time>2026-04-19T12:11:11.955Z</time></trkpt><trkpt lat="45.21572217627099" lon="7.612389436264165"><ele>324.0</ele><time>2026-04-19T12:11:12.955Z</time></trkpt><trkpt lat="45.215790830060975" lon="7.61223597832259"><ele>324.3333333333333</ele><time>2026-04-19T12:11:13.955Z</time></trkpt><trkpt lat="45.21595884590204" lon="7.612172816873394"><ele>324.66666666666663</ele><time>2026-04-19T12:11:14.955Z</time></trkpt><trkpt lat="45.216104787001164" lon="7.612078726863535"><ele>325.0</ele><time>2026-04-19T12:11:15.955Z</time></trkpt><trkpt lat="45.21625876183768" lon="7.611976077331065"><ele>325.3333333333333</ele><time>2026-04-19T12:11:16.955Z</time></trkpt><trkpt lat="45.21642136239322" lon="7.611862525000445"><ele>325.6666666666667</ele><time>2026-04-19T12:11:17.955Z</time></trkpt><trkpt lat="45.21659549176184" lon="7.61174676867038"><ele>326.0</ele><time>2026-04-19T12:11:18.955Z</time></trkpt><trkpt lat="45.216778595578454" lon="7.611628535717539"><ele>326.0</ele><time>2026-04-19T12:11:19.955Z</time></trkpt><trkpt lat="45.216969781056605" lon="7.611502204972166"><ele>326.0</ele><time>2026-04-19T12:11:20.955Z</time></trkpt><trkpt lat="45.21716729556733" lon="7.611368730440647"><ele>326.0</ele><time>2026-04-19T12:11:21.955Z</time></trkpt><trkpt lat="45.21735887805305" lon="7.611238010257161"><ele>326.33333333333337</ele><time>2026-04-19T12:11:22.955Z</time></trkpt><trkpt lat="45.21754747711102" lon="7.611110362384784"><ele>326.6666666666667</ele><time>2026-04-19T12:11:23.955Z</time></trkpt><trkpt lat="45.21774491814275" lon="7.610982070643481"><ele>327.0</ele><time>2026-04-19T12:11:24.955Z</time></trkpt><trkpt lat="45.21794329296902" lon="7.610849542339169"><ele>327.0</ele><time>2026-04-19T12:11:25.955Z</time></trkpt><trkpt lat="45.21814094263369" lon="7.610719063639258"><ele>327.0</ele><time>2026-04-19T12:11:26.955Z</time></trkpt><trkpt lat="45.21833725562539" lon="7.610588287791829"><ele>327.0</ele><time>2026-04-19T12:11:27.955Z</time></trkpt><trkpt lat="45.21852075404534" lon="7.610467178526304"><ele>327.3333333333333</ele><time>2026-04-19T12:11:28.955Z</time></trkpt><trkpt lat="45.21869934020573" lon="7.610348384871151"><ele>327.66666666666663</ele><time>2026-04-19T12:11:29.955Z</time></trkpt><trkpt lat="45.21887219010255" lon="7.610228549134778"><ele>328.0</ele><time>2026-04-19T12:11:30.955Z</time></trkpt><trkpt lat="45.21904574234449" lon="7.610109282216849"><ele>328.0</ele><time>2026-04-19T12:11:31.955Z</time></trkpt><trkpt lat="45.21922051534102" lon="7.609993685264849"><ele>328.0</ele><time>2026-04-19T12:11:32.955Z</time></trkpt><trkpt lat="45.21939677320588" lon="7.609878949905175"><ele>328.0</ele><time>2026-04-19T12:11:33.955Z</time></trkpt><trkpt lat="45.219575330400595" lon="7.609760602406626"><ele>328.0</ele><time>2026-04-19T12:11:34.955Z</time></trkpt><trkpt lat="45.21975475035854" lon="7.609641079764436"><ele>328.0</ele><time>2026-04-19T12:11:35.955Z</time></trkpt><trkpt lat="45.21993672401037" lon="7.609511571803202"><ele>328.0</ele><time>2026-04-19T12:11:36.955Z</time></trkpt><trkpt lat="45.22011860387294" lon="7.609395566308869"><ele>329.0</ele><time>2026-04-19T12:11:37.955Z</time></trkpt><trkpt lat="45.22028285208011" lon="7.609283759376715"><ele>330.0</ele><time>2026-04-19T12:11:38.955Z</time></trkpt><trkpt lat="45.22043061951938" lon="7.609171343103189"><ele>331.0</ele><time>2026-04-19T12:11:39.955Z</time></trkpt><trkpt lat="45.22056481877826" lon="7.609058149781646"><ele>331.0</ele><time>2026-04-19T12:11:40.955Z</time></trkpt><trkpt lat="45.22068875602936" lon="7.608954863838315"><ele>331.0</ele><time>2026-04-19T12:11:41.955Z</time></trkpt><trkpt lat="45.22079830004205" lon="7.608872889060984"><ele>331.0</ele><time>2026-04-19T12:11:42.955Z</time></trkpt><trkpt lat="45.22088306100992" lon="7.608826149059019"><ele>331.0</ele><time>2026-04-19T12:11:43.955Z</time></trkpt><trkpt lat="45.22094482531897" lon="7.608794882647701"><ele>331.0</ele><time>2026-04-19T12:11:44.955Z</time></trkpt><trkpt lat="45.22101451761288" lon="7.608775249319991"><ele>331.0</ele><time>2026-04-19T12:11:45.955Z</time></trkpt><trkpt lat="45.22108290777001" lon="7.608803906153165"><ele>331.0</ele><time>2026-04-19T12:11:46.955Z</time></trkpt><trkpt lat="45.221147771032165" lon="7.60879228184531"><ele>331.0</ele><time>2026-04-19T12:11:47.955Z</time></trkpt><trkpt lat="45.221214947133134" lon="7.608746748273987"><ele>331.0</ele><time>2026-04-19T12:11:48.955Z</time></trkpt><trkpt lat="45.22124901655799" lon="7.608632785364263"><ele>331.0</ele><time>2026-04-19T12:11:49.955Z</time></trkpt><trkpt lat="45.2212920884451" lon="7.608521730589889"><ele>331.0</ele><time>2026-04-19T12:11:50.955Z</time></trkpt><trkpt lat="45.221353086081415" lon="7.608401570350153"><ele>331.0</ele><time>2026-04-19T12:11:51.955Z</time></trkpt><trkpt lat="45.221427138575606" lon="7.608284563532638"><ele>331.0</ele><time>2026-04-19T12:11:52.955Z</time></trkpt><trkpt lat="45.221510835837684" lon="7.608160524178807"><ele>331.0</ele><time>2026-04-19T12:11:53.955Z</time></trkpt><trkpt lat="45.22159875958264" lon="7.608030231512274"><ele>331.0</ele><time>2026-04-19T12:11:54.955Z</time></trkpt><trkpt lat="45.22169716971921" lon="7.6078867152315945"><ele>331.0</ele><time>2026-04-19T12:11:55.955Z</time></trkpt><trkpt lat="45.2218171931829" lon="7.607746126369094"><ele>331.0</ele><time>2026-04-19T12:11:56.955Z</time></trkpt><trkpt lat="45.221931177237146" lon="7.6075803326149725"><ele>331.0</ele><time>2026-04-19T12:11:57.955Z</time></trkpt><trkpt lat="45.222050781994156" lon="7.607393673281593"><ele>331.0</ele><time>2026-04-19T12:11:58.955Z</time></trkpt><trkpt lat="45.22217298177813" lon="7.607199520014705"><ele>331.0</ele><time>2026-04-19T12:11:59.955Z</time></trkpt><trkpt lat="45.22229858800103" lon="7.6069960540134"><ele>331.0</ele><time>2026-04-19T12:12:00.955Z</time></trkpt><trkpt lat="45.222423040030925" lon="7.606788865345814"><ele>332.0</ele><time>2026-04-19T12:12:01.955Z</time></trkpt><trkpt lat="45.222546164096734" lon="7.606567401568615"><ele>333.0</ele><time>2026-04-19T12:12:02.955Z</time></trkpt><trkpt lat="45.222670762878124" lon="7.60633294002783"><ele>334.0</ele><time>2026-04-19T12:12:03.955Z</time></trkpt><trkpt lat="45.22279829394413" lon="7.606092966841252"><ele>334.3333333333333</ele><time>2026-04-19T12:12:04.955Z</time></trkpt><trkpt lat="45.222929385232185" lon="7.605849017846648"><ele>334.6666666666667</ele><time>2026-04-19T12:12:05.955Z</time></trkpt><trkpt lat="45.22306484385346" lon="7.605591742206073"><ele>335.0</ele><time>2026-04-19T12:12:06.955Z</time></trkpt><trkpt lat="45.22320221155399" lon="7.605336942011061"><ele>336.0</ele><time>2026-04-19T12:12:07.955Z</time></trkpt><trkpt lat="45.22333761186777" lon="7.605070267791723"><ele>337.0</ele><time>2026-04-19T12:12:08.955Z</time></trkpt><trkpt lat="45.22347809027727" lon="7.604796478555321"><ele>337.0</ele><time>2026-04-19T12:12:09.955Z</time></trkpt><trkpt lat="45.22361523203475" lon="7.604531443736436"><ele>337.0</ele><time>2026-04-19T12:12:10.955Z</time></trkpt><trkpt lat="45.22375081964808" lon="7.604268536264868"><ele>336.66666666666663</ele><time>2026-04-19T12:12:11.955Z</time></trkpt><trkpt lat="45.22388018466709" lon="7.604015363664946"><ele>336.3333333333333</ele><time>2026-04-19T12:12:12.955Z</time></trkpt><trkpt lat="45.22400669904315" lon="7.6037712358842535"><ele>336.0</ele><time>2026-04-19T12:12:13.955Z</time></trkpt><trkpt lat="45.22413078028371" lon="7.603537551646129"><ele>337.0</ele><time>2026-04-19T12:12:14.955Z</time></trkpt><trkpt lat="45.22425410537623" lon="7.603312772954361"><ele>338.0</ele><time>2026-04-19T12:12:15.955Z</time></trkpt><trkpt lat="45.22437621144472" lon="7.603091917226871"><ele>339.0</ele><time>2026-04-19T12:12:16.955Z</time></trkpt><trkpt lat="45.22448824172589" lon="7.6028766938537755"><ele>338.6666666666667</ele><time>2026-04-19T12:12:17.955Z</time></trkpt><trkpt lat="45.22459767951437" lon="7.602667413226636"><ele>338.33333333333337</ele><time>2026-04-19T12:12:18.955Z</time></trkpt><trkpt lat="45.2247020222049" lon="7.602466815168274"><ele>338.0</ele><time>2026-04-19T12:12:19.955Z</time></trkpt><trkpt lat="45.22481021162239" lon="7.602254725771506"><ele>338.6666666666667</ele><time>2026-04-19T12:12:20.955Z</time></trkpt><trkpt lat="45.224920919630506" lon="7.602048005823894"><ele>339.3333333333333</ele><time>2026-04-19T12:12:21.955Z</time></trkpt><trkpt lat="45.22503206906423" lon="7.601831793339097"><ele>340.0</ele><time>2026-04-19T12:12:22.955Z</time></trkpt><trkpt lat="45.22514695490029" lon="7.601612779439673"><ele>340.0</ele><time>2026-04-19T12:12:23.955Z</time></trkpt><trkpt lat="45.22526420185514" lon="7.601390956178563"><ele>340.0</ele><time>2026-04-19T12:12:24.955Z</time></trkpt><trkpt lat="45.225390429844886" lon="7.601168603241961"><ele>340.0</ele><time>2026-04-19T12:12:25.955Z</time></trkpt><trkpt lat="45.22551873989728" lon="7.6009416571091135"><ele>340.66666666666663</ele><time>2026-04-19T12:12:26.955Z</time></trkpt><trkpt lat="45.22564898004792" lon="7.600711071003666"><ele>341.3333333333333</ele><time>2026-04-19T12:12:27.955Z</time></trkpt><trkpt lat="45.22577579410804" lon="7.6004777000083825"><ele>342.0</ele><time>2026-04-19T12:12:28.955Z</time></trkpt><trkpt lat="45.225899490996206" lon="7.600236653242294"><ele>342.0</ele><time>2026-04-19T12:12:29.955Z</time></trkpt><trkpt lat="45.22602179138283" lon="7.6000004921072914"><ele>342.0</ele><time>2026-04-19T12:12:30.955Z</time></trkpt><trkpt lat="45.22614282693047" lon="7.599759556764511"><ele>342.0</ele><time>2026-04-19T12:12:31.955Z</time></trkpt><trkpt lat="45.226266404048275" lon="7.59952821895771"><ele>341.3333333333333</ele><time>2026-04-19T12:12:32.955Z</time></trkpt><trkpt lat="45.2263916713021" lon="7.599299682731912"><ele>340.66666666666663</ele><time>2026-04-19T12:12:33.955Z</time></trkpt><trkpt lat="45.226510279127666" lon="7.599074400783272"><ele>340.0</ele><time>2026-04-19T12:12:34.955Z</time></trkpt><trkpt lat="45.22662473586059" lon="7.59884748831263"><ele>340.66666666666663</ele><time>2026-04-19T12:12:35.955Z</time></trkpt><trkpt lat="45.226740896861465" lon="7.598623884849825"><ele>341.3333333333333</ele><time>2026-04-19T12:12:36.955Z</time></trkpt><trkpt lat="45.22685761550249" lon="7.598403052926097"><ele>342.0</ele><time>2026-04-19T12:12:37.955Z</time></trkpt><trkpt lat="45.22697590115494" lon="7.598178992395125"><ele>342.0</ele><time>2026-04-19T12:12:38.955Z</time></trkpt><trkpt lat="45.227090533410546" lon="7.59795583298501"><ele>342.0</ele><time>2026-04-19T12:12:39.955Z</time></trkpt><trkpt lat="45.227203740687855" lon="7.597737806011874"><ele>342.0</ele><time>2026-04-19T12:12:40.955Z</time></trkpt><trkpt lat="45.22731340212198" lon="7.597527186779964"><ele>342.6666666666667</ele><time>2026-04-19T12:12:41.955Z</time></trkpt><trkpt lat="45.227422880565925" lon="7.597317505780404"><ele>343.33333333333337</ele><time>2026-04-19T12:12:42.955Z</time></trkpt><trkpt lat="45.22753206100081" lon="7.5971121510227215"><ele>344.0</ele><time>2026-04-19T12:12:43.955Z</time></trkpt><trkpt lat="45.22764235621038" lon="7.596905336423409"><ele>344.0</ele><time>2026-04-19T12:12:44.955Z</time></trkpt><trkpt lat="45.22775180690178" lon="7.596697595335585"><ele>344.0</ele><time>2026-04-19T12:12:45.955Z</time></trkpt><trkpt lat="45.2278653023271" lon="7.5964941844375"><ele>344.0</ele><time>2026-04-19T12:12:46.955Z</time></trkpt><trkpt lat="45.22798441000204" lon="7.596289785927687"><ele>344.0</ele><time>2026-04-19T12:12:47.955Z</time></trkpt><trkpt lat="45.22811067173802" lon="7.596094104530488"><ele>344.0</ele><time>2026-04-19T12:12:48.955Z</time></trkpt><trkpt lat="45.2282388575728" lon="7.595890427147588"><ele>344.0</ele><time>2026-04-19T12:12:49.955Z</time></trkpt><trkpt lat="45.22837094373286" lon="7.595691353269534"><ele>344.0</ele><time>2026-04-19T12:12:50.955Z</time></trkpt><trkpt lat="45.228503399512505" lon="7.595491432271929"><ele>344.0</ele><time>2026-04-19T12:12:51.955Z</time></trkpt><trkpt lat="45.228640406218595" lon="7.5952967703622045"><ele>344.0</ele><time>2026-04-19T12:12:52.955Z</time></trkpt><trkpt lat="45.22878283991589" lon="7.595108217893346"><ele>344.6666666666667</ele><time>2026-04-19T12:12:53.953Z</time></trkpt><trkpt lat="45.2289308601286" lon="7.594926821559954"><ele>345.3333333333333</ele><time>2026-04-19T12:12:54.953Z</time></trkpt><trkpt lat="45.22907984796873" lon="7.594751645612007"><ele>346.0</ele><time>2026-04-19T12:12:55.953Z</time></trkpt><trkpt lat="45.229230105961314" lon="7.594582251013923"><ele>345.66666666666663</ele><time>2026-04-19T12:12:56.953Z</time></trkpt><trkpt lat="45.229378373939554" lon="7.5944204987774695"><ele>345.3333333333333</ele><time>2026-04-19T12:12:57.953Z</time></trkpt><trkpt lat="45.22952644491659" lon="7.59426072122201"><ele>345.0</ele><time>2026-04-19T12:12:58.953Z</time></trkpt><trkpt lat="45.22967576263125" lon="7.59411262043878"><ele>345.3333333333333</ele><time>2026-04-19T12:12:59.953Z</time></trkpt><trkpt lat="45.22982499686209" lon="7.593968821453768"><ele>345.66666666666663</ele><time>2026-04-19T12:13:00.953Z</time></trkpt><trkpt lat="45.229971423311525" lon="7.5938272049696165"><ele>346.0</ele><time>2026-04-19T12:13:01.953Z</time></trkpt><trkpt lat="45.230108858678406" lon="7.593703510329123"><ele>346.0</ele><time>2026-04-19T12:13:02.953Z</time></trkpt><trkpt lat="45.23023648762119" lon="7.593586147638628"><ele>346.0</ele><time>2026-04-19T12:13:03.953Z</time></trkpt><trkpt lat="45.230360742712584" lon="7.593476902917581"><ele>346.0</ele><time>2026-04-19T12:13:04.953Z</time></trkpt><trkpt lat="45.23047439440785" lon="7.593370012075205"><ele>346.0</ele><time>2026-04-19T12:13:05.952Z</time></trkpt><trkpt lat="45.23058211911159" lon="7.593272579096312"><ele>346.20000000000005</ele><time>2026-04-19T12:13:06.953Z</time></trkpt><trkpt lat="45.23067847965088" lon="7.593186409329808"><ele>346.40000000000003</ele><time>2026-04-19T12:13:07.953Z</time></trkpt><trkpt lat="45.23077279500562" lon="7.593101964290363"><ele>346.6</ele><time>2026-04-19T12:13:08.953Z</time></trkpt><trkpt lat="45.23085564003316" lon="7.593027335256395"><ele>346.8</ele><time>2026-04-19T12:13:09.953Z</time></trkpt><trkpt lat="45.23093669957144" lon="7.592967488209217"><ele>347.0</ele><time>2026-04-19T12:13:10.953Z</time></trkpt><trkpt lat="45.23100930020811" lon="7.592900890741231"><ele>347.0</ele><time>2026-04-19T12:13:11.953Z</time></trkpt><trkpt lat="45.23110308653942" lon="7.592888423563109"><ele>347.0</ele><time>2026-04-19T12:13:12.953Z</time></trkpt><trkpt lat="45.23118938590983" lon="7.592832901114122"><ele>347.0</ele><time>2026-04-19T12:13:13.953Z</time></trkpt><trkpt lat="45.231263034687856" lon="7.59274203074885"><ele>347.0</ele><time>2026-04-19T12:13:14.953Z</time></trkpt><trkpt lat="45.23134004585243" lon="7.592625517516937"><ele>347.0</ele><time>2026-04-19T12:13:15.953Z</time></trkpt><trkpt lat="45.23142362393537" lon="7.592520781462461"><ele>347.75</ele><time>2026-04-19T12:13:16.953Z</time></trkpt><trkpt lat="45.23152644465741" lon="7.592428507355281"><ele>348.5</ele><time>2026-04-19T12:13:17.953Z</time></trkpt><trkpt lat="45.2316370737936" lon="7.592320804060133"><ele>349.25</ele><time>2026-04-19T12:13:18.953Z</time></trkpt><trkpt lat="45.23175253205344" lon="7.592194077740199"><ele>350.0</ele><time>2026-04-19T12:13:19.953Z</time></trkpt><trkpt lat="45.23187643422769" lon="7.592054846345619"><ele>350.0</ele><time>2026-04-19T12:13:20.953Z</time></trkpt><trkpt lat="45.23200605311116" lon="7.591905858412712"><ele>350.0</ele><time>2026-04-19T12:13:21.953Z</time></trkpt><trkpt lat="45.232133307171495" lon="7.591752198942149"><ele>350.0</ele><time>2026-04-19T12:13:22.953Z</time></trkpt><trkpt lat="45.23226726406742" lon="7.5915856011500535"><ele>350.0</ele><time>2026-04-19T12:13:23.953Z</time></trkpt><trkpt lat="45.232401922865556" lon="7.591398819552783"><ele>350.0</ele><time>2026-04-19T12:13:24.953Z</time></trkpt><trkpt lat="45.232535206719504" lon="7.591203996474105"><ele>350.0</ele><time>2026-04-19T12:13:25.953Z</time></trkpt><trkpt lat="45.232667230748135" lon="7.591001799925317"><ele>350.0</ele><time>2026-04-19T12:13:26.953Z</time></trkpt><trkpt lat="45.23280215998935" lon="7.590796751787197"><ele>350.0</ele><time>2026-04-19T12:13:27.953Z</time></trkpt><trkpt lat="45.23293317033918" lon="7.590573150910464"><ele>350.0</ele><time>2026-04-19T12:13:28.953Z</time></trkpt><trkpt lat="45.23305707277603" lon="7.5903462920962985"><ele>350.6666666666667</ele><time>2026-04-19T12:13:29.953Z</time></trkpt><trkpt lat="45.2331745271577" lon="7.590105882439816"><ele>351.3333333333333</ele><time>2026-04-19T12:13:30.953Z</time></trkpt><trkpt lat="45.233285446980645" lon="7.589854857086344"><ele>352.0</ele><time>2026-04-19T12:13:31.953Z</time></trkpt><trkpt lat="45.23338949036363" lon="7.589596113102175"><ele>351.66666666666663</ele><time>2026-04-19T12:13:32.953Z</time></trkpt><trkpt lat="45.23348417285598" lon="7.589333096221683"><ele>351.3333333333333</ele><time>2026-04-19T12:13:33.953Z</time></trkpt><trkpt lat="45.233578910582715" lon="7.589061893795216"><ele>351.0</ele><time>2026-04-19T12:13:34.953Z</time></trkpt><trkpt lat="45.2336701413712" lon="7.588793390701181"><ele>352.0</ele><time>2026-04-19T12:13:35.953Z</time></trkpt><trkpt lat="45.233769111169515" lon="7.588516457103518"><ele>353.0</ele><time>2026-04-19T12:13:36.953Z</time></trkpt><trkpt lat="45.233868734351745" lon="7.588242171183942"><ele>354.0</ele><time>2026-04-19T12:13:37.953Z</time></trkpt><trkpt lat="45.23398865053661" lon="7.587968678447425"><ele>354.6666666666667</ele><time>2026-04-19T12:13:38.953Z</time></trkpt><trkpt lat="45.23409278239832" lon="7.587692711864403"><ele>355.33333333333337</ele><time>2026-04-19T12:13:39.953Z</time></trkpt><trkpt lat="45.23419463583714" lon="7.58741278277884"><ele>356.0</ele><time>2026-04-19T12:13:40.953Z</time></trkpt><trkpt lat="45.23429208014035" lon="7.587135493580238"><ele>355.33333333333337</ele><time>2026-04-19T12:13:41.953Z</time></trkpt><trkpt lat="45.23439302540218" lon="7.586853462313264"><ele>354.6666666666667</ele><time>2026-04-19T12:13:42.953Z</time></trkpt><trkpt lat="45.234496213679826" lon="7.586571194090973"><ele>354.0</ele><time>2026-04-19T12:13:43.953Z</time></trkpt><trkpt lat="45.23460052667191" lon="7.586284482814321"><ele>354.5</ele><time>2026-04-19T12:13:44.953Z</time></trkpt><trkpt lat="45.23470438062789" lon="7.585993197103376"><ele>355.0</ele><time>2026-04-19T12:13:45.953Z</time></trkpt><trkpt lat="45.234806115092226" lon="7.58569884835936"><ele>355.0</ele><time>2026-04-19T12:13:46.953Z</time></trkpt><trkpt lat="45.23491152947748" lon="7.585406262282163"><ele>355.0</ele><time>2026-04-19T12:13:47.953Z</time></trkpt><trkpt lat="45.235022433968346" lon="7.585115669424383"><ele>355.0</ele><time>2026-04-19T12:13:48.953Z</time></trkpt><trkpt lat="45.235132124518316" lon="7.584822464558138"><ele>355.0</ele><time>2026-04-19T12:13:49.953Z</time></trkpt><trkpt lat="45.235241686575044" lon="7.584522861119776"><ele>355.0</ele><time>2026-04-19T12:13:50.953Z</time></trkpt><trkpt lat="45.235348257253904" lon="7.584223548656549"><ele>355.0</ele><time>2026-04-19T12:13:51.953Z</time></trkpt><trkpt lat="45.235456242128734" lon="7.583919152638589"><ele>355.66666666666663</ele><time>2026-04-19T12:13:52.953Z</time></trkpt><trkpt lat="45.235562272143014" lon="7.5836280884917615"><ele>356.3333333333333</ele><time>2026-04-19T12:13:53.953Z</time></trkpt><trkpt lat="45.23565908642711" lon="7.583356162372"><ele>357.0</ele><time>2026-04-19T12:13:54.953Z</time></trkpt><trkpt lat="45.235756088433725" lon="7.583106453279798"><ele>357.0</ele><time>2026-04-19T12:13:55.953Z</time></trkpt><trkpt lat="45.23584495398818" lon="7.582886388573368"><ele>357.0</ele><time>2026-04-19T12:13:56.953Z</time></trkpt><trkpt lat="45.23593551233527" lon="7.582686478951027"><ele>357.0</ele><time>2026-04-19T12:13:57.953Z</time></trkpt><trkpt lat="45.23602234378809" lon="7.5825080152228415"><ele>357.6666666666667</ele><time>2026-04-19T12:13:58.953Z</time></trkpt><trkpt lat="45.23611409430824" lon="7.582331862398199"><ele>358.33333333333337</ele><time>2026-04-19T12:13:59.953Z</time></trkpt><trkpt lat="45.23621125943307" lon="7.582156011293498"><ele>359.0</ele><time>2026-04-19T12:14:00.953Z</time></trkpt><trkpt lat="45.236314844682035" lon="7.581994170544542"><ele>359.33333333333337</ele><time>2026-04-19T12:14:01.953Z</time></trkpt><trkpt lat="45.236427498714086" lon="7.581845422039026"><ele>359.6666666666667</ele><time>2026-04-19T12:14:02.953Z</time></trkpt><trkpt lat="45.23654497981669" lon="7.58170789185685"><ele>360.0</ele><time>2026-04-19T12:14:03.953Z</time></trkpt><trkpt lat="45.23667369984497" lon="7.581588815218385"><ele>360.0</ele><time>2026-04-19T12:14:04.953Z</time></trkpt><trkpt lat="45.23680928641797" lon="7.581485548679235"><ele>360.0</ele><time>2026-04-19T12:14:05.953Z</time></trkpt><trkpt lat="45.23695347488629" lon="7.581397046712823"><ele>360.0</ele><time>2026-04-19T12:14:06.953Z</time></trkpt><trkpt lat="45.2371019599699" lon="7.581325645708931"><ele>360.0</ele><time>2026-04-19T12:14:07.953Z</time></trkpt><trkpt lat="45.23725692761929" lon="7.58127526253248"><ele>360.0</ele><time>2026-04-19T12:14:08.953Z</time></trkpt><trkpt lat="45.237415441073104" lon="7.581245734248044"><ele>360.0</ele><time>2026-04-19T12:14:09.953Z</time></trkpt><trkpt lat="45.23757730566705" lon="7.581237231754592"><ele>360.3333333333333</ele><time>2026-04-19T12:14:10.953Z</time></trkpt><trkpt lat="45.23773726083875" lon="7.58124322979715"><ele>360.66666666666663</ele><time>2026-04-19T12:14:11.953Z</time></trkpt><trkpt lat="45.2378942589549" lon="7.581266301580726"><ele>361.0</ele><time>2026-04-19T12:14:12.953Z</time></trkpt><trkpt lat="45.23804911885748" lon="7.581304443409626"><ele>362.0</ele><time>2026-04-19T12:14:13.953Z</time></trkpt><trkpt lat="45.238202543704745" lon="7.581350753144853"><ele>363.0</ele><time>2026-04-19T12:14:14.953Z</time></trkpt><trkpt lat="45.238360578045004" lon="7.581395237966199"><ele>364.0</ele><time>2026-04-19T12:14:15.953Z</time></trkpt><trkpt lat="45.23852183739898" lon="7.581445631222291"><ele>364.0</ele><time>2026-04-19T12:14:16.953Z</time></trkpt><trkpt lat="45.238684378966475" lon="7.581498396572456"><ele>364.0</ele><time>2026-04-19T12:14:17.953Z</time></trkpt><trkpt lat="45.23884808639596" lon="7.58155415399011"><ele>364.0</ele><time>2026-04-19T12:14:18.953Z</time></trkpt><trkpt lat="45.23901264936889" lon="7.581604874060401"><ele>363.66666666666663</ele><time>2026-04-19T12:14:19.953Z</time></trkpt><trkpt lat="45.23918278211627" lon="7.581655847986826"><ele>363.3333333333333</ele><time>2026-04-19T12:14:20.953Z</time></trkpt><trkpt lat="45.2393482066762" lon="7.581707546567658"><ele>363.0</ele><time>2026-04-19T12:14:21.953Z</time></trkpt><trkpt lat="45.23950617917963" lon="7.581760148400844"><ele>363.0</ele><time>2026-04-19T12:14:22.953Z</time></trkpt><trkpt lat="45.239657879178836" lon="7.581813228412693"><ele>363.0</ele><time>2026-04-19T12:14:23.953Z</time></trkpt><trkpt lat="45.239805686916576" lon="7.581856512939138"><ele>363.0</ele><time>2026-04-19T12:14:24.953Z</time></trkpt><trkpt lat="45.23994737883771" lon="7.581908790377934"><ele>363.25</ele><time>2026-04-19T12:14:25.953Z</time></trkpt><trkpt lat="45.2400852252655" lon="7.581954284132669"><ele>363.5</ele><time>2026-04-19T12:14:26.953Z</time></trkpt><trkpt lat="45.24022206932185" lon="7.5819996851784435"><ele>363.75</ele><time>2026-04-19T12:14:27.953Z</time></trkpt><trkpt lat="45.24034993414421" lon="7.582043070562338"><ele>364.0</ele><time>2026-04-19T12:14:28.953Z</time></trkpt><trkpt lat="45.24046874741794" lon="7.582080656232113"><ele>364.0</ele><time>2026-04-19T12:14:29.953Z</time></trkpt><trkpt lat="45.24058353542822" lon="7.582107493724747"><ele>364.0</ele><time>2026-04-19T12:14:30.953Z</time></trkpt><trkpt lat="45.24068705060059" lon="7.582137697562121"><ele>364.0</ele><time>2026-04-19T12:14:31.953Z</time></trkpt><trkpt lat="45.24078346633364" lon="7.582186926503903"><ele>364.0</ele><time>2026-04-19T12:14:32.953Z</time></trkpt><trkpt lat="45.24086306251267" lon="7.582249280847938"><ele>364.0</ele><time>2026-04-19T12:14:33.953Z</time></trkpt><trkpt lat="45.2409347966292" lon="7.582321063310372"><ele>364.3333333333333</ele><time>2026-04-19T12:14:34.953Z</time></trkpt><trkpt lat="45.2409937162156" lon="7.582387770508236"><ele>364.66666666666663</ele><time>2026-04-19T12:14:35.953Z</time></trkpt><trkpt lat="45.24107126311143" lon="7.582362712937"><ele>365.0</ele><time>2026-04-19T12:14:36.953Z</time></trkpt><trkpt lat="45.241134208935044" lon="7.582325805487663"><ele>365.3333333333333</ele><time>2026-04-19T12:14:37.953Z</time></trkpt><trkpt lat="45.2411944223197" lon="7.582250878354232"><ele>365.6666666666667</ele><time>2026-04-19T12:14:38.953Z</time></trkpt><trkpt lat="45.2412438901295" lon="7.5821516183305935"><ele>366.0</ele><time>2026-04-19T12:14:39.953Z</time></trkpt><trkpt lat="45.24128780165124" lon="7.582025730829309"><ele>365.8</ele><time>2026-04-19T12:14:40.953Z</time></trkpt><trkpt lat="45.24133407311728" lon="7.5818798845971145"><ele>365.6</ele><time>2026-04-19T12:14:41.953Z</time></trkpt><trkpt lat="45.24137866508809" lon="7.581736523708401"><ele>365.4</ele><time>2026-04-19T12:14:42.953Z</time></trkpt><trkpt lat="45.241429944004864" lon="7.58160151322163"><ele>365.2</ele><time>2026-04-19T12:14:43.953Z</time></trkpt><trkpt lat="45.24148530825065" lon="7.58145535705348"><ele>365.0</ele><time>2026-04-19T12:14:44.953Z</time></trkpt><trkpt lat="45.241528792336304" lon="7.58132657781119"><ele>365.33333333333337</ele><time>2026-04-19T12:14:45.953Z</time></trkpt><trkpt lat="45.24157564740672" lon="7.581217165307548"><ele>365.6666666666667</ele><time>2026-04-19T12:14:46.953Z</time></trkpt><trkpt lat="45.24162992104925" lon="7.581130499164079"><ele>366.0</ele><time>2026-04-19T12:14:47.953Z</time></trkpt><trkpt lat="45.241689767144855" lon="7.581051099565925"><ele>366.3333333333333</ele><time>2026-04-19T12:14:48.953Z</time></trkpt><trkpt lat="45.24175102353284" lon="7.580994505662615"><ele>366.66666666666663</ele><time>2026-04-19T12:14:49.953Z</time></trkpt><trkpt lat="45.24181538660318" lon="7.580946708889811"><ele>367.0</ele><time>2026-04-19T12:14:50.953Z</time></trkpt><trkpt lat="45.2418812914262" lon="7.5809009181497435"><ele>367.20000000000005</ele><time>2026-04-19T12:14:51.953Z</time></trkpt><trkpt lat="45.24193467759335" lon="7.580831413034543"><ele>367.4</ele><time>2026-04-19T12:14:52.954Z</time></trkpt><trkpt lat="45.24197956582124" lon="7.580728878661912"><ele>367.6</ele><time>2026-04-19T12:14:53.954Z</time></trkpt><trkpt lat="45.242022133199136" lon="7.580600714852136"><ele>367.79999999999995</ele><time>2026-04-19T12:14:54.954Z</time></trkpt><trkpt lat="45.242076433936965" lon="7.580468377195625"><ele>368.0</ele><time>2026-04-19T12:14:55.954Z</time></trkpt><trkpt lat="45.242116535157855" lon="7.580326191522644"><ele>368.0</ele><time>2026-04-19T12:14:56.954Z</time></trkpt><trkpt lat="45.24222829724683" lon="7.580196132900372"><ele>368.0</ele><time>2026-04-19T12:14:57.954Z</time></trkpt><trkpt lat="45.2423196164919" lon="7.5800436950296595"><ele>368.0</ele><time>2026-04-19T12:14:58.954Z</time></trkpt><trkpt lat="45.242420553353924" lon="7.57988201700492"><ele>368.0</ele><time>2026-04-19T12:14:59.951Z</time></trkpt><trkpt lat="45.24252640550408" lon="7.579710224902682"><ele>367.6666666666667</ele><time>2026-04-19T12:15:00.951Z</time></trkpt><trkpt lat="45.242635077233494" lon="7.579525134866454"><ele>367.3333333333333</ele><time>2026-04-19T12:15:01.951Z</time></trkpt><trkpt lat="45.242752651366864" lon="7.5793250883024035"><ele>367.0</ele><time>2026-04-19T12:15:02.951Z</time></trkpt><trkpt lat="45.24288180933323" lon="7.5791140468107985"><ele>368.0</ele><time>2026-04-19T12:15:03.95Z</time></trkpt><trkpt lat="45.24302374268172" lon="7.578891534955737"><ele>369.0</ele><time>2026-04-19T12:15:04.95Z</time></trkpt><trkpt lat="45.243167668899105" lon="7.578668916767318"><ele>370.0</ele><time>2026-04-19T12:15:05.951Z</time></trkpt><trkpt lat="45.243305989923954" lon="7.57844273177534"><ele>370.3333333333333</ele><time>2026-04-19T12:15:06.95Z</time></trkpt><trkpt lat="45.24344421173572" lon="7.578210636393301"><ele>370.6666666666667</ele><time>2026-04-19T12:15:07.95Z</time></trkpt><trkpt lat="45.24357615350544" lon="7.5779907063074825"><ele>371.0</ele><time>2026-04-19T12:15:08.951Z</time></trkpt><trkpt lat="45.24370235137116" lon="7.577781152791871"><ele>371.0</ele><time>2026-04-19T12:15:09.95Z</time></trkpt><trkpt lat="45.24382756595595" lon="7.577576962958086"><ele>371.0</ele><time>2026-04-19T12:15:10.95Z</time></trkpt><trkpt lat="45.243944134208334" lon="7.5773765183381965"><ele>371.0</ele><time>2026-04-19T12:15:11.951Z</time></trkpt><trkpt lat="45.2440646900265" lon="7.577179102085324"><ele>371.33333333333337</ele><time>2026-04-19T12:15:12.951Z</time></trkpt><trkpt lat="45.24418548976381" lon="7.57698234507475"><ele>371.6666666666667</ele><time>2026-04-19T12:15:13.951Z</time></trkpt><trkpt lat="45.244300259005264" lon="7.576795393888398"><ele>372.0</ele><time>2026-04-19T12:15:14.951Z</time></trkpt><trkpt lat="45.24450050253167" lon="7.57646831873715"><ele>372.0</ele><time>2026-04-19T12:15:16.951Z</time></trkpt><trkpt lat="45.24459598000246" lon="7.576318960475079"><ele>372.0</ele><time>2026-04-19T12:15:17.951Z</time></trkpt><trkpt lat="45.24469157095963" lon="7.576163363901253"><ele>372.0</ele><time>2026-04-19T12:15:18.951Z</time></trkpt><trkpt lat="45.244789468355336" lon="7.5760012882479595"><ele>372.0</ele><time>2026-04-19T12:15:19.951Z</time></trkpt><trkpt lat="45.244889813492684" lon="7.575842426609511"><ele>372.25</ele><time>2026-04-19T12:15:20.951Z</time></trkpt><trkpt lat="45.244989639896026" lon="7.575685420908907"><ele>372.5</ele><time>2026-04-19T12:15:21.951Z</time></trkpt><trkpt lat="45.24508639964209" lon="7.575520388775772"><ele>372.75</ele><time>2026-04-19T12:15:22.951Z</time></trkpt><trkpt lat="45.24518393809362" lon="7.575362944766281"><ele>373.0</ele><time>2026-04-19T12:15:23.951Z</time></trkpt><trkpt lat="45.245276389967906" lon="7.575208952145982"><ele>373.5</ele><time>2026-04-19T12:15:24.951Z</time></trkpt><trkpt lat="45.245362715194915" lon="7.575063463411588"><ele>374.0</ele><time>2026-04-19T12:15:25.951Z</time></trkpt><trkpt lat="45.24544917987446" lon="7.57491957706486"><ele>374.5</ele><time>2026-04-19T12:15:26.951Z</time></trkpt><trkpt lat="45.245533843544166" lon="7.574778046601172"><ele>375.0</ele><time>2026-04-19T12:15:27.951Z</time></trkpt><trkpt lat="45.24561817548912" lon="7.57464988107571"><ele>374.8</ele><time>2026-04-19T12:15:28.951Z</time></trkpt><trkpt lat="45.24569389920115" lon="7.574528833865081"><ele>374.6</ele><time>2026-04-19T12:15:29.951Z</time></trkpt><trkpt lat="45.24576563426325" lon="7.574419958514024"><ele>374.4</ele><time>2026-04-19T12:15:30.951Z</time></trkpt><trkpt lat="45.24583527980312" lon="7.574318798293999"><ele>374.2</ele><time>2026-04-19T12:15:31.951Z</time></trkpt><trkpt lat="45.24589676034322" lon="7.5742157270568375"><ele>374.0</ele><time>2026-04-19T12:15:32.951Z</time></trkpt><trkpt lat="45.245949796872345" lon="7.574111716558902"><ele>374.4</ele><time>2026-04-19T12:15:33.951Z</time></trkpt><trkpt lat="45.246003566202845" lon="7.574013678310757"><ele>374.79999999999995</ele><time>2026-04-19T12:15:34.951Z</time></trkpt><trkpt lat="45.246063328862064" lon="7.5739429682476285"><ele>375.20000000000005</ele><time>2026-04-19T12:15:35.951Z</time></trkpt><trkpt lat="45.24619710907379" lon="7.573923008334757"><ele>375.6</ele><time>2026-04-19T12:15:37.951Z</time></trkpt><trkpt lat="45.24626795181272" lon="7.573963474195485"><ele>376.0</ele><time>2026-04-19T12:15:38.951Z</time></trkpt><trkpt lat="45.24637274155357" lon="7.574003042441137"><ele>375.5</ele><time>2026-04-19T12:15:39.951Z</time></trkpt><trkpt lat="45.24648436613854" lon="7.574029518916245"><ele>375.0</ele><time>2026-04-19T12:15:40.951Z</time></trkpt><trkpt lat="45.24660731545226" lon="7.574047654990799"><ele>374.5</ele><time>2026-04-19T12:15:41.951Z</time></trkpt><trkpt lat="45.246734599903284" lon="7.5740801182315245"><ele>374.0</ele><time>2026-04-19T12:15:42.951Z</time></trkpt><trkpt lat="45.246875617687735" lon="7.574118838423521"><ele>374.0</ele><time>2026-04-19T12:15:43.951Z</time></trkpt><trkpt lat="45.247032238821674" lon="7.57415747042382"><ele>374.0</ele><time>2026-04-19T12:15:44.951Z</time></trkpt><trkpt lat="45.2472033937602" lon="7.57419922176984"><ele>374.0</ele><time>2026-04-19T12:15:45.951Z</time></trkpt><trkpt lat="45.247372508525245" lon="7.574238503778083"><ele>373.6666666666667</ele><time>2026-04-19T12:15:46.951Z</time></trkpt><trkpt lat="45.24754658501179" lon="7.574278796144223"><ele>373.3333333333333</ele><time>2026-04-19T12:15:47.951Z</time></trkpt><trkpt lat="45.247726141414034" lon="7.5743271308348685"><ele>373.0</ele><time>2026-04-19T12:15:48.951Z</time></trkpt><trkpt lat="45.24791228620021" lon="7.574373216440946"><ele>373.0</ele><time>2026-04-19T12:15:49.951Z</time></trkpt><trkpt lat="45.24810083055947" lon="7.574421267435522"><ele>373.0</ele><time>2026-04-19T12:15:50.951Z</time></trkpt><trkpt lat="45.248300005092425" lon="7.574469741267954"><ele>373.0</ele><time>2026-04-19T12:15:51.951Z</time></trkpt><trkpt lat="45.24850811452403" lon="7.574518914930698"><ele>372.66666666666663</ele><time>2026-04-19T12:15:52.951Z</time></trkpt><trkpt lat="45.24872130430688" lon="7.574572177450457"><ele>372.3333333333333</ele><time>2026-04-19T12:15:53.951Z</time></trkpt><trkpt lat="45.24893270079421" lon="7.574620954011356"><ele>372.0</ele><time>2026-04-19T12:15:54.951Z</time></trkpt><trkpt lat="45.24914765289544" lon="7.574672079413933"><ele>373.0</ele><time>2026-04-19T12:15:55.951Z</time></trkpt><trkpt lat="45.249357024743595" lon="7.574720041854359"><ele>374.0</ele><time>2026-04-19T12:15:56.951Z</time></trkpt><trkpt lat="45.24956061071008" lon="7.574762334866799"><ele>375.0</ele><time>2026-04-19T12:15:57.951Z</time></trkpt><trkpt lat="45.24976239293452" lon="7.574804425431459"><ele>375.6666666666667</ele><time>2026-04-19T12:15:58.951Z</time></trkpt><trkpt lat="45.24996308397909" lon="7.574852733954519"><ele>376.33333333333337</ele><time>2026-04-19T12:15:59.951Z</time></trkpt><trkpt lat="45.25016639699125" lon="7.574903998359558"><ele>377.0</ele><time>2026-04-19T12:16:00.951Z</time></trkpt><trkpt lat="45.250363395951226" lon="7.574958576426489"><ele>377.0</ele><time>2026-04-19T12:16:01.951Z</time></trkpt><trkpt lat="45.250560181922" lon="7.57501442942536"><ele>377.0</ele><time>2026-04-19T12:16:02.951Z</time></trkpt><trkpt lat="45.250757829431286" lon="7.575072678385022"><ele>377.0</ele><time>2026-04-19T12:16:03.951Z</time></trkpt><trkpt lat="45.25095958702458" lon="7.575126093734061"><ele>376.6666666666667</ele><time>2026-04-19T12:16:04.951Z</time></trkpt><trkpt lat="45.25115856668108" lon="7.575181469650968"><ele>376.3333333333333</ele><time>2026-04-19T12:16:05.951Z</time></trkpt><trkpt lat="45.25136416769006" lon="7.575234662123636"><ele>376.0</ele><time>2026-04-19T12:16:06.951Z</time></trkpt><trkpt lat="45.25156900377673" lon="7.575292301689882"><ele>376.0</ele><time>2026-04-19T12:16:07.951Z</time></trkpt><trkpt lat="45.251769903753576" lon="7.575347275252462"><ele>376.0</ele><time>2026-04-19T12:16:08.951Z</time></trkpt><trkpt lat="45.25196582997155" lon="7.575400147438072"><ele>376.0</ele><time>2026-04-19T12:16:09.951Z</time></trkpt><trkpt lat="45.252160810226876" lon="7.575455196788855"><ele>376.0</ele><time>2026-04-19T12:16:10.951Z</time></trkpt><trkpt lat="45.252352790709196" lon="7.575511525064416"><ele>376.0</ele><time>2026-04-19T12:16:11.951Z</time></trkpt><trkpt lat="45.25254256704826" lon="7.575565957894402"><ele>376.0</ele><time>2026-04-19T12:16:12.951Z</time></trkpt><trkpt lat="45.25273481263702" lon="7.575621726776317"><ele>376.0</ele><time>2026-04-19T12:16:13.951Z</time></trkpt><trkpt lat="45.25292894493863" lon="7.575677663318855"><ele>376.0</ele><time>2026-04-19T12:16:14.951Z</time></trkpt><trkpt lat="45.2531233548768" lon="7.575736481549702"><ele>376.0</ele><time>2026-04-19T12:16:15.951Z</time></trkpt><trkpt lat="45.253318561684615" lon="7.575792538576458"><ele>376.3333333333333</ele><time>2026-04-19T12:16:16.951Z</time></trkpt><trkpt lat="45.25350971131448" lon="7.575847046233354"><ele>376.6666666666667</ele><time>2026-04-19T12:16:17.951Z</time></trkpt><trkpt lat="45.253699373459554" lon="7.575903190778405"><ele>377.0</ele><time>2026-04-19T12:16:18.951Z</time></trkpt><trkpt lat="45.25388293089469" lon="7.575974225143875"><ele>377.33333333333337</ele><time>2026-04-19T12:16:19.951Z</time></trkpt><trkpt lat="45.25407479732467" lon="7.576029525122836"><ele>377.6666666666667</ele><time>2026-04-19T12:16:20.951Z</time></trkpt><trkpt lat="45.254264654921805" lon="7.576090412541126"><ele>378.0</ele><time>2026-04-19T12:16:21.951Z</time></trkpt><trkpt lat="45.25446865147265" lon="7.576132281149968"><ele>378.0</ele><time>2026-04-19T12:16:22.951Z</time></trkpt><trkpt lat="45.25467416537288" lon="7.576183279868557"><ele>378.0</ele><time>2026-04-19T12:16:23.951Z</time></trkpt><trkpt lat="45.25486679202235" lon="7.576231068584284"><ele>378.0</ele><time>2026-04-19T12:16:24.951Z</time></trkpt><trkpt lat="45.25506112431052" lon="7.576275423998523"><ele>377.3333333333333</ele><time>2026-04-19T12:16:25.951Z</time></trkpt><trkpt lat="45.25523854748263" lon="7.576317550214417"><ele>376.66666666666663</ele><time>2026-04-19T12:16:26.951Z</time></trkpt><trkpt lat="45.25540364881957" lon="7.576353321465137"><ele>376.0</ele><time>2026-04-19T12:16:27.951Z</time></trkpt><trkpt lat="45.25555766423466" lon="7.576394641506322"><ele>377.5</ele><time>2026-04-19T12:16:28.951Z</time></trkpt><trkpt lat="45.25571084202373" lon="7.576434384104376"><ele>379.0</ele><time>2026-04-19T12:16:29.951Z</time></trkpt><trkpt lat="45.25583979615343" lon="7.576486738183001"><ele>380.5</ele><time>2026-04-19T12:16:30.951Z</time></trkpt><trkpt lat="45.25595840591028" lon="7.576557677236251"><ele>382.0</ele><time>2026-04-19T12:16:31.951Z</time></trkpt><trkpt lat="45.25605478547773" lon="7.576663992882722"><ele>382.0</ele><time>2026-04-19T12:16:32.951Z</time></trkpt><trkpt lat="45.25610394617198" lon="7.576806249408578"><ele>382.0</ele><time>2026-04-19T12:16:33.951Z</time></trkpt><trkpt lat="45.25613818051633" lon="7.576954221604591"><ele>382.0</ele><time>2026-04-19T12:16:34.951Z</time></trkpt><trkpt lat="45.25614805483528" lon="7.577119563827186"><ele>382.0</ele><time>2026-04-19T12:16:35.951Z</time></trkpt><trkpt lat="45.256128511251845" lon="7.577289561289699"><ele>383.0</ele><time>2026-04-19T12:16:36.951Z</time></trkpt><trkpt lat="45.25607681160895" lon="7.577455834723401"><ele>384.0</ele><time>2026-04-19T12:16:37.951Z</time></trkpt><trkpt lat="45.25602160571588" lon="7.577642084061251"><ele>385.0</ele><time>2026-04-19T12:16:38.951Z</time></trkpt><trkpt lat="45.2559646736578" lon="7.577835420555046"><ele>386.0</ele><time>2026-04-19T12:16:39.951Z</time></trkpt><trkpt lat="45.255911140353106" lon="7.578027492767461"><ele>388.0</ele><time>2026-04-19T12:16:40.951Z</time></trkpt><trkpt lat="45.255868864520295" lon="7.578227937402819"><ele>390.0</ele><time>2026-04-19T12:16:41.951Z</time></trkpt><trkpt lat="45.255855534391735" lon="7.578421296850149"><ele>392.0</ele><time>2026-04-19T12:16:42.951Z</time></trkpt><trkpt lat="45.255868088490985" lon="7.578600418151061"><ele>394.0</ele><time>2026-04-19T12:16:43.951Z</time></trkpt><trkpt lat="45.255905999514965" lon="7.578758765196543"><ele>395.25</ele><time>2026-04-19T12:16:44.951Z</time></trkpt><trkpt lat="45.255976768172005" lon="7.578894535997938"><ele>396.5</ele><time>2026-04-19T12:16:45.951Z</time></trkpt><trkpt lat="45.256060468993645" lon="7.579038175505734"><ele>397.75</ele><time>2026-04-19T12:16:46.951Z</time></trkpt><trkpt lat="45.25615661223534" lon="7.5791688456038555"><ele>399.0</ele><time>2026-04-19T12:16:47.951Z</time></trkpt><trkpt lat="45.25625196022209" lon="7.579304712045849"><ele>399.0</ele><time>2026-04-19T12:16:48.951Z</time></trkpt><trkpt lat="45.256362515699784" lon="7.5794439297418"><ele>399.0</ele><time>2026-04-19T12:16:49.951Z</time></trkpt><trkpt lat="45.25647252618927" lon="7.579571351656482"><ele>399.0</ele><time>2026-04-19T12:16:50.951Z</time></trkpt><trkpt lat="45.25656763945088" lon="7.579706082320663"><ele>399.0</ele><time>2026-04-19T12:16:51.951Z</time></trkpt><trkpt lat="45.25664849631694" lon="7.579852870157375"><ele>399.75</ele><time>2026-04-19T12:16:52.951Z</time></trkpt><trkpt lat="45.25672400676292" lon="7.579988592579696"><ele>400.5</ele><time>2026-04-19T12:16:53.951Z</time></trkpt><trkpt lat="45.256774205885804" lon="7.580142685395903"><ele>401.25</ele><time>2026-04-19T12:16:54.951Z</time></trkpt><trkpt lat="45.25684140712889" lon="7.580290386991244"><ele>402.0</ele><time>2026-04-19T12:16:55.951Z</time></trkpt><trkpt lat="45.25691440051047" lon="7.580441281611616"><ele>402.0</ele><time>2026-04-19T12:16:56.951Z</time></trkpt><trkpt lat="45.25699735904774" lon="7.580592465430317"><ele>402.0</ele><time>2026-04-19T12:16:57.951Z</time></trkpt><trkpt lat="45.257092458571876" lon="7.580754338471818"><ele>402.0</ele><time>2026-04-19T12:16:58.951Z</time></trkpt><trkpt lat="45.25718608235315" lon="7.580910306025345"><ele>402.0</ele><time>2026-04-19T12:16:59.951Z</time></trkpt><trkpt lat="45.25727479701731" lon="7.581065101798107"><ele>401.0</ele><time>2026-04-19T12:17:00.951Z</time></trkpt><trkpt lat="45.257345779538824" lon="7.5812245197140715"><ele>400.0</ele><time>2026-04-19T12:17:01.951Z</time></trkpt><trkpt lat="45.25743300860459" lon="7.581379214884398"><ele>399.0</ele><time>2026-04-19T12:17:02.951Z</time></trkpt><trkpt lat="45.257521243505465" lon="7.581533634536615"><ele>398.0</ele><time>2026-04-19T12:17:03.951Z</time></trkpt><trkpt lat="45.25760924753984" lon="7.581689664110046"><ele>398.0</ele><time>2026-04-19T12:17:04.951Z</time></trkpt><trkpt lat="45.25770263865619" lon="7.581842422966944"><ele>398.0</ele><time>2026-04-19T12:17:05.948Z</time></trkpt><trkpt lat="45.25778822693264" lon="7.581979503851047"><ele>398.0</ele><time>2026-04-19T12:17:06.949Z</time></trkpt><trkpt lat="45.257852953787854" lon="7.582091629584715"><ele>398.0</ele><time>2026-04-19T12:17:07.949Z</time></trkpt><trkpt lat="45.25790895648437" lon="7.58218750287361"><ele>398.0</ele><time>2026-04-19T12:17:08.948Z</time></trkpt><trkpt lat="45.25798128349647" lon="7.58228782644383"><ele>398.0</ele><time>2026-04-19T12:17:09.949Z</time></trkpt><trkpt lat="45.25806403970058" lon="7.582398016332785"><ele>398.0</ele><time>2026-04-19T12:17:10.949Z</time></trkpt><trkpt lat="45.25814468237102" lon="7.58251621079366"><ele>398.0</ele><time>2026-04-19T12:17:11.948Z</time></trkpt><trkpt lat="45.25823265001374" lon="7.582629814334447"><ele>398.0</ele><time>2026-04-19T12:17:12.948Z</time></trkpt><trkpt lat="45.2583295998041" lon="7.582746895167539"><ele>398.0</ele><time>2026-04-19T12:17:13.948Z</time></trkpt><trkpt lat="45.25845177731755" lon="7.582832176534396"><ele>398.0</ele><time>2026-04-19T12:17:14.948Z</time></trkpt><trkpt lat="45.2585788865695" lon="7.582884702912129"><ele>398.0</ele><time>2026-04-19T12:17:15.948Z</time></trkpt><trkpt lat="45.258731472082296" lon="7.582894538478313"><ele>398.0</ele><time>2026-04-19T12:17:16.948Z</time></trkpt><trkpt lat="45.258888276293206" lon="7.582891211766917"><ele>399.66666666666663</ele><time>2026-04-19T12:17:17.948Z</time></trkpt><trkpt lat="45.25905968345918" lon="7.582895690343784"><ele>401.33333333333337</ele><time>2026-04-19T12:17:18.948Z</time></trkpt><trkpt lat="45.25924227778486" lon="7.582891525751908"><ele>403.0</ele><time>2026-04-19T12:17:19.948Z</time></trkpt><trkpt lat="45.25942350916236" lon="7.582892862975571"><ele>403.0</ele><time>2026-04-19T12:17:20.948Z</time></trkpt><trkpt lat="45.259587758400954" lon="7.582892600071814"><ele>403.0</ele><time>2026-04-19T12:17:21.948Z</time></trkpt><trkpt lat="45.25974388596509" lon="7.582847351626081"><ele>403.0</ele><time>2026-04-19T12:17:22.948Z</time></trkpt><trkpt lat="45.259891519205546" lon="7.582762239950411"><ele>404.0</ele><time>2026-04-19T12:17:23.948Z</time></trkpt><trkpt lat="45.26002641553748" lon="7.5826447975921605"><ele>405.0</ele><time>2026-04-19T12:17:24.948Z</time></trkpt><trkpt lat="45.260178200742295" lon="7.582525347438796"><ele>406.0</ele><time>2026-04-19T12:17:25.948Z</time></trkpt><trkpt lat="45.260325078515415" lon="7.582409465311171"><ele>406.0</ele><time>2026-04-19T12:17:26.948Z</time></trkpt><trkpt lat="45.26046634167087" lon="7.582301026285226"><ele>406.0</ele><time>2026-04-19T12:17:27.948Z</time></trkpt><trkpt lat="45.260594152146744" lon="7.582201419885729"><ele>406.0</ele><time>2026-04-19T12:17:28.948Z</time></trkpt><trkpt lat="45.26071904393415" lon="7.582105707769852"><ele>406.0</ele><time>2026-04-19T12:17:29.948Z</time></trkpt><trkpt lat="45.260855093075484" lon="7.582041189179871"><ele>406.6666666666667</ele><time>2026-04-19T12:17:30.948Z</time></trkpt><trkpt lat="45.26100391699684" lon="7.582015825025094"><ele>407.33333333333337</ele><time>2026-04-19T12:17:31.948Z</time></trkpt><trkpt lat="45.26115765471492" lon="7.582012999937004"><ele>408.0</ele><time>2026-04-19T12:17:32.948Z</time></trkpt><trkpt lat="45.261314071244655" lon="7.582000956994088"><ele>407.66666666666663</ele><time>2026-04-19T12:17:33.948Z</time></trkpt><trkpt lat="45.261472292944966" lon="7.581990185130003"><ele>407.3333333333333</ele><time>2026-04-19T12:17:34.948Z</time></trkpt><trkpt lat="45.26163544536785" lon="7.5819806817836115"><ele>407.0</ele><time>2026-04-19T12:17:35.948Z</time></trkpt><trkpt lat="45.261788845890145" lon="7.581968396018399"><ele>407.0</ele><time>2026-04-19T12:17:36.949Z</time></trkpt><trkpt lat="45.26193470074127" lon="7.581952941203134"><ele>407.0</ele><time>2026-04-19T12:17:37.949Z</time></trkpt><trkpt lat="45.262070302746324" lon="7.581934571334387"><ele>407.0</ele><time>2026-04-19T12:17:38.949Z</time></trkpt><trkpt lat="45.26220624326975" lon="7.581898437116934"><ele>407.0</ele><time>2026-04-19T12:17:39.949Z</time></trkpt><trkpt lat="45.26234084846679" lon="7.581846401183285"><ele>407.0</ele><time>2026-04-19T12:17:40.949Z</time></trkpt><trkpt lat="45.26247676931426" lon="7.5817931312291655"><ele>407.0</ele><time>2026-04-19T12:17:41.949Z</time></trkpt><trkpt lat="45.26261433091896" lon="7.581736518011141"><ele>407.0</ele><time>2026-04-19T12:17:42.949Z</time></trkpt><trkpt lat="45.26274964266957" lon="7.581667028678292"><ele>407.0</ele><time>2026-04-19T12:17:43.949Z</time></trkpt><trkpt lat="45.26287880820644" lon="7.58160244607789"><ele>407.0</ele><time>2026-04-19T12:17:44.949Z</time></trkpt><trkpt lat="45.263009088943605" lon="7.581539395075921"><ele>407.0</ele><time>2026-04-19T12:17:45.949Z</time></trkpt><trkpt lat="45.26313263415809" lon="7.581457110481049"><ele>407.0</ele><time>2026-04-19T12:17:46.949Z</time></trkpt><trkpt lat="45.26325179034152" lon="7.581351472370033"><ele>407.0</ele><time>2026-04-19T12:17:47.949Z</time></trkpt><trkpt lat="45.26336203670873" lon="7.581223314140391"><ele>407.75</ele><time>2026-04-19T12:17:48.949Z</time></trkpt><trkpt lat="45.263475523424454" lon="7.58109785536645"><ele>408.5</ele><time>2026-04-19T12:17:49.949Z</time></trkpt><trkpt lat="45.263589184262045" lon="7.5809687264765495"><ele>409.25</ele><time>2026-04-19T12:17:50.949Z</time></trkpt><trkpt lat="45.26370008119258" lon="7.580835201735981"><ele>410.0</ele><time>2026-04-19T12:17:51.949Z</time></trkpt><trkpt lat="45.26381736852598" lon="7.580713500595699"><ele>410.0</ele><time>2026-04-19T12:17:52.949Z</time></trkpt><trkpt lat="45.2639445567342" lon="7.580610466559413"><ele>410.0</ele><time>2026-04-19T12:17:53.949Z</time></trkpt><trkpt lat="45.264081478011065" lon="7.5805347442118505"><ele>410.0</ele><time>2026-04-19T12:17:54.949Z</time></trkpt><trkpt lat="45.26422479136742" lon="7.5804723820209325"><ele>410.0</ele><time>2026-04-19T12:17:55.949Z</time></trkpt><trkpt lat="45.26437003413591" lon="7.580425541271565"><ele>410.0</ele><time>2026-04-19T12:17:56.949Z</time></trkpt><trkpt lat="45.26452724577222" lon="7.580397700019219"><ele>410.0</ele><time>2026-04-19T12:17:57.949Z</time></trkpt><trkpt lat="45.26467687509247" lon="7.580382634832893"><ele>410.0</ele><time>2026-04-19T12:17:58.949Z</time></trkpt><trkpt lat="45.26481922386588" lon="7.58036523288971"><ele>410.0</ele><time>2026-04-19T12:17:59.949Z</time></trkpt><trkpt lat="45.2649609735837" lon="7.580349354434869"><ele>410.0</ele><time>2026-04-19T12:18:00.949Z</time></trkpt><trkpt lat="45.26511048639361" lon="7.580337456076181"><ele>410.0</ele><time>2026-04-19T12:18:01.949Z</time></trkpt><trkpt lat="45.265266012323586" lon="7.58032316785188"><ele>410.0</ele><time>2026-04-19T12:18:02.949Z</time></trkpt><trkpt lat="45.265429457085595" lon="7.5803006380538775"><ele>410.0</ele><time>2026-04-19T12:18:03.949Z</time></trkpt><trkpt lat="45.26560138457659" lon="7.580275487639405"><ele>410.0</ele><time>2026-04-19T12:18:04.949Z</time></trkpt><trkpt lat="45.26579021138998" lon="7.5802449979939395"><ele>410.0</ele><time>2026-04-19T12:18:05.949Z</time></trkpt><trkpt lat="45.26599168145525" lon="7.580250761491709"><ele>410.3333333333333</ele><time>2026-04-19T12:18:06.949Z</time></trkpt><trkpt lat="45.266202829867346" lon="7.580233050989521"><ele>410.66666666666663</ele><time>2026-04-19T12:18:07.949Z</time></trkpt><trkpt lat="45.26642397907303" lon="7.580188395041167"><ele>411.0</ele><time>2026-04-19T12:18:08.949Z</time></trkpt><trkpt lat="45.26665553168653" lon="7.580178607186336"><ele>411.0</ele><time>2026-04-19T12:18:09.949Z</time></trkpt><trkpt lat="45.26689800853547" lon="7.5801624141554225"><ele>411.0</ele><time>2026-04-19T12:18:10.949Z</time></trkpt><trkpt lat="45.267135809941514" lon="7.580148984936737"><ele>412.66666666666663</ele><time>2026-04-19T12:18:11.949Z</time></trkpt><trkpt lat="45.26734837540976" lon="7.580114433183231"><ele>414.3333333333333</ele><time>2026-04-19T12:18:12.949Z</time></trkpt><trkpt lat="45.2675396175716" lon="7.5800545980737235"><ele>416.0</ele><time>2026-04-19T12:18:13.949Z</time></trkpt><trkpt lat="45.267707327116256" lon="7.579954014065235"><ele>416.0</ele><time>2026-04-19T12:18:14.949Z</time></trkpt><trkpt lat="45.26784487296616" lon="7.5798073094939316"><ele>416.0</ele><time>2026-04-19T12:18:15.949Z</time></trkpt><trkpt lat="45.26797051760469" lon="7.579622497155471"><ele>416.0</ele><time>2026-04-19T12:18:16.949Z</time></trkpt><trkpt lat="45.26808641562497" lon="7.579408688251817"><ele>418.3333333333333</ele><time>2026-04-19T12:18:17.949Z</time></trkpt><trkpt lat="45.268208722962115" lon="7.579192628322882"><ele>420.66666666666663</ele><time>2026-04-19T12:18:18.949Z</time></trkpt><trkpt lat="45.26832630621023" lon="7.578995516216712"><ele>423.0</ele><time>2026-04-19T12:18:19.949Z</time></trkpt><trkpt lat="45.26843000167847" lon="7.578820036676036"><ele>422.5</ele><time>2026-04-19T12:18:20.949Z</time></trkpt><trkpt lat="45.2685290761187" lon="7.578663729330239"><ele>422.0</ele><time>2026-04-19T12:18:21.949Z</time></trkpt><trkpt lat="45.26862775879545" lon="7.5785244460416115"><ele>421.5</ele><time>2026-04-19T12:18:22.949Z</time></trkpt><trkpt lat="45.268740649678016" lon="7.57841341119645"><ele>421.0</ele><time>2026-04-19T12:18:23.949Z</time></trkpt><trkpt lat="45.268866526155236" lon="7.578346804961017"><ele>423.5</ele><time>2026-04-19T12:18:24.949Z</time></trkpt><trkpt lat="45.2689958804071" lon="7.5783270702352095"><ele>426.0</ele><time>2026-04-19T12:18:25.949Z</time></trkpt><trkpt lat="45.26912368840122" lon="7.578395288037521"><ele>428.5</ele><time>2026-04-19T12:18:26.949Z</time></trkpt><trkpt lat="45.269256808132646" lon="7.57847004666039"><ele>431.0</ele><time>2026-04-19T12:18:27.949Z</time></trkpt><trkpt lat="45.26939441326999" lon="7.5785527114747575"><ele>431.0</ele><time>2026-04-19T12:18:28.949Z</time></trkpt><trkpt lat="45.26955004420186" lon="7.5786505591189774"><ele>431.0</ele><time>2026-04-19T12:18:29.949Z</time></trkpt><trkpt lat="45.26970930391448" lon="7.578750761680208"><ele>431.0</ele><time>2026-04-19T12:18:30.949Z</time></trkpt><trkpt lat="45.269886843926905" lon="7.578861363975597"><ele>430.66666666666663</ele><time>2026-04-19T12:18:31.949Z</time></trkpt><trkpt lat="45.270075705305956" lon="7.578968170184775"><ele>430.33333333333337</ele><time>2026-04-19T12:18:32.949Z</time></trkpt><trkpt lat="45.27028265152674" lon="7.579079808599486"><ele>430.0</ele><time>2026-04-19T12:18:33.949Z</time></trkpt><trkpt lat="45.27049684852485" lon="7.579202647489461"><ele>433.0</ele><time>2026-04-19T12:18:34.949Z</time></trkpt><trkpt lat="45.27071987716237" lon="7.579335225645314"><ele>436.0</ele><time>2026-04-19T12:18:35.949Z</time></trkpt><trkpt lat="45.27094559975856" lon="7.579458857542896"><ele>436.5</ele><time>2026-04-19T12:18:36.949Z</time></trkpt><trkpt lat="45.27116563042086" lon="7.579581258024947"><ele>437.0</ele><time>2026-04-19T12:18:37.949Z</time></trkpt><trkpt lat="45.2713963014157" lon="7.579708259401068"><ele>438.0</ele><time>2026-04-19T12:18:38.949Z</time></trkpt><trkpt lat="45.27162948939508" lon="7.579839827849602"><ele>439.0</ele><time>2026-04-19T12:18:39.949Z</time></trkpt><trkpt lat="45.27186678414672" lon="7.579979978302763"><ele>439.0</ele><time>2026-04-19T12:18:40.949Z</time></trkpt><trkpt lat="45.27211301517468" lon="7.580120620234655"><ele>439.0</ele><time>2026-04-19T12:18:41.949Z</time></trkpt><trkpt lat="45.27236806083873" lon="7.580266382689188"><ele>436.0</ele><time>2026-04-19T12:18:42.949Z</time></trkpt><trkpt lat="45.272624077576445" lon="7.580414802686316"><ele>433.0</ele><time>2026-04-19T12:18:43.949Z</time></trkpt><trkpt lat="45.272886717828676" lon="7.580564512720786"><ele>434.0</ele><time>2026-04-19T12:18:44.949Z</time></trkpt><trkpt lat="45.27315006431764" lon="7.58071190342703"><ele>435.0</ele><time>2026-04-19T12:18:45.949Z</time></trkpt><trkpt lat="45.2734073209978" lon="7.580858297495195"><ele>435.0</ele><time>2026-04-19T12:18:46.949Z</time></trkpt><trkpt lat="45.27365291041738" lon="7.580995732929935"><ele>435.0</ele><time>2026-04-19T12:18:47.949Z</time></trkpt><trkpt lat="45.273882063632215" lon="7.581117658068525"><ele>437.66666666666663</ele><time>2026-04-19T12:18:48.949Z</time></trkpt><trkpt lat="45.27408829774855" lon="7.581232471747839"><ele>440.3333333333333</ele><time>2026-04-19T12:18:49.949Z</time></trkpt><trkpt lat="45.27427533359737" lon="7.58135897801705"><ele>443.0</ele><time>2026-04-19T12:18:50.949Z</time></trkpt><trkpt lat="45.27446161503791" lon="7.581469739254383"><ele>443.0</ele><time>2026-04-19T12:18:51.949Z</time></trkpt><trkpt lat="45.27465774077734" lon="7.581550868719345"><ele>443.0</ele><time>2026-04-19T12:18:52.949Z</time></trkpt><trkpt lat="45.274854093593305" lon="7.5816468509516435"><ele>443.0</ele><time>2026-04-19T12:18:53.949Z</time></trkpt><trkpt lat="45.27504741919834" lon="7.581709738178015"><ele>442.3333333333333</ele><time>2026-04-19T12:18:54.949Z</time></trkpt><trkpt lat="45.27525643612046" lon="7.581726109513811"><ele>441.66666666666663</ele><time>2026-04-19T12:18:55.949Z</time></trkpt><trkpt lat="45.27546724812526" lon="7.58173622525384"><ele>441.0</ele><time>2026-04-19T12:18:56.949Z</time></trkpt><trkpt lat="45.27569287147484" lon="7.581726344097409"><ele>440.5</ele><time>2026-04-19T12:18:57.949Z</time></trkpt><trkpt lat="45.275928279916684" lon="7.581721679992228"><ele>440.0</ele><time>2026-04-19T12:18:58.949Z</time></trkpt><trkpt lat="45.2761734796686" lon="7.581717468620183"><ele>440.0</ele><time>2026-04-19T12:18:59.949Z</time></trkpt><trkpt lat="45.27642439243024" lon="7.581719938884374"><ele>440.0</ele><time>2026-04-19T12:19:00.949Z</time></trkpt><trkpt lat="45.27669103381253" lon="7.581717757387187"><ele>439.5</ele><time>2026-04-19T12:19:01.949Z</time></trkpt><trkpt lat="45.27696100337996" lon="7.5817125125520315"><ele>439.0</ele><time>2026-04-19T12:19:02.949Z</time></trkpt><trkpt lat="45.27722365583696" lon="7.581707922691882"><ele>439.5</ele><time>2026-04-19T12:19:03.949Z</time></trkpt><trkpt lat="45.27749014503869" lon="7.581702478243806"><ele>440.0</ele><time>2026-04-19T12:19:04.949Z</time></trkpt><trkpt lat="45.27775527232047" lon="7.581700321294622"><ele>440.0</ele><time>2026-04-19T12:19:05.949Z</time></trkpt><trkpt lat="45.27801512784834" lon="7.581698981602673"><ele>440.0</ele><time>2026-04-19T12:19:06.949Z</time></trkpt><trkpt lat="45.278268579553256" lon="7.581694186812798"><ele>442.0</ele><time>2026-04-19T12:19:07.949Z</time></trkpt><trkpt lat="45.27851196163928" lon="7.581687825379359"><ele>444.0</ele><time>2026-04-19T12:19:08.949Z</time></trkpt><trkpt lat="45.27874565989758" lon="7.581688176743738"><ele>444.66666666666663</ele><time>2026-04-19T12:19:09.949Z</time></trkpt><trkpt lat="45.278971446466244" lon="7.581687433874971"><ele>445.3333333333333</ele><time>2026-04-19T12:19:10.949Z</time></trkpt><trkpt lat="45.279188287654705" lon="7.5816844286910205"><ele>446.0</ele><time>2026-04-19T12:19:11.947Z</time></trkpt><trkpt lat="45.27939489522302" lon="7.581679805386469"><ele>446.0</ele><time>2026-04-19T12:19:12.947Z</time></trkpt><trkpt lat="45.279588816743896" lon="7.581674469722538"><ele>446.0</ele><time>2026-04-19T12:19:13.947Z</time></trkpt><trkpt lat="45.27976959775865" lon="7.5816736568370064"><ele>446.0</ele><time>2026-04-19T12:19:14.947Z</time></trkpt><trkpt lat="45.279938536734385" lon="7.581673161029222"><ele>446.3333333333333</ele><time>2026-04-19T12:19:15.947Z</time></trkpt><trkpt lat="45.280095941766355" lon="7.581671195400458"><ele>446.66666666666663</ele><time>2026-04-19T12:19:16.947Z</time></trkpt><trkpt lat="45.280248911716136" lon="7.581668305799541"><ele>447.0</ele><time>2026-04-19T12:19:17.947Z</time></trkpt><trkpt lat="45.28039083854639" lon="7.581661937350004"><ele>447.0</ele><time>2026-04-19T12:19:18.947Z</time></trkpt><trkpt lat="45.28053053784426" lon="7.581657318088339"><ele>447.0</ele><time>2026-04-19T12:19:19.947Z</time></trkpt><trkpt lat="45.28066148658649" lon="7.581650862316642"><ele>447.0</ele><time>2026-04-19T12:19:20.947Z</time></trkpt><trkpt lat="45.2807867575256" lon="7.581644851931331"><ele>447.0</ele><time>2026-04-19T12:19:21.947Z</time></trkpt><trkpt lat="45.28090380957774" lon="7.58165018265658"><ele>447.5</ele><time>2026-04-19T12:19:22.947Z</time></trkpt><trkpt lat="45.28101865103685" lon="7.58166240895874"><ele>448.0</ele><time>2026-04-19T12:19:23.947Z</time></trkpt><trkpt lat="45.28113293150253" lon="7.5817137305660385"><ele>448.5</ele><time>2026-04-19T12:19:24.947Z</time></trkpt><trkpt lat="45.281241082300454" lon="7.581802860116423"><ele>449.0</ele><time>2026-04-19T12:19:25.947Z</time></trkpt><trkpt lat="45.28133900388484" lon="7.581920053288908"><ele>449.0</ele><time>2026-04-19T12:19:26.947Z</time></trkpt><trkpt lat="45.28143050265087" lon="7.582059461017518"><ele>449.0</ele><time>2026-04-19T12:19:27.947Z</time></trkpt><trkpt lat="45.28153187312031" lon="7.582183251001688"><ele>449.0</ele><time>2026-04-19T12:19:28.947Z</time></trkpt><trkpt lat="45.281631163434945" lon="7.582333317006232"><ele>449.0</ele><time>2026-04-19T12:19:29.947Z</time></trkpt><trkpt lat="45.28171648882446" lon="7.582502831224465"><ele>449.0</ele><time>2026-04-19T12:19:30.947Z</time></trkpt><trkpt lat="45.28178313283072" lon="7.582686710985093"><ele>449.0</ele><time>2026-04-19T12:19:31.947Z</time></trkpt><trkpt lat="45.28182791055154" lon="7.582883311646615"><ele>449.0</ele><time>2026-04-19T12:19:32.947Z</time></trkpt><trkpt lat="45.281855712974185" lon="7.583089235883195"><ele>449.0</ele><time>2026-04-19T12:19:33.947Z</time></trkpt><trkpt lat="45.281908027078984" lon="7.583300511047777"><ele>449.0</ele><time>2026-04-19T12:19:34.947Z</time></trkpt><trkpt lat="45.28195656866998" lon="7.583509804320455"><ele>449.0</ele><time>2026-04-19T12:19:35.947Z</time></trkpt><trkpt lat="45.281996653088065" lon="7.583736485402658"><ele>449.0</ele><time>2026-04-19T12:19:36.947Z</time></trkpt><trkpt lat="45.28202483511339" lon="7.583959276880194"><ele>448.25</ele><time>2026-04-19T12:19:37.947Z</time></trkpt><trkpt lat="45.28204777892276" lon="7.584182451730005"><ele>447.5</ele><time>2026-04-19T12:19:38.947Z</time></trkpt><trkpt lat="45.28206887470759" lon="7.58439166845845"><ele>446.75</ele><time>2026-04-19T12:19:39.947Z</time></trkpt><trkpt lat="45.28207356584756" lon="7.584591575524196"><ele>446.0</ele><time>2026-04-19T12:19:40.947Z</time></trkpt><trkpt lat="45.28209435633795" lon="7.5847617725691965"><ele>445.4</ele><time>2026-04-19T12:19:41.947Z</time></trkpt><trkpt lat="45.28213105643887" lon="7.584910219028336"><ele>444.8</ele><time>2026-04-19T12:19:42.947Z</time></trkpt><trkpt lat="45.28220897261937" lon="7.585029563386348"><ele>444.19999999999993</ele><time>2026-04-19T12:19:43.947Z</time></trkpt><trkpt lat="45.28228775063514" lon="7.585125112463558"><ele>443.59999999999997</ele><time>2026-04-19T12:19:44.947Z</time></trkpt><trkpt lat="45.28237371595935" lon="7.585212063540474"><ele>443.0</ele><time>2026-04-19T12:19:45.947Z</time></trkpt><trkpt lat="45.28248048266961" lon="7.585311655297566"><ele>441.25</ele><time>2026-04-19T12:19:46.947Z</time></trkpt><trkpt lat="45.2825900098285" lon="7.585420629159458"><ele>439.5</ele><time>2026-04-19T12:19:47.947Z</time></trkpt><trkpt lat="45.28268656441248" lon="7.585548863585809"><ele>437.75</ele><time>2026-04-19T12:19:48.947Z</time></trkpt><trkpt lat="45.28278626226648" lon="7.585656027938998"><ele>436.0</ele><time>2026-04-19T12:19:49.947Z</time></trkpt><trkpt lat="45.28289659506131" lon="7.585740347723172"><ele>436.0</ele><time>2026-04-19T12:19:50.947Z</time></trkpt><trkpt lat="45.2829726656496" lon="7.585872652591728"><ele>436.0</ele><time>2026-04-19T12:19:51.947Z</time></trkpt><trkpt lat="45.28301693069395" lon="7.58602686727308"><ele>436.0</ele><time>2026-04-19T12:19:52.947Z</time></trkpt><trkpt lat="45.28302804589037" lon="7.5861957603679455"><ele>436.0</ele><time>2026-04-19T12:19:53.947Z</time></trkpt><trkpt lat="45.28302416328404" lon="7.5863825797081335"><ele>436.75</ele><time>2026-04-19T12:19:54.947Z</time></trkpt><trkpt lat="45.2830056673209" lon="7.586584674314933"><ele>437.5</ele><time>2026-04-19T12:19:55.947Z</time></trkpt><trkpt lat="45.28296899593793" lon="7.586797370678118"><ele>438.25</ele><time>2026-04-19T12:19:56.947Z</time></trkpt><trkpt lat="45.2829138489161" lon="7.586994909606523"><ele>439.0</ele><time>2026-04-19T12:19:57.947Z</time></trkpt><trkpt lat="45.282857509266265" lon="7.587172019619128"><ele>437.6</ele><time>2026-04-19T12:19:58.947Z</time></trkpt><trkpt lat="45.28280238635804" lon="7.587338826239024"><ele>436.2</ele><time>2026-04-19T12:19:59.947Z</time></trkpt><trkpt lat="45.28273960653008" lon="7.587473697474658"><ele>434.80000000000007</ele><time>2026-04-19T12:20:00.947Z</time></trkpt><trkpt lat="45.28267421095627" lon="7.587562553920977"><ele>433.40000000000003</ele><time>2026-04-19T12:20:01.947Z</time></trkpt><trkpt lat="45.28262826856536" lon="7.5877047750602635"><ele>432.0</ele><time>2026-04-19T12:20:03.947Z</time></trkpt><trkpt lat="45.28270135094518" lon="7.587800830308955"><ele>432.0</ele><time>2026-04-19T12:20:05.947Z</time></trkpt><trkpt lat="45.28279382951621" lon="7.587832246933817"><ele>432.00000000000006</ele><time>2026-04-19T12:20:06.947Z</time></trkpt><trkpt lat="45.282871202086945" lon="7.587780935885421"><ele>432.00000000000006</ele><time>2026-04-19T12:20:07.947Z</time></trkpt><trkpt lat="45.28294787972126" lon="7.587713908289135"><ele>432.0</ele><time>2026-04-19T12:20:08.947Z</time></trkpt><trkpt lat="45.2830506597547" lon="7.587645714938826"><ele>432.0</ele><time>2026-04-19T12:20:09.947Z</time></trkpt><trkpt lat="45.283148195373265" lon="7.587553746539256"><ele>421.0</ele><time>2026-04-19T12:20:10.947Z</time></trkpt><trkpt lat="45.28326591447205" lon="7.587399809074986"><ele>410.0</ele><time>2026-04-19T12:20:11.947Z</time></trkpt><trkpt lat="45.28339288937574" lon="7.58723933316318"><ele>399.0</ele><time>2026-04-19T12:20:12.947Z</time></trkpt><trkpt lat="45.28352448785265" lon="7.587055742600975"><ele>402.0</ele><time>2026-04-19T12:20:13.947Z</time></trkpt><trkpt lat="45.28364660564321" lon="7.586872311021072"><ele>405.0</ele><time>2026-04-19T12:20:14.947Z</time></trkpt><trkpt lat="45.28377518879056" lon="7.586685828697884"><ele>408.0</ele><time>2026-04-19T12:20:15.947Z</time></trkpt><trkpt lat="45.28390223840069" lon="7.586523810009723"><ele>400.33333333333337</ele><time>2026-04-19T12:20:16.947Z</time></trkpt><trkpt lat="45.28404575153595" lon="7.586363507913039"><ele>392.6666666666667</ele><time>2026-04-19T12:20:17.947Z</time></trkpt><trkpt lat="45.284203365194045" lon="7.586205666348712"><ele>385.0</ele><time>2026-04-19T12:20:18.947Z</time></trkpt><trkpt lat="45.28436190751846" lon="7.5860381030079855"><ele>385.0</ele><time>2026-04-19T12:20:19.947Z</time></trkpt><trkpt lat="45.28453337359804" lon="7.58587321335922"><ele>385.0</ele><time>2026-04-19T12:20:20.947Z</time></trkpt><trkpt lat="45.28470490867431" lon="7.585699320742129"><ele>385.0</ele><time>2026-04-19T12:20:21.947Z</time></trkpt><trkpt lat="45.28487822467463" lon="7.5855108453368105"><ele>383.6666666666667</ele><time>2026-04-19T12:20:22.947Z</time></trkpt><trkpt lat="45.28505878119176" lon="7.585322858915918"><ele>382.33333333333337</ele><time>2026-04-19T12:20:23.947Z</time></trkpt><trkpt lat="45.28522706545259" lon="7.585134250843259"><ele>381.0</ele><time>2026-04-19T12:20:24.947Z</time></trkpt><trkpt lat="45.285380449959845" lon="7.584927378354461"><ele>381.0</ele><time>2026-04-19T12:20:25.947Z</time></trkpt><trkpt lat="45.28551537112734" lon="7.584694668837106"><ele>381.0</ele><time>2026-04-19T12:20:26.947Z</time></trkpt><trkpt lat="45.285619094323835" lon="7.584435975778914"><ele>381.0</ele><time>2026-04-19T12:20:27.947Z</time></trkpt><trkpt lat="45.285715492926926" lon="7.584174207115648"><ele>380.0</ele><time>2026-04-19T12:20:28.947Z</time></trkpt><trkpt lat="45.28582923174289" lon="7.583914616669829"><ele>379.0</ele><time>2026-04-19T12:20:29.947Z</time></trkpt><trkpt lat="45.28594953643166" lon="7.5836677074443894"><ele>378.0</ele><time>2026-04-19T12:20:30.947Z</time></trkpt><trkpt lat="45.286073126831546" lon="7.5834573764190125"><ele>378.0</ele><time>2026-04-19T12:20:31.947Z</time></trkpt><trkpt lat="45.28620598881332" lon="7.583281006190295"><ele>378.0</ele><time>2026-04-19T12:20:32.947Z</time></trkpt><trkpt lat="45.28635315218954" lon="7.583137509409581"><ele>378.0</ele><time>2026-04-19T12:20:33.947Z</time></trkpt><trkpt lat="45.28652440751059" lon="7.583034031295394"><ele>376.3333333333333</ele><time>2026-04-19T12:20:34.947Z</time></trkpt><trkpt lat="45.28670956223737" lon="7.582959406159302"><ele>374.66666666666663</ele><time>2026-04-19T12:20:35.947Z</time></trkpt><trkpt lat="45.28689764300813" lon="7.5829325624279535"><ele>373.0</ele><time>2026-04-19T12:20:36.947Z</time></trkpt><trkpt lat="45.287081038003286" lon="7.582955529470638"><ele>373.0</ele><time>2026-04-19T12:20:37.947Z</time></trkpt><trkpt lat="45.28726315408799" lon="7.583001780860391"><ele>373.0</ele><time>2026-04-19T12:20:38.947Z</time></trkpt><trkpt lat="45.28744746045586" lon="7.583055827744445"><ele>373.0</ele><time>2026-04-19T12:20:39.947Z</time></trkpt><trkpt lat="45.2876346920573" lon="7.58310448727435"><ele>373.0</ele><time>2026-04-19T12:20:40.947Z</time></trkpt><trkpt lat="45.287832135219354" lon="7.5831502846639625"><ele>373.0</ele><time>2026-04-19T12:20:41.947Z</time></trkpt><trkpt lat="45.28802642771632" lon="7.583205725416299"><ele>373.0</ele><time>2026-04-19T12:20:42.947Z</time></trkpt><trkpt lat="45.288222770584106" lon="7.583250490286434"><ele>376.0</ele><time>2026-04-19T12:20:43.947Z</time></trkpt><trkpt lat="45.28842077392996" lon="7.583282975660346"><ele>379.0</ele><time>2026-04-19T12:20:44.947Z</time></trkpt><trkpt lat="45.28861928318689" lon="7.583304018290795"><ele>382.0</ele><time>2026-04-19T12:20:45.947Z</time></trkpt><trkpt lat="45.28881451684572" lon="7.583306236791727"><ele>386.0</ele><time>2026-04-19T12:20:46.947Z</time></trkpt><trkpt lat="45.28899591620614" lon="7.583283650711462"><ele>390.0</ele><time>2026-04-19T12:20:47.947Z</time></trkpt><trkpt lat="45.28917546063402" lon="7.583238710061433"><ele>394.0</ele><time>2026-04-19T12:20:48.947Z</time></trkpt><trkpt lat="45.289349220229774" lon="7.5831758986652655"><ele>394.0</ele><time>2026-04-19T12:20:49.947Z</time></trkpt><trkpt lat="45.28952767871074" lon="7.583107906992191"><ele>394.0</ele><time>2026-04-19T12:20:50.947Z</time></trkpt><trkpt lat="45.28970275996572" lon="7.5830557888709995"><ele>394.0</ele><time>2026-04-19T12:20:51.947Z</time></trkpt><trkpt lat="45.28987661810684" lon="7.583029385742336"><ele>398.6666666666667</ele><time>2026-04-19T12:20:52.947Z</time></trkpt><trkpt lat="45.29005118131591" lon="7.583025651161757"><ele>403.33333333333337</ele><time>2026-04-19T12:20:53.947Z</time></trkpt><trkpt lat="45.29022780198038" lon="7.583033520205494"><ele>408.0</ele><time>2026-04-19T12:20:54.947Z</time></trkpt><trkpt lat="45.290406544674745" lon="7.58303593678223"><ele>408.0</ele><time>2026-04-19T12:20:55.947Z</time></trkpt><trkpt lat="45.290582114012764" lon="7.583018367181181"><ele>408.0</ele><time>2026-04-19T12:20:56.947Z</time></trkpt><trkpt lat="45.29075176075577" lon="7.5829550552177825"><ele>408.0</ele><time>2026-04-19T12:20:57.947Z</time></trkpt><trkpt lat="45.29091790023269" lon="7.582863426398082"><ele>405.66666666666663</ele><time>2026-04-19T12:20:58.947Z</time></trkpt><trkpt lat="45.291078121500696" lon="7.582734958495138"><ele>403.3333333333333</ele><time>2026-04-19T12:20:59.947Z</time></trkpt><trkpt lat="45.291232496162294" lon="7.582595048877902"><ele>401.0</ele><time>2026-04-19T12:21:00.947Z</time></trkpt><trkpt lat="45.29140292151267" lon="7.582468437111732"><ele>406.66666666666663</ele><time>2026-04-19T12:21:01.947Z</time></trkpt><trkpt lat="45.291578918185884" lon="7.582354078140296"><ele>412.33333333333337</ele><time>2026-04-19T12:21:02.947Z</time></trkpt><trkpt lat="45.2917580111902" lon="7.582281232743862"><ele>418.0</ele><time>2026-04-19T12:21:03.947Z</time></trkpt><trkpt lat="45.29192670422472" lon="7.582201862726778"><ele>418.0</ele><time>2026-04-19T12:21:04.947Z</time></trkpt><trkpt lat="45.29206644011059" lon="7.582093939097354"><ele>418.0</ele><time>2026-04-19T12:21:05.947Z</time></trkpt><trkpt lat="45.2921935037685" lon="7.581962063637125"><ele>418.0</ele><time>2026-04-19T12:21:06.947Z</time></trkpt><trkpt lat="45.29230686745206" lon="7.581790408963944"><ele>419.33333333333337</ele><time>2026-04-19T12:21:07.947Z</time></trkpt><trkpt lat="45.292425372060436" lon="7.581611969812801"><ele>420.66666666666663</ele><time>2026-04-19T12:21:08.947Z</time></trkpt><trkpt lat="45.29255002499201" lon="7.581452274706027"><ele>422.0</ele><time>2026-04-19T12:21:09.947Z</time></trkpt><trkpt lat="45.29269336308539" lon="7.581340300852973"><ele>422.0</ele><time>2026-04-19T12:21:10.947Z</time></trkpt><trkpt lat="45.29284361428197" lon="7.58126184399624"><ele>422.0</ele><time>2026-04-19T12:21:11.947Z</time></trkpt><trkpt lat="45.2929951340442" lon="7.581166284140661"><ele>422.0</ele><time>2026-04-19T12:21:12.947Z</time></trkpt><trkpt lat="45.29313057621091" lon="7.58108350565146"><ele>423.0</ele><time>2026-04-19T12:21:13.947Z</time></trkpt><trkpt lat="45.29325813495124" lon="7.581023542590455"><ele>424.0</ele><time>2026-04-19T12:21:14.947Z</time></trkpt><trkpt lat="45.29338032358252" lon="7.581006818246673"><ele>425.0</ele><time>2026-04-19T12:21:15.947Z</time></trkpt><trkpt lat="45.2934922563542" lon="7.581057141789795"><ele>426.0</ele><time>2026-04-19T12:21:16.947Z</time></trkpt><trkpt lat="45.29360327248878" lon="7.581134762139738"><ele>428.0</ele><time>2026-04-19T12:21:17.945Z</time></trkpt><trkpt lat="45.2937277811225" lon="7.581212720252462"><ele>430.0</ele><time>2026-04-19T12:21:18.945Z</time></trkpt><trkpt lat="45.29387898329369" lon="7.581273661977785"><ele>432.0</ele><time>2026-04-19T12:21:19.945Z</time></trkpt><trkpt lat="45.2940362662789" lon="7.5812547515473"><ele>433.25</ele><time>2026-04-19T12:21:20.945Z</time></trkpt><trkpt lat="45.2941961919364" lon="7.58125167820473"><ele>434.5</ele><time>2026-04-19T12:21:21.945Z</time></trkpt><trkpt lat="45.294343834515416" lon="7.581276152789805"><ele>435.75</ele><time>2026-04-19T12:21:22.945Z</time></trkpt><trkpt lat="45.294484182707755" lon="7.581277367152238"><ele>437.0</ele><time>2026-04-19T12:21:23.945Z</time></trkpt><trkpt lat="45.2946287703199" lon="7.581263887151429"><ele>438.0</ele><time>2026-04-19T12:21:24.945Z</time></trkpt><trkpt lat="45.294786768103315" lon="7.581225958461792"><ele>439.0</ele><time>2026-04-19T12:21:25.945Z</time></trkpt><trkpt lat="45.294952021670106" lon="7.581164698638876"><ele>440.0</ele><time>2026-04-19T12:21:26.945Z</time></trkpt><trkpt lat="45.295121294904675" lon="7.581088799852902"><ele>440.0</ele><time>2026-04-19T12:21:27.945Z</time></trkpt><trkpt lat="45.295274229919976" lon="7.581008205934227"><ele>440.0</ele><time>2026-04-19T12:21:28.945Z</time></trkpt><trkpt lat="45.295411942667705" lon="7.58092818343199"><ele>440.0</ele><time>2026-04-19T12:21:29.945Z</time></trkpt><trkpt lat="45.295558800436694" lon="7.580856426186432"><ele>441.0</ele><time>2026-04-19T12:21:30.945Z</time></trkpt><trkpt lat="45.295708971746976" lon="7.580798673640875"><ele>442.0</ele><time>2026-04-19T12:21:31.945Z</time></trkpt><trkpt lat="45.29586484907105" lon="7.580753182254582"><ele>443.0</ele><time>2026-04-19T12:21:32.945Z</time></trkpt><trkpt lat="45.2960221349147" lon="7.5807008650182635"><ele>443.0</ele><time>2026-04-19T12:21:33.945Z</time></trkpt><trkpt lat="45.29616421635014" lon="7.580608665481681"><ele>443.0</ele><time>2026-04-19T12:21:34.945Z</time></trkpt><trkpt lat="45.2963073299066" lon="7.580543737015533"><ele>443.0</ele><time>2026-04-19T12:21:35.945Z</time></trkpt><trkpt lat="45.296446961949265" lon="7.580497721011367"><ele>444.0</ele><time>2026-04-19T12:21:36.945Z</time></trkpt><trkpt lat="45.29658854341466" lon="7.580459421569643"><ele>445.0</ele><time>2026-04-19T12:21:37.945Z</time></trkpt><trkpt lat="45.296738626381384" lon="7.580420479395615"><ele>446.0</ele><time>2026-04-19T12:21:38.945Z</time></trkpt><trkpt lat="45.29689170003371" lon="7.580380517262929"><ele>446.3333333333333</ele><time>2026-04-19T12:21:39.945Z</time></trkpt><trkpt lat="45.29705133483443" lon="7.580320955437576"><ele>446.66666666666663</ele><time>2026-04-19T12:21:40.945Z</time></trkpt><trkpt lat="45.2972132047251" lon="7.580268420580402"><ele>447.0</ele><time>2026-04-19T12:21:41.945Z</time></trkpt><trkpt lat="45.29738048714638" lon="7.580195298237614"><ele>448.33333333333337</ele><time>2026-04-19T12:21:42.945Z</time></trkpt><trkpt lat="45.29755096409076" lon="7.580135605747516"><ele>449.6666666666667</ele><time>2026-04-19T12:21:43.945Z</time></trkpt><trkpt lat="45.29772395633463" lon="7.580070137180944"><ele>451.0</ele><time>2026-04-19T12:21:44.945Z</time></trkpt><trkpt lat="45.29790477274269" lon="7.58003048656223"><ele>451.0</ele><time>2026-04-19T12:21:45.945Z</time></trkpt><trkpt lat="45.29808337661036" lon="7.579981044528777"><ele>451.0</ele><time>2026-04-19T12:21:46.945Z</time></trkpt><trkpt lat="45.29828017796824" lon="7.579975353119462"><ele>451.0</ele><time>2026-04-19T12:21:47.945Z</time></trkpt><trkpt lat="45.2984834331268" lon="7.579929890242778"><ele>451.33333333333337</ele><time>2026-04-19T12:21:48.945Z</time></trkpt><trkpt lat="45.298683415689105" lon="7.579869665394548"><ele>451.66666666666663</ele><time>2026-04-19T12:21:49.945Z</time></trkpt><trkpt lat="45.298880780083216" lon="7.5797768226048206"><ele>452.0</ele><time>2026-04-19T12:21:50.945Z</time></trkpt><trkpt lat="45.299081338752345" lon="7.579667672495578"><ele>452.66666666666663</ele><time>2026-04-19T12:21:51.945Z</time></trkpt><trkpt lat="45.299281260861356" lon="7.579570465067326"><ele>453.33333333333337</ele><time>2026-04-19T12:21:52.945Z</time></trkpt><trkpt lat="45.29946732957186" lon="7.579494806418231"><ele>454.0</ele><time>2026-04-19T12:21:53.945Z</time></trkpt><trkpt lat="45.29964218271338" lon="7.57944065140725"><ele>454.6666666666667</ele><time>2026-04-19T12:21:54.945Z</time></trkpt><trkpt lat="45.29980839040233" lon="7.579419664463199"><ele>455.33333333333337</ele><time>2026-04-19T12:21:55.945Z</time></trkpt><trkpt lat="45.2999667165692" lon="7.579447500901859"><ele>456.0</ele><time>2026-04-19T12:21:56.945Z</time></trkpt><trkpt lat="45.300110565255665" lon="7.579504852373504"><ele>455.75</ele><time>2026-04-19T12:21:57.945Z</time></trkpt><trkpt lat="45.30024630004833" lon="7.5796001558814465"><ele>455.5</ele><time>2026-04-19T12:21:58.945Z</time></trkpt><trkpt lat="45.30036435958704" lon="7.579691745140618"><ele>455.25</ele><time>2026-04-19T12:21:59.945Z</time></trkpt><trkpt lat="45.30048486978262" lon="7.579747154368651"><ele>455.0</ele><time>2026-04-19T12:22:00.945Z</time></trkpt><trkpt lat="45.30060355722396" lon="7.579745795389784"><ele>455.75</ele><time>2026-04-19T12:22:01.945Z</time></trkpt><trkpt lat="45.30072861866119" lon="7.579682293041304"><ele>456.5</ele><time>2026-04-19T12:22:02.945Z</time></trkpt><trkpt lat="45.300839713324905" lon="7.579629470183858"><ele>457.25</ele><time>2026-04-19T12:22:03.945Z</time></trkpt><trkpt lat="45.300945115286304" lon="7.57957853455271"><ele>458.0</ele><time>2026-04-19T12:22:04.945Z</time></trkpt><trkpt lat="45.30105376608951" lon="7.579553389102855"><ele>458.0</ele><time>2026-04-19T12:22:05.945Z</time></trkpt><trkpt lat="45.30117088742264" lon="7.579613717511794"><ele>458.0</ele><time>2026-04-19T12:22:06.945Z</time></trkpt><trkpt lat="45.3012960191007" lon="7.579676491754884"><ele>458.0</ele><time>2026-04-19T12:22:07.945Z</time></trkpt><trkpt lat="45.301410940471186" lon="7.579706449303112"><ele>458.0</ele><time>2026-04-19T12:22:08.945Z</time></trkpt><trkpt lat="45.30153508150094" lon="7.579674186221909"><ele>458.0</ele><time>2026-04-19T12:22:09.945Z</time></trkpt><trkpt lat="45.3016470411308" lon="7.5795793530096125"><ele>458.0</ele><time>2026-04-19T12:22:10.945Z</time></trkpt><trkpt lat="45.301773284589714" lon="7.579480220068729"><ele>458.0</ele><time>2026-04-19T12:22:11.945Z</time></trkpt><trkpt lat="45.301914652008264" lon="7.57937271979591"><ele>458.0</ele><time>2026-04-19T12:22:12.945Z</time></trkpt><trkpt lat="45.30207452768847" lon="7.579276647807"><ele>459.0</ele><time>2026-04-19T12:22:13.945Z</time></trkpt><trkpt lat="45.302249980879374" lon="7.579183621840934"><ele>460.0</ele><time>2026-04-19T12:22:14.945Z</time></trkpt><trkpt lat="45.30241953004893" lon="7.579096260917436"><ele>461.0</ele><time>2026-04-19T12:22:15.945Z</time></trkpt><trkpt lat="45.30256824924755" lon="7.57901990167489"><ele>461.0</ele><time>2026-04-19T12:22:16.945Z</time></trkpt><trkpt lat="45.30270658388573" lon="7.578946288191747"><ele>461.0</ele><time>2026-04-19T12:22:17.945Z</time></trkpt><trkpt lat="45.30283018961029" lon="7.578879693355862"><ele>461.0</ele><time>2026-04-19T12:22:18.945Z</time></trkpt><trkpt lat="45.3029548459981" lon="7.578848618282932"><ele>461.0</ele><time>2026-04-19T12:22:19.945Z</time></trkpt><trkpt lat="45.30306527825599" lon="7.578854110120505"><ele>461.20000000000005</ele><time>2026-04-19T12:22:20.945Z</time></trkpt><trkpt lat="45.30317850094269" lon="7.578845193586431"><ele>461.40000000000003</ele><time>2026-04-19T12:22:21.945Z</time></trkpt><trkpt lat="45.30328479001353" lon="7.578819699208598"><ele>461.6</ele><time>2026-04-19T12:22:22.945Z</time></trkpt><trkpt lat="45.30337950848139" lon="7.578772506562584"><ele>461.8</ele><time>2026-04-19T12:22:23.945Z</time></trkpt><trkpt lat="45.303462411714754" lon="7.578688488709843"><ele>462.0</ele><time>2026-04-19T12:22:24.945Z</time></trkpt><trkpt lat="45.303522357211065" lon="7.578563293286441"><ele>462.0</ele><time>2026-04-19T12:22:25.945Z</time></trkpt><trkpt lat="45.30357394472083" lon="7.578419721899534"><ele>462.0</ele><time>2026-04-19T12:22:26.945Z</time></trkpt><trkpt lat="45.30363677656435" lon="7.578284581113205"><ele>462.0</ele><time>2026-04-19T12:22:27.945Z</time></trkpt><trkpt lat="45.30372129052121" lon="7.578157933539178"><ele>462.0</ele><time>2026-04-19T12:22:28.945Z</time></trkpt><trkpt lat="45.30382806692367" lon="7.578052734773139"><ele>461.66666666666663</ele><time>2026-04-19T12:22:29.945Z</time></trkpt><trkpt lat="45.303961258418425" lon="7.577972650775865"><ele>461.3333333333333</ele><time>2026-04-19T12:22:30.945Z</time></trkpt><trkpt lat="45.304104474264655" lon="7.577892892995197"><ele>461.0</ele><time>2026-04-19T12:22:31.945Z</time></trkpt><trkpt lat="45.30427096939519" lon="7.577803864153133"><ele>461.0</ele><time>2026-04-19T12:22:32.945Z</time></trkpt><trkpt lat="45.30444419440185" lon="7.577709303547903"><ele>461.0</ele><time>2026-04-19T12:22:33.945Z</time></trkpt><trkpt lat="45.30461495133174" lon="7.577625434810202"><ele>461.0</ele><time>2026-04-19T12:22:34.945Z</time></trkpt><trkpt lat="45.304784321220794" lon="7.5775763536166805"><ele>456.3333333333333</ele><time>2026-04-19T12:22:35.945Z</time></trkpt><trkpt lat="45.30494659018671" lon="7.577552105064555"><ele>451.66666666666663</ele><time>2026-04-19T12:22:36.946Z</time></trkpt><trkpt lat="45.305102326029626" lon="7.577575240607901"><ele>447.0</ele><time>2026-04-19T12:22:37.946Z</time></trkpt><trkpt lat="45.30524101446829" lon="7.57762017045152"><ele>447.0</ele><time>2026-04-19T12:22:38.946Z</time></trkpt><trkpt lat="45.305355018106006" lon="7.57766818878723"><ele>447.00000000000006</ele><time>2026-04-19T12:22:39.946Z</time></trkpt><trkpt lat="45.30545569512476" lon="7.577650581303258"><ele>447.00000000000006</ele><time>2026-04-19T12:22:40.946Z</time></trkpt><trkpt lat="45.305543697647565" lon="7.577594721411887"><ele>447.0</ele><time>2026-04-19T12:22:41.946Z</time></trkpt><trkpt lat="45.30560622276823" lon="7.577516434028643"><ele>447.0</ele><time>2026-04-19T12:22:42.946Z</time></trkpt><trkpt lat="45.305667272212226" lon="7.577374980186984"><ele>446.25</ele><time>2026-04-19T12:22:43.946Z</time></trkpt><trkpt lat="45.305724488116276" lon="7.577218097333794"><ele>445.5</ele><time>2026-04-19T12:22:44.946Z</time></trkpt><trkpt lat="45.305786616335105" lon="7.577041630705479"><ele>444.75</ele><time>2026-04-19T12:22:45.946Z</time></trkpt><trkpt lat="45.30586765174403" lon="7.576859079632459"><ele>444.0</ele><time>2026-04-19T12:22:46.946Z</time></trkpt><trkpt lat="45.305965274593575" lon="7.576666310533651"><ele>444.0</ele><time>2026-04-19T12:22:47.946Z</time></trkpt><trkpt lat="45.3060808623757" lon="7.576481052119951"><ele>444.0</ele><time>2026-04-19T12:22:48.946Z</time></trkpt><trkpt lat="45.30619990609895" lon="7.576305325000512"><ele>444.0</ele><time>2026-04-19T12:22:49.946Z</time></trkpt><trkpt lat="45.30631454036587" lon="7.576149505230571"><ele>441.75</ele><time>2026-04-19T12:22:50.946Z</time></trkpt><trkpt lat="45.3064309800951" lon="7.576013289742544"><ele>439.5</ele><time>2026-04-19T12:22:51.946Z</time></trkpt><trkpt lat="45.30653796504917" lon="7.5758965672489005"><ele>437.25</ele><time>2026-04-19T12:22:52.946Z</time></trkpt><trkpt lat="45.30662462927467" lon="7.575812194793457"><ele>435.0</ele><time>2026-04-19T12:22:53.946Z</time></trkpt><trkpt lat="45.30671268583295" lon="7.575753581384061"><ele>435.0</ele><time>2026-04-19T12:22:54.946Z</time></trkpt><trkpt lat="45.30678314394859" lon="7.575712775075728"><ele>435.0</ele><time>2026-04-19T12:22:55.946Z</time></trkpt><trkpt lat="45.306916592215636" lon="7.575737546803569"><ele>435.0</ele><time>2026-04-19T12:22:57.946Z</time></trkpt><trkpt lat="45.30695988156231" lon="7.575820771496204"><ele>435.0</ele><time>2026-04-19T12:22:58.946Z</time></trkpt><trkpt lat="45.30693167384386" lon="7.57592416935231"><ele>435.0</ele><time>2026-04-19T12:22:59.946Z</time></trkpt><trkpt lat="45.30692835508916" lon="7.576032276959895"><ele>435.0</ele><time>2026-04-19T12:23:00.946Z</time></trkpt><trkpt lat="45.30693913342162" lon="7.576157113963963"><ele>432.2</ele><time>2026-04-19T12:23:01.946Z</time></trkpt><trkpt lat="45.30695160932014" lon="7.5762898326137655"><ele>429.4</ele><time>2026-04-19T12:23:02.946Z</time></trkpt><trkpt lat="45.30698325720366" lon="7.576414912270796"><ele>426.6</ele><time>2026-04-19T12:23:03.946Z</time></trkpt><trkpt lat="45.30703644352527" lon="7.576514378543332"><ele>423.8</ele><time>2026-04-19T12:23:04.946Z</time></trkpt><trkpt lat="45.30709511700093" lon="7.576572828784409"><ele>421.0</ele><time>2026-04-19T12:23:05.946Z</time></trkpt><trkpt lat="45.307232655446235" lon="7.576586865313638"><ele>419.5</ele><time>2026-04-19T12:23:07.946Z</time></trkpt><trkpt lat="45.307411446334534" lon="7.576573661726104"><ele>418.0</ele><time>2026-04-19T12:23:09.946Z</time></trkpt><trkpt lat="45.30752307226383" lon="7.576567910423806"><ele>416.5</ele><time>2026-04-19T12:23:10.946Z</time></trkpt><trkpt lat="45.30764439968829" lon="7.576540066317782"><ele>415.0</ele><time>2026-04-19T12:23:11.946Z</time></trkpt><trkpt lat="45.30776346072715" lon="7.576510337225085"><ele>415.0</ele><time>2026-04-19T12:23:12.946Z</time></trkpt><trkpt lat="45.30788405848582" lon="7.576483085054767"><ele>415.0</ele><time>2026-04-19T12:23:13.946Z</time></trkpt><trkpt lat="45.308005137209044" lon="7.576448068082349"><ele>415.0</ele><time>2026-04-19T12:23:14.946Z</time></trkpt><trkpt lat="45.3081086218748" lon="7.576410869306541"><ele>415.0</ele><time>2026-04-19T12:23:15.946Z</time></trkpt><trkpt lat="45.30820191082749" lon="7.576365778406457"><ele>415.6666666666667</ele><time>2026-04-19T12:23:16.946Z</time></trkpt><trkpt lat="45.30828499348826" lon="7.57632748725909"><ele>416.33333333333337</ele><time>2026-04-19T12:23:17.946Z</time></trkpt><trkpt lat="45.308353846845954" lon="7.576303103295205"><ele>417.0</ele><time>2026-04-19T12:23:18.946Z</time></trkpt><trkpt lat="45.308435092405226" lon="7.576280639456621"><ele>417.66666666666663</ele><time>2026-04-19T12:23:20.946Z</time></trkpt><trkpt lat="45.30853427022825" lon="7.576390109424319"><ele>418.3333333333333</ele><time>2026-04-19T12:23:23.944Z</time></trkpt><trkpt lat="45.30856399666168" lon="7.5764922924499665"><ele>419.0</ele><time>2026-04-19T12:23:24.944Z</time></trkpt><trkpt lat="45.308604038802045" lon="7.576618999819268"><ele>419.0</ele><time>2026-04-19T12:23:25.944Z</time></trkpt><trkpt lat="45.30864601529695" lon="7.576749003941907"><ele>419.0</ele><time>2026-04-19T12:23:26.944Z</time></trkpt><trkpt lat="45.308695135804115" lon="7.5769028755025145"><ele>419.0</ele><time>2026-04-19T12:23:27.944Z</time></trkpt><trkpt lat="45.30874687502733" lon="7.577074013714462"><ele>419.0</ele><time>2026-04-19T12:23:28.944Z</time></trkpt><trkpt lat="45.30880408179534" lon="7.577248600163022"><ele>419.25</ele><time>2026-04-19T12:23:29.944Z</time></trkpt><trkpt lat="45.308852920563226" lon="7.577406336443284"><ele>419.5</ele><time>2026-04-19T12:23:30.944Z</time></trkpt><trkpt lat="45.308902720873235" lon="7.577567836746865"><ele>419.75</ele><time>2026-04-19T12:23:31.944Z</time></trkpt><trkpt lat="45.30894857967599" lon="7.577732654595978"><ele>420.0</ele><time>2026-04-19T12:23:32.944Z</time></trkpt><trkpt lat="45.3089955694256" lon="7.577902070737227"><ele>419.5</ele><time>2026-04-19T12:23:33.944Z</time></trkpt><trkpt lat="45.309044641226286" lon="7.578077647469595"><ele>419.0</ele><time>2026-04-19T12:23:34.944Z</time></trkpt><trkpt lat="45.30909478448388" lon="7.578257240807881"><ele>418.5</ele><time>2026-04-19T12:23:35.944Z</time></trkpt><trkpt lat="45.3091464634188" lon="7.578435041201345"><ele>418.0</ele><time>2026-04-19T12:23:36.943Z</time></trkpt><trkpt lat="45.309203856601044" lon="7.578620566153782"><ele>417.25</ele><time>2026-04-19T12:23:37.943Z</time></trkpt><trkpt lat="45.30926368549822" lon="7.578809424328751"><ele>416.5</ele><time>2026-04-19T12:23:38.943Z</time></trkpt><trkpt lat="45.30932106370613" lon="7.578995698465998"><ele>415.75</ele><time>2026-04-19T12:23:39.943Z</time></trkpt><trkpt lat="45.30937601400404" lon="7.579174296256421"><ele>415.0</ele><time>2026-04-19T12:23:40.943Z</time></trkpt><trkpt lat="45.3094270291291" lon="7.5793554026653895"><ele>414.5</ele><time>2026-04-19T12:23:41.943Z</time></trkpt><trkpt lat="45.3094777621965" lon="7.579536380860277"><ele>414.0</ele><time>2026-04-19T12:23:42.943Z</time></trkpt><trkpt lat="45.3095291150525" lon="7.579710775400174"><ele>413.5</ele><time>2026-04-19T12:23:43.943Z</time></trkpt><trkpt lat="45.30957957161723" lon="7.579889187962243"><ele>413.0</ele><time>2026-04-19T12:23:44.943Z</time></trkpt><trkpt lat="45.30961998167598" lon="7.580067258095597"><ele>413.0</ele><time>2026-04-19T12:23:45.943Z</time></trkpt><trkpt lat="45.30964717961105" lon="7.580254729938568"><ele>413.0</ele><time>2026-04-19T12:23:46.943Z</time></trkpt><trkpt lat="45.30966192236351" lon="7.580450531595603"><ele>413.0</ele><time>2026-04-19T12:23:47.943Z</time></trkpt><trkpt lat="45.309674790985895" lon="7.580648601234443"><ele>413.0</ele><time>2026-04-19T12:23:48.943Z</time></trkpt><trkpt lat="45.30970145731787" lon="7.58084745722137"><ele>411.66666666666663</ele><time>2026-04-19T12:23:49.943Z</time></trkpt><trkpt lat="45.30974006353964" lon="7.581052720538087"><ele>410.33333333333337</ele><time>2026-04-19T12:23:50.943Z</time></trkpt><trkpt lat="45.30978350210206" lon="7.581261909506728"><ele>409.0</ele><time>2026-04-19T12:23:51.943Z</time></trkpt><trkpt lat="45.30984243712123" lon="7.581459437080598"><ele>409.0</ele><time>2026-04-19T12:23:52.943Z</time></trkpt><trkpt lat="45.30988938175877" lon="7.581646274712652"><ele>409.0</ele><time>2026-04-19T12:23:53.943Z</time></trkpt><trkpt lat="45.3099403272976" lon="7.581821160017415"><ele>409.0</ele><time>2026-04-19T12:23:54.943Z</time></trkpt><trkpt lat="45.30999763023719" lon="7.581985546379189"><ele>409.0</ele><time>2026-04-19T12:23:55.943Z</time></trkpt><trkpt lat="45.3100422091246" lon="7.58215122363689"><ele>408.5</ele><time>2026-04-19T12:23:56.943Z</time></trkpt><trkpt lat="45.310075388556356" lon="7.582325900642107"><ele>408.0</ele><time>2026-04-19T12:23:57.943Z</time></trkpt><trkpt lat="45.31009478814505" lon="7.58250922080514"><ele>407.5</ele><time>2026-04-19T12:23:58.943Z</time></trkpt><trkpt lat="45.31009039802421" lon="7.5826982175857305"><ele>407.0</ele><time>2026-04-19T12:23:59.944Z</time></trkpt><trkpt lat="45.31006559857791" lon="7.582872388770875"><ele>406.5</ele><time>2026-04-19T12:24:00.944Z</time></trkpt><trkpt lat="45.310033212774115" lon="7.583029494283315"><ele>406.0</ele><time>2026-04-19T12:24:01.944Z</time></trkpt><trkpt lat="45.30998431041947" lon="7.583185254578935"><ele>405.5</ele><time>2026-04-19T12:24:02.944Z</time></trkpt><trkpt lat="45.30992066980985" lon="7.583333699542967"><ele>405.0</ele><time>2026-04-19T12:24:03.944Z</time></trkpt><trkpt lat="45.30986015417182" lon="7.583486285373844"><ele>405.0</ele><time>2026-04-19T12:24:04.944Z</time></trkpt><trkpt lat="45.30980834513081" lon="7.583645066291536"><ele>405.0</ele><time>2026-04-19T12:24:05.944Z</time></trkpt><trkpt lat="45.30978491332306" lon="7.583810493366401"><ele>405.0</ele><time>2026-04-19T12:24:06.944Z</time></trkpt><trkpt lat="45.309798992069226" lon="7.583981176744948"><ele>405.0</ele><time>2026-04-19T12:24:07.944Z</time></trkpt><trkpt lat="45.309835118859816" lon="7.58415365059469"><ele>404.25</ele><time>2026-04-19T12:24:08.944Z</time></trkpt><trkpt lat="45.30988567127823" lon="7.584336699121668"><ele>403.5</ele><time>2026-04-19T12:24:09.944Z</time></trkpt><trkpt lat="45.30992789283128" lon="7.58453827629765"><ele>402.75</ele><time>2026-04-19T12:24:10.944Z</time></trkpt><trkpt lat="45.30995783703705" lon="7.584760140568514"><ele>402.0</ele><time>2026-04-19T12:24:11.944Z</time></trkpt><trkpt lat="45.30998050068382" lon="7.585002994606144"><ele>401.66666666666663</ele><time>2026-04-19T12:24:12.944Z</time></trkpt><trkpt lat="45.310000542935065" lon="7.585260807825294"><ele>401.3333333333333</ele><time>2026-04-19T12:24:13.944Z</time></trkpt><trkpt lat="45.31000880270433" lon="7.585542172009925"><ele>401.0</ele><time>2026-04-19T12:24:14.944Z</time></trkpt><trkpt lat="45.31000187499838" lon="7.585813722578375"><ele>400.3333333333333</ele><time>2026-04-19T12:24:15.944Z</time></trkpt><trkpt lat="45.30999044496785" lon="7.586093130511773"><ele>399.66666666666663</ele><time>2026-04-19T12:24:16.944Z</time></trkpt><trkpt lat="45.30997934011518" lon="7.586390333394804"><ele>399.0</ele><time>2026-04-19T12:24:17.944Z</time></trkpt><trkpt lat="45.30996807575822" lon="7.586696897301998"><ele>399.0</ele><time>2026-04-19T12:24:18.944Z</time></trkpt><trkpt lat="45.309955556936245" lon="7.587000614172244"><ele>399.0</ele><time>2026-04-19T12:24:19.944Z</time></trkpt><trkpt lat="45.309939682392326" lon="7.587306374824855"><ele>399.0</ele><time>2026-04-19T12:24:20.944Z</time></trkpt><trkpt lat="45.30992551146451" lon="7.587620321305662"><ele>397.5</ele><time>2026-04-19T12:24:21.944Z</time></trkpt><trkpt lat="45.30993391525372" lon="7.587940831749259"><ele>396.0</ele><time>2026-04-19T12:24:22.944Z</time></trkpt><trkpt lat="45.30995796331892" lon="7.588267076854513"><ele>396.0</ele><time>2026-04-19T12:24:23.944Z</time></trkpt><trkpt lat="45.30999809753081" lon="7.588586385365681"><ele>396.0</ele><time>2026-04-19T12:24:24.944Z</time></trkpt><trkpt lat="45.310059125831785" lon="7.588899745187782"><ele>395.66666666666663</ele><time>2026-04-19T12:24:25.944Z</time></trkpt><trkpt lat="45.31011834211326" lon="7.589187547400241"><ele>395.3333333333333</ele><time>2026-04-19T12:24:26.944Z</time></trkpt><trkpt lat="45.3101765184061" lon="7.589462298698385"><ele>395.0</ele><time>2026-04-19T12:24:27.944Z</time></trkpt><trkpt lat="45.31024763641671" lon="7.58974121688297"><ele>395.0</ele><time>2026-04-19T12:24:28.944Z</time></trkpt><trkpt lat="45.31033119337115" lon="7.590020221329528"><ele>395.0</ele><time>2026-04-19T12:24:29.944Z</time></trkpt><trkpt lat="45.31042204466312" lon="7.590286235334763"><ele>395.0</ele><time>2026-04-19T12:24:30.944Z</time></trkpt><trkpt lat="45.3105065831335" lon="7.590531781650775"><ele>393.66666666666663</ele><time>2026-04-19T12:24:31.944Z</time></trkpt><trkpt lat="45.31058373157043" lon="7.590761786095316"><ele>392.33333333333337</ele><time>2026-04-19T12:24:32.944Z</time></trkpt><trkpt lat="45.31065376748186" lon="7.590982743523978"><ele>391.0</ele><time>2026-04-19T12:24:33.944Z</time></trkpt><trkpt lat="45.310713561729344" lon="7.591202366561398"><ele>390.5</ele><time>2026-04-19T12:24:34.944Z</time></trkpt><trkpt lat="45.31076827703755" lon="7.591405686695444"><ele>390.0</ele><time>2026-04-19T12:24:35.944Z</time></trkpt><trkpt lat="45.31081525130568" lon="7.591598286615627"><ele>389.5</ele><time>2026-04-19T12:24:36.944Z</time></trkpt><trkpt lat="45.31085456867215" lon="7.591786287716935"><ele>389.0</ele><time>2026-04-19T12:24:37.944Z</time></trkpt><trkpt lat="45.31088543222798" lon="7.591961684966707"><ele>388.75</ele><time>2026-04-19T12:24:38.944Z</time></trkpt><trkpt lat="45.31094113663872" lon="7.592124579392085"><ele>388.5</ele><time>2026-04-19T12:24:39.944Z</time></trkpt><trkpt lat="45.31101894030183" lon="7.592241793615094"><ele>388.25</ele><time>2026-04-19T12:24:40.944Z</time></trkpt><trkpt lat="45.31111772912588" lon="7.592318530528941"><ele>388.0</ele><time>2026-04-19T12:24:41.944Z</time></trkpt><trkpt lat="45.311231475166146" lon="7.592368953658635"><ele>388.0</ele><time>2026-04-19T12:24:42.944Z</time></trkpt><trkpt lat="45.31137337087547" lon="7.592380618313065"><ele>388.0</ele><time>2026-04-19T12:24:43.944Z</time></trkpt><trkpt lat="45.311524008520266" lon="7.592411420488485"><ele>388.0</ele><time>2026-04-19T12:24:44.944Z</time></trkpt><trkpt lat="45.31168731394054" lon="7.592445304313504"><ele>389.6666666666667</ele><time>2026-04-19T12:24:45.944Z</time></trkpt><trkpt lat="45.31184512760682" lon="7.592487824751992"><ele>391.33333333333337</ele><time>2026-04-19T12:24:46.944Z</time></trkpt><trkpt lat="45.31200069446462" lon="7.592542668910284"><ele>393.0</ele><time>2026-04-19T12:24:47.944Z</time></trkpt><trkpt lat="45.31214137418179" lon="7.592625642219389"><ele>393.0</ele><time>2026-04-19T12:24:48.944Z</time></trkpt><trkpt lat="45.31227294139298" lon="7.592737961173098"><ele>393.0</ele><time>2026-04-19T12:24:49.944Z</time></trkpt><trkpt lat="45.31240442764245" lon="7.592880573808291"><ele>393.0</ele><time>2026-04-19T12:24:50.944Z</time></trkpt><trkpt lat="45.31252781694336" lon="7.593059391236673"><ele>393.0</ele><time>2026-04-19T12:24:51.944Z</time></trkpt><trkpt lat="45.312633623384315" lon="7.593267119902217"><ele>393.0</ele><time>2026-04-19T12:24:52.944Z</time></trkpt><trkpt lat="45.31271379568963" lon="7.59351182145651"><ele>393.0</ele><time>2026-04-19T12:24:53.944Z</time></trkpt><trkpt lat="45.31280808257652" lon="7.593758157092926"><ele>393.33333333333337</ele><time>2026-04-19T12:24:54.944Z</time></trkpt><trkpt lat="45.312916135164585" lon="7.594014018660558"><ele>393.6666666666667</ele><time>2026-04-19T12:24:55.944Z</time></trkpt><trkpt lat="45.313007584544195" lon="7.59428129113724"><ele>394.0</ele><time>2026-04-19T12:24:56.944Z</time></trkpt><trkpt lat="45.31309254706087" lon="7.594548312728823"><ele>394.0</ele><time>2026-04-19T12:24:57.944Z</time></trkpt><trkpt lat="45.31315346121696" lon="7.594825387334961"><ele>394.0</ele><time>2026-04-19T12:24:58.944Z</time></trkpt><trkpt lat="45.31319786670354" lon="7.59509392777318"><ele>394.0</ele><time>2026-04-19T12:24:59.944Z</time></trkpt><trkpt lat="45.31321647630734" lon="7.595371630347427"><ele>392.6666666666667</ele><time>2026-04-19T12:25:00.944Z</time></trkpt><trkpt lat="45.31321900692665" lon="7.595672589461271"><ele>391.33333333333337</ele><time>2026-04-19T12:25:01.944Z</time></trkpt><trkpt lat="45.31321835543676" lon="7.595963596647479"><ele>390.0</ele><time>2026-04-19T12:25:02.944Z</time></trkpt><trkpt lat="45.313241310522265" lon="7.596234245230524"><ele>386.3333333333333</ele><time>2026-04-19T12:25:03.944Z</time></trkpt><trkpt lat="45.31327667230561" lon="7.5964864595851065"><ele>382.66666666666663</ele><time>2026-04-19T12:25:04.944Z</time></trkpt><trkpt lat="45.313301033206905" lon="7.596734338443053"><ele>379.0</ele><time>2026-04-19T12:25:05.944Z</time></trkpt><trkpt lat="45.313316411300725" lon="7.59696896839366"><ele>376.0</ele><time>2026-04-19T12:25:06.944Z</time></trkpt><trkpt lat="45.31338648581647" lon="7.597177660168922"><ele>373.0</ele><time>2026-04-19T12:25:07.944Z</time></trkpt><trkpt lat="45.31346767645335" lon="7.59739150453557"><ele>370.0</ele><time>2026-04-19T12:25:08.944Z</time></trkpt><trkpt lat="45.31355452410362" lon="7.597614178055943"><ele>368.66666666666663</ele><time>2026-04-19T12:25:09.944Z</time></trkpt><trkpt lat="45.31361357135357" lon="7.5978677376389125"><ele>367.3333333333333</ele><time>2026-04-19T12:25:10.944Z</time></trkpt><trkpt lat="45.313698570946" lon="7.598114625003993"><ele>366.0</ele><time>2026-04-19T12:25:11.944Z</time></trkpt><trkpt lat="45.313789876696994" lon="7.598367169683816"><ele>366.0</ele><time>2026-04-19T12:25:12.944Z</time></trkpt><trkpt lat="45.313894465642505" lon="7.598624753441701"><ele>366.0</ele><time>2026-04-19T12:25:13.944Z</time></trkpt><trkpt lat="45.31400295745679" lon="7.598890665764981"><ele>366.0</ele><time>2026-04-19T12:25:14.944Z</time></trkpt><trkpt lat="45.31411937930051" lon="7.599145674172327"><ele>365.0</ele><time>2026-04-19T12:25:15.944Z</time></trkpt><trkpt lat="45.314234950862506" lon="7.599389811052084"><ele>364.0</ele><time>2026-04-19T12:25:16.944Z</time></trkpt><trkpt lat="45.31433610911698" lon="7.5996277984905545"><ele>363.0</ele><time>2026-04-19T12:25:17.944Z</time></trkpt><trkpt lat="45.31441546008085" lon="7.599866263159706"><ele>362.6666666666667</ele><time>2026-04-19T12:25:18.944Z</time></trkpt><trkpt lat="45.3144671650861" lon="7.600118736495676"><ele>362.33333333333337</ele><time>2026-04-19T12:25:19.944Z</time></trkpt><trkpt lat="45.31450058661104" lon="7.600383153329357"><ele>362.0</ele><time>2026-04-19T12:25:20.944Z</time></trkpt><trkpt lat="45.31451782905084" lon="7.600654286660731"><ele>361.6666666666667</ele><time>2026-04-19T12:25:21.944Z</time></trkpt><trkpt lat="45.3145108521184" lon="7.600938623835482"><ele>361.3333333333333</ele><time>2026-04-19T12:25:22.944Z</time></trkpt><trkpt lat="45.31448000562198" lon="7.601224102227486"><ele>361.0</ele><time>2026-04-19T12:25:23.944Z</time></trkpt><trkpt lat="45.31442995719429" lon="7.60150183144872"><ele>360.0</ele><time>2026-04-19T12:25:24.944Z</time></trkpt><trkpt lat="45.314360057093445" lon="7.60177566157307"><ele>359.0</ele><time>2026-04-19T12:25:25.944Z</time></trkpt><trkpt lat="45.31426324399397" lon="7.602042528731338"><ele>358.0</ele><time>2026-04-19T12:25:26.944Z</time></trkpt><trkpt lat="45.314153132958175" lon="7.602309602358233"><ele>356.66666666666663</ele><time>2026-04-19T12:25:27.944Z</time></trkpt><trkpt lat="45.31404731522337" lon="7.602583852016829"><ele>355.3333333333333</ele><time>2026-04-19T12:25:28.943Z</time></trkpt><trkpt lat="45.31393807192206" lon="7.602860684165178"><ele>354.0</ele><time>2026-04-19T12:25:29.943Z</time></trkpt><trkpt lat="45.31382488399003" lon="7.603136224458547"><ele>354.0</ele><time>2026-04-19T12:25:30.943Z</time></trkpt><trkpt lat="45.3137166053774" lon="7.60341297870811"><ele>354.0</ele><time>2026-04-19T12:25:31.943Z</time></trkpt><trkpt lat="45.31361771057999" lon="7.6036939870931395"><ele>354.0</ele><time>2026-04-19T12:25:32.943Z</time></trkpt><trkpt lat="45.31353382931815" lon="7.603989982964501"><ele>354.0</ele><time>2026-04-19T12:25:33.943Z</time></trkpt><trkpt lat="45.31347130319084" lon="7.604299526083876"><ele>354.0</ele><time>2026-04-19T12:25:34.943Z</time></trkpt><trkpt lat="45.31342964376675" lon="7.604615678677408"><ele>354.0</ele><time>2026-04-19T12:25:35.943Z</time></trkpt><trkpt lat="45.31339701358577" lon="7.604947359897794"><ele>354.0</ele><time>2026-04-19T12:25:36.943Z</time></trkpt><trkpt lat="45.31338721330014" lon="7.605291259573044"><ele>353.0</ele><time>2026-04-19T12:25:37.943Z</time></trkpt><trkpt lat="45.313397235796344" lon="7.605644034209505"><ele>352.0</ele><time>2026-04-19T12:25:38.942Z</time></trkpt><trkpt lat="45.31342397538222" lon="7.606000400955929"><ele>352.0</ele><time>2026-04-19T12:25:39.942Z</time></trkpt><trkpt lat="45.31345418832775" lon="7.60636153852027"><ele>352.0</ele><time>2026-04-19T12:25:40.942Z</time></trkpt><trkpt lat="45.31348392817696" lon="7.606730748433942"><ele>351.5</ele><time>2026-04-19T12:25:41.943Z</time></trkpt><trkpt lat="45.31351560428746" lon="7.6070983544876505"><ele>351.0</ele><time>2026-04-19T12:25:42.943Z</time></trkpt><trkpt lat="45.3135456554297" lon="7.607455503845265"><ele>351.0</ele><time>2026-04-19T12:25:43.943Z</time></trkpt><trkpt lat="45.313573544496" lon="7.607801512891857"><ele>351.0</ele><time>2026-04-19T12:25:44.943Z</time></trkpt><trkpt lat="45.31360051090964" lon="7.608131432621286"><ele>350.0</ele><time>2026-04-19T12:25:45.943Z</time></trkpt><trkpt lat="45.313634928485435" lon="7.608443061868075"><ele>349.0</ele><time>2026-04-19T12:25:46.943Z</time></trkpt><trkpt lat="45.313690831630865" lon="7.608741695770116"><ele>348.0</ele><time>2026-04-19T12:25:47.943Z</time></trkpt><trkpt lat="45.31376505119038" lon="7.609022445705705"><ele>348.0</ele><time>2026-04-19T12:25:48.943Z</time></trkpt><trkpt lat="45.313860566932476" lon="7.60929708269664"><ele>348.0</ele><time>2026-04-19T12:25:49.943Z</time></trkpt><trkpt lat="45.313974232571475" lon="7.609561570548731"><ele>348.0</ele><time>2026-04-19T12:25:50.943Z</time></trkpt><trkpt lat="45.314105219505045" lon="7.609816971995296"><ele>347.0</ele><time>2026-04-19T12:25:51.943Z</time></trkpt><trkpt lat="45.31425325720096" lon="7.61005903203098"><ele>346.0</ele><time>2026-04-19T12:25:52.943Z</time></trkpt><trkpt lat="45.314427704459995" lon="7.610276898417627"><ele>345.0</ele><time>2026-04-19T12:25:53.943Z</time></trkpt><trkpt lat="45.3146121934212" lon="7.61048487913251"><ele>344.0</ele><time>2026-04-19T12:25:54.943Z</time></trkpt><trkpt lat="45.31479323694365" lon="7.610699574017009"><ele>344.0</ele><time>2026-04-19T12:25:55.943Z</time></trkpt><trkpt lat="45.31497408726246" lon="7.6109205888530775"><ele>344.0</ele><time>2026-04-19T12:25:56.943Z</time></trkpt><trkpt lat="45.31515775159164" lon="7.611143619674383"><ele>345.0</ele><time>2026-04-19T12:25:57.943Z</time></trkpt><trkpt lat="45.31534237171624" lon="7.611369879947039"><ele>346.0</ele><time>2026-04-19T12:25:58.943Z</time></trkpt><trkpt lat="45.315528587787135" lon="7.6115985742798715"><ele>345.5</ele><time>2026-04-19T12:25:59.943Z</time></trkpt><trkpt lat="45.31571752381732" lon="7.611823441193737"><ele>345.0</ele><time>2026-04-19T12:26:00.943Z</time></trkpt><trkpt lat="45.315901830357" lon="7.612045166353671"><ele>344.5</ele><time>2026-04-19T12:26:01.943Z</time></trkpt><trkpt lat="45.316088636472955" lon="7.612260939065093"><ele>344.0</ele><time>2026-04-19T12:26:02.943Z</time></trkpt><trkpt lat="45.31626493352992" lon="7.612480361828498"><ele>343.0</ele><time>2026-04-19T12:26:03.943Z</time></trkpt><trkpt lat="45.316431864381215" lon="7.6126955435101635"><ele>342.0</ele><time>2026-04-19T12:26:04.943Z</time></trkpt><trkpt lat="45.31659864111885" lon="7.612912392776249"><ele>342.0</ele><time>2026-04-19T12:26:05.943Z</time></trkpt><trkpt lat="45.31675575262116" lon="7.613136762924586"><ele>342.0</ele><time>2026-04-19T12:26:06.943Z</time></trkpt><trkpt lat="45.31689990628017" lon="7.613372042745763"><ele>342.0</ele><time>2026-04-19T12:26:07.943Z</time></trkpt><trkpt lat="45.31703751486604" lon="7.613620672316544"><ele>342.5</ele><time>2026-04-19T12:26:08.943Z</time></trkpt><trkpt lat="45.317167443062424" lon="7.613883017608512"><ele>343.0</ele><time>2026-04-19T12:26:09.943Z</time></trkpt><trkpt lat="45.317291760572715" lon="7.614149575747981"><ele>342.0</ele><time>2026-04-19T12:26:10.943Z</time></trkpt><trkpt lat="45.31741056557252" lon="7.614421176933694"><ele>341.0</ele><time>2026-04-19T12:26:11.943Z</time></trkpt><trkpt lat="45.31753043826926" lon="7.614692197650802"><ele>340.5</ele><time>2026-04-19T12:26:12.943Z</time></trkpt><trkpt lat="45.31764907634915" lon="7.614964743722653"><ele>340.0</ele><time>2026-04-19T12:26:13.943Z</time></trkpt><trkpt lat="45.317767943927954" lon="7.615239379937608"><ele>339.66666666666663</ele><time>2026-04-19T12:26:14.943Z</time></trkpt><trkpt lat="45.31788851199958" lon="7.615510194973009"><ele>339.3333333333333</ele><time>2026-04-19T12:26:15.943Z</time></trkpt><trkpt lat="45.318009679635146" lon="7.615777683211464"><ele>339.0</ele><time>2026-04-19T12:26:16.943Z</time></trkpt><trkpt lat="45.31812950967599" lon="7.6160406662091775"><ele>338.6666666666667</ele><time>2026-04-19T12:26:17.943Z</time></trkpt><trkpt lat="45.318251161692146" lon="7.616302121759371"><ele>338.33333333333337</ele><time>2026-04-19T12:26:18.943Z</time></trkpt><trkpt lat="45.31837931939257" lon="7.6165609313142095"><ele>338.0</ele><time>2026-04-19T12:26:19.943Z</time></trkpt><trkpt lat="45.31851752774106" lon="7.616818441615581"><ele>337.0</ele><time>2026-04-19T12:26:20.943Z</time></trkpt><trkpt lat="45.31865290549286" lon="7.617081193833925"><ele>336.0</ele><time>2026-04-19T12:26:21.943Z</time></trkpt><trkpt lat="45.31878994895299" lon="7.617347598506411"><ele>335.5</ele><time>2026-04-19T12:26:22.943Z</time></trkpt><trkpt lat="45.31892775512529" lon="7.61761335900971"><ele>335.0</ele><time>2026-04-19T12:26:23.943Z</time></trkpt><trkpt lat="45.31906669270226" lon="7.6178738205474525"><ele>335.0</ele><time>2026-04-19T12:26:24.943Z</time></trkpt><trkpt lat="45.319203740307415" lon="7.61812766500639"><ele>335.0</ele><time>2026-04-19T12:26:25.943Z</time></trkpt><trkpt lat="45.319333852344336" lon="7.618379824363907"><ele>335.0</ele><time>2026-04-19T12:26:26.943Z</time></trkpt><trkpt lat="45.31945472432008" lon="7.618626896651209"><ele>334.0</ele><time>2026-04-19T12:26:27.943Z</time></trkpt><trkpt lat="45.31957454847038" lon="7.618864629473803"><ele>333.0</ele><time>2026-04-19T12:26:28.943Z</time></trkpt><trkpt lat="45.319688488189875" lon="7.619088434782292"><ele>332.0</ele><time>2026-04-19T12:26:29.943Z</time></trkpt><trkpt lat="45.319796598772825" lon="7.619299066483853"><ele>332.0</ele><time>2026-04-19T12:26:30.943Z</time></trkpt><trkpt lat="45.319895835139555" lon="7.619497795187416"><ele>332.0</ele><time>2026-04-19T12:26:31.943Z</time></trkpt><trkpt lat="45.31999161841026" lon="7.619688814170839"><ele>332.0</ele><time>2026-04-19T12:26:32.943Z</time></trkpt><trkpt lat="45.32009325802449" lon="7.619877613165438"><ele>332.0</ele><time>2026-04-19T12:26:33.943Z</time></trkpt><trkpt lat="45.32019481864531" lon="7.6200664343316555"><ele>332.0</ele><time>2026-04-19T12:26:34.943Z</time></trkpt><trkpt lat="45.32030600189915" lon="7.620252167014224"><ele>332.0</ele><time>2026-04-19T12:26:35.943Z</time></trkpt><trkpt lat="45.320443149641896" lon="7.620413323864428"><ele>334.33333333333337</ele><time>2026-04-19T12:26:36.943Z</time></trkpt><trkpt lat="45.320593465282016" lon="7.620555044782587"><ele>336.6666666666667</ele><time>2026-04-19T12:26:37.943Z</time></trkpt><trkpt lat="45.32075002957046" lon="7.620695901820015"><ele>339.0</ele><time>2026-04-19T12:26:38.943Z</time></trkpt><trkpt lat="45.32090202822987" lon="7.620826604124603"><ele>339.0</ele><time>2026-04-19T12:26:39.943Z</time></trkpt><trkpt lat="45.321058345924925" lon="7.6209358862388035"><ele>339.0</ele><time>2026-04-19T12:26:40.943Z</time></trkpt><trkpt lat="45.32122331918401" lon="7.621041299635857"><ele>339.0</ele><time>2026-04-19T12:26:41.943Z</time></trkpt><trkpt lat="45.3213916684839" lon="7.6211497074709005"><ele>336.6666666666667</ele><time>2026-04-19T12:26:42.943Z</time></trkpt><trkpt lat="45.32156786764791" lon="7.62125477350705"><ele>334.33333333333337</ele><time>2026-04-19T12:26:43.943Z</time></trkpt><trkpt lat="45.32175233011719" lon="7.621366175572075"><ele>332.0</ele><time>2026-04-19T12:26:44.943Z</time></trkpt><trkpt lat="45.32193109455101" lon="7.6214898520623855"><ele>332.0</ele><time>2026-04-19T12:26:45.943Z</time></trkpt><trkpt lat="45.32209708861396" lon="7.621612612185189"><ele>332.0</ele><time>2026-04-19T12:26:46.943Z</time></trkpt><trkpt lat="45.322253376062385" lon="7.621718406177587"><ele>332.0</ele><time>2026-04-19T12:26:47.943Z</time></trkpt><trkpt lat="45.322389749153416" lon="7.621834620046155"><ele>332.6</ele><time>2026-04-19T12:26:48.943Z</time></trkpt><trkpt lat="45.322508615476366" lon="7.6219173858070945"><ele>333.20000000000005</ele><time>2026-04-19T12:26:49.943Z</time></trkpt><trkpt lat="45.32259947200754" lon="7.621979124180918"><ele>333.8</ele><time>2026-04-19T12:26:50.943Z</time></trkpt><trkpt lat="45.32267442838987" lon="7.622004475268525"><ele>334.4</ele><time>2026-04-19T12:26:51.943Z</time></trkpt><trkpt lat="45.322742863375964" lon="7.621983013235758"><ele>335.0</ele><time>2026-04-19T12:26:52.943Z</time></trkpt><trkpt lat="45.322816852381195" lon="7.621910436864506"><ele>335.0</ele><time>2026-04-19T12:26:53.943Z</time></trkpt><trkpt lat="45.32289741270786" lon="7.621827078518744"><ele>335.0</ele><time>2026-04-19T12:26:54.943Z</time></trkpt><trkpt lat="45.32300383123741" lon="7.621738125525621"><ele>335.0</ele><time>2026-04-19T12:26:55.943Z</time></trkpt><trkpt lat="45.323117468308126" lon="7.62164254856985"><ele>335.0</ele><time>2026-04-19T12:26:56.943Z</time></trkpt><trkpt lat="45.32323337335193" lon="7.621536815455828"><ele>336.75</ele><time>2026-04-19T12:26:57.943Z</time></trkpt><trkpt lat="45.32335813612294" lon="7.621428935015821"><ele>338.5</ele><time>2026-04-19T12:26:58.943Z</time></trkpt><trkpt lat="45.323463139367774" lon="7.621349676252862"><ele>340.25</ele><time>2026-04-19T12:26:59.943Z</time></trkpt><trkpt lat="45.32355807208112" lon="7.621300734569302"><ele>342.0</ele><time>2026-04-19T12:27:00.943Z</time></trkpt><trkpt lat="45.32364240843945" lon="7.621299020912229"><ele>342.0</ele><time>2026-04-19T12:27:01.943Z</time></trkpt><trkpt lat="45.32371982724013" lon="7.621346676542137"><ele>342.0</ele><time>2026-04-19T12:27:02.943Z</time></trkpt><trkpt lat="45.323803383738344" lon="7.621425308198124"><ele>342.0</ele><time>2026-04-19T12:27:03.943Z</time></trkpt><trkpt lat="45.32391109669946" lon="7.621504648671486"><ele>342.0</ele><time>2026-04-19T12:27:04.943Z</time></trkpt><trkpt lat="45.32402248833916" lon="7.621541349542333"><ele>342.0</ele><time>2026-04-19T12:27:05.943Z</time></trkpt><trkpt lat="45.32413853209064" lon="7.62152579603634"><ele>345.5</ele><time>2026-04-19T12:27:06.943Z</time></trkpt><trkpt lat="45.3242571511906" lon="7.621477712329402"><ele>349.0</ele><time>2026-04-19T12:27:07.943Z</time></trkpt><trkpt lat="45.32438434148379" lon="7.621380900534123"><ele>352.5</ele><time>2026-04-19T12:27:08.943Z</time></trkpt><trkpt lat="45.3245271006547" lon="7.621271334104084"><ele>356.0</ele><time>2026-04-19T12:27:09.943Z</time></trkpt><trkpt lat="45.32467877265841" lon="7.6211807106335305"><ele>357.6666666666667</ele><time>2026-04-19T12:27:10.943Z</time></trkpt><trkpt lat="45.32481564222386" lon="7.6210448708150995"><ele>359.3333333333333</ele><time>2026-04-19T12:27:11.943Z</time></trkpt><trkpt lat="45.32495063444554" lon="7.620937010190837"><ele>361.0</ele><time>2026-04-19T12:27:12.943Z</time></trkpt><trkpt lat="45.32505929782591" lon="7.620836880294725"><ele>361.0</ele><time>2026-04-19T12:27:13.943Z</time></trkpt><trkpt lat="45.325159704438406" lon="7.620757181889328"><ele>361.0</ele><time>2026-04-19T12:27:14.943Z</time></trkpt><trkpt lat="45.325253054914874" lon="7.620698040104349"><ele>361.0</ele><time>2026-04-19T12:27:15.943Z</time></trkpt><trkpt lat="45.32533662614241" lon="7.620699863149363"><ele>361.0</ele><time>2026-04-19T12:27:16.943Z</time></trkpt><trkpt lat="45.3254005117604" lon="7.62075220760948"><ele>361.0</ele><time>2026-04-19T12:27:17.943Z</time></trkpt><trkpt lat="45.325391293661575" lon="7.620874992057566"><ele>361.0</ele><time>2026-04-19T12:27:18.943Z</time></trkpt><trkpt lat="45.32547223529006" lon="7.6209903011863975"><ele>361.0</ele><time>2026-04-19T12:27:20.943Z</time></trkpt><trkpt lat="45.32554187804357" lon="7.620981921357813"><ele>361.0</ele><time>2026-04-19T12:27:21.943Z</time></trkpt><trkpt lat="45.32560688081909" lon="7.620949923979529"><ele>361.0</ele><time>2026-04-19T12:27:22.943Z</time></trkpt><trkpt lat="45.325676611323324" lon="7.6208958073604105"><ele>361.0</ele><time>2026-04-19T12:27:23.943Z</time></trkpt><trkpt lat="45.325767875752945" lon="7.620873543648239"><ele>361.0</ele><time>2026-04-19T12:27:24.943Z</time></trkpt><trkpt lat="45.32588206797677" lon="7.620879159392662"><ele>363.5</ele><time>2026-04-19T12:27:25.943Z</time></trkpt><trkpt lat="45.32600290138022" lon="7.620893923125756"><ele>366.0</ele><time>2026-04-19T12:27:26.943Z</time></trkpt><trkpt lat="45.326129542011486" lon="7.620942428469964"><ele>368.5</ele><time>2026-04-19T12:27:27.943Z</time></trkpt><trkpt lat="45.32624880234555" lon="7.621013392740351"><ele>371.0</ele><time>2026-04-19T12:27:28.943Z</time></trkpt><trkpt lat="45.32635245504127" lon="7.621109304818066"><ele>373.5</ele><time>2026-04-19T12:27:29.943Z</time></trkpt><trkpt lat="45.326381556610265" lon="7.621256804581199"><ele>376.0</ele><time>2026-04-19T12:27:30.943Z</time></trkpt><trkpt lat="45.326438659760086" lon="7.621325020443987"><ele>378.5</ele><time>2026-04-19T12:27:31.943Z</time></trkpt><trkpt lat="45.32651957675692" lon="7.621359425990389"><ele>381.0</ele><time>2026-04-19T12:27:32.943Z</time></trkpt><trkpt lat="45.32659785352562" lon="7.621326693123524"><ele>383.49999999999994</ele><time>2026-04-19T12:27:33.943Z</time></trkpt><trkpt lat="45.32669599905897" lon="7.621305075655362"><ele>386.0</ele><time>2026-04-19T12:27:34.942Z</time></trkpt><trkpt lat="45.32681383687334" lon="7.621253838279766"><ele>386.6</ele><time>2026-04-19T12:27:35.942Z</time></trkpt><trkpt lat="45.32693174975772" lon="7.621227414585008"><ele>387.20000000000005</ele><time>2026-04-19T12:27:36.942Z</time></trkpt><trkpt lat="45.327044778552285" lon="7.62122030255382"><ele>387.79999999999995</ele><time>2026-04-19T12:27:37.942Z</time></trkpt><trkpt lat="45.32713484987653" lon="7.62120136594213"><ele>388.4</ele><time>2026-04-19T12:27:38.942Z</time></trkpt><trkpt lat="45.32718501018636" lon="7.621143105846282"><ele>389.0</ele><time>2026-04-19T12:27:39.942Z</time></trkpt><trkpt lat="45.32716907071844" lon="7.620974586219922"><ele>387.6</ele><time>2026-04-19T12:27:41.941Z</time></trkpt><trkpt lat="45.32712151496147" lon="7.62086015426796"><ele>386.2</ele><time>2026-04-19T12:27:42.941Z</time></trkpt><trkpt lat="45.3270691628295" lon="7.620730733037892"><ele>384.8</ele><time>2026-04-19T12:27:43.942Z</time></trkpt><trkpt lat="45.32702495076871" lon="7.620594021786626"><ele>383.40000000000003</ele><time>2026-04-19T12:27:44.941Z</time></trkpt><trkpt lat="45.32700596582853" lon="7.620439318953136"><ele>382.0</ele><time>2026-04-19T12:27:45.941Z</time></trkpt><trkpt lat="45.32702225230407" lon="7.6202790977179236"><ele>382.0</ele><time>2026-04-19T12:27:46.942Z</time></trkpt><trkpt lat="45.32703926094661" lon="7.6201164888011785"><ele>382.0</ele><time>2026-04-19T12:27:47.942Z</time></trkpt><trkpt lat="45.327073199002044" lon="7.619960361791663"><ele>382.0</ele><time>2026-04-19T12:27:48.942Z</time></trkpt><trkpt lat="45.32709038320092" lon="7.6198274301986935"><ele>382.0</ele><time>2026-04-19T12:27:49.942Z</time></trkpt><trkpt lat="45.327118754321" lon="7.619711257285391"><ele>382.0</ele><time>2026-04-19T12:27:50.942Z</time></trkpt><trkpt lat="45.327176353592904" lon="7.619635671571986"><ele>385.66666666666663</ele><time>2026-04-19T12:27:51.942Z</time></trkpt><trkpt lat="45.3272549613128" lon="7.619614605561709"><ele>389.3333333333333</ele><time>2026-04-19T12:27:52.942Z</time></trkpt><trkpt lat="45.32732247303835" lon="7.619692502507834"><ele>393.0</ele><time>2026-04-19T12:27:53.942Z</time></trkpt><trkpt lat="45.32731421773004" lon="7.619800381895154"><ele>396.66666666666663</ele><time>2026-04-19T12:27:54.942Z</time></trkpt><trkpt lat="45.3272760097565" lon="7.619872865323002"><ele>400.3333333333333</ele><time>2026-04-19T12:27:55.942Z</time></trkpt><trkpt lat="45.327294532679154" lon="7.619982029985934"><ele>404.0</ele><time>2026-04-19T12:27:56.942Z</time></trkpt><trkpt lat="45.327318916879484" lon="7.6200793454295574"><ele>404.0</ele><time>2026-04-19T12:27:57.942Z</time></trkpt><trkpt lat="45.32735770036672" lon="7.620210906496138"><ele>404.0</ele><time>2026-04-19T12:27:58.942Z</time></trkpt><trkpt lat="45.327400017083065" lon="7.620347794888698"><ele>404.0</ele><time>2026-04-19T12:27:59.942Z</time></trkpt><trkpt lat="45.32745761300207" lon="7.620528679520805"><ele>404.0</ele><time>2026-04-19T12:28:00.942Z</time></trkpt><trkpt lat="45.32752433071082" lon="7.620718000121305"><ele>402.75</ele><time>2026-04-19T12:28:01.942Z</time></trkpt><trkpt lat="45.32759565377663" lon="7.620891010571537"><ele>401.5</ele><time>2026-04-19T12:28:02.942Z</time></trkpt><trkpt lat="45.327669856376396" lon="7.621030315667153"><ele>400.25</ele><time>2026-04-19T12:28:03.942Z</time></trkpt><trkpt lat="45.327759305558786" lon="7.621156558331867"><ele>399.0</ele><time>2026-04-19T12:28:04.942Z</time></trkpt><trkpt lat="45.327867573235096" lon="7.621239319830296"><ele>399.0</ele><time>2026-04-19T12:28:05.942Z</time></trkpt><trkpt lat="45.32798251986359" lon="7.621296541012772"><ele>399.0</ele><time>2026-04-19T12:28:06.942Z</time></trkpt><trkpt lat="45.32808967506066" lon="7.621357986787752"><ele>399.0</ele><time>2026-04-19T12:28:07.942Z</time></trkpt><trkpt lat="45.32817880919102" lon="7.621457838052433"><ele>399.0</ele><time>2026-04-19T12:28:08.942Z</time></trkpt><trkpt lat="45.32826809379397" lon="7.621567857870663"><ele>400.1666666666667</ele><time>2026-04-19T12:28:09.942Z</time></trkpt><trkpt lat="45.32833456017639" lon="7.621676254885168"><ele>401.33333333333337</ele><time>2026-04-19T12:28:10.942Z</time></trkpt><trkpt lat="45.32838610448625" lon="7.6217806327773"><ele>402.5</ele><time>2026-04-19T12:28:11.942Z</time></trkpt><trkpt lat="45.328419964501876" lon="7.621872007018953"><ele>403.6666666666667</ele><time>2026-04-19T12:28:12.942Z</time></trkpt><trkpt lat="45.32844303136147" lon="7.621968529378454"><ele>404.83333333333337</ele><time>2026-04-19T12:28:13.942Z</time></trkpt><trkpt lat="45.3284150246329" lon="7.622125278004883"><ele>406.0</ele><time>2026-04-19T12:28:15.942Z</time></trkpt><trkpt lat="45.32836082777328" lon="7.622246652198709"><ele>406.0</ele><time>2026-04-19T12:28:16.942Z</time></trkpt><trkpt lat="45.32830640532631" lon="7.622405421405641"><ele>406.0</ele><time>2026-04-19T12:28:17.942Z</time></trkpt><trkpt lat="45.328233847721286" lon="7.62254535378459"><ele>406.0</ele><time>2026-04-19T12:28:18.942Z</time></trkpt><trkpt lat="45.32815502982962" lon="7.622694356174702"><ele>406.0</ele><time>2026-04-19T12:28:19.942Z</time></trkpt><trkpt lat="45.328081465556934" lon="7.6228213393172055"><ele>406.6</ele><time>2026-04-19T12:28:20.942Z</time></trkpt><trkpt lat="45.32800615898954" lon="7.6229452523582175"><ele>407.20000000000005</ele><time>2026-04-19T12:28:21.942Z</time></trkpt><trkpt lat="45.32793981481252" lon="7.623057328114911"><ele>407.79999999999995</ele><time>2026-04-19T12:28:22.942Z</time></trkpt><trkpt lat="45.32790597627928" lon="7.623144655800053"><ele>408.4</ele><time>2026-04-19T12:28:23.942Z</time></trkpt><trkpt lat="45.32786270893183" lon="7.623246122677111"><ele>409.0</ele><time>2026-04-19T12:28:25.942Z</time></trkpt><trkpt lat="45.32797819289138" lon="7.623443538457312"><ele>409.0</ele><time>2026-04-19T12:28:28.942Z</time></trkpt><trkpt lat="45.32803340609126" lon="7.623396954743458"><ele>409.0</ele><time>2026-04-19T12:28:29.942Z</time></trkpt><trkpt lat="45.328115608492496" lon="7.623279719288524"><ele>409.0</ele><time>2026-04-19T12:28:31.942Z</time></trkpt><trkpt lat="45.32816358051024" lon="7.6232074675529"><ele>409.0</ele><time>2026-04-19T12:28:32.942Z</time></trkpt><trkpt lat="45.32823031731944" lon="7.62311274906313"><ele>409.0</ele><time>2026-04-19T12:28:33.942Z</time></trkpt><trkpt lat="45.328298686607546" lon="7.622986319888403"><ele>408.25</ele><time>2026-04-19T12:28:34.942Z</time></trkpt><trkpt lat="45.3284034495507" lon="7.62288162211624"><ele>407.5</ele><time>2026-04-19T12:28:35.942Z</time></trkpt><trkpt lat="45.328494154459335" lon="7.622781921543698"><ele>406.75</ele><time>2026-04-19T12:28:36.942Z</time></trkpt><trkpt lat="45.328583905381514" lon="7.622687227676021"><ele>406.0</ele><time>2026-04-19T12:28:37.942Z</time></trkpt><trkpt lat="45.328659730731616" lon="7.622597718615528"><ele>406.0</ele><time>2026-04-19T12:28:38.942Z</time></trkpt><trkpt lat="45.32871579640495" lon="7.622460480597729"><ele>406.0</ele><time>2026-04-19T12:28:39.942Z</time></trkpt><trkpt lat="45.328798995417976" lon="7.622343819013723"><ele>406.0</ele><time>2026-04-19T12:28:40.942Z</time></trkpt><trkpt lat="45.32890424897982" lon="7.6222488413840646"><ele>406.0</ele><time>2026-04-19T12:28:41.942Z</time></trkpt><trkpt lat="45.32902152603916" lon="7.622161934320978"><ele>404.75</ele><time>2026-04-19T12:28:42.942Z</time></trkpt><trkpt lat="45.32915046258452" lon="7.622070742324003"><ele>403.5</ele><time>2026-04-19T12:28:43.942Z</time></trkpt><trkpt lat="45.32928134128459" lon="7.621984339389231"><ele>402.25</ele><time>2026-04-19T12:28:44.942Z</time></trkpt><trkpt lat="45.329422700892074" lon="7.621898092616395"><ele>401.0</ele><time>2026-04-19T12:28:45.942Z</time></trkpt><trkpt lat="45.32956963988552" lon="7.621844539125054"><ele>401.0</ele><time>2026-04-19T12:28:46.942Z</time></trkpt><trkpt lat="45.32971142868413" lon="7.621772979482314"><ele>401.0</ele><time>2026-04-19T12:28:47.942Z</time></trkpt><trkpt lat="45.329854581554955" lon="7.621724562506615"><ele>401.0</ele><time>2026-04-19T12:28:48.942Z</time></trkpt><trkpt lat="45.329982057343685" lon="7.621655476894523"><ele>401.0</ele><time>2026-04-19T12:28:49.942Z</time></trkpt><trkpt lat="45.33012798412633" lon="7.621612930122098"><ele>396.0</ele><time>2026-04-19T12:28:50.942Z</time></trkpt><trkpt lat="45.33027869475801" lon="7.621613166254857"><ele>391.0</ele><time>2026-04-19T12:28:51.942Z</time></trkpt><trkpt lat="45.33043074569313" lon="7.621614328914651"><ele>386.0</ele><time>2026-04-19T12:28:52.942Z</time></trkpt><trkpt lat="45.33058253639598" lon="7.621646934750787"><ele>384.3333333333333</ele><time>2026-04-19T12:28:53.942Z</time></trkpt><trkpt lat="45.33075132577731" lon="7.621700444195037"><ele>382.66666666666663</ele><time>2026-04-19T12:28:54.942Z</time></trkpt><trkpt lat="45.33092063459824" lon="7.621771927736331"><ele>381.0</ele><time>2026-04-19T12:28:55.942Z</time></trkpt><trkpt lat="45.33109360267588" lon="7.621877589800644"><ele>379.3333333333333</ele><time>2026-04-19T12:28:56.942Z</time></trkpt><trkpt lat="45.33125690462131" lon="7.622007330366945"><ele>377.66666666666663</ele><time>2026-04-19T12:28:57.942Z</time></trkpt><trkpt lat="45.33142718253029" lon="7.622145444916306"><ele>376.0</ele><time>2026-04-19T12:28:58.942Z</time></trkpt><trkpt lat="45.3315851439476" lon="7.622272494992443"><ele>376.0</ele><time>2026-04-19T12:28:59.942Z</time></trkpt><trkpt lat="45.331737605577054" lon="7.622386502708648"><ele>376.0</ele><time>2026-04-19T12:29:00.942Z</time></trkpt><trkpt lat="45.33186820692558" lon="7.622493046945449"><ele>376.0</ele><time>2026-04-19T12:29:01.942Z</time></trkpt><trkpt lat="45.33199416176712" lon="7.622586210441391"><ele>376.0</ele><time>2026-04-19T12:29:02.942Z</time></trkpt><trkpt lat="45.33211492154228" lon="7.622681670551444"><ele>376.0</ele><time>2026-04-19T12:29:03.942Z</time></trkpt><trkpt lat="45.332219737859155" lon="7.622773821322537"><ele>376.0</ele><time>2026-04-19T12:29:04.942Z</time></trkpt><trkpt lat="45.33233155281508" lon="7.622856524098736"><ele>376.0</ele><time>2026-04-19T12:29:05.942Z</time></trkpt><trkpt lat="45.33244724187185" lon="7.622935468571432"><ele>376.75</ele><time>2026-04-19T12:29:06.942Z</time></trkpt><trkpt lat="45.33254688090802" lon="7.6230274930015876"><ele>377.5</ele><time>2026-04-19T12:29:07.942Z</time></trkpt><trkpt lat="45.33265354251704" lon="7.623118745560288"><ele>378.25</ele><time>2026-04-19T12:29:08.942Z</time></trkpt><trkpt lat="45.33276352418775" lon="7.623199984032649"><ele>379.0</ele><time>2026-04-19T12:29:09.942Z</time></trkpt><trkpt lat="45.332872185670624" lon="7.623281815513169"><ele>379.0</ele><time>2026-04-19T12:29:10.942Z</time></trkpt><trkpt lat="45.33296885353168" lon="7.6233638836785484"><ele>379.0</ele><time>2026-04-19T12:29:11.942Z</time></trkpt><trkpt lat="45.333062936843696" lon="7.62343375868965"><ele>379.0</ele><time>2026-04-19T12:29:12.942Z</time></trkpt><trkpt lat="45.33315913691481" lon="7.623500023213401"><ele>379.0</ele><time>2026-04-19T12:29:13.942Z</time></trkpt><trkpt lat="45.33324751445445" lon="7.62355117080525"><ele>379.0</ele><time>2026-04-19T12:29:14.942Z</time></trkpt><trkpt lat="45.33332218647277" lon="7.623605872851462"><ele>378.6</ele><time>2026-04-19T12:29:15.942Z</time></trkpt><trkpt lat="45.33337901917429" lon="7.623647029915233"><ele>378.2</ele><time>2026-04-19T12:29:16.942Z</time></trkpt><trkpt lat="45.33345923702236" lon="7.623685991119143"><ele>377.8</ele><time>2026-04-19T12:29:18.942Z</time></trkpt><trkpt lat="45.333556537345125" lon="7.623736662034904"><ele>377.40000000000003</ele><time>2026-04-19T12:29:39.942Z</time></trkpt><trkpt lat="45.33366419127031" lon="7.623839876380714"><ele>377.0</ele><time>2026-04-19T12:29:41.94Z</time></trkpt><trkpt lat="45.333734828522594" lon="7.623884918650553"><ele>377.0</ele><time>2026-04-19T12:29:42.94Z</time></trkpt><trkpt lat="45.33380431699693" lon="7.623922175355227"><ele>377.0</ele><time>2026-04-19T12:29:43.94Z</time></trkpt><trkpt lat="45.33387351080944" lon="7.623959045849529"><ele>377.0</ele><time>2026-04-19T12:29:44.939Z</time></trkpt><trkpt lat="45.333947198341924" lon="7.623996540874938"><ele>377.0</ele><time>2026-04-19T12:29:45.939Z</time></trkpt><trkpt lat="45.33402938171189" lon="7.624039563143418"><ele>377.0</ele><time>2026-04-19T12:29:46.94Z</time></trkpt><trkpt lat="45.33411251366511" lon="7.6240904681712625"><ele>377.0</ele><time>2026-04-19T12:29:47.94Z</time></trkpt><trkpt lat="45.33420135293366" lon="7.624155728761782"><ele>377.33333333333337</ele><time>2026-04-19T12:29:48.94Z</time></trkpt><trkpt lat="45.33426641477143" lon="7.624211098703362"><ele>377.6666666666667</ele><time>2026-04-19T12:29:49.94Z</time></trkpt><trkpt lat="45.33434854496512" lon="7.624259457821915"><ele>378.0</ele><time>2026-04-19T12:29:50.94Z</time></trkpt><trkpt lat="45.33442065703539" lon="7.624302682171119"><ele>378.3333333333333</ele><time>2026-04-19T12:29:51.94Z</time></trkpt><trkpt lat="45.334488087702574" lon="7.624362353791623"><ele>378.66666666666663</ele><time>2026-04-19T12:29:52.94Z</time></trkpt><trkpt lat="45.33456077593539" lon="7.6244155535538365"><ele>379.0</ele><time>2026-04-19T12:29:53.94Z</time></trkpt><trkpt lat="45.33461886552846" lon="7.624458050273433"><ele>379.0</ele><time>2026-04-19T12:29:54.94Z</time></trkpt><trkpt lat="45.3347063383669" lon="7.624504716316494"><ele>379.0</ele><time>2026-04-19T12:29:56.94Z</time></trkpt><trkpt lat="45.33476956855154" lon="7.624564712399196"><ele>379.0</ele><time>2026-04-19T12:29:58.94Z</time></trkpt><trkpt lat="45.3348587322156" lon="7.624457814943159"><ele>379.0</ele><time>2026-04-19T12:30:03.94Z</time></trkpt><trkpt lat="45.334900615084244" lon="7.624302630499178"><ele>379.0</ele><time>2026-04-19T12:30:05.94Z</time></trkpt><trkpt lat="45.334938384468266" lon="7.6242174250431525"><ele>379.0</ele><time>2026-04-19T12:30:06.94Z</time></trkpt><trkpt lat="45.33497244480127" lon="7.6241397012342915"><ele>379.0</ele><time>2026-04-19T12:30:07.94Z</time></trkpt><trkpt lat="45.335004306561345" lon="7.624051541016581"><ele>379.0</ele><time>2026-04-19T12:30:08.94Z</time></trkpt><trkpt lat="45.33502292350127" lon="7.623957013650931"><ele>379.0</ele><time>2026-04-19T12:30:09.94Z</time></trkpt><trkpt lat="45.3350512029379" lon="7.623876480454575"><ele>379.0</ele><time>2026-04-19T12:30:10.94Z</time></trkpt><trkpt lat="45.335101172641814" lon="7.623734178979824"><ele>379.0</ele><time>2026-04-19T12:30:12.94Z</time></trkpt><trkpt lat="45.33516246348475" lon="7.623581556405113"><ele>379.5</ele><time>2026-04-19T12:30:14.94Z</time></trkpt><trkpt lat="45.335205857414266" lon="7.6235012192392855"><ele>380.0</ele><time>2026-04-19T12:30:15.94Z</time></trkpt><trkpt lat="45.33525435565602" lon="7.62343190379434"><ele>380.5</ele><time>2026-04-19T12:30:16.94Z</time></trkpt><trkpt lat="45.33532460790951" lon="7.623341486019948"><ele>381.0</ele><time>2026-04-19T12:30:18.94Z</time></trkpt><trkpt lat="45.33541206130314" lon="7.62332742005414"><ele>381.5</ele><time>2026-04-19T12:30:20.94Z</time></trkpt><trkpt lat="45.335492185266354" lon="7.623324029247074"><ele>382.0</ele><time>2026-04-19T12:30:23.94Z</time></trkpt><trkpt lat="45.33556132788254" lon="7.623350337840575"><ele>381.3333333333333</ele><time>2026-04-19T12:30:24.94Z</time></trkpt><trkpt lat="45.335606993691506" lon="7.623416946642946"><ele>380.66666666666663</ele><time>2026-04-19T12:30:25.94Z</time></trkpt><trkpt lat="45.33567258322546" lon="7.6234776959684964"><ele>380.0</ele><time>2026-04-19T12:30:26.94Z</time></trkpt><trkpt lat="45.335749945090946" lon="7.623564055540808"><ele>379.3333333333333</ele><time>2026-04-19T12:30:27.94Z</time></trkpt><trkpt lat="45.33581472175923" lon="7.623627627356442"><ele>378.6666666666667</ele><time>2026-04-19T12:30:28.94Z</time></trkpt><trkpt lat="45.335881156106296" lon="7.623683339432988"><ele>378.0</ele><time>2026-04-19T12:30:29.94Z</time></trkpt><trkpt lat="45.33594361800288" lon="7.623746522270859"><ele>378.0</ele><time>2026-04-19T12:30:30.94Z</time></trkpt><trkpt lat="45.33599917732834" lon="7.623805354403166"><ele>378.0</ele><time>2026-04-19T12:30:31.94Z</time></trkpt><trkpt lat="45.33605068955517" lon="7.623857986897159"><ele>378.0</ele><time>2026-04-19T12:30:32.94Z</time></trkpt><trkpt lat="45.33610223965367" lon="7.623913546169505"><ele>378.0</ele><time>2026-04-19T12:30:33.94Z</time></trkpt><trkpt lat="45.33618834219979" lon="7.624010868533876"><ele>378.0</ele><time>2026-04-19T12:30:35.94Z</time></trkpt><trkpt lat="45.336265111165666" lon="7.624078153147185"><ele>378.0</ele><time>2026-04-19T12:30:37.94Z</time></trkpt><trkpt lat="45.33632569009435" lon="7.624149137848075"><ele>377.0</ele><time>2026-04-19T12:30:39.94Z</time></trkpt><trkpt lat="45.33639824862844" lon="7.624230473380428"><ele>376.0</ele><time>2026-04-19T12:30:41.94Z</time></trkpt><trkpt lat="45.33650918184883" lon="7.624320210147024"><ele>375.0</ele><time>2026-04-19T12:30:43.94Z</time></trkpt><trkpt lat="45.336562858048346" lon="7.624382352131092"><ele>374.0</ele><time>2026-04-19T12:30:44.94Z</time></trkpt><trkpt lat="45.336627762666105" lon="7.624448015214074"><ele>373.0</ele><time>2026-04-19T12:30:45.94Z</time></trkpt><trkpt lat="45.33669634740656" lon="7.62452397656953"><ele>373.0</ele><time>2026-04-19T12:30:46.94Z</time></trkpt><trkpt lat="45.3367646327279" lon="7.624606481235188"><ele>373.0</ele><time>2026-04-19T12:30:47.94Z</time></trkpt><trkpt lat="45.33683062039864" lon="7.624692665929296"><ele>373.0</ele><time>2026-04-19T12:30:48.94Z</time></trkpt><trkpt lat="45.33691529078035" lon="7.624789313636005"><ele>373.0</ele><time>2026-04-19T12:30:49.94Z</time></trkpt><trkpt lat="45.33700109556646" lon="7.6248894707154005"><ele>373.0</ele><time>2026-04-19T12:30:50.94Z</time></trkpt><trkpt lat="45.33708854393011" lon="7.624963560639519"><ele>373.0</ele><time>2026-04-19T12:30:51.94Z</time></trkpt><trkpt lat="45.3371673718657" lon="7.625059939197597"><ele>373.0</ele><time>2026-04-19T12:30:52.94Z</time></trkpt><trkpt lat="45.33724766759178" lon="7.625167981947378"><ele>373.0</ele><time>2026-04-19T12:30:53.94Z</time></trkpt><trkpt lat="45.337327711777704" lon="7.625305990641678"><ele>373.0</ele><time>2026-04-19T12:30:54.94Z</time></trkpt><trkpt lat="45.337397538369146" lon="7.6254321436438435"><ele>369.25</ele><time>2026-04-19T12:30:55.94Z</time></trkpt><trkpt lat="45.337466093159" lon="7.625555999030505"><ele>365.5</ele><time>2026-04-19T12:30:56.94Z</time></trkpt><trkpt lat="45.3375385351033" lon="7.625686877118353"><ele>361.75</ele><time>2026-04-19T12:30:57.94Z</time></trkpt><trkpt lat="45.3376111689006" lon="7.6258159364096825"><ele>358.0</ele><time>2026-04-19T12:30:58.94Z</time></trkpt><trkpt lat="45.33768714741874" lon="7.625945239235184"><ele>358.0</ele><time>2026-04-19T12:30:59.94Z</time></trkpt><trkpt lat="45.33776335536179" lon="7.6260749326490584"><ele>358.0</ele><time>2026-04-19T12:31:00.94Z</time></trkpt><trkpt lat="45.337840361827425" lon="7.626223667691809"><ele>358.0</ele><time>2026-04-19T12:31:01.94Z</time></trkpt><trkpt lat="45.337917476984195" lon="7.626367954280442"><ele>358.0</ele><time>2026-04-19T12:31:02.94Z</time></trkpt><trkpt lat="45.33800715184354" lon="7.626517652933949"><ele>356.3333333333333</ele><time>2026-04-19T12:31:03.94Z</time></trkpt><trkpt lat="45.33810725296626" lon="7.626688102550993"><ele>354.6666666666667</ele><time>2026-04-19T12:31:04.94Z</time></trkpt><trkpt lat="45.338206729142705" lon="7.626857488068909"><ele>353.0</ele><time>2026-04-19T12:31:05.94Z</time></trkpt><trkpt lat="45.3383048026387" lon="7.627021867868606"><ele>353.0</ele><time>2026-04-19T12:31:06.94Z</time></trkpt><trkpt lat="45.338401366422815" lon="7.627180824656934"><ele>353.0</ele><time>2026-04-19T12:31:07.94Z</time></trkpt><trkpt lat="45.33848402418293" lon="7.627337292898773"><ele>353.0</ele><time>2026-04-19T12:31:08.94Z</time></trkpt><trkpt lat="45.33857152448059" lon="7.627473565224318"><ele>353.0</ele><time>2026-04-19T12:31:09.94Z</time></trkpt><trkpt lat="45.33865085711401" lon="7.627605854044043"><ele>353.0</ele><time>2026-04-19T12:31:10.94Z</time></trkpt><trkpt lat="45.33873237049617" lon="7.627728902963853"><ele>353.0</ele><time>2026-04-19T12:31:11.94Z</time></trkpt><trkpt lat="45.338795554774386" lon="7.62785724674867"><ele>353.0</ele><time>2026-04-19T12:31:12.94Z</time></trkpt><trkpt lat="45.338847744542015" lon="7.628022855090362"><ele>353.0</ele><time>2026-04-19T12:31:13.94Z</time></trkpt><trkpt lat="45.338882740858594" lon="7.628175574205216"><ele>352.5</ele><time>2026-04-19T12:31:14.94Z</time></trkpt><trkpt lat="45.33892448907437" lon="7.628358527422428"><ele>352.0</ele><time>2026-04-19T12:31:15.94Z</time></trkpt><trkpt lat="45.33898814546495" lon="7.628554268693095"><ele>351.5</ele><time>2026-04-19T12:31:16.94Z</time></trkpt><trkpt lat="45.33905700200146" lon="7.628747237344943"><ele>351.0</ele><time>2026-04-19T12:31:17.94Z</time></trkpt><trkpt lat="45.33913159125648" lon="7.628943485099503"><ele>351.0</ele><time>2026-04-19T12:31:18.94Z</time></trkpt><trkpt lat="45.33918373891035" lon="7.629169441041765"><ele>351.0</ele><time>2026-04-19T12:31:19.94Z</time></trkpt><trkpt lat="45.33922683534532" lon="7.629388478588926"><ele>351.0</ele><time>2026-04-19T12:31:20.94Z</time></trkpt><trkpt lat="45.33925663229843" lon="7.629584840177691"><ele>351.0</ele><time>2026-04-19T12:31:21.94Z</time></trkpt><trkpt lat="45.33927182415324" lon="7.62977091746779"><ele>351.0</ele><time>2026-04-19T12:31:22.94Z</time></trkpt><trkpt lat="45.33927940551837" lon="7.62990750356346"><ele>351.0</ele><time>2026-04-19T12:31:23.94Z</time></trkpt><trkpt lat="45.33926420258249" lon="7.63002166256762"><ele>351.0</ele><time>2026-04-19T12:31:24.94Z</time></trkpt><trkpt lat="45.33922184195146" lon="7.630124832511756"><ele>351.0</ele><time>2026-04-19T12:31:25.94Z</time></trkpt><trkpt lat="45.33917167415612" lon="7.63024517753301"><ele>351.0</ele><time>2026-04-19T12:31:26.94Z</time></trkpt><trkpt lat="45.339116986640626" lon="7.630383257028365"><ele>351.0</ele><time>2026-04-19T12:31:27.94Z</time></trkpt><trkpt lat="45.33908446580946" lon="7.630517841526401"><ele>351.0</ele><time>2026-04-19T12:31:28.94Z</time></trkpt><trkpt lat="45.33909394749594" lon="7.630658676210156"><ele>351.0</ele><time>2026-04-19T12:31:29.94Z</time></trkpt><trkpt lat="45.33912409652239" lon="7.630792323314906"><ele>351.0</ele><time>2026-04-19T12:31:30.94Z</time></trkpt><trkpt lat="45.3391838438391" lon="7.630913208902485"><ele>351.0</ele><time>2026-04-19T12:31:31.94Z</time></trkpt><trkpt lat="45.33926162006879" lon="7.631026429234301"><ele>351.0</ele><time>2026-04-19T12:31:32.94Z</time></trkpt><trkpt lat="45.33935470891975" lon="7.631143628613118"><ele>351.0</ele><time>2026-04-19T12:31:33.94Z</time></trkpt><trkpt lat="45.339455950871134" lon="7.6312649647661095"><ele>351.0</ele><time>2026-04-19T12:31:34.94Z</time></trkpt><trkpt lat="45.3395692067747" lon="7.631382857582818"><ele>350.25</ele><time>2026-04-19T12:31:35.94Z</time></trkpt><trkpt lat="45.33968118729604" lon="7.631482059207014"><ele>349.5</ele><time>2026-04-19T12:31:36.94Z</time></trkpt><trkpt lat="45.33979245444788" lon="7.631588209281043"><ele>348.75</ele><time>2026-04-19T12:31:37.94Z</time></trkpt><trkpt lat="45.33989268544347" lon="7.631701458607744"><ele>348.0</ele><time>2026-04-19T12:31:38.94Z</time></trkpt><trkpt lat="45.34000654520631" lon="7.631832512066927"><ele>345.0</ele><time>2026-04-19T12:31:39.94Z</time></trkpt><trkpt lat="45.34010921392329" lon="7.632000373120555"><ele>342.0</ele><time>2026-04-19T12:31:40.94Z</time></trkpt><trkpt lat="45.34018409000733" lon="7.632189224409707"><ele>339.0</ele><time>2026-04-19T12:31:41.94Z</time></trkpt><trkpt lat="45.34022926272872" lon="7.63240157994019"><ele>339.0</ele><time>2026-04-19T12:31:42.94Z</time></trkpt><trkpt lat="45.34025341739327" lon="7.63263471357161"><ele>339.0</ele><time>2026-04-19T12:31:43.94Z</time></trkpt><trkpt lat="45.340276872166505" lon="7.6328575451041445"><ele>339.0</ele><time>2026-04-19T12:31:44.94Z</time></trkpt><trkpt lat="45.340292184412654" lon="7.633068824570724"><ele>339.75</ele><time>2026-04-19T12:31:45.94Z</time></trkpt><trkpt lat="45.34029226406851" lon="7.633255738718133"><ele>340.5</ele><time>2026-04-19T12:31:46.938Z</time></trkpt><trkpt lat="45.340268888160644" lon="7.633431656552279"><ele>341.25</ele><time>2026-04-19T12:31:47.938Z</time></trkpt><trkpt lat="45.34019853346839" lon="7.633575772859871"><ele>342.0</ele><time>2026-04-19T12:31:48.938Z</time></trkpt><trkpt lat="45.34013526184941" lon="7.633734726704822"><ele>342.5</ele><time>2026-04-19T12:31:49.938Z</time></trkpt><trkpt lat="45.340071910458484" lon="7.633902193452566"><ele>343.0</ele><time>2026-04-19T12:31:50.938Z</time></trkpt><trkpt lat="45.34000463313056" lon="7.634083177889488"><ele>343.5</ele><time>2026-04-19T12:31:51.938Z</time></trkpt><trkpt lat="45.33995263444575" lon="7.6342805718225115"><ele>344.0</ele><time>2026-04-19T12:31:52.938Z</time></trkpt><trkpt lat="45.339913485518856" lon="7.634500111017147"><ele>345.0</ele><time>2026-04-19T12:31:53.938Z</time></trkpt><trkpt lat="45.3398923677573" lon="7.634705891289326"><ele>346.0</ele><time>2026-04-19T12:31:54.938Z</time></trkpt><trkpt lat="45.33987625348518" lon="7.63495476448709"><ele>347.0</ele><time>2026-04-19T12:31:55.937Z</time></trkpt><trkpt lat="45.33989596311531" lon="7.6351979808406"><ele>345.6666666666667</ele><time>2026-04-19T12:31:56.937Z</time></trkpt><trkpt lat="45.3399388907744" lon="7.635462548524058"><ele>344.3333333333333</ele><time>2026-04-19T12:31:57.937Z</time></trkpt><trkpt lat="45.34001097884632" lon="7.6356993792719505"><ele>343.0</ele><time>2026-04-19T12:31:58.938Z</time></trkpt><trkpt lat="45.34009668730498" lon="7.635890566895964"><ele>343.0</ele><time>2026-04-19T12:31:59.938Z</time></trkpt><trkpt lat="45.34019889509975" lon="7.636100171918852"><ele>343.0</ele><time>2026-04-19T12:32:00.938Z</time></trkpt><trkpt lat="45.34031950022216" lon="7.636305024371918"><ele>343.0</ele><time>2026-04-19T12:32:01.938Z</time></trkpt><trkpt lat="45.34024715655336" lon="7.636211261261024"><ele>342.0</ele><time>2026-04-19T12:32:02.938Z</time></trkpt><trkpt lat="45.34035203693331" lon="7.636385763319589"><ele>341.0</ele><time>2026-04-19T12:32:03.938Z</time></trkpt><trkpt lat="45.34046199558672" lon="7.6365684841213275"><ele>340.0</ele><time>2026-04-19T12:32:04.938Z</time></trkpt><trkpt lat="45.340581155455126" lon="7.636763467536449"><ele>340.0</ele><time>2026-04-19T12:32:05.938Z</time></trkpt><trkpt lat="45.34070284032587" lon="7.6369682571228426"><ele>340.0</ele><time>2026-04-19T12:32:06.938Z</time></trkpt><trkpt lat="45.340829496611505" lon="7.637167783855734"><ele>340.0</ele><time>2026-04-19T12:32:07.938Z</time></trkpt><trkpt lat="45.34097331801985" lon="7.637371281646834"><ele>339.66666666666663</ele><time>2026-04-19T12:32:08.938Z</time></trkpt><trkpt lat="45.34112303595417" lon="7.6375739986563485"><ele>339.3333333333333</ele><time>2026-04-19T12:32:09.938Z</time></trkpt><trkpt lat="45.34127787854703" lon="7.637775720283099"><ele>339.0</ele><time>2026-04-19T12:32:10.938Z</time></trkpt><trkpt lat="45.341430286219946" lon="7.637970577811787"><ele>339.0</ele><time>2026-04-19T12:32:11.938Z</time></trkpt><trkpt lat="45.34158272045704" lon="7.638167899250107"><ele>339.0</ele><time>2026-04-19T12:32:12.938Z</time></trkpt><trkpt lat="45.341739766426414" lon="7.638364264324415"><ele>339.0</ele><time>2026-04-19T12:32:13.938Z</time></trkpt><trkpt lat="45.341893189751914" lon="7.638560508045515"><ele>339.0</ele><time>2026-04-19T12:32:14.938Z</time></trkpt><trkpt lat="45.342046661589876" lon="7.638755098735649"><ele>339.0</ele><time>2026-04-19T12:32:15.938Z</time></trkpt><trkpt lat="45.342198575096354" lon="7.638943011075611"><ele>339.0</ele><time>2026-04-19T12:32:16.938Z</time></trkpt><trkpt lat="45.34234478475877" lon="7.639130339719516"><ele>339.0</ele><time>2026-04-19T12:32:17.938Z</time></trkpt><trkpt lat="45.342486629863465" lon="7.6393177979403"><ele>339.0</ele><time>2026-04-19T12:32:18.938Z</time></trkpt><trkpt lat="45.34263408688489" lon="7.639495577294435"><ele>339.0</ele><time>2026-04-19T12:32:19.938Z</time></trkpt><trkpt lat="45.342779734697984" lon="7.639671610090788"><ele>339.0</ele><time>2026-04-19T12:32:20.938Z</time></trkpt><trkpt lat="45.34292762682681" lon="7.639855291801499"><ele>339.0</ele><time>2026-04-19T12:32:21.938Z</time></trkpt><trkpt lat="45.3430762014479" lon="7.640044192329011"><ele>339.0</ele><time>2026-04-19T12:32:22.938Z</time></trkpt><trkpt lat="45.34322188182783" lon="7.640233830395911"><ele>339.3333333333333</ele><time>2026-04-19T12:32:23.938Z</time></trkpt><trkpt lat="45.343369051531546" lon="7.640420998876633"><ele>339.66666666666663</ele><time>2026-04-19T12:32:24.938Z</time></trkpt><trkpt lat="45.343533703270076" lon="7.640591909748045"><ele>340.0</ele><time>2026-04-19T12:32:25.938Z</time></trkpt><trkpt lat="45.34368823221253" lon="7.640769108888368"><ele>340.0</ele><time>2026-04-19T12:32:26.938Z</time></trkpt><trkpt lat="45.34385024047469" lon="7.640928781944878"><ele>340.0</ele><time>2026-04-19T12:32:27.938Z</time></trkpt><trkpt lat="45.34402267190134" lon="7.641064528973078"><ele>340.0</ele><time>2026-04-19T12:32:28.938Z</time></trkpt><trkpt lat="45.344202932556385" lon="7.641172629994329"><ele>339.66666666666663</ele><time>2026-04-19T12:32:29.938Z</time></trkpt><trkpt lat="45.34438373254212" lon="7.641269073181671"><ele>339.3333333333333</ele><time>2026-04-19T12:32:30.938Z</time></trkpt><trkpt lat="45.34454173653424" lon="7.641343245655415"><ele>339.0</ele><time>2026-04-19T12:32:31.938Z</time></trkpt><trkpt lat="45.34466595372462" lon="7.641395082675839"><ele>339.6666666666667</ele><time>2026-04-19T12:32:32.938Z</time></trkpt><trkpt lat="45.34475749342052" lon="7.641430358521155"><ele>340.3333333333333</ele><time>2026-04-19T12:32:33.938Z</time></trkpt><trkpt lat="45.344835348188376" lon="7.641459014487499"><ele>341.0</ele><time>2026-04-19T12:32:34.938Z</time></trkpt><trkpt lat="45.34489273013089" lon="7.641503538663005"><ele>341.66666666666663</ele><time>2026-04-19T12:32:35.938Z</time></trkpt><trkpt lat="45.34494990550676" lon="7.641559271657362"><ele>342.3333333333333</ele><time>2026-04-19T12:32:36.938Z</time></trkpt><trkpt lat="45.34494599371765" lon="7.641673686367756"><ele>343.0</ele><time>2026-04-19T12:32:37.938Z</time></trkpt><trkpt lat="45.34502687496763" lon="7.641787911520449"><ele>343.0</ele><time>2026-04-19T12:32:39.938Z</time></trkpt><trkpt lat="45.34508845866525" lon="7.641753641386897"><ele>343.0</ele><time>2026-04-19T12:32:40.938Z</time></trkpt><trkpt lat="45.34513910136049" lon="7.6416966078650175"><ele>343.0</ele><time>2026-04-19T12:32:41.938Z</time></trkpt><trkpt lat="45.34519116429416" lon="7.641624099697462"><ele>343.0</ele><time>2026-04-19T12:32:42.938Z</time></trkpt><trkpt lat="45.345280653657596" lon="7.641601663589884"><ele>343.0</ele><time>2026-04-19T12:32:43.938Z</time></trkpt><trkpt lat="45.34537888322755" lon="7.641563690703111"><ele>343.0</ele><time>2026-04-19T12:32:44.938Z</time></trkpt><trkpt lat="45.345489267863954" lon="7.641515318548564"><ele>343.25</ele><time>2026-04-19T12:32:45.938Z</time></trkpt><trkpt lat="45.34561568413159" lon="7.6414486688663645"><ele>343.5</ele><time>2026-04-19T12:32:46.938Z</time></trkpt><trkpt lat="45.34574915744865" lon="7.641371823197502"><ele>343.75</ele><time>2026-04-19T12:32:47.938Z</time></trkpt><trkpt lat="45.3458860174394" lon="7.641317838641423"><ele>344.0</ele><time>2026-04-19T12:32:48.938Z</time></trkpt><trkpt lat="45.34602578701992" lon="7.641257596287508"><ele>344.0</ele><time>2026-04-19T12:32:49.938Z</time></trkpt><trkpt lat="45.346165243628086" lon="7.641228072529554"><ele>344.0</ele><time>2026-04-19T12:32:50.938Z</time></trkpt><trkpt lat="45.34628892732573" lon="7.641241575083561"><ele>344.0</ele><time>2026-04-19T12:32:51.938Z</time></trkpt><trkpt lat="45.3464163902572" lon="7.641290542281837"><ele>344.0</ele><time>2026-04-19T12:32:52.938Z</time></trkpt><trkpt lat="45.34655207636051" lon="7.641350817485327"><ele>343.75</ele><time>2026-04-19T12:32:53.938Z</time></trkpt><trkpt lat="45.34669115216895" lon="7.641413890295096"><ele>343.5</ele><time>2026-04-19T12:32:54.938Z</time></trkpt><trkpt lat="45.34681968509128" lon="7.641492725441606"><ele>343.25</ele><time>2026-04-19T12:32:55.938Z</time></trkpt><trkpt lat="45.346963899782075" lon="7.641567180442276"><ele>343.0</ele><time>2026-04-19T12:32:56.938Z</time></trkpt><trkpt lat="45.34709941571217" lon="7.641662925129905"><ele>344.0</ele><time>2026-04-19T12:32:57.938Z</time></trkpt><trkpt lat="45.34723485607031" lon="7.641762596160876"><ele>345.0</ele><time>2026-04-19T12:32:58.938Z</time></trkpt><trkpt lat="45.34737123983313" lon="7.641862546427356"><ele>346.0</ele><time>2026-04-19T12:32:59.938Z</time></trkpt><trkpt lat="45.347511736464256" lon="7.641950151258631"><ele>346.25</ele><time>2026-04-19T12:33:00.938Z</time></trkpt><trkpt lat="45.34764546133018" lon="7.6420448591027474"><ele>346.5</ele><time>2026-04-19T12:33:01.938Z</time></trkpt><trkpt lat="45.3477729152156" lon="7.642115791165495"><ele>346.75</ele><time>2026-04-19T12:33:02.938Z</time></trkpt><trkpt lat="45.34791353999136" lon="7.642167656494753"><ele>347.0</ele><time>2026-04-19T12:33:03.938Z</time></trkpt><trkpt lat="45.34805363364228" lon="7.6422235466820245"><ele>347.0</ele><time>2026-04-19T12:33:04.938Z</time></trkpt><trkpt lat="45.348189190316226" lon="7.642271285388331"><ele>347.0</ele><time>2026-04-19T12:33:05.938Z</time></trkpt><trkpt lat="45.34833970432412" lon="7.642289417292941"><ele>347.0</ele><time>2026-04-19T12:33:06.938Z</time></trkpt><trkpt lat="45.34849947609743" lon="7.642296689246596"><ele>347.0</ele><time>2026-04-19T12:33:07.938Z</time></trkpt><trkpt lat="45.348651922223524" lon="7.6422818520479625"><ele>347.0</ele><time>2026-04-19T12:33:08.938Z</time></trkpt><trkpt lat="45.348799852663134" lon="7.642250595691292"><ele>347.0</ele><time>2026-04-19T12:33:09.938Z</time></trkpt><trkpt lat="45.34895838478118" lon="7.642187331599148"><ele>348.0</ele><time>2026-04-19T12:33:10.938Z</time></trkpt><trkpt lat="45.34911642801834" lon="7.642119920246494"><ele>349.0</ele><time>2026-04-19T12:33:11.938Z</time></trkpt><trkpt lat="45.34927212470168" lon="7.642042179376247"><ele>350.0</ele><time>2026-04-19T12:33:12.938Z</time></trkpt><trkpt lat="45.34944053361907" lon="7.641979293480053"><ele>350.33333333333337</ele><time>2026-04-19T12:33:13.938Z</time></trkpt><trkpt lat="45.34959086938819" lon="7.641898574567305"><ele>350.6666666666667</ele><time>2026-04-19T12:33:14.938Z</time></trkpt><trkpt lat="45.34975046900194" lon="7.641823774822057"><ele>351.0</ele><time>2026-04-19T12:33:15.938Z</time></trkpt><trkpt lat="45.349889552761056" lon="7.641748990204378"><ele>351.25</ele><time>2026-04-19T12:33:16.938Z</time></trkpt><trkpt lat="45.35001636277408" lon="7.64167379875314"><ele>351.5</ele><time>2026-04-19T12:33:17.938Z</time></trkpt><trkpt lat="45.350136658884274" lon="7.6416022541510324"><ele>351.75</ele><time>2026-04-19T12:33:18.938Z</time></trkpt><trkpt lat="45.35025559047987" lon="7.641528483391494"><ele>352.0</ele><time>2026-04-19T12:33:19.938Z</time></trkpt><trkpt lat="45.35036846580746" lon="7.641428563610861"><ele>352.0</ele><time>2026-04-19T12:33:20.938Z</time></trkpt><trkpt lat="45.35048283225863" lon="7.641349860232884"><ele>352.0</ele><time>2026-04-19T12:33:21.938Z</time></trkpt><trkpt lat="45.35058423288834" lon="7.641285188840288"><ele>352.0</ele><time>2026-04-19T12:33:22.938Z</time></trkpt><trkpt lat="45.35066265201106" lon="7.641206803583332"><ele>352.0</ele><time>2026-04-19T12:33:23.938Z</time></trkpt><trkpt lat="45.350740806655956" lon="7.641143959690536"><ele>352.0</ele><time>2026-04-19T12:33:24.938Z</time></trkpt><trkpt lat="45.35081852495214" lon="7.641085993273797"><ele>352.8</ele><time>2026-04-19T12:33:25.938Z</time></trkpt><trkpt lat="45.35090392318097" lon="7.641026640895788"><ele>353.6</ele><time>2026-04-19T12:33:26.938Z</time></trkpt><trkpt lat="45.3509989972595" lon="7.640969415894926"><ele>354.40000000000003</ele><time>2026-04-19T12:33:27.938Z</time></trkpt><trkpt lat="45.35109999312732" lon="7.640918370799174"><ele>355.20000000000005</ele><time>2026-04-19T12:33:28.938Z</time></trkpt><trkpt lat="45.351177349987445" lon="7.640900820892068"><ele>356.0</ele><time>2026-04-19T12:33:29.938Z</time></trkpt><trkpt lat="45.3512678957851" lon="7.64092380463293"><ele>356.0</ele><time>2026-04-19T12:33:30.938Z</time></trkpt><trkpt lat="45.35134412739948" lon="7.64099778300886"><ele>356.0</ele><time>2026-04-19T12:33:31.938Z</time></trkpt><trkpt lat="45.35143215909418" lon="7.641061472098068"><ele>356.0</ele><time>2026-04-19T12:33:32.938Z</time></trkpt><trkpt lat="45.3515278714522" lon="7.641142378828894"><ele>356.0</ele><time>2026-04-19T12:33:33.938Z</time></trkpt><trkpt lat="45.35162667397034" lon="7.641231987451756"><ele>356.0</ele><time>2026-04-19T12:33:34.938Z</time></trkpt><trkpt lat="45.3517317431571" lon="7.641321732382385"><ele>355.75</ele><time>2026-04-19T12:33:35.938Z</time></trkpt><trkpt lat="45.35184196602237" lon="7.641394470459459"><ele>355.5</ele><time>2026-04-19T12:33:36.938Z</time></trkpt><trkpt lat="45.351956660348314" lon="7.641471558173468"><ele>355.25</ele><time>2026-04-19T12:33:37.938Z</time></trkpt><trkpt lat="45.35208911289808" lon="7.64154401071378"><ele>355.0</ele><time>2026-04-19T12:33:38.938Z</time></trkpt><trkpt lat="45.35221652955918" lon="7.641617794911949"><ele>356.66666666666663</ele><time>2026-04-19T12:33:39.938Z</time></trkpt><trkpt lat="45.352367845430784" lon="7.641670163164765"><ele>358.3333333333333</ele><time>2026-04-19T12:33:40.938Z</time></trkpt><trkpt lat="45.352512510752845" lon="7.641717700345425"><ele>360.0</ele><time>2026-04-19T12:33:41.938Z</time></trkpt><trkpt lat="45.35267795241176" lon="7.641743859395359"><ele>360.0</ele><time>2026-04-19T12:33:42.938Z</time></trkpt><trkpt lat="45.35283276680419" lon="7.641770906963031"><ele>360.0</ele><time>2026-04-19T12:33:43.938Z</time></trkpt><trkpt lat="45.352981364429695" lon="7.641825994922828"><ele>360.0</ele><time>2026-04-19T12:33:44.938Z</time></trkpt><trkpt lat="45.35310972984333" lon="7.641854797208533"><ele>360.0</ele><time>2026-04-19T12:33:45.938Z</time></trkpt><trkpt lat="45.353222036967395" lon="7.641857631138354"><ele>359.8333333333333</ele><time>2026-04-19T12:33:46.938Z</time></trkpt><trkpt lat="45.35328956514038" lon="7.6418882515330955"><ele>359.6666666666667</ele><time>2026-04-19T12:33:47.938Z</time></trkpt><trkpt lat="45.3533557761899" lon="7.641901220213034"><ele>359.5</ele><time>2026-04-19T12:33:48.938Z</time></trkpt><trkpt lat="45.35347837712651" lon="7.641972814848595"><ele>359.33333333333337</ele><time>2026-04-19T12:33:50.938Z</time></trkpt><trkpt lat="45.35356223399533" lon="7.641985137372696"><ele>359.1666666666667</ele><time>2026-04-19T12:33:51.938Z</time></trkpt><trkpt lat="45.353639610092436" lon="7.642029479928854"><ele>359.0</ele><time>2026-04-19T12:33:52.936Z</time></trkpt><trkpt lat="45.35372052470807" lon="7.642073660135532"><ele>359.0</ele><time>2026-04-19T12:33:53.936Z</time></trkpt><trkpt lat="45.35378479098433" lon="7.642104603563784"><ele>359.0</ele><time>2026-04-19T12:33:54.936Z</time></trkpt><trkpt lat="45.353845988132974" lon="7.642196149395104"><ele>359.0</ele><time>2026-04-19T12:33:56.936Z</time></trkpt><trkpt lat="45.35381512516529" lon="7.642360904541566"><ele>359.0</ele><time>2026-04-19T12:33:58.936Z</time></trkpt><trkpt lat="45.3537751432133" lon="7.642460225983024"><ele>359.0</ele><time>2026-04-19T12:33:59.936Z</time></trkpt><trkpt lat="45.3537295505685" lon="7.642571436800464"><ele>359.0</ele><time>2026-04-19T12:34:00.936Z</time></trkpt><trkpt lat="45.35368194658793" lon="7.642707338735542"><ele>358.5</ele><time>2026-04-19T12:34:01.936Z</time></trkpt><trkpt lat="45.35363192148486" lon="7.642857513563305"><ele>358.0</ele><time>2026-04-19T12:34:02.936Z</time></trkpt><trkpt lat="45.35358404209968" lon="7.64302028206608"><ele>357.5</ele><time>2026-04-19T12:34:03.936Z</time></trkpt><trkpt lat="45.35354661435129" lon="7.643164259874307"><ele>357.0</ele><time>2026-04-19T12:34:04.936Z</time></trkpt><trkpt lat="45.353533482394596" lon="7.643353616867194"><ele>357.0</ele><time>2026-04-19T12:34:05.936Z</time></trkpt><trkpt lat="45.353532884580254" lon="7.643551282630048"><ele>357.0</ele><time>2026-04-19T12:34:06.936Z</time></trkpt><trkpt lat="45.35353467315492" lon="7.643762242056061"><ele>357.0</ele><time>2026-04-19T12:34:07.936Z</time></trkpt><trkpt lat="45.35353406869966" lon="7.6439789141888355"><ele>357.0</ele><time>2026-04-19T12:34:08.936Z</time></trkpt><trkpt lat="45.353544717497336" lon="7.6442047701271045"><ele>356.25</ele><time>2026-04-19T12:34:09.936Z</time></trkpt><trkpt lat="45.353543741609954" lon="7.644407675287731"><ele>355.5</ele><time>2026-04-19T12:34:10.936Z</time></trkpt><trkpt lat="45.353541393168655" lon="7.644601881794563"><ele>354.75</ele><time>2026-04-19T12:34:11.936Z</time></trkpt><trkpt lat="45.35353566367528" lon="7.644799997411831"><ele>354.0</ele><time>2026-04-19T12:34:12.936Z</time></trkpt><trkpt lat="45.35353360178207" lon="7.644999520873253"><ele>353.5</ele><time>2026-04-19T12:34:13.936Z</time></trkpt><trkpt lat="45.35352925755281" lon="7.64519639157531"><ele>353.0</ele><time>2026-04-19T12:34:14.936Z</time></trkpt><trkpt lat="45.35354197972633" lon="7.64539170705807"><ele>352.5</ele><time>2026-04-19T12:34:15.936Z</time></trkpt><trkpt lat="45.3535614518091" lon="7.6455786805563415"><ele>352.0</ele><time>2026-04-19T12:34:16.936Z</time></trkpt><trkpt lat="45.35359815007096" lon="7.645761491136025"><ele>352.0</ele><time>2026-04-19T12:34:17.936Z</time></trkpt><trkpt lat="45.35363323073993" lon="7.645946608382915"><ele>352.0</ele><time>2026-04-19T12:34:18.936Z</time></trkpt><trkpt lat="45.353682791070575" lon="7.646127046239763"><ele>352.0</ele><time>2026-04-19T12:34:19.936Z</time></trkpt><trkpt lat="45.353727102105005" lon="7.646309856583694"><ele>352.0</ele><time>2026-04-19T12:34:20.936Z</time></trkpt><trkpt lat="45.353759332732714" lon="7.646492331802277"><ele>352.0</ele><time>2026-04-19T12:34:21.936Z</time></trkpt><trkpt lat="45.35379264185116" lon="7.646680044092186"><ele>352.0</ele><time>2026-04-19T12:34:22.936Z</time></trkpt><trkpt lat="45.35381753490535" lon="7.646875354242593"><ele>352.0</ele><time>2026-04-19T12:34:23.936Z</time></trkpt><trkpt lat="45.35383499360619" lon="7.647064536449426"><ele>352.0</ele><time>2026-04-19T12:34:24.936Z</time></trkpt><trkpt lat="45.353845331471696" lon="7.647270996065933"><ele>352.0</ele><time>2026-04-19T12:34:25.936Z</time></trkpt><trkpt lat="45.353857071305384" lon="7.647468914972135"><ele>352.0</ele><time>2026-04-19T12:34:26.936Z</time></trkpt><trkpt lat="45.35386760239581" lon="7.647679852565299"><ele>352.0</ele><time>2026-04-19T12:34:27.936Z</time></trkpt><trkpt lat="45.35387721060044" lon="7.647887210945792"><ele>352.0</ele><time>2026-04-19T12:34:28.936Z</time></trkpt><trkpt lat="45.35388613842005" lon="7.648119267168579"><ele>352.0</ele><time>2026-04-19T12:34:29.936Z</time></trkpt><trkpt lat="45.353899806278356" lon="7.648349030492408"><ele>352.0</ele><time>2026-04-19T12:34:30.936Z</time></trkpt><trkpt lat="45.35390234989274" lon="7.6485899462953055"><ele>352.0</ele><time>2026-04-19T12:34:31.936Z</time></trkpt><trkpt lat="45.353871559855854" lon="7.648828742635898"><ele>351.0</ele><time>2026-04-19T12:34:32.936Z</time></trkpt><trkpt lat="45.353837489000895" lon="7.649068506897906"><ele>350.0</ele><time>2026-04-19T12:34:33.936Z</time></trkpt><trkpt lat="45.35379096501853" lon="7.64930535747222"><ele>349.0</ele><time>2026-04-19T12:34:34.936Z</time></trkpt><trkpt lat="45.35375212783112" lon="7.649531510547763"><ele>349.0</ele><time>2026-04-19T12:34:35.936Z</time></trkpt><trkpt lat="45.35370395904973" lon="7.6497797574633495"><ele>349.0</ele><time>2026-04-19T12:34:36.936Z</time></trkpt><trkpt lat="45.35366449014625" lon="7.650001488445535"><ele>349.0</ele><time>2026-04-19T12:34:37.936Z</time></trkpt><trkpt lat="45.35362732203057" lon="7.650213641654091"><ele>349.5</ele><time>2026-04-19T12:34:38.936Z</time></trkpt><trkpt lat="45.353591486820505" lon="7.65041301671909"><ele>350.0</ele><time>2026-04-19T12:34:39.936Z</time></trkpt><trkpt lat="45.35355910972214" lon="7.650608426937226"><ele>350.5</ele><time>2026-04-19T12:34:40.936Z</time></trkpt><trkpt lat="45.3535189710556" lon="7.650798665930018"><ele>351.0</ele><time>2026-04-19T12:34:41.936Z</time></trkpt><trkpt lat="45.353476782960584" lon="7.6509905003414875"><ele>351.0</ele><time>2026-04-19T12:34:42.936Z</time></trkpt><trkpt lat="45.35342964384421" lon="7.651170779730281"><ele>351.0</ele><time>2026-04-19T12:34:43.936Z</time></trkpt><trkpt lat="45.35338385504736" lon="7.651337148624882"><ele>351.0</ele><time>2026-04-19T12:34:44.936Z</time></trkpt><trkpt lat="45.353330442038974" lon="7.651510762859668"><ele>351.0</ele><time>2026-04-19T12:34:45.936Z</time></trkpt><trkpt lat="45.35328703759304" lon="7.65172337710605"><ele>351.0</ele><time>2026-04-19T12:34:46.936Z</time></trkpt><trkpt lat="45.35322950118635" lon="7.65194850545584"><ele>351.0</ele><time>2026-04-19T12:34:47.936Z</time></trkpt><trkpt lat="45.353175656994075" lon="7.6521584235921445"><ele>351.0</ele><time>2026-04-19T12:34:48.936Z</time></trkpt><trkpt lat="45.353149483111594" lon="7.652370718466952"><ele>351.0</ele><time>2026-04-19T12:34:49.936Z</time></trkpt><trkpt lat="45.35314178350963" lon="7.652594236640616"><ele>351.0</ele><time>2026-04-19T12:34:50.936Z</time></trkpt><trkpt lat="45.353157820554955" lon="7.652829994655152"><ele>351.0</ele><time>2026-04-19T12:34:51.936Z</time></trkpt><trkpt lat="45.35318090339706" lon="7.653056423759869"><ele>351.0</ele><time>2026-04-19T12:34:52.936Z</time></trkpt><trkpt lat="45.35319785425719" lon="7.653269807502992"><ele>351.0</ele><time>2026-04-19T12:34:53.936Z</time></trkpt><trkpt lat="45.353203951290205" lon="7.653468641869907"><ele>351.0</ele><time>2026-04-19T12:34:54.936Z</time></trkpt><trkpt lat="45.35319467322677" lon="7.653650351333777"><ele>351.0</ele><time>2026-04-19T12:34:55.936Z</time></trkpt><trkpt lat="45.35316562905685" lon="7.653844513097158"><ele>350.6666666666667</ele><time>2026-04-19T12:34:56.936Z</time></trkpt><trkpt lat="45.353123452826075" lon="7.654046173699198"><ele>350.33333333333337</ele><time>2026-04-19T12:34:57.936Z</time></trkpt><trkpt lat="45.35305670637352" lon="7.654256680086004"><ele>350.0</ele><time>2026-04-19T12:34:58.936Z</time></trkpt><trkpt lat="45.35297439243423" lon="7.654472280989751"><ele>349.6666666666667</ele><time>2026-04-19T12:34:59.936Z</time></trkpt><trkpt lat="45.352909283040454" lon="7.654706653836873"><ele>349.3333333333333</ele><time>2026-04-19T12:35:00.936Z</time></trkpt><trkpt lat="45.35283371360602" lon="7.654933943101458"><ele>349.0</ele><time>2026-04-19T12:35:01.936Z</time></trkpt><trkpt lat="45.35276240095384" lon="7.6551660707392974"><ele>348.66666666666663</ele><time>2026-04-19T12:35:02.936Z</time></trkpt><trkpt lat="45.352695843285396" lon="7.6553958831406295"><ele>348.3333333333333</ele><time>2026-04-19T12:35:03.936Z</time></trkpt><trkpt lat="45.35263134712924" lon="7.655621775817864"><ele>348.0</ele><time>2026-04-19T12:35:04.936Z</time></trkpt><trkpt lat="45.35257278244856" lon="7.655831723334968"><ele>348.0</ele><time>2026-04-19T12:35:05.936Z</time></trkpt><trkpt lat="45.35251637415193" lon="7.656025829245196"><ele>348.0</ele><time>2026-04-19T12:35:06.936Z</time></trkpt><trkpt lat="45.352456598787" lon="7.656202743689481"><ele>348.0</ele><time>2026-04-19T12:35:07.936Z</time></trkpt><trkpt lat="45.35239674045873" lon="7.656357330357583"><ele>348.0</ele><time>2026-04-19T12:35:08.936Z</time></trkpt><trkpt lat="45.352336727526975" lon="7.656496500165186"><ele>348.0</ele><time>2026-04-19T12:35:09.936Z</time></trkpt><trkpt lat="45.35226559629567" lon="7.6566379655178185"><ele>348.0</ele><time>2026-04-19T12:35:10.936Z</time></trkpt><trkpt lat="45.35222484389455" lon="7.656759951309753"><ele>348.0</ele><time>2026-04-19T12:35:11.936Z</time></trkpt><trkpt lat="45.35217290789461" lon="7.656861508749604"><ele>348.0</ele><time>2026-04-19T12:35:12.936Z</time></trkpt><trkpt lat="45.35213357044874" lon="7.656962075681176"><ele>348.0</ele><time>2026-04-19T12:35:13.936Z</time></trkpt><trkpt lat="45.35209418355894" lon="7.657069546268025"><ele>348.0</ele><time>2026-04-19T12:35:14.936Z</time></trkpt><trkpt lat="45.3520460578289" lon="7.6571764583987525"><ele>348.0</ele><time>2026-04-19T12:35:15.936Z</time></trkpt><trkpt lat="45.35199854252175" lon="7.65726369123944"><ele>348.0</ele><time>2026-04-19T12:35:16.936Z</time></trkpt><trkpt lat="45.35197134978786" lon="7.657353303267079"><ele>348.0</ele><time>2026-04-19T12:35:17.936Z</time></trkpt><trkpt lat="45.35197845317956" lon="7.657451199032933"><ele>348.0</ele><time>2026-04-19T12:35:18.936Z</time></trkpt><trkpt lat="45.35201074801455" lon="7.657531451104622"><ele>348.0</ele><time>2026-04-19T12:35:19.936Z</time></trkpt><trkpt lat="45.35205868428695" lon="7.657590632883924"><ele>348.0</ele><time>2026-04-19T12:35:20.936Z</time></trkpt><trkpt lat="45.352134057698805" lon="7.657625149170793"><ele>348.0</ele><time>2026-04-19T12:35:21.936Z</time></trkpt><trkpt lat="45.35220611987572" lon="7.657605833089562"><ele>348.0</ele><time>2026-04-19T12:35:22.936Z</time></trkpt><trkpt lat="45.352278293052386" lon="7.657553947787969"><ele>348.0</ele><time>2026-04-19T12:35:23.936Z</time></trkpt><trkpt lat="45.35236467266238" lon="7.6574924013532435"><ele>348.0</ele><time>2026-04-19T12:35:24.936Z</time></trkpt><trkpt lat="45.35247163422918" lon="7.65745792228365"><ele>348.0</ele><time>2026-04-19T12:35:25.936Z</time></trkpt><trkpt lat="45.35259709661311" lon="7.657465180246417"><ele>348.3333333333333</ele><time>2026-04-19T12:35:26.936Z</time></trkpt><trkpt lat="45.352744015746396" lon="7.657480729561764"><ele>348.66666666666663</ele><time>2026-04-19T12:35:27.936Z</time></trkpt><trkpt lat="45.352902232414834" lon="7.657502789151603"><ele>349.0</ele><time>2026-04-19T12:35:28.936Z</time></trkpt><trkpt lat="45.35307896537685" lon="7.657525035627439"><ele>349.3333333333333</ele><time>2026-04-19T12:35:29.936Z</time></trkpt><trkpt lat="45.35325025676049" lon="7.657545037095498"><ele>349.6666666666667</ele><time>2026-04-19T12:35:30.936Z</time></trkpt><trkpt lat="45.35342395204221" lon="7.6575650518619165"><ele>350.0</ele><time>2026-04-19T12:35:31.936Z</time></trkpt><trkpt lat="45.35360760970976" lon="7.657594725811426"><ele>350.0</ele><time>2026-04-19T12:35:32.936Z</time></trkpt><trkpt lat="45.3538290534908" lon="7.657616163830671"><ele>350.0</ele><time>2026-04-19T12:35:33.936Z</time></trkpt><trkpt lat="45.35402059713719" lon="7.657660945487832"><ele>350.0</ele><time>2026-04-19T12:35:34.936Z</time></trkpt><trkpt lat="45.354223516779314" lon="7.657691225367205"><ele>350.6666666666667</ele><time>2026-04-19T12:35:35.936Z</time></trkpt><trkpt lat="45.35442847822434" lon="7.657719247299108"><ele>351.3333333333333</ele><time>2026-04-19T12:35:36.936Z</time></trkpt><trkpt lat="45.35463618972844" lon="7.657755016584485"><ele>352.0</ele><time>2026-04-19T12:35:37.936Z</time></trkpt><trkpt lat="45.35484679688612" lon="7.657789016646698"><ele>352.0</ele><time>2026-04-19T12:35:38.936Z</time></trkpt><trkpt lat="45.355051014481134" lon="7.657826685677157"><ele>352.0</ele><time>2026-04-19T12:35:39.936Z</time></trkpt><trkpt lat="45.35525586859376" lon="7.657861994531014"><ele>352.0</ele><time>2026-04-19T12:35:40.936Z</time></trkpt><trkpt lat="45.355469035662665" lon="7.657894407495732"><ele>352.0</ele><time>2026-04-19T12:35:41.936Z</time></trkpt><trkpt lat="45.3556875386988" lon="7.657928336968377"><ele>352.0</ele><time>2026-04-19T12:35:42.936Z</time></trkpt><trkpt lat="45.355900743554976" lon="7.65796256502431"><ele>352.0</ele><time>2026-04-19T12:35:43.936Z</time></trkpt><trkpt lat="45.356113952653615" lon="7.657998465460641"><ele>352.0</ele><time>2026-04-19T12:35:44.936Z</time></trkpt><trkpt lat="45.35632178299318" lon="7.658030431231393"><ele>352.0</ele><time>2026-04-19T12:35:45.935Z</time></trkpt><trkpt lat="45.35652751210238" lon="7.658061853473126"><ele>352.0</ele><time>2026-04-19T12:35:46.933Z</time></trkpt><trkpt lat="45.35673158239742" lon="7.658091018205794"><ele>352.66666666666663</ele><time>2026-04-19T12:35:47.931Z</time></trkpt><trkpt lat="45.35692971838995" lon="7.658124217242411"><ele>353.3333333333333</ele><time>2026-04-19T12:35:48.929Z</time></trkpt><trkpt lat="45.35713188722505" lon="7.658143666754425"><ele>354.0</ele><time>2026-04-19T12:35:49.927Z</time></trkpt><trkpt lat="45.357321902322376" lon="7.658174010790576"><ele>355.0</ele><time>2026-04-19T12:35:50.925Z</time></trkpt><trkpt lat="45.357511757416425" lon="7.658210649963024"><ele>356.0</ele><time>2026-04-19T12:35:51.923Z</time></trkpt><trkpt lat="45.3577017872301" lon="7.658241729372552"><ele>357.0</ele><time>2026-04-19T12:35:52.921Z</time></trkpt><trkpt lat="45.35789967936239" lon="7.658271096128203"><ele>357.3333333333333</ele><time>2026-04-19T12:35:53.92Z</time></trkpt><trkpt lat="45.358088658658524" lon="7.658304769961926"><ele>357.66666666666663</ele><time>2026-04-19T12:35:54.919Z</time></trkpt><trkpt lat="45.35828790652469" lon="7.658334966222174"><ele>358.0</ele><time>2026-04-19T12:35:55.917Z</time></trkpt><trkpt lat="45.35848096217849" lon="7.658369018966256"><ele>358.0</ele><time>2026-04-19T12:35:56.916Z</time></trkpt><trkpt lat="45.35868968470532" lon="7.658392952067264"><ele>358.0</ele><time>2026-04-19T12:35:57.915Z</time></trkpt><trkpt lat="45.35888592241239" lon="7.658443673147866"><ele>358.0</ele><time>2026-04-19T12:35:58.912Z</time></trkpt><trkpt lat="45.359068863638385" lon="7.658456755306656"><ele>359.0</ele><time>2026-04-19T12:35:59.911Z</time></trkpt><trkpt lat="45.35924081710969" lon="7.658494452678351"><ele>360.0</ele><time>2026-04-19T12:36:00.91Z</time></trkpt><trkpt lat="45.359404180567296" lon="7.65851775914701"><ele>361.0</ele><time>2026-04-19T12:36:01.909Z</time></trkpt><trkpt lat="45.35955362812714" lon="7.658546948880076"><ele>361.0</ele><time>2026-04-19T12:36:02.909Z</time></trkpt><trkpt lat="45.35969643734617" lon="7.658580319737"><ele>361.0</ele><time>2026-04-19T12:36:03.908Z</time></trkpt><trkpt lat="45.359829941718004" lon="7.6585978604135105"><ele>361.0</ele><time>2026-04-19T12:36:04.907Z</time></trkpt><trkpt lat="45.3599467489492" lon="7.658634238091547"><ele>361.0</ele><time>2026-04-19T12:36:05.906Z</time></trkpt><trkpt lat="45.36005193014748" lon="7.658685936934676"><ele>361.4</ele><time>2026-04-19T12:36:06.905Z</time></trkpt><trkpt lat="45.36014986253812" lon="7.658750378986961"><ele>361.8</ele><time>2026-04-19T12:36:07.905Z</time></trkpt><trkpt lat="45.36023564100419" lon="7.658820154794674"><ele>362.2</ele><time>2026-04-19T12:36:08.904Z</time></trkpt><trkpt lat="45.3603143844995" lon="7.658874104273114"><ele>362.59999999999997</ele><time>2026-04-19T12:36:09.903Z</time></trkpt><trkpt lat="45.36038809373045" lon="7.6589077816975095"><ele>363.0</ele><time>2026-04-19T12:36:10.903Z</time></trkpt><trkpt lat="45.3604731717332" lon="7.658879149190725"><ele>363.5</ele><time>2026-04-19T12:36:11.903Z</time></trkpt><trkpt lat="45.36056338216881" lon="7.658813154489363"><ele>364.0</ele><time>2026-04-19T12:36:12.902Z</time></trkpt><trkpt lat="45.36066975142893" lon="7.6587644666541745"><ele>364.5</ele><time>2026-04-19T12:36:13.902Z</time></trkpt><trkpt lat="45.360793801478366" lon="7.658756792531798"><ele>365.0</ele><time>2026-04-19T12:36:14.901Z</time></trkpt><trkpt lat="45.36091519635941" lon="7.658771278765142"><ele>365.0</ele><time>2026-04-19T12:36:15.901Z</time></trkpt><trkpt lat="45.361071443521695" lon="7.658791860600065"><ele>365.0</ele><time>2026-04-19T12:36:16.901Z</time></trkpt><trkpt lat="45.36122955360805" lon="7.658814706532115"><ele>365.0</ele><time>2026-04-19T12:36:17.9Z</time></trkpt><trkpt lat="45.3613921764161" lon="7.658837205494602"><ele>364.6666666666667</ele><time>2026-04-19T12:36:18.9Z</time></trkpt><trkpt lat="45.36155359416852" lon="7.658868064486174"><ele>364.3333333333333</ele><time>2026-04-19T12:36:19.9Z</time></trkpt><trkpt lat="45.36172682310518" lon="7.658890731744117"><ele>364.0</ele><time>2026-04-19T12:36:20.899Z</time></trkpt><trkpt lat="45.36190958724484" lon="7.658914783782085"><ele>364.0</ele><time>2026-04-19T12:36:21.899Z</time></trkpt><trkpt lat="45.36208929813315" lon="7.658944477192934"><ele>364.0</ele><time>2026-04-19T12:36:22.899Z</time></trkpt><trkpt lat="45.362273816256554" lon="7.65897618931105"><ele>364.0</ele><time>2026-04-19T12:36:23.899Z</time></trkpt><trkpt lat="45.36245991749845" lon="7.659004038584061"><ele>364.66666666666663</ele><time>2026-04-19T12:36:24.898Z</time></trkpt><trkpt lat="45.36265221896509" lon="7.659034620343487"><ele>365.3333333333333</ele><time>2026-04-19T12:36:25.898Z</time></trkpt><trkpt lat="45.36285178891575" lon="7.659061331668648"><ele>366.0</ele><time>2026-04-19T12:36:26.898Z</time></trkpt><trkpt lat="45.363054829788695" lon="7.659088369118012"><ele>367.3333333333333</ele><time>2026-04-19T12:36:27.898Z</time></trkpt><trkpt lat="45.363251431286315" lon="7.659117102275925"><ele>368.66666666666663</ele><time>2026-04-19T12:36:28.898Z</time></trkpt><trkpt lat="45.36344669596637" lon="7.6591670066309"><ele>370.0</ele><time>2026-04-19T12:36:29.898Z</time></trkpt><trkpt lat="45.36364632127722" lon="7.659216326248223"><ele>370.0</ele><time>2026-04-19T12:36:30.897Z</time></trkpt><trkpt lat="45.36385267153389" lon="7.659250996712272"><ele>370.0</ele><time>2026-04-19T12:36:31.897Z</time></trkpt><trkpt lat="45.36403934386736" lon="7.659282615488493"><ele>370.0</ele><time>2026-04-19T12:36:32.897Z</time></trkpt><trkpt lat="45.36423449639801" lon="7.659315746364516"><ele>370.66666666666663</ele><time>2026-04-19T12:36:33.897Z</time></trkpt><trkpt lat="45.36443869657135" lon="7.659350305668719"><ele>371.3333333333333</ele><time>2026-04-19T12:36:34.897Z</time></trkpt><trkpt lat="45.36463868278562" lon="7.659381344823615"><ele>372.0</ele><time>2026-04-19T12:36:35.897Z</time></trkpt><trkpt lat="45.36482301821766" lon="7.659409954888423"><ele>372.3333333333333</ele><time>2026-04-19T12:36:36.897Z</time></trkpt><trkpt lat="45.3649838170583" lon="7.659434911944025"><ele>372.66666666666663</ele><time>2026-04-19T12:36:37.897Z</time></trkpt><trkpt lat="45.3651384599851" lon="7.65943605712212"><ele>373.0</ele><time>2026-04-19T12:36:38.896Z</time></trkpt><trkpt lat="45.36527806889415" lon="7.659465690458139"><ele>373.25</ele><time>2026-04-19T12:36:39.896Z</time></trkpt><trkpt lat="45.365405580291466" lon="7.659486218866115"><ele>373.5</ele><time>2026-04-19T12:36:40.896Z</time></trkpt><trkpt lat="45.36553482365346" lon="7.659506676338163"><ele>373.75</ele><time>2026-04-19T12:36:41.896Z</time></trkpt><trkpt lat="45.365659340449916" lon="7.659538459203734"><ele>374.0</ele><time>2026-04-19T12:36:42.896Z</time></trkpt><trkpt lat="45.365789736545274" lon="7.659562575664213"><ele>374.0</ele><time>2026-04-19T12:36:43.896Z</time></trkpt><trkpt lat="45.3659311739611" lon="7.659585517256218"><ele>374.0</ele><time>2026-04-19T12:36:44.896Z</time></trkpt><trkpt lat="45.36608121596418" lon="7.659601569081862"><ele>374.0</ele><time>2026-04-19T12:36:45.896Z</time></trkpt><trkpt lat="45.36622805302361" lon="7.65962801110047"><ele>374.0</ele><time>2026-04-19T12:36:46.896Z</time></trkpt><trkpt lat="45.36636976343205" lon="7.659651540031363"><ele>374.0</ele><time>2026-04-19T12:36:47.896Z</time></trkpt><trkpt lat="45.36650841512885" lon="7.659665271064248"><ele>374.0</ele><time>2026-04-19T12:36:48.896Z</time></trkpt><trkpt lat="45.36665530093905" lon="7.659687664453581"><ele>374.0</ele><time>2026-04-19T12:36:49.896Z</time></trkpt><trkpt lat="45.36680513082124" lon="7.659715124880793"><ele>374.0</ele><time>2026-04-19T12:36:50.896Z</time></trkpt><trkpt lat="45.3669527706818" lon="7.659734442769634"><ele>374.0</ele><time>2026-04-19T12:36:51.896Z</time></trkpt><trkpt lat="45.36709199569008" lon="7.659761223721827"><ele>374.0</ele><time>2026-04-19T12:36:52.896Z</time></trkpt><trkpt lat="45.36722483225261" lon="7.659774321534535"><ele>374.0</ele><time>2026-04-19T12:36:53.896Z</time></trkpt><trkpt lat="45.3673525953064" lon="7.659792672996636"><ele>374.0</ele><time>2026-04-19T12:36:54.896Z</time></trkpt><trkpt lat="45.36746880258026" lon="7.659814963249313"><ele>374.33333333333337</ele><time>2026-04-19T12:36:55.895Z</time></trkpt><trkpt lat="45.36756967823687" lon="7.659827369220293"><ele>374.6666666666667</ele><time>2026-04-19T12:36:56.895Z</time></trkpt><trkpt lat="45.36764642566207" lon="7.65983938079592"><ele>375.0</ele><time>2026-04-19T12:36:57.895Z</time></trkpt><trkpt lat="45.367717448159105" lon="7.659845836996154"><ele>375.3333333333333</ele><time>2026-04-19T12:36:58.895Z</time></trkpt><trkpt lat="45.36779270340703" lon="7.659862319306309"><ele>375.66666666666663</ele><time>2026-04-19T12:36:59.895Z</time></trkpt><trkpt lat="45.367880314686786" lon="7.659884682530482"><ele>376.0</ele><time>2026-04-19T12:37:00.895Z</time></trkpt><trkpt lat="45.36797368517886" lon="7.659892703591928"><ele>376.6</ele><time>2026-04-19T12:37:01.895Z</time></trkpt><trkpt lat="45.368059861301006" lon="7.65991553048197"><ele>377.20000000000005</ele><time>2026-04-19T12:37:02.895Z</time></trkpt><trkpt lat="45.36816115900111" lon="7.6599258831319625"><ele>377.79999999999995</ele><time>2026-04-19T12:37:03.895Z</time></trkpt><trkpt lat="45.36825914672196" lon="7.659944633321746"><ele>378.4</ele><time>2026-04-19T12:37:04.895Z</time></trkpt><trkpt lat="45.368364840196016" lon="7.6599542422467755"><ele>379.0</ele><time>2026-04-19T12:37:05.895Z</time></trkpt><trkpt lat="45.36847320947375" lon="7.659981909373228"><ele>379.0</ele><time>2026-04-19T12:37:06.895Z</time></trkpt><trkpt lat="45.36859748081307" lon="7.6600077405152724"><ele>379.0</ele><time>2026-04-19T12:37:07.895Z</time></trkpt><trkpt lat="45.368709305022854" lon="7.6600158340941"><ele>379.0</ele><time>2026-04-19T12:37:08.895Z</time></trkpt><trkpt lat="45.36881443647179" lon="7.66003434809256"><ele>379.0</ele><time>2026-04-19T12:37:09.895Z</time></trkpt><trkpt lat="45.368930314384336" lon="7.660052074772567"><ele>378.66666666666663</ele><time>2026-04-19T12:37:10.895Z</time></trkpt><trkpt lat="45.36902754235975" lon="7.660065930286887"><ele>378.3333333333333</ele><time>2026-04-19T12:37:11.895Z</time></trkpt><trkpt lat="45.369125252730825" lon="7.6600992007403645"><ele>378.0</ele><time>2026-04-19T12:37:12.895Z</time></trkpt><trkpt lat="45.36921115065866" lon="7.660118372513315"><ele>377.6666666666667</ele><time>2026-04-19T12:37:13.895Z</time></trkpt><trkpt lat="45.36929588792834" lon="7.660122535320688"><ele>377.33333333333337</ele><time>2026-04-19T12:37:14.895Z</time></trkpt><trkpt lat="45.36936328895039" lon="7.6601478923545185"><ele>377.0</ele><time>2026-04-19T12:37:15.895Z</time></trkpt><trkpt lat="45.369466937145766" lon="7.660168233593891"><ele>377.0</ele><time>2026-04-19T12:37:17.895Z</time></trkpt><trkpt lat="45.369534772333914" lon="7.659911066095321"><ele>377.0</ele><time>2026-04-19T12:37:18.895Z</time></trkpt><trkpt lat="45.369571850553854" lon="7.659811668614606"><ele>377.0</ele><time>2026-04-19T12:37:19.895Z</time></trkpt><trkpt lat="45.369601595798535" lon="7.6596989561502"><ele>377.0</ele><time>2026-04-19T12:37:20.895Z</time></trkpt><trkpt lat="45.36963544924367" lon="7.6595972377686365"><ele>377.0</ele><time>2026-04-19T12:37:21.895Z</time></trkpt><trkpt lat="45.3696737206012" lon="7.659488403972468"><ele>377.5</ele><time>2026-04-19T12:37:22.895Z</time></trkpt><trkpt lat="45.369707053768096" lon="7.6593967639151375"><ele>378.0</ele><time>2026-04-19T12:37:23.895Z</time></trkpt><trkpt lat="45.36977186295477" lon="7.659247599185949"><ele>378.5</ele><time>2026-04-19T12:37:25.895Z</time></trkpt><trkpt lat="45.3698226274451" lon="7.659188186356624"><ele>379.0</ele><time>2026-04-19T12:37:29.895Z</time></trkpt><trkpt lat="45.36989002279059" lon="7.659271057230314"><ele>379.5</ele><time>2026-04-19T12:37:32.895Z</time></trkpt><trkpt lat="45.36991219318014" lon="7.659381832322637"><ele>380.0</ele><time>2026-04-19T12:37:33.895Z</time></trkpt><trkpt lat="45.36995712749362" lon="7.659479465582229"><ele>380.1666666666667</ele><time>2026-04-19T12:37:34.895Z</time></trkpt><trkpt lat="45.36998367648689" lon="7.659577678054262"><ele>380.33333333333337</ele><time>2026-04-19T12:37:35.895Z</time></trkpt><trkpt lat="45.37001580587204" lon="7.659690098433461"><ele>380.5</ele><time>2026-04-19T12:37:36.895Z</time></trkpt><trkpt lat="45.37003290849074" lon="7.659788801383571"><ele>380.6666666666667</ele><time>2026-04-19T12:37:37.895Z</time></trkpt><trkpt lat="45.37005464501696" lon="7.659891302126624"><ele>380.8333333333333</ele><time>2026-04-19T12:37:38.895Z</time></trkpt><trkpt lat="45.37008920703933" lon="7.660005400093615"><ele>381.0</ele><time>2026-04-19T12:37:39.895Z</time></trkpt><trkpt lat="45.37011353301484" lon="7.660124319048524"><ele>381.0</ele><time>2026-04-19T12:37:40.895Z</time></trkpt><trkpt lat="45.370114966795434" lon="7.660222356262255"><ele>381.0</ele><time>2026-04-19T12:37:41.895Z</time></trkpt><trkpt lat="45.37012313560408" lon="7.660317113352096"><ele>381.0</ele><time>2026-04-19T12:37:42.895Z</time></trkpt><trkpt lat="45.37011555902378" lon="7.660493788100157"><ele>381.0</ele><time>2026-04-19T12:37:44.895Z</time></trkpt><trkpt lat="45.370108596673795" lon="7.66065616410511"><ele>381.0</ele><time>2026-04-19T12:37:46.895Z</time></trkpt><trkpt lat="45.37009419917499" lon="7.660830839161835"><ele>380.8</ele><time>2026-04-19T12:37:48.895Z</time></trkpt><trkpt lat="45.37008226450927" lon="7.660983148674007"><ele>380.6</ele><time>2026-04-19T12:37:50.895Z</time></trkpt><trkpt lat="45.370088444236245" lon="7.661160810117411"><ele>380.4</ele><time>2026-04-19T12:37:52.895Z</time></trkpt><trkpt lat="45.370115759513475" lon="7.661246184252778"><ele>380.2</ele><time>2026-04-19T12:37:53.895Z</time></trkpt><trkpt lat="45.37015928588457" lon="7.661368824134525"><ele>380.0</ele><time>2026-04-19T12:37:55.894Z</time></trkpt><trkpt lat="45.37023080270243" lon="7.661472662406125"><ele>380.0</ele><time>2026-04-19T12:37:58.894Z</time></trkpt><trkpt lat="45.37030626043939" lon="7.661594241239695"><ele>380.0</ele><time>2026-04-19T12:38:00.894Z</time></trkpt><trkpt lat="45.37034513019162" lon="7.661668249944974"><ele>380.0</ele><time>2026-04-19T12:38:01.894Z</time></trkpt><trkpt lat="45.370385810380725" lon="7.661750256896017"><ele>380.0</ele><time>2026-04-19T12:38:02.894Z</time></trkpt><trkpt lat="45.37043422310324" lon="7.661847083087234"><ele>380.0</ele><time>2026-04-19T12:38:03.894Z</time></trkpt><trkpt lat="45.37048835873677" lon="7.661955563862632"><ele>380.0</ele><time>2026-04-19T12:38:04.892Z</time></trkpt><trkpt lat="45.37054616379562" lon="7.662084943320274"><ele>380.0</ele><time>2026-04-19T12:38:05.892Z</time></trkpt><trkpt lat="45.37060050308251" lon="7.6622237696820985"><ele>380.0</ele><time>2026-04-19T12:38:06.892Z</time></trkpt><trkpt lat="45.37063891252462" lon="7.662363636210942"><ele>380.0</ele><time>2026-04-19T12:38:07.893Z</time></trkpt><trkpt lat="45.37068760148793" lon="7.662491046474626"><ele>380.0</ele><time>2026-04-19T12:38:08.892Z</time></trkpt><trkpt lat="45.37072795450746" lon="7.662612655926566"><ele>380.0</ele><time>2026-04-19T12:38:09.892Z</time></trkpt><trkpt lat="45.370767699492966" lon="7.662730962959751"><ele>379.6</ele><time>2026-04-19T12:38:10.892Z</time></trkpt><trkpt lat="45.370815137957656" lon="7.662842887445603"><ele>379.2</ele><time>2026-04-19T12:38:11.892Z</time></trkpt><trkpt lat="45.370852339654775" lon="7.662960691688184"><ele>378.79999999999995</ele><time>2026-04-19T12:38:12.892Z</time></trkpt><trkpt lat="45.370900140293045" lon="7.66309009033421"><ele>378.4</ele><time>2026-04-19T12:38:13.892Z</time></trkpt><trkpt lat="45.37094660421182" lon="7.663229043327799"><ele>378.0</ele><time>2026-04-19T12:38:14.892Z</time></trkpt><trkpt lat="45.37099664180124" lon="7.663367181410917"><ele>378.0</ele><time>2026-04-19T12:38:15.892Z</time></trkpt><trkpt lat="45.37104736671825" lon="7.663508054766201"><ele>378.0</ele><time>2026-04-19T12:38:16.892Z</time></trkpt><trkpt lat="45.371118845984995" lon="7.663638752971437"><ele>378.0</ele><time>2026-04-19T12:38:17.892Z</time></trkpt><trkpt lat="45.37118893492786" lon="7.663779025591455"><ele>378.0</ele><time>2026-04-19T12:38:18.892Z</time></trkpt><trkpt lat="45.37126544076555" lon="7.663931840108291"><ele>378.25</ele><time>2026-04-19T12:38:19.892Z</time></trkpt><trkpt lat="45.37134441245975" lon="7.664085308213811"><ele>378.5</ele><time>2026-04-19T12:38:20.892Z</time></trkpt><trkpt lat="45.371431285229214" lon="7.664237508940908"><ele>378.75</ele><time>2026-04-19T12:38:21.892Z</time></trkpt><trkpt lat="45.371521588735206" lon="7.664381175877424"><ele>379.0</ele><time>2026-04-19T12:38:22.892Z</time></trkpt><trkpt lat="45.37161207041169" lon="7.664516091031293"><ele>378.4</ele><time>2026-04-19T12:38:23.892Z</time></trkpt><trkpt lat="45.37170081864964" lon="7.664647295210429"><ele>377.79999999999995</ele><time>2026-04-19T12:38:24.892Z</time></trkpt><trkpt lat="45.371780324871786" lon="7.664765017064981"><ele>377.20000000000005</ele><time>2026-04-19T12:38:25.892Z</time></trkpt><trkpt lat="45.371850684614095" lon="7.664867224186458"><ele>376.6</ele><time>2026-04-19T12:38:26.892Z</time></trkpt><trkpt lat="45.371905370242786" lon="7.6649681235176885"><ele>376.0</ele><time>2026-04-19T12:38:27.892Z</time></trkpt><trkpt lat="45.37195552288348" lon="7.665042822778894"><ele>376.0</ele><time>2026-04-19T12:38:28.892Z</time></trkpt><trkpt lat="45.37201439351902" lon="7.665091278901833"><ele>376.0</ele><time>2026-04-19T12:38:29.892Z</time></trkpt><trkpt lat="45.372065219173386" lon="7.665152774108971"><ele>376.0</ele><time>2026-04-19T12:38:30.892Z</time></trkpt><trkpt lat="45.37212687274881" lon="7.665221794563866"><ele>376.0</ele><time>2026-04-19T12:38:31.892Z</time></trkpt><trkpt lat="45.37218385659159" lon="7.665323654331838"><ele>376.0</ele><time>2026-04-19T12:38:32.892Z</time></trkpt><trkpt lat="45.37226013331172" lon="7.665399604869687"><ele>376.0</ele><time>2026-04-19T12:38:33.892Z</time></trkpt><trkpt lat="45.37233905531621" lon="7.66548511635601"><ele>376.6</ele><time>2026-04-19T12:38:34.892Z</time></trkpt><trkpt lat="45.37241576328723" lon="7.665569357563113"><ele>377.20000000000005</ele><time>2026-04-19T12:38:35.892Z</time></trkpt><trkpt lat="45.37249420706021" lon="7.665653580790146"><ele>377.79999999999995</ele><time>2026-04-19T12:38:36.892Z</time></trkpt><trkpt lat="45.37257050748777" lon="7.665735571629967"><ele>378.4</ele><time>2026-04-19T12:38:37.892Z</time></trkpt><trkpt lat="45.37264955755529" lon="7.665825406545293"><ele>379.0</ele><time>2026-04-19T12:38:38.892Z</time></trkpt><trkpt lat="45.37272118761652" lon="7.665927140328889"><ele>379.0</ele><time>2026-04-19T12:38:39.892Z</time></trkpt><trkpt lat="45.37279309726338" lon="7.666039374489538"><ele>379.0</ele><time>2026-04-19T12:38:40.892Z</time></trkpt><trkpt lat="45.37286501921951" lon="7.666157517590022"><ele>379.0</ele><time>2026-04-19T12:38:41.892Z</time></trkpt><trkpt lat="45.372942237870774" lon="7.666278097804737"><ele>379.0</ele><time>2026-04-19T12:38:42.892Z</time></trkpt><trkpt lat="45.37303081033932" lon="7.6664067477648885"><ele>378.75</ele><time>2026-04-19T12:38:43.892Z</time></trkpt><trkpt lat="45.373122342078894" lon="7.6665341280023585"><ele>378.5</ele><time>2026-04-19T12:38:44.892Z</time></trkpt><trkpt lat="45.37322125849706" lon="7.666676522192414"><ele>378.25</ele><time>2026-04-19T12:38:45.892Z</time></trkpt><trkpt lat="45.37332710039598" lon="7.666824137469239"><ele>378.0</ele><time>2026-04-19T12:38:46.892Z</time></trkpt><trkpt lat="45.373424048406804" lon="7.666979844977003"><ele>378.0</ele><time>2026-04-19T12:38:47.892Z</time></trkpt><trkpt lat="45.37352845521738" lon="7.667137260827806"><ele>378.0</ele><time>2026-04-19T12:38:48.892Z</time></trkpt><trkpt lat="45.37362919785253" lon="7.667301724550975"><ele>378.0</ele><time>2026-04-19T12:38:49.892Z</time></trkpt><trkpt lat="45.37372544846755" lon="7.667457953025734"><ele>378.0</ele><time>2026-04-19T12:38:50.892Z</time></trkpt><trkpt lat="45.37381741164911" lon="7.66760866300205"><ele>378.0</ele><time>2026-04-19T12:38:51.892Z</time></trkpt><trkpt lat="45.37390333173577" lon="7.667745571700377"><ele>378.0</ele><time>2026-04-19T12:38:52.892Z</time></trkpt><trkpt lat="45.373991550394564" lon="7.667879692158904"><ele>378.0</ele><time>2026-04-19T12:38:53.892Z</time></trkpt><trkpt lat="45.374084188313944" lon="7.6679942934345515"><ele>378.0</ele><time>2026-04-19T12:38:54.892Z</time></trkpt><trkpt lat="45.374173790997276" lon="7.668108454457499"><ele>378.0</ele><time>2026-04-19T12:38:55.892Z</time></trkpt><trkpt lat="45.37425067518123" lon="7.668219111176382"><ele>378.0</ele><time>2026-04-19T12:38:56.892Z</time></trkpt><trkpt lat="45.374330123640426" lon="7.668327433430184"><ele>378.0</ele><time>2026-04-19T12:38:57.892Z</time></trkpt><trkpt lat="45.374406364447886" lon="7.668433331143485"><ele>378.0</ele><time>2026-04-19T12:38:58.892Z</time></trkpt><trkpt lat="45.37447179815472" lon="7.668528670529679"><ele>377.4</ele><time>2026-04-19T12:38:59.892Z</time></trkpt><trkpt lat="45.37453538702701" lon="7.6686316069437535"><ele>376.79999999999995</ele><time>2026-04-19T12:39:00.892Z</time></trkpt><trkpt lat="45.374595125389035" lon="7.668729641174323"><ele>376.2</ele><time>2026-04-19T12:39:01.892Z</time></trkpt><trkpt lat="45.37467523261389" lon="7.668812277149991"><ele>375.6</ele><time>2026-04-19T12:39:02.891Z</time></trkpt><trkpt lat="45.374742997747326" lon="7.668900641800195"><ele>375.0</ele><time>2026-04-19T12:39:03.891Z</time></trkpt><trkpt lat="45.374796273086226" lon="7.668999382007038"><ele>374.4</ele><time>2026-04-19T12:39:04.891Z</time></trkpt><trkpt lat="45.37482263732332" lon="7.669084932635329"><ele>373.8</ele><time>2026-04-19T12:39:05.891Z</time></trkpt><trkpt lat="45.374857791327436" lon="7.669218268471506"><ele>373.20000000000005</ele><time>2026-04-19T12:39:07.891Z</time></trkpt><trkpt lat="45.37502444802398" lon="7.669135633623253"><ele>372.6</ele><time>2026-04-19T12:39:10.891Z</time></trkpt><trkpt lat="45.3750923511857" lon="7.669061961287511"><ele>372.0</ele><time>2026-04-19T12:39:11.891Z</time></trkpt><trkpt lat="45.37517321250599" lon="7.668986135122343"><ele>372.0</ele><time>2026-04-19T12:39:12.891Z</time></trkpt><trkpt lat="45.375255958349996" lon="7.668905024019113"><ele>372.0</ele><time>2026-04-19T12:39:13.891Z</time></trkpt><trkpt lat="45.37535231187356" lon="7.668806209936459"><ele>372.0</ele><time>2026-04-19T12:39:14.891Z</time></trkpt><trkpt lat="45.375461691719565" lon="7.668693897781418"><ele>372.0</ele><time>2026-04-19T12:39:15.891Z</time></trkpt><trkpt lat="45.37558456040954" lon="7.6685718623922465"><ele>373.3333333333333</ele><time>2026-04-19T12:39:16.891Z</time></trkpt><trkpt lat="45.375718477074166" lon="7.668438246185971"><ele>374.66666666666663</ele><time>2026-04-19T12:39:17.891Z</time></trkpt><trkpt lat="45.375847157264495" lon="7.66830815804389"><ele>376.0</ele><time>2026-04-19T12:39:18.891Z</time></trkpt><trkpt lat="45.375976085021705" lon="7.66817278729309"><ele>376.0</ele><time>2026-04-19T12:39:19.891Z</time></trkpt><trkpt lat="45.376098690879445" lon="7.668040257416531"><ele>376.0</ele><time>2026-04-19T12:39:20.891Z</time></trkpt><trkpt lat="45.3762174845588" lon="7.667917767083393"><ele>376.0</ele><time>2026-04-19T12:39:21.891Z</time></trkpt><trkpt lat="45.37634023979301" lon="7.6677969984496634"><ele>375.3333333333333</ele><time>2026-04-19T12:39:22.891Z</time></trkpt><trkpt lat="45.376466392633795" lon="7.667667229093064"><ele>374.6666666666667</ele><time>2026-04-19T12:39:23.891Z</time></trkpt><trkpt lat="45.37658657398596" lon="7.667540810705302"><ele>374.0</ele><time>2026-04-19T12:39:24.891Z</time></trkpt><trkpt lat="45.37671028587406" lon="7.667404153677336"><ele>374.0</ele><time>2026-04-19T12:39:25.891Z</time></trkpt><trkpt lat="45.37683949917564" lon="7.667296859820611"><ele>374.0</ele><time>2026-04-19T12:39:26.891Z</time></trkpt><trkpt lat="45.37696966121022" lon="7.667178904457354"><ele>374.0</ele><time>2026-04-19T12:39:27.891Z</time></trkpt><trkpt lat="45.37709946196457" lon="7.667060735646692"><ele>375.0</ele><time>2026-04-19T12:39:28.891Z</time></trkpt><trkpt lat="45.37724082975129" lon="7.666945962283637"><ele>376.0</ele><time>2026-04-19T12:39:29.891Z</time></trkpt><trkpt lat="45.377380926622834" lon="7.666820172839769"><ele>377.0</ele><time>2026-04-19T12:39:30.891Z</time></trkpt><trkpt lat="45.37752766148373" lon="7.6666906053138595"><ele>378.0</ele><time>2026-04-19T12:39:31.891Z</time></trkpt><trkpt lat="45.37768037090543" lon="7.666561230753198"><ele>379.0</ele><time>2026-04-19T12:39:32.891Z</time></trkpt><trkpt lat="45.37783851770711" lon="7.6664341478671165"><ele>380.0</ele><time>2026-04-19T12:39:33.891Z</time></trkpt><trkpt lat="45.37801052479141" lon="7.666310466655037"><ele>379.6666666666667</ele><time>2026-04-19T12:39:34.891Z</time></trkpt><trkpt lat="45.3781908334561" lon="7.666199674032251"><ele>379.3333333333333</ele><time>2026-04-19T12:39:35.891Z</time></trkpt><trkpt lat="45.37838090386161" lon="7.66610040276887"><ele>379.0</ele><time>2026-04-19T12:39:36.891Z</time></trkpt><trkpt lat="45.37858259594002" lon="7.666005364272013"><ele>379.0</ele><time>2026-04-19T12:39:37.891Z</time></trkpt><trkpt lat="45.378764344651955" lon="7.66591346382106"><ele>379.0</ele><time>2026-04-19T12:39:38.891Z</time></trkpt><trkpt lat="45.378958401400155" lon="7.6658156483989925"><ele>379.0</ele><time>2026-04-19T12:39:39.891Z</time></trkpt><trkpt lat="45.37915475783365" lon="7.665722969271617"><ele>378.3333333333333</ele><time>2026-04-19T12:39:40.891Z</time></trkpt><trkpt lat="45.379345329823074" lon="7.665635642804827"><ele>377.6666666666667</ele><time>2026-04-19T12:39:41.891Z</time></trkpt><trkpt lat="45.37954043635941" lon="7.66553078255668"><ele>377.0</ele><time>2026-04-19T12:39:42.891Z</time></trkpt><trkpt lat="45.37973138257667" lon="7.665433466886242"><ele>376.6666666666667</ele><time>2026-04-19T12:39:43.891Z</time></trkpt><trkpt lat="45.379929340662834" lon="7.6653398860017425"><ele>376.3333333333333</ele><time>2026-04-19T12:39:44.891Z</time></trkpt><trkpt lat="45.380122735118" lon="7.665239323646388"><ele>376.0</ele><time>2026-04-19T12:39:45.891Z</time></trkpt><trkpt lat="45.38031705237928" lon="7.665139485933213"><ele>376.66666666666663</ele><time>2026-04-19T12:39:46.891Z</time></trkpt><trkpt lat="45.38050943845217" lon="7.665043654019328"><ele>377.3333333333333</ele><time>2026-04-19T12:39:47.891Z</time></trkpt><trkpt lat="45.380698091606135" lon="7.66494974176224"><ele>378.0</ele><time>2026-04-19T12:39:48.891Z</time></trkpt><trkpt lat="45.380881451577494" lon="7.664860743114497"><ele>378.6666666666667</ele><time>2026-04-19T12:39:49.891Z</time></trkpt><trkpt lat="45.38106316825766" lon="7.664773732752047"><ele>379.33333333333337</ele><time>2026-04-19T12:39:50.891Z</time></trkpt><trkpt lat="45.38123764351429" lon="7.66468551145419"><ele>380.0</ele><time>2026-04-19T12:39:51.891Z</time></trkpt><trkpt lat="45.38140914758175" lon="7.664592713525831"><ele>381.0</ele><time>2026-04-19T12:39:52.891Z</time></trkpt><trkpt lat="45.38157853660663" lon="7.66450481678392"><ele>382.0</ele><time>2026-04-19T12:39:53.891Z</time></trkpt><trkpt lat="45.381746767775255" lon="7.664422239752146"><ele>383.0</ele><time>2026-04-19T12:39:54.891Z</time></trkpt><trkpt lat="45.38190777185462" lon="7.66434356893562"><ele>383.0</ele><time>2026-04-19T12:39:55.891Z</time></trkpt><trkpt lat="45.38206068560684" lon="7.664269819773524"><ele>383.0</ele><time>2026-04-19T12:39:56.891Z</time></trkpt><trkpt lat="45.38220177056646" lon="7.664197210156741"><ele>383.0</ele><time>2026-04-19T12:39:57.891Z</time></trkpt><trkpt lat="45.3823322600844" lon="7.664131947044789"><ele>382.75</ele><time>2026-04-19T12:39:58.891Z</time></trkpt><trkpt lat="45.3824523909516" lon="7.664071452171925"><ele>382.5</ele><time>2026-04-19T12:39:59.891Z</time></trkpt><trkpt lat="45.38256718010432" lon="7.664014549289468"><ele>382.25</ele><time>2026-04-19T12:40:00.891Z</time></trkpt><trkpt lat="45.38267548439435" lon="7.663960633451823"><ele>382.0</ele><time>2026-04-19T12:40:01.891Z</time></trkpt><trkpt lat="45.3827793227923" lon="7.663901442600433"><ele>382.0</ele><time>2026-04-19T12:40:02.891Z</time></trkpt><trkpt lat="45.38288546070275" lon="7.663846606752212"><ele>382.0</ele><time>2026-04-19T12:40:03.891Z</time></trkpt><trkpt lat="45.38299729925738" lon="7.66379469993382"><ele>382.0</ele><time>2026-04-19T12:40:04.891Z</time></trkpt><trkpt lat="45.38310047513243" lon="7.663743992888739"><ele>382.0</ele><time>2026-04-19T12:40:05.891Z</time></trkpt><trkpt lat="45.38319856165491" lon="7.6636984774043535"><ele>382.0</ele><time>2026-04-19T12:40:06.891Z</time></trkpt><trkpt lat="45.38328919528105" lon="7.663659473372555"><ele>382.3333333333333</ele><time>2026-04-19T12:40:07.891Z</time></trkpt><trkpt lat="45.3833753890101" lon="7.663642092971988"><ele>382.66666666666663</ele><time>2026-04-19T12:40:08.891Z</time></trkpt><trkpt lat="45.383453200222164" lon="7.663648516602988"><ele>383.0</ele><time>2026-04-19T12:40:09.891Z</time></trkpt><trkpt lat="45.3835258456394" lon="7.663686001937681"><ele>383.3333333333333</ele><time>2026-04-19T12:40:10.889Z</time></trkpt><trkpt lat="45.38359847157504" lon="7.663714956928148"><ele>383.6666666666667</ele><time>2026-04-19T12:40:11.889Z</time></trkpt><trkpt lat="45.38368239087845" lon="7.663723568998095"><ele>384.0</ele><time>2026-04-19T12:40:12.889Z</time></trkpt><trkpt lat="45.38377746482162" lon="7.663708207380817"><ele>384.2</ele><time>2026-04-19T12:40:13.889Z</time></trkpt><trkpt lat="45.38383706060506" lon="7.663611625905808"><ele>384.4</ele><time>2026-04-19T12:40:14.889Z</time></trkpt><trkpt lat="45.38389166082607" lon="7.663514822017696"><ele>384.6</ele><time>2026-04-19T12:40:15.889Z</time></trkpt><trkpt lat="45.383944088381334" lon="7.6634073742209985"><ele>384.8</ele><time>2026-04-19T12:40:16.889Z</time></trkpt><trkpt lat="45.38402265185766" lon="7.663306322105215"><ele>385.0</ele><time>2026-04-19T12:40:17.889Z</time></trkpt><trkpt lat="45.384124412607406" lon="7.663235378163152"><ele>385.75</ele><time>2026-04-19T12:40:18.889Z</time></trkpt><trkpt lat="45.384244297611374" lon="7.6631961193839855"><ele>386.5</ele><time>2026-04-19T12:40:19.889Z</time></trkpt><trkpt lat="45.38436934988712" lon="7.663149271047237"><ele>387.25</ele><time>2026-04-19T12:40:20.889Z</time></trkpt><trkpt lat="45.38450362392357" lon="7.663083838509395"><ele>388.0</ele><time>2026-04-19T12:40:21.889Z</time></trkpt><trkpt lat="45.384655133303674" lon="7.663015852532292"><ele>386.33333333333337</ele><time>2026-04-19T12:40:22.889Z</time></trkpt><trkpt lat="45.384817980192636" lon="7.662942838477411"><ele>384.6666666666667</ele><time>2026-04-19T12:40:23.889Z</time></trkpt><trkpt lat="45.38499523726465" lon="7.662868034287218"><ele>383.0</ele><time>2026-04-19T12:40:24.889Z</time></trkpt><trkpt lat="45.38518619167447" lon="7.662782954636273"><ele>382.33333333333337</ele><time>2026-04-19T12:40:25.889Z</time></trkpt><trkpt lat="45.38536357251466" lon="7.662691190516229"><ele>381.6666666666667</ele><time>2026-04-19T12:40:26.889Z</time></trkpt><trkpt lat="45.3855534681599" lon="7.662593021468977"><ele>381.0</ele><time>2026-04-19T12:40:27.889Z</time></trkpt><trkpt lat="45.385747362057046" lon="7.662485867972807"><ele>381.0</ele><time>2026-04-19T12:40:28.889Z</time></trkpt><trkpt lat="45.385944056763655" lon="7.662375372721203"><ele>381.0</ele><time>2026-04-19T12:40:29.889Z</time></trkpt><trkpt lat="45.386136235028985" lon="7.662267239362863"><ele>381.0</ele><time>2026-04-19T12:40:30.889Z</time></trkpt><trkpt lat="45.38633308737205" lon="7.66216025635904"><ele>380.6666666666667</ele><time>2026-04-19T12:40:31.889Z</time></trkpt><trkpt lat="45.38653187836665" lon="7.662046635662269"><ele>380.33333333333337</ele><time>2026-04-19T12:40:32.889Z</time></trkpt><trkpt lat="45.386743260840134" lon="7.661941986522001"><ele>380.0</ele><time>2026-04-19T12:40:33.889Z</time></trkpt><trkpt lat="45.38695251731262" lon="7.661840632858018"><ele>380.0</ele><time>2026-04-19T12:40:34.889Z</time></trkpt><trkpt lat="45.387155830356384" lon="7.661738147616046"><ele>380.0</ele><time>2026-04-19T12:40:35.889Z</time></trkpt><trkpt lat="45.38735342365157" lon="7.661636550215996"><ele>380.0</ele><time>2026-04-19T12:40:36.889Z</time></trkpt><trkpt lat="45.38754760904385" lon="7.661534519934924"><ele>377.33333333333337</ele><time>2026-04-19T12:40:37.889Z</time></trkpt><trkpt lat="45.387743242413926" lon="7.661441906840356"><ele>374.6666666666667</ele><time>2026-04-19T12:40:38.889Z</time></trkpt><trkpt lat="45.38793210737645" lon="7.661344148360959"><ele>372.0</ele><time>2026-04-19T12:40:39.889Z</time></trkpt><trkpt lat="45.38811591490116" lon="7.661247263400552"><ele>371.0</ele><time>2026-04-19T12:40:40.889Z</time></trkpt><trkpt lat="45.38830534380237" lon="7.661152766621176"><ele>370.0</ele><time>2026-04-19T12:40:41.889Z</time></trkpt><trkpt lat="45.388495437474376" lon="7.66105813550793"><ele>369.0</ele><time>2026-04-19T12:40:42.889Z</time></trkpt><trkpt lat="45.38869020269363" lon="7.660964236046504"><ele>370.3333333333333</ele><time>2026-04-19T12:40:43.889Z</time></trkpt><trkpt lat="45.38888040887153" lon="7.66087010843"><ele>371.66666666666663</ele><time>2026-04-19T12:40:44.889Z</time></trkpt><trkpt lat="45.3890775587428" lon="7.660773355121505"><ele>373.0</ele><time>2026-04-19T12:40:45.889Z</time></trkpt><trkpt lat="45.38927205498131" lon="7.660679202457233"><ele>373.0</ele><time>2026-04-19T12:40:46.889Z</time></trkpt><trkpt lat="45.389470337998006" lon="7.66059723534288"><ele>373.0</ele><time>2026-04-19T12:40:47.889Z</time></trkpt><trkpt lat="45.389668573721586" lon="7.660533846884842"><ele>373.0</ele><time>2026-04-19T12:40:48.889Z</time></trkpt><trkpt lat="45.38986742565405" lon="7.660477003912185"><ele>373.0</ele><time>2026-04-19T12:40:49.889Z</time></trkpt><trkpt lat="45.390066899267474" lon="7.660433155412322"><ele>373.0</ele><time>2026-04-19T12:40:50.889Z</time></trkpt><trkpt lat="45.390260883588674" lon="7.660407734482182"><ele>373.0</ele><time>2026-04-19T12:40:51.889Z</time></trkpt><trkpt lat="45.3904587332126" lon="7.66038260898566"><ele>372.66666666666663</ele><time>2026-04-19T12:40:52.889Z</time></trkpt><trkpt lat="45.39065931585257" lon="7.660370112602207"><ele>372.3333333333333</ele><time>2026-04-19T12:40:53.889Z</time></trkpt><trkpt lat="45.39085856512315" lon="7.660370487655957"><ele>372.0</ele><time>2026-04-19T12:40:54.889Z</time></trkpt><trkpt lat="45.39106023717541" lon="7.660371078635991"><ele>372.0</ele><time>2026-04-19T12:40:55.889Z</time></trkpt><trkpt lat="45.39126632062585" lon="7.660376710584151"><ele>372.0</ele><time>2026-04-19T12:40:56.889Z</time></trkpt><trkpt lat="45.391473100838446" lon="7.660376287041465"><ele>372.0</ele><time>2026-04-19T12:40:57.889Z</time></trkpt><trkpt lat="45.39167562950018" lon="7.660372269433357"><ele>372.3333333333333</ele><time>2026-04-19T12:40:58.889Z</time></trkpt><trkpt lat="45.391874415861885" lon="7.660373871224702"><ele>372.66666666666663</ele><time>2026-04-19T12:40:59.889Z</time></trkpt><trkpt lat="45.39207740418348" lon="7.660379091913092"><ele>373.0</ele><time>2026-04-19T12:41:00.889Z</time></trkpt><trkpt lat="45.39227381903559" lon="7.660375977580546"><ele>372.3333333333333</ele><time>2026-04-19T12:41:01.889Z</time></trkpt><trkpt lat="45.392468240090416" lon="7.660378469152066"><ele>371.6666666666667</ele><time>2026-04-19T12:41:02.889Z</time></trkpt><trkpt lat="45.392662219105425" lon="7.660377769329377"><ele>371.0</ele><time>2026-04-19T12:41:03.889Z</time></trkpt><trkpt lat="45.39285167657169" lon="7.660381879493527"><ele>370.6666666666667</ele><time>2026-04-19T12:41:04.889Z</time></trkpt><trkpt lat="45.39304248644086" lon="7.660384489070327"><ele>370.3333333333333</ele><time>2026-04-19T12:41:05.888Z</time></trkpt><trkpt lat="45.39322625237914" lon="7.660388336565967"><ele>370.0</ele><time>2026-04-19T12:41:06.888Z</time></trkpt><trkpt lat="45.39341501739816" lon="7.660389356940824"><ele>370.0</ele><time>2026-04-19T12:41:07.888Z</time></trkpt><trkpt lat="45.39360169392198" lon="7.660387983145243"><ele>370.0</ele><time>2026-04-19T12:41:08.888Z</time></trkpt><trkpt lat="45.393791076083815" lon="7.660389899541036"><ele>370.0</ele><time>2026-04-19T12:41:09.888Z</time></trkpt><trkpt lat="45.39397690467672" lon="7.660391330506684"><ele>371.66666666666663</ele><time>2026-04-19T12:41:10.888Z</time></trkpt><trkpt lat="45.39414730698895" lon="7.660396150412165"><ele>373.3333333333333</ele><time>2026-04-19T12:41:11.888Z</time></trkpt><trkpt lat="45.3943097764496" lon="7.660389081046582"><ele>375.0</ele><time>2026-04-19T12:41:12.888Z</time></trkpt><trkpt lat="45.39445008121475" lon="7.660388426456482"><ele>375.0</ele><time>2026-04-19T12:41:13.888Z</time></trkpt><trkpt lat="45.394572609040985" lon="7.660387842754778"><ele>375.0</ele><time>2026-04-19T12:41:14.888Z</time></trkpt><trkpt lat="45.394682686171855" lon="7.660393293781602"><ele>375.0</ele><time>2026-04-19T12:41:15.888Z</time></trkpt><trkpt lat="45.39478650116289" lon="7.660397138157368"><ele>375.0</ele><time>2026-04-19T12:41:16.888Z</time></trkpt><trkpt lat="45.39488124566488" lon="7.660402232974572"><ele>375.0</ele><time>2026-04-19T12:41:17.888Z</time></trkpt><trkpt lat="45.394967268070424" lon="7.66040358493974"><ele>375.5714285714286</ele><time>2026-04-19T12:41:18.888Z</time></trkpt><trkpt lat="45.39503280872858" lon="7.660402923025226"><ele>376.1428571428571</ele><time>2026-04-19T12:41:19.888Z</time></trkpt><trkpt lat="45.39511519320651" lon="7.6604101301020835"><ele>376.7142857142857</ele><time>2026-04-19T12:41:21.888Z</time></trkpt><trkpt lat="45.39518493771083" lon="7.66041968466852"><ele>377.28571428571433</ele><time>2026-04-19T12:41:25.888Z</time></trkpt><trkpt lat="45.39525279157991" lon="7.660426546065747"><ele>377.8571428571429</ele><time>2026-04-19T12:41:28.888Z</time></trkpt><trkpt lat="45.39534021020889" lon="7.660463694186666"><ele>378.42857142857144</ele><time>2026-04-19T12:41:30.888Z</time></trkpt><trkpt lat="45.395397852727314" lon="7.6605241955872945"><ele>379.0</ele><time>2026-04-19T12:41:31.888Z</time></trkpt><trkpt lat="45.39545454214173" lon="7.660584618541456"><ele>380.0</ele><time>2026-04-19T12:41:32.888Z</time></trkpt><trkpt lat="45.39556585132673" lon="7.660645457776209"><ele>381.0</ele><time>2026-04-19T12:41:34.888Z</time></trkpt><trkpt lat="45.39564518333758" lon="7.660617828959357"><ele>382.0</ele><time>2026-04-19T12:41:35.888Z</time></trkpt><trkpt lat="45.395724877485236" lon="7.660520887032306"><ele>383.0</ele><time>2026-04-19T12:41:36.888Z</time></trkpt><trkpt lat="45.39578700648403" lon="7.660406097241795"><ele>384.0</ele><time>2026-04-19T12:41:37.888Z</time></trkpt><trkpt lat="45.39591514937673" lon="7.6603530561218"><ele>384.0</ele><time>2026-04-19T12:41:38.888Z</time></trkpt><trkpt lat="45.39601844931613" lon="7.660329526347169"><ele>384.0</ele><time>2026-04-19T12:41:39.888Z</time></trkpt><trkpt lat="45.39611797654703" lon="7.660332127251119"><ele>384.0</ele><time>2026-04-19T12:41:40.888Z</time></trkpt><trkpt lat="45.39621860965693" lon="7.66033370365844"><ele>384.0</ele><time>2026-04-19T12:41:41.888Z</time></trkpt><trkpt lat="45.39632396171021" lon="7.660315374393044"><ele>384.0</ele><time>2026-04-19T12:41:42.888Z</time></trkpt><trkpt lat="45.39643411622304" lon="7.660313645639445"><ele>383.25</ele><time>2026-04-19T12:41:43.888Z</time></trkpt><trkpt lat="45.396543215385485" lon="7.660305077832072"><ele>382.5</ele><time>2026-04-19T12:41:44.888Z</time></trkpt><trkpt lat="45.396654843946784" lon="7.660284998667613"><ele>381.75</ele><time>2026-04-19T12:41:45.888Z</time></trkpt><trkpt lat="45.39677254263304" lon="7.660263025261856"><ele>381.0</ele><time>2026-04-19T12:41:46.888Z</time></trkpt><trkpt lat="45.39689055086124" lon="7.660247883429118"><ele>381.0</ele><time>2026-04-19T12:41:47.888Z</time></trkpt><trkpt lat="45.39714594433858" lon="7.66022204850402"><ele>381.0</ele><time>2026-04-19T12:41:49.888Z</time></trkpt><trkpt lat="45.39728790466363" lon="7.660209368186657"><ele>381.0</ele><time>2026-04-19T12:41:50.888Z</time></trkpt><trkpt lat="45.397433024933335" lon="7.6601916961062235"><ele>381.25</ele><time>2026-04-19T12:41:51.888Z</time></trkpt><trkpt lat="45.39758054331048" lon="7.660176509264129"><ele>381.5</ele><time>2026-04-19T12:41:52.888Z</time></trkpt><trkpt lat="45.39771769487186" lon="7.660161692030924"><ele>381.75</ele><time>2026-04-19T12:41:53.888Z</time></trkpt><trkpt lat="45.397852918723075" lon="7.660147981645101"><ele>382.0</ele><time>2026-04-19T12:41:54.888Z</time></trkpt><trkpt lat="45.39799098457782" lon="7.660128814085021"><ele>383.5</ele><time>2026-04-19T12:41:55.888Z</time></trkpt><trkpt lat="45.39812910298277" lon="7.660111938447623"><ele>385.0</ele><time>2026-04-19T12:41:56.888Z</time></trkpt><trkpt lat="45.398263883722436" lon="7.6600938149418285"><ele>386.5</ele><time>2026-04-19T12:41:57.888Z</time></trkpt><trkpt lat="45.39840475199834" lon="7.660064283874517"><ele>388.0</ele><time>2026-04-19T12:41:58.888Z</time></trkpt><trkpt lat="45.39855084646133" lon="7.660030112706774"><ele>388.0</ele><time>2026-04-19T12:41:59.888Z</time></trkpt><trkpt lat="45.39870037378075" lon="7.659994418368702"><ele>388.0</ele><time>2026-04-19T12:42:00.888Z</time></trkpt><trkpt lat="45.39884514418159" lon="7.659943151528267"><ele>388.0</ele><time>2026-04-19T12:42:01.888Z</time></trkpt><trkpt lat="45.398992451208166" lon="7.659882284773231"><ele>390.0</ele><time>2026-04-19T12:42:02.888Z</time></trkpt><trkpt lat="45.399142296402495" lon="7.659807702078636"><ele>392.0</ele><time>2026-04-19T12:42:03.888Z</time></trkpt><trkpt lat="45.39929667304432" lon="7.659728191896288"><ele>394.0</ele><time>2026-04-19T12:42:04.888Z</time></trkpt><trkpt lat="45.39945404749472" lon="7.6596368697572395"><ele>394.0</ele><time>2026-04-19T12:42:05.888Z</time></trkpt><trkpt lat="45.39961908145417" lon="7.659530934635073"><ele>394.0</ele><time>2026-04-19T12:42:06.888Z</time></trkpt><trkpt lat="45.39978454744216" lon="7.659406800196799"><ele>394.0</ele><time>2026-04-19T12:42:07.888Z</time></trkpt><trkpt lat="45.3999417882212" lon="7.659270975654624"><ele>394.33333333333337</ele><time>2026-04-19T12:42:08.888Z</time></trkpt><trkpt lat="45.400085879253645" lon="7.6591310249640605"><ele>394.66666666666663</ele><time>2026-04-19T12:42:09.888Z</time></trkpt><trkpt lat="45.40022647997361" lon="7.658980929959719"><ele>395.0</ele><time>2026-04-19T12:42:10.888Z</time></trkpt><trkpt lat="45.400363963254456" lon="7.658827587429336"><ele>395.0</ele><time>2026-04-19T12:42:11.888Z</time></trkpt><trkpt lat="45.40049786971954" lon="7.658683110698202"><ele>395.0</ele><time>2026-04-19T12:42:12.888Z</time></trkpt><trkpt lat="45.40061863369878" lon="7.6585528408537344"><ele>395.0</ele><time>2026-04-19T12:42:13.888Z</time></trkpt><trkpt lat="45.400732670715485" lon="7.658425094369992"><ele>395.75</ele><time>2026-04-19T12:42:14.888Z</time></trkpt><trkpt lat="45.400848507393974" lon="7.658299287738129"><ele>396.5</ele><time>2026-04-19T12:42:15.888Z</time></trkpt><trkpt lat="45.40095218738121" lon="7.658181883666859"><ele>397.25</ele><time>2026-04-19T12:42:16.886Z</time></trkpt><trkpt lat="45.4010514945548" lon="7.658069097065529"><ele>398.0</ele><time>2026-04-19T12:42:17.885Z</time></trkpt><trkpt lat="45.401142875912306" lon="7.657978850078709"><ele>397.99999999999994</ele><time>2026-04-19T12:42:18.885Z</time></trkpt><trkpt lat="45.40122503558573" lon="7.657917911010495"><ele>398.0</ele><time>2026-04-19T12:42:19.885Z</time></trkpt><trkpt lat="45.40130196500634" lon="7.657889887381104"><ele>398.0</ele><time>2026-04-19T12:42:20.886Z</time></trkpt><trkpt lat="45.40136956714997" lon="7.657887521250039"><ele>398.0</ele><time>2026-04-19T12:42:21.886Z</time></trkpt><trkpt lat="45.40143736330728" lon="7.657882517908591"><ele>397.99999999999994</ele><time>2026-04-19T12:42:22.886Z</time></trkpt><trkpt lat="45.40150046916917" lon="7.657836689606513"><ele>398.0</ele><time>2026-04-19T12:42:23.885Z</time></trkpt><trkpt lat="45.401546953960356" lon="7.657752887936484"><ele>397.79999999999995</ele><time>2026-04-19T12:42:24.885Z</time></trkpt><trkpt lat="45.40159450087578" lon="7.657669499651652"><ele>397.6</ele><time>2026-04-19T12:42:25.886Z</time></trkpt><trkpt lat="45.401510266871945" lon="7.657461319879867"><ele>397.4</ele><time>2026-04-19T12:42:27.886Z</time></trkpt><trkpt lat="45.40145141861787" lon="7.657375527911013"><ele>397.20000000000005</ele><time>2026-04-19T12:42:28.885Z</time></trkpt><trkpt lat="45.4013840962539" lon="7.657284847303685"><ele>397.0</ele><time>2026-04-19T12:42:29.885Z</time></trkpt><trkpt lat="45.40132413838848" lon="7.657170354500137"><ele>397.20000000000005</ele><time>2026-04-19T12:42:30.885Z</time></trkpt><trkpt lat="45.40129641773013" lon="7.6570172553357745"><ele>397.4</ele><time>2026-04-19T12:42:31.885Z</time></trkpt><trkpt lat="45.40123897381665" lon="7.656891372748281"><ele>397.6</ele><time>2026-04-19T12:42:32.885Z</time></trkpt><trkpt lat="45.401164497857934" lon="7.65680134556166"><ele>397.79999999999995</ele><time>2026-04-19T12:42:33.885Z</time></trkpt><trkpt lat="45.401079100672064" lon="7.656757956791066"><ele>398.0</ele><time>2026-04-19T12:42:34.885Z</time></trkpt><trkpt lat="45.40098854469194" lon="7.656725610099392"><ele>398.0</ele><time>2026-04-19T12:42:35.885Z</time></trkpt><trkpt lat="45.400874488342" lon="7.656691538661089"><ele>398.0</ele><time>2026-04-19T12:42:36.885Z</time></trkpt><trkpt lat="45.40075232060558" lon="7.6566595646457625"><ele>398.0</ele><time>2026-04-19T12:42:37.885Z</time></trkpt><trkpt lat="45.40063205908405" lon="7.6566388879221075"><ele>398.0</ele><time>2026-04-19T12:42:38.885Z</time></trkpt><trkpt lat="45.40050801958112" lon="7.656620926494461"><ele>397.49999999999994</ele><time>2026-04-19T12:42:39.885Z</time></trkpt><trkpt lat="45.400394385592364" lon="7.656604471810391"><ele>397.0</ele><time>2026-04-19T12:42:40.885Z</time></trkpt><trkpt lat="45.40029476247089" lon="7.656590045841542"><ele>396.5</ele><time>2026-04-19T12:42:41.885Z</time></trkpt><trkpt lat="45.4002100641655" lon="7.656605994918192"><ele>396.0</ele><time>2026-04-19T12:42:42.885Z</time></trkpt><trkpt lat="45.40014088028869" lon="7.656616248170283"><ele>395.49999999999994</ele><time>2026-04-19T12:42:43.885Z</time></trkpt><trkpt lat="45.4000644398399" lon="7.656620621542465"><ele>395.0</ele><time>2026-04-19T12:42:44.885Z</time></trkpt><trkpt lat="45.3999818086395" lon="7.656625652071971"><ele>394.99999999999994</ele><time>2026-04-19T12:42:45.885Z</time></trkpt><trkpt lat="45.39989542018693" lon="7.656628192852964"><ele>395.0</ele><time>2026-04-19T12:42:46.885Z</time></trkpt><trkpt lat="45.39981460858193" lon="7.656623095683281"><ele>395.0</ele><time>2026-04-19T12:42:47.885Z</time></trkpt><trkpt lat="45.399744457149325" lon="7.656599140251462"><ele>395.0</ele><time>2026-04-19T12:42:48.885Z</time></trkpt><trkpt lat="45.399680692763255" lon="7.656555969803439"><ele>394.99999999999994</ele><time>2026-04-19T12:42:49.885Z</time></trkpt><trkpt lat="45.399608657062714" lon="7.656515558448035"><ele>395.0</ele><time>2026-04-19T12:42:50.885Z</time></trkpt><trkpt lat="45.399534957356586" lon="7.6564814286544784"><ele>393.3333333333333</ele><time>2026-04-19T12:42:51.885Z</time></trkpt><trkpt lat="45.39945868498837" lon="7.656453231986874"><ele>391.66666666666663</ele><time>2026-04-19T12:42:52.885Z</time></trkpt><trkpt lat="45.39938543391073" lon="7.656425847197478"><ele>390.0</ele><time>2026-04-19T12:42:53.885Z</time></trkpt><trkpt lat="45.399284502253145" lon="7.656354961248975"><ele>388.33333333333337</ele><time>2026-04-19T12:42:55.885Z</time></trkpt><trkpt lat="45.39918830445121" lon="7.656302320076209"><ele>386.6666666666667</ele><time>2026-04-19T12:42:57.885Z</time></trkpt><trkpt lat="45.39913009591155" lon="7.656251885947953"><ele>385.0</ele><time>2026-04-19T12:42:58.885Z</time></trkpt><trkpt lat="45.399066787461" lon="7.656172452320686"><ele>385.0</ele><time>2026-04-19T12:42:59.884Z</time></trkpt><trkpt lat="45.398998048632194" lon="7.656085342447575"><ele>385.0</ele><time>2026-04-19T12:43:00.884Z</time></trkpt><trkpt lat="45.398914815005334" lon="7.655985297600524"><ele>385.0</ele><time>2026-04-19T12:43:01.884Z</time></trkpt><trkpt lat="45.39883551136354" lon="7.65588842794499"><ele>385.0</ele><time>2026-04-19T12:43:02.884Z</time></trkpt><trkpt lat="45.39876057794991" lon="7.6558045551907"><ele>385.0</ele><time>2026-04-19T12:43:03.884Z</time></trkpt><trkpt lat="45.398688556386034" lon="7.655731616467966"><ele>384.83333333333337</ele><time>2026-04-19T12:43:04.884Z</time></trkpt><trkpt lat="45.39862757302019" lon="7.655657316661926"><ele>384.6666666666667</ele><time>2026-04-19T12:43:05.884Z</time></trkpt><trkpt lat="45.398565864092674" lon="7.6555815466898265"><ele>384.5</ele><time>2026-04-19T12:43:06.884Z</time></trkpt><trkpt lat="45.398515283803825" lon="7.655493376141703"><ele>384.33333333333337</ele><time>2026-04-19T12:43:07.884Z</time></trkpt><trkpt lat="45.39845606550272" lon="7.655412400896252"><ele>384.1666666666667</ele><time>2026-04-19T12:43:08.884Z</time></trkpt><trkpt lat="45.39838805918034" lon="7.655332844008235"><ele>384.0</ele><time>2026-04-19T12:43:09.884Z</time></trkpt><trkpt lat="45.39832515643117" lon="7.655258095194282"><ele>384.0</ele><time>2026-04-19T12:43:10.884Z</time></trkpt><trkpt lat="45.3982577470568" lon="7.655203348400263"><ele>384.0</ele><time>2026-04-19T12:43:11.884Z</time></trkpt><trkpt lat="45.398180066419165" lon="7.655161960830937"><ele>384.0</ele><time>2026-04-19T12:43:12.884Z</time></trkpt><trkpt lat="45.39809346612614" lon="7.655134330263892"><ele>384.0</ele><time>2026-04-19T12:43:13.884Z</time></trkpt><trkpt lat="45.3979955160181" lon="7.6551313887316494"><ele>384.0</ele><time>2026-04-19T12:43:14.884Z</time></trkpt><trkpt lat="45.397893268655565" lon="7.655155320124276"><ele>384.0</ele><time>2026-04-19T12:43:15.884Z</time></trkpt><trkpt lat="45.397785494205536" lon="7.655186828504661"><ele>384.0</ele><time>2026-04-19T12:43:16.884Z</time></trkpt><trkpt lat="45.397695783604114" lon="7.65521663338225"><ele>384.0</ele><time>2026-04-19T12:43:17.884Z</time></trkpt><trkpt lat="45.397615128863144" lon="7.655236916188405"><ele>384.0</ele><time>2026-04-19T12:43:18.884Z</time></trkpt><trkpt lat="45.39754174323548" lon="7.65526978099567"><ele>384.0</ele><time>2026-04-19T12:43:19.884Z</time></trkpt><trkpt lat="45.39747119512547" lon="7.655287103794454"><ele>384.0</ele><time>2026-04-19T12:43:20.884Z</time></trkpt><trkpt lat="45.39740116829931" lon="7.655281937853715"><ele>384.0</ele><time>2026-04-19T12:43:21.884Z</time></trkpt><trkpt lat="45.397332928236125" lon="7.655255521312601"><ele>384.0</ele><time>2026-04-19T12:43:22.884Z</time></trkpt><trkpt lat="45.3972726334046" lon="7.655204750842034"><ele>384.0</ele><time>2026-04-19T12:43:23.884Z</time></trkpt><trkpt lat="45.397202821961365" lon="7.655143799964291"><ele>384.0</ele><time>2026-04-19T12:43:24.884Z</time></trkpt><trkpt lat="45.39712454456736" lon="7.6550859557123365"><ele>384.0</ele><time>2026-04-19T12:43:25.884Z</time></trkpt><trkpt lat="45.39705931268655" lon="7.655004017089318"><ele>384.0</ele><time>2026-04-19T12:43:26.884Z</time></trkpt><trkpt lat="45.396984109118776" lon="7.6549460335729815"><ele>384.1666666666667</ele><time>2026-04-19T12:43:27.884Z</time></trkpt><trkpt lat="45.39692821022475" lon="7.654888171482172"><ele>384.33333333333337</ele><time>2026-04-19T12:43:28.884Z</time></trkpt><trkpt lat="45.39687247368395" lon="7.654841738946764"><ele>384.5</ele><time>2026-04-19T12:43:29.884Z</time></trkpt><trkpt lat="45.39678277308419" lon="7.654765835931422"><ele>384.6666666666667</ele><time>2026-04-19T12:43:31.884Z</time></trkpt><trkpt lat="45.39674265669854" lon="7.654690803888581"><ele>384.83333333333337</ele><time>2026-04-19T12:43:35.884Z</time></trkpt><trkpt lat="45.39679257337388" lon="7.654557849002967"><ele>385.0</ele><time>2026-04-19T12:43:37.884Z</time></trkpt><trkpt lat="45.396825796052696" lon="7.654469629468899"><ele>385.0</ele><time>2026-04-19T12:43:38.884Z</time></trkpt><trkpt lat="45.396865382745105" lon="7.65436499144452"><ele>385.0</ele><time>2026-04-19T12:43:39.884Z</time></trkpt><trkpt lat="45.39690446414681" lon="7.654260403517457"><ele>385.0</ele><time>2026-04-19T12:43:40.884Z</time></trkpt><trkpt lat="45.396947996586626" lon="7.6541408732932625"><ele>385.0</ele><time>2026-04-19T12:43:41.884Z</time></trkpt><trkpt lat="45.39699006479426" lon="7.653996904797751"><ele>385.0</ele><time>2026-04-19T12:43:42.884Z</time></trkpt><trkpt lat="45.397036920656426" lon="7.653841515214597"><ele>385.0</ele><time>2026-04-19T12:43:43.884Z</time></trkpt><trkpt lat="45.39709063703087" lon="7.653683354615547"><ele>385.0</ele><time>2026-04-19T12:43:44.884Z</time></trkpt><trkpt lat="45.397151232479544" lon="7.653527165696718"><ele>385.0</ele><time>2026-04-19T12:43:45.884Z</time></trkpt><trkpt lat="45.39719812225541" lon="7.653370199982448"><ele>385.0</ele><time>2026-04-19T12:43:46.884Z</time></trkpt><trkpt lat="45.397248362606575" lon="7.653211556804901"><ele>384.75</ele><time>2026-04-19T12:43:47.884Z</time></trkpt><trkpt lat="45.397308623285284" lon="7.653046381065913"><ele>384.5</ele><time>2026-04-19T12:43:48.884Z</time></trkpt><trkpt lat="45.39736540585888" lon="7.652877815922161"><ele>384.25</ele><time>2026-04-19T12:43:49.884Z</time></trkpt><trkpt lat="45.39742913423504" lon="7.6527029591008615"><ele>384.0</ele><time>2026-04-19T12:43:50.884Z</time></trkpt><trkpt lat="45.3974953136228" lon="7.652525900271303"><ele>384.25</ele><time>2026-04-19T12:43:51.884Z</time></trkpt><trkpt lat="45.39756172779798" lon="7.652346325723635"><ele>384.5</ele><time>2026-04-19T12:43:52.884Z</time></trkpt><trkpt lat="45.39762783518137" lon="7.6521546998636065"><ele>384.75</ele><time>2026-04-19T12:43:53.884Z</time></trkpt><trkpt lat="45.39769804968434" lon="7.651960092333947"><ele>385.0</ele><time>2026-04-19T12:43:54.884Z</time></trkpt><trkpt lat="45.397768282996374" lon="7.65177280651195"><ele>385.0</ele><time>2026-04-19T12:43:55.884Z</time></trkpt><trkpt lat="45.39784077418075" lon="7.65157952041767"><ele>385.0</ele><time>2026-04-19T12:43:56.884Z</time></trkpt><trkpt lat="45.397918105659464" lon="7.6513844629352645"><ele>385.0</ele><time>2026-04-19T12:43:57.884Z</time></trkpt><trkpt lat="45.39800789715783" lon="7.65119237595117"><ele>385.6666666666667</ele><time>2026-04-19T12:43:58.884Z</time></trkpt><trkpt lat="45.39809291674894" lon="7.650999263260207"><ele>386.33333333333337</ele><time>2026-04-19T12:43:59.884Z</time></trkpt><trkpt lat="45.39819017531519" lon="7.650806420545659"><ele>387.0</ele><time>2026-04-19T12:44:00.884Z</time></trkpt><trkpt lat="45.39829043905096" lon="7.650607819791608"><ele>387.0</ele><time>2026-04-19T12:44:01.884Z</time></trkpt><trkpt lat="45.39839437869266" lon="7.650410269215706"><ele>387.0</ele><time>2026-04-19T12:44:02.884Z</time></trkpt><trkpt lat="45.39850177844391" lon="7.650207604500595"><ele>387.0</ele><time>2026-04-19T12:44:03.884Z</time></trkpt><trkpt lat="45.39862282825299" lon="7.650006134217195"><ele>387.0</ele><time>2026-04-19T12:44:04.884Z</time></trkpt><trkpt lat="45.398753735084846" lon="7.649811634918141"><ele>387.0</ele><time>2026-04-19T12:44:05.884Z</time></trkpt><trkpt lat="45.39890624399555" lon="7.6496476087538845"><ele>387.0</ele><time>2026-04-19T12:44:06.884Z</time></trkpt><trkpt lat="45.39904459483044" lon="7.649470662033499"><ele>387.33333333333337</ele><time>2026-04-19T12:44:07.884Z</time></trkpt><trkpt lat="45.39917933416591" lon="7.649270604357579"><ele>387.6666666666667</ele><time>2026-04-19T12:44:08.884Z</time></trkpt><trkpt lat="45.39933098482876" lon="7.649086625508237"><ele>388.0</ele><time>2026-04-19T12:44:09.884Z</time></trkpt><trkpt lat="45.399481690265084" lon="7.64889733254847"><ele>388.0</ele><time>2026-04-19T12:44:10.884Z</time></trkpt><trkpt lat="45.39962940792179" lon="7.648696067275103"><ele>388.0</ele><time>2026-04-19T12:44:11.884Z</time></trkpt><trkpt lat="45.39978621741907" lon="7.6485112137440305"><ele>388.0</ele><time>2026-04-19T12:44:12.884Z</time></trkpt><trkpt lat="45.39993286448678" lon="7.648326864802686"><ele>388.33333333333337</ele><time>2026-04-19T12:44:13.884Z</time></trkpt><trkpt lat="45.400080761285324" lon="7.648143056508614"><ele>388.66666666666663</ele><time>2026-04-19T12:44:14.884Z</time></trkpt><trkpt lat="45.400225955486185" lon="7.647959732083327"><ele>389.0</ele><time>2026-04-19T12:44:15.884Z</time></trkpt><trkpt lat="45.400367600053194" lon="7.64777419938034"><ele>389.66666666666663</ele><time>2026-04-19T12:44:16.884Z</time></trkpt><trkpt lat="45.4005095373341" lon="7.647592503509746"><ele>390.33333333333337</ele><time>2026-04-19T12:44:17.884Z</time></trkpt><trkpt lat="45.40064304144585" lon="7.647424810356564"><ele>391.0</ele><time>2026-04-19T12:44:18.884Z</time></trkpt><trkpt lat="45.40076647860743" lon="7.647251965738881"><ele>391.0</ele><time>2026-04-19T12:44:19.884Z</time></trkpt><trkpt lat="45.40088789386474" lon="7.6471074305145095"><ele>391.0</ele><time>2026-04-19T12:44:20.884Z</time></trkpt><trkpt lat="45.401012209415114" lon="7.646952407704574"><ele>391.0</ele><time>2026-04-19T12:44:21.884Z</time></trkpt><trkpt lat="45.401136405241665" lon="7.646794230003352"><ele>391.33333333333337</ele><time>2026-04-19T12:44:22.883Z</time></trkpt><trkpt lat="45.40125547483152" lon="7.646645338163147"><ele>391.66666666666663</ele><time>2026-04-19T12:44:23.882Z</time></trkpt><trkpt lat="45.40137521894906" lon="7.646486148979406"><ele>392.0</ele><time>2026-04-19T12:44:24.882Z</time></trkpt><trkpt lat="45.40149673154789" lon="7.6463260312547465"><ele>392.3333333333333</ele><time>2026-04-19T12:44:25.883Z</time></trkpt><trkpt lat="45.401620121334986" lon="7.64616016225713"><ele>392.66666666666663</ele><time>2026-04-19T12:44:26.882Z</time></trkpt><trkpt lat="45.40174243677058" lon="7.646002481225835"><ele>393.0</ele><time>2026-04-19T12:44:27.882Z</time></trkpt><trkpt lat="45.40186436390426" lon="7.645837704495712"><ele>393.75</ele><time>2026-04-19T12:44:28.883Z</time></trkpt><trkpt lat="45.40198234741234" lon="7.6456914736916"><ele>394.5</ele><time>2026-04-19T12:44:29.882Z</time></trkpt><trkpt lat="45.40209025251231" lon="7.645546352309047"><ele>395.25</ele><time>2026-04-19T12:44:30.882Z</time></trkpt><trkpt lat="45.402191670644235" lon="7.645425992775377"><ele>396.0</ele><time>2026-04-19T12:44:31.883Z</time></trkpt><trkpt lat="45.40228030937493" lon="7.645297045784127"><ele>396.0</ele><time>2026-04-19T12:44:32.882Z</time></trkpt><trkpt lat="45.40235722782609" lon="7.64517354396844"><ele>396.0</ele><time>2026-04-19T12:44:33.882Z</time></trkpt><trkpt lat="45.40243269940205" lon="7.645072633053033"><ele>396.0</ele><time>2026-04-19T12:44:34.882Z</time></trkpt><trkpt lat="45.402512915047" lon="7.6450042143680275"><ele>396.0</ele><time>2026-04-19T12:44:35.882Z</time></trkpt><trkpt lat="45.4025873630981" lon="7.644934174598643"><ele>396.0</ele><time>2026-04-19T12:44:36.882Z</time></trkpt><trkpt lat="45.40263454633159" lon="7.644837548359328"><ele>396.0</ele><time>2026-04-19T12:44:37.882Z</time></trkpt><trkpt lat="45.40264926835247" lon="7.644724044730842"><ele>396.0</ele><time>2026-04-19T12:44:38.882Z</time></trkpt><trkpt lat="45.40263424782911" lon="7.644609424949164"><ele>396.0</ele><time>2026-04-19T12:44:39.882Z</time></trkpt><trkpt lat="45.40259874319602" lon="7.644500093617898"><ele>396.0</ele><time>2026-04-19T12:44:40.882Z</time></trkpt><trkpt lat="45.402578651032506" lon="7.644369575846404"><ele>396.0</ele><time>2026-04-19T12:44:41.882Z</time></trkpt><trkpt lat="45.4025761836623" lon="7.644225283144409"><ele>396.0</ele><time>2026-04-19T12:44:42.882Z</time></trkpt><trkpt lat="45.40259467297743" lon="7.6440555270693284"><ele>396.0</ele><time>2026-04-19T12:44:43.882Z</time></trkpt><trkpt lat="45.40259930707026" lon="7.643867323038909"><ele>396.0</ele><time>2026-04-19T12:44:44.882Z</time></trkpt><trkpt lat="45.402605882713836" lon="7.6436585150947165"><ele>396.0</ele><time>2026-04-19T12:44:45.882Z</time></trkpt><trkpt lat="45.402608625850256" lon="7.643425893824966"><ele>396.0</ele><time>2026-04-19T12:44:46.882Z</time></trkpt><trkpt lat="45.40261735484992" lon="7.643180246314266"><ele>396.33333333333337</ele><time>2026-04-19T12:44:47.882Z</time></trkpt><trkpt lat="45.402623178953725" lon="7.642915447542648"><ele>396.6666666666667</ele><time>2026-04-19T12:44:48.882Z</time></trkpt><trkpt lat="45.402634521775255" lon="7.642651714724626"><ele>397.0</ele><time>2026-04-19T12:44:49.882Z</time></trkpt><trkpt lat="45.40264529555597" lon="7.642369568078106"><ele>397.33333333333337</ele><time>2026-04-19T12:44:50.882Z</time></trkpt><trkpt lat="45.4026536799665" lon="7.642069894522256"><ele>397.66666666666663</ele><time>2026-04-19T12:44:51.882Z</time></trkpt><trkpt lat="45.40266362484955" lon="7.641792888024721"><ele>398.0</ele><time>2026-04-19T12:44:52.882Z</time></trkpt><trkpt lat="45.402672532814556" lon="7.641511474008595"><ele>397.3333333333333</ele><time>2026-04-19T12:44:53.882Z</time></trkpt><trkpt lat="45.402681295742525" lon="7.641229215746934"><ele>396.66666666666663</ele><time>2026-04-19T12:44:54.882Z</time></trkpt><trkpt lat="45.40268661466034" lon="7.640943543693212"><ele>396.0</ele><time>2026-04-19T12:44:55.882Z</time></trkpt><trkpt lat="45.402701061802425" lon="7.640657076190981"><ele>396.0</ele><time>2026-04-19T12:44:56.882Z</time></trkpt><trkpt lat="45.40271847329431" lon="7.640362241954318"><ele>396.0</ele><time>2026-04-19T12:44:57.882Z</time></trkpt><trkpt lat="45.402743466728026" lon="7.640069508899527"><ele>396.0</ele><time>2026-04-19T12:44:58.882Z</time></trkpt><trkpt lat="45.402765442001105" lon="7.639769295934989"><ele>396.0</ele><time>2026-04-19T12:44:59.882Z</time></trkpt><trkpt lat="45.40279521606528" lon="7.639473431578656"><ele>396.0</ele><time>2026-04-19T12:45:00.882Z</time></trkpt><trkpt lat="45.40282741010548" lon="7.639174704199226"><ele>396.0</ele><time>2026-04-19T12:45:01.882Z</time></trkpt><trkpt lat="45.4028595916454" lon="7.638875578238813"><ele>397.0</ele><time>2026-04-19T12:45:02.882Z</time></trkpt><trkpt lat="45.402895466665385" lon="7.6385786301340195"><ele>398.0</ele><time>2026-04-19T12:45:03.882Z</time></trkpt><trkpt lat="45.4029363388365" lon="7.638282648593961"><ele>399.0</ele><time>2026-04-19T12:45:04.882Z</time></trkpt><trkpt lat="45.40298133520627" lon="7.6379887614578"><ele>399.66666666666663</ele><time>2026-04-19T12:45:05.882Z</time></trkpt><trkpt lat="45.40303181185274" lon="7.63769441050727"><ele>400.3333333333333</ele><time>2026-04-19T12:45:06.882Z</time></trkpt><trkpt lat="45.40308397615191" lon="7.637399769870147"><ele>401.0</ele><time>2026-04-19T12:45:07.881Z</time></trkpt><trkpt lat="45.40313850266792" lon="7.637105274766112"><ele>400.66666666666663</ele><time>2026-04-19T12:45:08.881Z</time></trkpt><trkpt lat="45.403193760627765" lon="7.636812805326756"><ele>400.33333333333337</ele><time>2026-04-19T12:45:09.881Z</time></trkpt><trkpt lat="45.40325142065533" lon="7.636521354024914"><ele>400.0</ele><time>2026-04-19T12:45:10.881Z</time></trkpt><trkpt lat="45.40331052396592" lon="7.636230267044792"><ele>401.0</ele><time>2026-04-19T12:45:11.881Z</time></trkpt><trkpt lat="45.403372800712354" lon="7.635938761321036"><ele>402.0</ele><time>2026-04-19T12:45:12.881Z</time></trkpt><trkpt lat="45.40343958237813" lon="7.635650842037484"><ele>403.0</ele><time>2026-04-19T12:45:13.88Z</time></trkpt><trkpt lat="45.403509199236375" lon="7.635362524019803"><ele>403.33333333333337</ele><time>2026-04-19T12:45:14.88Z</time></trkpt><trkpt lat="45.40357946916395" lon="7.635075645518187"><ele>403.66666666666663</ele><time>2026-04-19T12:45:15.88Z</time></trkpt><trkpt lat="45.40365050570759" lon="7.634785594965331"><ele>404.0</ele><time>2026-04-19T12:45:16.88Z</time></trkpt><trkpt lat="45.40372385442889" lon="7.634495601039665"><ele>404.0</ele><time>2026-04-19T12:45:17.88Z</time></trkpt><trkpt lat="45.403802774283534" lon="7.634210849280862"><ele>404.0</ele><time>2026-04-19T12:45:18.88Z</time></trkpt><trkpt lat="45.40388451056335" lon="7.63392605008353"><ele>404.0</ele><time>2026-04-19T12:45:19.88Z</time></trkpt><trkpt lat="45.403969157913544" lon="7.633645860275898"><ele>404.3333333333333</ele><time>2026-04-19T12:45:20.88Z</time></trkpt><trkpt lat="45.4040564803923" lon="7.633364494542559"><ele>404.66666666666663</ele><time>2026-04-19T12:45:21.88Z</time></trkpt><trkpt lat="45.40415303097455" lon="7.633086711146247"><ele>405.0</ele><time>2026-04-19T12:45:22.88Z</time></trkpt><trkpt lat="45.40424639286826" lon="7.632804579801541"><ele>405.0</ele><time>2026-04-19T12:45:23.88Z</time></trkpt><trkpt lat="45.40434387820162" lon="7.6325245941937006"><ele>405.0</ele><time>2026-04-19T12:45:24.88Z</time></trkpt><trkpt lat="45.40444751121471" lon="7.6322432346692635"><ele>405.0</ele><time>2026-04-19T12:45:25.88Z</time></trkpt><trkpt lat="45.40455115332277" lon="7.631957037633376"><ele>405.0</ele><time>2026-04-19T12:45:26.88Z</time></trkpt><trkpt lat="45.40465816407451" lon="7.631671290673305"><ele>405.0</ele><time>2026-04-19T12:45:27.88Z</time></trkpt><trkpt lat="45.40476819929908" lon="7.6313859712552725"><ele>406.0</ele><time>2026-04-19T12:45:28.88Z</time></trkpt><trkpt lat="45.40488310658446" lon="7.631104335871196"><ele>407.0</ele><time>2026-04-19T12:45:29.88Z</time></trkpt><trkpt lat="45.40500217996758" lon="7.630824725656668"><ele>407.0</ele><time>2026-04-19T12:45:30.88Z</time></trkpt><trkpt lat="45.405125178707905" lon="7.630542122813896"><ele>407.0</ele><time>2026-04-19T12:45:31.88Z</time></trkpt><trkpt lat="45.405249743970394" lon="7.630261617588743"><ele>408.0</ele><time>2026-04-19T12:45:32.88Z</time></trkpt><trkpt lat="45.40538130717086" lon="7.6299835817904995"><ele>409.0</ele><time>2026-04-19T12:45:33.88Z</time></trkpt><trkpt lat="45.40550724785374" lon="7.629710692637331"><ele>410.0</ele><time>2026-04-19T12:45:34.88Z</time></trkpt><trkpt lat="45.40563680826457" lon="7.629442580758967"><ele>411.0</ele><time>2026-04-19T12:45:35.88Z</time></trkpt><trkpt lat="45.40576724736764" lon="7.629177129239065"><ele>411.0</ele><time>2026-04-19T12:45:36.88Z</time></trkpt><trkpt lat="45.405901254180435" lon="7.6289116336702465"><ele>411.0</ele><time>2026-04-19T12:45:37.88Z</time></trkpt><trkpt lat="45.40603720491319" lon="7.62864662239346"><ele>411.33333333333337</ele><time>2026-04-19T12:45:38.88Z</time></trkpt><trkpt lat="45.4061767111953" lon="7.6284048839594565"><ele>411.6666666666667</ele><time>2026-04-19T12:45:39.88Z</time></trkpt><trkpt lat="45.406312395902184" lon="7.62815055892132"><ele>412.0</ele><time>2026-04-19T12:45:40.88Z</time></trkpt><trkpt lat="45.40645681634553" lon="7.627905414282011"><ele>412.5</ele><time>2026-04-19T12:45:41.88Z</time></trkpt><trkpt lat="45.40660231466629" lon="7.627659790597689"><ele>413.0</ele><time>2026-04-19T12:45:42.88Z</time></trkpt><trkpt lat="45.4067483687943" lon="7.627416329358698"><ele>413.0</ele><time>2026-04-19T12:45:43.88Z</time></trkpt><trkpt lat="45.40689139844998" lon="7.6271720804764955"><ele>413.0</ele><time>2026-04-19T12:45:44.88Z</time></trkpt><trkpt lat="45.40704067774309" lon="7.626943351644148"><ele>413.0</ele><time>2026-04-19T12:45:45.88Z</time></trkpt><trkpt lat="45.407184292832156" lon="7.62671354496739"><ele>413.0</ele><time>2026-04-19T12:45:46.88Z</time></trkpt><trkpt lat="45.407331709745236" lon="7.626491095414401"><ele>413.0</ele><time>2026-04-19T12:45:47.88Z</time></trkpt><trkpt lat="45.407481828224995" lon="7.62627036427007"><ele>413.0</ele><time>2026-04-19T12:45:48.88Z</time></trkpt><trkpt lat="45.40763724737525" lon="7.626044249591398"><ele>413.0</ele><time>2026-04-19T12:45:49.88Z</time></trkpt><trkpt lat="45.40779059994416" lon="7.625830732952988"><ele>413.0</ele><time>2026-04-19T12:45:50.88Z</time></trkpt><trkpt lat="45.40794425885113" lon="7.625621292409056"><ele>413.0</ele><time>2026-04-19T12:45:51.88Z</time></trkpt><trkpt lat="45.408105973301076" lon="7.625414983731917"><ele>413.0</ele><time>2026-04-19T12:45:52.88Z</time></trkpt><trkpt lat="45.4082675130742" lon="7.625205793423506"><ele>413.0</ele><time>2026-04-19T12:45:53.88Z</time></trkpt><trkpt lat="45.408426567890345" lon="7.624987463317154"><ele>413.0</ele><time>2026-04-19T12:45:54.88Z</time></trkpt><trkpt lat="45.408588243593655" lon="7.624776274627303"><ele>413.0</ele><time>2026-04-19T12:45:55.88Z</time></trkpt><trkpt lat="45.40874438768786" lon="7.624564160984061"><ele>413.0</ele><time>2026-04-19T12:45:56.88Z</time></trkpt><trkpt lat="45.40890362080373" lon="7.62437762270382"><ele>413.0</ele><time>2026-04-19T12:45:57.88Z</time></trkpt><trkpt lat="45.40905571123461" lon="7.624201536913229"><ele>416.0</ele><time>2026-04-19T12:45:58.88Z</time></trkpt><trkpt lat="45.40921030826444" lon="7.62404524777944"><ele>419.0</ele><time>2026-04-19T12:45:59.88Z</time></trkpt><trkpt lat="45.40936849365694" lon="7.623903715995545"><ele>422.0</ele><time>2026-04-19T12:46:00.88Z</time></trkpt><trkpt lat="45.40953399864723" lon="7.6237768363375205"><ele>422.66666666666663</ele><time>2026-04-19T12:46:01.88Z</time></trkpt><trkpt lat="45.4097038278758" lon="7.623647007642345"><ele>423.33333333333337</ele><time>2026-04-19T12:46:02.88Z</time></trkpt><trkpt lat="45.40987925557308" lon="7.6235322678927835"><ele>424.0</ele><time>2026-04-19T12:46:03.88Z</time></trkpt><trkpt lat="45.41004275084876" lon="7.623384019046852"><ele>424.0</ele><time>2026-04-19T12:46:04.88Z</time></trkpt><trkpt lat="45.410203255603626" lon="7.623230788174286"><ele>424.0</ele><time>2026-04-19T12:46:05.88Z</time></trkpt><trkpt lat="45.41035023715748" lon="7.623037480486735"><ele>424.0</ele><time>2026-04-19T12:46:06.88Z</time></trkpt><trkpt lat="45.41048820332844" lon="7.6228285165956535"><ele>425.0</ele><time>2026-04-19T12:46:07.88Z</time></trkpt><trkpt lat="45.41061237501094" lon="7.622592861547249"><ele>426.0</ele><time>2026-04-19T12:46:08.88Z</time></trkpt><trkpt lat="45.410733553396895" lon="7.62235102650109"><ele>427.0</ele><time>2026-04-19T12:46:09.88Z</time></trkpt><trkpt lat="45.410852997165755" lon="7.6221147449375115"><ele>424.6666666666667</ele><time>2026-04-19T12:46:10.88Z</time></trkpt><trkpt lat="45.41099305083055" lon="7.621877122255618"><ele>422.33333333333337</ele><time>2026-04-19T12:46:11.88Z</time></trkpt><trkpt lat="45.41113239159205" lon="7.621634250839823"><ele>420.0</ele><time>2026-04-19T12:46:12.88Z</time></trkpt><trkpt lat="45.411269099501986" lon="7.621388405215679"><ele>420.66666666666663</ele><time>2026-04-19T12:46:13.88Z</time></trkpt><trkpt lat="45.411407740883156" lon="7.621143367738232"><ele>421.3333333333333</ele><time>2026-04-19T12:46:14.88Z</time></trkpt><trkpt lat="45.411545579652305" lon="7.620914565244381"><ele>422.0</ele><time>2026-04-19T12:46:15.88Z</time></trkpt><trkpt lat="45.411676181381495" lon="7.620705876756051"><ele>422.0</ele><time>2026-04-19T12:46:16.88Z</time></trkpt><trkpt lat="45.41179978627666" lon="7.620515576330568"><ele>422.0</ele><time>2026-04-19T12:46:17.88Z</time></trkpt><trkpt lat="45.411912048884474" lon="7.620328962103749"><ele>422.0</ele><time>2026-04-19T12:46:18.88Z</time></trkpt><trkpt lat="45.412022123974005" lon="7.620152204709836"><ele>424.3333333333333</ele><time>2026-04-19T12:46:19.88Z</time></trkpt><trkpt lat="45.41222755756101" lon="7.619833141493656"><ele>426.66666666666663</ele><time>2026-04-19T12:46:21.88Z</time></trkpt><trkpt lat="45.412325274065545" lon="7.619687754403126"><ele>429.0</ele><time>2026-04-19T12:46:22.88Z</time></trkpt><trkpt lat="45.41242357205292" lon="7.619542659477961"><ele>426.5</ele><time>2026-04-19T12:46:23.88Z</time></trkpt><trkpt lat="45.41251981241329" lon="7.619408947780892"><ele>424.0</ele><time>2026-04-19T12:46:24.88Z</time></trkpt><trkpt lat="45.412610815405124" lon="7.619285165972421"><ele>421.5</ele><time>2026-04-19T12:46:25.88Z</time></trkpt><trkpt lat="45.41269220975899" lon="7.619169430371458"><ele>419.0</ele><time>2026-04-19T12:46:26.88Z</time></trkpt><trkpt lat="45.41276923771668" lon="7.619065041382145"><ele>419.0</ele><time>2026-04-19T12:46:27.88Z</time></trkpt><trkpt lat="45.4128318029241" lon="7.618992271121536"><ele>419.0</ele><time>2026-04-19T12:46:28.878Z</time></trkpt><trkpt lat="45.41288515899575" lon="7.618940268551301"><ele>419.0</ele><time>2026-04-19T12:46:29.879Z</time></trkpt><trkpt lat="45.41299989396702" lon="7.618910095864938"><ele>419.0</ele><time>2026-04-19T12:46:31.878Z</time></trkpt><trkpt lat="45.41309132197381" lon="7.618990380726903"><ele>419.0</ele><time>2026-04-19T12:46:33.879Z</time></trkpt><trkpt lat="45.41319370485706" lon="7.619073710446611"><ele>420.16666666666663</ele><time>2026-04-19T12:46:35.879Z</time></trkpt><trkpt lat="45.413302572579035" lon="7.619036886252934"><ele>421.3333333333333</ele><time>2026-04-19T12:46:37.878Z</time></trkpt><trkpt lat="45.41335260104886" lon="7.618888690058099"><ele>422.5</ele><time>2026-04-19T12:46:39.878Z</time></trkpt><trkpt lat="45.41333986771336" lon="7.618798255798943"><ele>423.66666666666663</ele><time>2026-04-19T12:46:40.878Z</time></trkpt><trkpt lat="45.41330855468821" lon="7.6187020311804385"><ele>424.8333333333333</ele><time>2026-04-19T12:46:41.878Z</time></trkpt><trkpt lat="45.41328052750473" lon="7.618596425771428"><ele>426.0</ele><time>2026-04-19T12:46:42.878Z</time></trkpt><trkpt lat="45.41327783039325" lon="7.618489712535341"><ele>426.0</ele><time>2026-04-19T12:46:43.878Z</time></trkpt><trkpt lat="45.4132964706853" lon="7.618374135222679"><ele>426.0</ele><time>2026-04-19T12:46:44.878Z</time></trkpt><trkpt lat="45.41334053258336" lon="7.618260474885424"><ele>426.0</ele><time>2026-04-19T12:46:45.878Z</time></trkpt><trkpt lat="45.413408915347475" lon="7.618163407642588"><ele>426.0</ele><time>2026-04-19T12:46:46.878Z</time></trkpt><trkpt lat="45.41348693216935" lon="7.618061972042115"><ele>426.0</ele><time>2026-04-19T12:46:47.878Z</time></trkpt><trkpt lat="45.4135742925948" lon="7.617931945488426"><ele>425.75</ele><time>2026-04-19T12:46:48.878Z</time></trkpt><trkpt lat="45.41366198177" lon="7.6177819707903955"><ele>425.5</ele><time>2026-04-19T12:46:49.878Z</time></trkpt><trkpt lat="45.413757694935995" lon="7.617625979755102"><ele>425.25</ele><time>2026-04-19T12:46:50.878Z</time></trkpt><trkpt lat="45.413848876014335" lon="7.617477603291117"><ele>425.0</ele><time>2026-04-19T12:46:51.878Z</time></trkpt><trkpt lat="45.413940316912004" lon="7.617326720189657"><ele>425.0</ele><time>2026-04-19T12:46:52.878Z</time></trkpt><trkpt lat="45.414031820914964" lon="7.617174266125783"><ele>425.0</ele><time>2026-04-19T12:46:53.878Z</time></trkpt><trkpt lat="45.41412113975223" lon="7.617020696370176"><ele>425.0</ele><time>2026-04-19T12:46:54.878Z</time></trkpt><trkpt lat="45.414206511100275" lon="7.616864063394334"><ele>425.0</ele><time>2026-04-19T12:46:55.878Z</time></trkpt><trkpt lat="45.414284384582714" lon="7.616700903560013"><ele>425.0</ele><time>2026-04-19T12:46:56.878Z</time></trkpt><trkpt lat="45.414362468593524" lon="7.616546504122119"><ele>425.0</ele><time>2026-04-19T12:46:57.878Z</time></trkpt><trkpt lat="45.414441078258" lon="7.6163973798659805"><ele>425.0</ele><time>2026-04-19T12:46:58.878Z</time></trkpt><trkpt lat="45.414510532650574" lon="7.616237083360086"><ele>425.0</ele><time>2026-04-19T12:46:59.878Z</time></trkpt><trkpt lat="45.414582383627675" lon="7.616076353727537"><ele>425.25</ele><time>2026-04-19T12:47:00.878Z</time></trkpt><trkpt lat="45.41465465580184" lon="7.615916077070782"><ele>425.5</ele><time>2026-04-19T12:47:01.878Z</time></trkpt><trkpt lat="45.414722852998445" lon="7.615751281269315"><ele>425.75</ele><time>2026-04-19T12:47:02.878Z</time></trkpt><trkpt lat="45.41479238876801" lon="7.615576741669668"><ele>426.0</ele><time>2026-04-19T12:47:03.878Z</time></trkpt><trkpt lat="45.41486290321149" lon="7.615400063724839"><ele>426.33333333333337</ele><time>2026-04-19T12:47:04.878Z</time></trkpt><trkpt lat="45.41492775089209" lon="7.61521232765989"><ele>426.6666666666667</ele><time>2026-04-19T12:47:05.878Z</time></trkpt><trkpt lat="45.41499259983888" lon="7.615019395870652"><ele>427.0</ele><time>2026-04-19T12:47:06.878Z</time></trkpt><trkpt lat="45.415053226830885" lon="7.6148196557797725"><ele>427.0</ele><time>2026-04-19T12:47:07.878Z</time></trkpt><trkpt lat="45.415120388863066" lon="7.614613337480702"><ele>427.0</ele><time>2026-04-19T12:47:08.878Z</time></trkpt><trkpt lat="45.415189129233276" lon="7.614409174548489"><ele>427.0</ele><time>2026-04-19T12:47:09.878Z</time></trkpt><trkpt lat="45.41525314467382" lon="7.614199664207394"><ele>426.6666666666667</ele><time>2026-04-19T12:47:10.878Z</time></trkpt><trkpt lat="45.415317519796524" lon="7.613983803290523"><ele>426.33333333333337</ele><time>2026-04-19T12:47:11.878Z</time></trkpt><trkpt lat="45.415383144067825" lon="7.613760498012443"><ele>426.0</ele><time>2026-04-19T12:47:12.878Z</time></trkpt><trkpt lat="45.41544936779231" lon="7.613529127244856"><ele>427.33333333333337</ele><time>2026-04-19T12:47:13.878Z</time></trkpt><trkpt lat="45.41551579054648" lon="7.61328767045451"><ele>428.6666666666667</ele><time>2026-04-19T12:47:14.878Z</time></trkpt><trkpt lat="45.415586586661476" lon="7.613036603913211"><ele>430.0</ele><time>2026-04-19T12:47:15.878Z</time></trkpt><trkpt lat="45.41565870045592" lon="7.6127730105621"><ele>430.0</ele><time>2026-04-19T12:47:16.878Z</time></trkpt><trkpt lat="45.41573035457004" lon="7.612506284782421"><ele>430.0</ele><time>2026-04-19T12:47:17.878Z</time></trkpt><trkpt lat="45.41579945705082" lon="7.612250420763573"><ele>430.0</ele><time>2026-04-19T12:47:18.878Z</time></trkpt><trkpt lat="45.41587127198486" lon="7.611983007452482"><ele>429.6666666666667</ele><time>2026-04-19T12:47:19.878Z</time></trkpt><trkpt lat="45.415944727052995" lon="7.61171376252714"><ele>429.33333333333337</ele><time>2026-04-19T12:47:20.878Z</time></trkpt><trkpt lat="45.416017718525694" lon="7.611438233887503"><ele>429.0</ele><time>2026-04-19T12:47:21.878Z</time></trkpt><trkpt lat="45.41609178869219" lon="7.611159123534836"><ele>429.33333333333337</ele><time>2026-04-19T12:47:22.878Z</time></trkpt><trkpt lat="45.41616872204158" lon="7.6108880336806095"><ele>429.6666666666667</ele><time>2026-04-19T12:47:23.878Z</time></trkpt><trkpt lat="45.41623748414627" lon="7.610614882953426"><ele>430.0</ele><time>2026-04-19T12:47:24.878Z</time></trkpt><trkpt lat="45.41631083247376" lon="7.610365654811628"><ele>431.0</ele><time>2026-04-19T12:47:25.878Z</time></trkpt><trkpt lat="45.41638232213365" lon="7.610111151265821"><ele>432.0</ele><time>2026-04-19T12:47:26.878Z</time></trkpt><trkpt lat="45.41645183425705" lon="7.609857943915373"><ele>433.0</ele><time>2026-04-19T12:47:27.878Z</time></trkpt><trkpt lat="45.41652111251309" lon="7.609593541364287"><ele>433.0</ele><time>2026-04-19T12:47:28.878Z</time></trkpt><trkpt lat="45.41659236383842" lon="7.609328305719559"><ele>433.0</ele><time>2026-04-19T12:47:29.878Z</time></trkpt><trkpt lat="45.416663202116844" lon="7.609050468763735"><ele>433.0</ele><time>2026-04-19T12:47:30.878Z</time></trkpt><trkpt lat="45.41673250841677" lon="7.608773021139184"><ele>433.33333333333337</ele><time>2026-04-19T12:47:31.878Z</time></trkpt><trkpt lat="45.41680414758241" lon="7.608494594770085"><ele>433.66666666666663</ele><time>2026-04-19T12:47:32.878Z</time></trkpt><trkpt lat="45.416873184396735" lon="7.608223742486894"><ele>434.0</ele><time>2026-04-19T12:47:33.878Z</time></trkpt><trkpt lat="45.416931561638876" lon="7.607942034220518"><ele>434.0</ele><time>2026-04-19T12:47:34.878Z</time></trkpt><trkpt lat="45.41699646407428" lon="7.607668006145333"><ele>434.0</ele><time>2026-04-19T12:47:35.878Z</time></trkpt><trkpt lat="45.417037972772384" lon="7.607386358478713"><ele>434.0</ele><time>2026-04-19T12:47:36.878Z</time></trkpt><trkpt lat="45.41705171381729" lon="7.607101714939579"><ele>437.0</ele><time>2026-04-19T12:47:37.878Z</time></trkpt><trkpt lat="45.41707100743755" lon="7.606818851953818"><ele>440.0</ele><time>2026-04-19T12:47:38.878Z</time></trkpt><trkpt lat="45.4170971625377" lon="7.606534615097122"><ele>443.0</ele><time>2026-04-19T12:47:39.878Z</time></trkpt><trkpt lat="45.41707963692167" lon="7.606245511147911"><ele>445.66666666666663</ele><time>2026-04-19T12:47:40.878Z</time></trkpt><trkpt lat="45.41706868772515" lon="7.605956479716609"><ele>448.33333333333337</ele><time>2026-04-19T12:47:41.878Z</time></trkpt><trkpt lat="45.41704972679994" lon="7.605665126838106"><ele>451.0</ele><time>2026-04-19T12:47:42.878Z</time></trkpt><trkpt lat="45.41702453179147" lon="7.605367749858923"><ele>454.33333333333337</ele><time>2026-04-19T12:47:43.878Z</time></trkpt><trkpt lat="45.4169961608787" lon="7.60507730164194"><ele>457.66666666666663</ele><time>2026-04-19T12:47:44.878Z</time></trkpt><trkpt lat="45.41698229893496" lon="7.604776598257478"><ele>461.0</ele><time>2026-04-19T12:47:45.878Z</time></trkpt><trkpt lat="45.416966232824805" lon="7.604471200710395"><ele>465.5</ele><time>2026-04-19T12:47:46.878Z</time></trkpt><trkpt lat="45.416967119371456" lon="7.604150694819485"><ele>470.0</ele><time>2026-04-19T12:47:47.878Z</time></trkpt><trkpt lat="45.416986861686865" lon="7.603825896292976"><ele>472.0</ele><time>2026-04-19T12:47:48.878Z</time></trkpt><trkpt lat="45.41702363385528" lon="7.603521186057058"><ele>474.0</ele><time>2026-04-19T12:47:49.878Z</time></trkpt><trkpt lat="45.41708603294967" lon="7.603230201758839"><ele>476.0</ele><time>2026-04-19T12:47:50.878Z</time></trkpt><trkpt lat="45.41717459590241" lon="7.602945677225571"><ele>462.0</ele><time>2026-04-19T12:47:51.878Z</time></trkpt><trkpt lat="45.41727375478651" lon="7.602660488529259"><ele>448.0</ele><time>2026-04-19T12:47:52.878Z</time></trkpt><trkpt lat="45.4173710312425" lon="7.602369552501178"><ele>448.0</ele><time>2026-04-19T12:47:53.878Z</time></trkpt><trkpt lat="45.41747232032542" lon="7.602087093920809"><ele>448.0</ele><time>2026-04-19T12:47:54.878Z</time></trkpt><trkpt lat="45.417572696203884" lon="7.601795281536702"><ele>451.6666666666667</ele><time>2026-04-19T12:47:55.878Z</time></trkpt><trkpt lat="45.41765813105661" lon="7.601499515897199"><ele>455.33333333333337</ele><time>2026-04-19T12:47:56.878Z</time></trkpt><trkpt lat="45.41772752511765" lon="7.601203695476749"><ele>459.0</ele><time>2026-04-19T12:47:57.878Z</time></trkpt><trkpt lat="45.4177812111858" lon="7.600908313990489"><ele>463.0</ele><time>2026-04-19T12:47:58.878Z</time></trkpt><trkpt lat="45.41782812452156" lon="7.600602115255216"><ele>467.0</ele><time>2026-04-19T12:47:59.878Z</time></trkpt><trkpt lat="45.41786378676044" lon="7.600288326049159"><ele>471.0</ele><time>2026-04-19T12:48:00.878Z</time></trkpt><trkpt lat="45.41787694237615" lon="7.59996500775898"><ele>476.0</ele><time>2026-04-19T12:48:01.878Z</time></trkpt><trkpt lat="45.41787939594978" lon="7.599633164293923"><ele>481.0</ele><time>2026-04-19T12:48:02.878Z</time></trkpt><trkpt lat="45.4178678976912" lon="7.5992914948869785"><ele>481.0</ele><time>2026-04-19T12:48:03.878Z</time></trkpt><trkpt lat="45.417857647613395" lon="7.598945748182369"><ele>481.0</ele><time>2026-04-19T12:48:04.878Z</time></trkpt><trkpt lat="45.417848822328835" lon="7.598595223350255"><ele>481.0</ele><time>2026-04-19T12:48:05.878Z</time></trkpt><trkpt lat="45.4178407145943" lon="7.598240880612509"><ele>481.0</ele><time>2026-04-19T12:48:06.878Z</time></trkpt><trkpt lat="45.417827609569976" lon="7.59788137982685"><ele>476.0</ele><time>2026-04-19T12:48:07.878Z</time></trkpt><trkpt lat="45.41781813005576" lon="7.5975215185736085"><ele>471.0</ele><time>2026-04-19T12:48:08.878Z</time></trkpt><trkpt lat="45.417800789039084" lon="7.597155571757104"><ele>464.0</ele><time>2026-04-19T12:48:09.878Z</time></trkpt><trkpt lat="45.4177938583678" lon="7.59679193762884"><ele>457.0</ele><time>2026-04-19T12:48:10.878Z</time></trkpt><trkpt lat="45.41777690972628" lon="7.5964199687088705"><ele>453.0</ele><time>2026-04-19T12:48:11.878Z</time></trkpt><trkpt lat="45.41776520702922" lon="7.596058465476371"><ele>449.0</ele><time>2026-04-19T12:48:12.878Z</time></trkpt><trkpt lat="45.41775043709216" lon="7.595681310653745"><ele>446.0</ele><time>2026-04-19T12:48:13.878Z</time></trkpt><trkpt lat="45.417749033526185" lon="7.595312809202205"><ele>443.0</ele><time>2026-04-19T12:48:14.878Z</time></trkpt><trkpt lat="45.417732402840066" lon="7.594939088953736"><ele>443.0</ele><time>2026-04-19T12:48:15.877Z</time></trkpt><trkpt lat="45.417724470989164" lon="7.594569264174078"><ele>443.0</ele><time>2026-04-19T12:48:16.877Z</time></trkpt><trkpt lat="45.41771513499942" lon="7.594198030674506"><ele>445.0</ele><time>2026-04-19T12:48:17.877Z</time></trkpt><trkpt lat="45.4177052745534" lon="7.5938288976374855"><ele>447.0</ele><time>2026-04-19T12:48:18.877Z</time></trkpt><trkpt lat="45.41769552936584" lon="7.59346547621741"><ele>448.5</ele><time>2026-04-19T12:48:19.877Z</time></trkpt><trkpt lat="45.417686862921904" lon="7.593128271367095"><ele>450.0</ele><time>2026-04-19T12:48:20.877Z</time></trkpt><trkpt lat="45.41767771597312" lon="7.592806775807939"><ele>450.0</ele><time>2026-04-19T12:48:21.877Z</time></trkpt><trkpt lat="45.41766959862933" lon="7.592513518739894"><ele>450.0</ele><time>2026-04-19T12:48:22.877Z</time></trkpt><trkpt lat="45.41765984833424" lon="7.592222824490656"><ele>450.0</ele><time>2026-04-19T12:48:23.877Z</time></trkpt><trkpt lat="45.41766416089004" lon="7.591934222994623"><ele>450.0</ele><time>2026-04-19T12:48:24.877Z</time></trkpt><trkpt lat="45.417680232069536" lon="7.591638542514272"><ele>450.0</ele><time>2026-04-19T12:48:25.877Z</time></trkpt><trkpt lat="45.417710229524594" lon="7.591343680806484"><ele>450.0</ele><time>2026-04-19T12:48:26.877Z</time></trkpt><trkpt lat="45.41775132699028" lon="7.59104330324235"><ele>450.0</ele><time>2026-04-19T12:48:27.877Z</time></trkpt><trkpt lat="45.417802250315916" lon="7.590741252592291"><ele>450.0</ele><time>2026-04-19T12:48:28.877Z</time></trkpt><trkpt lat="45.41787011896216" lon="7.590439080624222"><ele>450.0</ele><time>2026-04-19T12:48:29.877Z</time></trkpt><trkpt lat="45.4179540865977" lon="7.5901393976759675"><ele>462.0</ele><time>2026-04-19T12:48:30.877Z</time></trkpt><trkpt lat="45.41805827436222" lon="7.589847559444153"><ele>474.0</ele><time>2026-04-19T12:48:31.877Z</time></trkpt><trkpt lat="45.41817810375837" lon="7.589566945774806"><ele>473.0</ele><time>2026-04-19T12:48:32.877Z</time></trkpt><trkpt lat="45.41831207276944" lon="7.5892906291133615"><ele>472.0</ele><time>2026-04-19T12:48:33.875Z</time></trkpt><trkpt lat="45.41845570522885" lon="7.589017045147754"><ele>472.0</ele><time>2026-04-19T12:48:34.875Z</time></trkpt><trkpt lat="45.418609721302715" lon="7.588751364680804"><ele>472.0</ele><time>2026-04-19T12:48:35.875Z</time></trkpt><trkpt lat="45.418771639974125" lon="7.588502226131864"><ele>471.5</ele><time>2026-04-19T12:48:36.875Z</time></trkpt><trkpt lat="45.41892955195072" lon="7.588245855807138"><ele>471.0</ele><time>2026-04-19T12:48:37.875Z</time></trkpt><trkpt lat="45.41908840536924" lon="7.587973484182857"><ele>466.5</ele><time>2026-04-19T12:48:38.875Z</time></trkpt><trkpt lat="45.41924130606263" lon="7.587694477369687"><ele>462.0</ele><time>2026-04-19T12:48:39.875Z</time></trkpt><trkpt lat="45.419392983089864" lon="7.587430101574872"><ele>462.0</ele><time>2026-04-19T12:48:40.875Z</time></trkpt><trkpt lat="45.419543809805454" lon="7.587184818101856"><ele>462.0</ele><time>2026-04-19T12:48:41.875Z</time></trkpt><trkpt lat="45.419683136750635" lon="7.586924279841686"><ele>461.5</ele><time>2026-04-19T12:48:42.875Z</time></trkpt><trkpt lat="45.41980854394731" lon="7.586632887209228"><ele>461.0</ele><time>2026-04-19T12:48:43.875Z</time></trkpt><trkpt lat="45.419914827772274" lon="7.58633052272113"><ele>459.5</ele><time>2026-04-19T12:48:44.875Z</time></trkpt><trkpt lat="45.42000880123616" lon="7.586017977483005"><ele>458.0</ele><time>2026-04-19T12:48:45.875Z</time></trkpt><trkpt lat="45.42008947562701" lon="7.5857074082596725"><ele>458.0</ele><time>2026-04-19T12:48:46.875Z</time></trkpt><trkpt lat="45.42016053208208" lon="7.585398181390698"><ele>458.0</ele><time>2026-04-19T12:48:47.875Z</time></trkpt><trkpt lat="45.42021854450184" lon="7.585081359870696"><ele>458.5</ele><time>2026-04-19T12:48:48.875Z</time></trkpt><trkpt lat="45.42027329257208" lon="7.584766872055362"><ele>459.0</ele><time>2026-04-19T12:48:49.875Z</time></trkpt><trkpt lat="45.420338038402846" lon="7.584444224670908"><ele>459.0</ele><time>2026-04-19T12:48:50.875Z</time></trkpt><trkpt lat="45.42039805917857" lon="7.584136500926236"><ele>459.0</ele><time>2026-04-19T12:48:51.875Z</time></trkpt><trkpt lat="45.420456391197725" lon="7.583810492925796"><ele>461.5</ele><time>2026-04-19T12:48:52.875Z</time></trkpt><trkpt lat="45.42050406797192" lon="7.58349016857832"><ele>464.0</ele><time>2026-04-19T12:48:53.875Z</time></trkpt><trkpt lat="45.42054892997927" lon="7.583164939658094"><ele>465.0</ele><time>2026-04-19T12:48:54.875Z</time></trkpt><trkpt lat="45.420593068660175" lon="7.582832192197171"><ele>466.0</ele><time>2026-04-19T12:48:55.875Z</time></trkpt><trkpt lat="45.42063824384053" lon="7.582497352492405"><ele>466.0</ele><time>2026-04-19T12:48:56.875Z</time></trkpt><trkpt lat="45.4206872411134" lon="7.5821528027660285"><ele>466.0</ele><time>2026-04-19T12:48:57.875Z</time></trkpt><trkpt lat="45.420738822132485" lon="7.581803201970323"><ele>464.5</ele><time>2026-04-19T12:48:58.875Z</time></trkpt><trkpt lat="45.420786605049585" lon="7.581451992980164"><ele>463.0</ele><time>2026-04-19T12:48:59.875Z</time></trkpt><trkpt lat="45.42083096002397" lon="7.581113434812275"><ele>463.0</ele><time>2026-04-19T12:49:00.875Z</time></trkpt><trkpt lat="45.42088045026876" lon="7.580773907673223"><ele>463.0</ele><time>2026-04-19T12:49:01.875Z</time></trkpt><trkpt lat="45.42093001112973" lon="7.580433244422451"><ele>462.5</ele><time>2026-04-19T12:49:02.875Z</time></trkpt><trkpt lat="45.42096620383938" lon="7.580094247367176"><ele>462.0</ele><time>2026-04-19T12:49:03.875Z</time></trkpt><trkpt lat="45.420980939124" lon="7.5797430733309366"><ele>463.0</ele><time>2026-04-19T12:49:04.875Z</time></trkpt><trkpt lat="45.42098086181721" lon="7.579396161870525"><ele>464.0</ele><time>2026-04-19T12:49:05.875Z</time></trkpt><trkpt lat="45.420969432923066" lon="7.579048229020421"><ele>464.0</ele><time>2026-04-19T12:49:06.875Z</time></trkpt><trkpt lat="45.42095283310447" lon="7.578694446001411"><ele>464.0</ele><time>2026-04-19T12:49:07.875Z</time></trkpt><trkpt lat="45.42093471127231" lon="7.5783449872041775"><ele>464.5</ele><time>2026-04-19T12:49:08.875Z</time></trkpt><trkpt lat="45.420911335880554" lon="7.578003374078135"><ele>465.0</ele><time>2026-04-19T12:49:09.875Z</time></trkpt><trkpt lat="45.420894675007226" lon="7.577674414738367"><ele>466.0</ele><time>2026-04-19T12:49:10.875Z</time></trkpt><trkpt lat="45.42088188701914" lon="7.577353656931339"><ele>467.0</ele><time>2026-04-19T12:49:11.875Z</time></trkpt><trkpt lat="45.420863513787026" lon="7.57703360525204"><ele>467.66666666666663</ele><time>2026-04-19T12:49:12.875Z</time></trkpt><trkpt lat="45.42084632174783" lon="7.576720024387573"><ele>468.33333333333337</ele><time>2026-04-19T12:49:13.875Z</time></trkpt><trkpt lat="45.420810206536466" lon="7.576405726969261"><ele>469.0</ele><time>2026-04-19T12:49:14.875Z</time></trkpt><trkpt lat="45.42075390667328" lon="7.576102850880115"><ele>474.0</ele><time>2026-04-19T12:49:15.875Z</time></trkpt><trkpt lat="45.42067701241755" lon="7.575803567844643"><ele>479.0</ele><time>2026-04-19T12:49:16.875Z</time></trkpt><trkpt lat="45.42059628007229" lon="7.575498518759519"><ele>484.0</ele><time>2026-04-19T12:49:17.875Z</time></trkpt><trkpt lat="45.42052667811164" lon="7.575180856676919"><ele>489.0</ele><time>2026-04-19T12:49:18.875Z</time></trkpt><trkpt lat="45.420466638423505" lon="7.574866440414889"><ele>480.0</ele><time>2026-04-19T12:49:19.875Z</time></trkpt><trkpt lat="45.42039638454762" lon="7.5745526716952"><ele>471.0</ele><time>2026-04-19T12:49:20.875Z</time></trkpt><trkpt lat="45.42032896299571" lon="7.574241304819063"><ele>471.0</ele><time>2026-04-19T12:49:21.875Z</time></trkpt><trkpt lat="45.420258855258226" lon="7.573911975820375"><ele>471.0</ele><time>2026-04-19T12:49:22.875Z</time></trkpt><trkpt lat="45.42019667585844" lon="7.5735859906311545"><ele>474.5</ele><time>2026-04-19T12:49:23.875Z</time></trkpt><trkpt lat="45.42013265754829" lon="7.573258237176013"><ele>478.0</ele><time>2026-04-19T12:49:24.875Z</time></trkpt><trkpt lat="45.420066399603286" lon="7.572927535349495"><ele>478.0</ele><time>2026-04-19T12:49:25.875Z</time></trkpt><trkpt lat="45.41999273367403" lon="7.572600355974046"><ele>478.0</ele><time>2026-04-19T12:49:26.875Z</time></trkpt><trkpt lat="45.419917000974145" lon="7.572273278458889"><ele>480.0</ele><time>2026-04-19T12:49:27.875Z</time></trkpt><trkpt lat="45.41985337301446" lon="7.57195797347176"><ele>482.0</ele><time>2026-04-19T12:49:28.875Z</time></trkpt><trkpt lat="45.419783788713275" lon="7.571658552404711"><ele>482.0</ele><time>2026-04-19T12:49:29.875Z</time></trkpt><trkpt lat="45.41974959672123" lon="7.571365465860281"><ele>482.0</ele><time>2026-04-19T12:49:30.875Z</time></trkpt><trkpt lat="45.41973050892092" lon="7.5710755121712765"><ele>482.0</ele><time>2026-04-19T12:49:31.875Z</time></trkpt><trkpt lat="45.419715407544" lon="7.570776066924809"><ele>482.66666666666663</ele><time>2026-04-19T12:49:32.875Z</time></trkpt><trkpt lat="45.41969964195429" lon="7.570463451020375"><ele>483.33333333333337</ele><time>2026-04-19T12:49:33.875Z</time></trkpt><trkpt lat="45.41968479167906" lon="7.570151635255476"><ele>484.0</ele><time>2026-04-19T12:49:34.875Z</time></trkpt><trkpt lat="45.41968076120467" lon="7.569836328168304"><ele>492.0</ele><time>2026-04-19T12:49:35.875Z</time></trkpt><trkpt lat="45.4196931661391" lon="7.56952340783998"><ele>500.0</ele><time>2026-04-19T12:49:36.875Z</time></trkpt><trkpt lat="45.41969644442513" lon="7.569198986670084"><ele>508.0</ele><time>2026-04-19T12:49:37.875Z</time></trkpt><trkpt lat="45.41970467846744" lon="7.5688849519418335"><ele>507.33333333333337</ele><time>2026-04-19T12:49:38.875Z</time></trkpt><trkpt lat="45.41972934312549" lon="7.5685685886961265"><ele>506.66666666666663</ele><time>2026-04-19T12:49:39.875Z</time></trkpt><trkpt lat="45.41975739215294" lon="7.568258021742439"><ele>506.0</ele><time>2026-04-19T12:49:40.875Z</time></trkpt><trkpt lat="45.419755886246385" lon="7.5679468973070785"><ele>504.3333333333333</ele><time>2026-04-19T12:49:41.875Z</time></trkpt><trkpt lat="45.41972384791041" lon="7.567646933909549"><ele>502.66666666666663</ele><time>2026-04-19T12:49:42.875Z</time></trkpt><trkpt lat="45.41968162600534" lon="7.567356483276839"><ele>501.0</ele><time>2026-04-19T12:49:43.875Z</time></trkpt><trkpt lat="45.419636165575014" lon="7.5670650518314515"><ele>493.0</ele><time>2026-04-19T12:49:44.875Z</time></trkpt><trkpt lat="45.41959706687686" lon="7.566794019993449"><ele>485.0</ele><time>2026-04-19T12:49:45.875Z</time></trkpt><trkpt lat="45.41957943086993" lon="7.56654162422"><ele>477.0</ele><time>2026-04-19T12:49:46.875Z</time></trkpt><trkpt lat="45.41957998785248" lon="7.56628109597879"><ele>477.33333333333337</ele><time>2026-04-19T12:49:47.875Z</time></trkpt><trkpt lat="45.419581644418386" lon="7.566008205806692"><ele>477.6666666666667</ele><time>2026-04-19T12:49:48.875Z</time></trkpt><trkpt lat="45.41957888568831" lon="7.565726857617041"><ele>478.0</ele><time>2026-04-19T12:49:49.874Z</time></trkpt><trkpt lat="45.41957779541808" lon="7.565437270439732"><ele>478.6666666666667</ele><time>2026-04-19T12:49:50.874Z</time></trkpt><trkpt lat="45.41958741349217" lon="7.565146373074653"><ele>479.33333333333337</ele><time>2026-04-19T12:49:51.874Z</time></trkpt><trkpt lat="45.41960132059583" lon="7.56487048138024"><ele>480.0</ele><time>2026-04-19T12:49:52.874Z</time></trkpt><trkpt lat="45.41961004857217" lon="7.564593909462865"><ele>480.33333333333337</ele><time>2026-04-19T12:49:53.874Z</time></trkpt><trkpt lat="45.419584828876154" lon="7.564332592904094"><ele>480.6666666666667</ele><time>2026-04-19T12:49:54.874Z</time></trkpt><trkpt lat="45.419517689528426" lon="7.5640896595186575"><ele>481.0</ele><time>2026-04-19T12:49:55.874Z</time></trkpt><trkpt lat="45.419467142260274" lon="7.563825923612667"><ele>484.0</ele><time>2026-04-19T12:49:56.874Z</time></trkpt><trkpt lat="45.41938141092661" lon="7.563566483817156"><ele>487.0</ele><time>2026-04-19T12:49:57.874Z</time></trkpt><trkpt lat="45.41931862599127" lon="7.563296945420584"><ele>490.0</ele><time>2026-04-19T12:49:58.874Z</time></trkpt><trkpt lat="45.419242621445164" lon="7.563024811400748"><ele>493.33333333333337</ele><time>2026-04-19T12:49:59.874Z</time></trkpt><trkpt lat="45.41918445373669" lon="7.562755808118432"><ele>496.66666666666663</ele><time>2026-04-19T12:50:00.874Z</time></trkpt><trkpt lat="45.41914205099066" lon="7.562495535448094"><ele>500.0</ele><time>2026-04-19T12:50:01.874Z</time></trkpt><trkpt lat="45.41907307582137" lon="7.562254303685971"><ele>502.0</ele><time>2026-04-19T12:50:02.874Z</time></trkpt><trkpt lat="45.41901975255041" lon="7.562022867566911"><ele>504.0</ele><time>2026-04-19T12:50:03.874Z</time></trkpt><trkpt lat="45.41892664063821" lon="7.561805267123771"><ele>506.0</ele><time>2026-04-19T12:50:04.874Z</time></trkpt><trkpt lat="45.4188224390498" lon="7.561586935806789"><ele>502.3333333333333</ele><time>2026-04-19T12:50:05.874Z</time></trkpt><trkpt lat="45.418702197279224" lon="7.561379238244278"><ele>498.66666666666663</ele><time>2026-04-19T12:50:06.874Z</time></trkpt><trkpt lat="45.41856860691776" lon="7.561173547154326"><ele>495.0</ele><time>2026-04-19T12:50:07.874Z</time></trkpt><trkpt lat="45.41842948261278" lon="7.560965847884214"><ele>495.0</ele><time>2026-04-19T12:50:08.874Z</time></trkpt><trkpt lat="45.418297761620934" lon="7.560741719035776"><ele>495.0</ele><time>2026-04-19T12:50:09.874Z</time></trkpt><trkpt lat="45.41816431776828" lon="7.560521295967162"><ele>495.0</ele><time>2026-04-19T12:50:10.874Z</time></trkpt><trkpt lat="45.41803930408169" lon="7.5602873273650735"><ele>495.0</ele><time>2026-04-19T12:50:11.874Z</time></trkpt><trkpt lat="45.41789599571076" lon="7.5600765613658325"><ele>495.0</ele><time>2026-04-19T12:50:12.874Z</time></trkpt><trkpt lat="45.417750499180585" lon="7.559843167671734"><ele>495.0</ele><time>2026-04-19T12:50:13.874Z</time></trkpt><trkpt lat="45.41760765834767" lon="7.55960617001415"><ele>493.0</ele><time>2026-04-19T12:50:14.874Z</time></trkpt><trkpt lat="45.417443817528486" lon="7.559376868566196"><ele>491.0</ele><time>2026-04-19T12:50:15.874Z</time></trkpt><trkpt lat="45.417268558958135" lon="7.5591510552133325"><ele>491.5</ele><time>2026-04-19T12:50:16.874Z</time></trkpt><trkpt lat="45.41708724369363" lon="7.558921995052788"><ele>492.0</ele><time>2026-04-19T12:50:17.874Z</time></trkpt><trkpt lat="45.416907360912774" lon="7.558695126872098"><ele>492.0</ele><time>2026-04-19T12:50:18.874Z</time></trkpt><trkpt lat="45.4167355043699" lon="7.5584710381927"><ele>492.0</ele><time>2026-04-19T12:50:19.874Z</time></trkpt><trkpt lat="45.41656816223899" lon="7.558256466256596"><ele>492.0</ele><time>2026-04-19T12:50:20.874Z</time></trkpt><trkpt lat="45.416420779676805" lon="7.558025236454347"><ele>492.0</ele><time>2026-04-19T12:50:21.874Z</time></trkpt><trkpt lat="45.4162869100602" lon="7.557788571329061"><ele>492.0</ele><time>2026-04-19T12:50:22.874Z</time></trkpt><trkpt lat="45.41616575712912" lon="7.557548853646333"><ele>491.66666666666663</ele><time>2026-04-19T12:50:23.874Z</time></trkpt><trkpt lat="45.41604699747999" lon="7.557297817412417"><ele>491.3333333333333</ele><time>2026-04-19T12:50:24.874Z</time></trkpt><trkpt lat="45.41595520275957" lon="7.557048802014296"><ele>491.0</ele><time>2026-04-19T12:50:25.874Z</time></trkpt><trkpt lat="45.41586671919862" lon="7.556791602130284"><ele>491.66666666666663</ele><time>2026-04-19T12:50:26.874Z</time></trkpt><trkpt lat="45.41578383004079" lon="7.55652750384036"><ele>492.33333333333337</ele><time>2026-04-19T12:50:27.874Z</time></trkpt><trkpt lat="45.41571447236959" lon="7.556265504787753"><ele>493.0</ele><time>2026-04-19T12:50:28.874Z</time></trkpt><trkpt lat="45.415658269172404" lon="7.556010971676307"><ele>493.6666666666667</ele><time>2026-04-19T12:50:29.874Z</time></trkpt><trkpt lat="45.41561454750105" lon="7.555760272064643"><ele>494.33333333333337</ele><time>2026-04-19T12:50:30.874Z</time></trkpt><trkpt lat="45.41556854621962" lon="7.555508409532088"><ele>495.0</ele><time>2026-04-19T12:50:31.874Z</time></trkpt><trkpt lat="45.41551375634045" lon="7.555263023776153"><ele>495.66666666666663</ele><time>2026-04-19T12:50:32.874Z</time></trkpt><trkpt lat="45.415474952407266" lon="7.555020264302878"><ele>496.3333333333333</ele><time>2026-04-19T12:50:33.874Z</time></trkpt><trkpt lat="45.41541736194043" lon="7.554767976195824"><ele>497.0</ele><time>2026-04-19T12:50:34.874Z</time></trkpt><trkpt lat="45.41538258386941" lon="7.5545111832658165"><ele>498.0</ele><time>2026-04-19T12:50:35.874Z</time></trkpt><trkpt lat="45.41531699940746" lon="7.554269394568213"><ele>499.0</ele><time>2026-04-19T12:50:36.874Z</time></trkpt><trkpt lat="45.41527821174038" lon="7.554016447606637"><ele>500.0</ele><time>2026-04-19T12:50:37.874Z</time></trkpt><trkpt lat="45.41522973433416" lon="7.553777249511128"><ele>500.3333333333333</ele><time>2026-04-19T12:50:38.874Z</time></trkpt><trkpt lat="45.41520218476631" lon="7.55354131718387"><ele>500.66666666666663</ele><time>2026-04-19T12:50:39.873Z</time></trkpt><trkpt lat="45.41514786166398" lon="7.553311066345205"><ele>501.0</ele><time>2026-04-19T12:50:40.873Z</time></trkpt><trkpt lat="45.41509068675376" lon="7.553092719542423"><ele>501.0</ele><time>2026-04-19T12:50:41.873Z</time></trkpt><trkpt lat="45.4149876075274" lon="7.552879704126093"><ele>501.0</ele><time>2026-04-19T12:50:42.872Z</time></trkpt><trkpt lat="45.41487063887053" lon="7.5526467719230554"><ele>501.0</ele><time>2026-04-19T12:50:43.873Z</time></trkpt><trkpt lat="45.41473986119503" lon="7.552432720661169"><ele>502.33333333333337</ele><time>2026-04-19T12:50:44.873Z</time></trkpt><trkpt lat="45.414596071325086" lon="7.552233428436569"><ele>503.6666666666667</ele><time>2026-04-19T12:50:45.873Z</time></trkpt><trkpt lat="45.41444694205135" lon="7.5520199923501155"><ele>505.0</ele><time>2026-04-19T12:50:46.872Z</time></trkpt><trkpt lat="45.41428314627513" lon="7.551839709358754"><ele>505.0</ele><time>2026-04-19T12:50:47.872Z</time></trkpt><trkpt lat="45.414140207171144" lon="7.551637246053988"><ele>505.0</ele><time>2026-04-19T12:50:48.872Z</time></trkpt><trkpt lat="45.41398775144643" lon="7.551446472503833"><ele>505.0</ele><time>2026-04-19T12:50:49.872Z</time></trkpt><trkpt lat="45.413877469997104" lon="7.551275827934087"><ele>507.0</ele><time>2026-04-19T12:50:50.872Z</time></trkpt><trkpt lat="45.413754031573326" lon="7.551109062228707"><ele>509.0</ele><time>2026-04-19T12:50:51.872Z</time></trkpt><trkpt lat="45.41363052449171" lon="7.550938465561832"><ele>511.0</ele><time>2026-04-19T12:50:52.872Z</time></trkpt><trkpt lat="45.4135103936629" lon="7.550769249481152"><ele>511.0</ele><time>2026-04-19T12:50:53.872Z</time></trkpt><trkpt lat="45.4133813611558" lon="7.5506004446511445"><ele>511.0</ele><time>2026-04-19T12:50:54.872Z</time></trkpt><trkpt lat="45.41324582383762" lon="7.5504374417358395"><ele>511.0</ele><time>2026-04-19T12:50:55.872Z</time></trkpt><trkpt lat="45.41312000732094" lon="7.550258783751933"><ele>512.6666666666667</ele><time>2026-04-19T12:50:56.872Z</time></trkpt><trkpt lat="45.4129956918559" lon="7.550049933688765"><ele>514.3333333333334</ele><time>2026-04-19T12:50:57.872Z</time></trkpt><trkpt lat="45.41286245498285" lon="7.549831878910604"><ele>516.0</ele><time>2026-04-19T12:50:58.872Z</time></trkpt><trkpt lat="45.41271785336404" lon="7.5495951881858865"><ele>520.0</ele><time>2026-04-19T12:50:59.872Z</time></trkpt><trkpt lat="45.41256726169213" lon="7.549342724065478"><ele>524.0</ele><time>2026-04-19T12:51:00.872Z</time></trkpt><trkpt lat="45.412416551931706" lon="7.549064468120951"><ele>524.0</ele><time>2026-04-19T12:51:01.872Z</time></trkpt><trkpt lat="45.41228534740671" lon="7.548773846758732"><ele>524.0</ele><time>2026-04-19T12:51:02.872Z</time></trkpt><trkpt lat="45.41228471169612" lon="7.5490207178812145"><ele>524.0</ele><time>2026-04-19T12:51:03.872Z</time></trkpt><trkpt lat="45.41221017039743" lon="7.548797039889726"><ele>523.3333333333333</ele><time>2026-04-19T12:51:04.872Z</time></trkpt><trkpt lat="45.412144548707175" lon="7.548555096954122"><ele>522.6666666666666</ele><time>2026-04-19T12:51:05.872Z</time></trkpt><trkpt lat="45.41207811353802" lon="7.5483349771045"><ele>522.0</ele><time>2026-04-19T12:51:06.872Z</time></trkpt><trkpt lat="45.412013880796" lon="7.5481383181767665"><ele>522.0</ele><time>2026-04-19T12:51:07.872Z</time></trkpt><trkpt lat="45.41195860211044" lon="7.547949090441643"><ele>522.0</ele><time>2026-04-19T12:51:08.872Z</time></trkpt><trkpt lat="45.41191002194115" lon="7.5477630114626395"><ele>522.0</ele><time>2026-04-19T12:51:09.872Z</time></trkpt><trkpt lat="45.41185108580841" lon="7.547573613178767"><ele>522.0</ele><time>2026-04-19T12:51:10.872Z</time></trkpt><trkpt lat="45.41179629216391" lon="7.547378345857302"><ele>522.6666666666666</ele><time>2026-04-19T12:51:11.872Z</time></trkpt><trkpt lat="45.4117358872847" lon="7.547171032475251"><ele>523.3333333333333</ele><time>2026-04-19T12:51:12.872Z</time></trkpt><trkpt lat="45.41167811520915" lon="7.54695547904601"><ele>524.0</ele><time>2026-04-19T12:51:13.872Z</time></trkpt><trkpt lat="45.411647320759066" lon="7.546723247663087"><ele>524.0</ele><time>2026-04-19T12:51:14.872Z</time></trkpt><trkpt lat="45.41162289850404" lon="7.546493801423602"><ele>524.0</ele><time>2026-04-19T12:51:15.872Z</time></trkpt><trkpt lat="45.41161405640232" lon="7.546262450560694"><ele>524.0</ele><time>2026-04-19T12:51:16.872Z</time></trkpt><trkpt lat="45.41161445906803" lon="7.546015476066125"><ele>524.0</ele><time>2026-04-19T12:51:17.872Z</time></trkpt><trkpt lat="45.41161878203647" lon="7.545761179571696"><ele>524.0</ele><time>2026-04-19T12:51:18.872Z</time></trkpt><trkpt lat="45.41162650652053" lon="7.545535236790706"><ele>524.0</ele><time>2026-04-19T12:51:19.872Z</time></trkpt><trkpt lat="45.411620276245095" lon="7.545313428648221"><ele>524.0</ele><time>2026-04-19T12:51:20.872Z</time></trkpt><trkpt lat="45.411624203172835" lon="7.545106492348507"><ele>524.0</ele><time>2026-04-19T12:51:21.872Z</time></trkpt><trkpt lat="45.411630205774024" lon="7.544892071445971"><ele>524.0</ele><time>2026-04-19T12:51:22.872Z</time></trkpt><trkpt lat="45.41164019414753" lon="7.544669559455845"><ele>524.3333333333333</ele><time>2026-04-19T12:51:23.871Z</time></trkpt><trkpt lat="45.411651565787174" lon="7.544443413317123"><ele>524.6666666666666</ele><time>2026-04-19T12:51:24.871Z</time></trkpt><trkpt lat="45.411658598848746" lon="7.544220654802466"><ele>525.0</ele><time>2026-04-19T12:51:25.871Z</time></trkpt><trkpt lat="45.411673905341765" lon="7.54400332612496"><ele>525.0</ele><time>2026-04-19T12:51:26.871Z</time></trkpt><trkpt lat="45.411666934162255" lon="7.543804360142128"><ele>525.0</ele><time>2026-04-19T12:51:27.871Z</time></trkpt><trkpt lat="45.41164719910924" lon="7.543586200426543"><ele>525.0</ele><time>2026-04-19T12:51:28.871Z</time></trkpt><trkpt lat="45.411630544634384" lon="7.543382584018612"><ele>525.0</ele><time>2026-04-19T12:51:29.871Z</time></trkpt><trkpt lat="45.41160928631762" lon="7.5431688800029075"><ele>524.3333333333334</ele><time>2026-04-19T12:51:30.871Z</time></trkpt><trkpt lat="45.411591069099686" lon="7.542954685654629"><ele>523.6666666666667</ele><time>2026-04-19T12:51:31.871Z</time></trkpt><trkpt lat="45.41157308607252" lon="7.542735983604393"><ele>523.0</ele><time>2026-04-19T12:51:32.871Z</time></trkpt><trkpt lat="45.41153760673534" lon="7.5425344690268545"><ele>523.0</ele><time>2026-04-19T12:51:33.871Z</time></trkpt><trkpt lat="45.411488924995034" lon="7.542350479599413"><ele>523.0</ele><time>2026-04-19T12:51:34.871Z</time></trkpt><trkpt lat="45.41144305901867" lon="7.5421721239185695"><ele>523.0</ele><time>2026-04-19T12:51:35.871Z</time></trkpt><trkpt lat="45.41139878249134" lon="7.542012537229229"><ele>523.0</ele><time>2026-04-19T12:51:36.871Z</time></trkpt><trkpt lat="45.41137264268914" lon="7.541852143143923"><ele>522.25</ele><time>2026-04-19T12:51:37.871Z</time></trkpt><trkpt lat="45.41132260832894" lon="7.541683547901545"><ele>521.5</ele><time>2026-04-19T12:51:38.871Z</time></trkpt><trkpt lat="45.41122854533947" lon="7.541512159780288"><ele>520.75</ele><time>2026-04-19T12:51:39.871Z</time></trkpt><trkpt lat="45.411118624678956" lon="7.541350163640409"><ele>520.0</ele><time>2026-04-19T12:51:40.871Z</time></trkpt><trkpt lat="45.41099770588976" lon="7.541199656957269"><ele>520.0</ele><time>2026-04-19T12:51:41.871Z</time></trkpt><trkpt lat="45.41086724707219" lon="7.541043198778389"><ele>520.0</ele><time>2026-04-19T12:51:42.871Z</time></trkpt><trkpt lat="45.41074437373253" lon="7.540881185463227"><ele>520.0</ele><time>2026-04-19T12:51:43.871Z</time></trkpt><trkpt lat="45.41064628080148" lon="7.540705148535957"><ele>520.0</ele><time>2026-04-19T12:51:44.871Z</time></trkpt><trkpt lat="45.41056116561727" lon="7.540543815595437"><ele>520.0</ele><time>2026-04-19T12:51:45.871Z</time></trkpt><trkpt lat="45.410482056703174" lon="7.540392637003555"><ele>520.0</ele><time>2026-04-19T12:51:46.871Z</time></trkpt><trkpt lat="45.41039947095091" lon="7.540170584324999"><ele>521.0</ele><time>2026-04-19T12:51:47.871Z</time></trkpt><trkpt lat="45.41025567405317" lon="7.540106986393056"><ele>522.0</ele><time>2026-04-19T12:51:48.871Z</time></trkpt><trkpt lat="45.41014777601792" lon="7.539960475918212"><ele>523.0</ele><time>2026-04-19T12:51:49.871Z</time></trkpt><trkpt lat="45.41004510557934" lon="7.53982940986874"><ele>524.0</ele><time>2026-04-19T12:51:50.871Z</time></trkpt><trkpt lat="45.409951303475665" lon="7.539689557304506"><ele>526.75</ele><time>2026-04-19T12:51:51.871Z</time></trkpt><trkpt lat="45.40988102884662" lon="7.539531095880115"><ele>529.5</ele><time>2026-04-19T12:51:52.871Z</time></trkpt><trkpt lat="45.409803310661594" lon="7.5393703511833685"><ele>532.25</ele><time>2026-04-19T12:51:53.871Z</time></trkpt><trkpt lat="45.40976914643936" lon="7.539174948821977"><ele>535.0</ele><time>2026-04-19T12:51:54.871Z</time></trkpt><trkpt lat="45.40972841957717" lon="7.538979089946064"><ele>535.0</ele><time>2026-04-19T12:51:55.871Z</time></trkpt><trkpt lat="45.40967235651284" lon="7.538785722447167"><ele>535.0</ele><time>2026-04-19T12:51:56.871Z</time></trkpt><trkpt lat="45.40963871494388" lon="7.538585319921632"><ele>535.0</ele><time>2026-04-19T12:51:57.871Z</time></trkpt><trkpt lat="45.40960306810413" lon="7.538401268464582"><ele>535.0</ele><time>2026-04-19T12:51:58.871Z</time></trkpt><trkpt lat="45.409567758884315" lon="7.538227220248257"><ele>532.0</ele><time>2026-04-19T12:51:59.871Z</time></trkpt><trkpt lat="45.40954593199795" lon="7.53805037045964"><ele>529.0</ele><time>2026-04-19T12:52:00.871Z</time></trkpt><trkpt lat="45.40956511011419" lon="7.537881272478772"><ele>526.0</ele><time>2026-04-19T12:52:01.871Z</time></trkpt><trkpt lat="45.4095978130369" lon="7.537725246492115"><ele>523.0</ele><time>2026-04-19T12:52:02.871Z</time></trkpt><trkpt lat="45.409635649041974" lon="7.537556980437395"><ele>528.0</ele><time>2026-04-19T12:52:03.871Z</time></trkpt><trkpt lat="45.40967095029649" lon="7.5373741381827255"><ele>533.0</ele><time>2026-04-19T12:52:04.871Z</time></trkpt><trkpt lat="45.40970773305803" lon="7.537171196336496"><ele>538.0</ele><time>2026-04-19T12:52:05.871Z</time></trkpt><trkpt lat="45.40973884302364" lon="7.536946347453204"><ele>543.0</ele><time>2026-04-19T12:52:06.871Z</time></trkpt><trkpt lat="45.40978925550228" lon="7.536719440829762"><ele>543.0</ele><time>2026-04-19T12:52:07.871Z</time></trkpt><trkpt lat="45.40980739349702" lon="7.536492274459562"><ele>543.0</ele><time>2026-04-19T12:52:08.871Z</time></trkpt><trkpt lat="45.409817615200296" lon="7.536276227843443"><ele>543.0</ele><time>2026-04-19T12:52:09.871Z</time></trkpt><trkpt lat="45.40980363980149" lon="7.5360557804055865"><ele>539.0</ele><time>2026-04-19T12:52:10.871Z</time></trkpt><trkpt lat="45.40978249199102" lon="7.535841004835824"><ele>535.0</ele><time>2026-04-19T12:52:11.871Z</time></trkpt><trkpt lat="45.409760985455605" lon="7.535613880702465"><ele>531.0</ele><time>2026-04-19T12:52:12.871Z</time></trkpt><trkpt lat="45.40973149766224" lon="7.535399222040954"><ele>530.6666666666666</ele><time>2026-04-19T12:52:13.871Z</time></trkpt><trkpt lat="45.409675862291465" lon="7.535171825350964"><ele>530.3333333333333</ele><time>2026-04-19T12:52:14.871Z</time></trkpt><trkpt lat="45.409611207761884" lon="7.534950808615587"><ele>530.0</ele><time>2026-04-19T12:52:15.871Z</time></trkpt><trkpt lat="45.409534702818455" lon="7.5347262843359415"><ele>528.6666666666666</ele><time>2026-04-19T12:52:16.871Z</time></trkpt><trkpt lat="45.409442749332435" lon="7.534516535977072"><ele>527.3333333333334</ele><time>2026-04-19T12:52:17.871Z</time></trkpt><trkpt lat="45.40937961497459" lon="7.534320393370293"><ele>526.0</ele><time>2026-04-19T12:52:18.871Z</time></trkpt><trkpt lat="45.40930893972598" lon="7.534154948484026"><ele>526.0</ele><time>2026-04-19T12:52:19.871Z</time></trkpt><trkpt lat="45.40923227956476" lon="7.533982984100141"><ele>526.0</ele><time>2026-04-19T12:52:20.871Z</time></trkpt><trkpt lat="45.40916280574333" lon="7.5338039971433854"><ele>526.0</ele><time>2026-04-19T12:52:21.871Z</time></trkpt><trkpt lat="45.40910297206621" lon="7.533609840846996"><ele>526.0</ele><time>2026-04-19T12:52:22.871Z</time></trkpt><trkpt lat="45.409062811940004" lon="7.533401192863283"><ele>526.75</ele><time>2026-04-19T12:52:23.871Z</time></trkpt><trkpt lat="45.40902450326385" lon="7.53319266558821"><ele>527.5</ele><time>2026-04-19T12:52:24.871Z</time></trkpt><trkpt lat="45.409001918958914" lon="7.53298912717498"><ele>528.25</ele><time>2026-04-19T12:52:25.871Z</time></trkpt><trkpt lat="45.408976583954214" lon="7.532824436615228"><ele>529.0</ele><time>2026-04-19T12:52:26.871Z</time></trkpt><trkpt lat="45.408968113355535" lon="7.532669490977345"><ele>529.4</ele><time>2026-04-19T12:52:27.871Z</time></trkpt><trkpt lat="45.40894570508304" lon="7.532524571399617"><ele>529.8</ele><time>2026-04-19T12:52:28.871Z</time></trkpt><trkpt lat="45.408931685852906" lon="7.532382850796715"><ele>530.2</ele><time>2026-04-19T12:52:29.871Z</time></trkpt><trkpt lat="45.40890802123287" lon="7.532226391949397"><ele>530.6</ele><time>2026-04-19T12:52:30.871Z</time></trkpt><trkpt lat="45.40888466571878" lon="7.532055450869719"><ele>531.0</ele><time>2026-04-19T12:52:31.871Z</time></trkpt><trkpt lat="45.4088694959141" lon="7.531880331940264"><ele>530.8</ele><time>2026-04-19T12:52:32.871Z</time></trkpt><trkpt lat="45.40884586785162" lon="7.531716989627199"><ele>530.6</ele><time>2026-04-19T12:52:33.871Z</time></trkpt><trkpt lat="45.40883374525145" lon="7.531567240552051"><ele>530.4</ele><time>2026-04-19T12:52:34.871Z</time></trkpt><trkpt lat="45.40882201770137" lon="7.531429677370549"><ele>530.2</ele><time>2026-04-19T12:52:35.871Z</time></trkpt><trkpt lat="45.40880275387565" lon="7.531301857216734"><ele>530.0</ele><time>2026-04-19T12:52:36.871Z</time></trkpt><trkpt lat="45.408790155768145" lon="7.531191849808885"><ele>530.0</ele><time>2026-04-19T12:52:37.871Z</time></trkpt><trkpt lat="45.408762527699636" lon="7.531093224446798"><ele>530.0</ele><time>2026-04-19T12:52:38.871Z</time></trkpt><trkpt lat="45.40875245944293" lon="7.53095370180983"><ele>530.0</ele><time>2026-04-19T12:52:40.871Z</time></trkpt><trkpt lat="45.40874281785849" lon="7.530864283468841"><ele>530.0</ele><time>2026-04-19T12:52:59.869Z</time></trkpt><trkpt lat="45.40875462243985" lon="7.530735634255225"><ele>530.0</ele><time>2026-04-19T12:53:01.869Z</time></trkpt><trkpt lat="45.408732740452834" lon="7.530532630635654"><ele>530.0</ele><time>2026-04-19T12:53:03.869Z</time></trkpt><trkpt lat="45.408722384140766" lon="7.5304365530332555"><ele>530.0</ele><time>2026-04-19T12:53:04.869Z</time></trkpt><trkpt lat="45.40870484060776" lon="7.530284632779326"><ele>530.0</ele><time>2026-04-19T12:53:05.869Z</time></trkpt><trkpt lat="45.408690157586065" lon="7.530156311882322"><ele>530.0</ele><time>2026-04-19T12:53:06.869Z</time></trkpt><trkpt lat="45.40867389163633" lon="7.530015929240631"><ele>530.0</ele><time>2026-04-19T12:53:07.869Z</time></trkpt><trkpt lat="45.40865495916729" lon="7.529852533324113"><ele>530.0</ele><time>2026-04-19T12:53:08.869Z</time></trkpt><trkpt lat="45.408636889247354" lon="7.52969658161524"><ele>530.0</ele><time>2026-04-19T12:53:09.869Z</time></trkpt><trkpt lat="45.40861439378919" lon="7.529502435459806"><ele>530.0</ele><time>2026-04-19T12:53:10.869Z</time></trkpt><trkpt lat="45.408590805759616" lon="7.529299058539203"><ele>530.0</ele><time>2026-04-19T12:53:11.869Z</time></trkpt><trkpt lat="45.40855011804362" lon="7.529090238605422"><ele>530.0</ele><time>2026-04-19T12:53:12.869Z</time></trkpt><trkpt lat="45.40852921712673" lon="7.528856805541296"><ele>530.0</ele><time>2026-04-19T12:53:13.869Z</time></trkpt><trkpt lat="45.40851102841245" lon="7.528632087120057"><ele>530.0</ele><time>2026-04-19T12:53:14.869Z</time></trkpt><trkpt lat="45.40849995530581" lon="7.528403896732749"><ele>532.0</ele><time>2026-04-19T12:53:15.869Z</time></trkpt><trkpt lat="45.40849075175194" lon="7.528169174005055"><ele>534.0</ele><time>2026-04-19T12:53:16.869Z</time></trkpt><trkpt lat="45.408473021118105" lon="7.52791822746719"><ele>536.0</ele><time>2026-04-19T12:53:17.869Z</time></trkpt><trkpt lat="45.408451616942436" lon="7.527661737894133"><ele>536.6666666666666</ele><time>2026-04-19T12:53:18.869Z</time></trkpt><trkpt lat="45.40843145443171" lon="7.527398792077747"><ele>537.3333333333334</ele><time>2026-04-19T12:53:19.869Z</time></trkpt><trkpt lat="45.4084071517345" lon="7.527112612740061"><ele>538.0</ele><time>2026-04-19T12:53:20.869Z</time></trkpt><trkpt lat="45.408374545997425" lon="7.526832609873389"><ele>539.6666666666667</ele><time>2026-04-19T12:53:21.869Z</time></trkpt><trkpt lat="45.4083267607653" lon="7.5265239166896"><ele>541.3333333333334</ele><time>2026-04-19T12:53:22.869Z</time></trkpt><trkpt lat="45.408275271684126" lon="7.526220419719824"><ele>543.0</ele><time>2026-04-19T12:53:23.869Z</time></trkpt><trkpt lat="45.40822604562317" lon="7.525921832129007"><ele>544.6666666666666</ele><time>2026-04-19T12:53:24.869Z</time></trkpt><trkpt lat="45.40817992095323" lon="7.525622257372425"><ele>546.3333333333333</ele><time>2026-04-19T12:53:25.869Z</time></trkpt><trkpt lat="45.40814149258455" lon="7.525320151012303"><ele>548.0</ele><time>2026-04-19T12:53:26.869Z</time></trkpt><trkpt lat="45.408123103059424" lon="7.52502505797679"><ele>549.0</ele><time>2026-04-19T12:53:27.869Z</time></trkpt><trkpt lat="45.40811574571199" lon="7.5247182980697405"><ele>550.0</ele><time>2026-04-19T12:53:28.869Z</time></trkpt><trkpt lat="45.408103088736134" lon="7.524427866417024"><ele>551.0</ele><time>2026-04-19T12:53:29.869Z</time></trkpt><trkpt lat="45.40809317165102" lon="7.524142249977854"><ele>551.0</ele><time>2026-04-19T12:53:30.869Z</time></trkpt><trkpt lat="45.40808038018268" lon="7.523861915139006"><ele>551.0</ele><time>2026-04-19T12:53:31.869Z</time></trkpt><trkpt lat="45.408068124598316" lon="7.523584399863445"><ele>551.0</ele><time>2026-04-19T12:53:32.869Z</time></trkpt><trkpt lat="45.40805215400196" lon="7.523319746179227"><ele>551.0</ele><time>2026-04-19T12:53:33.869Z</time></trkpt><trkpt lat="45.408044866444186" lon="7.523062040074033"><ele>551.0</ele><time>2026-04-19T12:53:34.869Z</time></trkpt><trkpt lat="45.408045941765764" lon="7.522827439588137"><ele>551.0</ele><time>2026-04-19T12:53:35.869Z</time></trkpt><trkpt lat="45.407999968220814" lon="7.522621238765664"><ele>546.3333333333333</ele><time>2026-04-19T12:53:36.869Z</time></trkpt><trkpt lat="45.40793407829968" lon="7.522427807136777"><ele>541.6666666666666</ele><time>2026-04-19T12:53:37.869Z</time></trkpt><trkpt lat="45.407834573022996" lon="7.522219450752939"><ele>537.0</ele><time>2026-04-19T12:53:38.869Z</time></trkpt><trkpt lat="45.407761078044906" lon="7.522019688412128"><ele>537.0</ele><time>2026-04-19T12:53:39.869Z</time></trkpt><trkpt lat="45.40767349669592" lon="7.5218055110907756"><ele>537.0</ele><time>2026-04-19T12:53:40.869Z</time></trkpt><trkpt lat="45.4076132616336" lon="7.5216133410021895"><ele>537.0</ele><time>2026-04-19T12:53:41.869Z</time></trkpt><trkpt lat="45.40754906668899" lon="7.52141241018663"><ele>538.6666666666666</ele><time>2026-04-19T12:53:42.869Z</time></trkpt><trkpt lat="45.40751214360041" lon="7.521196950429852"><ele>540.3333333333333</ele><time>2026-04-19T12:53:43.869Z</time></trkpt><trkpt lat="45.407497042586236" lon="7.520970548815231"><ele>542.0</ele><time>2026-04-19T12:53:44.869Z</time></trkpt><trkpt lat="45.40749243129681" lon="7.520732139316494"><ele>542.0</ele><time>2026-04-19T12:53:45.869Z</time></trkpt><trkpt lat="45.40749235920294" lon="7.520499530751389"><ele>542.0</ele><time>2026-04-19T12:53:46.869Z</time></trkpt><trkpt lat="45.40749826481332" lon="7.520243533052639"><ele>542.0</ele><time>2026-04-19T12:53:47.869Z</time></trkpt><trkpt lat="45.407509656856874" lon="7.5199889682771115"><ele>543.0</ele><time>2026-04-19T12:53:48.869Z</time></trkpt><trkpt lat="45.407527205367366" lon="7.519725997381499"><ele>544.0</ele><time>2026-04-19T12:53:49.869Z</time></trkpt><trkpt lat="45.40753666661288" lon="7.519447718467467"><ele>545.0</ele><time>2026-04-19T12:53:50.869Z</time></trkpt><trkpt lat="45.407554241334495" lon="7.519167723224058"><ele>545.6666666666666</ele><time>2026-04-19T12:53:51.869Z</time></trkpt><trkpt lat="45.40757655283117" lon="7.518898137978433"><ele>546.3333333333334</ele><time>2026-04-19T12:53:52.869Z</time></trkpt><trkpt lat="45.40759654601399" lon="7.518635285972764"><ele>547.0</ele><time>2026-04-19T12:53:53.869Z</time></trkpt><trkpt lat="45.40761261082793" lon="7.518378039391314"><ele>547.0</ele><time>2026-04-19T12:53:54.869Z</time></trkpt><trkpt lat="45.40763043674141" lon="7.518128972683008"><ele>547.0</ele><time>2026-04-19T12:53:55.869Z</time></trkpt><trkpt lat="45.40765189019708" lon="7.517888493828996"><ele>547.0</ele><time>2026-04-19T12:53:56.869Z</time></trkpt><trkpt lat="45.40767125912245" lon="7.517643521183573"><ele>546.6666666666667</ele><time>2026-04-19T12:53:57.869Z</time></trkpt><trkpt lat="45.4076818418311" lon="7.517397427324085"><ele>546.3333333333334</ele><time>2026-04-19T12:53:58.869Z</time></trkpt><trkpt lat="45.40769040590255" lon="7.517172547510723"><ele>546.0</ele><time>2026-04-19T12:53:59.869Z</time></trkpt><trkpt lat="45.40768282313628" lon="7.516973085282642"><ele>545.8</ele><time>2026-04-19T12:54:00.869Z</time></trkpt><trkpt lat="45.407679715100045" lon="7.5167964089259085"><ele>545.6</ele><time>2026-04-19T12:54:01.869Z</time></trkpt><trkpt lat="45.407682017463266" lon="7.516635733744058"><ele>545.4</ele><time>2026-04-19T12:54:02.869Z</time></trkpt><trkpt lat="45.40768112614465" lon="7.5164919820932425"><ele>545.2</ele><time>2026-04-19T12:54:03.869Z</time></trkpt><trkpt lat="45.407681952914544" lon="7.516360797969629"><ele>545.0</ele><time>2026-04-19T12:54:04.869Z</time></trkpt><trkpt lat="45.40767842149955" lon="7.516248357707912"><ele>546.3333333333333</ele><time>2026-04-19T12:54:05.869Z</time></trkpt><trkpt lat="45.40767060056539" lon="7.516143261499421"><ele>547.6666666666666</ele><time>2026-04-19T12:54:06.869Z</time></trkpt><trkpt lat="45.407668569647896" lon="7.516044645004064"><ele>549.0</ele><time>2026-04-19T12:54:07.869Z</time></trkpt><trkpt lat="45.40766043186807" lon="7.515899429415883"><ele>550.3333333333334</ele><time>2026-04-19T12:54:09.869Z</time></trkpt><trkpt lat="45.40763854746049" lon="7.515800013984867"><ele>551.6666666666667</ele><time>2026-04-19T12:54:12.869Z</time></trkpt><trkpt lat="45.40762028478597" lon="7.515707000939157"><ele>553.0</ele><time>2026-04-19T12:55:52.87Z</time></trkpt><trkpt lat="45.4075818135468" lon="7.515531798424553"><ele>553.0</ele><time>2026-04-19T12:55:54.87Z</time></trkpt><trkpt lat="45.40755047496528" lon="7.515431133496091"><ele>553.0</ele><time>2026-04-19T12:55:55.87Z</time></trkpt><trkpt lat="45.40750285598348" lon="7.515314028536039"><ele>553.0</ele><time>2026-04-19T12:55:56.87Z</time></trkpt><trkpt lat="45.40743850947531" lon="7.515181951457911"><ele>553.0</ele><time>2026-04-19T12:55:57.87Z</time></trkpt><trkpt lat="45.40737548804336" lon="7.5150598155732"><ele>553.0</ele><time>2026-04-19T12:55:58.87Z</time></trkpt><trkpt lat="45.407307357260926" lon="7.514927777783884"><ele>553.0</ele><time>2026-04-19T12:55:59.87Z</time></trkpt><trkpt lat="45.40723946127946" lon="7.514797705779865"><ele>553.0</ele><time>2026-04-19T12:56:00.87Z</time></trkpt><trkpt lat="45.407165650701664" lon="7.514658760618317"><ele>553.0</ele><time>2026-04-19T12:56:01.87Z</time></trkpt><trkpt lat="45.40709378666502" lon="7.514524275033966"><ele>553.0</ele><time>2026-04-19T12:56:02.87Z</time></trkpt><trkpt lat="45.407016909409606" lon="7.514380597091658"><ele>551.0</ele><time>2026-04-19T12:56:03.87Z</time></trkpt><trkpt lat="45.40693643190697" lon="7.514230190571701"><ele>549.0</ele><time>2026-04-19T12:56:04.87Z</time></trkpt><trkpt lat="45.4068497717897" lon="7.5140675822836895"><ele>547.0</ele><time>2026-04-19T12:56:05.87Z</time></trkpt><trkpt lat="45.40676528731164" lon="7.513908221980154"><ele>545.0</ele><time>2026-04-19T12:56:06.87Z</time></trkpt><trkpt lat="45.40668628099931" lon="7.513759195001385"><ele>545.25</ele><time>2026-04-19T12:56:07.87Z</time></trkpt><trkpt lat="45.406608311572455" lon="7.51360955813772"><ele>545.5</ele><time>2026-04-19T12:56:08.87Z</time></trkpt><trkpt lat="45.40652825560709" lon="7.5134543515944845"><ele>545.75</ele><time>2026-04-19T12:56:09.87Z</time></trkpt><trkpt lat="45.40645468424163" lon="7.513304880306644"><ele>546.0</ele><time>2026-04-19T12:56:10.87Z</time></trkpt><trkpt lat="45.40639073710612" lon="7.51317331874292"><ele>546.0</ele><time>2026-04-19T12:56:11.87Z</time></trkpt><trkpt lat="45.40633212625599" lon="7.513036434352595"><ele>546.0</ele><time>2026-04-19T12:56:12.87Z</time></trkpt><trkpt lat="45.40628247325713" lon="7.512883941808277"><ele>546.0</ele><time>2026-04-19T12:56:13.87Z</time></trkpt><trkpt lat="45.40626145713638" lon="7.512707666809023"><ele>546.0</ele><time>2026-04-19T12:56:14.87Z</time></trkpt><trkpt lat="45.406227935380464" lon="7.512518236470392"><ele>546.25</ele><time>2026-04-19T12:56:15.87Z</time></trkpt><trkpt lat="45.406193981454756" lon="7.512318318555224"><ele>546.5</ele><time>2026-04-19T12:56:16.87Z</time></trkpt><trkpt lat="45.40617312441828" lon="7.512112917736333"><ele>546.75</ele><time>2026-04-19T12:56:17.87Z</time></trkpt><trkpt lat="45.406146755296575" lon="7.511896346148691"><ele>547.0</ele><time>2026-04-19T12:56:18.87Z</time></trkpt><trkpt lat="45.40613144631694" lon="7.511684023551454"><ele>547.0</ele><time>2026-04-19T12:56:19.87Z</time></trkpt><trkpt lat="45.406110007038045" lon="7.511494618854437"><ele>547.0</ele><time>2026-04-19T12:56:20.87Z</time></trkpt><trkpt lat="45.40608243561492" lon="7.511324823033074"><ele>547.0</ele><time>2026-04-19T12:56:21.87Z</time></trkpt><trkpt lat="45.40609967075819" lon="7.511154906119119"><ele>547.0</ele><time>2026-04-19T12:56:22.87Z</time></trkpt><trkpt lat="45.406131089387294" lon="7.510977986285712"><ele>547.0</ele><time>2026-04-19T12:56:23.87Z</time></trkpt><trkpt lat="45.40620533841608" lon="7.51082120837348"><ele>547.0</ele><time>2026-04-19T12:56:24.87Z</time></trkpt><trkpt lat="45.4062807100658" lon="7.510658260005208"><ele>547.0</ele><time>2026-04-19T12:56:25.87Z</time></trkpt><trkpt lat="45.406364710874726" lon="7.510495455217563"><ele>547.0</ele><time>2026-04-19T12:56:26.87Z</time></trkpt><trkpt lat="45.40645236138435" lon="7.51030469846845"><ele>548.6666666666667</ele><time>2026-04-19T12:56:27.87Z</time></trkpt><trkpt lat="45.40655484213949" lon="7.510116611038961"><ele>550.3333333333334</ele><time>2026-04-19T12:56:28.87Z</time></trkpt><trkpt lat="45.406658944491724" lon="7.509920079358742"><ele>552.0</ele><time>2026-04-19T12:56:29.87Z</time></trkpt><trkpt lat="45.40675378165478" lon="7.509695204331016"><ele>550.3333333333334</ele><time>2026-04-19T12:56:30.87Z</time></trkpt><trkpt lat="45.4068437938158" lon="7.509459542694049"><ele>548.6666666666667</ele><time>2026-04-19T12:56:31.87Z</time></trkpt><trkpt lat="45.406917809319665" lon="7.509209474200926"><ele>547.0</ele><time>2026-04-19T12:56:32.87Z</time></trkpt><trkpt lat="45.406971386020324" lon="7.508954662474254"><ele>546.6666666666667</ele><time>2026-04-19T12:56:33.87Z</time></trkpt><trkpt lat="45.40701159138401" lon="7.508698004801685"><ele>546.3333333333334</ele><time>2026-04-19T12:56:34.87Z</time></trkpt><trkpt lat="45.40704431213453" lon="7.508434657286722"><ele>546.0</ele><time>2026-04-19T12:56:35.87Z</time></trkpt><trkpt lat="45.407081546027094" lon="7.508169836745889"><ele>545.6666666666666</ele><time>2026-04-19T12:56:36.87Z</time></trkpt><trkpt lat="45.40712463089321" lon="7.507908242449423"><ele>545.3333333333333</ele><time>2026-04-19T12:56:37.87Z</time></trkpt><trkpt lat="45.407146899015615" lon="7.507624864029615"><ele>545.0</ele><time>2026-04-19T12:56:38.869Z</time></trkpt><trkpt lat="45.40715642368105" lon="7.507349034953553"><ele>544.6666666666666</ele><time>2026-04-19T12:56:39.869Z</time></trkpt><trkpt lat="45.40715108652586" lon="7.5070691940267995"><ele>544.3333333333334</ele><time>2026-04-19T12:56:40.869Z</time></trkpt><trkpt lat="45.40713717065285" lon="7.506777476884185"><ele>544.0</ele><time>2026-04-19T12:56:41.869Z</time></trkpt><trkpt lat="45.40711836692352" lon="7.5065030010024065"><ele>545.0</ele><time>2026-04-19T12:56:42.869Z</time></trkpt><trkpt lat="45.40709274803909" lon="7.506241604494532"><ele>546.0</ele><time>2026-04-19T12:56:43.869Z</time></trkpt><trkpt lat="45.407065883959525" lon="7.50598726779479"><ele>547.0</ele><time>2026-04-19T12:56:44.869Z</time></trkpt><trkpt lat="45.40703961843153" lon="7.505730831076609"><ele>547.0</ele><time>2026-04-19T12:56:45.869Z</time></trkpt><trkpt lat="45.4070121932218" lon="7.505466338227308"><ele>547.0</ele><time>2026-04-19T12:56:46.869Z</time></trkpt><trkpt lat="45.406984730236" lon="7.505203780425256"><ele>547.0</ele><time>2026-04-19T12:56:47.869Z</time></trkpt><trkpt lat="45.40695853054455" lon="7.504934481718512"><ele>547.0</ele><time>2026-04-19T12:56:48.869Z</time></trkpt><trkpt lat="45.40693500451291" lon="7.504657967232192"><ele>547.0</ele><time>2026-04-19T12:56:49.869Z</time></trkpt><trkpt lat="45.4069057994843" lon="7.504375413240175"><ele>547.0</ele><time>2026-04-19T12:56:50.869Z</time></trkpt><trkpt lat="45.406880286398966" lon="7.504088168870035"><ele>548.0</ele><time>2026-04-19T12:56:51.869Z</time></trkpt><trkpt lat="45.40685028919153" lon="7.503798127627425"><ele>549.0</ele><time>2026-04-19T12:56:52.869Z</time></trkpt><trkpt lat="45.406836365390824" lon="7.50350647163369"><ele>550.0</ele><time>2026-04-19T12:56:53.869Z</time></trkpt><trkpt lat="45.406836947647065" lon="7.503210228952564"><ele>551.6666666666667</ele><time>2026-04-19T12:56:54.869Z</time></trkpt><trkpt lat="45.4068503631819" lon="7.502913474648828"><ele>553.3333333333334</ele><time>2026-04-19T12:56:55.869Z</time></trkpt><trkpt lat="45.40686837765865" lon="7.502628961691547"><ele>555.0</ele><time>2026-04-19T12:56:56.869Z</time></trkpt><trkpt lat="45.406881124372035" lon="7.502348092122026"><ele>553.6666666666666</ele><time>2026-04-19T12:56:57.869Z</time></trkpt><trkpt lat="45.406895726891186" lon="7.502072810546101"><ele>552.3333333333333</ele><time>2026-04-19T12:56:58.869Z</time></trkpt><trkpt lat="45.406905756226045" lon="7.501792622737098"><ele>551.0</ele><time>2026-04-19T12:56:59.869Z</time></trkpt><trkpt lat="45.406927855384936" lon="7.50152142806609"><ele>551.0</ele><time>2026-04-19T12:57:00.869Z</time></trkpt><trkpt lat="45.40695972187478" lon="7.501253553378348"><ele>551.0</ele><time>2026-04-19T12:57:01.869Z</time></trkpt><trkpt lat="45.40703269460532" lon="7.501011749169697"><ele>551.0</ele><time>2026-04-19T12:57:02.869Z</time></trkpt><trkpt lat="45.40710862369356" lon="7.50077228091774"><ele>556.6666666666666</ele><time>2026-04-19T12:57:03.868Z</time></trkpt><trkpt lat="45.40716775089898" lon="7.500524206777289"><ele>562.3333333333334</ele><time>2026-04-19T12:57:04.868Z</time></trkpt><trkpt lat="45.40724078810475" lon="7.500284011197624"><ele>568.0</ele><time>2026-04-19T12:57:05.868Z</time></trkpt><trkpt lat="45.40728997167694" lon="7.5000263658247075"><ele>568.0</ele><time>2026-04-19T12:57:06.869Z</time></trkpt><trkpt lat="45.40732187589755" lon="7.499758439046109"><ele>568.0</ele><time>2026-04-19T12:57:07.869Z</time></trkpt><trkpt lat="45.407337181670144" lon="7.499472458502702"><ele>568.0</ele><time>2026-04-19T12:57:08.869Z</time></trkpt><trkpt lat="45.40734981369589" lon="7.49916638897745"><ele>565.6666666666667</ele><time>2026-04-19T12:57:09.869Z</time></trkpt><trkpt lat="45.40736907117683" lon="7.498882716380454"><ele>563.3333333333334</ele><time>2026-04-19T12:57:10.868Z</time></trkpt><trkpt lat="45.407381713601346" lon="7.498581252779256"><ele>561.0</ele><time>2026-04-19T12:57:11.868Z</time></trkpt><trkpt lat="45.407396030753105" lon="7.498276079644583"><ele>561.0</ele><time>2026-04-19T12:57:12.868Z</time></trkpt><trkpt lat="45.40740507438761" lon="7.497952995071266"><ele>561.0</ele><time>2026-04-19T12:57:13.868Z</time></trkpt><trkpt lat="45.40741542332157" lon="7.497630913989401"><ele>561.5</ele><time>2026-04-19T12:57:14.868Z</time></trkpt><trkpt lat="45.407430739967644" lon="7.497311794058383"><ele>562.0</ele><time>2026-04-19T12:57:15.868Z</time></trkpt><trkpt lat="45.407435458083775" lon="7.496987141398809"><ele>562.0</ele><time>2026-04-19T12:57:16.868Z</time></trkpt><trkpt lat="45.407436468641194" lon="7.49669054812824"><ele>562.0</ele><time>2026-04-19T12:57:17.868Z</time></trkpt><trkpt lat="45.407442765170764" lon="7.496418456089441"><ele>562.0</ele><time>2026-04-19T12:57:18.868Z</time></trkpt><trkpt lat="45.407427616269224" lon="7.496164374925012"><ele>562.6666666666667</ele><time>2026-04-19T12:57:19.868Z</time></trkpt><trkpt lat="45.407407214477395" lon="7.495911945635595"><ele>563.3333333333334</ele><time>2026-04-19T12:57:20.868Z</time></trkpt><trkpt lat="45.40741432182734" lon="7.495663292633387"><ele>564.0</ele><time>2026-04-19T12:57:21.868Z</time></trkpt><trkpt lat="45.40744120238633" lon="7.495432994210652"><ele>565.3333333333334</ele><time>2026-04-19T12:57:22.868Z</time></trkpt><trkpt lat="45.40747481533801" lon="7.4952183926378275"><ele>566.6666666666667</ele><time>2026-04-19T12:57:23.868Z</time></trkpt><trkpt lat="45.40752433722262" lon="7.495023773346993"><ele>568.0</ele><time>2026-04-19T12:57:24.868Z</time></trkpt><trkpt lat="45.407603984919426" lon="7.494837597282382"><ele>568.0</ele><time>2026-04-19T12:57:25.868Z</time></trkpt><trkpt lat="45.40768172855769" lon="7.494648011837975"><ele>568.0</ele><time>2026-04-19T12:57:26.868Z</time></trkpt><trkpt lat="45.407730662019105" lon="7.4944217955792825"><ele>568.0</ele><time>2026-04-19T12:57:27.868Z</time></trkpt><trkpt lat="45.407771039317005" lon="7.494180046042414"><ele>566.6666666666667</ele><time>2026-04-19T12:57:28.868Z</time></trkpt><trkpt lat="45.40781024287459" lon="7.493918160038665"><ele>565.3333333333334</ele><time>2026-04-19T12:57:29.868Z</time></trkpt><trkpt lat="45.407857604670724" lon="7.4936614737770535"><ele>564.0</ele><time>2026-04-19T12:57:30.868Z</time></trkpt><trkpt lat="45.40789514810178" lon="7.493392874363764"><ele>563.3333333333334</ele><time>2026-04-19T12:57:31.868Z</time></trkpt><trkpt lat="45.40793198496568" lon="7.493115209593473"><ele>562.6666666666667</ele><time>2026-04-19T12:57:32.868Z</time></trkpt><trkpt lat="45.40796894343586" lon="7.492840921791319"><ele>562.0</ele><time>2026-04-19T12:57:33.868Z</time></trkpt><trkpt lat="45.408004169340366" lon="7.492559365857775"><ele>568.6666666666667</ele><time>2026-04-19T12:57:34.868Z</time></trkpt><trkpt lat="45.4080361580188" lon="7.492276436064755"><ele>575.3333333333334</ele><time>2026-04-19T12:57:35.868Z</time></trkpt><trkpt lat="45.40805958633251" lon="7.491998550442396"><ele>582.0</ele><time>2026-04-19T12:57:36.868Z</time></trkpt><trkpt lat="45.408070855573186" lon="7.491749830142971"><ele>582.0</ele><time>2026-04-19T12:57:37.868Z</time></trkpt><trkpt lat="45.40805338994602" lon="7.49149281482475"><ele>582.0</ele><time>2026-04-19T12:57:38.868Z</time></trkpt><trkpt lat="45.40801272851878" lon="7.491228095442644"><ele>582.0</ele><time>2026-04-19T12:57:39.868Z</time></trkpt><trkpt lat="45.40797379264127" lon="7.490960536540496"><ele>574.6666666666666</ele><time>2026-04-19T12:57:40.868Z</time></trkpt><trkpt lat="45.407937728960285" lon="7.490680664562114"><ele>567.3333333333333</ele><time>2026-04-19T12:57:41.868Z</time></trkpt><trkpt lat="45.40790995724693" lon="7.490414051080246"><ele>560.0</ele><time>2026-04-19T12:57:42.868Z</time></trkpt><trkpt lat="45.40788220415723" lon="7.490169050924361"><ele>560.0</ele><time>2026-04-19T12:57:43.868Z</time></trkpt><trkpt lat="45.40785421035408" lon="7.489952933907374"><ele>560.0</ele><time>2026-04-19T12:57:44.868Z</time></trkpt><trkpt lat="45.407842361642025" lon="7.489770096741467"><ele>560.0</ele><time>2026-04-19T12:57:45.868Z</time></trkpt><trkpt lat="45.407842567021376" lon="7.489612669307008"><ele>560.0</ele><time>2026-04-19T12:57:46.868Z</time></trkpt><trkpt lat="45.40787585313206" lon="7.489475785692127"><ele>560.8</ele><time>2026-04-19T12:57:47.868Z</time></trkpt><trkpt lat="45.407958383272835" lon="7.489403817147355"><ele>561.6</ele><time>2026-04-19T12:57:48.868Z</time></trkpt><trkpt lat="45.40803105087602" lon="7.489304182874806"><ele>562.4</ele><time>2026-04-19T12:57:49.868Z</time></trkpt><trkpt lat="45.40811319853686" lon="7.4891903411201"><ele>563.2</ele><time>2026-04-19T12:57:50.868Z</time></trkpt><trkpt lat="45.40821169394924" lon="7.489061399831957"><ele>564.0</ele><time>2026-04-19T12:57:51.868Z</time></trkpt><trkpt lat="45.408304900572" lon="7.488917033072407"><ele>565.6666666666666</ele><time>2026-04-19T12:57:52.868Z</time></trkpt><trkpt lat="45.408409657331205" lon="7.488773316477318"><ele>567.3333333333333</ele><time>2026-04-19T12:57:53.868Z</time></trkpt><trkpt lat="45.408521744220444" lon="7.488612850197246"><ele>569.0</ele><time>2026-04-19T12:57:54.868Z</time></trkpt><trkpt lat="45.40863310887908" lon="7.4884192214202345"><ele>569.0</ele><time>2026-04-19T12:57:55.868Z</time></trkpt><trkpt lat="45.40875856805837" lon="7.488230801861139"><ele>569.0</ele><time>2026-04-19T12:57:56.868Z</time></trkpt><trkpt lat="45.40888156339289" lon="7.488040746966676"><ele>569.0</ele><time>2026-04-19T12:57:57.868Z</time></trkpt><trkpt lat="45.40898151261926" lon="7.4878343783301275"><ele>574.0</ele><time>2026-04-19T12:57:58.868Z</time></trkpt><trkpt lat="45.40905749475019" lon="7.487613763066336"><ele>579.0</ele><time>2026-04-19T12:57:59.868Z</time></trkpt><trkpt lat="45.40911481664582" lon="7.4873839904095805"><ele>584.0</ele><time>2026-04-19T12:58:00.868Z</time></trkpt><trkpt lat="45.409158218888756" lon="7.4871376077007055"><ele>580.3333333333333</ele><time>2026-04-19T12:58:01.868Z</time></trkpt><trkpt lat="45.40920754769745" lon="7.486893936936869"><ele>576.6666666666666</ele><time>2026-04-19T12:58:02.868Z</time></trkpt><trkpt lat="45.409266232207884" lon="7.4866604536698205"><ele>573.0</ele><time>2026-04-19T12:58:03.868Z</time></trkpt><trkpt lat="45.40932757449029" lon="7.486421307563961"><ele>572.3333333333334</ele><time>2026-04-19T12:58:04.868Z</time></trkpt><trkpt lat="45.409386001998215" lon="7.48617094945882"><ele>571.6666666666667</ele><time>2026-04-19T12:58:05.868Z</time></trkpt><trkpt lat="45.40944866866607" lon="7.485921148452805"><ele>571.0</ele><time>2026-04-19T12:58:06.868Z</time></trkpt><trkpt lat="45.40950714214596" lon="7.485662019831484"><ele>573.0</ele><time>2026-04-19T12:58:07.868Z</time></trkpt><trkpt lat="45.409566809648126" lon="7.485411963877389"><ele>575.0</ele><time>2026-04-19T12:58:08.868Z</time></trkpt><trkpt lat="45.409622322854084" lon="7.485171447307314"><ele>577.0</ele><time>2026-04-19T12:58:09.868Z</time></trkpt><trkpt lat="45.40965935501867" lon="7.48493684469755"><ele>580.0</ele><time>2026-04-19T12:58:10.868Z</time></trkpt><trkpt lat="45.409704822736884" lon="7.484715161142026"><ele>583.0</ele><time>2026-04-19T12:58:11.868Z</time></trkpt><trkpt lat="45.409750272808395" lon="7.48449729864489"><ele>586.0</ele><time>2026-04-19T12:58:12.868Z</time></trkpt><trkpt lat="45.40979540784431" lon="7.484293190970884"><ele>586.0</ele><time>2026-04-19T12:58:13.868Z</time></trkpt><trkpt lat="45.40981711069193" lon="7.484084377480451"><ele>586.0</ele><time>2026-04-19T12:58:14.868Z</time></trkpt><trkpt lat="45.409827627770326" lon="7.483862720811263"><ele>586.0</ele><time>2026-04-19T12:58:15.868Z</time></trkpt><trkpt lat="45.40982734777933" lon="7.4836400669077605"><ele>584.6666666666667</ele><time>2026-04-19T12:58:16.868Z</time></trkpt><trkpt lat="45.409818034383555" lon="7.483412499968883"><ele>583.3333333333334</ele><time>2026-04-19T12:58:17.868Z</time></trkpt><trkpt lat="45.40980847948046" lon="7.483179031967406"><ele>582.0</ele><time>2026-04-19T12:58:18.868Z</time></trkpt><trkpt lat="45.409785046836944" lon="7.482952985386625"><ele>582.0</ele><time>2026-04-19T12:58:19.868Z</time></trkpt><trkpt lat="45.40978238306333" lon="7.4827372628791045"><ele>582.0</ele><time>2026-04-19T12:58:20.868Z</time></trkpt><trkpt lat="45.409777520334806" lon="7.482539536339184"><ele>582.0</ele><time>2026-04-19T12:58:21.868Z</time></trkpt><trkpt lat="45.40978172766473" lon="7.482363914324355"><ele>582.0</ele><time>2026-04-19T12:58:22.868Z</time></trkpt><trkpt lat="45.40980141782739" lon="7.482206777630018"><ele>581.0</ele><time>2026-04-19T12:58:23.868Z</time></trkpt><trkpt lat="45.40984654488404" lon="7.482059060792464"><ele>580.0</ele><time>2026-04-19T12:58:24.868Z</time></trkpt><trkpt lat="45.40991495120694" lon="7.481922841229918"><ele>579.0</ele><time>2026-04-19T12:58:25.868Z</time></trkpt><trkpt lat="45.410005176992705" lon="7.481804454032674"><ele>578.0</ele><time>2026-04-19T12:58:26.868Z</time></trkpt><trkpt lat="45.41011154691965" lon="7.48171255057077"><ele>578.0</ele><time>2026-04-19T12:58:27.868Z</time></trkpt><trkpt lat="45.41023254084403" lon="7.481666392344485"><ele>578.0</ele><time>2026-04-19T12:58:28.868Z</time></trkpt><trkpt lat="45.41036344691629" lon="7.4816582779977505"><ele>578.0</ele><time>2026-04-19T12:58:29.868Z</time></trkpt><trkpt lat="45.41048526665694" lon="7.481648094852423"><ele>578.0</ele><time>2026-04-19T12:58:30.868Z</time></trkpt><trkpt lat="45.41061704917353" lon="7.481597157884428"><ele>579.0</ele><time>2026-04-19T12:58:31.868Z</time></trkpt><trkpt lat="45.410759611103195" lon="7.481525032878474"><ele>580.0</ele><time>2026-04-19T12:58:32.868Z</time></trkpt><trkpt lat="45.41089393019192" lon="7.481401581873006"><ele>581.0</ele><time>2026-04-19T12:58:33.868Z</time></trkpt><trkpt lat="45.41102613455474" lon="7.481263217469796"><ele>581.0</ele><time>2026-04-19T12:58:34.868Z</time></trkpt><trkpt lat="45.41112633187676" lon="7.4810750432769515"><ele>581.0</ele><time>2026-04-19T12:58:35.868Z</time></trkpt><trkpt lat="45.41121004101138" lon="7.480873913571431"><ele>581.0</ele><time>2026-04-19T12:58:36.868Z</time></trkpt><trkpt lat="45.41128915953131" lon="7.480661038611865"><ele>584.3333333333333</ele><time>2026-04-19T12:58:37.868Z</time></trkpt><trkpt lat="45.41137311932075" lon="7.480442598031122"><ele>587.6666666666666</ele><time>2026-04-19T12:58:38.868Z</time></trkpt><trkpt lat="45.41145232444457" lon="7.480257087669448"><ele>591.0</ele><time>2026-04-19T12:58:39.868Z</time></trkpt><trkpt lat="45.41153740084503" lon="7.480102374859766"><ele>591.0</ele><time>2026-04-19T12:58:40.867Z</time></trkpt><trkpt lat="45.4116312185872" lon="7.479989451052552"><ele>591.0</ele><time>2026-04-19T12:58:41.867Z</time></trkpt><trkpt lat="45.411736672364476" lon="7.479888611273066"><ele>591.0</ele><time>2026-04-19T12:58:42.867Z</time></trkpt><trkpt lat="45.41185094917242" lon="7.479755525047339"><ele>591.0</ele><time>2026-04-19T12:58:43.867Z</time></trkpt><trkpt lat="45.41194620475707" lon="7.479596022512538"><ele>587.3333333333334</ele><time>2026-04-19T12:58:44.867Z</time></trkpt><trkpt lat="45.41202226721363" lon="7.479399466974965"><ele>583.6666666666667</ele><time>2026-04-19T12:58:45.867Z</time></trkpt><trkpt lat="45.412093691637644" lon="7.479187921058524"><ele>580.0</ele><time>2026-04-19T12:58:46.867Z</time></trkpt><trkpt lat="45.41214636496625" lon="7.4789476010108"><ele>588.6666666666667</ele><time>2026-04-19T12:58:47.867Z</time></trkpt><trkpt lat="45.41219749140566" lon="7.478701993189866"><ele>597.3333333333334</ele><time>2026-04-19T12:58:48.867Z</time></trkpt><trkpt lat="45.41225132815086" lon="7.478446040300552"><ele>606.0</ele><time>2026-04-19T12:58:49.867Z</time></trkpt><trkpt lat="45.41228717998174" lon="7.478172690367609"><ele>602.3333333333334</ele><time>2026-04-19T12:58:50.867Z</time></trkpt><trkpt lat="45.41229779478193" lon="7.47789854308398"><ele>598.6666666666667</ele><time>2026-04-19T12:58:51.867Z</time></trkpt><trkpt lat="45.41229853628751" lon="7.477648189642791"><ele>595.0</ele><time>2026-04-19T12:58:52.867Z</time></trkpt><trkpt lat="45.41229870757103" lon="7.477395265912016"><ele>595.0</ele><time>2026-04-19T12:58:53.867Z</time></trkpt><trkpt lat="45.41229451622163" lon="7.477143162516949"><ele>595.0</ele><time>2026-04-19T12:58:54.867Z</time></trkpt><trkpt lat="45.41228871958932" lon="7.476903428925199"><ele>595.0</ele><time>2026-04-19T12:58:55.867Z</time></trkpt><trkpt lat="45.412289438780164" lon="7.4766683426763505"><ele>594.6666666666667</ele><time>2026-04-19T12:58:56.867Z</time></trkpt><trkpt lat="45.41229449645323" lon="7.476434908054736"><ele>594.3333333333334</ele><time>2026-04-19T12:58:57.867Z</time></trkpt><trkpt lat="45.412304785405944" lon="7.47619542247869"><ele>594.0</ele><time>2026-04-19T12:58:58.867Z</time></trkpt><trkpt lat="45.412318761271635" lon="7.475943244567808"><ele>594.0</ele><time>2026-04-19T12:58:59.867Z</time></trkpt><trkpt lat="45.41234778006849" lon="7.475704672408207"><ele>594.0</ele><time>2026-04-19T12:59:00.867Z</time></trkpt><trkpt lat="45.41237127760172" lon="7.4754570491543255"><ele>594.0</ele><time>2026-04-19T12:59:01.867Z</time></trkpt><trkpt lat="45.41239612564172" lon="7.475225535160379"><ele>593.0</ele><time>2026-04-19T12:59:02.867Z</time></trkpt><trkpt lat="45.41243429650292" lon="7.474991916658249"><ele>592.0</ele><time>2026-04-19T12:59:03.867Z</time></trkpt><trkpt lat="45.41248524332349" lon="7.474766550070329"><ele>591.0</ele><time>2026-04-19T12:59:04.867Z</time></trkpt><trkpt lat="45.41253236884461" lon="7.474530811490344"><ele>589.6666666666666</ele><time>2026-04-19T12:59:05.867Z</time></trkpt><trkpt lat="45.41258657518911" lon="7.4742990425297355"><ele>588.3333333333333</ele><time>2026-04-19T12:59:06.867Z</time></trkpt><trkpt lat="45.41263419517628" lon="7.474067532581324"><ele>587.0</ele><time>2026-04-19T12:59:07.866Z</time></trkpt><trkpt lat="45.41268715301578" lon="7.473850101591585"><ele>587.0</ele><time>2026-04-19T12:59:08.866Z</time></trkpt><trkpt lat="45.412741393977356" lon="7.473645014153581"><ele>587.0</ele><time>2026-04-19T12:59:09.866Z</time></trkpt><trkpt lat="45.41280240791389" lon="7.473458775542051"><ele>587.0</ele><time>2026-04-19T12:59:10.866Z</time></trkpt><trkpt lat="45.41287786051269" lon="7.473298399716268"><ele>587.0</ele><time>2026-04-19T12:59:11.866Z</time></trkpt><trkpt lat="45.41298290712042" lon="7.473174787073962"><ele>587.6666666666666</ele><time>2026-04-19T12:59:12.866Z</time></trkpt><trkpt lat="45.413102093716084" lon="7.473050261848189"><ele>588.3333333333334</ele><time>2026-04-19T12:59:13.867Z</time></trkpt><trkpt lat="45.4132254053608" lon="7.472908317017989"><ele>589.0</ele><time>2026-04-19T12:59:14.867Z</time></trkpt><trkpt lat="45.41335705906173" lon="7.472750353556802"><ele>589.0</ele><time>2026-04-19T12:59:15.866Z</time></trkpt><trkpt lat="45.41349825250447" lon="7.472599448008855"><ele>589.0</ele><time>2026-04-19T12:59:16.866Z</time></trkpt><trkpt lat="45.41364193184861" lon="7.472427634193547"><ele>589.0</ele><time>2026-04-19T12:59:17.866Z</time></trkpt><trkpt lat="45.413787708696894" lon="7.472256087335626"><ele>588.0</ele><time>2026-04-19T12:59:18.866Z</time></trkpt><trkpt lat="45.41392940740146" lon="7.47209731989997"><ele>587.0</ele><time>2026-04-19T12:59:19.866Z</time></trkpt><trkpt lat="45.41405928177339" lon="7.471923261214914"><ele>586.0</ele><time>2026-04-19T12:59:20.866Z</time></trkpt><trkpt lat="45.414172406221326" lon="7.471732225169535"><ele>586.0</ele><time>2026-04-19T12:59:21.866Z</time></trkpt><trkpt lat="45.41426972882298" lon="7.471505173180899"><ele>586.0</ele><time>2026-04-19T12:59:22.866Z</time></trkpt><trkpt lat="45.41437076548117" lon="7.4712708400097805"><ele>586.0</ele><time>2026-04-19T12:59:23.866Z</time></trkpt><trkpt lat="45.414473671007364" lon="7.4710311872375135"><ele>586.0</ele><time>2026-04-19T12:59:24.866Z</time></trkpt><trkpt lat="45.414576974311586" lon="7.470788472195994"><ele>586.0</ele><time>2026-04-19T12:59:25.866Z</time></trkpt><trkpt lat="45.41468239208859" lon="7.470544990513187"><ele>586.0</ele><time>2026-04-19T12:59:26.866Z</time></trkpt><trkpt lat="45.41479070136423" lon="7.470300829277629"><ele>587.3333333333334</ele><time>2026-04-19T12:59:27.866Z</time></trkpt><trkpt lat="45.41489995051996" lon="7.470052529034829"><ele>588.6666666666666</ele><time>2026-04-19T12:59:28.866Z</time></trkpt><trkpt lat="45.4150096579472" lon="7.469792784949777"><ele>590.0</ele><time>2026-04-19T12:59:29.866Z</time></trkpt><trkpt lat="45.415122123041755" lon="7.469533729596271"><ele>590.0</ele><time>2026-04-19T12:59:30.866Z</time></trkpt><trkpt lat="45.41523439573228" lon="7.469276634208361"><ele>590.0</ele><time>2026-04-19T12:59:31.866Z</time></trkpt><trkpt lat="45.41534230060186" lon="7.469027608894727"><ele>590.0</ele><time>2026-04-19T12:59:32.866Z</time></trkpt><trkpt lat="45.41544503315868" lon="7.468787783566969"><ele>595.6666666666666</ele><time>2026-04-19T12:59:33.866Z</time></trkpt><trkpt lat="45.41554163186593" lon="7.468557405988042"><ele>601.3333333333334</ele><time>2026-04-19T12:59:34.866Z</time></trkpt><trkpt lat="45.415639043016434" lon="7.468316467920638"><ele>607.0</ele><time>2026-04-19T12:59:35.866Z</time></trkpt><trkpt lat="45.41573986520668" lon="7.468091340026318"><ele>603.6666666666667</ele><time>2026-04-19T12:59:36.866Z</time></trkpt><trkpt lat="45.41584560738579" lon="7.467870870353161"><ele>600.3333333333334</ele><time>2026-04-19T12:59:37.866Z</time></trkpt><trkpt lat="45.415947482886544" lon="7.467647634834736"><ele>597.0</ele><time>2026-04-19T12:59:38.866Z</time></trkpt><trkpt lat="45.4160408594922" lon="7.467425611186818"><ele>597.0</ele><time>2026-04-19T12:59:39.866Z</time></trkpt><trkpt lat="45.416121930854366" lon="7.467200869656194"><ele>597.0</ele><time>2026-04-19T12:59:40.866Z</time></trkpt><trkpt lat="45.41617841748937" lon="7.466971705068963"><ele>597.0</ele><time>2026-04-19T12:59:41.866Z</time></trkpt><trkpt lat="45.41620939191431" lon="7.466723236854207"><ele>595.3333333333334</ele><time>2026-04-19T12:59:42.866Z</time></trkpt><trkpt lat="45.416239548713946" lon="7.466479841394738"><ele>593.6666666666667</ele><time>2026-04-19T12:59:43.866Z</time></trkpt><trkpt lat="45.416269747555404" lon="7.466237622919636"><ele>592.0</ele><time>2026-04-19T12:59:44.866Z</time></trkpt><trkpt lat="45.41629640466024" lon="7.4660097406715344"><ele>595.5</ele><time>2026-04-19T12:59:45.866Z</time></trkpt><trkpt lat="45.41632598901348" lon="7.465800070767662"><ele>599.0</ele><time>2026-04-19T12:59:46.866Z</time></trkpt><trkpt lat="45.41634997576396" lon="7.465605491631218"><ele>602.5</ele><time>2026-04-19T12:59:47.866Z</time></trkpt><trkpt lat="45.416372023505964" lon="7.465421518458497"><ele>606.0</ele><time>2026-04-19T12:59:48.866Z</time></trkpt><trkpt lat="45.41639513007608" lon="7.465246388597352"><ele>606.0</ele><time>2026-04-19T12:59:49.866Z</time></trkpt><trkpt lat="45.416420414832814" lon="7.465078822413202"><ele>606.0</ele><time>2026-04-19T12:59:50.866Z</time></trkpt><trkpt lat="45.41644231053321" lon="7.464905884910693"><ele>606.0</ele><time>2026-04-19T12:59:51.866Z</time></trkpt><trkpt lat="45.416451255540316" lon="7.464734358109303"><ele>606.0</ele><time>2026-04-19T12:59:52.866Z</time></trkpt><trkpt lat="45.41645180446716" lon="7.464564661912218"><ele>605.75</ele><time>2026-04-19T12:59:53.866Z</time></trkpt><trkpt lat="45.416440661204206" lon="7.464381206659103"><ele>605.5</ele><time>2026-04-19T12:59:54.866Z</time></trkpt><trkpt lat="45.41642320003066" lon="7.464192041724231"><ele>605.25</ele><time>2026-04-19T12:59:55.866Z</time></trkpt><trkpt lat="45.416399365495714" lon="7.463989822855645"><ele>605.0</ele><time>2026-04-19T12:59:56.866Z</time></trkpt><trkpt lat="45.41637970816456" lon="7.463778286379026"><ele>604.75</ele><time>2026-04-19T12:59:57.866Z</time></trkpt><trkpt lat="45.41636877224544" lon="7.4635641481958634"><ele>604.5</ele><time>2026-04-19T12:59:58.866Z</time></trkpt><trkpt lat="45.41635608579946" lon="7.463355133794896"><ele>604.25</ele><time>2026-04-19T12:59:59.866Z</time></trkpt><trkpt lat="45.41634178498237" lon="7.463141943445572"><ele>604.0</ele><time>2026-04-19T13:00:00.866Z</time></trkpt><trkpt lat="45.41631670697183" lon="7.46292644329116"><ele>603.5</ele><time>2026-04-19T13:00:01.866Z</time></trkpt><trkpt lat="45.4162989475264" lon="7.462717282821068"><ele>603.0</ele><time>2026-04-19T13:00:02.866Z</time></trkpt><trkpt lat="45.416275015683134" lon="7.462503500028849"><ele>602.5</ele><time>2026-04-19T13:00:03.866Z</time></trkpt><trkpt lat="45.41626386143123" lon="7.462293582483775"><ele>602.0</ele><time>2026-04-19T13:00:04.866Z</time></trkpt><trkpt lat="45.41626231142885" lon="7.462083934122085"><ele>602.0</ele><time>2026-04-19T13:00:05.866Z</time></trkpt><trkpt lat="45.41627792864324" lon="7.461894837781987"><ele>602.0</ele><time>2026-04-19T13:00:06.866Z</time></trkpt><trkpt lat="45.41630729757921" lon="7.461712737825369"><ele>602.0</ele><time>2026-04-19T13:00:07.866Z</time></trkpt><trkpt lat="45.416335472660755" lon="7.461547002446867"><ele>602.0</ele><time>2026-04-19T13:00:08.866Z</time></trkpt><trkpt lat="45.41633564331393" lon="7.46139732902544"><ele>603.0</ele><time>2026-04-19T13:00:09.866Z</time></trkpt><trkpt lat="45.41634180549745" lon="7.461237241642545"><ele>604.0</ele><time>2026-04-19T13:00:10.866Z</time></trkpt><trkpt lat="45.416349671244674" lon="7.461064087678161"><ele>605.0</ele><time>2026-04-19T13:00:11.866Z</time></trkpt><trkpt lat="45.41636486843157" lon="7.460876734384163"><ele>606.0</ele><time>2026-04-19T13:00:12.866Z</time></trkpt><trkpt lat="45.41638295648227" lon="7.460701881738578"><ele>606.0</ele><time>2026-04-19T13:00:13.866Z</time></trkpt><trkpt lat="45.4164148512058" lon="7.460506569455752"><ele>606.0</ele><time>2026-04-19T13:00:14.866Z</time></trkpt><trkpt lat="45.41644932496866" lon="7.460326933469392"><ele>606.0</ele><time>2026-04-19T13:00:15.866Z</time></trkpt><trkpt lat="45.416484626233746" lon="7.460136881278805"><ele>606.0</ele><time>2026-04-19T13:00:16.866Z</time></trkpt><trkpt lat="45.416512004472644" lon="7.4596740707208316"><ele>606.75</ele><time>2026-04-19T13:00:17.866Z</time></trkpt><trkpt lat="45.41655007022524" lon="7.459479492751581"><ele>607.5</ele><time>2026-04-19T13:00:18.866Z</time></trkpt><trkpt lat="45.416594658914505" lon="7.459299672535904"><ele>608.25</ele><time>2026-04-19T13:00:19.866Z</time></trkpt><trkpt lat="45.41663360090219" lon="7.459109030575841"><ele>609.0</ele><time>2026-04-19T13:00:20.866Z</time></trkpt><trkpt lat="45.41666977136343" lon="7.458919367611158"><ele>608.5</ele><time>2026-04-19T13:00:21.866Z</time></trkpt><trkpt lat="45.4167096191986" lon="7.458733254870375"><ele>608.0</ele><time>2026-04-19T13:00:22.866Z</time></trkpt><trkpt lat="45.416746293615766" lon="7.458537144360242"><ele>607.5</ele><time>2026-04-19T13:00:23.866Z</time></trkpt><trkpt lat="45.41678815962115" lon="7.458341110612302"><ele>607.0</ele><time>2026-04-19T13:00:24.866Z</time></trkpt><trkpt lat="45.41682906662011" lon="7.458141063419362"><ele>607.0</ele><time>2026-04-19T13:00:25.866Z</time></trkpt><trkpt lat="45.416871115570586" lon="7.457943990253714"><ele>607.0</ele><time>2026-04-19T13:00:26.866Z</time></trkpt><trkpt lat="45.41691958312869" lon="7.457749868424541"><ele>607.0</ele><time>2026-04-19T13:00:27.866Z</time></trkpt><trkpt lat="45.41697345449189" lon="7.4575731245803025"><ele>607.0</ele><time>2026-04-19T13:00:28.866Z</time></trkpt><trkpt lat="45.41702647437786" lon="7.457411715057463"><ele>607.0</ele><time>2026-04-19T13:00:29.865Z</time></trkpt><trkpt lat="45.417071601856236" lon="7.457259492219444"><ele>607.0</ele><time>2026-04-19T13:00:30.865Z</time></trkpt><trkpt lat="45.41711670960148" lon="7.457093741017472"><ele>607.0</ele><time>2026-04-19T13:00:31.865Z</time></trkpt><trkpt lat="45.417165489129175" lon="7.456926080640482"><ele>607.0</ele><time>2026-04-19T13:00:32.865Z</time></trkpt><trkpt lat="45.41722070235543" lon="7.456756873687534"><ele>607.25</ele><time>2026-04-19T13:00:33.865Z</time></trkpt><trkpt lat="45.41727483426881" lon="7.456579057189441"><ele>607.5</ele><time>2026-04-19T13:00:34.865Z</time></trkpt><trkpt lat="45.417323685364146" lon="7.456410031983975"><ele>607.75</ele><time>2026-04-19T13:00:35.865Z</time></trkpt><trkpt lat="45.41738612308737" lon="7.456221953680516"><ele>608.0</ele><time>2026-04-19T13:00:36.865Z</time></trkpt><trkpt lat="45.417434040784556" lon="7.4560358859077045"><ele>608.0</ele><time>2026-04-19T13:00:37.865Z</time></trkpt><trkpt lat="45.41749377376455" lon="7.455849170407293"><ele>608.0</ele><time>2026-04-19T13:00:38.865Z</time></trkpt><trkpt lat="45.41754986151416" lon="7.455658593355422"><ele>608.0</ele><time>2026-04-19T13:00:39.865Z</time></trkpt><trkpt lat="45.41761831743606" lon="7.455480027172916"><ele>608.0</ele><time>2026-04-19T13:00:40.865Z</time></trkpt><trkpt lat="45.41766980224946" lon="7.455313686177346"><ele>607.75</ele><time>2026-04-19T13:00:41.865Z</time></trkpt><trkpt lat="45.4177209784723" lon="7.45516565356891"><ele>607.5</ele><time>2026-04-19T13:00:42.865Z</time></trkpt><trkpt lat="45.417771659766714" lon="7.455021696477191"><ele>607.25</ele><time>2026-04-19T13:00:43.865Z</time></trkpt><trkpt lat="45.41781413785285" lon="7.45486405685993"><ele>607.0</ele><time>2026-04-19T13:00:44.865Z</time></trkpt><trkpt lat="45.41785686566973" lon="7.454704653904786"><ele>607.25</ele><time>2026-04-19T13:00:45.865Z</time></trkpt><trkpt lat="45.41789663323699" lon="7.454540453618197"><ele>607.5</ele><time>2026-04-19T13:00:46.865Z</time></trkpt><trkpt lat="45.41790607292088" lon="7.454344793581449"><ele>607.75</ele><time>2026-04-19T13:00:47.865Z</time></trkpt><trkpt lat="45.41790348304128" lon="7.454139614506467"><ele>608.0</ele><time>2026-04-19T13:00:48.865Z</time></trkpt><trkpt lat="45.41789026928866" lon="7.453948042297167"><ele>608.75</ele><time>2026-04-19T13:00:49.865Z</time></trkpt><trkpt lat="45.41788227734507" lon="7.453767614079723"><ele>609.5</ele><time>2026-04-19T13:00:50.865Z</time></trkpt><trkpt lat="45.41786972198944" lon="7.453594311253239"><ele>610.25</ele><time>2026-04-19T13:00:51.865Z</time></trkpt><trkpt lat="45.41786421608787" lon="7.453409692110145"><ele>611.0</ele><time>2026-04-19T13:00:52.865Z</time></trkpt><trkpt lat="45.41788321394306" lon="7.4532309610419984"><ele>611.0</ele><time>2026-04-19T13:00:53.865Z</time></trkpt><trkpt lat="45.41791901001234" lon="7.453055277024044"><ele>611.0</ele><time>2026-04-19T13:00:54.865Z</time></trkpt><trkpt lat="45.41797041770425" lon="7.45288325165699"><ele>611.0</ele><time>2026-04-19T13:00:55.865Z</time></trkpt><trkpt lat="45.41805967992873" lon="7.452752667450583"><ele>611.0</ele><time>2026-04-19T13:00:56.865Z</time></trkpt><trkpt lat="45.41815102217351" lon="7.452637874737234"><ele>611.5</ele><time>2026-04-19T13:00:57.865Z</time></trkpt><trkpt lat="45.418243322571804" lon="7.452529241576867"><ele>612.0</ele><time>2026-04-19T13:00:58.865Z</time></trkpt><trkpt lat="45.41834710485186" lon="7.452379500705808"><ele>612.5</ele><time>2026-04-19T13:00:59.865Z</time></trkpt><trkpt lat="45.418426683213866" lon="7.452204870017274"><ele>613.0</ele><time>2026-04-19T13:01:00.865Z</time></trkpt><trkpt lat="45.418507395305326" lon="7.4520206734948085"><ele>613.0</ele><time>2026-04-19T13:01:01.865Z</time></trkpt><trkpt lat="45.418589542253024" lon="7.451845759363177"><ele>613.0</ele><time>2026-04-19T13:01:02.865Z</time></trkpt><trkpt lat="45.418671261046214" lon="7.4516895481484715"><ele>613.0</ele><time>2026-04-19T13:01:03.865Z</time></trkpt><trkpt lat="45.41875177396374" lon="7.451532237882384"><ele>613.0</ele><time>2026-04-19T13:01:04.865Z</time></trkpt><trkpt lat="45.41881650795761" lon="7.451372351433058"><ele>617.5</ele><time>2026-04-19T13:01:05.865Z</time></trkpt><trkpt lat="45.418859571331176" lon="7.451189561422709"><ele>622.0</ele><time>2026-04-19T13:01:06.865Z</time></trkpt><trkpt lat="45.41888700904074" lon="7.4510088823204645"><ele>626.5</ele><time>2026-04-19T13:01:07.865Z</time></trkpt><trkpt lat="45.41889576352001" lon="7.450821876418248"><ele>631.0</ele><time>2026-04-19T13:01:08.865Z</time></trkpt><trkpt lat="45.41890490293929" lon="7.45062424540496"><ele>629.75</ele><time>2026-04-19T13:01:09.865Z</time></trkpt><trkpt lat="45.41891419931998" lon="7.4504245677638785"><ele>628.5</ele><time>2026-04-19T13:01:10.865Z</time></trkpt><trkpt lat="45.418919039505916" lon="7.450230965607977"><ele>627.25</ele><time>2026-04-19T13:01:11.865Z</time></trkpt><trkpt lat="45.41892639711916" lon="7.4500223736148135"><ele>626.0</ele><time>2026-04-19T13:01:12.864Z</time></trkpt><trkpt lat="45.41894148386943" lon="7.449820266197818"><ele>623.6666666666666</ele><time>2026-04-19T13:01:13.864Z</time></trkpt><trkpt lat="45.418930768433164" lon="7.449598165511312"><ele>621.3333333333334</ele><time>2026-04-19T13:01:14.864Z</time></trkpt><trkpt lat="45.418928710155036" lon="7.449389652670122"><ele>619.0</ele><time>2026-04-19T13:01:15.864Z</time></trkpt><trkpt lat="45.41890144964928" lon="7.449173413267912"><ele>619.0</ele><time>2026-04-19T13:01:16.865Z</time></trkpt><trkpt lat="45.41888147063322" lon="7.448970413623623"><ele>619.0</ele><time>2026-04-19T13:01:17.865Z</time></trkpt><trkpt lat="45.418866786313565" lon="7.4487760716174325"><ele>619.0</ele><time>2026-04-19T13:01:18.865Z</time></trkpt><trkpt lat="45.41886150956001" lon="7.448607677962391"><ele>619.0</ele><time>2026-04-19T13:01:19.864Z</time></trkpt><trkpt lat="45.418866298264206" lon="7.4484472667231065"><ele>619.0</ele><time>2026-04-19T13:01:20.864Z</time></trkpt><trkpt lat="45.41889245630454" lon="7.448285398325727"><ele>619.0</ele><time>2026-04-19T13:01:21.864Z</time></trkpt><trkpt lat="45.41896043805499" lon="7.448136587489466"><ele>619.0</ele><time>2026-04-19T13:01:22.864Z</time></trkpt><trkpt lat="45.41906436054478" lon="7.448011756189456"><ele>619.0</ele><time>2026-04-19T13:01:23.864Z</time></trkpt><trkpt lat="45.419143366698705" lon="7.447861463628931"><ele>619.5</ele><time>2026-04-19T13:01:24.864Z</time></trkpt><trkpt lat="45.419230623500845" lon="7.447702077588255"><ele>620.0</ele><time>2026-04-19T13:01:25.864Z</time></trkpt><trkpt lat="45.41931277649006" lon="7.4475320482726515"><ele>620.5</ele><time>2026-04-19T13:01:26.864Z</time></trkpt><trkpt lat="45.419389760568386" lon="7.447349796846573"><ele>621.0</ele><time>2026-04-19T13:01:27.864Z</time></trkpt><trkpt lat="45.41948205121825" lon="7.447173509083581"><ele>620.25</ele><time>2026-04-19T13:01:28.864Z</time></trkpt><trkpt lat="45.41955511968546" lon="7.446997501767408"><ele>619.5</ele><time>2026-04-19T13:01:29.864Z</time></trkpt><trkpt lat="45.41962368483873" lon="7.446812718947663"><ele>618.75</ele><time>2026-04-19T13:01:30.864Z</time></trkpt><trkpt lat="45.41968280012804" lon="7.446641469686553"><ele>618.0</ele><time>2026-04-19T13:01:31.864Z</time></trkpt><trkpt lat="45.41974274618654" lon="7.446472708334926"><ele>618.75</ele><time>2026-04-19T13:01:32.864Z</time></trkpt><trkpt lat="45.41981537699835" lon="7.446320245833132"><ele>619.5</ele><time>2026-04-19T13:01:33.864Z</time></trkpt><trkpt lat="45.419876110676256" lon="7.446173129664991"><ele>620.25</ele><time>2026-04-19T13:01:34.864Z</time></trkpt><trkpt lat="45.419957543341695" lon="7.446038125384348"><ele>621.0</ele><time>2026-04-19T13:01:35.864Z</time></trkpt><trkpt lat="45.42006450355097" lon="7.445943312230011"><ele>621.0</ele><time>2026-04-19T13:01:36.864Z</time></trkpt><trkpt lat="45.42017842044879" lon="7.445862172123519"><ele>621.0</ele><time>2026-04-19T13:01:37.864Z</time></trkpt><trkpt lat="45.42031200783725" lon="7.445777733281845"><ele>621.0</ele><time>2026-04-19T13:01:38.864Z</time></trkpt><trkpt lat="45.42043182169074" lon="7.445657064683238"><ele>621.0</ele><time>2026-04-19T13:01:39.864Z</time></trkpt><trkpt lat="45.420551502502576" lon="7.44552046164384"><ele>622.5</ele><time>2026-04-19T13:01:40.864Z</time></trkpt><trkpt lat="45.420660223958265" lon="7.445384008236272"><ele>624.0</ele><time>2026-04-19T13:01:41.864Z</time></trkpt><trkpt lat="45.42075417635299" lon="7.445250770024698"><ele>625.5</ele><time>2026-04-19T13:01:42.864Z</time></trkpt><trkpt lat="45.420853047271976" lon="7.445148009364113"><ele>627.0</ele><time>2026-04-19T13:01:43.864Z</time></trkpt><trkpt lat="45.420979143019935" lon="7.445083675855428"><ele>627.0</ele><time>2026-04-19T13:01:44.864Z</time></trkpt><trkpt lat="45.421105406252366" lon="7.444974512723358"><ele>627.0</ele><time>2026-04-19T13:01:45.864Z</time></trkpt><trkpt lat="45.42124227643883" lon="7.444886398268656"><ele>627.0</ele><time>2026-04-19T13:01:46.864Z</time></trkpt><trkpt lat="45.42137982199379" lon="7.444779321314015"><ele>627.6666666666666</ele><time>2026-04-19T13:01:47.864Z</time></trkpt><trkpt lat="45.42152082609136" lon="7.4446685942662105"><ele>628.3333333333333</ele><time>2026-04-19T13:01:48.864Z</time></trkpt><trkpt lat="45.4216633149194" lon="7.4445446699217355"><ele>629.0</ele><time>2026-04-19T13:01:49.864Z</time></trkpt><trkpt lat="45.42181329387876" lon="7.4444076649080895"><ele>629.0</ele><time>2026-04-19T13:01:50.864Z</time></trkpt><trkpt lat="45.42193879404908" lon="7.444252588521014"><ele>629.0</ele><time>2026-04-19T13:01:51.864Z</time></trkpt><trkpt lat="45.422041330295684" lon="7.444098478164952"><ele>629.0</ele><time>2026-04-19T13:01:52.864Z</time></trkpt><trkpt lat="45.42213586148678" lon="7.443929939664139"><ele>631.6666666666666</ele><time>2026-04-19T13:01:53.864Z</time></trkpt><trkpt lat="45.422223312026574" lon="7.443757948930445"><ele>634.3333333333334</ele><time>2026-04-19T13:01:54.864Z</time></trkpt><trkpt lat="45.422328862462145" lon="7.443598682031384"><ele>637.0</ele><time>2026-04-19T13:01:55.864Z</time></trkpt><trkpt lat="45.42244728764494" lon="7.4434295907820855"><ele>637.0</ele><time>2026-04-19T13:01:56.864Z</time></trkpt><trkpt lat="45.422581669119005" lon="7.443303288987828"><ele>637.0</ele><time>2026-04-19T13:01:57.864Z</time></trkpt><trkpt lat="45.422721022831475" lon="7.4432020651070365"><ele>637.0</ele><time>2026-04-19T13:01:58.864Z</time></trkpt><trkpt lat="45.422867332116645" lon="7.443056458571684"><ele>635.6666666666667</ele><time>2026-04-19T13:01:59.864Z</time></trkpt><trkpt lat="45.423016899426415" lon="7.442939331744129"><ele>634.3333333333334</ele><time>2026-04-19T13:02:00.864Z</time></trkpt><trkpt lat="45.42317602503051" lon="7.442831416407183"><ele>633.0</ele><time>2026-04-19T13:02:01.864Z</time></trkpt><trkpt lat="45.423331858909556" lon="7.4427047632161"><ele>633.0</ele><time>2026-04-19T13:02:02.864Z</time></trkpt><trkpt lat="45.423472235119505" lon="7.442550609905747"><ele>633.0</ele><time>2026-04-19T13:02:03.864Z</time></trkpt><trkpt lat="45.423610116672904" lon="7.442376933492892"><ele>633.0</ele><time>2026-04-19T13:02:04.864Z</time></trkpt><trkpt lat="45.42374533872048" lon="7.4422066489657315"><ele>637.3333333333334</ele><time>2026-04-19T13:02:05.864Z</time></trkpt><trkpt lat="45.423879726373116" lon="7.4420375106227485"><ele>641.6666666666667</ele><time>2026-04-19T13:02:06.864Z</time></trkpt><trkpt lat="45.42401294011817" lon="7.441875638203051"><ele>646.0</ele><time>2026-04-19T13:02:07.864Z</time></trkpt><trkpt lat="45.424147981680335" lon="7.441704602084991"><ele>646.0</ele><time>2026-04-19T13:02:08.864Z</time></trkpt><trkpt lat="45.424278038462134" lon="7.441548571950874"><ele>646.0</ele><time>2026-04-19T13:02:09.864Z</time></trkpt><trkpt lat="45.424407959635985" lon="7.441393442306421"><ele>646.0</ele><time>2026-04-19T13:02:10.864Z</time></trkpt><trkpt lat="45.42451393693864" lon="7.441195320779196"><ele>642.6666666666667</ele><time>2026-04-19T13:02:11.864Z</time></trkpt><trkpt lat="45.424594880052844" lon="7.4409715671119425"><ele>639.3333333333334</ele><time>2026-04-19T13:02:12.864Z</time></trkpt><trkpt lat="45.4246570813979" lon="7.440725017715532"><ele>636.0</ele><time>2026-04-19T13:02:13.864Z</time></trkpt><trkpt lat="45.424698991126625" lon="7.4404863544158735"><ele>641.3333333333334</ele><time>2026-04-19T13:02:14.863Z</time></trkpt><trkpt lat="45.424729098352664" lon="7.440232908845866"><ele>646.6666666666667</ele><time>2026-04-19T13:02:15.863Z</time></trkpt><trkpt lat="45.42477741481362" lon="7.439995291646703"><ele>652.0</ele><time>2026-04-19T13:02:16.863Z</time></trkpt><trkpt lat="45.42481580224224" lon="7.439771295764898"><ele>650.3333333333334</ele><time>2026-04-19T13:02:17.863Z</time></trkpt><trkpt lat="45.42485180801935" lon="7.439546339288427"><ele>648.6666666666666</ele><time>2026-04-19T13:02:18.863Z</time></trkpt><trkpt lat="45.4249205248983" lon="7.439356673985679"><ele>647.0</ele><time>2026-04-19T13:02:19.863Z</time></trkpt><trkpt lat="45.42500489000728" lon="7.439157496967685"><ele>647.0</ele><time>2026-04-19T13:02:20.863Z</time></trkpt><trkpt lat="45.42510331112542" lon="7.438974058091068"><ele>647.0</ele><time>2026-04-19T13:02:21.863Z</time></trkpt><trkpt lat="45.42519816275041" lon="7.438777284175866"><ele>647.0</ele><time>2026-04-19T13:02:22.863Z</time></trkpt><trkpt lat="45.42529512635774" lon="7.43856686273452"><ele>645.0</ele><time>2026-04-19T13:02:23.863Z</time></trkpt><trkpt lat="45.42539114212945" lon="7.4383572700243565"><ele>643.0</ele><time>2026-04-19T13:02:24.863Z</time></trkpt><trkpt lat="45.425486073683444" lon="7.438139009671225"><ele>641.0</ele><time>2026-04-19T13:02:25.863Z</time></trkpt><trkpt lat="45.42555018359463" lon="7.437905161648572"><ele>647.0</ele><time>2026-04-19T13:02:26.863Z</time></trkpt><trkpt lat="45.425595781096554" lon="7.437660359165832"><ele>653.0</ele><time>2026-04-19T13:02:27.863Z</time></trkpt><trkpt lat="45.42562125598054" lon="7.437440938163697"><ele>659.0</ele><time>2026-04-19T13:02:28.863Z</time></trkpt><trkpt lat="45.42563791379025" lon="7.437228248922763"><ele>657.25</ele><time>2026-04-19T13:02:29.863Z</time></trkpt><trkpt lat="45.42566676216201" lon="7.437052873882106"><ele>655.5</ele><time>2026-04-19T13:02:30.863Z</time></trkpt><trkpt lat="45.425695099015655" lon="7.436886594556458"><ele>653.75</ele><time>2026-04-19T13:02:31.863Z</time></trkpt><trkpt lat="45.425751399946904" lon="7.4367247642727445"><ele>652.0</ele><time>2026-04-19T13:02:32.863Z</time></trkpt><trkpt lat="45.42582634505939" lon="7.436565617044253"><ele>652.0</ele><time>2026-04-19T13:02:33.863Z</time></trkpt><trkpt lat="45.425925596911284" lon="7.4364233575595735"><ele>652.0</ele><time>2026-04-19T13:02:34.863Z</time></trkpt><trkpt lat="45.426014243345065" lon="7.436297096512798"><ele>652.0</ele><time>2026-04-19T13:02:35.863Z</time></trkpt><trkpt lat="45.426110881279506" lon="7.436160382884748"><ele>652.0</ele><time>2026-04-19T13:02:36.863Z</time></trkpt><trkpt lat="45.42620456868506" lon="7.436059618734381"><ele>653.5</ele><time>2026-04-19T13:02:37.863Z</time></trkpt><trkpt lat="45.42631963976068" lon="7.435975347574374"><ele>655.0</ele><time>2026-04-19T13:02:38.863Z</time></trkpt><trkpt lat="45.426438955365896" lon="7.43588890590611"><ele>656.5</ele><time>2026-04-19T13:02:39.863Z</time></trkpt><trkpt lat="45.42656157874686" lon="7.43579958166367"><ele>658.0</ele><time>2026-04-19T13:02:40.863Z</time></trkpt><trkpt lat="45.4266942649398" lon="7.435725938505528"><ele>658.0</ele><time>2026-04-19T13:02:41.863Z</time></trkpt><trkpt lat="45.42683631310829" lon="7.435669453182623"><ele>658.0</ele><time>2026-04-19T13:02:42.863Z</time></trkpt><trkpt lat="45.42699267630324" lon="7.435601768201048"><ele>658.0</ele><time>2026-04-19T13:02:43.863Z</time></trkpt><trkpt lat="45.427131786507196" lon="7.435509483661363"><ele>656.0</ele><time>2026-04-19T13:02:44.863Z</time></trkpt><trkpt lat="45.42728408454679" lon="7.435416353534235"><ele>654.0</ele><time>2026-04-19T13:02:45.863Z</time></trkpt><trkpt lat="45.42743561167033" lon="7.435335546619536"><ele>652.0</ele><time>2026-04-19T13:02:46.863Z</time></trkpt><trkpt lat="45.42759516362799" lon="7.4352375119720655"><ele>652.0</ele><time>2026-04-19T13:02:47.863Z</time></trkpt><trkpt lat="45.42774903300129" lon="7.435132889534916"><ele>652.0</ele><time>2026-04-19T13:02:48.863Z</time></trkpt><trkpt lat="45.42789467183833" lon="7.4350303915889935"><ele>652.0</ele><time>2026-04-19T13:02:49.863Z</time></trkpt><trkpt lat="45.42803649544698" lon="7.43494907650517"><ele>653.6666666666667</ele><time>2026-04-19T13:02:50.863Z</time></trkpt><trkpt lat="45.428184235971536" lon="7.434867678947437"><ele>655.3333333333334</ele><time>2026-04-19T13:02:51.863Z</time></trkpt><trkpt lat="45.42833776080217" lon="7.434777233804136"><ele>657.0</ele><time>2026-04-19T13:02:52.863Z</time></trkpt><trkpt lat="45.42849873982028" lon="7.434722883921566"><ele>657.0</ele><time>2026-04-19T13:02:53.863Z</time></trkpt><trkpt lat="45.42865341056249" lon="7.4346910066243"><ele>657.0</ele><time>2026-04-19T13:02:54.863Z</time></trkpt><trkpt lat="45.42880358651074" lon="7.434664203773223"><ele>657.0</ele><time>2026-04-19T13:02:55.863Z</time></trkpt><trkpt lat="45.4289514860033" lon="7.434624589297517"><ele>657.0</ele><time>2026-04-19T13:02:56.863Z</time></trkpt><trkpt lat="45.4290994361061" lon="7.434595952644241"><ele>657.0</ele><time>2026-04-19T13:02:57.863Z</time></trkpt><trkpt lat="45.429255739022466" lon="7.434569224637389"><ele>657.0</ele><time>2026-04-19T13:02:58.863Z</time></trkpt><trkpt lat="45.42940651264223" lon="7.43454406740042"><ele>657.0</ele><time>2026-04-19T13:02:59.863Z</time></trkpt><trkpt lat="45.429550556285214" lon="7.43448265211641"><ele>657.0</ele><time>2026-04-19T13:03:00.863Z</time></trkpt><trkpt lat="45.4297068021737" lon="7.434413098414205"><ele>657.0</ele><time>2026-04-19T13:03:01.863Z</time></trkpt><trkpt lat="45.42984128910922" lon="7.434356681934278"><ele>657.0</ele><time>2026-04-19T13:03:02.863Z</time></trkpt><trkpt lat="45.4299670217969" lon="7.434313533540999"><ele>657.0</ele><time>2026-04-19T13:03:03.863Z</time></trkpt><trkpt lat="45.430101794369534" lon="7.434221701601481"><ele>657.0</ele><time>2026-04-19T13:03:04.863Z</time></trkpt><trkpt lat="45.43022273246206" lon="7.434160528931424"><ele>657.0</ele><time>2026-04-19T13:03:05.863Z</time></trkpt><trkpt lat="45.43034220460847" lon="7.434107297831525"><ele>657.0</ele><time>2026-04-19T13:03:06.863Z</time></trkpt><trkpt lat="45.43045890684999" lon="7.434048341728319"><ele>657.0</ele><time>2026-04-19T13:03:07.863Z</time></trkpt><trkpt lat="45.430573984739226" lon="7.434022093887178"><ele>657.0</ele><time>2026-04-19T13:03:08.863Z</time></trkpt><trkpt lat="45.430689898011714" lon="7.433989547811756"><ele>657.0</ele><time>2026-04-19T13:03:09.863Z</time></trkpt><trkpt lat="45.430787299467475" lon="7.433958423454504"><ele>658.0</ele><time>2026-04-19T13:03:10.863Z</time></trkpt><trkpt lat="45.43089033862504" lon="7.433903255753587"><ele>659.0</ele><time>2026-04-19T13:03:11.863Z</time></trkpt><trkpt lat="45.430959495469864" lon="7.433797549874455"><ele>660.0</ele><time>2026-04-19T13:03:12.863Z</time></trkpt><trkpt lat="45.430987573618175" lon="7.433650513612709"><ele>661.0</ele><time>2026-04-19T13:03:13.863Z</time></trkpt><trkpt lat="45.43100731098146" lon="7.433508643884628"><ele>662.0</ele><time>2026-04-19T13:03:14.863Z</time></trkpt><trkpt lat="45.431009455041874" lon="7.433350998006203"><ele>662.0</ele><time>2026-04-19T13:03:15.863Z</time></trkpt><trkpt lat="45.43099694133855" lon="7.433177095318172"><ele>662.0</ele><time>2026-04-19T13:03:16.862Z</time></trkpt><trkpt lat="45.43099596914236" lon="7.432990070859986"><ele>662.0</ele><time>2026-04-19T13:03:17.862Z</time></trkpt><trkpt lat="45.431012183623096" lon="7.432785014911595"><ele>662.0</ele><time>2026-04-19T13:03:18.862Z</time></trkpt><trkpt lat="45.43105489610401" lon="7.432581964271479"><ele>662.3333333333333</ele><time>2026-04-19T13:03:19.862Z</time></trkpt><trkpt lat="45.43111318884897" lon="7.432376076946983"><ele>662.6666666666666</ele><time>2026-04-19T13:03:20.862Z</time></trkpt><trkpt lat="45.43116458806856" lon="7.4321626491876005"><ele>663.0</ele><time>2026-04-19T13:03:21.862Z</time></trkpt><trkpt lat="45.43122387720165" lon="7.431948047950339"><ele>662.5</ele><time>2026-04-19T13:03:22.863Z</time></trkpt><trkpt lat="45.431279620316815" lon="7.431748112212911"><ele>662.0</ele><time>2026-04-19T13:03:23.863Z</time></trkpt><trkpt lat="45.431360256555244" lon="7.43156756926256"><ele>661.5</ele><time>2026-04-19T13:03:24.862Z</time></trkpt><trkpt lat="45.431435662187475" lon="7.431398423023639"><ele>661.0</ele><time>2026-04-19T13:03:25.862Z</time></trkpt><trkpt lat="45.431505811405806" lon="7.431230530595721"><ele>662.25</ele><time>2026-04-19T13:03:26.862Z</time></trkpt><trkpt lat="45.43159018897613" lon="7.431070608193215"><ele>663.5</ele><time>2026-04-19T13:03:27.862Z</time></trkpt><trkpt lat="45.43170035608879" lon="7.430950284677527"><ele>664.75</ele><time>2026-04-19T13:03:28.862Z</time></trkpt><trkpt lat="45.43181709563937" lon="7.430822486647838"><ele>666.0</ele><time>2026-04-19T13:03:29.862Z</time></trkpt><trkpt lat="45.43190767181427" lon="7.430685483363056"><ele>666.0</ele><time>2026-04-19T13:03:30.862Z</time></trkpt><trkpt lat="45.43198843347805" lon="7.430537697457778"><ele>666.0</ele><time>2026-04-19T13:03:31.862Z</time></trkpt><trkpt lat="45.432072866549085" lon="7.430366371814587"><ele>666.0</ele><time>2026-04-19T13:03:32.862Z</time></trkpt><trkpt lat="45.43215327601899" lon="7.430186911207548"><ele>666.0</ele><time>2026-04-19T13:03:33.862Z</time></trkpt><trkpt lat="45.43223139983088" lon="7.430031571709371"><ele>667.25</ele><time>2026-04-19T13:03:34.862Z</time></trkpt><trkpt lat="45.432307164855104" lon="7.429886925167029"><ele>668.5</ele><time>2026-04-19T13:03:35.862Z</time></trkpt><trkpt lat="45.432381763347536" lon="7.429748626137842"><ele>669.75</ele><time>2026-04-19T13:03:36.862Z</time></trkpt><trkpt lat="45.432456020954675" lon="7.429618905896243"><ele>671.0</ele><time>2026-04-19T13:03:37.862Z</time></trkpt><trkpt lat="45.432537551342925" lon="7.429498602463211"><ele>671.0</ele><time>2026-04-19T13:03:38.862Z</time></trkpt><trkpt lat="45.4326162431239" lon="7.429366675642926"><ele>671.0</ele><time>2026-04-19T13:03:39.862Z</time></trkpt><trkpt lat="45.43270568327857" lon="7.429232328579367"><ele>671.0</ele><time>2026-04-19T13:03:40.862Z</time></trkpt><trkpt lat="45.43277710940232" lon="7.429106919564236"><ele>671.0</ele><time>2026-04-19T13:03:41.862Z</time></trkpt><trkpt lat="45.43285590188193" lon="7.428978977809133"><ele>671.0</ele><time>2026-04-19T13:03:42.862Z</time></trkpt><trkpt lat="45.43292201729502" lon="7.4288407542541925"><ele>671.0</ele><time>2026-04-19T13:03:43.862Z</time></trkpt><trkpt lat="45.43296789829632" lon="7.428673290568346"><ele>671.0</ele><time>2026-04-19T13:03:44.862Z</time></trkpt><trkpt lat="45.43301047880356" lon="7.428514720374616"><ele>671.0</ele><time>2026-04-19T13:03:45.862Z</time></trkpt><trkpt lat="45.43305679226146" lon="7.428343169801595"><ele>672.25</ele><time>2026-04-19T13:03:46.862Z</time></trkpt><trkpt lat="45.433100771045666" lon="7.428195038488944"><ele>673.5</ele><time>2026-04-19T13:03:47.862Z</time></trkpt><trkpt lat="45.43316370586914" lon="7.4280409750031104"><ele>674.75</ele><time>2026-04-19T13:03:48.862Z</time></trkpt><trkpt lat="45.43322029861193" lon="7.4278781426450795"><ele>676.0</ele><time>2026-04-19T13:03:49.862Z</time></trkpt><trkpt lat="45.433283886738366" lon="7.427712724824048"><ele>676.0</ele><time>2026-04-19T13:03:50.862Z</time></trkpt><trkpt lat="45.43333558853969" lon="7.427542188763329"><ele>676.0</ele><time>2026-04-19T13:03:51.862Z</time></trkpt><trkpt lat="45.43341305102532" lon="7.427367393416812"><ele>676.0</ele><time>2026-04-19T13:03:52.862Z</time></trkpt><trkpt lat="45.433471567375605" lon="7.427174841596625"><ele>676.0</ele><time>2026-04-19T13:03:53.862Z</time></trkpt><trkpt lat="45.433499482507116" lon="7.4269927977879995"><ele>676.0</ele><time>2026-04-19T13:03:54.862Z</time></trkpt><trkpt lat="45.43351025632945" lon="7.426823470928231"><ele>676.0</ele><time>2026-04-19T13:03:55.862Z</time></trkpt><trkpt lat="45.43348700060081" lon="7.42663714336518"><ele>676.0</ele><time>2026-04-19T13:03:56.862Z</time></trkpt><trkpt lat="45.43348593212916" lon="7.426467243471472"><ele>676.0</ele><time>2026-04-19T13:03:57.862Z</time></trkpt><trkpt lat="45.43351547687964" lon="7.426290632843729"><ele>675.0</ele><time>2026-04-19T13:03:58.862Z</time></trkpt><trkpt lat="45.4335877315554" lon="7.426122087661961"><ele>674.0</ele><time>2026-04-19T13:03:59.862Z</time></trkpt><trkpt lat="45.433672021640795" lon="7.425961417051868"><ele>673.0</ele><time>2026-04-19T13:04:00.862Z</time></trkpt><trkpt lat="45.43374497502843" lon="7.425780149784589"><ele>672.0</ele><time>2026-04-19T13:04:01.862Z</time></trkpt><trkpt lat="45.43381099604162" lon="7.425593893201394"><ele>676.25</ele><time>2026-04-19T13:04:02.862Z</time></trkpt><trkpt lat="45.43387289186159" lon="7.425390985745612"><ele>680.5</ele><time>2026-04-19T13:04:03.862Z</time></trkpt><trkpt lat="45.43393592169134" lon="7.425222389406843"><ele>684.75</ele><time>2026-04-19T13:04:04.862Z</time></trkpt><trkpt lat="45.43399381336931" lon="7.425034799913594"><ele>689.0</ele><time>2026-04-19T13:04:05.862Z</time></trkpt><trkpt lat="45.434050295934696" lon="7.424858307516111"><ele>689.0</ele><time>2026-04-19T13:04:06.862Z</time></trkpt><trkpt lat="45.434089217370634" lon="7.424666018081686"><ele>689.0</ele><time>2026-04-19T13:04:07.862Z</time></trkpt><trkpt lat="45.43411553046536" lon="7.424452308541057"><ele>689.0</ele><time>2026-04-19T13:04:08.862Z</time></trkpt><trkpt lat="45.43414515573065" lon="7.4242403501901135"><ele>689.0</ele><time>2026-04-19T13:04:09.862Z</time></trkpt><trkpt lat="45.43418981391939" lon="7.424046120039363"><ele>687.75</ele><time>2026-04-19T13:04:10.862Z</time></trkpt><trkpt lat="45.43423076438077" lon="7.423832959423065"><ele>686.5</ele><time>2026-04-19T13:04:11.862Z</time></trkpt><trkpt lat="45.43426405827475" lon="7.423646924271766"><ele>685.25</ele><time>2026-04-19T13:04:12.862Z</time></trkpt><trkpt lat="45.43426771438499" lon="7.423462651783479"><ele>684.0</ele><time>2026-04-19T13:04:13.862Z</time></trkpt><trkpt lat="45.4342513866686" lon="7.4232744916269215"><ele>684.0</ele><time>2026-04-19T13:04:14.862Z</time></trkpt><trkpt lat="45.434233071099456" lon="7.423080678131857"><ele>684.0</ele><time>2026-04-19T13:04:15.862Z</time></trkpt><trkpt lat="45.43422802906807" lon="7.422891005838268"><ele>684.0</ele><time>2026-04-19T13:04:16.862Z</time></trkpt><trkpt lat="45.434224932754205" lon="7.422700487454471"><ele>684.0</ele><time>2026-04-19T13:04:17.862Z</time></trkpt><trkpt lat="45.434217979706254" lon="7.422509529943468"><ele>683.0</ele><time>2026-04-19T13:04:18.862Z</time></trkpt><trkpt lat="45.43421377812645" lon="7.422313913184293"><ele>682.0</ele><time>2026-04-19T13:04:19.862Z</time></trkpt><trkpt lat="45.434196489205476" lon="7.4221044007877195"><ele>681.0</ele><time>2026-04-19T13:04:20.862Z</time></trkpt><trkpt lat="45.43419312099548" lon="7.421911535363413"><ele>680.0</ele><time>2026-04-19T13:04:21.862Z</time></trkpt><trkpt lat="45.43418618470775" lon="7.421713943866903"><ele>680.0</ele><time>2026-04-19T13:04:22.862Z</time></trkpt><trkpt lat="45.43418043273667" lon="7.421520147335109"><ele>680.0</ele><time>2026-04-19T13:04:23.862Z</time></trkpt><trkpt lat="45.43417363460792" lon="7.42131574036146"><ele>680.0</ele><time>2026-04-19T13:04:24.862Z</time></trkpt><trkpt lat="45.43417497188319" lon="7.421125470227225"><ele>680.0</ele><time>2026-04-19T13:04:25.862Z</time></trkpt><trkpt lat="45.434167207091576" lon="7.420926821054463"><ele>681.25</ele><time>2026-04-19T13:04:26.862Z</time></trkpt><trkpt lat="45.43416726780225" lon="7.420730184682354"><ele>682.5</ele><time>2026-04-19T13:04:27.862Z</time></trkpt><trkpt lat="45.43415978031519" lon="7.420527721203506"><ele>683.75</ele><time>2026-04-19T13:04:28.862Z</time></trkpt><trkpt lat="45.43415960066774" lon="7.420322949316059"><ele>685.0</ele><time>2026-04-19T13:04:29.862Z</time></trkpt><trkpt lat="45.43415487422687" lon="7.420123545212251"><ele>685.75</ele><time>2026-04-19T13:04:30.862Z</time></trkpt><trkpt lat="45.434151482430636" lon="7.419924575503855"><ele>686.5</ele><time>2026-04-19T13:04:31.862Z</time></trkpt><trkpt lat="45.43415712463702" lon="7.419712296205418"><ele>687.25</ele><time>2026-04-19T13:04:32.861Z</time></trkpt><trkpt lat="45.43418274808671" lon="7.419508572977017"><ele>688.0</ele><time>2026-04-19T13:04:33.861Z</time></trkpt><trkpt lat="45.43422162387922" lon="7.4193031429402145"><ele>688.75</ele><time>2026-04-19T13:04:34.861Z</time></trkpt><trkpt lat="45.43425328091679" lon="7.419089471187388"><ele>689.5</ele><time>2026-04-19T13:04:35.861Z</time></trkpt><trkpt lat="45.43429403887049" lon="7.4188996729672265"><ele>690.25</ele><time>2026-04-19T13:04:36.861Z</time></trkpt><trkpt lat="45.434328651169565" lon="7.418728824564493"><ele>691.0</ele><time>2026-04-19T13:04:37.861Z</time></trkpt><trkpt lat="45.43436211405022" lon="7.41855847967105"><ele>691.25</ele><time>2026-04-19T13:04:38.861Z</time></trkpt><trkpt lat="45.434384735543446" lon="7.418381145185719"><ele>691.5</ele><time>2026-04-19T13:04:39.861Z</time></trkpt><trkpt lat="45.4344180649501" lon="7.41820457999535"><ele>691.75</ele><time>2026-04-19T13:04:40.861Z</time></trkpt><trkpt lat="45.43445426217842" lon="7.418031661468716"><ele>692.0</ele><time>2026-04-19T13:04:41.861Z</time></trkpt><trkpt lat="45.434477558272064" lon="7.4178426318537"><ele>692.0</ele><time>2026-04-19T13:04:42.861Z</time></trkpt><trkpt lat="45.434510705637635" lon="7.417656985515634"><ele>692.0</ele><time>2026-04-19T13:04:43.861Z</time></trkpt><trkpt lat="45.43454599796965" lon="7.417471857368932"><ele>692.0</ele><time>2026-04-19T13:04:44.861Z</time></trkpt><trkpt lat="45.43458684790847" lon="7.417295399004318"><ele>692.0</ele><time>2026-04-19T13:04:45.861Z</time></trkpt><trkpt lat="45.434625472076625" lon="7.417122422385524"><ele>692.0</ele><time>2026-04-19T13:04:46.861Z</time></trkpt><trkpt lat="45.43464440041491" lon="7.4169574010791814"><ele>692.0</ele><time>2026-04-19T13:04:47.861Z</time></trkpt><trkpt lat="45.43465375709285" lon="7.416783798847692"><ele>692.0</ele><time>2026-04-19T13:04:48.861Z</time></trkpt><trkpt lat="45.43464319450186" lon="7.416614149008427"><ele>692.0</ele><time>2026-04-19T13:04:49.861Z</time></trkpt><trkpt lat="45.43458684341782" lon="7.416458131210046"><ele>693.5</ele><time>2026-04-19T13:04:50.861Z</time></trkpt><trkpt lat="45.43450886912049" lon="7.416317414501593"><ele>695.0</ele><time>2026-04-19T13:04:51.861Z</time></trkpt><trkpt lat="45.434407984957375" lon="7.416191261378541"><ele>696.5</ele><time>2026-04-19T13:04:52.861Z</time></trkpt><trkpt lat="45.434322953137475" lon="7.416043087442728"><ele>698.0</ele><time>2026-04-19T13:04:53.861Z</time></trkpt><trkpt lat="45.434251863180016" lon="7.415888590149793"><ele>698.0</ele><time>2026-04-19T13:04:54.861Z</time></trkpt><trkpt lat="45.43418447992062" lon="7.415725191864873"><ele>698.0</ele><time>2026-04-19T13:04:55.861Z</time></trkpt><trkpt lat="45.43413425833684" lon="7.415522518915428"><ele>698.0</ele><time>2026-04-19T13:04:56.861Z</time></trkpt><trkpt lat="45.43408233773748" lon="7.4153250669578785"><ele>698.0</ele><time>2026-04-19T13:04:57.861Z</time></trkpt><trkpt lat="45.43404375751744" lon="7.415108677805114"><ele>699.3333333333333</ele><time>2026-04-19T13:04:58.861Z</time></trkpt><trkpt lat="45.434002678894764" lon="7.414894456857776"><ele>700.6666666666666</ele><time>2026-04-19T13:04:59.861Z</time></trkpt><trkpt lat="45.43396213902869" lon="7.414685181653214"><ele>702.0</ele><time>2026-04-19T13:05:00.861Z</time></trkpt><trkpt lat="45.433912146449764" lon="7.414471471619723"><ele>705.3333333333334</ele><time>2026-04-19T13:05:01.861Z</time></trkpt><trkpt lat="45.43387345828213" lon="7.414258428925642"><ele>708.6666666666667</ele><time>2026-04-19T13:05:02.861Z</time></trkpt><trkpt lat="45.43383890111134" lon="7.414047357456026"><ele>712.0</ele><time>2026-04-19T13:05:03.861Z</time></trkpt><trkpt lat="45.4337997934328" lon="7.41383840517926"><ele>707.5</ele><time>2026-04-19T13:05:04.861Z</time></trkpt><trkpt lat="45.43376220571654" lon="7.413641594050752"><ele>703.0</ele><time>2026-04-19T13:05:05.861Z</time></trkpt><trkpt lat="45.43371933845819" lon="7.413439509526348"><ele>698.5</ele><time>2026-04-19T13:05:06.861Z</time></trkpt><trkpt lat="45.43368638743304" lon="7.41323209219248"><ele>694.0</ele><time>2026-04-19T13:05:07.861Z</time></trkpt><trkpt lat="45.4336321636256" lon="7.413030763642933"><ele>696.0</ele><time>2026-04-19T13:05:08.861Z</time></trkpt><trkpt lat="45.433571743415" lon="7.412833673157513"><ele>698.0</ele><time>2026-04-19T13:05:09.861Z</time></trkpt><trkpt lat="45.43348680134221" lon="7.412626084994008"><ele>700.0</ele><time>2026-04-19T13:05:10.861Z</time></trkpt><trkpt lat="45.43340335773644" lon="7.412396801760117"><ele>700.0</ele><time>2026-04-19T13:05:11.861Z</time></trkpt><trkpt lat="45.43332065797769" lon="7.412164466616503"><ele>700.0</ele><time>2026-04-19T13:05:12.861Z</time></trkpt><trkpt lat="45.43324302802179" lon="7.411933975329296"><ele>700.0</ele><time>2026-04-19T13:05:13.861Z</time></trkpt><trkpt lat="45.433176463368945" lon="7.411726122671298"><ele>702.6666666666667</ele><time>2026-04-19T13:05:14.861Z</time></trkpt><trkpt lat="45.43311879030588" lon="7.411523216898143"><ele>705.3333333333334</ele><time>2026-04-19T13:05:15.861Z</time></trkpt><trkpt lat="45.433071870899106" lon="7.41131828219009"><ele>708.0</ele><time>2026-04-19T13:05:16.861Z</time></trkpt><trkpt lat="45.4330518727136" lon="7.411111041307576"><ele>711.25</ele><time>2026-04-19T13:05:17.861Z</time></trkpt><trkpt lat="45.43303866709192" lon="7.410906104373666"><ele>714.5</ele><time>2026-04-19T13:05:18.861Z</time></trkpt><trkpt lat="45.4330213485733" lon="7.410706099718553"><ele>717.75</ele><time>2026-04-19T13:05:19.861Z</time></trkpt><trkpt lat="45.43299906745221" lon="7.4105033042495805"><ele>721.0</ele><time>2026-04-19T13:05:20.861Z</time></trkpt><trkpt lat="45.43299641868055" lon="7.410297422885313"><ele>723.5</ele><time>2026-04-19T13:05:21.86Z</time></trkpt><trkpt lat="45.43298031457061" lon="7.410098673257961"><ele>726.0</ele><time>2026-04-19T13:05:22.86Z</time></trkpt><trkpt lat="45.43296452188177" lon="7.409903767102498"><ele>728.5</ele><time>2026-04-19T13:05:23.86Z</time></trkpt><trkpt lat="45.43294813121352" lon="7.409701480975347"><ele>731.0</ele><time>2026-04-19T13:05:24.859Z</time></trkpt><trkpt lat="45.43292924387401" lon="7.409468382059017"><ele>714.0</ele><time>2026-04-19T13:05:25.999Z</time></trkpt><trkpt lat="45.43285125241442" lon="7.408823387771234"><ele>714.0</ele><time>2026-04-19T13:05:29.311Z</time></trkpt><trkpt lat="45.432814054130866" lon="7.4086225634357685"><ele>714.0</ele><time>2026-04-19T13:05:30.313Z</time></trkpt><trkpt lat="45.43277223003126" lon="7.408424641832471"><ele>714.0</ele><time>2026-04-19T13:05:31.311Z</time></trkpt><trkpt lat="45.43270820527461" lon="7.408237807611126"><ele>714.0</ele><time>2026-04-19T13:05:32.313Z</time></trkpt><trkpt lat="45.43266028773997" lon="7.4080436905336855"><ele>716.5</ele><time>2026-04-19T13:05:33.313Z</time></trkpt><trkpt lat="45.43261389848853" lon="7.407849625218955"><ele>719.0</ele><time>2026-04-19T13:05:34.309Z</time></trkpt><trkpt lat="45.43256833948347" lon="7.407654527951202"><ele>721.5</ele><time>2026-04-19T13:05:35.308Z</time></trkpt><trkpt lat="45.432523402212155" lon="7.407458677859844"><ele>724.0</ele><time>2026-04-19T13:05:36.309Z</time></trkpt><trkpt lat="45.43247861315418" lon="7.407262187420784"><ele>728.0</ele><time>2026-04-19T13:05:37.313Z</time></trkpt><trkpt lat="45.432434453414714" lon="7.407066321991721"><ele>732.0</ele><time>2026-04-19T13:05:38.312Z</time></trkpt><trkpt lat="45.432394098028325" lon="7.406868721677243"><ele>736.0</ele><time>2026-04-19T13:05:39.312Z</time></trkpt><trkpt lat="45.43232656541645" lon="7.405719185190659"><ele>740.0</ele><time>2026-04-19T13:05:40.859Z</time></trkpt><trkpt lat="45.43225081755368" lon="7.405431645522196"><ele>744.0</ele><time>2026-04-19T13:05:41.859Z</time></trkpt><trkpt lat="45.432172923125954" lon="7.405193926933565"><ele>748.0</ele><time>2026-04-19T13:05:42.859Z</time></trkpt><trkpt lat="45.43213681844307" lon="7.404980431980629"><ele>741.0</ele><time>2026-04-19T13:05:43.859Z</time></trkpt><trkpt lat="45.432119852663234" lon="7.404777186857318"><ele>734.0</ele><time>2026-04-19T13:05:44.859Z</time></trkpt><trkpt lat="45.432137743136465" lon="7.404595238625284"><ele>727.0</ele><time>2026-04-19T13:05:45.859Z</time></trkpt><trkpt lat="45.43212283169578" lon="7.404419526565607"><ele>720.0</ele><time>2026-04-19T13:05:46.859Z</time></trkpt><trkpt lat="45.43210677428736" lon="7.4042543985228795"><ele>720.0</ele><time>2026-04-19T13:05:47.859Z</time></trkpt><trkpt lat="45.43208481900094" lon="7.40410488188579"><ele>720.0</ele><time>2026-04-19T13:05:48.859Z</time></trkpt><trkpt lat="45.43204740729493" lon="7.403954681433436"><ele>720.0</ele><time>2026-04-19T13:05:49.859Z</time></trkpt><trkpt lat="45.43199511094114" lon="7.403799163196285"><ele>720.0</ele><time>2026-04-19T13:05:50.859Z</time></trkpt><trkpt lat="45.43192275654975" lon="7.4036453473835255"><ele>721.25</ele><time>2026-04-19T13:05:51.859Z</time></trkpt><trkpt lat="45.43185176766255" lon="7.403480325893731"><ele>722.5</ele><time>2026-04-19T13:05:52.859Z</time></trkpt><trkpt lat="45.43177622175448" lon="7.4033030928822825"><ele>723.75</ele><time>2026-04-19T13:05:53.859Z</time></trkpt><trkpt lat="45.431711981086345" lon="7.40311466504782"><ele>725.0</ele><time>2026-04-19T13:05:54.859Z</time></trkpt><trkpt lat="45.43164503121841" lon="7.402920305134261"><ele>727.25</ele><time>2026-04-19T13:05:55.859Z</time></trkpt><trkpt lat="45.43156968385584" lon="7.402726462732332"><ele>729.5</ele><time>2026-04-19T13:05:56.859Z</time></trkpt><trkpt lat="45.43152092876283" lon="7.402532823707669"><ele>731.75</ele><time>2026-04-19T13:05:57.859Z</time></trkpt><trkpt lat="45.43149818547258" lon="7.402339075619913"><ele>734.0</ele><time>2026-04-19T13:05:58.859Z</time></trkpt><trkpt lat="45.431493009583896" lon="7.402132844863781"><ele>735.3333333333333</ele><time>2026-04-19T13:05:59.859Z</time></trkpt><trkpt lat="45.43151336006798" lon="7.401921632080394"><ele>736.6666666666666</ele><time>2026-04-19T13:06:00.859Z</time></trkpt><trkpt lat="45.4315209929838" lon="7.40169777695456"><ele>738.0</ele><time>2026-04-19T13:06:01.859Z</time></trkpt><trkpt lat="45.43149393660651" lon="7.4014637033756765"><ele>740.0</ele><time>2026-04-19T13:06:02.859Z</time></trkpt><trkpt lat="45.43145800367122" lon="7.401214768426661"><ele>742.0</ele><time>2026-04-19T13:06:03.859Z</time></trkpt><trkpt lat="45.4314245276507" lon="7.400954918580345"><ele>744.0</ele><time>2026-04-19T13:06:04.859Z</time></trkpt><trkpt lat="45.43137842968118" lon="7.40069708898294"><ele>746.6666666666666</ele><time>2026-04-19T13:06:05.859Z</time></trkpt><trkpt lat="45.431343086104334" lon="7.400446670561016"><ele>749.3333333333333</ele><time>2026-04-19T13:06:06.859Z</time></trkpt><trkpt lat="45.431329879690985" lon="7.400191260120005"><ele>752.0</ele><time>2026-04-19T13:06:07.859Z</time></trkpt><trkpt lat="45.431317021660696" lon="7.399938541888068"><ele>746.3333333333333</ele><time>2026-04-19T13:06:08.859Z</time></trkpt><trkpt lat="45.431284496126814" lon="7.399703360954569"><ele>740.6666666666666</ele><time>2026-04-19T13:06:09.859Z</time></trkpt><trkpt lat="45.4312327578285" lon="7.399478559489623"><ele>735.0</ele><time>2026-04-19T13:06:10.859Z</time></trkpt><trkpt lat="45.43115659105567" lon="7.399254359555501"><ele>735.0</ele><time>2026-04-19T13:06:11.859Z</time></trkpt><trkpt lat="45.431079317599256" lon="7.399034820242427"><ele>735.0</ele><time>2026-04-19T13:06:12.859Z</time></trkpt><trkpt lat="45.431018749543746" lon="7.398824341098216"><ele>735.0</ele><time>2026-04-19T13:06:13.859Z</time></trkpt><trkpt lat="45.4309698187828" lon="7.398619506083284"><ele>737.5</ele><time>2026-04-19T13:06:14.859Z</time></trkpt><trkpt lat="45.430923027736554" lon="7.398430218095789"><ele>740.0</ele><time>2026-04-19T13:06:15.859Z</time></trkpt><trkpt lat="45.430876738736906" lon="7.3982465193636076"><ele>742.5</ele><time>2026-04-19T13:06:16.859Z</time></trkpt><trkpt lat="45.43080514679238" lon="7.398084871247465"><ele>745.0</ele><time>2026-04-19T13:06:17.859Z</time></trkpt><trkpt lat="45.430728660725826" lon="7.397952228366214"><ele>744.0</ele><time>2026-04-19T13:06:18.859Z</time></trkpt><trkpt lat="45.430639804570255" lon="7.397851525973119"><ele>743.0</ele><time>2026-04-19T13:06:19.859Z</time></trkpt><trkpt lat="45.43052933055926" lon="7.397788446247209"><ele>742.0</ele><time>2026-04-19T13:06:20.859Z</time></trkpt><trkpt lat="45.43039718652086" lon="7.39775010074496"><ele>741.0</ele><time>2026-04-19T13:06:21.859Z</time></trkpt><trkpt lat="45.4302709839177" lon="7.3976980458596335"><ele>741.0</ele><time>2026-04-19T13:06:22.859Z</time></trkpt><trkpt lat="45.430144444086224" lon="7.397601194954001"><ele>741.0</ele><time>2026-04-19T13:06:23.859Z</time></trkpt><trkpt lat="45.430037656017966" lon="7.397462873344333"><ele>741.0</ele><time>2026-04-19T13:06:24.859Z</time></trkpt><trkpt lat="45.429990060999764" lon="7.39731945156064"><ele>741.0</ele><time>2026-04-19T13:06:25.859Z</time></trkpt><trkpt lat="45.42995147255739" lon="7.397153699967207"><ele>741.5</ele><time>2026-04-19T13:06:26.859Z</time></trkpt><trkpt lat="45.42991161257285" lon="7.396968681676206"><ele>742.0</ele><time>2026-04-19T13:06:27.859Z</time></trkpt><trkpt lat="45.429870895753" lon="7.396783867083682"><ele>742.5</ele><time>2026-04-19T13:06:28.859Z</time></trkpt><trkpt lat="45.4298597199841" lon="7.39661721358012"><ele>743.0</ele><time>2026-04-19T13:06:29.859Z</time></trkpt><trkpt lat="45.42990082083371" lon="7.39646440950881"><ele>743.25</ele><time>2026-04-19T13:06:30.859Z</time></trkpt><trkpt lat="45.42996613265409" lon="7.396328882770624"><ele>743.5</ele><time>2026-04-19T13:06:31.859Z</time></trkpt><trkpt lat="45.43004477908385" lon="7.396184532516574"><ele>743.75</ele><time>2026-04-19T13:06:32.859Z</time></trkpt><trkpt lat="45.430120863480745" lon="7.3960141392503616"><ele>744.0</ele><time>2026-04-19T13:06:33.859Z</time></trkpt><trkpt lat="45.43019912906169" lon="7.395814977499416"><ele>744.0</ele><time>2026-04-19T13:06:34.859Z</time></trkpt><trkpt lat="45.43026324294908" lon="7.395602079544166"><ele>744.0</ele><time>2026-04-19T13:06:35.859Z</time></trkpt><trkpt lat="45.43032193843704" lon="7.3953926104207905"><ele>744.0</ele><time>2026-04-19T13:06:36.859Z</time></trkpt><trkpt lat="45.430371792749575" lon="7.395175303222592"><ele>745.0</ele><time>2026-04-19T13:06:37.859Z</time></trkpt><trkpt lat="45.43039601108441" lon="7.3949393376576324"><ele>746.0</ele><time>2026-04-19T13:06:38.859Z</time></trkpt><trkpt lat="45.43040146266826" lon="7.394690065888868"><ele>747.0</ele><time>2026-04-19T13:06:39.859Z</time></trkpt><trkpt lat="45.430396905490554" lon="7.394423245374858"><ele>747.3333333333334</ele><time>2026-04-19T13:06:40.859Z</time></trkpt><trkpt lat="45.43039759409816" lon="7.394159765911515"><ele>747.6666666666667</ele><time>2026-04-19T13:06:41.859Z</time></trkpt><trkpt lat="45.430406759524125" lon="7.393907952349963"><ele>748.0</ele><time>2026-04-19T13:06:42.859Z</time></trkpt><trkpt lat="45.43041597335286" lon="7.393653906900035"><ele>749.3333333333334</ele><time>2026-04-19T13:06:43.859Z</time></trkpt><trkpt lat="45.43042296179606" lon="7.393400331549448"><ele>750.6666666666666</ele><time>2026-04-19T13:06:44.859Z</time></trkpt><trkpt lat="45.4304436694529" lon="7.393160611669961"><ele>752.0</ele><time>2026-04-19T13:06:45.859Z</time></trkpt><trkpt lat="45.43046317116191" lon="7.392920508835878"><ele>759.0</ele><time>2026-04-19T13:06:46.859Z</time></trkpt><trkpt lat="45.430479870569194" lon="7.392684407793948"><ele>766.0</ele><time>2026-04-19T13:06:47.859Z</time></trkpt><trkpt lat="45.430494402072995" lon="7.392462591583346"><ele>773.0</ele><time>2026-04-19T13:06:48.859Z</time></trkpt><trkpt lat="45.43050789428332" lon="7.392258914009505"><ele>776.6666666666667</ele><time>2026-04-19T13:06:49.859Z</time></trkpt><trkpt lat="45.430507829179994" lon="7.392049204161451"><ele>780.3333333333333</ele><time>2026-04-19T13:06:50.859Z</time></trkpt><trkpt lat="45.43048896681509" lon="7.391831805770839"><ele>784.0</ele><time>2026-04-19T13:06:51.859Z</time></trkpt><trkpt lat="45.4304730089133" lon="7.391606624845731"><ele>775.6666666666666</ele><time>2026-04-19T13:06:52.859Z</time></trkpt><trkpt lat="45.43046735962656" lon="7.391374467533568"><ele>767.3333333333333</ele><time>2026-04-19T13:06:53.859Z</time></trkpt><trkpt lat="45.43045884506538" lon="7.391147196556364"><ele>759.0</ele><time>2026-04-19T13:06:54.859Z</time></trkpt><trkpt lat="45.430431833532374" lon="7.390932187942451"><ele>759.0</ele><time>2026-04-19T13:06:55.859Z</time></trkpt><trkpt lat="45.43039240257288" lon="7.390719255527425"><ele>759.0</ele><time>2026-04-19T13:06:56.859Z</time></trkpt><trkpt lat="45.4303440973377" lon="7.390501318519463"><ele>759.0</ele><time>2026-04-19T13:06:57.859Z</time></trkpt><trkpt lat="45.43029668179036" lon="7.390264948467093"><ele>760.6666666666666</ele><time>2026-04-19T13:06:58.859Z</time></trkpt><trkpt lat="45.43027303931148" lon="7.390016423127881"><ele>762.3333333333333</ele><time>2026-04-19T13:06:59.859Z</time></trkpt><trkpt lat="45.430273415858295" lon="7.389778890315777"><ele>764.0</ele><time>2026-04-19T13:07:00.859Z</time></trkpt><trkpt lat="45.43027177546712" lon="7.389533718034554"><ele>764.0</ele><time>2026-04-19T13:07:01.859Z</time></trkpt><trkpt lat="45.43026475250649" lon="7.389289734303175"><ele>764.0</ele><time>2026-04-19T13:07:02.859Z</time></trkpt><trkpt lat="45.43025224844259" lon="7.3890385437472705"><ele>764.0</ele><time>2026-04-19T13:07:03.859Z</time></trkpt><trkpt lat="45.430254949308285" lon="7.388783572078036"><ele>764.0</ele><time>2026-04-19T13:07:04.859Z</time></trkpt><trkpt lat="45.43026878711344" lon="7.3885157013429374"><ele>764.0</ele><time>2026-04-19T13:07:05.859Z</time></trkpt><trkpt lat="45.430292819925775" lon="7.3882588013482895"><ele>764.0</ele><time>2026-04-19T13:07:06.859Z</time></trkpt><trkpt lat="45.43032332482963" lon="7.388018355553559"><ele>765.0</ele><time>2026-04-19T13:07:07.859Z</time></trkpt><trkpt lat="45.43033347080041" lon="7.387778288140068"><ele>766.0</ele><time>2026-04-19T13:07:08.859Z</time></trkpt><trkpt lat="45.43034606252771" lon="7.387538391350977"><ele>767.0</ele><time>2026-04-19T13:07:09.859Z</time></trkpt><trkpt lat="45.43036037372548" lon="7.387306105357794"><ele>767.6666666666666</ele><time>2026-04-19T13:07:10.859Z</time></trkpt><trkpt lat="45.43039983808811" lon="7.38707828593434"><ele>768.3333333333333</ele><time>2026-04-19T13:07:11.859Z</time></trkpt><trkpt lat="45.430442861569304" lon="7.386847557126992"><ele>769.0</ele><time>2026-04-19T13:07:12.859Z</time></trkpt><trkpt lat="45.43048551911746" lon="7.386618213678545"><ele>779.0</ele><time>2026-04-19T13:07:13.859Z</time></trkpt><trkpt lat="45.43052789857977" lon="7.386388967081257"><ele>789.0</ele><time>2026-04-19T13:07:14.859Z</time></trkpt><trkpt lat="45.430566638338284" lon="7.386155812634383"><ele>799.0</ele><time>2026-04-19T13:07:15.859Z</time></trkpt><trkpt lat="45.43058770551112" lon="7.385912976351857"><ele>799.3333333333333</ele><time>2026-04-19T13:07:16.859Z</time></trkpt><trkpt lat="45.43060751686612" lon="7.385663371418385"><ele>799.6666666666667</ele><time>2026-04-19T13:07:17.859Z</time></trkpt><trkpt lat="45.43063557737652" lon="7.385409691576878"><ele>800.0</ele><time>2026-04-19T13:07:18.859Z</time></trkpt><trkpt lat="45.4306752257872" lon="7.385157652115313"><ele>799.0</ele><time>2026-04-19T13:07:19.859Z</time></trkpt><trkpt lat="45.4307188356676" lon="7.384910519397776"><ele>798.0</ele><time>2026-04-19T13:07:20.859Z</time></trkpt><trkpt lat="45.43076564192417" lon="7.384668378549479"><ele>797.0</ele><time>2026-04-19T13:07:21.858Z</time></trkpt><trkpt lat="45.430800566078226" lon="7.384421716664801"><ele>795.3333333333334</ele><time>2026-04-19T13:07:22.858Z</time></trkpt><trkpt lat="45.43081959996643" lon="7.384168351491095"><ele>793.6666666666667</ele><time>2026-04-19T13:07:23.858Z</time></trkpt><trkpt lat="45.430840578174546" lon="7.383917873994596"><ele>792.0</ele><time>2026-04-19T13:07:24.858Z</time></trkpt><trkpt lat="45.43085721619208" lon="7.383661352782653"><ele>792.0</ele><time>2026-04-19T13:07:25.858Z</time></trkpt><trkpt lat="45.43087012451566" lon="7.383406880651903"><ele>792.0</ele><time>2026-04-19T13:07:26.858Z</time></trkpt><trkpt lat="45.43087790561074" lon="7.38315039844762"><ele>792.0</ele><time>2026-04-19T13:07:27.857Z</time></trkpt><trkpt lat="45.43087264169889" lon="7.38289848451039"><ele>791.3333333333333</ele><time>2026-04-19T13:07:28.857Z</time></trkpt><trkpt lat="45.43086919752025" lon="7.382661117938659"><ele>790.6666666666666</ele><time>2026-04-19T13:07:29.857Z</time></trkpt><trkpt lat="45.43086141918294" lon="7.382438129634116"><ele>790.0</ele><time>2026-04-19T13:07:30.857Z</time></trkpt><trkpt lat="45.43086404852989" lon="7.3822295651165915"><ele>789.25</ele><time>2026-04-19T13:07:31.857Z</time></trkpt><trkpt lat="45.43086710058487" lon="7.3820285356892645"><ele>788.5</ele><time>2026-04-19T13:07:32.857Z</time></trkpt><trkpt lat="45.430849547034605" lon="7.381829124595936"><ele>787.75</ele><time>2026-04-19T13:07:33.858Z</time></trkpt><trkpt lat="45.430825177802575" lon="7.381632417213592"><ele>787.0</ele><time>2026-04-19T13:07:34.857Z</time></trkpt><trkpt lat="45.4307874219393" lon="7.381435886191113"><ele>790.6666666666666</ele><time>2026-04-19T13:07:35.857Z</time></trkpt><trkpt lat="45.43072664358223" lon="7.381238168664359"><ele>794.3333333333333</ele><time>2026-04-19T13:07:36.857Z</time></trkpt><trkpt lat="45.43066076055762" lon="7.38103639400679"><ele>798.0</ele><time>2026-04-19T13:07:37.857Z</time></trkpt><trkpt lat="45.430599040886364" lon="7.380827367506552"><ele>798.0</ele><time>2026-04-19T13:07:38.857Z</time></trkpt><trkpt lat="45.43056148143191" lon="7.380616615409752"><ele>798.0</ele><time>2026-04-19T13:07:39.858Z</time></trkpt><trkpt lat="45.430517413646804" lon="7.380413029400347"><ele>798.0</ele><time>2026-04-19T13:07:40.857Z</time></trkpt><trkpt lat="45.43046304997795" lon="7.38020511545729"><ele>796.6666666666667</ele><time>2026-04-19T13:07:41.857Z</time></trkpt><trkpt lat="45.4303975058779" lon="7.380007568894771"><ele>795.3333333333334</ele><time>2026-04-19T13:07:42.857Z</time></trkpt><trkpt lat="45.430325299160174" lon="7.379811519309473"><ele>794.0</ele><time>2026-04-19T13:07:43.857Z</time></trkpt><trkpt lat="45.430266688273555" lon="7.379615833169635"><ele>794.0</ele><time>2026-04-19T13:07:44.857Z</time></trkpt><trkpt lat="45.43021193195764" lon="7.3794277040697"><ele>794.0</ele><time>2026-04-19T13:07:45.857Z</time></trkpt><trkpt lat="45.43013889050599" lon="7.379262509206091"><ele>794.0</ele><time>2026-04-19T13:07:46.857Z</time></trkpt><trkpt lat="45.430061358973795" lon="7.3791315250333795"><ele>794.0</ele><time>2026-04-19T13:07:47.857Z</time></trkpt><trkpt lat="45.43000516953554" lon="7.378969130094267"><ele>794.25</ele><time>2026-04-19T13:07:48.857Z</time></trkpt><trkpt lat="45.42996776084698" lon="7.378795417313637"><ele>794.5</ele><time>2026-04-19T13:07:49.857Z</time></trkpt><trkpt lat="45.429937315236934" lon="7.378609135397486"><ele>794.75</ele><time>2026-04-19T13:07:50.857Z</time></trkpt><trkpt lat="45.42991215013649" lon="7.37841199773049"><ele>795.0</ele><time>2026-04-19T13:07:51.857Z</time></trkpt><trkpt lat="45.429890616904935" lon="7.378219799987231"><ele>795.0</ele><time>2026-04-19T13:07:52.857Z</time></trkpt><trkpt lat="45.4298894143701" lon="7.378040248462723"><ele>795.0</ele><time>2026-04-19T13:07:53.857Z</time></trkpt><trkpt lat="45.42990789009743" lon="7.377873255123952"><ele>795.0</ele><time>2026-04-19T13:07:54.857Z</time></trkpt><trkpt lat="45.42994609206451" lon="7.377701070310328"><ele>795.0</ele><time>2026-04-19T13:07:55.857Z</time></trkpt><trkpt lat="45.430001645248076" lon="7.377518716586225"><ele>795.0</ele><time>2026-04-19T13:07:56.857Z</time></trkpt><trkpt lat="45.43008156983418" lon="7.377339328183235"><ele>795.0</ele><time>2026-04-19T13:07:57.857Z</time></trkpt><trkpt lat="45.43017610159527" lon="7.377158594728571"><ele>795.0</ele><time>2026-04-19T13:07:58.857Z</time></trkpt><trkpt lat="45.43026799501605" lon="7.376963698428503"><ele>795.0</ele><time>2026-04-19T13:07:59.857Z</time></trkpt><trkpt lat="45.430366347211134" lon="7.376753563110315"><ele>795.0</ele><time>2026-04-19T13:08:00.857Z</time></trkpt><trkpt lat="45.43047682434371" lon="7.376543063540247"><ele>795.0</ele><time>2026-04-19T13:08:01.856Z</time></trkpt><trkpt lat="45.430578195158745" lon="7.37633234990494"><ele>796.0</ele><time>2026-04-19T13:08:02.856Z</time></trkpt><trkpt lat="45.43066404240325" lon="7.376131102462383"><ele>797.0</ele><time>2026-04-19T13:08:03.856Z</time></trkpt><trkpt lat="45.430729209815475" lon="7.375923875267936"><ele>798.0</ele><time>2026-04-19T13:08:04.856Z</time></trkpt><trkpt lat="45.430790268688675" lon="7.3757021427322815"><ele>798.0</ele><time>2026-04-19T13:08:05.856Z</time></trkpt><trkpt lat="45.43087474109018" lon="7.375481450001871"><ele>798.0</ele><time>2026-04-19T13:08:06.856Z</time></trkpt><trkpt lat="45.430950752877166" lon="7.375244813455539"><ele>798.0</ele><time>2026-04-19T13:08:07.856Z</time></trkpt><trkpt lat="45.43103358641864" lon="7.375013352268955"><ele>798.0</ele><time>2026-04-19T13:08:08.856Z</time></trkpt><trkpt lat="45.43109567418245" lon="7.374767699340372"><ele>798.0</ele><time>2026-04-19T13:08:09.856Z</time></trkpt><trkpt lat="45.43115833065041" lon="7.3745176095007645"><ele>798.0</ele><time>2026-04-19T13:08:10.856Z</time></trkpt><trkpt lat="45.431211630226365" lon="7.374263950555884"><ele>797.6666666666667</ele><time>2026-04-19T13:08:11.856Z</time></trkpt><trkpt lat="45.431261413518335" lon="7.3740060951933435"><ele>797.3333333333334</ele><time>2026-04-19T13:08:12.856Z</time></trkpt><trkpt lat="45.43131213616843" lon="7.373753489159203"><ele>797.0</ele><time>2026-04-19T13:08:13.856Z</time></trkpt><trkpt lat="45.431361853903226" lon="7.3734959954142285"><ele>799.3333333333334</ele><time>2026-04-19T13:08:14.856Z</time></trkpt><trkpt lat="45.431405679544405" lon="7.373252947156011"><ele>801.6666666666667</ele><time>2026-04-19T13:08:15.856Z</time></trkpt><trkpt lat="45.43144040494746" lon="7.373020953082159"><ele>804.0</ele><time>2026-04-19T13:08:16.856Z</time></trkpt><trkpt lat="45.4314874518914" lon="7.372794588606875"><ele>804.3333333333333</ele><time>2026-04-19T13:08:17.856Z</time></trkpt><trkpt lat="45.431551706454435" lon="7.372590585855366"><ele>804.6666666666666</ele><time>2026-04-19T13:08:18.856Z</time></trkpt><trkpt lat="45.4316011801096" lon="7.372386200530468"><ele>805.0</ele><time>2026-04-19T13:08:19.856Z</time></trkpt><trkpt lat="45.43166579872622" lon="7.372185275400775"><ele>805.3333333333333</ele><time>2026-04-19T13:08:20.856Z</time></trkpt><trkpt lat="45.43172141813434" lon="7.371965172157438"><ele>805.6666666666667</ele><time>2026-04-19T13:08:21.856Z</time></trkpt><trkpt lat="45.43178232580386" lon="7.3717419090413"><ele>806.0</ele><time>2026-04-19T13:08:22.856Z</time></trkpt><trkpt lat="45.431853768447326" lon="7.37150213525334"><ele>806.6666666666667</ele><time>2026-04-19T13:08:23.856Z</time></trkpt><trkpt lat="45.431911390144904" lon="7.3712396742473345"><ele>807.3333333333333</ele><time>2026-04-19T13:08:24.856Z</time></trkpt><trkpt lat="45.43196738373645" lon="7.370976300462687"><ele>808.0</ele><time>2026-04-19T13:08:25.856Z</time></trkpt><trkpt lat="45.43204627362814" lon="7.3707446330892195"><ele>809.0</ele><time>2026-04-19T13:08:26.856Z</time></trkpt><trkpt lat="45.43213226186968" lon="7.3705190223947294"><ele>810.0</ele><time>2026-04-19T13:08:27.856Z</time></trkpt><trkpt lat="45.43220971019569" lon="7.37029861409806"><ele>811.0</ele><time>2026-04-19T13:08:28.856Z</time></trkpt><trkpt lat="45.43229252187189" lon="7.370109749441844"><ele>812.0</ele><time>2026-04-19T13:08:29.856Z</time></trkpt><trkpt lat="45.432380326080064" lon="7.369934999510635"><ele>813.0</ele><time>2026-04-19T13:08:30.856Z</time></trkpt><trkpt lat="45.432479126350835" lon="7.369761230263506"><ele>814.0</ele><time>2026-04-19T13:08:31.856Z</time></trkpt><trkpt lat="45.432565711548655" lon="7.369559638766414"><ele>814.0</ele><time>2026-04-19T13:08:32.856Z</time></trkpt><trkpt lat="45.43263780492604" lon="7.3693354670740625"><ele>814.0</ele><time>2026-04-19T13:08:33.856Z</time></trkpt><trkpt lat="45.43269923632217" lon="7.369108396452879"><ele>814.0</ele><time>2026-04-19T13:08:34.856Z</time></trkpt><trkpt lat="45.43275287215609" lon="7.368901435738449"><ele>815.0</ele><time>2026-04-19T13:08:35.856Z</time></trkpt><trkpt lat="45.43279453255337" lon="7.368696663897549"><ele>816.0</ele><time>2026-04-19T13:08:36.856Z</time></trkpt><trkpt lat="45.43281850539445" lon="7.368478222709405"><ele>817.0</ele><time>2026-04-19T13:08:37.856Z</time></trkpt><trkpt lat="45.432817485282484" lon="7.368259015999154"><ele>817.6666666666666</ele><time>2026-04-19T13:08:38.856Z</time></trkpt><trkpt lat="45.432791182764106" lon="7.368020201525731"><ele>818.3333333333333</ele><time>2026-04-19T13:08:39.856Z</time></trkpt><trkpt lat="45.432762240303724" lon="7.367772622040163"><ele>819.0</ele><time>2026-04-19T13:08:40.856Z</time></trkpt><trkpt lat="45.43275170260123" lon="7.367527088111789"><ele>819.0</ele><time>2026-04-19T13:08:41.856Z</time></trkpt><trkpt lat="45.43275297024042" lon="7.367282301695224"><ele>819.0</ele><time>2026-04-19T13:08:42.856Z</time></trkpt><trkpt lat="45.432742673174964" lon="7.367016752875726"><ele>819.0</ele><time>2026-04-19T13:08:43.856Z</time></trkpt><trkpt lat="45.432732043631844" lon="7.366749176885271"><ele>820.6666666666667</ele><time>2026-04-19T13:08:44.856Z</time></trkpt><trkpt lat="45.43271276052285" lon="7.36645860171828"><ele>822.3333333333334</ele><time>2026-04-19T13:08:45.856Z</time></trkpt><trkpt lat="45.43269808996688" lon="7.36615310566556"><ele>824.0</ele><time>2026-04-19T13:08:46.856Z</time></trkpt><trkpt lat="45.432657790710046" lon="7.365802953336843"><ele>824.3333333333334</ele><time>2026-04-19T13:08:47.856Z</time></trkpt><trkpt lat="45.43283880821152" lon="7.365804364383011"><ele>824.6666666666667</ele><time>2026-04-19T13:08:48.856Z</time></trkpt><trkpt lat="45.43285149113995" lon="7.365571938269004"><ele>825.0</ele><time>2026-04-19T13:08:49.856Z</time></trkpt><trkpt lat="45.43288609251385" lon="7.365338532941858"><ele>825.0</ele><time>2026-04-19T13:08:50.856Z</time></trkpt><trkpt lat="45.432937979064214" lon="7.365108197781736"><ele>825.0</ele><time>2026-04-19T13:08:51.856Z</time></trkpt><trkpt lat="45.43299314248051" lon="7.364871324923371"><ele>825.0</ele><time>2026-04-19T13:08:52.856Z</time></trkpt><trkpt lat="45.433047107268834" lon="7.364637905456754"><ele>834.3333333333333</ele><time>2026-04-19T13:08:53.856Z</time></trkpt><trkpt lat="45.433091123050424" lon="7.364418093804955"><ele>843.6666666666666</ele><time>2026-04-19T13:08:54.856Z</time></trkpt><trkpt lat="45.43310908298855" lon="7.364190042744074"><ele>853.0</ele><time>2026-04-19T13:08:55.856Z</time></trkpt><trkpt lat="45.433102307183425" lon="7.36396077767833"><ele>852.0</ele><time>2026-04-19T13:08:56.856Z</time></trkpt><trkpt lat="45.43309144079959" lon="7.363737262504886"><ele>851.0</ele><time>2026-04-19T13:08:57.856Z</time></trkpt><trkpt lat="45.433088141392034" lon="7.363540426245669"><ele>850.0</ele><time>2026-04-19T13:08:58.856Z</time></trkpt><trkpt lat="45.43308728309337" lon="7.363356295122335"><ele>849.0</ele><time>2026-04-19T13:08:59.856Z</time></trkpt><trkpt lat="45.43310286128713" lon="7.363179254725154"><ele>849.25</ele><time>2026-04-19T13:09:00.856Z</time></trkpt><trkpt lat="45.433142528152004" lon="7.363005704864698"><ele>849.5</ele><time>2026-04-19T13:09:01.856Z</time></trkpt><trkpt lat="45.433215522704714" lon="7.362838923023584"><ele>849.75</ele><time>2026-04-19T13:09:02.856Z</time></trkpt><trkpt lat="45.43330556737024" lon="7.362693732138242"><ele>850.0</ele><time>2026-04-19T13:09:03.856Z</time></trkpt><trkpt lat="45.43338613677442" lon="7.36258875686644"><ele>850.0</ele><time>2026-04-19T13:09:04.856Z</time></trkpt><trkpt lat="45.43345707139028" lon="7.362510162028833"><ele>850.0</ele><time>2026-04-19T13:09:05.856Z</time></trkpt><trkpt lat="45.433495142310434" lon="7.362437135396185"><ele>850.0</ele><time>2026-04-19T13:09:06.856Z</time></trkpt><trkpt lat="45.43348320470561" lon="7.362347355427586"><ele>850.0</ele><time>2026-04-19T13:09:07.856Z</time></trkpt><trkpt lat="45.43344022705782" lon="7.3622770946881255"><ele>850.0</ele><time>2026-04-19T13:09:08.856Z</time></trkpt><trkpt lat="45.433364197233395" lon="7.362233316023874"><ele>850.0</ele><time>2026-04-19T13:09:09.856Z</time></trkpt><trkpt lat="45.4332819118741" lon="7.362209182346663"><ele>850.0</ele><time>2026-04-19T13:09:10.856Z</time></trkpt><trkpt lat="45.4331904548755" lon="7.362182425303038"><ele>848.8</ele><time>2026-04-19T13:09:11.856Z</time></trkpt><trkpt lat="45.43306251670379" lon="7.362176347247661"><ele>847.6</ele><time>2026-04-19T13:09:12.856Z</time></trkpt><trkpt lat="45.43297202737135" lon="7.362118136794649"><ele>846.4000000000001</ele><time>2026-04-19T13:09:13.856Z</time></trkpt><trkpt lat="45.43290002977207" lon="7.36205701694054"><ele>845.2</ele><time>2026-04-19T13:09:14.856Z</time></trkpt><trkpt lat="45.43285385423403" lon="7.361977490870162"><ele>844.0</ele><time>2026-04-19T13:09:15.856Z</time></trkpt><trkpt lat="45.43283528997833" lon="7.361880361095616"><ele>844.0</ele><time>2026-04-19T13:09:16.856Z</time></trkpt><trkpt lat="45.4328763782605" lon="7.361789727051198"><ele>844.0</ele><time>2026-04-19T13:09:17.856Z</time></trkpt><trkpt lat="45.43292852364043" lon="7.361707343211627"><ele>844.0</ele><time>2026-04-19T13:09:18.856Z</time></trkpt><trkpt lat="45.433009217821024" lon="7.361641923016316"><ele>844.0</ele><time>2026-04-19T13:09:19.856Z</time></trkpt><trkpt lat="45.43309457799958" lon="7.361567877055361"><ele>844.0</ele><time>2026-04-19T13:09:20.856Z</time></trkpt><trkpt lat="45.43317942082326" lon="7.361465795657589"><ele>846.25</ele><time>2026-04-19T13:09:21.856Z</time></trkpt><trkpt lat="45.433246063598155" lon="7.361331365920034"><ele>848.5</ele><time>2026-04-19T13:09:22.856Z</time></trkpt><trkpt lat="45.43328363000042" lon="7.361179378732417"><ele>850.75</ele><time>2026-04-19T13:09:23.856Z</time></trkpt><trkpt lat="45.433304334184186" lon="7.361010084061495"><ele>853.0</ele><time>2026-04-19T13:09:24.856Z</time></trkpt><trkpt lat="45.4333106658282" lon="7.3608369939482765"><ele>853.0</ele><time>2026-04-19T13:09:25.856Z</time></trkpt><trkpt lat="45.4333209012663" lon="7.360658053383148"><ele>853.0</ele><time>2026-04-19T13:09:26.856Z</time></trkpt><trkpt lat="45.43333963338881" lon="7.3604909148244975"><ele>853.0</ele><time>2026-04-19T13:09:27.856Z</time></trkpt><trkpt lat="45.43337243071032" lon="7.3603225694741905"><ele>853.0</ele><time>2026-04-19T13:09:28.856Z</time></trkpt><trkpt lat="45.43342456540488" lon="7.360148621666506"><ele>852.0</ele><time>2026-04-19T13:09:29.856Z</time></trkpt><trkpt lat="45.43350349725308" lon="7.359999051818743"><ele>851.0</ele><time>2026-04-19T13:09:30.856Z</time></trkpt><trkpt lat="45.433631226891826" lon="7.359884545309522"><ele>850.0</ele><time>2026-04-19T13:09:31.856Z</time></trkpt><trkpt lat="45.43375319628022" lon="7.3597466886828045"><ele>849.0</ele><time>2026-04-19T13:09:32.856Z</time></trkpt><trkpt lat="45.43387512915113" lon="7.359593052310241"><ele>852.6666666666667</ele><time>2026-04-19T13:09:33.856Z</time></trkpt><trkpt lat="45.434005445327735" lon="7.359435381096161"><ele>856.3333333333334</ele><time>2026-04-19T13:09:34.856Z</time></trkpt><trkpt lat="45.43413411146118" lon="7.359271053364319"><ele>860.0</ele><time>2026-04-19T13:09:35.856Z</time></trkpt><trkpt lat="45.434239836734136" lon="7.35908853658441"><ele>860.0</ele><time>2026-04-19T13:09:36.856Z</time></trkpt><trkpt lat="45.434319616226965" lon="7.358880817592678"><ele>860.0</ele><time>2026-04-19T13:09:37.855Z</time></trkpt><trkpt lat="45.43437905921354" lon="7.35866221594916"><ele>860.0</ele><time>2026-04-19T13:09:38.855Z</time></trkpt><trkpt lat="45.434433529259174" lon="7.358450416941534"><ele>859.0</ele><time>2026-04-19T13:09:39.855Z</time></trkpt><trkpt lat="45.43450205202108" lon="7.3582474792202675"><ele>858.0</ele><time>2026-04-19T13:09:40.855Z</time></trkpt><trkpt lat="45.43457255075442" lon="7.358041291520096"><ele>857.0</ele><time>2026-04-19T13:09:41.855Z</time></trkpt><trkpt lat="45.4346512213252" lon="7.357840733844878"><ele>862.6666666666667</ele><time>2026-04-19T13:09:42.855Z</time></trkpt><trkpt lat="45.434738227631776" lon="7.357647825647622"><ele>868.3333333333333</ele><time>2026-04-19T13:09:43.856Z</time></trkpt><trkpt lat="45.4348356416491" lon="7.357464676607202"><ele>874.0</ele><time>2026-04-19T13:09:44.856Z</time></trkpt><trkpt lat="45.43495231307966" lon="7.357289093829334"><ele>868.0</ele><time>2026-04-19T13:09:45.855Z</time></trkpt><trkpt lat="45.435073312776105" lon="7.357112334144869"><ele>862.0</ele><time>2026-04-19T13:09:46.855Z</time></trkpt><trkpt lat="45.43519042070553" lon="7.356932270483086"><ele>856.0</ele><time>2026-04-19T13:09:47.855Z</time></trkpt><trkpt lat="45.435301638586274" lon="7.356771571459211"><ele>856.0</ele><time>2026-04-19T13:09:48.855Z</time></trkpt><trkpt lat="45.43539788634476" lon="7.356611833435472"><ele>856.0</ele><time>2026-04-19T13:09:49.855Z</time></trkpt><trkpt lat="45.43549944510495" lon="7.356469310788648"><ele>856.0</ele><time>2026-04-19T13:09:50.855Z</time></trkpt><trkpt lat="45.43560271417602" lon="7.356317996669125"><ele>856.0</ele><time>2026-04-19T13:09:51.855Z</time></trkpt><trkpt lat="45.43571453799571" lon="7.356166176790999"><ele>856.0</ele><time>2026-04-19T13:09:52.855Z</time></trkpt><trkpt lat="45.435834884691744" lon="7.356040265968814"><ele>856.0</ele><time>2026-04-19T13:09:53.855Z</time></trkpt><trkpt lat="45.435949912169065" lon="7.355914021019056"><ele>856.0</ele><time>2026-04-19T13:09:54.855Z</time></trkpt><trkpt lat="45.43604864980476" lon="7.355748517029901"><ele>856.0</ele><time>2026-04-19T13:09:55.855Z</time></trkpt><trkpt lat="45.43612397260673" lon="7.355527089364283"><ele>856.0</ele><time>2026-04-19T13:09:56.855Z</time></trkpt><trkpt lat="45.43620377353107" lon="7.355303700732154"><ele>856.0</ele><time>2026-04-19T13:09:57.855Z</time></trkpt><trkpt lat="45.43627821624005" lon="7.355065613195717"><ele>856.0</ele><time>2026-04-19T13:09:58.855Z</time></trkpt><trkpt lat="45.436359521338346" lon="7.354819075064596"><ele>858.0</ele><time>2026-04-19T13:09:59.855Z</time></trkpt><trkpt lat="45.43644156612948" lon="7.3545595348468185"><ele>860.0</ele><time>2026-04-19T13:10:00.855Z</time></trkpt><trkpt lat="45.43652462020587" lon="7.3542893586456985"><ele>862.0</ele><time>2026-04-19T13:10:01.855Z</time></trkpt><trkpt lat="45.436606707973155" lon="7.354023176263575"><ele>862.3333333333333</ele><time>2026-04-19T13:10:02.855Z</time></trkpt><trkpt lat="45.43667369180945" lon="7.353754379048558"><ele>862.6666666666667</ele><time>2026-04-19T13:10:03.855Z</time></trkpt><trkpt lat="45.436728328554665" lon="7.353509480498506"><ele>863.0</ele><time>2026-04-19T13:10:04.855Z</time></trkpt><trkpt lat="45.43676563133241" lon="7.353274598864679"><ele>863.0</ele><time>2026-04-19T13:10:05.855Z</time></trkpt><trkpt lat="45.43680133219264" lon="7.353042318221817"><ele>863.0</ele><time>2026-04-19T13:10:06.855Z</time></trkpt><trkpt lat="45.43684273378285" lon="7.35281413271672"><ele>863.0</ele><time>2026-04-19T13:10:07.855Z</time></trkpt><trkpt lat="45.43687571921692" lon="7.352577826064528"><ele>863.0</ele><time>2026-04-19T13:10:08.855Z</time></trkpt><trkpt lat="45.43689545939271" lon="7.352330006224178"><ele>863.0</ele><time>2026-04-19T13:10:09.855Z</time></trkpt><trkpt lat="45.43690796636352" lon="7.352075260778331"><ele>863.0</ele><time>2026-04-19T13:10:10.855Z</time></trkpt><trkpt lat="45.43691693339796" lon="7.351831677970605"><ele>864.3333333333334</ele><time>2026-04-19T13:10:11.855Z</time></trkpt><trkpt lat="45.43692275357977" lon="7.351581816796676"><ele>865.6666666666667</ele><time>2026-04-19T13:10:12.855Z</time></trkpt><trkpt lat="45.43692930287672" lon="7.3513427970411795"><ele>867.0</ele><time>2026-04-19T13:10:13.855Z</time></trkpt><trkpt lat="45.436928842779885" lon="7.351101330658852"><ele>868.6666666666667</ele><time>2026-04-19T13:10:14.855Z</time></trkpt><trkpt lat="45.43691692627019" lon="7.350865160082478"><ele>870.3333333333334</ele><time>2026-04-19T13:10:15.855Z</time></trkpt><trkpt lat="45.4368957452169" lon="7.350629302037709"><ele>872.0</ele><time>2026-04-19T13:10:16.855Z</time></trkpt><trkpt lat="45.436874356916796" lon="7.350393328253482"><ele>874.0</ele><time>2026-04-19T13:10:17.855Z</time></trkpt><trkpt lat="45.436854713224726" lon="7.350160166571664"><ele>876.0</ele><time>2026-04-19T13:10:18.855Z</time></trkpt><trkpt lat="45.43683613359121" lon="7.349929663086436"><ele>878.0</ele><time>2026-04-19T13:10:19.854Z</time></trkpt><trkpt lat="45.43683562451172" lon="7.3497064744741785"><ele>880.6666666666667</ele><time>2026-04-19T13:10:20.854Z</time></trkpt><trkpt lat="45.43685850410959" lon="7.349492333675793"><ele>883.3333333333333</ele><time>2026-04-19T13:10:21.854Z</time></trkpt><trkpt lat="45.436900527682134" lon="7.349287304105173"><ele>886.0</ele><time>2026-04-19T13:10:22.854Z</time></trkpt><trkpt lat="45.43697028892285" lon="7.34909412178241"><ele>886.0</ele><time>2026-04-19T13:10:23.854Z</time></trkpt><trkpt lat="45.43708173929698" lon="7.348938224124096"><ele>886.0</ele><time>2026-04-19T13:10:24.854Z</time></trkpt><trkpt lat="45.43720360107861" lon="7.3487965700279405"><ele>886.0</ele><time>2026-04-19T13:10:25.854Z</time></trkpt><trkpt lat="45.437335699796776" lon="7.348674389187462"><ele>886.0</ele><time>2026-04-19T13:10:26.854Z</time></trkpt><trkpt lat="45.43748181730891" lon="7.348580466890233"><ele>886.0</ele><time>2026-04-19T13:10:27.854Z</time></trkpt><trkpt lat="45.43763839182435" lon="7.348512677365815"><ele>886.0</ele><time>2026-04-19T13:10:28.854Z</time></trkpt><trkpt lat="45.437799902743905" lon="7.348437939792041"><ele>886.0</ele><time>2026-04-19T13:10:29.854Z</time></trkpt><trkpt lat="45.43793890539314" lon="7.348321858301686"><ele>886.0</ele><time>2026-04-19T13:10:30.854Z</time></trkpt><trkpt lat="45.43805117554289" lon="7.3481539144662475"><ele>886.0</ele><time>2026-04-19T13:10:31.854Z</time></trkpt><trkpt lat="45.438145887093796" lon="7.347968518714841"><ele>889.3333333333333</ele><time>2026-04-19T13:10:32.854Z</time></trkpt><trkpt lat="45.43823294933015" lon="7.347760856912125"><ele>892.6666666666667</ele><time>2026-04-19T13:10:33.854Z</time></trkpt><trkpt lat="45.43830771746948" lon="7.347539021675721"><ele>896.0</ele><time>2026-04-19T13:10:34.854Z</time></trkpt><trkpt lat="45.43836142434832" lon="7.347310617219472"><ele>896.5</ele><time>2026-04-19T13:10:35.854Z</time></trkpt><trkpt lat="45.43839383581247" lon="7.347091110104715"><ele>897.0</ele><time>2026-04-19T13:10:36.854Z</time></trkpt><trkpt lat="45.43842368622548" lon="7.346882645204217"><ele>897.5</ele><time>2026-04-19T13:10:37.854Z</time></trkpt><trkpt lat="45.43846054850907" lon="7.346696507384842"><ele>898.0</ele><time>2026-04-19T13:10:38.854Z</time></trkpt><trkpt lat="45.43851822727258" lon="7.34653751094755"><ele>898.0</ele><time>2026-04-19T13:10:39.854Z</time></trkpt><trkpt lat="45.43859308336299" lon="7.346403577833341"><ele>898.0</ele><time>2026-04-19T13:10:40.854Z</time></trkpt><trkpt lat="45.43869627626024" lon="7.3463141180514215"><ele>898.0</ele><time>2026-04-19T13:10:41.854Z</time></trkpt><trkpt lat="45.43880792344242" lon="7.34625196963113"><ele>898.0</ele><time>2026-04-19T13:10:42.854Z</time></trkpt><trkpt lat="45.43893920554627" lon="7.346196402064993"><ele>899.0</ele><time>2026-04-19T13:10:43.854Z</time></trkpt><trkpt lat="45.43907501194604" lon="7.346117269886219"><ele>900.0</ele><time>2026-04-19T13:10:44.854Z</time></trkpt><trkpt lat="45.439210135623746" lon="7.346014119551559"><ele>901.0</ele><time>2026-04-19T13:10:45.854Z</time></trkpt><trkpt lat="45.43933931362928" lon="7.345886139389244"><ele>901.0</ele><time>2026-04-19T13:10:46.854Z</time></trkpt><trkpt lat="45.43946239359843" lon="7.345746420479958"><ele>901.0</ele><time>2026-04-19T13:10:47.854Z</time></trkpt><trkpt lat="45.43958983982889" lon="7.345616366019445"><ele>901.0</ele><time>2026-04-19T13:10:48.854Z</time></trkpt><trkpt lat="45.439701413326844" lon="7.345493603374465"><ele>902.25</ele><time>2026-04-19T13:10:49.854Z</time></trkpt><trkpt lat="45.43980980618748" lon="7.345374938276162"><ele>903.5</ele><time>2026-04-19T13:10:50.854Z</time></trkpt><trkpt lat="45.43993111890166" lon="7.345281494283626"><ele>904.75</ele><time>2026-04-19T13:10:51.854Z</time></trkpt><trkpt lat="45.44008514552025" lon="7.345241421005557"><ele>906.0</ele><time>2026-04-19T13:10:52.854Z</time></trkpt><trkpt lat="45.44022036061879" lon="7.345169949620641"><ele>906.0</ele><time>2026-04-19T13:10:53.854Z</time></trkpt><trkpt lat="45.44033457350632" lon="7.345075723613336"><ele>906.0</ele><time>2026-04-19T13:10:54.854Z</time></trkpt><trkpt lat="45.44043712839548" lon="7.344951187390116"><ele>906.0</ele><time>2026-04-19T13:10:55.854Z</time></trkpt><trkpt lat="45.44053819900852" lon="7.344816870401531"><ele>906.0</ele><time>2026-04-19T13:10:56.854Z</time></trkpt><trkpt lat="45.440635922920265" lon="7.344659313519258"><ele>909.3333333333333</ele><time>2026-04-19T13:10:57.854Z</time></trkpt><trkpt lat="45.440722541708496" lon="7.344477854461049"><ele>912.6666666666666</ele><time>2026-04-19T13:10:58.854Z</time></trkpt><trkpt lat="45.44081203311714" lon="7.344284970253791"><ele>916.0</ele><time>2026-04-19T13:10:59.854Z</time></trkpt><trkpt lat="45.44089585489501" lon="7.344099183275851"><ele>916.0</ele><time>2026-04-19T13:11:00.854Z</time></trkpt><trkpt lat="45.44097995098072" lon="7.343920040508918"><ele>916.0</ele><time>2026-04-19T13:11:01.854Z</time></trkpt><trkpt lat="45.44106374654985" lon="7.343748181725129"><ele>916.0</ele><time>2026-04-19T13:11:02.854Z</time></trkpt><trkpt lat="45.4411612641789" lon="7.343598915402995"><ele>916.0</ele><time>2026-04-19T13:11:03.854Z</time></trkpt><trkpt lat="45.441257193082535" lon="7.34345646699154"><ele>920.0</ele><time>2026-04-19T13:11:04.854Z</time></trkpt><trkpt lat="45.441345053297084" lon="7.343320378809741"><ele>924.0</ele><time>2026-04-19T13:11:05.854Z</time></trkpt><trkpt lat="45.441416442212386" lon="7.343170370078584"><ele>928.0</ele><time>2026-04-19T13:11:06.854Z</time></trkpt><trkpt lat="45.44146866040341" lon="7.343017041761893"><ele>932.0</ele><time>2026-04-19T13:11:07.854Z</time></trkpt><trkpt lat="45.44150891371491" lon="7.34284731412546"><ele>932.0</ele><time>2026-04-19T13:11:08.854Z</time></trkpt><trkpt lat="45.44154172669672" lon="7.342678974047588"><ele>932.0</ele><time>2026-04-19T13:11:09.854Z</time></trkpt><trkpt lat="45.44156949224223" lon="7.342500634855503"><ele>932.0</ele><time>2026-04-19T13:11:10.854Z</time></trkpt><trkpt lat="45.44160934111342" lon="7.342339429932898"><ele>932.0</ele><time>2026-04-19T13:11:11.854Z</time></trkpt><trkpt lat="45.441657702106724" lon="7.342192178181776"><ele>929.8</ele><time>2026-04-19T13:11:12.854Z</time></trkpt><trkpt lat="45.44169566722761" lon="7.342062713265665"><ele>927.6</ele><time>2026-04-19T13:11:13.854Z</time></trkpt><trkpt lat="45.44174436950826" lon="7.341945203358278"><ele>925.3999999999999</ele><time>2026-04-19T13:11:14.854Z</time></trkpt><trkpt lat="45.44178361393791" lon="7.341823064349127"><ele>923.1999999999999</ele><time>2026-04-19T13:11:15.854Z</time></trkpt><trkpt lat="45.441827572906426" lon="7.341711006837868"><ele>921.0</ele><time>2026-04-19T13:11:16.854Z</time></trkpt><trkpt lat="45.441859096382274" lon="7.341583175345555"><ele>921.0</ele><time>2026-04-19T13:11:17.854Z</time></trkpt><trkpt lat="45.44190253924527" lon="7.341472131431095"><ele>920.9999999999999</ele><time>2026-04-19T13:11:18.854Z</time></trkpt><trkpt lat="45.44194824722611" lon="7.341360374678893"><ele>920.9999999999999</ele><time>2026-04-19T13:11:19.854Z</time></trkpt><trkpt lat="45.44201055507632" lon="7.341255953377823"><ele>921.0</ele><time>2026-04-19T13:11:20.854Z</time></trkpt><trkpt lat="45.442081832917204" lon="7.341139683924787"><ele>921.0</ele><time>2026-04-19T13:11:21.854Z</time></trkpt><trkpt lat="45.442161647730074" lon="7.341015320699113"><ele>924.0</ele><time>2026-04-19T13:11:22.854Z</time></trkpt><trkpt lat="45.44224850934543" lon="7.34089698914526"><ele>927.0</ele><time>2026-04-19T13:11:23.854Z</time></trkpt><trkpt lat="45.442324603058566" lon="7.340768724524938"><ele>930.0</ele><time>2026-04-19T13:11:24.854Z</time></trkpt><trkpt lat="45.442396275430404" lon="7.340636321256428"><ele>933.0</ele><time>2026-04-19T13:11:25.854Z</time></trkpt><trkpt lat="45.44246653551721" lon="7.340500317320536"><ele>933.0</ele><time>2026-04-19T13:11:26.854Z</time></trkpt><trkpt lat="45.44253571187325" lon="7.340364122116042"><ele>933.0</ele><time>2026-04-19T13:11:27.854Z</time></trkpt><trkpt lat="45.44259757490206" lon="7.340213107244868"><ele>933.0</ele><time>2026-04-19T13:11:28.854Z</time></trkpt><trkpt lat="45.44264934947927" lon="7.340044433106012"><ele>933.0</ele><time>2026-04-19T13:11:29.854Z</time></trkpt><trkpt lat="45.44270221160244" lon="7.33987510194478"><ele>932.75</ele><time>2026-04-19T13:11:30.854Z</time></trkpt><trkpt lat="45.44275882333732" lon="7.339699094429198"><ele>932.5</ele><time>2026-04-19T13:11:31.854Z</time></trkpt><trkpt lat="45.44281368339515" lon="7.339528730670648"><ele>932.25</ele><time>2026-04-19T13:11:32.854Z</time></trkpt><trkpt lat="45.442867121322436" lon="7.339361099321059"><ele>932.0</ele><time>2026-04-19T13:11:33.854Z</time></trkpt><trkpt lat="45.44290691721009" lon="7.339177548743214"><ele>932.0</ele><time>2026-04-19T13:11:34.854Z</time></trkpt><trkpt lat="45.44293632143239" lon="7.33897496778085"><ele>932.0</ele><time>2026-04-19T13:11:35.854Z</time></trkpt><trkpt lat="45.44297611150496" lon="7.338784097302795"><ele>932.0</ele><time>2026-04-19T13:11:36.854Z</time></trkpt><trkpt lat="45.4430109118826" lon="7.338598189253286"><ele>932.0</ele><time>2026-04-19T13:11:37.854Z</time></trkpt><trkpt lat="45.44304064410434" lon="7.338417300961925"><ele>934.0</ele><time>2026-04-19T13:11:38.854Z</time></trkpt><trkpt lat="45.44306907286329" lon="7.3382441521962996"><ele>936.0</ele><time>2026-04-19T13:11:39.853Z</time></trkpt><trkpt lat="45.44309887131693" lon="7.338077560126283"><ele>938.0</ele><time>2026-04-19T13:11:40.853Z</time></trkpt><trkpt lat="45.443134454758045" lon="7.33791622399517"><ele>940.0</ele><time>2026-04-19T13:11:41.853Z</time></trkpt><trkpt lat="45.44316465183568" lon="7.337761126603086"><ele>940.0</ele><time>2026-04-19T13:11:42.854Z</time></trkpt><trkpt lat="45.443190750941994" lon="7.337609078822188"><ele>940.0</ele><time>2026-04-19T13:11:43.853Z</time></trkpt><trkpt lat="45.44321649304629" lon="7.337461002650478"><ele>940.0</ele><time>2026-04-19T13:11:44.853Z</time></trkpt><trkpt lat="45.443240554138235" lon="7.3373070178087865"><ele>940.0</ele><time>2026-04-19T13:11:45.854Z</time></trkpt><trkpt lat="45.44326655880097" lon="7.337149690142489"><ele>940.0</ele><time>2026-04-19T13:11:46.853Z</time></trkpt><trkpt lat="45.443290829145255" lon="7.336983702889539"><ele>940.0</ele><time>2026-04-19T13:11:47.853Z</time></trkpt><trkpt lat="45.443317399567945" lon="7.336817250095638"><ele>940.0</ele><time>2026-04-19T13:11:48.853Z</time></trkpt><trkpt lat="45.443353971020585" lon="7.336652985276394"><ele>940.0</ele><time>2026-04-19T13:11:49.853Z</time></trkpt><trkpt lat="45.443395845184654" lon="7.336480117518547"><ele>940.0</ele><time>2026-04-19T13:11:50.853Z</time></trkpt><trkpt lat="45.443446191193416" lon="7.336308113298647"><ele>939.25</ele><time>2026-04-19T13:11:51.853Z</time></trkpt><trkpt lat="45.44349645421519" lon="7.336130637218168"><ele>938.5</ele><time>2026-04-19T13:11:52.853Z</time></trkpt><trkpt lat="45.443554863702886" lon="7.3359495234743335"><ele>937.75</ele><time>2026-04-19T13:11:53.853Z</time></trkpt><trkpt lat="45.44360875167344" lon="7.335765131463385"><ele>937.0</ele><time>2026-04-19T13:11:54.853Z</time></trkpt><trkpt lat="45.4436616993357" lon="7.3355845732993945"><ele>938.75</ele><time>2026-04-19T13:11:55.853Z</time></trkpt><trkpt lat="45.44371367135981" lon="7.335408505625551"><ele>940.5</ele><time>2026-04-19T13:11:56.853Z</time></trkpt><trkpt lat="45.44376894615218" lon="7.335234904214889"><ele>942.25</ele><time>2026-04-19T13:11:57.853Z</time></trkpt><trkpt lat="45.44382765847558" lon="7.335063782780793"><ele>944.0</ele><time>2026-04-19T13:11:58.853Z</time></trkpt><trkpt lat="45.44389057247891" lon="7.334890543625392"><ele>944.0</ele><time>2026-04-19T13:11:59.853Z</time></trkpt><trkpt lat="45.44396555799558" lon="7.334728049683195"><ele>944.0</ele><time>2026-04-19T13:12:00.853Z</time></trkpt><trkpt lat="45.444055155833375" lon="7.334575674762053"><ele>944.0</ele><time>2026-04-19T13:12:01.853Z</time></trkpt><trkpt lat="45.444146893713224" lon="7.3344228229178094"><ele>944.0</ele><time>2026-04-19T13:12:02.853Z</time></trkpt><trkpt lat="45.44424219246345" lon="7.3342673781736725"><ele>944.0</ele><time>2026-04-19T13:12:03.853Z</time></trkpt><trkpt lat="45.44434290090193" lon="7.334106992930357"><ele>944.0</ele><time>2026-04-19T13:12:04.853Z</time></trkpt><trkpt lat="45.44444180240186" lon="7.33395182372562"><ele>944.0</ele><time>2026-04-19T13:12:05.853Z</time></trkpt><trkpt lat="45.44453335542699" lon="7.33380750037806"><ele>944.0</ele><time>2026-04-19T13:12:06.853Z</time></trkpt><trkpt lat="45.44461939082979" lon="7.333659262818795"><ele>947.5</ele><time>2026-04-19T13:12:07.853Z</time></trkpt><trkpt lat="45.444704892754004" lon="7.333519441066628"><ele>951.0</ele><time>2026-04-19T13:12:08.853Z</time></trkpt><trkpt lat="45.44479881996645" lon="7.333380482155219"><ele>954.5</ele><time>2026-04-19T13:12:09.853Z</time></trkpt><trkpt lat="45.444889831714484" lon="7.333231239808764"><ele>958.0</ele><time>2026-04-19T13:12:10.853Z</time></trkpt><trkpt lat="45.444976834299695" lon="7.333071071863349"><ele>956.25</ele><time>2026-04-19T13:12:11.853Z</time></trkpt><trkpt lat="45.44505599068101" lon="7.332913526875579"><ele>954.5</ele><time>2026-04-19T13:12:12.853Z</time></trkpt><trkpt lat="45.44510982282365" lon="7.332757418165418"><ele>952.75</ele><time>2026-04-19T13:12:13.853Z</time></trkpt><trkpt lat="45.44515364970132" lon="7.332615666782118"><ele>951.0</ele><time>2026-04-19T13:12:14.853Z</time></trkpt><trkpt lat="45.44519273717318" lon="7.332483717258306"><ele>951.0</ele><time>2026-04-19T13:12:15.853Z</time></trkpt><trkpt lat="45.445226330566435" lon="7.332346661772686"><ele>950.9999999999999</ele><time>2026-04-19T13:12:16.853Z</time></trkpt><trkpt lat="45.44526293904104" lon="7.332216824772903"><ele>950.9999999999999</ele><time>2026-04-19T13:12:17.853Z</time></trkpt><trkpt lat="45.44529921933297" lon="7.332088687567459"><ele>951.0</ele><time>2026-04-19T13:12:18.853Z</time></trkpt><trkpt lat="45.445349318864096" lon="7.331966311525526"><ele>951.0</ele><time>2026-04-19T13:12:19.853Z</time></trkpt><trkpt lat="45.44539753040793" lon="7.33184937030821"><ele>951.0</ele><time>2026-04-19T13:12:20.853Z</time></trkpt><trkpt lat="45.44545967681522" lon="7.331749407699955"><ele>950.9999999999999</ele><time>2026-04-19T13:12:21.853Z</time></trkpt><trkpt lat="45.44554009419128" lon="7.331654725054287"><ele>950.9999999999999</ele><time>2026-04-19T13:12:22.853Z</time></trkpt><trkpt lat="45.445634548332464" lon="7.331564779919796"><ele>951.0</ele><time>2026-04-19T13:12:23.853Z</time></trkpt><trkpt lat="45.44573401395997" lon="7.3314633764387"><ele>951.0</ele><time>2026-04-19T13:12:24.853Z</time></trkpt><trkpt lat="45.445838233017305" lon="7.331363663133519"><ele>952.5</ele><time>2026-04-19T13:12:25.853Z</time></trkpt><trkpt lat="45.44592023291312" lon="7.331230351358128"><ele>954.0</ele><time>2026-04-19T13:12:26.853Z</time></trkpt><trkpt lat="45.44598234142767" lon="7.331067351158095"><ele>955.5</ele><time>2026-04-19T13:12:27.852Z</time></trkpt><trkpt lat="45.44604023886803" lon="7.330899136182701"><ele>957.0</ele><time>2026-04-19T13:12:28.852Z</time></trkpt><trkpt lat="45.446098097492786" lon="7.330743921217986"><ele>957.0</ele><time>2026-04-19T13:12:29.852Z</time></trkpt><trkpt lat="45.446148125231645" lon="7.330595344706365"><ele>957.0</ele><time>2026-04-19T13:12:30.852Z</time></trkpt><trkpt lat="45.44619493614951" lon="7.3304415772437315"><ele>957.0</ele><time>2026-04-19T13:12:31.852Z</time></trkpt><trkpt lat="45.44624420417765" lon="7.330298584347213"><ele>957.0</ele><time>2026-04-19T13:12:32.852Z</time></trkpt><trkpt lat="45.44629707693484" lon="7.330163059125474"><ele>961.75</ele><time>2026-04-19T13:12:33.852Z</time></trkpt><trkpt lat="45.446351390611646" lon="7.330023674532523"><ele>966.5</ele><time>2026-04-19T13:12:34.852Z</time></trkpt><trkpt lat="45.44640942792514" lon="7.329883699584985"><ele>971.25</ele><time>2026-04-19T13:12:35.852Z</time></trkpt><trkpt lat="45.446477091114104" lon="7.329743510559028"><ele>976.0</ele><time>2026-04-19T13:12:36.852Z</time></trkpt><trkpt lat="45.44655021621567" lon="7.329601184724479"><ele>976.0</ele><time>2026-04-19T13:12:37.852Z</time></trkpt><trkpt lat="45.44663402418948" lon="7.329459419728083"><ele>976.0</ele><time>2026-04-19T13:12:38.852Z</time></trkpt><trkpt lat="45.44672123944072" lon="7.329314838174537"><ele>976.0</ele><time>2026-04-19T13:12:39.852Z</time></trkpt><trkpt lat="45.446808538497685" lon="7.329155655952045"><ele>976.0</ele><time>2026-04-19T13:12:40.852Z</time></trkpt><trkpt lat="45.44688905553598" lon="7.328978686046384"><ele>974.3333333333333</ele><time>2026-04-19T13:12:41.852Z</time></trkpt><trkpt lat="45.44696848460164" lon="7.328790005378485"><ele>972.6666666666667</ele><time>2026-04-19T13:12:42.852Z</time></trkpt><trkpt lat="45.44705022101812" lon="7.328586399610339"><ele>971.0</ele><time>2026-04-19T13:12:43.852Z</time></trkpt><trkpt lat="45.44713148422156" lon="7.328356313584958"><ele>974.25</ele><time>2026-04-19T13:12:44.852Z</time></trkpt><trkpt lat="45.44722101843191" lon="7.328109254560071"><ele>977.5</ele><time>2026-04-19T13:12:45.852Z</time></trkpt><trkpt lat="45.44726368128039" lon="7.327939162702604"><ele>980.75</ele><time>2026-04-19T13:12:46.852Z</time></trkpt><trkpt lat="45.4472905840962" lon="7.327794753437593"><ele>984.0</ele><time>2026-04-19T13:12:47.852Z</time></trkpt><trkpt lat="45.447357510150084" lon="7.327672114765127"><ele>984.0</ele><time>2026-04-19T13:12:48.852Z</time></trkpt><trkpt lat="45.447435385877874" lon="7.327542972708821"><ele>984.0</ele><time>2026-04-19T13:12:49.852Z</time></trkpt><trkpt lat="45.44750373002451" lon="7.327405904887555"><ele>984.0</ele><time>2026-04-19T13:12:50.852Z</time></trkpt><trkpt lat="45.44756417653529" lon="7.327271844775851"><ele>984.0</ele><time>2026-04-19T13:12:51.852Z</time></trkpt><trkpt lat="45.44761333525469" lon="7.3271396595774165"><ele>983.6</ele><time>2026-04-19T13:12:52.852Z</time></trkpt><trkpt lat="45.44765731472243" lon="7.327015965370059"><ele>983.2</ele><time>2026-04-19T13:12:53.852Z</time></trkpt><trkpt lat="45.44768254949756" lon="7.326881936475424"><ele>982.8000000000001</ele><time>2026-04-19T13:12:54.852Z</time></trkpt><trkpt lat="45.44771716190688" lon="7.326757525004152"><ele>982.4000000000001</ele><time>2026-04-19T13:12:55.852Z</time></trkpt><trkpt lat="45.447738679760455" lon="7.326629125726814"><ele>982.0</ele><time>2026-04-19T13:12:56.852Z</time></trkpt><trkpt lat="45.44775042600139" lon="7.326497848229845"><ele>982.4000000000001</ele><time>2026-04-19T13:12:57.852Z</time></trkpt><trkpt lat="45.44775734420056" lon="7.326362740423623"><ele>982.8000000000001</ele><time>2026-04-19T13:12:58.852Z</time></trkpt><trkpt lat="45.44776300208339" lon="7.326224004327843"><ele>983.2</ele><time>2026-04-19T13:12:59.852Z</time></trkpt><trkpt lat="45.44776461028712" lon="7.326065756856622"><ele>983.6</ele><time>2026-04-19T13:13:00.852Z</time></trkpt><trkpt lat="45.447768238539695" lon="7.3259028283070675"><ele>984.0</ele><time>2026-04-19T13:13:01.852Z</time></trkpt><trkpt lat="45.44777472938739" lon="7.325730485933871"><ele>984.75</ele><time>2026-04-19T13:13:02.852Z</time></trkpt><trkpt lat="45.447786609212926" lon="7.325552679038724"><ele>985.5</ele><time>2026-04-19T13:13:03.852Z</time></trkpt><trkpt lat="45.44780214897258" lon="7.325361998144152"><ele>986.25</ele><time>2026-04-19T13:13:04.852Z</time></trkpt><trkpt lat="45.447826540972045" lon="7.325161534509247"><ele>987.0</ele><time>2026-04-19T13:13:05.852Z</time></trkpt><trkpt lat="45.44786342228343" lon="7.324950472868957"><ele>987.0</ele><time>2026-04-19T13:13:06.852Z</time></trkpt><trkpt lat="45.44791079742896" lon="7.324750836744632"><ele>987.0</ele><time>2026-04-19T13:13:07.852Z</time></trkpt><trkpt lat="45.44795829505916" lon="7.324577912563049"><ele>987.0</ele><time>2026-04-19T13:13:08.852Z</time></trkpt><trkpt lat="45.44802121282152" lon="7.324434271941174"><ele>987.0</ele><time>2026-04-19T13:13:09.852Z</time></trkpt><trkpt lat="45.44810794613431" lon="7.324295956969489"><ele>990.5</ele><time>2026-04-19T13:13:10.852Z</time></trkpt><trkpt lat="45.44820399938982" lon="7.324171616863406"><ele>994.0</ele><time>2026-04-19T13:13:11.852Z</time></trkpt><trkpt lat="45.448295111402565" lon="7.324046872834266"><ele>997.5</ele><time>2026-04-19T13:13:12.852Z</time></trkpt><trkpt lat="45.448370726601524" lon="7.323892520318775"><ele>1001.0</ele><time>2026-04-19T13:13:13.852Z</time></trkpt><trkpt lat="45.44842822773742" lon="7.32371559600087"><ele>1001.0</ele><time>2026-04-19T13:13:14.852Z</time></trkpt><trkpt lat="45.44847329679915" lon="7.323533878102419"><ele>1001.0</ele><time>2026-04-19T13:13:15.852Z</time></trkpt><trkpt lat="45.44851446910019" lon="7.323353740035826"><ele>1001.0</ele><time>2026-04-19T13:13:16.852Z</time></trkpt><trkpt lat="45.448553130652016" lon="7.3231828249265725"><ele>1001.0</ele><time>2026-04-19T13:13:17.852Z</time></trkpt><trkpt lat="45.448590780838344" lon="7.3230213771320765"><ele>1002.75</ele><time>2026-04-19T13:13:18.852Z</time></trkpt><trkpt lat="45.44863713605608" lon="7.322869195499336"><ele>1004.5</ele><time>2026-04-19T13:13:19.852Z</time></trkpt><trkpt lat="45.448691850810214" lon="7.322733267835712"><ele>1006.25</ele><time>2026-04-19T13:13:20.852Z</time></trkpt><trkpt lat="45.44876036789194" lon="7.322605130214151"><ele>1008.0</ele><time>2026-04-19T13:13:21.852Z</time></trkpt><trkpt lat="45.44884763201034" lon="7.322490276771695"><ele>1009.25</ele><time>2026-04-19T13:13:22.852Z</time></trkpt><trkpt lat="45.448939884834815" lon="7.3223743004131085"><ele>1010.5</ele><time>2026-04-19T13:13:23.852Z</time></trkpt><trkpt lat="45.44902897093409" lon="7.322260417185137"><ele>1011.75</ele><time>2026-04-19T13:13:24.852Z</time></trkpt><trkpt lat="45.449120859766985" lon="7.322162886922583"><ele>1013.0</ele><time>2026-04-19T13:13:25.852Z</time></trkpt><trkpt lat="45.449226973610905" lon="7.322088134947693"><ele>1013.0</ele><time>2026-04-19T13:13:26.852Z</time></trkpt><trkpt lat="45.44933072544971" lon="7.32199660834073"><ele>1013.0</ele><time>2026-04-19T13:13:27.852Z</time></trkpt><trkpt lat="45.44944476617043" lon="7.3219018615173335"><ele>1013.0</ele><time>2026-04-19T13:13:28.852Z</time></trkpt><trkpt lat="45.44956538281201" lon="7.3218059895919305"><ele>1013.0</ele><time>2026-04-19T13:13:29.852Z</time></trkpt><trkpt lat="45.44968482522001" lon="7.321692782447473"><ele>1015.3333333333334</ele><time>2026-04-19T13:13:30.852Z</time></trkpt><trkpt lat="45.449796364316" lon="7.3215505537938705"><ele>1017.6666666666667</ele><time>2026-04-19T13:13:31.852Z</time></trkpt><trkpt lat="45.44990427575881" lon="7.321366647748055"><ele>1020.0</ele><time>2026-04-19T13:13:32.852Z</time></trkpt><trkpt lat="45.450012867044464" lon="7.321163678060532"><ele>1020.0</ele><time>2026-04-19T13:13:33.852Z</time></trkpt><trkpt lat="45.45012238799415" lon="7.320947415831736"><ele>1020.0</ele><time>2026-04-19T13:13:34.852Z</time></trkpt><trkpt lat="45.45021835426898" lon="7.320699576743521"><ele>1020.0</ele><time>2026-04-19T13:13:35.852Z</time></trkpt><trkpt lat="45.45029422528555" lon="7.320640705181593"><ele>1020.0</ele><time>2026-04-19T13:13:36.852Z</time></trkpt><trkpt lat="45.45038851154478" lon="7.320659920373187"><ele>1020.0</ele><time>2026-04-19T13:13:37.852Z</time></trkpt><trkpt lat="45.45041520314664" lon="7.320526526050692"><ele>1020.0</ele><time>2026-04-19T13:13:38.852Z</time></trkpt><trkpt lat="45.450463754890855" lon="7.320406011512467"><ele>1020.0</ele><time>2026-04-19T13:13:39.852Z</time></trkpt><trkpt lat="45.45053385631064" lon="7.320288922651265"><ele>1020.0</ele><time>2026-04-19T13:13:40.852Z</time></trkpt><trkpt lat="45.450592713556944" lon="7.320140635283729"><ele>1020.8</ele><time>2026-04-19T13:13:41.852Z</time></trkpt><trkpt lat="45.45065889612554" lon="7.320001945694366"><ele>1021.6</ele><time>2026-04-19T13:13:42.852Z</time></trkpt><trkpt lat="45.45074583029229" lon="7.319903281882124"><ele>1022.4000000000001</ele><time>2026-04-19T13:13:43.852Z</time></trkpt><trkpt lat="45.45081055535399" lon="7.319788223681842"><ele>1023.2</ele><time>2026-04-19T13:13:44.852Z</time></trkpt><trkpt lat="45.45088118998834" lon="7.319686386383701"><ele>1024.0</ele><time>2026-04-19T13:13:45.852Z</time></trkpt><trkpt lat="45.45095607492834" lon="7.319592705691631"><ele>1024.0</ele><time>2026-04-19T13:13:46.851Z</time></trkpt><trkpt lat="45.451038384155176" lon="7.319500616577719"><ele>1024.0</ele><time>2026-04-19T13:13:47.851Z</time></trkpt><trkpt lat="45.451120418958844" lon="7.319400642512558"><ele>1024.0</ele><time>2026-04-19T13:13:48.851Z</time></trkpt><trkpt lat="45.45119645066565" lon="7.319301918187642"><ele>1024.0</ele><time>2026-04-19T13:13:49.852Z</time></trkpt><trkpt lat="45.451257904155646" lon="7.319208796071044"><ele>1024.0</ele><time>2026-04-19T13:13:50.852Z</time></trkpt><trkpt lat="45.451321887099546" lon="7.319112827051939"><ele>1025.8</ele><time>2026-04-19T13:13:51.851Z</time></trkpt><trkpt lat="45.45138372816616" lon="7.319008565538367"><ele>1027.6000000000001</ele><time>2026-04-19T13:13:52.851Z</time></trkpt><trkpt lat="45.45145086207112" lon="7.318902863877608"><ele>1029.4</ele><time>2026-04-19T13:13:53.851Z</time></trkpt><trkpt lat="45.45152526709928" lon="7.318812107144654"><ele>1031.2</ele><time>2026-04-19T13:13:54.852Z</time></trkpt><trkpt lat="45.45159188760498" lon="7.31872255510481"><ele>1033.0</ele><time>2026-04-19T13:13:55.851Z</time></trkpt><trkpt lat="45.45166030840236" lon="7.318633559411518"><ele>1033.0</ele><time>2026-04-19T13:13:56.851Z</time></trkpt><trkpt lat="45.45172800420462" lon="7.318544630127161"><ele>1033.0</ele><time>2026-04-19T13:13:57.852Z</time></trkpt><trkpt lat="45.45180128402704" lon="7.3184576238677606"><ele>1033.0</ele><time>2026-04-19T13:13:58.851Z</time></trkpt><trkpt lat="45.45187315493174" lon="7.318360947966221"><ele>1033.0</ele><time>2026-04-19T13:13:59.851Z</time></trkpt><trkpt lat="45.45194206197621" lon="7.318270846389881"><ele>1033.0</ele><time>2026-04-19T13:14:00.851Z</time></trkpt><trkpt lat="45.45201741996576" lon="7.318184475370138"><ele>1033.0</ele><time>2026-04-19T13:14:01.851Z</time></trkpt><trkpt lat="45.452090519688234" lon="7.31808841770841"><ele>1033.0</ele><time>2026-04-19T13:14:02.851Z</time></trkpt><trkpt lat="45.45215277047105" lon="7.317986624372112"><ele>1033.0</ele><time>2026-04-19T13:14:03.851Z</time></trkpt><trkpt lat="45.452199924478506" lon="7.3178614233611645"><ele>1033.0</ele><time>2026-04-19T13:14:04.851Z</time></trkpt><trkpt lat="45.45224438976307" lon="7.317724915880795"><ele>1033.0</ele><time>2026-04-19T13:14:05.851Z</time></trkpt><trkpt lat="45.45229832161287" lon="7.317594698300396"><ele>1034.2</ele><time>2026-04-19T13:14:06.851Z</time></trkpt><trkpt lat="45.452356320665785" lon="7.3174716649629"><ele>1035.4</ele><time>2026-04-19T13:14:07.851Z</time></trkpt><trkpt lat="45.452423427008455" lon="7.317357495808049"><ele>1036.6000000000001</ele><time>2026-04-19T13:14:08.851Z</time></trkpt><trkpt lat="45.45249627375218" lon="7.317253123067183"><ele>1037.8</ele><time>2026-04-19T13:14:09.851Z</time></trkpt><trkpt lat="45.452574326314625" lon="7.317154596949497"><ele>1039.0</ele><time>2026-04-19T13:14:10.851Z</time></trkpt><trkpt lat="45.452653994633906" lon="7.3170527703571"><ele>1039.0</ele><time>2026-04-19T13:14:11.851Z</time></trkpt><trkpt lat="45.45273495680495" lon="7.316943753342079"><ele>1039.0</ele><time>2026-04-19T13:14:12.851Z</time></trkpt><trkpt lat="45.452817893969225" lon="7.316835179118813"><ele>1039.0</ele><time>2026-04-19T13:14:13.851Z</time></trkpt><trkpt lat="45.452903210540526" lon="7.3167228864070655"><ele>1039.0</ele><time>2026-04-19T13:14:14.851Z</time></trkpt><trkpt lat="45.45299047669442" lon="7.316613221484831"><ele>1042.75</ele><time>2026-04-19T13:14:15.851Z</time></trkpt><trkpt lat="45.453080875276775" lon="7.316508863045083"><ele>1046.5</ele><time>2026-04-19T13:14:16.851Z</time></trkpt><trkpt lat="45.45316054172082" lon="7.316387505669475"><ele>1050.25</ele><time>2026-04-19T13:14:17.851Z</time></trkpt><trkpt lat="45.453211150107144" lon="7.3162283821896885"><ele>1054.0</ele><time>2026-04-19T13:14:18.851Z</time></trkpt><trkpt lat="45.45326025160637" lon="7.3160740531095545"><ele>1054.0</ele><time>2026-04-19T13:14:19.851Z</time></trkpt><trkpt lat="45.45329867229223" lon="7.31591998496145"><ele>1054.0</ele><time>2026-04-19T13:14:20.851Z</time></trkpt><trkpt lat="45.4533431666049" lon="7.3158006963087905"><ele>1054.0</ele><time>2026-04-19T13:14:21.851Z</time></trkpt><trkpt lat="45.453394492298436" lon="7.315696813695719"><ele>1054.0</ele><time>2026-04-19T13:14:22.851Z</time></trkpt><trkpt lat="45.45345322628229" lon="7.315610704787479"><ele>1054.0</ele><time>2026-04-19T13:14:23.851Z</time></trkpt><trkpt lat="45.45351898471066" lon="7.3155333093145"><ele>1053.0</ele><time>2026-04-19T13:14:24.851Z</time></trkpt><trkpt lat="45.45358435001413" lon="7.315459856711218"><ele>1052.0</ele><time>2026-04-19T13:14:25.851Z</time></trkpt><trkpt lat="45.45364434091325" lon="7.315398520754308"><ele>1051.0</ele><time>2026-04-19T13:14:26.851Z</time></trkpt><trkpt lat="45.45370515219737" lon="7.315335562512616"><ele>1050.0</ele><time>2026-04-19T13:14:27.851Z</time></trkpt><trkpt lat="45.45376465487527" lon="7.315262067556817"><ele>1049.0</ele><time>2026-04-19T13:14:28.851Z</time></trkpt><trkpt lat="45.45383378523197" lon="7.31518850543989"><ele>1048.0</ele><time>2026-04-19T13:14:29.851Z</time></trkpt><trkpt lat="45.45391121555286" lon="7.315116350478763"><ele>1050.0</ele><time>2026-04-19T13:14:30.851Z</time></trkpt><trkpt lat="45.45399202900651" lon="7.31503622908092"><ele>1052.0</ele><time>2026-04-19T13:14:31.851Z</time></trkpt><trkpt lat="45.454073603420476" lon="7.314948789351092"><ele>1054.0</ele><time>2026-04-19T13:14:32.851Z</time></trkpt><trkpt lat="45.45414289899356" lon="7.314853634254816"><ele>1056.0</ele><time>2026-04-19T13:14:33.851Z</time></trkpt><trkpt lat="45.454205308174245" lon="7.314766034051958"><ele>1058.0</ele><time>2026-04-19T13:14:34.851Z</time></trkpt><trkpt lat="45.45425049006258" lon="7.314653642104094"><ele>1058.0</ele><time>2026-04-19T13:14:35.851Z</time></trkpt><trkpt lat="45.454298315145905" lon="7.3145624313593505"><ele>1058.0</ele><time>2026-04-19T13:14:36.851Z</time></trkpt><trkpt lat="45.45435174112266" lon="7.31446562017146"><ele>1058.0</ele><time>2026-04-19T13:14:37.851Z</time></trkpt><trkpt lat="45.4544050101759" lon="7.314373467101261"><ele>1058.0</ele><time>2026-04-19T13:14:38.851Z</time></trkpt><trkpt lat="45.45443124220273" lon="7.314254338232413"><ele>1058.0</ele><time>2026-04-19T13:14:39.851Z</time></trkpt><trkpt lat="45.45445584084793" lon="7.314123902084503"><ele>1058.0</ele><time>2026-04-19T13:14:40.851Z</time></trkpt><trkpt lat="45.45447626887427" lon="7.314021100766716"><ele>1058.3333333333335</ele><time>2026-04-19T13:14:41.851Z</time></trkpt><trkpt lat="45.45448665222968" lon="7.313895429766501"><ele>1058.6666666666667</ele><time>2026-04-19T13:14:42.851Z</time></trkpt><trkpt lat="45.45449874034605" lon="7.3137714522171375"><ele>1059.0</ele><time>2026-04-19T13:14:43.851Z</time></trkpt><trkpt lat="45.45450549410803" lon="7.313646430614501"><ele>1059.3333333333333</ele><time>2026-04-19T13:14:44.851Z</time></trkpt><trkpt lat="45.45451856957393" lon="7.313535259602155"><ele>1059.6666666666665</ele><time>2026-04-19T13:14:45.851Z</time></trkpt><trkpt lat="45.45453093485175" lon="7.313418983106874"><ele>1060.0</ele><time>2026-04-19T13:14:46.851Z</time></trkpt><trkpt lat="45.45454525702367" lon="7.313299109998984"><ele>1060.0</ele><time>2026-04-19T13:14:47.851Z</time></trkpt><trkpt lat="45.45455520157395" lon="7.313180223782252"><ele>1060.0</ele><time>2026-04-19T13:14:48.851Z</time></trkpt><trkpt lat="45.45455724033141" lon="7.313052850904004"><ele>1060.0</ele><time>2026-04-19T13:14:49.851Z</time></trkpt><trkpt lat="45.45454868710923" lon="7.312919031876699"><ele>1060.0</ele><time>2026-04-19T13:14:50.851Z</time></trkpt><trkpt lat="45.4545330954126" lon="7.312767739160763"><ele>1060.0</ele><time>2026-04-19T13:14:51.851Z</time></trkpt><trkpt lat="45.454526303521845" lon="7.3126212606097205"><ele>1060.6</ele><time>2026-04-19T13:14:52.851Z</time></trkpt><trkpt lat="45.454521620668174" lon="7.312478090489046"><ele>1061.2</ele><time>2026-04-19T13:14:53.851Z</time></trkpt><trkpt lat="45.45449536688339" lon="7.312338216651241"><ele>1061.8</ele><time>2026-04-19T13:14:54.851Z</time></trkpt><trkpt lat="45.45444247269067" lon="7.312205496630857"><ele>1062.4</ele><time>2026-04-19T13:14:55.851Z</time></trkpt><trkpt lat="45.45438944950853" lon="7.312082182481042"><ele>1063.0</ele><time>2026-04-19T13:14:56.851Z</time></trkpt><trkpt lat="45.45433703061039" lon="7.311951612822584"><ele>1065.6</ele><time>2026-04-19T13:14:57.851Z</time></trkpt><trkpt lat="45.454293110724336" lon="7.311811422506076"><ele>1068.1999999999998</ele><time>2026-04-19T13:14:58.851Z</time></trkpt><trkpt lat="45.454263432172645" lon="7.311676663785062"><ele>1070.8</ele><time>2026-04-19T13:14:59.851Z</time></trkpt><trkpt lat="45.454241024361366" lon="7.311547529841487"><ele>1073.3999999999999</ele><time>2026-04-19T13:15:00.851Z</time></trkpt><trkpt lat="45.454219407663636" lon="7.311420416226699"><ele>1076.0</ele><time>2026-04-19T13:15:01.851Z</time></trkpt><trkpt lat="45.45419556204476" lon="7.311301020677734"><ele>1078.0</ele><time>2026-04-19T13:15:02.851Z</time></trkpt><trkpt lat="45.45416564239225" lon="7.311188790093926"><ele>1080.0</ele><time>2026-04-19T13:15:03.851Z</time></trkpt><trkpt lat="45.45413794300035" lon="7.311049370175409"><ele>1082.0</ele><time>2026-04-19T13:15:05.851Z</time></trkpt><trkpt lat="45.45413222093531" lon="7.310959873328085"><ele>1084.0</ele><time>2026-04-19T13:15:07.851Z</time></trkpt><trkpt lat="45.45416894932005" lon="7.3108651474332955"><ele>1086.0</ele><time>2026-04-19T13:15:09.851Z</time></trkpt><trkpt lat="45.45425480069491" lon="7.310897661054676"><ele>1088.0</ele><time>2026-04-19T13:15:11.851Z</time></trkpt><trkpt lat="45.4542991810168" lon="7.310976644753594"><ele>1088.0</ele><time>2026-04-19T13:15:12.851Z</time></trkpt><trkpt lat="45.45432228032505" lon="7.311061649783018"><ele>1088.0</ele><time>2026-04-19T13:15:13.851Z</time></trkpt><trkpt lat="45.45434894881073" lon="7.311237668488219"><ele>1088.0</ele><time>2026-04-19T13:15:15.851Z</time></trkpt><trkpt lat="45.4543653492141" lon="7.3113249778191705"><ele>1088.0</ele><time>2026-04-19T13:15:16.851Z</time></trkpt><trkpt lat="45.45438837904469" lon="7.311484399516117"><ele>1088.0</ele><time>2026-04-19T13:15:18.851Z</time></trkpt><trkpt lat="45.45444478836772" lon="7.3115617738673855"><ele>1088.0</ele><time>2026-04-19T13:15:20.851Z</time></trkpt><trkpt lat="45.45451479966" lon="7.31150531679971"><ele>1088.0</ele><time>2026-04-19T13:15:22.851Z</time></trkpt><trkpt lat="45.454508308634225" lon="7.311368229596669"><ele>1088.0</ele><time>2026-04-19T13:15:24.851Z</time></trkpt><trkpt lat="45.45447532724016" lon="7.311207211347501"><ele>1088.0</ele><time>2026-04-19T13:15:26.851Z</time></trkpt><trkpt lat="45.454447622102016" lon="7.311036515028976"><ele>1088.0</ele><time>2026-04-19T13:15:28.851Z</time></trkpt><trkpt lat="45.45440750010902" lon="7.310879477943853"><ele>1088.0</ele><time>2026-04-19T13:15:30.851Z</time></trkpt><trkpt lat="45.45437022382221" lon="7.3107549211436815"><ele>1088.0</ele><time>2026-04-19T13:15:32.851Z</time></trkpt><trkpt lat="45.45444422645763" lon="7.3106878391805985"><ele>1088.0</ele><time>2026-04-19T13:15:34.85Z</time></trkpt><trkpt lat="45.45450650440455" lon="7.310782551923297"><ele>1088.0</ele><time>2026-04-19T13:15:36.85Z</time></trkpt><trkpt lat="45.45454794212985" lon="7.310938009278439"><ele>1088.0</ele><time>2026-04-19T13:15:38.85Z</time></trkpt><trkpt lat="45.45456671940478" lon="7.3110263990937225"><ele>1088.0</ele><time>2026-04-19T13:15:39.85Z</time></trkpt><trkpt lat="45.45459124416349" lon="7.311120705694475"><ele>1088.0</ele><time>2026-04-19T13:15:40.85Z</time></trkpt><trkpt lat="45.454610920767195" lon="7.311222673862197"><ele>1088.0</ele><time>2026-04-19T13:15:41.85Z</time></trkpt><trkpt lat="45.4546244325909" lon="7.311325152499792"><ele>1088.0</ele><time>2026-04-19T13:15:42.85Z</time></trkpt><trkpt lat="45.454637990433696" lon="7.311418332629794"><ele>1088.0</ele><time>2026-04-19T13:15:43.85Z</time></trkpt><trkpt lat="45.454678629416875" lon="7.311575408495802"><ele>1088.0</ele><time>2026-04-19T13:15:45.85Z</time></trkpt><trkpt lat="45.45473863012119" lon="7.311659838885295"><ele>1093.3333333333335</ele><time>2026-04-19T13:15:47.85Z</time></trkpt><trkpt lat="45.4548089512297" lon="7.311570425158145"><ele>1098.6666666666667</ele><time>2026-04-19T13:15:49.85Z</time></trkpt><trkpt lat="45.45475557240821" lon="7.311417358744696"><ele>1104.0</ele><time>2026-04-19T13:15:51.849Z</time></trkpt><trkpt lat="45.45473456240969" lon="7.311327179099042"><ele>1109.3333333333333</ele><time>2026-04-19T13:15:52.85Z</time></trkpt><trkpt lat="45.45471762406411" lon="7.311225026295244"><ele>1114.6666666666665</ele><time>2026-04-19T13:15:53.85Z</time></trkpt><trkpt lat="45.45469228173761" lon="7.311120189039324"><ele>1120.0</ele><time>2026-04-19T13:15:54.85Z</time></trkpt><trkpt lat="45.45467197827781" lon="7.311003487745602"><ele>1122.3333333333333</ele><time>2026-04-19T13:15:55.849Z</time></trkpt><trkpt lat="45.45465319385443" lon="7.310877863595426"><ele>1124.6666666666665</ele><time>2026-04-19T13:15:56.849Z</time></trkpt><trkpt lat="45.45463134646838" lon="7.310746525107224"><ele>1127.0</ele><time>2026-04-19T13:15:57.849Z</time></trkpt><trkpt lat="45.45462206538427" lon="7.310631072656087"><ele>1129.3333333333333</ele><time>2026-04-19T13:15:58.849Z</time></trkpt><trkpt lat="45.454621467531524" lon="7.310531370684243"><ele>1131.6666666666667</ele><time>2026-04-19T13:15:59.849Z</time></trkpt><trkpt lat="45.4546243576429" lon="7.310430400121302"><ele>1134.0</ele><time>2026-04-19T13:16:00.85Z</time></trkpt><trkpt lat="45.45463902960509" lon="7.310331906364667"><ele>1134.8333333333333</ele><time>2026-04-19T13:16:01.849Z</time></trkpt><trkpt lat="45.45466056281721" lon="7.310224635596816"><ele>1135.6666666666667</ele><time>2026-04-19T13:16:02.849Z</time></trkpt><trkpt lat="45.4546987840626" lon="7.310115360107471"><ele>1136.5</ele><time>2026-04-19T13:16:03.849Z</time></trkpt><trkpt lat="45.454743295103576" lon="7.309996197106439"><ele>1137.3333333333335</ele><time>2026-04-19T13:16:04.849Z</time></trkpt><trkpt lat="45.45476748032313" lon="7.309874273485426"><ele>1138.1666666666667</ele><time>2026-04-19T13:16:05.849Z</time></trkpt><trkpt lat="45.454779123315554" lon="7.309745258637028"><ele>1139.0</ele><time>2026-04-19T13:16:06.849Z</time></trkpt><trkpt lat="45.454772349146054" lon="7.309614939002954"><ele>1141.0</ele><time>2026-04-19T13:16:07.849Z</time></trkpt><trkpt lat="45.45474804928547" lon="7.309492078139232"><ele>1143.0</ele><time>2026-04-19T13:16:08.849Z</time></trkpt><trkpt lat="45.454708745174656" lon="7.309365737485455"><ele>1145.0</ele><time>2026-04-19T13:16:09.849Z</time></trkpt><trkpt lat="45.45465217680992" lon="7.309254940521014"><ele>1147.0</ele><time>2026-04-19T13:16:10.849Z</time></trkpt><trkpt lat="45.45458324961886" lon="7.309169305471847"><ele>1149.0</ele><time>2026-04-19T13:16:11.849Z</time></trkpt><trkpt lat="45.45452108347902" lon="7.309082828069844"><ele>1144.0</ele><time>2026-04-19T13:16:12.849Z</time></trkpt><trkpt lat="45.45448586628593" lon="7.308966098412736"><ele>1139.0</ele><time>2026-04-19T13:16:13.849Z</time></trkpt><trkpt lat="45.454470187702086" lon="7.308824400395444"><ele>1134.0</ele><time>2026-04-19T13:16:14.849Z</time></trkpt><trkpt lat="45.454450977190184" lon="7.308666305675709"><ele>1129.0</ele><time>2026-04-19T13:16:15.849Z</time></trkpt><trkpt lat="45.45442538825127" lon="7.308489304533136"><ele>1124.0</ele><time>2026-04-19T13:16:16.849Z</time></trkpt><trkpt lat="45.45440130224178" lon="7.308280841413824"><ele>1130.0</ele><time>2026-04-19T13:16:17.849Z</time></trkpt><trkpt lat="45.45436729501465" lon="7.308046385489073"><ele>1136.0</ele><time>2026-04-19T13:16:18.849Z</time></trkpt><trkpt lat="45.45433097019103" lon="7.307828117875585"><ele>1142.0</ele><time>2026-04-19T13:16:19.849Z</time></trkpt><trkpt lat="45.454300003724526" lon="7.307618254196077"><ele>1142.0</ele><time>2026-04-19T13:16:20.849Z</time></trkpt><trkpt lat="45.45426964456331" lon="7.307420927843404"><ele>1142.0</ele><time>2026-04-19T13:16:21.849Z</time></trkpt><trkpt lat="45.45423427066506" lon="7.307230437591705"><ele>1142.0</ele><time>2026-04-19T13:16:22.849Z</time></trkpt><trkpt lat="45.454189731684146" lon="7.307035087802108"><ele>1142.0</ele><time>2026-04-19T13:16:23.849Z</time></trkpt><trkpt lat="45.45413828538351" lon="7.306839558826448"><ele>1147.6666666666667</ele><time>2026-04-19T13:16:24.849Z</time></trkpt><trkpt lat="45.45408655538207" lon="7.306639095373613"><ele>1153.3333333333333</ele><time>2026-04-19T13:16:25.849Z</time></trkpt><trkpt lat="45.4540386827907" lon="7.306432409754199"><ele>1159.0</ele><time>2026-04-19T13:16:26.849Z</time></trkpt><trkpt lat="45.453986452064534" lon="7.30623011321902"><ele>1160.0</ele><time>2026-04-19T13:16:27.849Z</time></trkpt><trkpt lat="45.45393623467499" lon="7.30603563509039"><ele>1161.0</ele><time>2026-04-19T13:16:28.849Z</time></trkpt><trkpt lat="45.453886474825374" lon="7.305843739153486"><ele>1162.0</ele><time>2026-04-19T13:16:29.849Z</time></trkpt><trkpt lat="45.453836829236344" lon="7.305654896944629"><ele>1163.0</ele><time>2026-04-19T13:16:30.849Z</time></trkpt><trkpt lat="45.453770152649525" lon="7.305477841481252"><ele>1163.0</ele><time>2026-04-19T13:16:31.849Z</time></trkpt><trkpt lat="45.45369351918728" lon="7.3053188287932835"><ele>1163.0</ele><time>2026-04-19T13:16:32.849Z</time></trkpt><trkpt lat="45.45359867704983" lon="7.3051769757519205"><ele>1163.0</ele><time>2026-04-19T13:16:33.849Z</time></trkpt><trkpt lat="45.45349902483975" lon="7.305058118087598"><ele>1163.0</ele><time>2026-04-19T13:16:34.849Z</time></trkpt><trkpt lat="45.45338081383362" lon="7.304965514773621"><ele>1163.0</ele><time>2026-04-19T13:16:35.849Z</time></trkpt><trkpt lat="45.45325507819293" lon="7.304892982596623"><ele>1163.0</ele><time>2026-04-19T13:16:36.849Z</time></trkpt><trkpt lat="45.45312705103964" lon="7.30482938672083"><ele>1163.0</ele><time>2026-04-19T13:16:37.849Z</time></trkpt><trkpt lat="45.45300898498778" lon="7.304773970511507"><ele>1163.0</ele><time>2026-04-19T13:16:38.849Z</time></trkpt><trkpt lat="45.45289410784401" lon="7.3047025086002355"><ele>1163.0</ele><time>2026-04-19T13:16:39.849Z</time></trkpt><trkpt lat="45.45279205604693" lon="7.304604459532778"><ele>1163.0</ele><time>2026-04-19T13:16:40.849Z</time></trkpt><trkpt lat="45.452710687331475" lon="7.304460096097304"><ele>1163.0</ele><time>2026-04-19T13:16:41.849Z</time></trkpt><trkpt lat="45.45266315445872" lon="7.304262815632359"><ele>1163.0</ele><time>2026-04-19T13:16:42.849Z</time></trkpt><trkpt lat="45.45263380620383" lon="7.304062653987759"><ele>1163.5</ele><time>2026-04-19T13:16:43.849Z</time></trkpt><trkpt lat="45.45262181540463" lon="7.303857778247888"><ele>1164.0</ele><time>2026-04-19T13:16:44.849Z</time></trkpt><trkpt lat="45.45261115935355" lon="7.3036508173457815"><ele>1164.5</ele><time>2026-04-19T13:16:45.849Z</time></trkpt><trkpt lat="45.45259683780978" lon="7.3034383164976076"><ele>1165.0</ele><time>2026-04-19T13:16:46.849Z</time></trkpt><trkpt lat="45.452595173321996" lon="7.303214565289836"><ele>1165.6666666666665</ele><time>2026-04-19T13:16:47.849Z</time></trkpt><trkpt lat="45.45261179388048" lon="7.302983181837328"><ele>1166.3333333333333</ele><time>2026-04-19T13:16:48.849Z</time></trkpt><trkpt lat="45.452654056536495" lon="7.30274620510654"><ele>1167.0</ele><time>2026-04-19T13:16:49.849Z</time></trkpt><trkpt lat="45.45272131189449" lon="7.302506827672663"><ele>1167.0</ele><time>2026-04-19T13:16:50.849Z</time></trkpt><trkpt lat="45.45280343830249" lon="7.302266698897462"><ele>1167.0</ele><time>2026-04-19T13:16:51.849Z</time></trkpt><trkpt lat="45.45290095083784" lon="7.302030595147149"><ele>1167.0</ele><time>2026-04-19T13:16:52.849Z</time></trkpt><trkpt lat="45.45299920625945" lon="7.301814176717107"><ele>1168.6666666666667</ele><time>2026-04-19T13:16:53.849Z</time></trkpt><trkpt lat="45.45309363167682" lon="7.301608007362007"><ele>1170.3333333333335</ele><time>2026-04-19T13:16:54.849Z</time></trkpt><trkpt lat="45.45318043567922" lon="7.30142167229926"><ele>1172.0</ele><time>2026-04-19T13:16:55.849Z</time></trkpt><trkpt lat="45.45326138246043" lon="7.301246237357845"><ele>1172.0</ele><time>2026-04-19T13:16:56.849Z</time></trkpt><trkpt lat="45.45334011475229" lon="7.301063813202491"><ele>1172.0</ele><time>2026-04-19T13:16:57.849Z</time></trkpt><trkpt lat="45.45342020001755" lon="7.300879313019528"><ele>1172.0</ele><time>2026-04-19T13:16:58.849Z</time></trkpt><trkpt lat="45.453506475262" lon="7.30068989415525"><ele>1171.3333333333335</ele><time>2026-04-19T13:16:59.849Z</time></trkpt><trkpt lat="45.453585961075596" lon="7.300497246231544"><ele>1170.6666666666667</ele><time>2026-04-19T13:17:00.849Z</time></trkpt><trkpt lat="45.453668625609396" lon="7.300302179988585"><ele>1170.0</ele><time>2026-04-19T13:17:01.849Z</time></trkpt><trkpt lat="45.45375237805455" lon="7.300106617054042"><ele>1179.3333333333333</ele><time>2026-04-19T13:17:02.849Z</time></trkpt><trkpt lat="45.453840758828605" lon="7.299914410368553"><ele>1188.6666666666665</ele><time>2026-04-19T13:17:03.849Z</time></trkpt><trkpt lat="45.453942278040756" lon="7.299720650407253"><ele>1198.0</ele><time>2026-04-19T13:17:04.849Z</time></trkpt><trkpt lat="45.45404320567818" lon="7.299523830717748"><ele>1202.0</ele><time>2026-04-19T13:17:05.849Z</time></trkpt><trkpt lat="45.4541466315421" lon="7.2993252887249795"><ele>1206.0</ele><time>2026-04-19T13:17:06.849Z</time></trkpt><trkpt lat="45.45425260246066" lon="7.299127822157261"><ele>1210.0</ele><time>2026-04-19T13:17:07.849Z</time></trkpt><trkpt lat="45.45436119937627" lon="7.298930192651478"><ele>1213.3333333333333</ele><time>2026-04-19T13:17:08.849Z</time></trkpt><trkpt lat="45.45447086636356" lon="7.298730192234857"><ele>1216.6666666666667</ele><time>2026-04-19T13:17:09.849Z</time></trkpt><trkpt lat="45.45458550694685" lon="7.298528270076536"><ele>1220.0</ele><time>2026-04-19T13:17:10.849Z</time></trkpt><trkpt lat="45.43786594810412" lon="7.2682523370752"><ele>1297.0</ele><time>2026-04-19T13:19:56.847Z</time></trkpt><trkpt lat="45.437745245107855" lon="7.26800454840789"><ele>1374.0</ele><time>2026-04-19T13:19:57.847Z</time></trkpt><trkpt lat="45.43765435745919" lon="7.267757125658061"><ele>1451.0</ele><time>2026-04-19T13:19:58.847Z</time></trkpt><trkpt lat="45.43758056640019" lon="7.267605982035615"><ele>1451.0</ele><time>2026-04-19T13:19:59.847Z</time></trkpt><trkpt lat="45.43750756805419" lon="7.267433347181525"><ele>1451.0</ele><time>2026-04-19T13:20:00.847Z</time></trkpt><trkpt lat="45.43744514520162" lon="7.267267273492747"><ele>1451.0</ele><time>2026-04-19T13:20:01.847Z</time></trkpt><trkpt lat="45.437396953781956" lon="7.267080157570196"><ele>1451.0</ele><time>2026-04-19T13:20:02.846Z</time></trkpt><trkpt lat="45.437349979894506" lon="7.266870476562683"><ele>1451.75</ele><time>2026-04-19T13:20:03.847Z</time></trkpt><trkpt lat="45.43732513531907" lon="7.26666331122046"><ele>1452.5</ele><time>2026-04-19T13:20:04.847Z</time></trkpt><trkpt lat="45.43734524925432" lon="7.266456551749168"><ele>1453.25</ele><time>2026-04-19T13:20:05.847Z</time></trkpt><trkpt lat="45.437365366128944" lon="7.266250191366339"><ele>1454.0</ele><time>2026-04-19T13:20:06.847Z</time></trkpt><trkpt lat="45.43737849045519" lon="7.26604542844365"><ele>1455.25</ele><time>2026-04-19T13:20:07.847Z</time></trkpt><trkpt lat="45.43740743214344" lon="7.265841043320456"><ele>1456.5</ele><time>2026-04-19T13:20:08.846Z</time></trkpt><trkpt lat="45.43742657159917" lon="7.2656386368290695"><ele>1457.75</ele><time>2026-04-19T13:20:09.847Z</time></trkpt><trkpt lat="45.43744187966028" lon="7.265434293135744"><ele>1459.0</ele><time>2026-04-19T13:20:10.846Z</time></trkpt><trkpt lat="45.43745202455425" lon="7.265245532099841"><ele>1461.5</ele><time>2026-04-19T13:20:11.846Z</time></trkpt><trkpt lat="45.43746231887202" lon="7.265061241089238"><ele>1464.0</ele><time>2026-04-19T13:20:12.846Z</time></trkpt><trkpt lat="45.43746210920559" lon="7.26488010767011"><ele>1466.5</ele><time>2026-04-19T13:20:13.846Z</time></trkpt><trkpt lat="45.4374378791258" lon="7.264714768479576"><ele>1469.0</ele><time>2026-04-19T13:20:14.847Z</time></trkpt><trkpt lat="45.437385354809045" lon="7.2645580878975"><ele>1469.5</ele><time>2026-04-19T13:20:15.846Z</time></trkpt><trkpt lat="45.437306911417934" lon="7.264419558707237"><ele>1470.0</ele><time>2026-04-19T13:20:16.846Z</time></trkpt><trkpt lat="45.43720155800155" lon="7.264309242299013"><ele>1470.5</ele><time>2026-04-19T13:20:17.846Z</time></trkpt><trkpt lat="45.43707386134831" lon="7.264235947224498"><ele>1471.0</ele><time>2026-04-19T13:20:18.846Z</time></trkpt><trkpt lat="45.43694861022152" lon="7.264143364302656"><ele>1471.0</ele><time>2026-04-19T13:20:19.846Z</time></trkpt><trkpt lat="45.43683531237174" lon="7.264024791398421"><ele>1471.0</ele><time>2026-04-19T13:20:20.846Z</time></trkpt><trkpt lat="45.436717324051145" lon="7.263889860076144"><ele>1471.0</ele><time>2026-04-19T13:20:21.846Z</time></trkpt><trkpt lat="45.43659479495734" lon="7.263743072029455"><ele>1472.25</ele><time>2026-04-19T13:20:22.846Z</time></trkpt><trkpt lat="45.436477157319224" lon="7.263596432043126"><ele>1473.5</ele><time>2026-04-19T13:20:23.846Z</time></trkpt><trkpt lat="45.43638164952791" lon="7.263455710705855"><ele>1474.75</ele><time>2026-04-19T13:20:24.846Z</time></trkpt><trkpt lat="45.43630654754754" lon="7.2632948955370775"><ele>1476.0</ele><time>2026-04-19T13:20:25.846Z</time></trkpt><trkpt lat="45.436245908022414" lon="7.26312995263018"><ele>1475.5</ele><time>2026-04-19T13:20:26.846Z</time></trkpt><trkpt lat="45.43619910960643" lon="7.26294688322332"><ele>1475.0</ele><time>2026-04-19T13:20:27.846Z</time></trkpt><trkpt lat="45.4361596530812" lon="7.262748125398342"><ele>1474.5</ele><time>2026-04-19T13:20:28.846Z</time></trkpt><trkpt lat="45.436122269032325" lon="7.2625426065161145"><ele>1474.0</ele><time>2026-04-19T13:20:29.846Z</time></trkpt><trkpt lat="45.43609097430317" lon="7.262343907177186"><ele>1474.25</ele><time>2026-04-19T13:20:30.846Z</time></trkpt><trkpt lat="45.436062699984255" lon="7.262152360836143"><ele>1474.5</ele><time>2026-04-19T13:20:31.846Z</time></trkpt><trkpt lat="45.43604870083253" lon="7.261981550649565"><ele>1474.75</ele><time>2026-04-19T13:20:32.846Z</time></trkpt><trkpt lat="45.436090610423584" lon="7.261818206750013"><ele>1475.0</ele><time>2026-04-19T13:20:33.846Z</time></trkpt><trkpt lat="45.436133743752286" lon="7.261643445506195"><ele>1475.0</ele><time>2026-04-19T13:20:34.846Z</time></trkpt><trkpt lat="45.43617013826305" lon="7.261468489316947"><ele>1475.0</ele><time>2026-04-19T13:20:35.846Z</time></trkpt><trkpt lat="45.436187193867156" lon="7.261279513528377"><ele>1475.0</ele><time>2026-04-19T13:20:36.846Z</time></trkpt><trkpt lat="45.43615684069931" lon="7.261093824212775"><ele>1475.0</ele><time>2026-04-19T13:20:37.846Z</time></trkpt><trkpt lat="45.4361329781476" lon="7.260904922440915"><ele>1476.0</ele><time>2026-04-19T13:20:38.846Z</time></trkpt><trkpt lat="45.436071343896835" lon="7.260729504772739"><ele>1477.0</ele><time>2026-04-19T13:20:39.846Z</time></trkpt><trkpt lat="45.43599566671899" lon="7.2605572367472435"><ele>1478.0</ele><time>2026-04-19T13:20:40.846Z</time></trkpt><trkpt lat="45.43590678649509" lon="7.260413247363045"><ele>1479.0</ele><time>2026-04-19T13:20:41.846Z</time></trkpt><trkpt lat="45.43580617741399" lon="7.260294211359188"><ele>1482.0</ele><time>2026-04-19T13:20:42.846Z</time></trkpt><trkpt lat="45.435684612184765" lon="7.2602056465779174"><ele>1485.0</ele><time>2026-04-19T13:20:43.846Z</time></trkpt><trkpt lat="45.43555564256882" lon="7.260172598901016"><ele>1488.0</ele><time>2026-04-19T13:20:44.846Z</time></trkpt><trkpt lat="45.43542859301132" lon="7.260158470104001"><ele>1491.0</ele><time>2026-04-19T13:20:45.846Z</time></trkpt><trkpt lat="45.435301124041374" lon="7.260177680399941"><ele>1491.0</ele><time>2026-04-19T13:20:46.846Z</time></trkpt><trkpt lat="45.43517135775456" lon="7.260226096672145"><ele>1491.0</ele><time>2026-04-19T13:20:47.846Z</time></trkpt><trkpt lat="45.435046516527514" lon="7.260295150973867"><ele>1491.0</ele><time>2026-04-19T13:20:48.846Z</time></trkpt><trkpt lat="45.434932551730334" lon="7.260359707723257"><ele>1491.0</ele><time>2026-04-19T13:20:49.846Z</time></trkpt><trkpt lat="45.43481773883229" lon="7.260417131711462"><ele>1491.0</ele><time>2026-04-19T13:20:50.846Z</time></trkpt><trkpt lat="45.43470495057556" lon="7.260450809325365"><ele>1491.0</ele><time>2026-04-19T13:20:51.846Z</time></trkpt><trkpt lat="45.434596661035556" lon="7.260463586885253"><ele>1491.0</ele><time>2026-04-19T13:20:52.846Z</time></trkpt><trkpt lat="45.434492960758355" lon="7.260455181842293"><ele>1491.0</ele><time>2026-04-19T13:20:53.846Z</time></trkpt><trkpt lat="45.434397568593276" lon="7.260401271277945"><ele>1491.0</ele><time>2026-04-19T13:20:54.845Z</time></trkpt><trkpt lat="45.43434479661288" lon="7.26027941231441"><ele>1492.25</ele><time>2026-04-19T13:20:55.845Z</time></trkpt><trkpt lat="45.434282412015335" lon="7.260161404403547"><ele>1493.5</ele><time>2026-04-19T13:20:56.845Z</time></trkpt><trkpt lat="45.43423162015867" lon="7.260014140776315"><ele>1494.75</ele><time>2026-04-19T13:20:57.845Z</time></trkpt><trkpt lat="45.43417327307378" lon="7.2598610184953305"><ele>1496.0</ele><time>2026-04-19T13:20:58.845Z</time></trkpt><trkpt lat="45.434132880472234" lon="7.259694808187464"><ele>1496.0</ele><time>2026-04-19T13:20:59.845Z</time></trkpt><trkpt lat="45.4341109197919" lon="7.259526989402867"><ele>1496.0</ele><time>2026-04-19T13:21:00.845Z</time></trkpt><trkpt lat="45.43410617003188" lon="7.2593477876863135"><ele>1496.0</ele><time>2026-04-19T13:21:01.845Z</time></trkpt><trkpt lat="45.43410104112455" lon="7.259174848234332"><ele>1496.0</ele><time>2026-04-19T13:21:02.845Z</time></trkpt><trkpt lat="45.43411708929537" lon="7.259003628097484"><ele>1497.0</ele><time>2026-04-19T13:21:03.845Z</time></trkpt><trkpt lat="45.434113801371595" lon="7.258836098581348"><ele>1498.0</ele><time>2026-04-19T13:21:04.845Z</time></trkpt><trkpt lat="45.43409206976399" lon="7.258676910331469"><ele>1499.0</ele><time>2026-04-19T13:21:05.845Z</time></trkpt><trkpt lat="45.43402621685169" lon="7.258529416084087"><ele>1500.0</ele><time>2026-04-19T13:21:06.845Z</time></trkpt><trkpt lat="45.43396638649336" lon="7.258377882249419"><ele>1500.0</ele><time>2026-04-19T13:21:07.845Z</time></trkpt><trkpt lat="45.43389861656392" lon="7.258233292163626"><ele>1500.0</ele><time>2026-04-19T13:21:08.845Z</time></trkpt><trkpt lat="45.43381837587848" lon="7.258103281811016"><ele>1500.0</ele><time>2026-04-19T13:21:09.845Z</time></trkpt><trkpt lat="45.43374015970144" lon="7.257990437159554"><ele>1500.0</ele><time>2026-04-19T13:21:10.845Z</time></trkpt><trkpt lat="45.43364789696587" lon="7.257892094096676"><ele>1500.2</ele><time>2026-04-19T13:21:11.845Z</time></trkpt><trkpt lat="45.433571150293524" lon="7.25778454671356"><ele>1500.4</ele><time>2026-04-19T13:21:12.845Z</time></trkpt><trkpt lat="45.433504608403645" lon="7.257657577569654"><ele>1500.6</ele><time>2026-04-19T13:21:13.845Z</time></trkpt><trkpt lat="45.433441375805735" lon="7.257532775573584"><ele>1500.8</ele><time>2026-04-19T13:21:14.845Z</time></trkpt><trkpt lat="45.43337721333548" lon="7.257395312141333"><ele>1501.0</ele><time>2026-04-19T13:21:15.845Z</time></trkpt><trkpt lat="45.433318376405666" lon="7.25725098945263"><ele>1501.0</ele><time>2026-04-19T13:21:16.845Z</time></trkpt><trkpt lat="45.4332674871497" lon="7.257088530209942"><ele>1501.0</ele><time>2026-04-19T13:21:17.845Z</time></trkpt><trkpt lat="45.433223361304" lon="7.256926590332561"><ele>1501.0</ele><time>2026-04-19T13:21:18.845Z</time></trkpt><trkpt lat="45.433178150153424" lon="7.25675800730038"><ele>1501.0</ele><time>2026-04-19T13:21:19.845Z</time></trkpt><trkpt lat="45.43312618607625" lon="7.256585519962503"><ele>1500.0</ele><time>2026-04-19T13:21:20.845Z</time></trkpt><trkpt lat="45.43305696483966" lon="7.256421736497682"><ele>1499.0</ele><time>2026-04-19T13:21:21.845Z</time></trkpt><trkpt lat="45.43297764563874" lon="7.2562760468461"><ele>1498.0</ele><time>2026-04-19T13:21:22.845Z</time></trkpt><trkpt lat="45.43288738418422" lon="7.256161829029264"><ele>1497.0</ele><time>2026-04-19T13:21:23.845Z</time></trkpt><trkpt lat="45.43279380617507" lon="7.256054280451347"><ele>1497.0</ele><time>2026-04-19T13:21:24.845Z</time></trkpt><trkpt lat="45.43271093133588" lon="7.255925011433237"><ele>1497.0</ele><time>2026-04-19T13:21:25.845Z</time></trkpt><trkpt lat="45.432634076213006" lon="7.255773121158005"><ele>1497.0</ele><time>2026-04-19T13:21:26.845Z</time></trkpt><trkpt lat="45.43256575532608" lon="7.255610672377518"><ele>1497.0</ele><time>2026-04-19T13:21:27.845Z</time></trkpt><trkpt lat="45.43251968573742" lon="7.255437833365607"><ele>1497.75</ele><time>2026-04-19T13:21:28.845Z</time></trkpt><trkpt lat="45.432488142554206" lon="7.255264746383619"><ele>1498.5</ele><time>2026-04-19T13:21:29.845Z</time></trkpt><trkpt lat="45.43247057383636" lon="7.255081341596348"><ele>1499.25</ele><time>2026-04-19T13:21:30.845Z</time></trkpt><trkpt lat="45.432466243398004" lon="7.254894225892085"><ele>1500.0</ele><time>2026-04-19T13:21:31.845Z</time></trkpt><trkpt lat="45.43246886012319" lon="7.2547058130824995"><ele>1501.25</ele><time>2026-04-19T13:21:32.845Z</time></trkpt><trkpt lat="45.43246254861432" lon="7.254512301269865"><ele>1502.5</ele><time>2026-04-19T13:21:33.845Z</time></trkpt><trkpt lat="45.432433682301955" lon="7.254338834027781"><ele>1503.75</ele><time>2026-04-19T13:21:34.845Z</time></trkpt><trkpt lat="45.43239000665832" lon="7.254189305354052"><ele>1505.0</ele><time>2026-04-19T13:21:35.845Z</time></trkpt><trkpt lat="45.43235127615629" lon="7.254041650259913"><ele>1507.5</ele><time>2026-04-19T13:21:36.845Z</time></trkpt><trkpt lat="45.43231462598095" lon="7.253896602503504"><ele>1510.0</ele><time>2026-04-19T13:21:37.845Z</time></trkpt><trkpt lat="45.43227802453965" lon="7.25374413557542"><ele>1512.5</ele><time>2026-04-19T13:21:38.845Z</time></trkpt><trkpt lat="45.43224242674075" lon="7.2535896281077195"><ele>1515.0</ele><time>2026-04-19T13:21:39.845Z</time></trkpt><trkpt lat="45.432207672659345" lon="7.253433791541971"><ele>1515.0</ele><time>2026-04-19T13:21:40.845Z</time></trkpt><trkpt lat="45.43217537442631" lon="7.253274691083295"><ele>1515.0</ele><time>2026-04-19T13:21:41.845Z</time></trkpt><trkpt lat="45.43214202742625" lon="7.253111084794516"><ele>1515.0</ele><time>2026-04-19T13:21:42.845Z</time></trkpt><trkpt lat="45.4320973537659" lon="7.252951912954737"><ele>1515.0</ele><time>2026-04-19T13:21:43.845Z</time></trkpt><trkpt lat="45.43206852032178" lon="7.25278177221446"><ele>1514.25</ele><time>2026-04-19T13:21:44.845Z</time></trkpt><trkpt lat="45.43203519414404" lon="7.252610335179727"><ele>1513.5</ele><time>2026-04-19T13:21:45.845Z</time></trkpt><trkpt lat="45.4320002384888" lon="7.252446224977951"><ele>1512.75</ele><time>2026-04-19T13:21:46.845Z</time></trkpt><trkpt lat="45.43196108770978" lon="7.252284904870637"><ele>1512.0</ele><time>2026-04-19T13:21:47.845Z</time></trkpt><trkpt lat="45.431930095419474" lon="7.252137310758846"><ele>1512.0</ele><time>2026-04-19T13:21:48.845Z</time></trkpt><trkpt lat="45.431903890670874" lon="7.251999565917802"><ele>1512.0</ele><time>2026-04-19T13:21:49.845Z</time></trkpt><trkpt lat="45.43187479199387" lon="7.251881827273108"><ele>1512.0</ele><time>2026-04-19T13:21:50.845Z</time></trkpt><trkpt lat="45.43182127572772" lon="7.251772230648688"><ele>1512.0</ele><time>2026-04-19T13:21:51.845Z</time></trkpt><trkpt lat="45.431750453796084" lon="7.251673669182581"><ele>1512.0</ele><time>2026-04-19T13:21:52.845Z</time></trkpt><trkpt lat="45.43167196766409" lon="7.251585327363929"><ele>1512.0</ele><time>2026-04-19T13:21:53.845Z</time></trkpt><trkpt lat="45.43160410563526" lon="7.2514917624713435"><ele>1512.0</ele><time>2026-04-19T13:21:54.845Z</time></trkpt><trkpt lat="45.43155321173377" lon="7.251382278601754"><ele>1512.0</ele><time>2026-04-19T13:21:55.845Z</time></trkpt><trkpt lat="45.43150007718278" lon="7.251264454068429"><ele>1512.0</ele><time>2026-04-19T13:21:56.845Z</time></trkpt><trkpt lat="45.43144207638265" lon="7.2511544181184595"><ele>1512.0</ele><time>2026-04-19T13:21:57.845Z</time></trkpt><trkpt lat="45.431382442142514" lon="7.251035301637125"><ele>1519.0</ele><time>2026-04-19T13:21:58.845Z</time></trkpt><trkpt lat="45.431324112308786" lon="7.250912232473656"><ele>1519.0</ele><time>2026-04-19T13:21:59.845Z</time></trkpt></trkseg></trk></gpx>